<?xml version='1.0' encoding='UTF-8'?><gpx version="1.1" creator="JPX - https://github.com/jenetics/jpx" xmlns="http://www.topografix.com/GPX/1/1"><trk><trkseg><trkpt lat="46.0225494079151" lon="11.911932498914666"><ele>277.0</ele><time>2026-05-01T04:19:49Z</time></trkpt><trkpt lat="46.02258889464989" lon="11.912027426190484"><ele>277.0</ele><time>2026-05-01T04:19:52Z</time></trkpt><trkpt lat="46.0225863270324" lon="11.912141706211791"><ele>277.0</ele><time>2026-05-01T04:19:53Z</time></trkpt><trkpt lat="46.02256314104893" lon="11.912263041283161"><ele>277.0</ele><time>2026-05-01T04:19:54Z</time></trkpt><trkpt lat="46.02253367069107" lon="11.912387493464355"><ele>277.0</ele><time>2026-05-01T04:19:55Z</time></trkpt><trkpt lat="46.02252723470622" lon="11.912517493007355"><ele>277.0</ele><time>2026-05-01T04:19:56Z</time></trkpt><trkpt lat="46.02255477207307" lon="11.91265330586308"><ele>276.6</ele><time>2026-05-01T04:19:57Z</time></trkpt><trkpt lat="46.022594914363225" lon="11.912787932442535"><ele>276.2</ele><time>2026-05-01T04:19:58Z</time></trkpt><trkpt lat="46.02262673480935" lon="11.91293853048179"><ele>275.8</ele><time>2026-05-01T04:19:59Z</time></trkpt><trkpt lat="46.02264033317211" lon="11.913103023175603"><ele>275.4</ele><time>2026-05-01T04:20:00Z</time></trkpt><trkpt lat="46.02264513892378" lon="11.913270033854031"><ele>275.0</ele><time>2026-05-01T04:20:01Z</time></trkpt><trkpt lat="46.0226501594401" lon="11.913448691388872"><ele>275.0</ele><time>2026-05-01T04:20:02Z</time></trkpt><trkpt lat="46.0226582067967" lon="11.913620082096925"><ele>275.0</ele><time>2026-05-01T04:20:03Z</time></trkpt><trkpt lat="46.02266710350619" lon="11.913788826506782"><ele>275.0</ele><time>2026-05-01T04:20:04Z</time></trkpt><trkpt lat="46.022672433492346" lon="11.913953552774078"><ele>275.0</ele><time>2026-05-01T04:20:05Z</time></trkpt><trkpt lat="46.0226762361544" lon="11.914121100917008"><ele>275.0</ele><time>2026-05-01T04:20:06Z</time></trkpt><trkpt lat="46.0226847050384" lon="11.914293234055204"><ele>275.0</ele><time>2026-05-01T04:20:07Z</time></trkpt><trkpt lat="46.02269212481953" lon="11.914461336034769"><ele>275.0</ele><time>2026-05-01T04:20:08Z</time></trkpt><trkpt lat="46.02270165838568" lon="11.914632860238576"><ele>275.0</ele><time>2026-05-01T04:20:09Z</time></trkpt><trkpt lat="46.02270997917071" lon="11.914810064326783"><ele>275.0</ele><time>2026-05-01T04:20:10Z</time></trkpt><trkpt lat="46.02271662852835" lon="11.914981000428426"><ele>275.0</ele><time>2026-05-01T04:20:11Z</time></trkpt><trkpt lat="46.02272297215825" lon="11.91515196136626"><ele>275.0</ele><time>2026-05-01T04:20:12Z</time></trkpt><trkpt lat="46.02273244798505" lon="11.915321199986591"><ele>275.0</ele><time>2026-05-01T04:20:13Z</time></trkpt><trkpt lat="46.022744109714154" lon="11.915489566540124"><ele>275.75</ele><time>2026-05-01T04:20:14Z</time></trkpt><trkpt lat="46.022753154927514" lon="11.915661199589152"><ele>276.5</ele><time>2026-05-01T04:20:15Z</time></trkpt><trkpt lat="46.02275749375532" lon="11.91582771675623"><ele>277.25</ele><time>2026-05-01T04:20:16Z</time></trkpt><trkpt lat="46.02276267447147" lon="11.915995667970037"><ele>278.0</ele><time>2026-05-01T04:20:17Z</time></trkpt><trkpt lat="46.022768938123235" lon="11.916164588218663"><ele>279.25</ele><time>2026-05-01T04:20:18Z</time></trkpt><trkpt lat="46.02277928032231" lon="11.916331404284483"><ele>280.5</ele><time>2026-05-01T04:20:19Z</time></trkpt><trkpt lat="46.022786049585484" lon="11.916502558076465"><ele>281.75</ele><time>2026-05-01T04:20:20Z</time></trkpt><trkpt lat="46.02278911068615" lon="11.9166673950136"><ele>283.0</ele><time>2026-05-01T04:20:21Z</time></trkpt><trkpt lat="46.02279503825428" lon="11.916837612606814"><ele>283.75</ele><time>2026-05-01T04:20:22Z</time></trkpt><trkpt lat="46.02280256493606" lon="11.91700077785436"><ele>284.5</ele><time>2026-05-01T04:20:23Z</time></trkpt><trkpt lat="46.022809606946986" lon="11.91716870867749"><ele>285.25</ele><time>2026-05-01T04:20:24Z</time></trkpt><trkpt lat="46.02281542595112" lon="11.917334169414344"><ele>286.0</ele><time>2026-05-01T04:20:25Z</time></trkpt><trkpt lat="46.022821970777926" lon="11.917501948452491"><ele>286.25</ele><time>2026-05-01T04:20:26Z</time></trkpt><trkpt lat="46.022830037868886" lon="11.917671709707394"><ele>286.5</ele><time>2026-05-01T04:20:27Z</time></trkpt><trkpt lat="46.022837542063684" lon="11.917842227230356"><ele>286.75</ele><time>2026-05-01T04:20:28Z</time></trkpt><trkpt lat="46.02284660562537" lon="11.918013616810448"><ele>287.0</ele><time>2026-05-01T04:20:29Z</time></trkpt><trkpt lat="46.02285254207563" lon="11.918187336034267"><ele>287.0</ele><time>2026-05-01T04:20:30Z</time></trkpt><trkpt lat="46.022862572702955" lon="11.918362279587113"><ele>287.0</ele><time>2026-05-01T04:20:31Z</time></trkpt><trkpt lat="46.02287034127216" lon="11.91853579050538"><ele>287.0</ele><time>2026-05-01T04:20:32Z</time></trkpt><trkpt lat="46.02288045434888" lon="11.91870640782703"><ele>287.0</ele><time>2026-05-01T04:20:33Z</time></trkpt><trkpt lat="46.02288354533438" lon="11.9188868572647"><ele>288.0</ele><time>2026-05-01T04:20:34Z</time></trkpt><trkpt lat="46.02288953061897" lon="11.919080508043796"><ele>289.0</ele><time>2026-05-01T04:20:35Z</time></trkpt><trkpt lat="46.02289840211924" lon="11.919279897764472"><ele>290.0</ele><time>2026-05-01T04:20:36Z</time></trkpt><trkpt lat="46.02291400789406" lon="11.919490771702158"><ele>291.0</ele><time>2026-05-01T04:20:37Z</time></trkpt><trkpt lat="46.022926218227866" lon="11.919707061562844"><ele>291.5</ele><time>2026-05-01T04:20:38Z</time></trkpt><trkpt lat="46.02293750805334" lon="11.919911896459608"><ele>292.0</ele><time>2026-05-01T04:20:39Z</time></trkpt><trkpt lat="46.02294244292561" lon="11.920103688130839"><ele>292.5</ele><time>2026-05-01T04:20:40Z</time></trkpt><trkpt lat="46.02295053526314" lon="11.920285339335653"><ele>293.0</ele><time>2026-05-01T04:20:41Z</time></trkpt><trkpt lat="46.02296268549368" lon="11.920454276742833"><ele>293.0</ele><time>2026-05-01T04:20:42Z</time></trkpt><trkpt lat="46.022976326989166" lon="11.920599481718453"><ele>293.0</ele><time>2026-05-01T04:20:43Z</time></trkpt><trkpt lat="46.022980969130295" lon="11.920728727482386"><ele>293.0</ele><time>2026-05-01T04:20:44Z</time></trkpt><trkpt lat="46.02297816564404" lon="11.920842957006263"><ele>293.0</ele><time>2026-05-01T04:20:45Z</time></trkpt><trkpt lat="46.02295087412032" lon="11.920947316083533"><ele>293.0</ele><time>2026-05-01T04:20:46Z</time></trkpt><trkpt lat="46.02289891404051" lon="11.921040179673078"><ele>293.0</ele><time>2026-05-01T04:20:47Z</time></trkpt><trkpt lat="46.02284287263693" lon="11.921119254314746"><ele>293.0</ele><time>2026-05-01T04:20:48Z</time></trkpt><trkpt lat="46.02279249249208" lon="11.921205733293581"><ele>293.0</ele><time>2026-05-01T04:20:49Z</time></trkpt><trkpt lat="46.02277134711788" lon="11.921315008403557"><ele>293.0</ele><time>2026-05-01T04:20:50Z</time></trkpt><trkpt lat="46.022788687776966" lon="11.921443534741336"><ele>293.0</ele><time>2026-05-01T04:20:51Z</time></trkpt><trkpt lat="46.02282948881193" lon="11.921563143524017"><ele>293.0</ele><time>2026-05-01T04:20:52Z</time></trkpt><trkpt lat="46.02289895363989" lon="11.92167109004518"><ele>293.0</ele><time>2026-05-01T04:20:53Z</time></trkpt><trkpt lat="46.02298094437754" lon="11.921777291782982"><ele>293.0</ele><time>2026-05-01T04:20:54Z</time></trkpt><trkpt lat="46.02305643614578" lon="11.921897644029956"><ele>293.0</ele><time>2026-05-01T04:20:55Z</time></trkpt><trkpt lat="46.023122709869995" lon="11.922041685825908"><ele>293.0</ele><time>2026-05-01T04:20:56Z</time></trkpt><trkpt lat="46.02318138597813" lon="11.922198720707193"><ele>293.0</ele><time>2026-05-01T04:20:57Z</time></trkpt><trkpt lat="46.02323408709762" lon="11.922355867862786"><ele>293.0</ele><time>2026-05-01T04:20:58Z</time></trkpt><trkpt lat="46.02329139510758" lon="11.92251252399464"><ele>293.0</ele><time>2026-05-01T04:20:59Z</time></trkpt><trkpt lat="46.023346084258364" lon="11.922664349632912"><ele>293.0</ele><time>2026-05-01T04:21:00Z</time></trkpt><trkpt lat="46.02340746116135" lon="11.92281281796805"><ele>293.0</ele><time>2026-05-01T04:21:01Z</time></trkpt><trkpt lat="46.02346794806195" lon="11.922963365282891"><ele>293.5</ele><time>2026-05-01T04:21:02Z</time></trkpt><trkpt lat="46.023528443624976" lon="11.923116743255662"><ele>294.0</ele><time>2026-05-01T04:21:03Z</time></trkpt><trkpt lat="46.023593028905275" lon="11.923260362390824"><ele>294.5</ele><time>2026-05-01T04:21:04Z</time></trkpt><trkpt lat="46.02365378489484" lon="11.923405654288489"><ele>295.0</ele><time>2026-05-01T04:21:05Z</time></trkpt><trkpt lat="46.02372871471157" lon="11.923549139996918"><ele>295.5</ele><time>2026-05-01T04:21:06Z</time></trkpt><trkpt lat="46.023795692450115" lon="11.92368535641359"><ele>296.0</ele><time>2026-05-01T04:21:07Z</time></trkpt><trkpt lat="46.02386168603212" lon="11.92382020608808"><ele>296.5</ele><time>2026-05-01T04:21:08Z</time></trkpt><trkpt lat="46.023936159108" lon="11.923953158499298"><ele>297.0</ele><time>2026-05-01T04:21:09Z</time></trkpt><trkpt lat="46.024005443844764" lon="11.924082836548802"><ele>297.0</ele><time>2026-05-01T04:21:10Z</time></trkpt><trkpt lat="46.02407855470038" lon="11.924217306487034"><ele>297.0</ele><time>2026-05-01T04:21:11Z</time></trkpt><trkpt lat="46.02415326543683" lon="11.92434295392384"><ele>297.0</ele><time>2026-05-01T04:21:12Z</time></trkpt><trkpt lat="46.02422856833258" lon="11.924468275687726"><ele>297.0</ele><time>2026-05-01T04:21:13Z</time></trkpt><trkpt lat="46.024307078903675" lon="11.924599497874178"><ele>297.0</ele><time>2026-05-01T04:21:14Z</time></trkpt><trkpt lat="46.024389906937266" lon="11.924731854132371"><ele>297.0</ele><time>2026-05-01T04:21:15Z</time></trkpt><trkpt lat="46.02446356520944" lon="11.9248660269796"><ele>297.0</ele><time>2026-05-01T04:21:16Z</time></trkpt><trkpt lat="46.02453387199988" lon="11.924992481240269"><ele>297.0</ele><time>2026-05-01T04:21:17Z</time></trkpt><trkpt lat="46.02460599811582" lon="11.925125739445532"><ele>297.75</ele><time>2026-05-01T04:21:18Z</time></trkpt><trkpt lat="46.02467985898143" lon="11.925258507420853"><ele>298.5</ele><time>2026-05-01T04:21:19Z</time></trkpt><trkpt lat="46.024746577415065" lon="11.925385154299414"><ele>299.25</ele><time>2026-05-01T04:21:20Z</time></trkpt><trkpt lat="46.024813751650264" lon="11.925515737228809"><ele>300.0</ele><time>2026-05-01T04:21:21Z</time></trkpt><trkpt lat="46.02487953545797" lon="11.925652886213973"><ele>300.0</ele><time>2026-05-01T04:21:22Z</time></trkpt><trkpt lat="46.02493884580935" lon="11.925792782776087"><ele>300.0</ele><time>2026-05-01T04:21:23Z</time></trkpt><trkpt lat="46.02499728972382" lon="11.925932141856594"><ele>300.0</ele><time>2026-05-01T04:21:24Z</time></trkpt><trkpt lat="46.02505574850611" lon="11.926072115687248"><ele>300.0</ele><time>2026-05-01T04:21:25Z</time></trkpt><trkpt lat="46.02511617699137" lon="11.926209365012827"><ele>299.75</ele><time>2026-05-01T04:21:26Z</time></trkpt><trkpt lat="46.025170872855625" lon="11.926346580876041"><ele>299.5</ele><time>2026-05-01T04:21:27Z</time></trkpt><trkpt lat="46.02522518948692" lon="11.926496838014172"><ele>299.25</ele><time>2026-05-01T04:21:28Z</time></trkpt><trkpt lat="46.02528047194381" lon="11.926638378486878"><ele>299.0</ele><time>2026-05-01T04:21:29Z</time></trkpt><trkpt lat="46.025328294751716" lon="11.92678499728938"><ele>300.0</ele><time>2026-05-01T04:21:30Z</time></trkpt><trkpt lat="46.02538033235404" lon="11.926936322185592"><ele>301.0</ele><time>2026-05-01T04:21:31Z</time></trkpt><trkpt lat="46.025427122815174" lon="11.927086043028691"><ele>302.0</ele><time>2026-05-01T04:21:32Z</time></trkpt><trkpt lat="46.02547715474652" lon="11.927235387666856"><ele>303.0</ele><time>2026-05-01T04:21:33Z</time></trkpt><trkpt lat="46.02552293688457" lon="11.92738264105277"><ele>303.0</ele><time>2026-05-01T04:21:34Z</time></trkpt><trkpt lat="46.02557116264078" lon="11.927530926061447"><ele>303.0</ele><time>2026-05-01T04:21:35Z</time></trkpt><trkpt lat="46.025618488533986" lon="11.927678551944817"><ele>303.0</ele><time>2026-05-01T04:21:36Z</time></trkpt><trkpt lat="46.025664358675634" lon="11.927826184866296"><ele>303.0</ele><time>2026-05-01T04:21:37Z</time></trkpt><trkpt lat="46.02570797676479" lon="11.927977041064413"><ele>302.5</ele><time>2026-05-01T04:21:38Z</time></trkpt><trkpt lat="46.02575384447018" lon="11.928129711384095"><ele>302.0</ele><time>2026-05-01T04:21:39Z</time></trkpt><trkpt lat="46.02581138623934" lon="11.928277368871452"><ele>301.5</ele><time>2026-05-01T04:21:40Z</time></trkpt><trkpt lat="46.025854756447906" lon="11.928437313125759"><ele>301.0</ele><time>2026-05-01T04:21:41Z</time></trkpt><trkpt lat="46.02589676134376" lon="11.928590049169172"><ele>301.0</ele><time>2026-05-01T04:21:42Z</time></trkpt><trkpt lat="46.025939159713495" lon="11.928740766076295"><ele>301.0</ele><time>2026-05-01T04:21:43Z</time></trkpt><trkpt lat="46.025985810807775" lon="11.928895347035851"><ele>301.0</ele><time>2026-05-01T04:21:44Z</time></trkpt><trkpt lat="46.0260320032343" lon="11.929049112455912"><ele>301.0</ele><time>2026-05-01T04:21:45Z</time></trkpt><trkpt lat="46.026076406855715" lon="11.929203305031265"><ele>302.75</ele><time>2026-05-01T04:21:46Z</time></trkpt><trkpt lat="46.026121665010415" lon="11.929356920356739"><ele>304.5</ele><time>2026-05-01T04:21:47Z</time></trkpt><trkpt lat="46.026166287884" lon="11.92950826699749"><ele>306.25</ele><time>2026-05-01T04:21:48Z</time></trkpt><trkpt lat="46.02621007363984" lon="11.92965934061986"><ele>308.0</ele><time>2026-05-01T04:21:49Z</time></trkpt><trkpt lat="46.02624723157315" lon="11.929811436891196"><ele>308.0</ele><time>2026-05-01T04:21:50Z</time></trkpt><trkpt lat="46.02628058566061" lon="11.929968712265687"><ele>308.0</ele><time>2026-05-01T04:21:51Z</time></trkpt><trkpt lat="46.026316411374665" lon="11.93012982914818"><ele>308.0</ele><time>2026-05-01T04:21:52Z</time></trkpt><trkpt lat="46.02635251067574" lon="11.930286708891057"><ele>308.0</ele><time>2026-05-01T04:21:53Z</time></trkpt><trkpt lat="46.0263859695809" lon="11.930449864281618"><ele>309.25</ele><time>2026-05-01T04:21:54Z</time></trkpt><trkpt lat="46.0264190403949" lon="11.930619342450093"><ele>310.5</ele><time>2026-05-01T04:21:55Z</time></trkpt><trkpt lat="46.02644880332986" lon="11.930788625317803"><ele>311.75</ele><time>2026-05-01T04:21:56Z</time></trkpt><trkpt lat="46.02647418008868" lon="11.930959656687575"><ele>313.0</ele><time>2026-05-01T04:21:57Z</time></trkpt><trkpt lat="46.02649813262041" lon="11.931127935574933"><ele>314.25</ele><time>2026-05-01T04:21:58Z</time></trkpt><trkpt lat="46.02651851173062" lon="11.931293452866194"><ele>315.5</ele><time>2026-05-01T04:21:59Z</time></trkpt><trkpt lat="46.026534026931955" lon="11.931460292826403"><ele>316.75</ele><time>2026-05-01T04:22:00Z</time></trkpt><trkpt lat="46.02654992351682" lon="11.931630167541147"><ele>318.0</ele><time>2026-05-01T04:22:01Z</time></trkpt><trkpt lat="46.026563583530795" lon="11.931801633471258"><ele>318.25</ele><time>2026-05-01T04:22:02Z</time></trkpt><trkpt lat="46.026576629990224" lon="11.931978293971559"><ele>318.5</ele><time>2026-05-01T04:22:03Z</time></trkpt><trkpt lat="46.02658845765983" lon="11.932157395602172"><ele>318.75</ele><time>2026-05-01T04:22:04Z</time></trkpt><trkpt lat="46.02659806844534" lon="11.932348185225113"><ele>319.0</ele><time>2026-05-01T04:22:05Z</time></trkpt><trkpt lat="46.02661195029683" lon="11.932563287349087"><ele>320.3333333333333</ele><time>2026-05-01T04:22:06Z</time></trkpt><trkpt lat="46.02662664541168" lon="11.932785857050714"><ele>321.6666666666667</ele><time>2026-05-01T04:22:07Z</time></trkpt><trkpt lat="46.02663780459491" lon="11.933004076008109"><ele>323.0</ele><time>2026-05-01T04:22:08Z</time></trkpt><trkpt lat="46.026649764205445" lon="11.933225776578297"><ele>318.75</ele><time>2026-05-01T04:22:09Z</time></trkpt><trkpt lat="46.026661275342384" lon="11.933440999448845"><ele>314.5</ele><time>2026-05-01T04:22:10Z</time></trkpt><trkpt lat="46.026671846706016" lon="11.933659508940773"><ele>310.25</ele><time>2026-05-01T04:22:11Z</time></trkpt><trkpt lat="46.02668359324613" lon="11.933869403141491"><ele>306.0</ele><time>2026-05-01T04:22:12Z</time></trkpt><trkpt lat="46.02669578006135" lon="11.934077708271001"><ele>306.5</ele><time>2026-05-01T04:22:13Z</time></trkpt><trkpt lat="46.0267131198893" lon="11.93428827078371"><ele>307.0</ele><time>2026-05-01T04:22:14Z</time></trkpt><trkpt lat="46.02673440411287" lon="11.934497561017539"><ele>307.5</ele><time>2026-05-01T04:22:15Z</time></trkpt><trkpt lat="46.02676038115992" lon="11.934707483190207"><ele>308.0</ele><time>2026-05-01T04:22:16Z</time></trkpt><trkpt lat="46.02679078702229" lon="11.934914360168975"><ele>308.0</ele><time>2026-05-01T04:22:17Z</time></trkpt><trkpt lat="46.02682616023869" lon="11.935115836580007"><ele>308.0</ele><time>2026-05-01T04:22:18Z</time></trkpt><trkpt lat="46.026863020310635" lon="11.935318978709333"><ele>308.0</ele><time>2026-05-01T04:22:19Z</time></trkpt><trkpt lat="46.02690195946481" lon="11.935520188011244"><ele>308.0</ele><time>2026-05-01T04:22:20Z</time></trkpt><trkpt lat="46.02694095113121" lon="11.935723611950902"><ele>309.75</ele><time>2026-05-01T04:22:21Z</time></trkpt><trkpt lat="46.02697873297124" lon="11.935928303430224"><ele>311.5</ele><time>2026-05-01T04:22:22Z</time></trkpt><trkpt lat="46.027016135156295" lon="11.936123858085743"><ele>313.25</ele><time>2026-05-01T04:22:23Z</time></trkpt><trkpt lat="46.02705270375621" lon="11.936318757285242"><ele>315.0</ele><time>2026-05-01T04:22:24Z</time></trkpt><trkpt lat="46.02708920572076" lon="11.936514695889398"><ele>315.0</ele><time>2026-05-01T04:22:25Z</time></trkpt><trkpt lat="46.02712509344041" lon="11.936708393870195"><ele>315.0</ele><time>2026-05-01T04:22:26Z</time></trkpt><trkpt lat="46.02716118109747" lon="11.93690352204733"><ele>315.0</ele><time>2026-05-01T04:22:27Z</time></trkpt><trkpt lat="46.027198019137934" lon="11.937099024593763"><ele>315.0</ele><time>2026-05-01T04:22:28Z</time></trkpt><trkpt lat="46.02723460543024" lon="11.937293471345733"><ele>315.25</ele><time>2026-05-01T04:22:29Z</time></trkpt><trkpt lat="46.02727313679004" lon="11.937488898261044"><ele>315.5</ele><time>2026-05-01T04:22:30Z</time></trkpt><trkpt lat="46.02731062316519" lon="11.93768563928224"><ele>315.75</ele><time>2026-05-01T04:22:31Z</time></trkpt><trkpt lat="46.02735019435626" lon="11.93788329717548"><ele>316.0</ele><time>2026-05-01T04:22:32Z</time></trkpt><trkpt lat="46.02738901246521" lon="11.93808195425978"><ele>315.0</ele><time>2026-05-01T04:22:33Z</time></trkpt><trkpt lat="46.02742696344609" lon="11.938279602619371"><ele>314.0</ele><time>2026-05-01T04:22:34Z</time></trkpt><trkpt lat="46.02746647379564" lon="11.938478054449613"><ele>313.0</ele><time>2026-05-01T04:22:35Z</time></trkpt><trkpt lat="46.027510616875176" lon="11.938674307723002"><ele>312.0</ele><time>2026-05-01T04:22:36Z</time></trkpt><trkpt lat="46.02755771596126" lon="11.938865139196361"><ele>310.25</ele><time>2026-05-01T04:22:37Z</time></trkpt><trkpt lat="46.027606068388785" lon="11.9390539913733"><ele>308.5</ele><time>2026-05-01T04:22:38Z</time></trkpt><trkpt lat="46.02765578743338" lon="11.939239796978287"><ele>306.75</ele><time>2026-05-01T04:22:39Z</time></trkpt><trkpt lat="46.02771030645973" lon="11.939427890331803"><ele>305.0</ele><time>2026-05-01T04:22:40Z</time></trkpt><trkpt lat="46.02776238739945" lon="11.93961322837329"><ele>305.0</ele><time>2026-05-01T04:22:41Z</time></trkpt><trkpt lat="46.02781687927295" lon="11.939801683225397"><ele>305.0</ele><time>2026-05-01T04:22:42Z</time></trkpt><trkpt lat="46.027870896334385" lon="11.939989357042032"><ele>305.0</ele><time>2026-05-01T04:22:43Z</time></trkpt><trkpt lat="46.02792429611844" lon="11.940180711611116"><ele>305.0</ele><time>2026-05-01T04:22:44Z</time></trkpt><trkpt lat="46.02797849403027" lon="11.940369901283775"><ele>306.25</ele><time>2026-05-01T04:22:45Z</time></trkpt><trkpt lat="46.028032058191016" lon="11.940560251174716"><ele>307.5</ele><time>2026-05-01T04:22:46Z</time></trkpt><trkpt lat="46.02808607220954" lon="11.94075051175001"><ele>308.75</ele><time>2026-05-01T04:22:47Z</time></trkpt><trkpt lat="46.02813889457248" lon="11.940937023868349"><ele>310.0</ele><time>2026-05-01T04:22:48Z</time></trkpt><trkpt lat="46.028192276416554" lon="11.941124278948744"><ele>310.25</ele><time>2026-05-01T04:22:49Z</time></trkpt><trkpt lat="46.02824625299918" lon="11.941309125196526"><ele>310.5</ele><time>2026-05-01T04:22:50Z</time></trkpt><trkpt lat="46.02829996376968" lon="11.941493407782831"><ele>310.75</ele><time>2026-05-01T04:22:51Z</time></trkpt><trkpt lat="46.02835260612953" lon="11.941680111606619"><ele>311.0</ele><time>2026-05-01T04:22:52Z</time></trkpt><trkpt lat="46.02840477717869" lon="11.941868237058333"><ele>312.0</ele><time>2026-05-01T04:22:53Z</time></trkpt><trkpt lat="46.02845773653945" lon="11.942055416171236"><ele>313.0</ele><time>2026-05-01T04:22:54Z</time></trkpt><trkpt lat="46.02851180847175" lon="11.942239653334024"><ele>314.0</ele><time>2026-05-01T04:22:55Z</time></trkpt><trkpt lat="46.028565054663915" lon="11.942424504507025"><ele>315.0</ele><time>2026-05-01T04:22:56Z</time></trkpt><trkpt lat="46.02861769464997" lon="11.942607447627148"><ele>315.0</ele><time>2026-05-01T04:22:57Z</time></trkpt><trkpt lat="46.028669552475755" lon="11.94278946082494"><ele>315.0</ele><time>2026-05-01T04:22:58Z</time></trkpt><trkpt lat="46.02872380230409" lon="11.942972408148458"><ele>315.0</ele><time>2026-05-01T04:22:59Z</time></trkpt><trkpt lat="46.02877633557437" lon="11.943161190410299"><ele>315.0</ele><time>2026-05-01T04:23:00Z</time></trkpt><trkpt lat="46.02882778187765" lon="11.943348059215278"><ele>315.5</ele><time>2026-05-01T04:23:01Z</time></trkpt><trkpt lat="46.028880038455505" lon="11.943530453471276"><ele>316.0</ele><time>2026-05-01T04:23:02Z</time></trkpt><trkpt lat="46.028933069943434" lon="11.943712909872325"><ele>316.5</ele><time>2026-05-01T04:23:03Z</time></trkpt><trkpt lat="46.028991045016745" lon="11.943895349611052"><ele>317.0</ele><time>2026-05-01T04:23:04Z</time></trkpt><trkpt lat="46.029045440401084" lon="11.944081992390508"><ele>316.75</ele><time>2026-05-01T04:23:05Z</time></trkpt><trkpt lat="46.02909895435183" lon="11.944268671696113"><ele>316.5</ele><time>2026-05-01T04:23:06Z</time></trkpt><trkpt lat="46.02914219383754" lon="11.944455087880428"><ele>316.25</ele><time>2026-05-01T04:23:07Z</time></trkpt><trkpt lat="46.029191442630236" lon="11.944646431386209"><ele>316.0</ele><time>2026-05-01T04:23:08Z</time></trkpt><trkpt lat="46.029239622203015" lon="11.94485475157197"><ele>315.75</ele><time>2026-05-01T04:23:08.999Z</time></trkpt><trkpt lat="46.02928183610996" lon="11.945039979237391"><ele>315.5</ele><time>2026-05-01T04:23:09.999Z</time></trkpt><trkpt lat="46.029319713964576" lon="11.945228955807607"><ele>315.25</ele><time>2026-05-01T04:23:10.999Z</time></trkpt><trkpt lat="46.02935349804382" lon="11.94542224007315"><ele>315.0</ele><time>2026-05-01T04:23:11.999Z</time></trkpt><trkpt lat="46.029388777329956" lon="11.945613472254507"><ele>314.75</ele><time>2026-05-01T04:23:12.999Z</time></trkpt><trkpt lat="46.02942094140284" lon="11.94580402478798"><ele>314.5</ele><time>2026-05-01T04:23:14Z</time></trkpt><trkpt lat="46.029456244703844" lon="11.945995179842363"><ele>314.25</ele><time>2026-05-01T04:23:15Z</time></trkpt><trkpt lat="46.02949296301688" lon="11.946187792195841"><ele>314.0</ele><time>2026-05-01T04:23:16Z</time></trkpt><trkpt lat="46.029528374639185" lon="11.946380122660937"><ele>314.0</ele><time>2026-05-01T04:23:17Z</time></trkpt><trkpt lat="46.02956237251137" lon="11.94657468815043"><ele>314.0</ele><time>2026-05-01T04:23:18Z</time></trkpt><trkpt lat="46.029599291734556" lon="11.946769341712283"><ele>314.0</ele><time>2026-05-01T04:23:19Z</time></trkpt><trkpt lat="46.02963525294313" lon="11.946964125348664"><ele>314.0</ele><time>2026-05-01T04:23:20Z</time></trkpt><trkpt lat="46.0296723834969" lon="11.947158433380716"><ele>313.75</ele><time>2026-05-01T04:23:21Z</time></trkpt><trkpt lat="46.0297097789448" lon="11.947350952028959"><ele>313.5</ele><time>2026-05-01T04:23:22Z</time></trkpt><trkpt lat="46.02974661757945" lon="11.947544024388225"><ele>313.25</ele><time>2026-05-01T04:23:23Z</time></trkpt><trkpt lat="46.029780913580794" lon="11.947737636979369"><ele>313.0</ele><time>2026-05-01T04:23:24Z</time></trkpt><trkpt lat="46.02981749071453" lon="11.947932571888762"><ele>312.25</ele><time>2026-05-01T04:23:25Z</time></trkpt><trkpt lat="46.02985475454352" lon="11.948130390521483"><ele>311.5</ele><time>2026-05-01T04:23:26Z</time></trkpt><trkpt lat="46.0298914109715" lon="11.94832703533358"><ele>310.75</ele><time>2026-05-01T04:23:27Z</time></trkpt><trkpt lat="46.029929015220596" lon="11.948526585688"><ele>310.0</ele><time>2026-05-01T04:23:28Z</time></trkpt><trkpt lat="46.029965074429576" lon="11.948731018162556"><ele>309.75</ele><time>2026-05-01T04:23:29Z</time></trkpt><trkpt lat="46.03000356674085" lon="11.948932909938161"><ele>309.5</ele><time>2026-05-01T04:23:30Z</time></trkpt><trkpt lat="46.030039632934525" lon="11.94913418783577"><ele>309.25</ele><time>2026-05-01T04:23:31Z</time></trkpt><trkpt lat="46.0300771398252" lon="11.949338321641173"><ele>309.0</ele><time>2026-05-01T04:23:32Z</time></trkpt><trkpt lat="46.030113425936136" lon="11.949539149031397"><ele>309.0</ele><time>2026-05-01T04:23:33Z</time></trkpt><trkpt lat="46.03015060711504" lon="11.949740804412915"><ele>309.0</ele><time>2026-05-01T04:23:34Z</time></trkpt><trkpt lat="46.03018894725288" lon="11.949942282250335"><ele>309.0</ele><time>2026-05-01T04:23:35Z</time></trkpt><trkpt lat="46.030226151122804" lon="11.950147143897539"><ele>309.0</ele><time>2026-05-01T04:23:36Z</time></trkpt><trkpt lat="46.03026240542411" lon="11.950350988926417"><ele>308.5</ele><time>2026-05-01T04:23:37Z</time></trkpt><trkpt lat="46.03030048515471" lon="11.950550332327335"><ele>308.0</ele><time>2026-05-01T04:23:38Z</time></trkpt><trkpt lat="46.030339593297306" lon="11.9507511497773"><ele>307.5</ele><time>2026-05-01T04:23:39Z</time></trkpt><trkpt lat="46.030377473334354" lon="11.950954177847754"><ele>307.0</ele><time>2026-05-01T04:23:40Z</time></trkpt><trkpt lat="46.0304158669772" lon="11.951156695323556"><ele>307.0</ele><time>2026-05-01T04:23:41Z</time></trkpt><trkpt lat="46.030453934826355" lon="11.951358997924697"><ele>307.0</ele><time>2026-05-01T04:23:42Z</time></trkpt><trkpt lat="46.030492009431065" lon="11.951563561415988"><ele>307.0</ele><time>2026-05-01T04:23:43Z</time></trkpt><trkpt lat="46.030527525787626" lon="11.951770365684594"><ele>307.0</ele><time>2026-05-01T04:23:44Z</time></trkpt><trkpt lat="46.0305611172919" lon="11.951979414223395"><ele>306.25</ele><time>2026-05-01T04:23:45Z</time></trkpt><trkpt lat="46.0305934987929" lon="11.952183753607791"><ele>305.5</ele><time>2026-05-01T04:23:46Z</time></trkpt><trkpt lat="46.03062262194702" lon="11.952393346122715"><ele>304.75</ele><time>2026-05-01T04:23:47Z</time></trkpt><trkpt lat="46.03064924698795" lon="11.952603791475283"><ele>304.0</ele><time>2026-05-01T04:23:48Z</time></trkpt><trkpt lat="46.03067143706316" lon="11.952813712441582"><ele>303.66666666666663</ele><time>2026-05-01T04:23:49Z</time></trkpt><trkpt lat="46.03069320801617" lon="11.95302636500908"><ele>303.3333333333333</ele><time>2026-05-01T04:23:50Z</time></trkpt><trkpt lat="46.03071335276689" lon="11.953241086515582"><ele>303.0</ele><time>2026-05-01T04:23:51Z</time></trkpt><trkpt lat="46.03073455031871" lon="11.953455473847153"><ele>303.0</ele><time>2026-05-01T04:23:52Z</time></trkpt><trkpt lat="46.03075710348788" lon="11.953668312388434"><ele>303.0</ele><time>2026-05-01T04:23:53Z</time></trkpt><trkpt lat="46.03077995423699" lon="11.95388370929694"><ele>303.0</ele><time>2026-05-01T04:23:54Z</time></trkpt><trkpt lat="46.0308016464682" lon="11.954100301515034"><ele>301.3333333333333</ele><time>2026-05-01T04:23:55Z</time></trkpt><trkpt lat="46.030822326666645" lon="11.95431656037494"><ele>299.66666666666663</ele><time>2026-05-01T04:23:56Z</time></trkpt><trkpt lat="46.030843424515865" lon="11.954533641905341"><ele>298.0</ele><time>2026-05-01T04:23:57Z</time></trkpt><trkpt lat="46.03086415010883" lon="11.954750654281126"><ele>298.0</ele><time>2026-05-01T04:23:58Z</time></trkpt><trkpt lat="46.030885556814205" lon="11.95496284639371"><ele>298.0</ele><time>2026-05-01T04:23:59Z</time></trkpt><trkpt lat="46.0309049247556" lon="11.955166677154496"><ele>298.0</ele><time>2026-05-01T04:24:00Z</time></trkpt><trkpt lat="46.03092580964991" lon="11.95537379547494"><ele>298.0</ele><time>2026-05-01T04:24:01Z</time></trkpt><trkpt lat="46.03094555249597" lon="11.955582023800496"><ele>297.75</ele><time>2026-05-01T04:24:02Z</time></trkpt><trkpt lat="46.03096401991836" lon="11.955790695964257"><ele>297.5</ele><time>2026-05-01T04:24:03Z</time></trkpt><trkpt lat="46.03098295320919" lon="11.956001182486554"><ele>297.25</ele><time>2026-05-01T04:24:04Z</time></trkpt><trkpt lat="46.0310024942027" lon="11.956209230603363"><ele>297.0</ele><time>2026-05-01T04:24:05Z</time></trkpt><trkpt lat="46.031022862198974" lon="11.95641938174899"><ele>296.75</ele><time>2026-05-01T04:24:06Z</time></trkpt><trkpt lat="46.03104376550568" lon="11.956628721919639"><ele>296.5</ele><time>2026-05-01T04:24:07Z</time></trkpt><trkpt lat="46.03106400455173" lon="11.956838663206458"><ele>296.25</ele><time>2026-05-01T04:24:08Z</time></trkpt><trkpt lat="46.03108287052401" lon="11.957048541919798"><ele>296.0</ele><time>2026-05-01T04:24:09Z</time></trkpt><trkpt lat="46.03110357838285" lon="11.957258442448763"><ele>295.25</ele><time>2026-05-01T04:24:10Z</time></trkpt><trkpt lat="46.031123385097175" lon="11.957471492772468"><ele>294.5</ele><time>2026-05-01T04:24:11Z</time></trkpt><trkpt lat="46.03114344874149" lon="11.957681636714055"><ele>293.75</ele><time>2026-05-01T04:24:12Z</time></trkpt><trkpt lat="46.03116467137801" lon="11.957892541099223"><ele>293.0</ele><time>2026-05-01T04:24:13Z</time></trkpt><trkpt lat="46.03118528447004" lon="11.958103284569919"><ele>292.5</ele><time>2026-05-01T04:24:14Z</time></trkpt><trkpt lat="46.0312063161398" lon="11.958310732038452"><ele>292.0</ele><time>2026-05-01T04:24:15Z</time></trkpt><trkpt lat="46.03122527443969" lon="11.958505606721976"><ele>291.5</ele><time>2026-05-01T04:24:16Z</time></trkpt><trkpt lat="46.03124251357086" lon="11.958691034266396"><ele>291.0</ele><time>2026-05-01T04:24:17Z</time></trkpt><trkpt lat="46.03125826369824" lon="11.95886873487119"><ele>290.8</ele><time>2026-05-01T04:24:18Z</time></trkpt><trkpt lat="46.03127174807161" lon="11.959038780069424"><ele>290.6</ele><time>2026-05-01T04:24:19Z</time></trkpt><trkpt lat="46.031285811917414" lon="11.959200647262524"><ele>290.4</ele><time>2026-05-01T04:24:20Z</time></trkpt><trkpt lat="46.03130085661742" lon="11.959351585781521"><ele>290.2</ele><time>2026-05-01T04:24:21Z</time></trkpt><trkpt lat="46.03131576527484" lon="11.95949393417226"><ele>290.0</ele><time>2026-05-01T04:24:22Z</time></trkpt><trkpt lat="46.03132647351644" lon="11.959621634401906"><ele>289.6666666666667</ele><time>2026-05-01T04:24:23Z</time></trkpt><trkpt lat="46.03132175941307" lon="11.959742994533029"><ele>289.33333333333337</ele><time>2026-05-01T04:24:24Z</time></trkpt><trkpt lat="46.03129934110395" lon="11.9598564397168"><ele>289.0</ele><time>2026-05-01T04:24:25Z</time></trkpt><trkpt lat="46.03127726688866" lon="11.959963838137728"><ele>288.6666666666667</ele><time>2026-05-01T04:24:26Z</time></trkpt><trkpt lat="46.03128468431204" lon="11.960083545450875"><ele>288.3333333333333</ele><time>2026-05-01T04:24:27Z</time></trkpt><trkpt lat="46.03131967001242" lon="11.960209155931862"><ele>288.0</ele><time>2026-05-01T04:24:28Z</time></trkpt><trkpt lat="46.03138063943505" lon="11.96034027895312"><ele>287.75</ele><time>2026-05-01T04:24:29Z</time></trkpt><trkpt lat="46.031416665652365" lon="11.960497698421566"><ele>287.5</ele><time>2026-05-01T04:24:30Z</time></trkpt><trkpt lat="46.031429978208386" lon="11.960688359854652"><ele>287.25</ele><time>2026-05-01T04:24:31Z</time></trkpt><trkpt lat="46.03144149620288" lon="11.960911193919937"><ele>287.0</ele><time>2026-05-01T04:24:32Z</time></trkpt><trkpt lat="46.03145875079165" lon="11.961137945269527"><ele>286.75</ele><time>2026-05-01T04:24:33Z</time></trkpt><trkpt lat="46.03147735718292" lon="11.961340170026402"><ele>286.5</ele><time>2026-05-01T04:24:34Z</time></trkpt><trkpt lat="46.03149737976903" lon="11.961553020175813"><ele>286.25</ele><time>2026-05-01T04:24:35Z</time></trkpt><trkpt lat="46.03151910679192" lon="11.961763569191081"><ele>286.0</ele><time>2026-05-01T04:24:36Z</time></trkpt><trkpt lat="46.0315503743666" lon="11.961969954940553"><ele>286.0</ele><time>2026-05-01T04:24:37Z</time></trkpt><trkpt lat="46.03159615219378" lon="11.96217148303905"><ele>286.0</ele><time>2026-05-01T04:24:38Z</time></trkpt><trkpt lat="46.0316546288636" lon="11.962368673302946"><ele>286.0</ele><time>2026-05-01T04:24:39Z</time></trkpt><trkpt lat="46.03171970096088" lon="11.962561720552243"><ele>286.0</ele><time>2026-05-01T04:24:40Z</time></trkpt><trkpt lat="46.0317979231069" lon="11.962747460612125"><ele>286.3333333333333</ele><time>2026-05-01T04:24:41Z</time></trkpt><trkpt lat="46.03188738118312" lon="11.962924636704233"><ele>286.6666666666667</ele><time>2026-05-01T04:24:42Z</time></trkpt><trkpt lat="46.03198279545361" lon="11.963096594110176"><ele>287.0</ele><time>2026-05-01T04:24:43Z</time></trkpt><trkpt lat="46.03208251515965" lon="11.963260809769652"><ele>286.25</ele><time>2026-05-01T04:24:43.999Z</time></trkpt><trkpt lat="46.032182341131204" lon="11.96342768693922"><ele>285.5</ele><time>2026-05-01T04:24:44.999Z</time></trkpt><trkpt lat="46.03227842944001" lon="11.963585417867195"><ele>284.75</ele><time>2026-05-01T04:24:45.999Z</time></trkpt><trkpt lat="46.032366633425845" lon="11.963741695116344"><ele>284.0</ele><time>2026-05-01T04:24:46.999Z</time></trkpt><trkpt lat="46.03245092865296" lon="11.963886311075001"><ele>283.0</ele><time>2026-05-01T04:24:47.999Z</time></trkpt><trkpt lat="46.032537800474266" lon="11.964027170985476"><ele>282.0</ele><time>2026-05-01T04:24:48.999Z</time></trkpt><trkpt lat="46.03261908852229" lon="11.964160934254183"><ele>281.0</ele><time>2026-05-01T04:24:49.999Z</time></trkpt><trkpt lat="46.032704435353324" lon="11.964310303973969"><ele>280.0</ele><time>2026-05-01T04:24:50.999Z</time></trkpt><trkpt lat="46.0327872976484" lon="11.96447423956235"><ele>278.75</ele><time>2026-05-01T04:24:51.999Z</time></trkpt><trkpt lat="46.03286310341942" lon="11.96465040855068"><ele>277.5</ele><time>2026-05-01T04:24:52.999Z</time></trkpt><trkpt lat="46.03293772028908" lon="11.964835727794547"><ele>276.25</ele><time>2026-05-01T04:24:53.999Z</time></trkpt><trkpt lat="46.03300456345912" lon="11.965030152133252"><ele>275.0</ele><time>2026-05-01T04:24:54.999Z</time></trkpt><trkpt lat="46.033070738903035" lon="11.96523789294512"><ele>274.33333333333337</ele><time>2026-05-01T04:24:55.999Z</time></trkpt><trkpt lat="46.033136912266365" lon="11.965459732660209"><ele>273.6666666666667</ele><time>2026-05-01T04:24:56.999Z</time></trkpt><trkpt lat="46.03320445934858" lon="11.965684667668745"><ele>273.0</ele><time>2026-05-01T04:24:57.999Z</time></trkpt><trkpt lat="46.03327493243748" lon="11.96591241715917"><ele>273.6666666666667</ele><time>2026-05-01T04:24:58.999Z</time></trkpt><trkpt lat="46.03334325782128" lon="11.966147407795756"><ele>274.33333333333337</ele><time>2026-05-01T04:24:59.999Z</time></trkpt><trkpt lat="46.033401676039894" lon="11.966379321028095"><ele>275.0</ele><time>2026-05-01T04:25:00.999Z</time></trkpt><trkpt lat="46.03344512285559" lon="11.966609205354507"><ele>273.6666666666667</ele><time>2026-05-01T04:25:01.999Z</time></trkpt><trkpt lat="46.03347224082629" lon="11.966849234645412"><ele>272.3333333333333</ele><time>2026-05-01T04:25:02.999Z</time></trkpt><trkpt lat="46.033484760425374" lon="11.967085946078436"><ele>271.0</ele><time>2026-05-01T04:25:03.999Z</time></trkpt><trkpt lat="46.033485232237275" lon="11.96732522426687"><ele>269.3333333333333</ele><time>2026-05-01T04:25:04.999Z</time></trkpt><trkpt lat="46.033479467556724" lon="11.967566377924378"><ele>267.6666666666667</ele><time>2026-05-01T04:25:05.999Z</time></trkpt><trkpt lat="46.03347610659821" lon="11.967803089187175"><ele>266.0</ele><time>2026-05-01T04:25:06.999Z</time></trkpt><trkpt lat="46.03347279860107" lon="11.96803791483983"><ele>266.0</ele><time>2026-05-01T04:25:07.999Z</time></trkpt><trkpt lat="46.03346728155254" lon="11.96827689524312"><ele>266.0</ele><time>2026-05-01T04:25:08.999Z</time></trkpt><trkpt lat="46.03345933898833" lon="11.96851791504544"><ele>266.0</ele><time>2026-05-01T04:25:09.999Z</time></trkpt><trkpt lat="46.03345178205414" lon="11.968756829443851"><ele>266.0</ele><time>2026-05-01T04:25:10.999Z</time></trkpt><trkpt lat="46.03344536405948" lon="11.968994518888303"><ele>266.0</ele><time>2026-05-01T04:25:11.999Z</time></trkpt><trkpt lat="46.03344315067846" lon="11.969231798446973"><ele>266.0</ele><time>2026-05-01T04:25:12.999Z</time></trkpt><trkpt lat="46.03345063255487" lon="11.96946338365818"><ele>266.0</ele><time>2026-05-01T04:25:13.999Z</time></trkpt><trkpt lat="46.03347227660862" lon="11.969696749774338"><ele>266.0</ele><time>2026-05-01T04:25:14.999Z</time></trkpt><trkpt lat="46.03350700089278" lon="11.969927638835491"><ele>266.0</ele><time>2026-05-01T04:25:15.999Z</time></trkpt><trkpt lat="46.033556776487494" lon="11.970151918583252"><ele>265.0</ele><time>2026-05-01T04:25:16.999Z</time></trkpt><trkpt lat="46.03362008436992" lon="11.970371060990772"><ele>264.0</ele><time>2026-05-01T04:25:17.999Z</time></trkpt><trkpt lat="46.0336954376319" lon="11.9705808987297"><ele>263.0</ele><time>2026-05-01T04:25:18.999Z</time></trkpt><trkpt lat="46.03377407104114" lon="11.970788881328735"><ele>262.6666666666667</ele><time>2026-05-01T04:25:20Z</time></trkpt><trkpt lat="46.03385184182747" lon="11.970993652724927"><ele>262.3333333333333</ele><time>2026-05-01T04:25:21Z</time></trkpt><trkpt lat="46.03392950861173" lon="11.971198392918879"><ele>262.0</ele><time>2026-05-01T04:25:22Z</time></trkpt><trkpt lat="46.03400515764762" lon="11.971401978683105"><ele>262.0</ele><time>2026-05-01T04:25:23Z</time></trkpt><trkpt lat="46.034077913214055" lon="11.971608092669412"><ele>262.0</ele><time>2026-05-01T04:25:24Z</time></trkpt><trkpt lat="46.03415243802793" lon="11.971816372592036"><ele>262.0</ele><time>2026-05-01T04:25:25Z</time></trkpt><trkpt lat="46.03423132414343" lon="11.97202629452702"><ele>262.66666666666663</ele><time>2026-05-01T04:25:26Z</time></trkpt><trkpt lat="46.034309286023245" lon="11.97223643916469"><ele>263.3333333333333</ele><time>2026-05-01T04:25:27Z</time></trkpt><trkpt lat="46.034387819775496" lon="11.972444596797477"><ele>264.0</ele><time>2026-05-01T04:25:28Z</time></trkpt><trkpt lat="46.03446652847559" lon="11.97265167746302"><ele>264.0</ele><time>2026-05-01T04:25:29Z</time></trkpt><trkpt lat="46.034546638431024" lon="11.972861907866426"><ele>264.0</ele><time>2026-05-01T04:25:30Z</time></trkpt><trkpt lat="46.03462765678978" lon="11.973070293302753"><ele>264.0</ele><time>2026-05-01T04:25:31Z</time></trkpt><trkpt lat="46.03470764682883" lon="11.973275422898032"><ele>265.0</ele><time>2026-05-01T04:25:32Z</time></trkpt><trkpt lat="46.03478957292134" lon="11.973472680633387"><ele>266.0</ele><time>2026-05-01T04:25:33Z</time></trkpt><trkpt lat="46.03486885356639" lon="11.973669766120732"><ele>267.0</ele><time>2026-05-01T04:25:34Z</time></trkpt><trkpt lat="46.034950461455445" lon="11.97386618013648"><ele>266.3333333333333</ele><time>2026-05-01T04:25:35Z</time></trkpt><trkpt lat="46.03503022780258" lon="11.974063679425878"><ele>265.66666666666663</ele><time>2026-05-01T04:25:36Z</time></trkpt><trkpt lat="46.03511148231778" lon="11.974261725071093"><ele>265.0</ele><time>2026-05-01T04:25:37Z</time></trkpt><trkpt lat="46.03519115642385" lon="11.974460714955839"><ele>264.0</ele><time>2026-05-01T04:25:38Z</time></trkpt><trkpt lat="46.03527334411499" lon="11.9746630580059"><ele>263.0</ele><time>2026-05-01T04:25:39Z</time></trkpt><trkpt lat="46.0353541517487" lon="11.97486502614047"><ele>262.0</ele><time>2026-05-01T04:25:40Z</time></trkpt><trkpt lat="46.035437754490786" lon="11.97506945609524"><ele>262.0</ele><time>2026-05-01T04:25:41Z</time></trkpt><trkpt lat="46.03552111430348" lon="11.97527410344712"><ele>262.0</ele><time>2026-05-01T04:25:42Z</time></trkpt><trkpt lat="46.03560268834263" lon="11.975480681200757"><ele>262.0</ele><time>2026-05-01T04:25:43Z</time></trkpt><trkpt lat="46.03568538157694" lon="11.975683641778138"><ele>261.66666666666663</ele><time>2026-05-01T04:25:44Z</time></trkpt><trkpt lat="46.03576917385042" lon="11.975888132891997"><ele>261.3333333333333</ele><time>2026-05-01T04:25:45Z</time></trkpt><trkpt lat="46.03585214774272" lon="11.976089311268263"><ele>261.0</ele><time>2026-05-01T04:25:46Z</time></trkpt><trkpt lat="46.03593617674311" lon="11.976291903651662"><ele>260.3333333333333</ele><time>2026-05-01T04:25:47Z</time></trkpt><trkpt lat="46.03601865400194" lon="11.976495591478857"><ele>259.66666666666663</ele><time>2026-05-01T04:25:48Z</time></trkpt><trkpt lat="46.03610163275025" lon="11.976698196541827"><ele>259.0</ele><time>2026-05-01T04:25:49Z</time></trkpt><trkpt lat="46.036184413831386" lon="11.976899430987329"><ele>259.0</ele><time>2026-05-01T04:25:50Z</time></trkpt><trkpt lat="46.03626715276626" lon="11.977100647090296"><ele>259.0</ele><time>2026-05-01T04:25:51Z</time></trkpt><trkpt lat="46.03634914628667" lon="11.977302438554894"><ele>259.0</ele><time>2026-05-01T04:25:52Z</time></trkpt><trkpt lat="46.036431279697304" lon="11.97750234714808"><ele>258.3333333333333</ele><time>2026-05-01T04:25:53Z</time></trkpt><trkpt lat="46.036514331384005" lon="11.977701120645541"><ele>257.6666666666667</ele><time>2026-05-01T04:25:54Z</time></trkpt><trkpt lat="46.03659332136237" lon="11.977905129144064"><ele>257.0</ele><time>2026-05-01T04:25:55Z</time></trkpt><trkpt lat="46.036675301011435" lon="11.978108626639047"><ele>257.0</ele><time>2026-05-01T04:25:56Z</time></trkpt><trkpt lat="46.03675691939378" lon="11.978314337989278"><ele>257.0</ele><time>2026-05-01T04:25:57Z</time></trkpt><trkpt lat="46.03683990089236" lon="11.97852125679853"><ele>257.0</ele><time>2026-05-01T04:25:58Z</time></trkpt><trkpt lat="46.03692389036825" lon="11.978726576630539"><ele>256.33333333333337</ele><time>2026-05-01T04:25:59Z</time></trkpt><trkpt lat="46.03700806313214" lon="11.978930260947708"><ele>255.66666666666669</ele><time>2026-05-01T04:26:00Z</time></trkpt><trkpt lat="46.03708874824168" lon="11.979126999334433"><ele>255.0</ele><time>2026-05-01T04:26:01Z</time></trkpt><trkpt lat="46.03716618122301" lon="11.979315933077471"><ele>255.0</ele><time>2026-05-01T04:26:02Z</time></trkpt><trkpt lat="46.03724195498793" lon="11.979502788518726"><ele>255.0</ele><time>2026-05-01T04:26:03Z</time></trkpt><trkpt lat="46.03731972641659" lon="11.979694801211192"><ele>255.0</ele><time>2026-05-01T04:26:04Z</time></trkpt><trkpt lat="46.03739759320383" lon="11.97988490738396"><ele>253.0</ele><time>2026-05-01T04:26:05Z</time></trkpt><trkpt lat="46.03747242810042" lon="11.980071475066516"><ele>251.0</ele><time>2026-05-01T04:26:06Z</time></trkpt><trkpt lat="46.03754566790798" lon="11.980251008688935"><ele>249.0</ele><time>2026-05-01T04:26:07Z</time></trkpt><trkpt lat="46.037616998129295" lon="11.980424084063623"><ele>247.0</ele><time>2026-05-01T04:26:08Z</time></trkpt><trkpt lat="46.03769102085399" lon="11.980603339069269"><ele>247.0</ele><time>2026-05-01T04:26:09Z</time></trkpt><trkpt lat="46.03776131618313" lon="11.980782333132904"><ele>247.0</ele><time>2026-05-01T04:26:10Z</time></trkpt><trkpt lat="46.037831808314074" lon="11.980953208947126"><ele>247.0</ele><time>2026-05-01T04:26:11Z</time></trkpt><trkpt lat="46.037900540462985" lon="11.981123992383607"><ele>247.0</ele><time>2026-05-01T04:26:12Z</time></trkpt><trkpt lat="46.03796782789963" lon="11.98128777948341"><ele>247.0</ele><time>2026-05-01T04:26:13Z</time></trkpt><trkpt lat="46.038031098939165" lon="11.981446815525151"><ele>247.0</ele><time>2026-05-01T04:26:14Z</time></trkpt><trkpt lat="46.038092747402146" lon="11.981597119784828"><ele>247.0</ele><time>2026-05-01T04:26:15Z</time></trkpt><trkpt lat="46.03815140194197" lon="11.981744037892758"><ele>247.0</ele><time>2026-05-01T04:26:16Z</time></trkpt><trkpt lat="46.038213373440804" lon="11.981894250482343"><ele>246.75</ele><time>2026-05-01T04:26:17Z</time></trkpt><trkpt lat="46.038278166452436" lon="11.982043256186243"><ele>246.5</ele><time>2026-05-01T04:26:18Z</time></trkpt><trkpt lat="46.03834191286152" lon="11.982188222324"><ele>246.25</ele><time>2026-05-01T04:26:19Z</time></trkpt><trkpt lat="46.03840202108305" lon="11.982326797771766"><ele>246.0</ele><time>2026-05-01T04:26:20Z</time></trkpt><trkpt lat="46.03845957956447" lon="11.982459402561501"><ele>246.0</ele><time>2026-05-01T04:26:21Z</time></trkpt><trkpt lat="46.038514205162" lon="11.982585577172166"><ele>246.00000000000003</ele><time>2026-05-01T04:26:22Z</time></trkpt><trkpt lat="46.03855755262063" lon="11.98271368021588"><ele>246.00000000000003</ele><time>2026-05-01T04:26:23Z</time></trkpt><trkpt lat="46.03856342602713" lon="11.982849183381356"><ele>246.0</ele><time>2026-05-01T04:26:24Z</time></trkpt><trkpt lat="46.03855342538014" lon="11.9829985077941"><ele>246.0</ele><time>2026-05-01T04:26:25Z</time></trkpt><trkpt lat="46.0385692737092" lon="11.98314221503381"><ele>246.0</ele><time>2026-05-01T04:26:26Z</time></trkpt><trkpt lat="46.03862482647928" lon="11.983278023639551"><ele>246.00000000000003</ele><time>2026-05-01T04:26:27Z</time></trkpt><trkpt lat="46.038689903261975" lon="11.983408075850669"><ele>246.00000000000003</ele><time>2026-05-01T04:26:28Z</time></trkpt><trkpt lat="46.038730831324216" lon="11.983556303366354"><ele>246.0</ele><time>2026-05-01T04:26:29Z</time></trkpt><trkpt lat="46.038754976902574" lon="11.98372219511819"><ele>246.0</ele><time>2026-05-01T04:26:30Z</time></trkpt><trkpt lat="46.038714709069055" lon="11.983918050583062"><ele>246.0</ele><time>2026-05-01T04:26:31Z</time></trkpt><trkpt lat="46.0386779950746" lon="11.984109351214647"><ele>246.0</ele><time>2026-05-01T04:26:32Z</time></trkpt><trkpt lat="46.03862918901877" lon="11.984292623086144"><ele>246.0</ele><time>2026-05-01T04:26:33Z</time></trkpt><trkpt lat="46.03856165180686" lon="11.984478345231484"><ele>246.0</ele><time>2026-05-01T04:26:34Z</time></trkpt><trkpt lat="46.03848493676055" lon="11.984650790754388"><ele>245.0</ele><time>2026-05-01T04:26:35Z</time></trkpt><trkpt lat="46.038410425158226" lon="11.984828786082431"><ele>244.0</ele><time>2026-05-01T04:26:36Z</time></trkpt><trkpt lat="46.0383407092443" lon="11.98500715299183"><ele>243.0</ele><time>2026-05-01T04:26:37Z</time></trkpt><trkpt lat="46.038274046285764" lon="11.985185052211405"><ele>242.0</ele><time>2026-05-01T04:26:38Z</time></trkpt><trkpt lat="46.03820395209724" lon="11.985361305661288"><ele>242.0</ele><time>2026-05-01T04:26:39Z</time></trkpt><trkpt lat="46.03813394820499" lon="11.98553170556164"><ele>242.0</ele><time>2026-05-01T04:26:40Z</time></trkpt><trkpt lat="46.03807550377082" lon="11.985709086551783"><ele>242.0</ele><time>2026-05-01T04:26:41Z</time></trkpt><trkpt lat="46.0380422664309" lon="11.985902633202096"><ele>242.0</ele><time>2026-05-01T04:26:42Z</time></trkpt><trkpt lat="46.03802683247926" lon="11.986101454850136"><ele>239.75</ele><time>2026-05-01T04:26:42.999Z</time></trkpt><trkpt lat="46.03802370357959" lon="11.986308801095854"><ele>237.5</ele><time>2026-05-01T04:26:43.999Z</time></trkpt><trkpt lat="46.03802300192851" lon="11.986519759217034"><ele>235.25</ele><time>2026-05-01T04:26:44.999Z</time></trkpt><trkpt lat="46.03801696071009" lon="11.986729652984625"><ele>233.0</ele><time>2026-05-01T04:26:45.999Z</time></trkpt><trkpt lat="46.038008153751754" lon="11.986943756455378"><ele>232.75</ele><time>2026-05-01T04:26:46.999Z</time></trkpt><trkpt lat="46.03800240614915" lon="11.987155939186087"><ele>232.5</ele><time>2026-05-01T04:26:47.999Z</time></trkpt><trkpt lat="46.03799670356184" lon="11.987366934097043"><ele>232.25</ele><time>2026-05-01T04:26:48.999Z</time></trkpt><trkpt lat="46.03799145483338" lon="11.987574823909366"><ele>232.0</ele><time>2026-05-01T04:26:49.999Z</time></trkpt><trkpt lat="46.03798881295757" lon="11.987781962662138"><ele>232.5</ele><time>2026-05-01T04:26:50.999Z</time></trkpt><trkpt lat="46.03799305287377" lon="11.987987946539066"><ele>233.0</ele><time>2026-05-01T04:26:51.999Z</time></trkpt><trkpt lat="46.03800784972396" lon="11.988188894457029"><ele>233.5</ele><time>2026-05-01T04:26:52.999Z</time></trkpt><trkpt lat="46.03803391226733" lon="11.988393255617154"><ele>234.0</ele><time>2026-05-01T04:26:53.999Z</time></trkpt><trkpt lat="46.038067604913756" lon="11.98860202329746"><ele>234.66666666666669</ele><time>2026-05-01T04:26:54.999Z</time></trkpt><trkpt lat="46.038100912731785" lon="11.98883453770202"><ele>235.33333333333334</ele><time>2026-05-01T04:26:55.999Z</time></trkpt><trkpt lat="46.03813217652639" lon="11.98904414833063"><ele>236.0</ele><time>2026-05-01T04:26:56.999Z</time></trkpt><trkpt lat="46.0381622426974" lon="11.9892398081127"><ele>236.75</ele><time>2026-05-01T04:26:57.999Z</time></trkpt><trkpt lat="46.03818951716692" lon="11.989428830933461"><ele>237.5</ele><time>2026-05-01T04:26:58.999Z</time></trkpt><trkpt lat="46.03821514993857" lon="11.989624784411696"><ele>238.25</ele><time>2026-05-01T04:26:59.999Z</time></trkpt><trkpt lat="46.03823102188218" lon="11.989819113338104"><ele>239.0</ele><time>2026-05-01T04:27:00.999Z</time></trkpt><trkpt lat="46.038236523090355" lon="11.990017750255097"><ele>239.25</ele><time>2026-05-01T04:27:01.999Z</time></trkpt><trkpt lat="46.038231426499024" lon="11.990219358075336"><ele>239.5</ele><time>2026-05-01T04:27:02.999Z</time></trkpt><trkpt lat="46.0382197119803" lon="11.99041833994274"><ele>239.75</ele><time>2026-05-01T04:27:03.999Z</time></trkpt><trkpt lat="46.03820012990197" lon="11.990605558500038"><ele>240.0</ele><time>2026-05-01T04:27:04.999Z</time></trkpt><trkpt lat="46.03817967343958" lon="11.990783400631981"><ele>240.0</ele><time>2026-05-01T04:27:05.999Z</time></trkpt><trkpt lat="46.03816013906639" lon="11.990956378382934"><ele>240.0</ele><time>2026-05-01T04:27:06.999Z</time></trkpt><trkpt lat="46.03814248265278" lon="11.99113983925683"><ele>240.0</ele><time>2026-05-01T04:27:07.999Z</time></trkpt><trkpt lat="46.03812539014122" lon="11.991323928337586"><ele>240.0</ele><time>2026-05-01T04:27:08.999Z</time></trkpt><trkpt lat="46.038110746242644" lon="11.99150778696358"><ele>240.25</ele><time>2026-05-01T04:27:09.999Z</time></trkpt><trkpt lat="46.038099326072924" lon="11.99169562803034"><ele>240.5</ele><time>2026-05-01T04:27:10.999Z</time></trkpt><trkpt lat="46.038091073566974" lon="11.991884995688753"><ele>240.75</ele><time>2026-05-01T04:27:11.999Z</time></trkpt><trkpt lat="46.03807633017487" lon="11.992076451359678"><ele>241.0</ele><time>2026-05-01T04:27:12.999Z</time></trkpt><trkpt lat="46.038057060818176" lon="11.992268015986934"><ele>241.0</ele><time>2026-05-01T04:27:13.999Z</time></trkpt><trkpt lat="46.03803713455216" lon="11.992461057178588"><ele>241.0</ele><time>2026-05-01T04:27:14.999Z</time></trkpt><trkpt lat="46.03801797018961" lon="11.99265085157569"><ele>241.0</ele><time>2026-05-01T04:27:15.999Z</time></trkpt><trkpt lat="46.03800080574679" lon="11.992838902306827"><ele>241.0</ele><time>2026-05-01T04:27:16.999Z</time></trkpt><trkpt lat="46.037981910162486" lon="11.99302754392203"><ele>240.75</ele><time>2026-05-01T04:27:17.999Z</time></trkpt><trkpt lat="46.03796069375572" lon="11.993215917439736"><ele>240.5</ele><time>2026-05-01T04:27:18.999Z</time></trkpt><trkpt lat="46.037935711619134" lon="11.993405092704839"><ele>240.25</ele><time>2026-05-01T04:27:19.999Z</time></trkpt><trkpt lat="46.03791079715145" lon="11.993597449783145"><ele>240.0</ele><time>2026-05-01T04:27:20.999Z</time></trkpt><trkpt lat="46.037885674638545" lon="11.993788977168691"><ele>240.0</ele><time>2026-05-01T04:27:21.999Z</time></trkpt><trkpt lat="46.037867372204765" lon="11.993981465521472"><ele>240.0</ele><time>2026-05-01T04:27:22.999Z</time></trkpt><trkpt lat="46.03786017983823" lon="11.994175412249563"><ele>240.0</ele><time>2026-05-01T04:27:23.999Z</time></trkpt><trkpt lat="46.03785510115474" lon="11.994371832024909"><ele>240.0</ele><time>2026-05-01T04:27:24.999Z</time></trkpt><trkpt lat="46.037843410536105" lon="11.994567814611571"><ele>240.5</ele><time>2026-05-01T04:27:26Z</time></trkpt><trkpt lat="46.03782627871791" lon="11.994763658283745"><ele>241.0</ele><time>2026-05-01T04:27:27Z</time></trkpt><trkpt lat="46.037805855255066" lon="11.994958592182138"><ele>241.5</ele><time>2026-05-01T04:27:28Z</time></trkpt><trkpt lat="46.037786627889744" lon="11.995152137859717"><ele>242.0</ele><time>2026-05-01T04:27:29Z</time></trkpt><trkpt lat="46.03776929144247" lon="11.995345966071206"><ele>242.0</ele><time>2026-05-01T04:27:30Z</time></trkpt><trkpt lat="46.03775322576663" lon="11.995542069662267"><ele>242.0</ele><time>2026-05-01T04:27:31Z</time></trkpt><trkpt lat="46.03774116258068" lon="11.995740613150993"><ele>242.0</ele><time>2026-05-01T04:27:32Z</time></trkpt><trkpt lat="46.03773205998954" lon="11.995938976244037"><ele>242.0</ele><time>2026-05-01T04:27:33Z</time></trkpt><trkpt lat="46.03772419700348" lon="11.99613939581176"><ele>242.0</ele><time>2026-05-01T04:27:34Z</time></trkpt><trkpt lat="46.03771889092054" lon="11.996338514089405"><ele>242.0</ele><time>2026-05-01T04:27:35Z</time></trkpt><trkpt lat="46.03771639483796" lon="11.996538606892324"><ele>242.0</ele><time>2026-05-01T04:27:36Z</time></trkpt><trkpt lat="46.037715331125334" lon="11.99673798980438"><ele>242.0</ele><time>2026-05-01T04:27:37Z</time></trkpt><trkpt lat="46.03771606375129" lon="11.996938735298047"><ele>241.75</ele><time>2026-05-01T04:27:38Z</time></trkpt><trkpt lat="46.037719940275764" lon="11.997138513064305"><ele>241.5</ele><time>2026-05-01T04:27:39Z</time></trkpt><trkpt lat="46.0377268580086" lon="11.997339043616051"><ele>241.25</ele><time>2026-05-01T04:27:40Z</time></trkpt><trkpt lat="46.03773578382795" lon="11.997538358326475"><ele>241.0</ele><time>2026-05-01T04:27:41Z</time></trkpt><trkpt lat="46.03774882018106" lon="11.997737225970246"><ele>241.25</ele><time>2026-05-01T04:27:42Z</time></trkpt><trkpt lat="46.0377641688048" lon="11.997935894328478"><ele>241.5</ele><time>2026-05-01T04:27:43Z</time></trkpt><trkpt lat="46.037779539898644" lon="11.998134873473628"><ele>241.75</ele><time>2026-05-01T04:27:44Z</time></trkpt><trkpt lat="46.03779913471375" lon="11.998332335218963"><ele>242.0</ele><time>2026-05-01T04:27:45Z</time></trkpt><trkpt lat="46.037819782759904" lon="11.998531069669296"><ele>242.0</ele><time>2026-05-01T04:27:46Z</time></trkpt><trkpt lat="46.03784352001197" lon="11.998726004170742"><ele>242.0</ele><time>2026-05-01T04:27:47Z</time></trkpt><trkpt lat="46.0378682267835" lon="11.99891922535628"><ele>242.0</ele><time>2026-05-01T04:27:48Z</time></trkpt><trkpt lat="46.037894744813784" lon="11.999113392537579"><ele>242.0</ele><time>2026-05-01T04:27:49Z</time></trkpt><trkpt lat="46.037921687341566" lon="11.99930700050936"><ele>241.75</ele><time>2026-05-01T04:27:50Z</time></trkpt><trkpt lat="46.0379530436823" lon="11.999499704326634"><ele>241.5</ele><time>2026-05-01T04:27:51Z</time></trkpt><trkpt lat="46.03798724197402" lon="11.999690238655319"><ele>241.25</ele><time>2026-05-01T04:27:52Z</time></trkpt><trkpt lat="46.03802810616864" lon="11.999877807140523"><ele>241.0</ele><time>2026-05-01T04:27:53Z</time></trkpt><trkpt lat="46.038072602408874" lon="12.000063168643742"><ele>241.0</ele><time>2026-05-01T04:27:54Z</time></trkpt><trkpt lat="46.03812213751031" lon="12.000248676854206"><ele>241.0</ele><time>2026-05-01T04:27:55Z</time></trkpt><trkpt lat="46.038173765527674" lon="12.000434927228122"><ele>241.0</ele><time>2026-05-01T04:27:56Z</time></trkpt><trkpt lat="46.03823186739318" lon="12.000616716946391"><ele>241.0</ele><time>2026-05-01T04:27:57Z</time></trkpt><trkpt lat="46.03829262056693" lon="12.000798438201105"><ele>241.75</ele><time>2026-05-01T04:27:58Z</time></trkpt><trkpt lat="46.03835699270354" lon="12.000975023927246"><ele>242.5</ele><time>2026-05-01T04:27:59Z</time></trkpt><trkpt lat="46.03842164114035" lon="12.001152404254357"><ele>243.25</ele><time>2026-05-01T04:28:00Z</time></trkpt><trkpt lat="46.03848875210307" lon="12.0013296434402"><ele>244.0</ele><time>2026-05-01T04:28:01Z</time></trkpt><trkpt lat="46.038556150229354" lon="12.001505757526534"><ele>243.75</ele><time>2026-05-01T04:28:02Z</time></trkpt><trkpt lat="46.03862976846659" lon="12.001680118500923"><ele>243.5</ele><time>2026-05-01T04:28:03Z</time></trkpt><trkpt lat="46.038707206265364" lon="12.001849702605282"><ele>243.25</ele><time>2026-05-01T04:28:04Z</time></trkpt><trkpt lat="46.03879165140231" lon="12.002014880886309"><ele>243.0</ele><time>2026-05-01T04:28:05Z</time></trkpt><trkpt lat="46.038882789375315" lon="12.002168713885542"><ele>243.0</ele><time>2026-05-01T04:28:06Z</time></trkpt><trkpt lat="46.038976003355124" lon="12.00232117320159"><ele>243.0</ele><time>2026-05-01T04:28:07Z</time></trkpt><trkpt lat="46.039069583320654" lon="12.002475806482202"><ele>243.0</ele><time>2026-05-01T04:28:08Z</time></trkpt><trkpt lat="46.039154431099206" lon="12.002621441807815"><ele>243.0</ele><time>2026-05-01T04:28:09Z</time></trkpt><trkpt lat="46.039249606067756" lon="12.002779285186755"><ele>243.0</ele><time>2026-05-01T04:28:10Z</time></trkpt><trkpt lat="46.03934345626723" lon="12.00293565520993"><ele>243.0</ele><time>2026-05-01T04:28:11Z</time></trkpt><trkpt lat="46.039436333079145" lon="12.003091548648216"><ele>243.0</ele><time>2026-05-01T04:28:12Z</time></trkpt><trkpt lat="46.03952624163325" lon="12.003249111356197"><ele>243.0</ele><time>2026-05-01T04:28:13Z</time></trkpt><trkpt lat="46.039615621506336" lon="12.003407374724429"><ele>243.0</ele><time>2026-05-01T04:28:14Z</time></trkpt><trkpt lat="46.03970352486777" lon="12.003567673077763"><ele>243.0</ele><time>2026-05-01T04:28:15Z</time></trkpt><trkpt lat="46.03978914701881" lon="12.003729363731757"><ele>243.0</ele><time>2026-05-01T04:28:16Z</time></trkpt><trkpt lat="46.03986975813047" lon="12.003895199562153"><ele>243.0</ele><time>2026-05-01T04:28:17Z</time></trkpt><trkpt lat="46.03994883918868" lon="12.004063710275881"><ele>243.5</ele><time>2026-05-01T04:28:18Z</time></trkpt><trkpt lat="46.04002697053895" lon="12.004233106980786"><ele>244.0</ele><time>2026-05-01T04:28:19Z</time></trkpt><trkpt lat="46.04010471884907" lon="12.004400679108896"><ele>244.5</ele><time>2026-05-01T04:28:20Z</time></trkpt><trkpt lat="46.04018170124848" lon="12.00456764444817"><ele>245.0</ele><time>2026-05-01T04:28:21Z</time></trkpt><trkpt lat="46.04025845710382" lon="12.004734710847988"><ele>245.0</ele><time>2026-05-01T04:28:22Z</time></trkpt><trkpt lat="46.04033583810562" lon="12.00490258290904"><ele>245.0</ele><time>2026-05-01T04:28:23Z</time></trkpt><trkpt lat="46.04041072668353" lon="12.005071124146351"><ele>245.0</ele><time>2026-05-01T04:28:24Z</time></trkpt><trkpt lat="46.040484090142925" lon="12.005239978123319"><ele>245.0</ele><time>2026-05-01T04:28:25Z</time></trkpt><trkpt lat="46.04055767620124" lon="12.00540822695123"><ele>245.25</ele><time>2026-05-01T04:28:26Z</time></trkpt><trkpt lat="46.04063069282061" lon="12.005577498214818"><ele>245.5</ele><time>2026-05-01T04:28:27Z</time></trkpt><trkpt lat="46.0407046044259" lon="12.00574695827344"><ele>245.75</ele><time>2026-05-01T04:28:28Z</time></trkpt><trkpt lat="46.04077795404318" lon="12.005915650004633"><ele>246.0</ele><time>2026-05-01T04:28:29Z</time></trkpt><trkpt lat="46.040851546112805" lon="12.00608197039902"><ele>246.0</ele><time>2026-05-01T04:28:30Z</time></trkpt><trkpt lat="46.04092707089967" lon="12.006249591747263"><ele>246.0</ele><time>2026-05-01T04:28:31Z</time></trkpt><trkpt lat="46.04100168257972" lon="12.006418707870257"><ele>246.0</ele><time>2026-05-01T04:28:32Z</time></trkpt><trkpt lat="46.04107515346804" lon="12.006588355989962"><ele>246.0</ele><time>2026-05-01T04:28:33Z</time></trkpt><trkpt lat="46.04114954666569" lon="12.006758360993766"><ele>246.25</ele><time>2026-05-01T04:28:34Z</time></trkpt><trkpt lat="46.04122286856605" lon="12.006929070970475"><ele>246.5</ele><time>2026-05-01T04:28:35Z</time></trkpt><trkpt lat="46.04129659407513" lon="12.007098430675748"><ele>246.75</ele><time>2026-05-01T04:28:36Z</time></trkpt><trkpt lat="46.04137056657949" lon="12.00726872716556"><ele>247.0</ele><time>2026-05-01T04:28:37Z</time></trkpt><trkpt lat="46.041444093214594" lon="12.00743912426615"><ele>247.0</ele><time>2026-05-01T04:28:38Z</time></trkpt><trkpt lat="46.04151846855467" lon="12.007611053552885"><ele>247.0</ele><time>2026-05-01T04:28:39Z</time></trkpt><trkpt lat="46.041591417927734" lon="12.007782180580573"><ele>247.0</ele><time>2026-05-01T04:28:40Z</time></trkpt><trkpt lat="46.04166715927234" lon="12.007953572512132"><ele>247.0</ele><time>2026-05-01T04:28:41Z</time></trkpt><trkpt lat="46.04174269940346" lon="12.008123939634027"><ele>247.25</ele><time>2026-05-01T04:28:42Z</time></trkpt><trkpt lat="46.04181587337212" lon="12.008296015956104"><ele>247.5</ele><time>2026-05-01T04:28:43Z</time></trkpt><trkpt lat="46.04189007752673" lon="12.008468091242305"><ele>247.75</ele><time>2026-05-01T04:28:44Z</time></trkpt><trkpt lat="46.04196640751967" lon="12.008639572666306"><ele>248.0</ele><time>2026-05-01T04:28:45Z</time></trkpt><trkpt lat="46.04204089293281" lon="12.008811897422467"><ele>248.25</ele><time>2026-05-01T04:28:46Z</time></trkpt><trkpt lat="46.04211482493136" lon="12.008983531456359"><ele>248.5</ele><time>2026-05-01T04:28:47Z</time></trkpt><trkpt lat="46.04218840387505" lon="12.0091549614092"><ele>248.75</ele><time>2026-05-01T04:28:48Z</time></trkpt><trkpt lat="46.042263436784076" lon="12.009326620923119"><ele>249.0</ele><time>2026-05-01T04:28:49Z</time></trkpt><trkpt lat="46.04233720293917" lon="12.00949855717886"><ele>249.0</ele><time>2026-05-01T04:28:50Z</time></trkpt><trkpt lat="46.042410730474224" lon="12.009671574929737"><ele>249.0</ele><time>2026-05-01T04:28:51Z</time></trkpt><trkpt lat="46.042482196325594" lon="12.009845702569253"><ele>249.0</ele><time>2026-05-01T04:28:51.999Z</time></trkpt><trkpt lat="46.042552671979" lon="12.010020355714289"><ele>249.0</ele><time>2026-05-01T04:28:52.999Z</time></trkpt><trkpt lat="46.0426181990471" lon="12.010191096674191"><ele>249.0</ele><time>2026-05-01T04:28:53.999Z</time></trkpt><trkpt lat="46.04267226458897" lon="12.01035384281248"><ele>248.99999999999997</ele><time>2026-05-01T04:28:54.999Z</time></trkpt><trkpt lat="46.04271644514307" lon="12.010510658038452"><ele>248.99999999999997</ele><time>2026-05-01T04:28:55.999Z</time></trkpt><trkpt lat="46.04274995896927" lon="12.010652619176645"><ele>249.0</ele><time>2026-05-01T04:28:56.999Z</time></trkpt><trkpt lat="46.04277345289334" lon="12.010793667924764"><ele>249.0</ele><time>2026-05-01T04:28:57.999Z</time></trkpt><trkpt lat="46.04279017068108" lon="12.010930199431412"><ele>249.25</ele><time>2026-05-01T04:28:58.999Z</time></trkpt><trkpt lat="46.04282676020219" lon="12.011066006396522"><ele>249.5</ele><time>2026-05-01T04:28:59.999Z</time></trkpt><trkpt lat="46.04291344930493" lon="12.011188166899247"><ele>249.75</ele><time>2026-05-01T04:29:00.999Z</time></trkpt><trkpt lat="46.04298579865429" lon="12.011331188380652"><ele>250.0</ele><time>2026-05-01T04:29:01.999Z</time></trkpt><trkpt lat="46.04302578293334" lon="12.011538210327124"><ele>250.33333333333331</ele><time>2026-05-01T04:29:02.999Z</time></trkpt><trkpt lat="46.04308433217729" lon="12.011739978921286"><ele>250.66666666666669</ele><time>2026-05-01T04:29:03.999Z</time></trkpt><trkpt lat="46.04315304920699" lon="12.011970291323035"><ele>251.0</ele><time>2026-05-01T04:29:04.999Z</time></trkpt><trkpt lat="46.04322922003107" lon="12.012237242068153"><ele>250.66666666666669</ele><time>2026-05-01T04:29:05.999Z</time></trkpt><trkpt lat="46.04329934350382" lon="12.012480193490225"><ele>250.33333333333331</ele><time>2026-05-01T04:29:06.999Z</time></trkpt><trkpt lat="46.04337020613655" lon="12.012731544037496"><ele>250.0</ele><time>2026-05-01T04:29:07.999Z</time></trkpt><trkpt lat="46.04343834409516" lon="12.012978787188098"><ele>250.0</ele><time>2026-05-01T04:29:08.999Z</time></trkpt><trkpt lat="46.04350176324724" lon="12.01319729830169"><ele>250.0</ele><time>2026-05-01T04:29:09.999Z</time></trkpt><trkpt lat="46.04356172121756" lon="12.013402895172064"><ele>250.0</ele><time>2026-05-01T04:29:10.999Z</time></trkpt><trkpt lat="46.04361782181834" lon="12.013595949945953"><ele>250.5</ele><time>2026-05-01T04:29:11.999Z</time></trkpt><trkpt lat="46.04366866299228" lon="12.013775932799755"><ele>251.0</ele><time>2026-05-01T04:29:12.999Z</time></trkpt><trkpt lat="46.04372058018323" lon="12.013951609768801"><ele>251.5</ele><time>2026-05-01T04:29:13.999Z</time></trkpt><trkpt lat="46.04377276122524" lon="12.014131374976362"><ele>252.0</ele><time>2026-05-01T04:29:14.999Z</time></trkpt><trkpt lat="46.043823675477775" lon="12.014313875356311"><ele>253.0</ele><time>2026-05-01T04:29:15.999Z</time></trkpt><trkpt lat="46.04387395346754" lon="12.01449581342504"><ele>254.0</ele><time>2026-05-01T04:29:16.999Z</time></trkpt><trkpt lat="46.04392640305168" lon="12.01467852667171"><ele>255.0</ele><time>2026-05-01T04:29:17.999Z</time></trkpt><trkpt lat="46.04397936292216" lon="12.014860781343815"><ele>256.0</ele><time>2026-05-01T04:29:18.999Z</time></trkpt><trkpt lat="46.04403334339037" lon="12.015043655417744"><ele>255.75</ele><time>2026-05-01T04:29:19.999Z</time></trkpt><trkpt lat="46.04408931730314" lon="12.015228680800549"><ele>255.5</ele><time>2026-05-01T04:29:20.999Z</time></trkpt><trkpt lat="46.044145171275304" lon="12.015412840995756"><ele>255.25</ele><time>2026-05-01T04:29:21.999Z</time></trkpt><trkpt lat="46.04420159124883" lon="12.015595631183531"><ele>255.0</ele><time>2026-05-01T04:29:22.999Z</time></trkpt><trkpt lat="46.044255012059686" lon="12.015778802976858"><ele>255.5</ele><time>2026-05-01T04:29:23.999Z</time></trkpt><trkpt lat="46.044307408899066" lon="12.01596029515479"><ele>256.0</ele><time>2026-05-01T04:29:24.999Z</time></trkpt><trkpt lat="46.04436129708457" lon="12.016138639507236"><ele>256.5</ele><time>2026-05-01T04:29:25.999Z</time></trkpt><trkpt lat="46.04440912848063" lon="12.016315839315574"><ele>257.0</ele><time>2026-05-01T04:29:26.999Z</time></trkpt><trkpt lat="46.044447148016026" lon="12.01649238114344"><ele>257.0</ele><time>2026-05-01T04:29:27.999Z</time></trkpt><trkpt lat="46.04447615699214" lon="12.016661661777864"><ele>257.0</ele><time>2026-05-01T04:29:28.999Z</time></trkpt><trkpt lat="46.044495518159415" lon="12.016833677372317"><ele>257.0</ele><time>2026-05-01T04:29:29.999Z</time></trkpt><trkpt lat="46.04450852075277" lon="12.017010036148283"><ele>257.0</ele><time>2026-05-01T04:29:30.999Z</time></trkpt><trkpt lat="46.044514014306664" lon="12.017185068642382"><ele>257.0</ele><time>2026-05-01T04:29:32Z</time></trkpt><trkpt lat="46.04452569983322" lon="12.017364532273916"><ele>257.0</ele><time>2026-05-01T04:29:33Z</time></trkpt><trkpt lat="46.04452655017316" lon="12.017542220569416"><ele>257.0</ele><time>2026-05-01T04:29:34Z</time></trkpt><trkpt lat="46.044525586514645" lon="12.01772154371453"><ele>257.0</ele><time>2026-05-01T04:29:35Z</time></trkpt><trkpt lat="46.04452564451347" lon="12.017899650252764"><ele>257.0</ele><time>2026-05-01T04:29:36Z</time></trkpt><trkpt lat="46.044524240286044" lon="12.018078592685885"><ele>257.0</ele><time>2026-05-01T04:29:37Z</time></trkpt><trkpt lat="46.04452479654659" lon="12.01825757856413"><ele>257.0</ele><time>2026-05-01T04:29:38Z</time></trkpt><trkpt lat="46.044526163601915" lon="12.018437193228616"><ele>257.0</ele><time>2026-05-01T04:29:39Z</time></trkpt><trkpt lat="46.04452719435546" lon="12.018619062482339"><ele>257.25</ele><time>2026-05-01T04:29:40Z</time></trkpt><trkpt lat="46.04452693010383" lon="12.018800879599835"><ele>257.5</ele><time>2026-05-01T04:29:41Z</time></trkpt><trkpt lat="46.04452711624084" lon="12.018983269800179"><ele>257.75</ele><time>2026-05-01T04:29:42Z</time></trkpt><trkpt lat="46.0445243777633" lon="12.019164927068074"><ele>258.0</ele><time>2026-05-01T04:29:43Z</time></trkpt><trkpt lat="46.04452507525762" lon="12.019340961386002"><ele>258.25</ele><time>2026-05-01T04:29:44Z</time></trkpt><trkpt lat="46.044527323683006" lon="12.019515636176488"><ele>258.5</ele><time>2026-05-01T04:29:45Z</time></trkpt><trkpt lat="46.04452602651494" lon="12.019692079915853"><ele>258.75</ele><time>2026-05-01T04:29:46Z</time></trkpt><trkpt lat="46.04452802750111" lon="12.019867675548518"><ele>259.0</ele><time>2026-05-01T04:29:47Z</time></trkpt><trkpt lat="46.04453383428718" lon="12.020039380288337"><ele>259.5</ele><time>2026-05-01T04:29:48Z</time></trkpt><trkpt lat="46.0445498971489" lon="12.02020882340796"><ele>260.0</ele><time>2026-05-01T04:29:49Z</time></trkpt><trkpt lat="46.044575127016955" lon="12.020374327151078"><ele>260.5</ele><time>2026-05-01T04:29:50Z</time></trkpt><trkpt lat="46.044604965157234" lon="12.020534771995157"><ele>261.0</ele><time>2026-05-01T04:29:51Z</time></trkpt><trkpt lat="46.044634290676534" lon="12.020682311734205"><ele>261.3333333333333</ele><time>2026-05-01T04:29:52Z</time></trkpt><trkpt lat="46.04465853714944" lon="12.02082566011396"><ele>261.6666666666667</ele><time>2026-05-01T04:29:53Z</time></trkpt><trkpt lat="46.04468409557763" lon="12.020956529134233"><ele>262.0</ele><time>2026-05-01T04:29:54Z</time></trkpt><trkpt lat="46.04471032397129" lon="12.0210798867226"><ele>262.33333333333337</ele><time>2026-05-01T04:29:55Z</time></trkpt><trkpt lat="46.044734360239275" lon="12.021199006548848"><ele>262.6666666666667</ele><time>2026-05-01T04:29:56Z</time></trkpt><trkpt lat="46.04475796112657" lon="12.021302043770078"><ele>263.0</ele><time>2026-05-01T04:29:57Z</time></trkpt><trkpt lat="46.044800043239924" lon="12.0214509512361"><ele>263.0</ele><time>2026-05-01T04:29:59Z</time></trkpt><trkpt lat="46.04482129047106" lon="12.021537741712267"><ele>263.0</ele><time>2026-05-01T04:30:01Z</time></trkpt><trkpt lat="46.04485790728311" lon="12.021625393904252"><ele>263.0</ele><time>2026-05-01T04:30:23Z</time></trkpt><trkpt lat="46.04492657574715" lon="12.021790633242098"><ele>263.0</ele><time>2026-05-01T04:30:25Z</time></trkpt><trkpt lat="46.04495300977741" lon="12.021901759871138"><ele>263.0</ele><time>2026-05-01T04:30:26Z</time></trkpt><trkpt lat="46.044973082192506" lon="12.022012874751352"><ele>263.0</ele><time>2026-05-01T04:30:27Z</time></trkpt><trkpt lat="46.04499362414817" lon="12.02214980410348"><ele>262.8</ele><time>2026-05-01T04:30:28Z</time></trkpt><trkpt lat="46.045015299217845" lon="12.022300440488438"><ele>262.6</ele><time>2026-05-01T04:30:29Z</time></trkpt><trkpt lat="46.045039586761554" lon="12.022445804009129"><ele>262.4</ele><time>2026-05-01T04:30:30Z</time></trkpt><trkpt lat="46.04506627835573" lon="12.022608721603726"><ele>262.2</ele><time>2026-05-01T04:30:31Z</time></trkpt><trkpt lat="46.045089319333734" lon="12.0227747020059"><ele>262.0</ele><time>2026-05-01T04:30:32Z</time></trkpt><trkpt lat="46.04511496213764" lon="12.022937274371301"><ele>262.0</ele><time>2026-05-01T04:30:33Z</time></trkpt><trkpt lat="46.04514562990204" lon="12.023103504295667"><ele>262.0</ele><time>2026-05-01T04:30:34Z</time></trkpt><trkpt lat="46.045177156816465" lon="12.023272051807009"><ele>262.0</ele><time>2026-05-01T04:30:35Z</time></trkpt><trkpt lat="46.04519975470192" lon="12.023436228983014"><ele>262.0</ele><time>2026-05-01T04:30:36Z</time></trkpt><trkpt lat="46.045226786232156" lon="12.023597607043632"><ele>262.25</ele><time>2026-05-01T04:30:37Z</time></trkpt><trkpt lat="46.045251975714855" lon="12.023761384489918"><ele>262.5</ele><time>2026-05-01T04:30:38Z</time></trkpt><trkpt lat="46.04526518316439" lon="12.023932729968596"><ele>262.75</ele><time>2026-05-01T04:30:39Z</time></trkpt><trkpt lat="46.045266289905" lon="12.02410138250306"><ele>263.0</ele><time>2026-05-01T04:30:40Z</time></trkpt><trkpt lat="46.04526193203808" lon="12.024271991924039"><ele>263.2</ele><time>2026-05-01T04:30:41Z</time></trkpt><trkpt lat="46.04525712012168" lon="12.02444179205053"><ele>263.4</ele><time>2026-05-01T04:30:42Z</time></trkpt><trkpt lat="46.04524711467752" lon="12.024599373771466"><ele>263.59999999999997</ele><time>2026-05-01T04:30:43Z</time></trkpt><trkpt lat="46.04523189918288" lon="12.024740538492528"><ele>263.8</ele><time>2026-05-01T04:30:44Z</time></trkpt><trkpt lat="46.04521718296569" lon="12.024874732863513"><ele>264.0</ele><time>2026-05-01T04:30:45Z</time></trkpt><trkpt lat="46.04519663752198" lon="12.025000832062766"><ele>264.0</ele><time>2026-05-01T04:30:46Z</time></trkpt><trkpt lat="46.04518192900892" lon="12.025099623364554"><ele>264.0</ele><time>2026-05-01T04:30:47Z</time></trkpt><trkpt lat="46.04500036135643" lon="12.025156475040164"><ele>264.0</ele><time>2026-05-01T04:30:49Z</time></trkpt><trkpt lat="46.044906681130485" lon="12.02514675667281"><ele>264.0</ele><time>2026-05-01T04:30:50Z</time></trkpt><trkpt lat="46.0448042950076" lon="12.025124056561303"><ele>264.75</ele><time>2026-05-01T04:30:51Z</time></trkpt><trkpt lat="46.04469249082375" lon="12.025106826357879"><ele>265.5</ele><time>2026-05-01T04:30:52Z</time></trkpt><trkpt lat="46.04457825331931" lon="12.025097395207114"><ele>266.25</ele><time>2026-05-01T04:30:53Z</time></trkpt><trkpt lat="46.04445928883892" lon="12.025092498952061"><ele>267.0</ele><time>2026-05-01T04:30:54Z</time></trkpt><trkpt lat="46.04434472450496" lon="12.025091386643105"><ele>267.0</ele><time>2026-05-01T04:30:55Z</time></trkpt><trkpt lat="46.04423785315633" lon="12.025103391949692"><ele>267.0</ele><time>2026-05-01T04:30:56Z</time></trkpt><trkpt lat="46.04413104200217" lon="12.025155532510077"><ele>267.0</ele><time>2026-05-01T04:30:57Z</time></trkpt><trkpt lat="46.04403307987515" lon="12.025235712220647"><ele>267.0</ele><time>2026-05-01T04:30:58Z</time></trkpt><trkpt lat="46.04393578805676" lon="12.025337417637816"><ele>268.6</ele><time>2026-05-01T04:30:59Z</time></trkpt><trkpt lat="46.04383314883607" lon="12.025421242309834"><ele>270.2</ele><time>2026-05-01T04:31:00Z</time></trkpt><trkpt lat="46.043719147213245" lon="12.02546951013967"><ele>271.8</ele><time>2026-05-01T04:31:01Z</time></trkpt><trkpt lat="46.0436139026015" lon="12.025525382628167"><ele>273.4</ele><time>2026-05-01T04:31:02Z</time></trkpt><trkpt lat="46.043521707920924" lon="12.025562002754311"><ele>275.0</ele><time>2026-05-01T04:31:02.999Z</time></trkpt><trkpt lat="46.04344333017084" lon="12.025557602220028"><ele>275.0</ele><time>2026-05-01T04:31:03.999Z</time></trkpt><trkpt lat="46.04338054089746" lon="12.0255266914547"><ele>275.0</ele><time>2026-05-01T04:31:04.999Z</time></trkpt><trkpt lat="46.043302262229645" lon="12.025415628684573"><ele>275.0</ele><time>2026-05-01T04:31:06.999Z</time></trkpt><trkpt lat="46.0432168177128" lon="12.025280585167485"><ele>275.0</ele><time>2026-05-01T04:31:08.999Z</time></trkpt><trkpt lat="46.04317316710967" lon="12.02519904030325"><ele>275.0</ele><time>2026-05-01T04:31:09.999Z</time></trkpt><trkpt lat="46.04312104793193" lon="12.025104023300338"><ele>279.5</ele><time>2026-05-01T04:31:10.999Z</time></trkpt><trkpt lat="46.043066899517115" lon="12.02499825571382"><ele>284.0</ele><time>2026-05-01T04:31:11.999Z</time></trkpt><trkpt lat="46.04301059790117" lon="12.024874528256184"><ele>288.5</ele><time>2026-05-01T04:31:12.999Z</time></trkpt><trkpt lat="46.04294832867596" lon="12.024724246387526"><ele>293.0</ele><time>2026-05-01T04:31:13.999Z</time></trkpt><trkpt lat="46.04286891410875" lon="12.024536413464185"><ele>293.0</ele><time>2026-05-01T04:31:14.999Z</time></trkpt><trkpt lat="46.04278857800347" lon="12.024396831037949"><ele>293.0</ele><time>2026-05-01T04:31:15.999Z</time></trkpt><trkpt lat="46.0426898794212" lon="12.024285446938098"><ele>293.0</ele><time>2026-05-01T04:31:16.999Z</time></trkpt><trkpt lat="46.04258310776779" lon="12.02419504847016"><ele>293.0</ele><time>2026-05-01T04:31:17.999Z</time></trkpt><trkpt lat="46.04247393433734" lon="12.02412593258321"><ele>292.75</ele><time>2026-05-01T04:31:18.999Z</time></trkpt><trkpt lat="46.04236638532704" lon="12.02405394830916"><ele>292.5</ele><time>2026-05-01T04:31:19.999Z</time></trkpt><trkpt lat="46.04225974830936" lon="12.023993985084813"><ele>292.25</ele><time>2026-05-01T04:31:20.999Z</time></trkpt><trkpt lat="46.04214889829753" lon="12.02397770273206"><ele>292.0</ele><time>2026-05-01T04:31:21.999Z</time></trkpt><trkpt lat="46.042038740959114" lon="12.023994027796375"><ele>292.0</ele><time>2026-05-01T04:31:22.999Z</time></trkpt><trkpt lat="46.04193600065725" lon="12.02405007276568"><ele>292.0</ele><time>2026-05-01T04:31:23.999Z</time></trkpt><trkpt lat="46.04184715963689" lon="12.02415159029395"><ele>292.0</ele><time>2026-05-01T04:31:24.999Z</time></trkpt><trkpt lat="46.04177684958505" lon="12.024287431450071"><ele>292.0</ele><time>2026-05-01T04:31:25.999Z</time></trkpt><trkpt lat="46.041707563945266" lon="12.024431470553527"><ele>294.25</ele><time>2026-05-01T04:31:26.999Z</time></trkpt><trkpt lat="46.04163592163739" lon="12.024577490203141"><ele>296.5</ele><time>2026-05-01T04:31:27.999Z</time></trkpt><trkpt lat="46.04155233347231" lon="12.02471506185853"><ele>298.75</ele><time>2026-05-01T04:31:28.999Z</time></trkpt><trkpt lat="46.04146638781721" lon="12.024849381632777"><ele>301.0</ele><time>2026-05-01T04:31:29.999Z</time></trkpt><trkpt lat="46.0413748364339" lon="12.024966069258056"><ele>303.5</ele><time>2026-05-01T04:31:30.999Z</time></trkpt><trkpt lat="46.04127138688527" lon="12.02507021679262"><ele>306.0</ele><time>2026-05-01T04:31:31.999Z</time></trkpt><trkpt lat="46.041168183915204" lon="12.025173622772106"><ele>308.5</ele><time>2026-05-01T04:31:32.999Z</time></trkpt><trkpt lat="46.04106528177926" lon="12.025273164949002"><ele>311.0</ele><time>2026-05-01T04:31:33.999Z</time></trkpt><trkpt lat="46.04097764521368" lon="12.02538119635624"><ele>311.0</ele><time>2026-05-01T04:31:34.999Z</time></trkpt><trkpt lat="46.04092426733811" lon="12.025510748611559"><ele>311.0</ele><time>2026-05-01T04:31:35.999Z</time></trkpt><trkpt lat="46.0409064393689" lon="12.025657804120392"><ele>311.0</ele><time>2026-05-01T04:31:36.999Z</time></trkpt><trkpt lat="46.04092207403951" lon="12.025819671438455"><ele>311.0</ele><time>2026-05-01T04:31:38Z</time></trkpt><trkpt lat="46.04097032515503" lon="12.025976060659517"><ele>311.0</ele><time>2026-05-01T04:31:39Z</time></trkpt><trkpt lat="46.04102136830643" lon="12.02612795133317"><ele>312.5</ele><time>2026-05-01T04:31:40Z</time></trkpt><trkpt lat="46.041044731523435" lon="12.026293468972582"><ele>314.0</ele><time>2026-05-01T04:31:41Z</time></trkpt><trkpt lat="46.04105370915246" lon="12.026469669662418"><ele>315.5</ele><time>2026-05-01T04:31:42Z</time></trkpt><trkpt lat="46.041050087741645" lon="12.026644676997206"><ele>317.0</ele><time>2026-05-01T04:31:43Z</time></trkpt><trkpt lat="46.041044518991725" lon="12.026817846878078"><ele>320.5</ele><time>2026-05-01T04:31:44Z</time></trkpt><trkpt lat="46.04104586091037" lon="12.026993547800275"><ele>324.0</ele><time>2026-05-01T04:31:45Z</time></trkpt><trkpt lat="46.04104891249789" lon="12.027161393525114"><ele>327.5</ele><time>2026-05-01T04:31:46Z</time></trkpt><trkpt lat="46.04105198099305" lon="12.027315316643131"><ele>331.0</ele><time>2026-05-01T04:31:47Z</time></trkpt><trkpt lat="46.041035282449194" lon="12.027463712400053"><ele>332.20000000000005</ele><time>2026-05-01T04:31:48Z</time></trkpt><trkpt lat="46.04098026703745" lon="12.027588434500416"><ele>333.40000000000003</ele><time>2026-05-01T04:31:49Z</time></trkpt><trkpt lat="46.04089391654838" lon="12.027681486840494"><ele>334.6</ele><time>2026-05-01T04:31:50Z</time></trkpt><trkpt lat="46.04079043590998" lon="12.027760506331003"><ele>335.8</ele><time>2026-05-01T04:31:51Z</time></trkpt><trkpt lat="46.04068272521431" lon="12.027835451742812"><ele>337.0</ele><time>2026-05-01T04:31:52Z</time></trkpt><trkpt lat="46.04057392709004" lon="12.027916157081528"><ele>339.0</ele><time>2026-05-01T04:31:53Z</time></trkpt><trkpt lat="46.04046025440251" lon="12.028003380110256"><ele>341.0</ele><time>2026-05-01T04:31:54Z</time></trkpt><trkpt lat="46.04034264289421" lon="12.028094917755356"><ele>343.0</ele><time>2026-05-01T04:31:55Z</time></trkpt><trkpt lat="46.04021692703958" lon="12.02818955212547"><ele>345.0</ele><time>2026-05-01T04:31:56Z</time></trkpt><trkpt lat="46.04009108079946" lon="12.02827802965248"><ele>346.75</ele><time>2026-05-01T04:31:57Z</time></trkpt><trkpt lat="46.03996327929502" lon="12.0283618173663"><ele>348.5</ele><time>2026-05-01T04:31:58Z</time></trkpt><trkpt lat="46.03983576825039" lon="12.028437068641592"><ele>350.25</ele><time>2026-05-01T04:31:59Z</time></trkpt><trkpt lat="46.03970683303815" lon="12.028493016982402"><ele>352.0</ele><time>2026-05-01T04:32:00Z</time></trkpt><trkpt lat="46.03957376852388" lon="12.02851134587206"><ele>352.0</ele><time>2026-05-01T04:32:01Z</time></trkpt><trkpt lat="46.03944666767766" lon="12.028460654933056"><ele>352.0</ele><time>2026-05-01T04:32:02Z</time></trkpt><trkpt lat="46.0393162237091" lon="12.028427708702392"><ele>352.0</ele><time>2026-05-01T04:32:03Z</time></trkpt><trkpt lat="46.03919849062397" lon="12.028337895863478"><ele>352.0</ele><time>2026-05-01T04:32:04Z</time></trkpt><trkpt lat="46.03909581547622" lon="12.028201554863506"><ele>357.66666666666663</ele><time>2026-05-01T04:32:05Z</time></trkpt><trkpt lat="46.03898801161077" lon="12.028045361957522"><ele>363.3333333333333</ele><time>2026-05-01T04:32:06Z</time></trkpt><trkpt lat="46.03887579708466" lon="12.027857360306008"><ele>369.0</ele><time>2026-05-01T04:32:07Z</time></trkpt><trkpt lat="46.038745255992296" lon="12.027639725502842"><ele>369.0</ele><time>2026-05-01T04:32:08Z</time></trkpt><trkpt lat="46.038595168562495" lon="12.027415031314074"><ele>369.0</ele><time>2026-05-01T04:32:09Z</time></trkpt><trkpt lat="46.03847023679897" lon="12.027197087565177"><ele>369.0</ele><time>2026-05-01T04:32:10Z</time></trkpt><trkpt lat="46.03834876547779" lon="12.026988424736654"><ele>373.0</ele><time>2026-05-01T04:32:11Z</time></trkpt><trkpt lat="46.03824426308815" lon="12.02680656248894"><ele>377.0</ele><time>2026-05-01T04:32:12Z</time></trkpt><trkpt lat="46.03815576474123" lon="12.026649664015075"><ele>381.0</ele><time>2026-05-01T04:32:13Z</time></trkpt><trkpt lat="46.03808173327037" lon="12.026520984645467"><ele>385.0</ele><time>2026-05-01T04:32:14Z</time></trkpt><trkpt lat="46.03801435209062" lon="12.026419837210177"><ele>385.2</ele><time>2026-05-01T04:32:15Z</time></trkpt><trkpt lat="46.03794065749214" lon="12.02635407657534"><ele>385.4</ele><time>2026-05-01T04:32:16Z</time></trkpt><trkpt lat="46.03785689944974" lon="12.026324513612261"><ele>385.6</ele><time>2026-05-01T04:32:17Z</time></trkpt><trkpt lat="46.03776788553719" lon="12.02634185013768"><ele>385.8</ele><time>2026-05-01T04:32:18Z</time></trkpt><trkpt lat="46.03768392130854" lon="12.02640532202979"><ele>386.0</ele><time>2026-05-01T04:32:19Z</time></trkpt><trkpt lat="46.03761592765006" lon="12.026505494702999"><ele>386.0</ele><time>2026-05-01T04:32:20Z</time></trkpt><trkpt lat="46.03758363060179" lon="12.026640218871133"><ele>386.0</ele><time>2026-05-01T04:32:21Z</time></trkpt><trkpt lat="46.03757579681312" lon="12.026793152355031"><ele>386.0</ele><time>2026-05-01T04:32:22Z</time></trkpt><trkpt lat="46.03758547699283" lon="12.026948443906978"><ele>386.0</ele><time>2026-05-01T04:32:23Z</time></trkpt><trkpt lat="46.03758806872115" lon="12.02711794040868"><ele>386.0</ele><time>2026-05-01T04:32:24Z</time></trkpt><trkpt lat="46.037574705438935" lon="12.027290909272931"><ele>385.75</ele><time>2026-05-01T04:32:25Z</time></trkpt><trkpt lat="46.037543732418634" lon="12.027460447994082"><ele>385.5</ele><time>2026-05-01T04:32:26Z</time></trkpt><trkpt lat="46.037485721336246" lon="12.027622433930494"><ele>385.25</ele><time>2026-05-01T04:32:27Z</time></trkpt><trkpt lat="46.037410495391825" lon="12.027772851083029"><ele>385.0</ele><time>2026-05-01T04:32:28Z</time></trkpt><trkpt lat="46.037311843715266" lon="12.027893895313154"><ele>388.0</ele><time>2026-05-01T04:32:29Z</time></trkpt><trkpt lat="46.03720249022952" lon="12.028002639044336"><ele>391.0</ele><time>2026-05-01T04:32:30Z</time></trkpt><trkpt lat="46.03708707686105" lon="12.028093915164744"><ele>394.0</ele><time>2026-05-01T04:32:31Z</time></trkpt><trkpt lat="46.03695869949615" lon="12.02816567845229"><ele>397.0</ele><time>2026-05-01T04:32:32Z</time></trkpt><trkpt lat="46.036816476385795" lon="12.02822174549062"><ele>397.0</ele><time>2026-05-01T04:32:33Z</time></trkpt><trkpt lat="46.036671333063985" lon="12.028271901743421"><ele>397.0</ele><time>2026-05-01T04:32:34Z</time></trkpt><trkpt lat="46.03653004059946" lon="12.028315609451445"><ele>397.0</ele><time>2026-05-01T04:32:35Z</time></trkpt><trkpt lat="46.036392654992746" lon="12.028361726764906"><ele>397.0</ele><time>2026-05-01T04:32:36Z</time></trkpt><trkpt lat="46.03625935513355" lon="12.02840884967836"><ele>401.25</ele><time>2026-05-01T04:32:37Z</time></trkpt><trkpt lat="46.036125995223415" lon="12.028411084658881"><ele>405.5</ele><time>2026-05-01T04:32:38Z</time></trkpt><trkpt lat="46.03600327891213" lon="12.02843092902408"><ele>409.75</ele><time>2026-05-01T04:32:39Z</time></trkpt><trkpt lat="46.03588769316648" lon="12.028381667206691"><ele>414.0</ele><time>2026-05-01T04:32:40Z</time></trkpt><trkpt lat="46.0357841474999" lon="12.028280950197834"><ele>417.75</ele><time>2026-05-01T04:32:41Z</time></trkpt><trkpt lat="46.035700388025624" lon="12.028135690837573"><ele>421.5</ele><time>2026-05-01T04:32:42Z</time></trkpt><trkpt lat="46.03559294110776" lon="12.028006979048385"><ele>425.25</ele><time>2026-05-01T04:32:43Z</time></trkpt><trkpt lat="46.03548770753518" lon="12.02784988846824"><ele>429.0</ele><time>2026-05-01T04:32:44Z</time></trkpt><trkpt lat="46.03537453014243" lon="12.02769127471964"><ele>429.0</ele><time>2026-05-01T04:32:45Z</time></trkpt><trkpt lat="46.035266679897866" lon="12.027537626977013"><ele>429.0</ele><time>2026-05-01T04:32:46Z</time></trkpt><trkpt lat="46.035164554980696" lon="12.027389367209695"><ele>429.0</ele><time>2026-05-01T04:32:47Z</time></trkpt><trkpt lat="46.03506419618163" lon="12.02723972861143"><ele>429.0</ele><time>2026-05-01T04:32:48Z</time></trkpt><trkpt lat="46.034971216999026" lon="12.027089952683388"><ele>435.25</ele><time>2026-05-01T04:32:49Z</time></trkpt><trkpt lat="46.03489433476718" lon="12.02692235320086"><ele>441.5</ele><time>2026-05-01T04:32:50Z</time></trkpt><trkpt lat="46.034838464825434" lon="12.026738014254345"><ele>447.75</ele><time>2026-05-01T04:32:51Z</time></trkpt><trkpt lat="46.03480315215626" lon="12.026534275476584"><ele>454.0</ele><time>2026-05-01T04:32:52Z</time></trkpt><trkpt lat="46.03478020985805" lon="12.026324074676955"><ele>454.0</ele><time>2026-05-01T04:32:53Z</time></trkpt><trkpt lat="46.03474624285969" lon="12.026114475414454"><ele>454.0</ele><time>2026-05-01T04:32:54Z</time></trkpt><trkpt lat="46.03468416500464" lon="12.025919299368265"><ele>454.0</ele><time>2026-05-01T04:32:55Z</time></trkpt><trkpt lat="46.034612752434434" lon="12.025735334265066"><ele>454.0</ele><time>2026-05-01T04:32:56Z</time></trkpt><trkpt lat="46.03457227922797" lon="12.025537182839477"><ele>453.75</ele><time>2026-05-01T04:32:57Z</time></trkpt><trkpt lat="46.03453905840444" lon="12.02533714485766"><ele>453.5</ele><time>2026-05-01T04:32:58Z</time></trkpt><trkpt lat="46.034510808950536" lon="12.02515341156704"><ele>453.25</ele><time>2026-05-01T04:32:59Z</time></trkpt><trkpt lat="46.03448492977528" lon="12.024991787905234"><ele>453.0</ele><time>2026-05-01T04:33:00Z</time></trkpt><trkpt lat="46.03445528630483" lon="12.024856394247024"><ele>452.5</ele><time>2026-05-01T04:33:01Z</time></trkpt><trkpt lat="46.03442237239291" lon="12.024746967655373"><ele>452.0</ele><time>2026-05-01T04:33:02Z</time></trkpt><trkpt lat="46.034384684160095" lon="12.024639665453499"><ele>451.5</ele><time>2026-05-01T04:33:03Z</time></trkpt><trkpt lat="46.03434290503544" lon="12.024538433160641"><ele>451.0</ele><time>2026-05-01T04:33:04Z</time></trkpt><trkpt lat="46.03430009749326" lon="12.024440768630019"><ele>450.5</ele><time>2026-05-01T04:33:04.999Z</time></trkpt><trkpt lat="46.03425394117054" lon="12.024344074408425"><ele>450.0</ele><time>2026-05-01T04:33:05.999Z</time></trkpt><trkpt lat="46.034205109520975" lon="12.024252988464534"><ele>450.00000000000006</ele><time>2026-05-01T04:33:06.999Z</time></trkpt><trkpt lat="46.03415394030046" lon="12.024169872305563"><ele>450.0</ele><time>2026-05-01T04:33:07.999Z</time></trkpt><trkpt lat="46.034097413579936" lon="12.024089237775112"><ele>450.00000000000006</ele><time>2026-05-01T04:33:08.999Z</time></trkpt><trkpt lat="46.034041172873586" lon="12.024011192815866"><ele>450.00000000000006</ele><time>2026-05-01T04:33:09.999Z</time></trkpt><trkpt lat="46.03399192852239" lon="12.023948378324429"><ele>450.0</ele><time>2026-05-01T04:33:10.999Z</time></trkpt><trkpt lat="46.033930555464316" lon="12.023891901154233"><ele>450.00000000000006</ele><time>2026-05-01T04:33:11.999Z</time></trkpt><trkpt lat="46.03386471596038" lon="12.023863634170901"><ele>450.00000000000006</ele><time>2026-05-01T04:33:12.999Z</time></trkpt><trkpt lat="46.03379318666582" lon="12.02386290786982"><ele>449.6666666666667</ele><time>2026-05-01T04:33:13.999Z</time></trkpt><trkpt lat="46.03371842982764" lon="12.023906485961541"><ele>449.33333333333337</ele><time>2026-05-01T04:33:14.999Z</time></trkpt><trkpt lat="46.03364349008295" lon="12.023958289372926"><ele>449.0</ele><time>2026-05-01T04:33:15.999Z</time></trkpt><trkpt lat="46.033559809069764" lon="12.024004413538814"><ele>448.6666666666667</ele><time>2026-05-01T04:33:16.999Z</time></trkpt><trkpt lat="46.03347945633095" lon="12.024054401650744"><ele>448.33333333333337</ele><time>2026-05-01T04:33:17.999Z</time></trkpt><trkpt lat="46.03339329090372" lon="12.024094190147277"><ele>448.0</ele><time>2026-05-01T04:33:18.999Z</time></trkpt><trkpt lat="46.033311784512904" lon="12.024128936411223"><ele>449.6666666666667</ele><time>2026-05-01T04:33:19.999Z</time></trkpt><trkpt lat="46.033229650025554" lon="12.024165557364967"><ele>451.33333333333337</ele><time>2026-05-01T04:33:20.999Z</time></trkpt><trkpt lat="46.03315505026851" lon="12.024210393721443"><ele>453.0</ele><time>2026-05-01T04:33:21.999Z</time></trkpt><trkpt lat="46.033102348874976" lon="12.024300430296655"><ele>454.66666666666663</ele><time>2026-05-01T04:33:22.999Z</time></trkpt><trkpt lat="46.03306193334793" lon="12.02442235619437"><ele>456.3333333333333</ele><time>2026-05-01T04:33:23.999Z</time></trkpt><trkpt lat="46.03303009741878" lon="12.024562744649362"><ele>458.0</ele><time>2026-05-01T04:33:24.999Z</time></trkpt><trkpt lat="46.033011159043966" lon="12.024680770522028"><ele>457.99999999999994</ele><time>2026-05-01T04:33:25.999Z</time></trkpt><trkpt lat="46.032987069485365" lon="12.02483913593568"><ele>458.0</ele><time>2026-05-01T04:33:27.999Z</time></trkpt><trkpt lat="46.0329401833475" lon="12.024905571941389"><ele>458.0</ele><time>2026-05-01T04:33:29.999Z</time></trkpt><trkpt lat="46.03287671101252" lon="12.024855389438152"><ele>458.0</ele><time>2026-05-01T04:33:30.999Z</time></trkpt><trkpt lat="46.03280168162556" lon="12.02484937842283"><ele>457.99999999999994</ele><time>2026-05-01T04:33:31.999Z</time></trkpt><trkpt lat="46.03272528009799" lon="12.024831457114562"><ele>458.0</ele><time>2026-05-01T04:33:32.999Z</time></trkpt><trkpt lat="46.032649575104394" lon="12.02481052108543"><ele>458.0</ele><time>2026-05-01T04:33:33.999Z</time></trkpt><trkpt lat="46.03257156146546" lon="12.024767464168777"><ele>457.99999999999994</ele><time>2026-05-01T04:33:34.999Z</time></trkpt><trkpt lat="46.03249570161666" lon="12.024685987940005"><ele>457.99999999999994</ele><time>2026-05-01T04:33:35.999Z</time></trkpt><trkpt lat="46.03242921823807" lon="12.024577379462645"><ele>458.0</ele><time>2026-05-01T04:33:36.999Z</time></trkpt><trkpt lat="46.03238303364633" lon="12.0244232207425"><ele>458.0</ele><time>2026-05-01T04:33:37.999Z</time></trkpt><trkpt lat="46.03231235520819" lon="12.024288209606006"><ele>460.59999999999997</ele><time>2026-05-01T04:33:38.999Z</time></trkpt><trkpt lat="46.032240281420975" lon="12.02414367293449"><ele>463.19999999999993</ele><time>2026-05-01T04:33:39.999Z</time></trkpt><trkpt lat="46.03217746020522" lon="12.024013536860876"><ele>465.8</ele><time>2026-05-01T04:33:40.999Z</time></trkpt><trkpt lat="46.03212682398059" lon="12.023901056336426"><ele>468.4</ele><time>2026-05-01T04:33:41.999Z</time></trkpt><trkpt lat="46.032083203029615" lon="12.023785325201635"><ele>471.0</ele><time>2026-05-01T04:33:42.999Z</time></trkpt><trkpt lat="46.032023808076275" lon="12.023673513962265"><ele>471.0</ele><time>2026-05-01T04:33:44Z</time></trkpt><trkpt lat="46.0319298970507" lon="12.023584321515445"><ele>471.0</ele><time>2026-05-01T04:33:45Z</time></trkpt><trkpt lat="46.0318299618261" lon="12.023517154237473"><ele>471.0</ele><time>2026-05-01T04:33:46Z</time></trkpt><trkpt lat="46.03175116569174" lon="12.023400212253746"><ele>471.0</ele><time>2026-05-01T04:33:47Z</time></trkpt><trkpt lat="46.03169802627668" lon="12.023249605372643"><ele>472.25</ele><time>2026-05-01T04:33:48Z</time></trkpt><trkpt lat="46.03161105805959" lon="12.023133507723786"><ele>473.5</ele><time>2026-05-01T04:33:49Z</time></trkpt><trkpt lat="46.03151848449859" lon="12.023025876623922"><ele>474.75</ele><time>2026-05-01T04:33:50Z</time></trkpt><trkpt lat="46.0314245764435" lon="12.022943717958535"><ele>476.0</ele><time>2026-05-01T04:33:51Z</time></trkpt><trkpt lat="46.031345693824406" lon="12.022848669520693"><ele>476.0</ele><time>2026-05-01T04:33:52Z</time></trkpt><trkpt lat="46.03125032973601" lon="12.022767374115292"><ele>476.0</ele><time>2026-05-01T04:33:53Z</time></trkpt><trkpt lat="46.03115467755609" lon="12.022695645194075"><ele>476.0</ele><time>2026-05-01T04:33:54Z</time></trkpt><trkpt lat="46.031060425706826" lon="12.02262511880438"><ele>476.0</ele><time>2026-05-01T04:33:55Z</time></trkpt><trkpt lat="46.030973210436414" lon="12.022565812497126"><ele>476.0</ele><time>2026-05-01T04:33:56Z</time></trkpt><trkpt lat="46.03088920920935" lon="12.022515597483027"><ele>480.6</ele><time>2026-05-01T04:33:57Z</time></trkpt><trkpt lat="46.03079073771043" lon="12.022508861275146"><ele>485.20000000000005</ele><time>2026-05-01T04:33:58Z</time></trkpt><trkpt lat="46.030682036876115" lon="12.022540891626695"><ele>489.79999999999995</ele><time>2026-05-01T04:33:59Z</time></trkpt><trkpt lat="46.03056802622767" lon="12.02257655366272"><ele>494.4</ele><time>2026-05-01T04:34:00Z</time></trkpt><trkpt lat="46.03045488885091" lon="12.02258047011222"><ele>499.0</ele><time>2026-05-01T04:34:01Z</time></trkpt><trkpt lat="46.030381466688816" lon="12.02260943099503"><ele>499.00000000000006</ele><time>2026-05-01T04:34:02Z</time></trkpt><trkpt lat="46.03030172813067" lon="12.02261570241965"><ele>499.0</ele><time>2026-05-01T04:34:03Z</time></trkpt><trkpt lat="46.030214415427665" lon="12.02258009670842"><ele>499.0</ele><time>2026-05-01T04:34:04Z</time></trkpt><trkpt lat="46.030144412153874" lon="12.022541039063894"><ele>499.0</ele><time>2026-05-01T04:34:05Z</time></trkpt><trkpt lat="46.03008969345994" lon="12.022439554569313"><ele>499.00000000000006</ele><time>2026-05-01T04:34:06Z</time></trkpt><trkpt lat="46.03006596014937" lon="12.022290480386424"><ele>499.0</ele><time>2026-05-01T04:34:07Z</time></trkpt><trkpt lat="46.030062812557105" lon="12.022144137565329"><ele>500.0</ele><time>2026-05-01T04:34:08Z</time></trkpt><trkpt lat="46.03004340637185" lon="12.021988974676084"><ele>501.0</ele><time>2026-05-01T04:34:09Z</time></trkpt><trkpt lat="46.03003197146321" lon="12.021842881893447"><ele>502.0</ele><time>2026-05-01T04:34:10Z</time></trkpt><trkpt lat="46.03002234503652" lon="12.0217259353867"><ele>503.0</ele><time>2026-05-01T04:34:11Z</time></trkpt><trkpt lat="46.03000951318376" lon="12.021622140323437"><ele>504.0</ele><time>2026-05-01T04:34:12Z</time></trkpt><trkpt lat="46.02993891287028" lon="12.021464820643072"><ele>504.0</ele><time>2026-05-01T04:34:14Z</time></trkpt><trkpt lat="46.02984858863179" lon="12.02134820729379"><ele>504.0</ele><time>2026-05-01T04:34:15Z</time></trkpt><trkpt lat="46.029754461767375" lon="12.021267301659275"><ele>504.0</ele><time>2026-05-01T04:34:16Z</time></trkpt><trkpt lat="46.02968371571459" lon="12.021144020979055"><ele>504.0</ele><time>2026-05-01T04:34:17Z</time></trkpt><trkpt lat="46.02962408997998" lon="12.021006096312545"><ele>504.0</ele><time>2026-05-01T04:34:18Z</time></trkpt><trkpt lat="46.0295766754683" lon="12.020895230748081"><ele>504.0</ele><time>2026-05-01T04:34:19Z</time></trkpt><trkpt lat="46.02952056959199" lon="12.0207903536943"><ele>504.0</ele><time>2026-05-01T04:34:20Z</time></trkpt><trkpt lat="46.02944967759285" lon="12.020698506071177"><ele>504.0</ele><time>2026-05-01T04:34:21Z</time></trkpt><trkpt lat="46.0293732115956" lon="12.020619536702506"><ele>504.0</ele><time>2026-05-01T04:34:22Z</time></trkpt><trkpt lat="46.02931596014791" lon="12.020522902452381"><ele>501.4</ele><time>2026-05-01T04:34:23Z</time></trkpt><trkpt lat="46.02928828515046" lon="12.020403349664804"><ele>498.79999999999995</ele><time>2026-05-01T04:34:24Z</time></trkpt><trkpt lat="46.02927096472478" lon="12.020277275958989"><ele>496.20000000000005</ele><time>2026-05-01T04:34:25Z</time></trkpt><trkpt lat="46.02924745962058" lon="12.020147887093414"><ele>493.6</ele><time>2026-05-01T04:34:26Z</time></trkpt><trkpt lat="46.02922038180195" lon="12.020016586672474"><ele>491.0</ele><time>2026-05-01T04:34:27Z</time></trkpt><trkpt lat="46.0291884916441" lon="12.01989954674951"><ele>489.49999999999994</ele><time>2026-05-01T04:34:28Z</time></trkpt><trkpt lat="46.02915234907256" lon="12.01979540583792"><ele>488.0</ele><time>2026-05-01T04:34:29Z</time></trkpt><trkpt lat="46.02910812928256" lon="12.019706635805642"><ele>486.5</ele><time>2026-05-01T04:34:30Z</time></trkpt><trkpt lat="46.02908651193405" lon="12.01960933982377"><ele>485.0</ele><time>2026-05-01T04:34:31Z</time></trkpt><trkpt lat="46.029049627911114" lon="12.019495211848547"><ele>483.49999999999994</ele><time>2026-05-01T04:34:33Z</time></trkpt><trkpt lat="46.02900515750503" lon="12.019385648302693"><ele>482.0</ele><time>2026-05-01T04:35:37.999Z</time></trkpt><trkpt lat="46.02897660806847" lon="12.019259325697124"><ele>488.20000000000005</ele><time>2026-05-01T04:35:39.999Z</time></trkpt><trkpt lat="46.028969147782846" lon="12.019069516235904"><ele>494.40000000000003</ele><time>2026-05-01T04:35:41.999Z</time></trkpt><trkpt lat="46.02898143060794" lon="12.01894157335265"><ele>500.59999999999997</ele><time>2026-05-01T04:35:42.999Z</time></trkpt><trkpt lat="46.02897330793479" lon="12.018840133390741"><ele>506.79999999999995</ele><time>2026-05-01T04:35:43.999Z</time></trkpt><trkpt lat="46.02896423978103" lon="12.018726885846773"><ele>513.0</ele><time>2026-05-01T04:35:44.999Z</time></trkpt><trkpt lat="46.02895500907747" lon="12.018611608330614"><ele>513.0</ele><time>2026-05-01T04:35:45.999Z</time></trkpt><trkpt lat="46.02894753862486" lon="12.01851505005139"><ele>513.0</ele><time>2026-05-01T04:35:46.999Z</time></trkpt><trkpt lat="46.0289323186857" lon="12.018306610106377"><ele>513.0</ele><time>2026-05-01T04:35:48.999Z</time></trkpt><trkpt lat="46.02889099915104" lon="12.018201672973927"><ele>513.0</ele><time>2026-05-01T04:35:50Z</time></trkpt><trkpt lat="46.02887921507862" lon="12.018059695335749"><ele>513.0</ele><time>2026-05-01T04:35:51Z</time></trkpt><trkpt lat="46.02885981471999" lon="12.017937622668374"><ele>512.6666666666666</ele><time>2026-05-01T04:35:52Z</time></trkpt><trkpt lat="46.02884374508125" lon="12.01782086856392"><ele>512.3333333333334</ele><time>2026-05-01T04:35:53Z</time></trkpt><trkpt lat="46.02882632656296" lon="12.017727154542623"><ele>512.0</ele><time>2026-05-01T04:35:54Z</time></trkpt><trkpt lat="46.02880795001164" lon="12.017625922432893"><ele>511.6666666666667</ele><time>2026-05-01T04:35:55Z</time></trkpt><trkpt lat="46.028789633831266" lon="12.017537318905863"><ele>511.33333333333337</ele><time>2026-05-01T04:35:56Z</time></trkpt><trkpt lat="46.02875645546392" lon="12.017391411787589"><ele>511.0</ele><time>2026-05-01T04:35:58Z</time></trkpt><trkpt lat="46.028671010873424" lon="12.017353454262585"><ele>511.0</ele><time>2026-05-01T04:36:01Z</time></trkpt><trkpt lat="46.02863794616826" lon="12.01746968437687"><ele>511.0</ele><time>2026-05-01T04:36:04Z</time></trkpt><trkpt lat="46.02861371288788" lon="12.017565432683728"><ele>511.0</ele><time>2026-05-01T04:36:05Z</time></trkpt><trkpt lat="46.02857972204957" lon="12.0176611349408"><ele>511.0</ele><time>2026-05-01T04:36:06Z</time></trkpt><trkpt lat="46.02854894847845" lon="12.01775823467239"><ele>511.0</ele><time>2026-05-01T04:36:07Z</time></trkpt><trkpt lat="46.02852021371352" lon="12.017848657843066"><ele>511.0</ele><time>2026-05-01T04:36:08Z</time></trkpt><trkpt lat="46.02850527334448" lon="12.0179502624494"><ele>511.0</ele><time>2026-05-01T04:36:09Z</time></trkpt><trkpt lat="46.02849476434068" lon="12.0180583278898"><ele>511.00000000000006</ele><time>2026-05-01T04:36:10Z</time></trkpt><trkpt lat="46.02847762597759" lon="12.018163432948862"><ele>511.0</ele><time>2026-05-01T04:36:11Z</time></trkpt><trkpt lat="46.028450535137" lon="12.018260719921143"><ele>511.0</ele><time>2026-05-01T04:36:12Z</time></trkpt><trkpt lat="46.02841960028361" lon="12.018342567001136"><ele>511.0</ele><time>2026-05-01T04:36:13Z</time></trkpt><trkpt lat="46.02835574760565" lon="12.018468286264435"><ele>511.00000000000006</ele><time>2026-05-01T04:36:15Z</time></trkpt><trkpt lat="46.02828797273083" lon="12.018605828234065"><ele>511.0</ele><time>2026-05-01T04:36:17Z</time></trkpt><trkpt lat="46.02820817111702" lon="12.018629474573839"><ele>517.0</ele><time>2026-05-01T04:36:19Z</time></trkpt><trkpt lat="46.028113428738344" lon="12.018780325730734"><ele>523.0</ele><time>2026-05-01T04:36:21Z</time></trkpt><trkpt lat="46.02806295674707" lon="12.018870366658092"><ele>529.0</ele><time>2026-05-01T04:36:22Z</time></trkpt><trkpt lat="46.02798923095561" lon="12.018985791209612"><ele>535.0</ele><time>2026-05-01T04:36:24Z</time></trkpt><trkpt lat="46.02795357565455" lon="12.019068795943125"><ele>541.0</ele><time>2026-05-01T04:36:25Z</time></trkpt><trkpt lat="46.02792767607672" lon="12.0191861356938"><ele>541.0</ele><time>2026-05-01T04:36:26Z</time></trkpt><trkpt lat="46.02787252077561" lon="12.019350668002199"><ele>541.0</ele><time>2026-05-01T04:36:28Z</time></trkpt><trkpt lat="46.027914331013946" lon="12.01945013196362"><ele>541.0</ele><time>2026-05-01T04:36:29Z</time></trkpt><trkpt lat="46.027891246013006" lon="12.019604307131221"><ele>541.0</ele><time>2026-05-01T04:36:31Z</time></trkpt><trkpt lat="46.027851490001154" lon="12.019701241788088"><ele>541.0</ele><time>2026-05-01T04:36:32Z</time></trkpt><trkpt lat="46.02775737785022" lon="12.019699264837323"><ele>541.0</ele><time>2026-05-01T04:36:34Z</time></trkpt><trkpt lat="46.02769689346868" lon="12.019626764832243"><ele>541.0</ele><time>2026-05-01T04:36:36Z</time></trkpt><trkpt lat="46.02760739826584" lon="12.01957023007551"><ele>541.0</ele><time>2026-05-01T04:36:39Z</time></trkpt><trkpt lat="46.0275240670677" lon="12.019483101871234"><ele>541.0</ele><time>2026-05-01T04:36:41Z</time></trkpt><trkpt lat="46.02743029035638" lon="12.019349052480772"><ele>541.0</ele><time>2026-05-01T04:36:43Z</time></trkpt><trkpt lat="46.027362676449805" lon="12.01923997472748"><ele>543.6666666666667</ele><time>2026-05-01T04:36:45Z</time></trkpt><trkpt lat="46.02731687827574" lon="12.019137930776758"><ele>546.3333333333334</ele><time>2026-05-01T04:36:47Z</time></trkpt><trkpt lat="46.02728307305509" lon="12.019020931171164"><ele>549.0</ele><time>2026-05-01T04:36:49Z</time></trkpt><trkpt lat="46.02721072040429" lon="12.018953379750767"><ele>551.6666666666666</ele><time>2026-05-01T04:36:51Z</time></trkpt><trkpt lat="46.02713569552999" lon="12.018911687527977"><ele>554.3333333333333</ele><time>2026-05-01T04:36:53Z</time></trkpt><trkpt lat="46.02708358375188" lon="12.018855772495245"><ele>557.0</ele><time>2026-05-01T04:36:54Z</time></trkpt><trkpt lat="46.027019618682544" lon="12.018784550893319"><ele>557.0</ele><time>2026-05-01T04:36:55Z</time></trkpt><trkpt lat="46.02692043620738" lon="12.018668922892786"><ele>557.0</ele><time>2026-05-01T04:36:57Z</time></trkpt><trkpt lat="46.02684321565235" lon="12.018551620684244"><ele>557.0</ele><time>2026-05-01T04:36:59Z</time></trkpt><trkpt lat="46.02677896550489" lon="12.018428918844117"><ele>557.0</ele><time>2026-05-01T04:37:01Z</time></trkpt><trkpt lat="46.026745318983565" lon="12.018345877798064"><ele>557.0</ele><time>2026-05-01T04:37:02Z</time></trkpt><trkpt lat="46.02668209821764" lon="12.018226096770064"><ele>561.2</ele><time>2026-05-01T04:37:04Z</time></trkpt><trkpt lat="46.02662891037291" lon="12.01811685086451"><ele>565.4000000000001</ele><time>2026-05-01T04:37:06Z</time></trkpt><trkpt lat="46.02655598446286" lon="12.018021499998696"><ele>569.5999999999999</ele><time>2026-05-01T04:37:08Z</time></trkpt><trkpt lat="46.02650928956623" lon="12.017940883445505"><ele>573.8</ele><time>2026-05-01T04:37:10Z</time></trkpt><trkpt lat="46.02644441547848" lon="12.017814083742136"><ele>578.0</ele><time>2026-05-01T04:37:12Z</time></trkpt><trkpt lat="46.02637377529423" lon="12.017750859389187"><ele>578.0</ele><time>2026-05-01T04:37:14Z</time></trkpt><trkpt lat="46.02629552538121" lon="12.017655266924125"><ele>578.0</ele><time>2026-05-01T04:37:17Z</time></trkpt><trkpt lat="46.0262349154102" lon="12.017567018773024"><ele>578.0</ele><time>2026-05-01T04:37:18Z</time></trkpt><trkpt lat="46.026179031516136" lon="12.017446087796587"><ele>578.0</ele><time>2026-05-01T04:37:19.999Z</time></trkpt><trkpt lat="46.02613083616902" lon="12.017311667588125"><ele>578.0</ele><time>2026-05-01T04:37:21.999Z</time></trkpt><trkpt lat="46.026082319605266" lon="12.017186125753739"><ele>580.0</ele><time>2026-05-01T04:37:23.999Z</time></trkpt><trkpt lat="46.02599271735192" lon="12.017059386394934"><ele>582.0</ele><time>2026-05-01T04:37:25.999Z</time></trkpt><trkpt lat="46.0259302363881" lon="12.017010165759446"><ele>584.0</ele><time>2026-05-01T04:37:27.999Z</time></trkpt><trkpt lat="46.02583200251167" lon="12.01685955583078"><ele>586.0</ele><time>2026-05-01T04:37:29.999Z</time></trkpt><trkpt lat="46.02578202498347" lon="12.01677446726192"><ele>588.0</ele><time>2026-05-01T04:37:31.999Z</time></trkpt><trkpt lat="46.02571420710574" lon="12.01675121302879"><ele>588.0</ele><time>2026-05-01T04:37:33.999Z</time></trkpt><trkpt lat="46.025634502097326" lon="12.016713414061474"><ele>588.0</ele><time>2026-05-01T04:37:35.999Z</time></trkpt><trkpt lat="46.02555791666515" lon="12.016686866817645"><ele>588.0</ele><time>2026-05-01T04:37:37.999Z</time></trkpt><trkpt lat="46.02544009990009" lon="12.01664786057794"><ele>588.0</ele><time>2026-05-01T04:37:39.999Z</time></trkpt><trkpt lat="46.02535406447736" lon="12.016623959898983"><ele>588.0</ele><time>2026-05-01T04:37:41.999Z</time></trkpt><trkpt lat="46.02526145901339" lon="12.016517788577724"><ele>585.6</ele><time>2026-05-01T04:37:43.999Z</time></trkpt><trkpt lat="46.025148423169284" lon="12.016411275335473"><ele>583.1999999999999</ele><time>2026-05-01T04:37:45.999Z</time></trkpt><trkpt lat="46.0250653660903" lon="12.016363296494603"><ele>580.8</ele><time>2026-05-01T04:37:47.999Z</time></trkpt><trkpt lat="46.02498540091167" lon="12.016336774836002"><ele>578.4</ele><time>2026-05-01T04:37:49.999Z</time></trkpt><trkpt lat="46.0249012282892" lon="12.016309642873363"><ele>576.0</ele><time>2026-05-01T04:37:51.999Z</time></trkpt><trkpt lat="46.02484081837755" lon="12.016375781467342"><ele>576.0</ele><time>2026-05-01T04:37:53.999Z</time></trkpt><trkpt lat="46.02479390615927" lon="12.016485356101422"><ele>576.0</ele><time>2026-05-01T04:37:54.999Z</time></trkpt><trkpt lat="46.02479230002174" lon="12.01660072418092"><ele>576.0</ele><time>2026-05-01T04:37:57Z</time></trkpt><trkpt lat="46.024834743359" lon="12.016723296892232"><ele>576.0</ele><time>2026-05-01T04:37:59Z</time></trkpt><trkpt lat="46.02486730914686" lon="12.016824218725208"><ele>576.0</ele><time>2026-05-01T04:38:01Z</time></trkpt><trkpt lat="46.0248944926447" lon="12.01692172344592"><ele>576.0</ele><time>2026-05-01T04:38:03Z</time></trkpt><trkpt lat="46.024900530729035" lon="12.017026774282652"><ele>580.6</ele><time>2026-05-01T04:38:04Z</time></trkpt><trkpt lat="46.02491740889856" lon="12.017159662356113"><ele>585.2</ele><time>2026-05-01T04:38:06Z</time></trkpt><trkpt lat="46.02492792712711" lon="12.017322622726596"><ele>589.8</ele><time>2026-05-01T04:38:08Z</time></trkpt><trkpt lat="46.024917250421645" lon="12.01749065541391"><ele>594.4</ele><time>2026-05-01T04:38:10Z</time></trkpt><trkpt lat="46.02490477074707" lon="12.017633556583931"><ele>599.0</ele><time>2026-05-01T04:38:12Z</time></trkpt><trkpt lat="46.024899647961725" lon="12.017786674857303"><ele>603.6</ele><time>2026-05-01T04:38:14Z</time></trkpt><trkpt lat="46.024898043961656" lon="12.0178975799527"><ele>608.2</ele><time>2026-05-01T04:38:16Z</time></trkpt><trkpt lat="46.02489123908068" lon="12.018051789247597"><ele>612.8000000000001</ele><time>2026-05-01T04:38:18Z</time></trkpt><trkpt lat="46.02488844122267" lon="12.018144676703963"><ele>617.4</ele><time>2026-05-01T04:38:20Z</time></trkpt><trkpt lat="46.02488513486968" lon="12.018330839659818"><ele>622.0</ele><time>2026-05-01T04:38:22Z</time></trkpt><trkpt lat="46.024928195015086" lon="12.018413895338254"><ele>625.2</ele><time>2026-05-01T04:38:25Z</time></trkpt><trkpt lat="46.02491658111203" lon="12.018516557400114"><ele>628.4000000000001</ele><time>2026-05-01T04:38:26Z</time></trkpt><trkpt lat="46.024906619391714" lon="12.018720618204206"><ele>631.5999999999999</ele><time>2026-05-01T04:38:29Z</time></trkpt><trkpt lat="46.024868271256665" lon="12.018873857788707"><ele>634.8</ele><time>2026-05-01T04:38:31Z</time></trkpt><trkpt lat="46.02490423375814" lon="12.01901318283786"><ele>638.0</ele><time>2026-05-01T04:38:33Z</time></trkpt><trkpt lat="46.02494135349912" lon="12.019190759617194"><ele>640.1666666666666</ele><time>2026-05-01T04:38:35Z</time></trkpt><trkpt lat="46.02493261805289" lon="12.019327115868649"><ele>642.3333333333333</ele><time>2026-05-01T04:38:37Z</time></trkpt><trkpt lat="46.02492532619701" lon="12.019453101451322"><ele>644.5</ele><time>2026-05-01T04:38:38Z</time></trkpt><trkpt lat="46.02489588893996" lon="12.019598996999349"><ele>646.6666666666666</ele><time>2026-05-01T04:38:40Z</time></trkpt><trkpt lat="46.02487801232503" lon="12.019730451378296"><ele>648.8333333333334</ele><time>2026-05-01T04:38:42Z</time></trkpt><trkpt lat="46.02487115991653" lon="12.019822195984252"><ele>651.0</ele><time>2026-05-01T04:38:45Z</time></trkpt><trkpt lat="46.02489787891292" lon="12.019907393775656"><ele>650.5</ele><time>2026-05-01T04:38:46Z</time></trkpt><trkpt lat="46.02486633976056" lon="12.020042373991846"><ele>650.0</ele><time>2026-05-01T04:38:48Z</time></trkpt><trkpt lat="46.024836181654095" lon="12.020257352434777"><ele>649.5</ele><time>2026-05-01T04:38:51Z</time></trkpt><trkpt lat="46.02479878130773" lon="12.020370318932716"><ele>649.0</ele><time>2026-05-01T04:38:53Z</time></trkpt><trkpt lat="46.024799509182515" lon="12.020539741781585"><ele>649.0</ele><time>2026-05-01T04:38:55Z</time></trkpt><trkpt lat="46.02476723276276" lon="12.02063198598518"><ele>649.0</ele><time>2026-05-01T04:38:58Z</time></trkpt><trkpt lat="46.02468537746117" lon="12.020675480624623"><ele>649.0</ele><time>2026-05-01T04:39:00Z</time></trkpt><trkpt lat="46.024609420843" lon="12.020664161072554"><ele>649.0</ele><time>2026-05-01T04:39:02Z</time></trkpt><trkpt lat="46.02450883037007" lon="12.020663292896959"><ele>649.0</ele><time>2026-05-01T04:39:04Z</time></trkpt><trkpt lat="46.024416359340165" lon="12.020637327633024"><ele>649.0</ele><time>2026-05-01T04:39:07Z</time></trkpt><trkpt lat="46.02436849878185" lon="12.02057705379109"><ele>649.0</ele><time>2026-05-01T04:39:09Z</time></trkpt><trkpt lat="46.02430247741603" lon="12.02055406088091"><ele>649.0</ele><time>2026-05-01T04:39:10Z</time></trkpt><trkpt lat="46.02423203122313" lon="12.020527357760027"><ele>649.0</ele><time>2026-05-01T04:39:12Z</time></trkpt><trkpt lat="46.02418479171858" lon="12.020467346010527"><ele>649.0</ele><time>2026-05-01T04:39:14Z</time></trkpt><trkpt lat="46.02411287370305" lon="12.020321691848784"><ele>649.0</ele><time>2026-05-01T04:39:16Z</time></trkpt><trkpt lat="46.02403654150855" lon="12.020261118149751"><ele>649.0</ele><time>2026-05-01T04:39:18Z</time></trkpt><trkpt lat="46.02396432548222" lon="12.020156847666593"><ele>650.6666666666667</ele><time>2026-05-01T04:39:20Z</time></trkpt><trkpt lat="46.02387299931569" lon="12.020044888758223"><ele>652.3333333333334</ele><time>2026-05-01T04:39:23Z</time></trkpt><trkpt lat="46.02382959146767" lon="12.019963536059532"><ele>654.0</ele><time>2026-05-01T04:39:25Z</time></trkpt><trkpt lat="46.02383966846813" lon="12.019828742659678"><ele>655.6666666666666</ele><time>2026-05-01T04:40:11Z</time></trkpt><trkpt lat="46.023910088813516" lon="12.0197459970549"><ele>657.3333333333333</ele><time>2026-05-01T04:42:23Z</time></trkpt><trkpt lat="46.02393804756342" lon="12.019650971957589"><ele>659.0</ele><time>2026-05-01T04:42:26Z</time></trkpt><trkpt lat="46.02397724764047" lon="12.019574895479506"><ele>659.0</ele><time>2026-05-01T04:42:30Z</time></trkpt><trkpt lat="46.02399021672452" lon="12.019475769610668"><ele>659.0</ele><time>2026-05-01T04:42:35Z</time></trkpt><trkpt lat="46.023967494528996" lon="12.019353342917297"><ele>659.0</ele><time>2026-05-01T04:42:41Z</time></trkpt><trkpt lat="46.02393756291637" lon="12.01925009357775"><ele>659.0</ele><time>2026-05-01T04:42:45Z</time></trkpt><trkpt lat="46.023891560240415" lon="12.019183523467493"><ele>659.0</ele><time>2026-05-01T04:42:49Z</time></trkpt><trkpt lat="46.02385196595777" lon="12.019097525526808"><ele>659.0</ele><time>2026-05-01T04:42:53Z</time></trkpt><trkpt lat="46.02382838425604" lon="12.019009091867744"><ele>659.0</ele><time>2026-05-01T04:42:57Z</time></trkpt><trkpt lat="46.02376531244963" lon="12.018990147218659"><ele>659.0</ele><time>2026-05-01T04:43:00Z</time></trkpt><trkpt lat="46.023699545910404" lon="12.019019202081665"><ele>659.0</ele><time>2026-05-01T04:43:05Z</time></trkpt><trkpt lat="46.02362994273843" lon="12.019054988332698"><ele>659.0</ele><time>2026-05-01T04:43:11Z</time></trkpt><trkpt lat="46.02356886308744" lon="12.019082118329981"><ele>659.0</ele><time>2026-05-01T04:43:18Z</time></trkpt><trkpt lat="46.023526631104566" lon="12.01916893978826"><ele>659.0</ele><time>2026-05-01T04:43:22Z</time></trkpt><trkpt lat="46.02348377321813" lon="12.019263247992624"><ele>659.0</ele><time>2026-05-01T04:43:26Z</time></trkpt><trkpt lat="46.023427547111446" lon="12.019347014976288"><ele>659.0</ele><time>2026-05-01T04:43:37Z</time></trkpt><trkpt lat="46.02338750634712" lon="12.019440822921919"><ele>659.0</ele><time>2026-05-01T04:43:42Z</time></trkpt><trkpt lat="46.02334112397115" lon="12.019531270213779"><ele>659.0</ele><time>2026-05-01T04:43:48Z</time></trkpt><trkpt lat="46.02330198777222" lon="12.019603136740605"><ele>659.0</ele><time>2026-05-01T04:43:52Z</time></trkpt><trkpt lat="46.023242124518674" lon="12.019675812232883"><ele>659.0</ele><time>2026-05-01T04:44:00Z</time></trkpt><trkpt lat="46.02316916617524" lon="12.019531695089423"><ele>659.0</ele><time>2026-05-01T04:44:03Z</time></trkpt><trkpt lat="46.023104297257824" lon="12.019390794204009"><ele>662.1666666666666</ele><time>2026-05-01T04:44:05Z</time></trkpt><trkpt lat="46.02309182232337" lon="12.019285891024454"><ele>665.3333333333333</ele><time>2026-05-01T04:44:07Z</time></trkpt><trkpt lat="46.023012800902094" lon="12.019232158964392"><ele>668.5</ele><time>2026-05-01T04:44:10Z</time></trkpt><trkpt lat="46.022960996499414" lon="12.019165948983924"><ele>671.6666666666666</ele><time>2026-05-01T04:44:13Z</time></trkpt><trkpt lat="46.022904665090806" lon="12.019124164173082"><ele>674.8333333333334</ele><time>2026-05-01T04:44:22Z</time></trkpt><trkpt lat="46.0228201454795" lon="12.019013560277395"><ele>678.0</ele><time>2026-05-01T04:44:25Z</time></trkpt><trkpt lat="46.022792799195834" lon="12.018922409531596"><ele>678.0</ele><time>2026-05-01T04:44:26Z</time></trkpt><trkpt lat="46.02270129714271" lon="12.01882844724646"><ele>678.0</ele><time>2026-05-01T04:44:29Z</time></trkpt><trkpt lat="46.02263892769278" lon="12.018742564804084"><ele>678.0</ele><time>2026-05-01T04:44:31Z</time></trkpt><trkpt lat="46.022568542172486" lon="12.018684196499887"><ele>678.0</ele><time>2026-05-01T04:44:33Z</time></trkpt><trkpt lat="46.0224996422591" lon="12.018512184152113"><ele>678.0</ele><time>2026-05-01T04:44:35Z</time></trkpt><trkpt lat="46.02241812406435" lon="12.018387794410065"><ele>681.4</ele><time>2026-05-01T04:44:37Z</time></trkpt><trkpt lat="46.022343024422184" lon="12.018290594544538"><ele>684.8</ele><time>2026-05-01T04:44:39Z</time></trkpt><trkpt lat="46.02224031305492" lon="12.018171228462379"><ele>688.2</ele><time>2026-05-01T04:44:41Z</time></trkpt><trkpt lat="46.022165926198475" lon="12.018023616140116"><ele>691.6</ele><time>2026-05-01T04:44:43Z</time></trkpt><trkpt lat="46.022114960098016" lon="12.017959737678208"><ele>695.0</ele><time>2026-05-01T04:44:44Z</time></trkpt><trkpt lat="46.02203644246736" lon="12.017881085464172"><ele>695.0</ele><time>2026-05-01T04:44:46Z</time></trkpt><trkpt lat="46.021961667970785" lon="12.017862819909187"><ele>695.0</ele><time>2026-05-01T04:44:49Z</time></trkpt><trkpt lat="46.02189204747081" lon="12.017780006494371"><ele>695.0</ele><time>2026-05-01T04:44:50Z</time></trkpt><trkpt lat="46.02182580217308" lon="12.017722340120901"><ele>695.0</ele><time>2026-05-01T04:44:52Z</time></trkpt><trkpt lat="46.02174930817719" lon="12.017701232749221"><ele>695.0</ele><time>2026-05-01T04:44:54Z</time></trkpt><trkpt lat="46.02167821018472" lon="12.017672931716003"><ele>695.0</ele><time>2026-05-01T04:44:55Z</time></trkpt><trkpt lat="46.02160888759805" lon="12.017616230864748"><ele>697.0</ele><time>2026-05-01T04:44:56Z</time></trkpt><trkpt lat="46.021549024453535" lon="12.017559586746899"><ele>699.0</ele><time>2026-05-01T04:44:57Z</time></trkpt><trkpt lat="46.02145886911431" lon="12.017554235630568"><ele>701.0</ele><time>2026-05-01T04:44:59Z</time></trkpt><trkpt lat="46.021361528884604" lon="12.017499924487451"><ele>703.0</ele><time>2026-05-01T04:45:01Z</time></trkpt><trkpt lat="46.02127390383505" lon="12.017419748770624"><ele>705.0</ele><time>2026-05-01T04:45:03Z</time></trkpt><trkpt lat="46.02117811432034" lon="12.017339476909056"><ele>705.0</ele><time>2026-05-01T04:45:05Z</time></trkpt><trkpt lat="46.021169642292364" lon="12.017455941539916"><ele>705.0</ele><time>2026-05-01T04:45:14Z</time></trkpt><trkpt lat="46.02123165531429" lon="12.017615442254199"><ele>705.0</ele><time>2026-05-01T04:45:16Z</time></trkpt><trkpt lat="46.021285253104814" lon="12.017769182376634"><ele>705.0</ele><time>2026-05-01T04:45:18Z</time></trkpt><trkpt lat="46.02134778197773" lon="12.01790735738902"><ele>705.0</ele><time>2026-05-01T04:45:20Z</time></trkpt><trkpt lat="46.02140309456116" lon="12.018047049002012"><ele>708.5</ele><time>2026-05-01T04:45:22Z</time></trkpt><trkpt lat="46.021429122285554" lon="12.01817278760226"><ele>712.0</ele><time>2026-05-01T04:45:24Z</time></trkpt><trkpt lat="46.02146374606321" lon="12.018353232468321"><ele>715.5</ele><time>2026-05-01T04:45:27Z</time></trkpt><trkpt lat="46.02153932318261" lon="12.018410593696869"><ele>719.0</ele><time>2026-05-01T04:45:28Z</time></trkpt><trkpt lat="46.02163091101201" lon="12.018596081833982"><ele>716.4000000000001</ele><time>2026-05-01T04:45:30Z</time></trkpt><trkpt lat="46.0216998001619" lon="12.018732910944022"><ele>713.8</ele><time>2026-05-01T04:45:31Z</time></trkpt><trkpt lat="46.02176137787225" lon="12.01883620577058"><ele>711.2</ele><time>2026-05-01T04:45:32Z</time></trkpt><trkpt lat="46.02181839170252" lon="12.018920598858715"><ele>708.5999999999999</ele><time>2026-05-01T04:45:33Z</time></trkpt><trkpt lat="46.02188495042248" lon="12.01900075584776"><ele>706.0</ele><time>2026-05-01T04:45:34Z</time></trkpt><trkpt lat="46.022000026993354" lon="12.01912726275764"><ele>707.6666666666667</ele><time>2026-05-01T04:45:36Z</time></trkpt><trkpt lat="46.02204787727523" lon="12.01919199974266"><ele>709.3333333333334</ele><time>2026-05-01T04:45:37Z</time></trkpt><trkpt lat="46.02211229553198" lon="12.019238246117444"><ele>711.0</ele><time>2026-05-01T04:45:38Z</time></trkpt><trkpt lat="46.022181867145974" lon="12.019347876551887"><ele>712.6666666666666</ele><time>2026-05-01T04:45:39Z</time></trkpt><trkpt lat="46.02223232200641" lon="12.019451400574928"><ele>714.3333333333333</ele><time>2026-05-01T04:45:40Z</time></trkpt><trkpt lat="46.022275807921126" lon="12.01955671616101"><ele>716.0</ele><time>2026-05-01T04:45:41Z</time></trkpt><trkpt lat="46.02233239806636" lon="12.019638766552388"><ele>716.0</ele><time>2026-05-01T04:45:42Z</time></trkpt><trkpt lat="46.02237765728764" lon="12.019742635542423"><ele>716.0</ele><time>2026-05-01T04:45:43Z</time></trkpt><trkpt lat="46.022432215954275" lon="12.019853706364865"><ele>716.0</ele><time>2026-05-01T04:45:44Z</time></trkpt><trkpt lat="46.02247536139633" lon="12.019941956594607"><ele>716.0</ele><time>2026-05-01T04:45:45Z</time></trkpt><trkpt lat="46.02255029084116" lon="12.020090817204217"><ele>716.0</ele><time>2026-05-01T04:45:47Z</time></trkpt><trkpt lat="46.02268738727148" lon="12.020263568993402"><ele>715.0</ele><time>2026-05-01T04:45:49Z</time></trkpt><trkpt lat="46.022743916908006" lon="12.020399209607822"><ele>714.0</ele><time>2026-05-01T04:45:50Z</time></trkpt><trkpt lat="46.02279434951009" lon="12.020477481837574"><ele>713.0</ele><time>2026-05-01T04:45:51Z</time></trkpt><trkpt lat="46.02281456135069" lon="12.020608078284297"><ele>712.0</ele><time>2026-05-01T04:45:53Z</time></trkpt><trkpt lat="46.02283342035762" lon="12.020694774394268"><ele>711.0</ele><time>2026-05-01T04:45:54Z</time></trkpt><trkpt lat="46.02286923636413" lon="12.02091665307509"><ele>711.0</ele><time>2026-05-01T04:45:56Z</time></trkpt><trkpt lat="46.022898420654215" lon="12.021063014596999"><ele>711.0</ele><time>2026-05-01T04:45:57Z</time></trkpt><trkpt lat="46.02293825386443" lon="12.021190716249858"><ele>711.0</ele><time>2026-05-01T04:45:58Z</time></trkpt><trkpt lat="46.02296408248819" lon="12.0212735204577"><ele>711.0</ele><time>2026-05-01T04:45:59Z</time></trkpt><trkpt lat="46.02299789241228" lon="12.02138191204759"><ele>711.0</ele><time>2026-05-01T04:46:00Z</time></trkpt><trkpt lat="46.02303250752286" lon="12.021503094340222"><ele>711.0</ele><time>2026-05-01T04:46:01Z</time></trkpt><trkpt lat="46.02305388781457" lon="12.02158972170661"><ele>713.8</ele><time>2026-05-01T04:46:02Z</time></trkpt><trkpt lat="46.02309554758335" lon="12.021754172464766"><ele>716.5999999999999</ele><time>2026-05-01T04:46:04Z</time></trkpt><trkpt lat="46.02310995423009" lon="12.021877333913121"><ele>719.4</ele><time>2026-05-01T04:46:05Z</time></trkpt><trkpt lat="46.02313090394696" lon="12.021995008209014"><ele>722.2</ele><time>2026-05-01T04:46:06Z</time></trkpt><trkpt lat="46.02315276882759" lon="12.022117854268751"><ele>725.0</ele><time>2026-05-01T04:46:07Z</time></trkpt><trkpt lat="46.023177002551044" lon="12.022257978825555"><ele>725.0</ele><time>2026-05-01T04:46:09Z</time></trkpt><trkpt lat="46.023205173310984" lon="12.022383316474336"><ele>725.0</ele><time>2026-05-01T04:46:11Z</time></trkpt><trkpt lat="46.023244862550875" lon="12.022470728933857"><ele>725.0</ele><time>2026-05-01T04:46:12Z</time></trkpt><trkpt lat="46.02326102322673" lon="12.022560713643598"><ele>725.0</ele><time>2026-05-01T04:46:13Z</time></trkpt><trkpt lat="46.02329879631933" lon="12.02264778940477"><ele>725.0</ele><time>2026-05-01T04:46:14Z</time></trkpt><trkpt lat="46.023342888636634" lon="12.022715185196759"><ele>725.0</ele><time>2026-05-01T04:46:15Z</time></trkpt><trkpt lat="46.02338900773022" lon="12.022781541292323"><ele>725.0</ele><time>2026-05-01T04:46:16Z</time></trkpt><trkpt lat="46.02344710179242" lon="12.022839750292194"><ele>722.3333333333333</ele><time>2026-05-01T04:46:17Z</time></trkpt><trkpt lat="46.02349379327954" lon="12.022917620294294"><ele>719.6666666666666</ele><time>2026-05-01T04:46:18Z</time></trkpt><trkpt lat="46.02352816954505" lon="12.023018362372891"><ele>717.0</ele><time>2026-05-01T04:46:19Z</time></trkpt><trkpt lat="46.02357018697234" lon="12.023087073559614"><ele>714.3333333333334</ele><time>2026-05-01T04:46:20Z</time></trkpt><trkpt lat="46.0236094672275" lon="12.023206549553546"><ele>711.6666666666667</ele><time>2026-05-01T04:46:22Z</time></trkpt><trkpt lat="46.02361440814562" lon="12.023349475959634"><ele>709.0</ele><time>2026-05-01T04:46:24Z</time></trkpt><trkpt lat="46.023624753121254" lon="12.023510655560035"><ele>709.0</ele><time>2026-05-01T04:46:26Z</time></trkpt><trkpt lat="46.023677042253716" lon="12.023645213665757"><ele>709.0</ele><time>2026-05-01T04:46:28Z</time></trkpt><trkpt lat="46.02375051364014" lon="12.023763776578782"><ele>709.0</ele><time>2026-05-01T04:46:30Z</time></trkpt><trkpt lat="46.02380304008404" lon="12.023913190838835"><ele>709.0</ele><time>2026-05-01T04:46:32Z</time></trkpt><trkpt lat="46.023872883731975" lon="12.024029973497644"><ele>709.0</ele><time>2026-05-01T04:46:34Z</time></trkpt><trkpt lat="46.02390017119238" lon="12.02411941451787"><ele>709.8333333333334</ele><time>2026-05-01T04:46:35Z</time></trkpt><trkpt lat="46.0239580650771" lon="12.024171995281206"><ele>710.6666666666667</ele><time>2026-05-01T04:46:37Z</time></trkpt><trkpt lat="46.02403737028601" lon="12.024185657948387"><ele>711.5</ele><time>2026-05-01T04:46:39Z</time></trkpt><trkpt lat="46.02413547355787" lon="12.024218194251613"><ele>712.3333333333334</ele><time>2026-05-01T04:46:53Z</time></trkpt><trkpt lat="46.02421410932108" lon="12.02425283627399"><ele>713.1666666666666</ele><time>2026-05-01T04:46:54Z</time></trkpt><trkpt lat="46.02428236291716" lon="12.024323227940664"><ele>714.0</ele><time>2026-05-01T04:46:55Z</time></trkpt><trkpt lat="46.02432733839414" lon="12.024459617753852"><ele>706.5</ele><time>2026-05-01T04:46:56Z</time></trkpt><trkpt lat="46.02439164639161" lon="12.02460610729945"><ele>699.0</ele><time>2026-05-01T04:46:57Z</time></trkpt><trkpt lat="46.02446827508147" lon="12.024762997459863"><ele>691.5</ele><time>2026-05-01T04:46:58Z</time></trkpt><trkpt lat="46.02452811697043" lon="12.02495535634342"><ele>684.0</ele><time>2026-05-01T04:46:59Z</time></trkpt><trkpt lat="46.024608804061856" lon="12.025144903064035"><ele>684.0</ele><time>2026-05-01T04:47:00Z</time></trkpt><trkpt lat="46.02466375382726" lon="12.025333464213409"><ele>684.0</ele><time>2026-05-01T04:47:01Z</time></trkpt><trkpt lat="46.0247531260286" lon="12.025500113802948"><ele>684.0</ele><time>2026-05-01T04:47:02Z</time></trkpt><trkpt lat="46.024825645881535" lon="12.025668440245742"><ele>684.0</ele><time>2026-05-01T04:47:03Z</time></trkpt><trkpt lat="46.024886034021854" lon="12.025820485571007"><ele>685.75</ele><time>2026-05-01T04:47:04Z</time></trkpt><trkpt lat="46.02494769811613" lon="12.025984536134937"><ele>687.5</ele><time>2026-05-01T04:47:05Z</time></trkpt><trkpt lat="46.02499996696599" lon="12.026153767857437"><ele>689.25</ele><time>2026-05-01T04:47:06Z</time></trkpt><trkpt lat="46.02505305514358" lon="12.026330448292805"><ele>691.0</ele><time>2026-05-01T04:47:07Z</time></trkpt><trkpt lat="46.02509889952414" lon="12.026524330255944"><ele>684.75</ele><time>2026-05-01T04:47:08Z</time></trkpt><trkpt lat="46.02515147264288" lon="12.026724291238198"><ele>678.5</ele><time>2026-05-01T04:47:09Z</time></trkpt><trkpt lat="46.02519332914729" lon="12.026913323769275"><ele>672.25</ele><time>2026-05-01T04:47:10Z</time></trkpt><trkpt lat="46.025221563743315" lon="12.027101308776615"><ele>666.0</ele><time>2026-05-01T04:47:11Z</time></trkpt><trkpt lat="46.02524110967102" lon="12.027292428763193"><ele>666.0</ele><time>2026-05-01T04:47:12Z</time></trkpt><trkpt lat="46.02527047794583" lon="12.027467572957685"><ele>666.0</ele><time>2026-05-01T04:47:13Z</time></trkpt><trkpt lat="46.02529543564192" lon="12.027634506688202"><ele>666.0</ele><time>2026-05-01T04:47:14Z</time></trkpt><trkpt lat="46.02532657501389" lon="12.027789386699977"><ele>666.0</ele><time>2026-05-01T04:47:15Z</time></trkpt><trkpt lat="46.025353550476716" lon="12.027943855652337"><ele>666.1999999999999</ele><time>2026-05-01T04:47:16Z</time></trkpt><trkpt lat="46.02538716640262" lon="12.02808419442113"><ele>666.4</ele><time>2026-05-01T04:47:17Z</time></trkpt><trkpt lat="46.02544474281246" lon="12.028206168177121"><ele>666.6</ele><time>2026-05-01T04:47:18Z</time></trkpt><trkpt lat="46.02552814930734" lon="12.028293673554973"><ele>666.8</ele><time>2026-05-01T04:47:19Z</time></trkpt><trkpt lat="46.02562888034243" lon="12.02837475110242"><ele>667.0</ele><time>2026-05-01T04:47:20Z</time></trkpt><trkpt lat="46.02574397948866" lon="12.02844221729275"><ele>664.2</ele><time>2026-05-01T04:47:21Z</time></trkpt><trkpt lat="46.02585493113001" lon="12.028518679788082"><ele>661.4000000000001</ele><time>2026-05-01T04:47:22Z</time></trkpt><trkpt lat="46.02594814965835" lon="12.028597298499767"><ele>658.5999999999999</ele><time>2026-05-01T04:47:23Z</time></trkpt><trkpt lat="46.026026018555235" lon="12.028690903830546"><ele>655.8</ele><time>2026-05-01T04:47:24Z</time></trkpt><trkpt lat="46.02607568077336" lon="12.028811893182251"><ele>653.0</ele><time>2026-05-01T04:47:25Z</time></trkpt><trkpt lat="46.0261196099106" lon="12.028957190845912"><ele>653.0</ele><time>2026-05-01T04:47:26Z</time></trkpt><trkpt lat="46.026159111687" lon="12.029136960984335"><ele>653.0</ele><time>2026-05-01T04:47:27Z</time></trkpt><trkpt lat="46.02619700889455" lon="12.029333830183376"><ele>653.0</ele><time>2026-05-01T04:47:28Z</time></trkpt><trkpt lat="46.02625905404932" lon="12.029548260024262"><ele>653.0</ele><time>2026-05-01T04:47:29Z</time></trkpt><trkpt lat="46.026323937345225" lon="12.029784121196863"><ele>652.6666666666666</ele><time>2026-05-01T04:47:30Z</time></trkpt><trkpt lat="46.0263921130636" lon="12.030026381631735"><ele>652.3333333333334</ele><time>2026-05-01T04:47:31Z</time></trkpt><trkpt lat="46.02645144479055" lon="12.030253288340852"><ele>652.0</ele><time>2026-05-01T04:47:32Z</time></trkpt><trkpt lat="46.02651534988589" lon="12.030473091281234"><ele>652.0</ele><time>2026-05-01T04:47:33Z</time></trkpt><trkpt lat="46.02658075042403" lon="12.030686549335499"><ele>652.0</ele><time>2026-05-01T04:47:34Z</time></trkpt><trkpt lat="46.0266458797389" lon="12.030889056069132"><ele>652.0</ele><time>2026-05-01T04:47:35Z</time></trkpt><trkpt lat="46.02670958556581" lon="12.03108942764045"><ele>646.75</ele><time>2026-05-01T04:47:36Z</time></trkpt><trkpt lat="46.02677089379421" lon="12.031284790419809"><ele>641.5</ele><time>2026-05-01T04:47:37Z</time></trkpt><trkpt lat="46.02682963423699" lon="12.031475582559844"><ele>636.25</ele><time>2026-05-01T04:47:38Z</time></trkpt><trkpt lat="46.02688831769149" lon="12.031662050481264"><ele>631.0</ele><time>2026-05-01T04:47:39Z</time></trkpt><trkpt lat="46.02693995651608" lon="12.03184103525172"><ele>631.0</ele><time>2026-05-01T04:47:40Z</time></trkpt><trkpt lat="46.026981365861054" lon="12.031976221360223"><ele>631.0</ele><time>2026-05-01T04:47:41Z</time></trkpt><trkpt lat="46.027028908350715" lon="12.032124841552216"><ele>631.0</ele><time>2026-05-01T04:47:42Z</time></trkpt><trkpt lat="46.027088471756734" lon="12.032295195883702"><ele>631.0</ele><time>2026-05-01T04:47:43Z</time></trkpt><trkpt lat="46.02715309577038" lon="12.03246696452775"><ele>632.5</ele><time>2026-05-01T04:47:44Z</time></trkpt><trkpt lat="46.0272193426115" lon="12.032629498462843"><ele>634.0</ele><time>2026-05-01T04:47:45Z</time></trkpt><trkpt lat="46.02728553323124" lon="12.032802498238183"><ele>635.5</ele><time>2026-05-01T04:47:46Z</time></trkpt><trkpt lat="46.02734889715063" lon="12.032971502460867"><ele>637.0</ele><time>2026-05-01T04:47:47Z</time></trkpt><trkpt lat="46.027408911505745" lon="12.033145547453042"><ele>630.5</ele><time>2026-05-01T04:47:48Z</time></trkpt><trkpt lat="46.02748854189047" lon="12.033305596681878"><ele>624.0</ele><time>2026-05-01T04:47:49Z</time></trkpt><trkpt lat="46.027570808441574" lon="12.033454060246232"><ele>617.5</ele><time>2026-05-01T04:47:50Z</time></trkpt><trkpt lat="46.027671962878884" lon="12.033579069453067"><ele>611.0</ele><time>2026-05-01T04:47:51Z</time></trkpt><trkpt lat="46.027780016867155" lon="12.033696828363839"><ele>611.0</ele><time>2026-05-01T04:47:52Z</time></trkpt><trkpt lat="46.02788767118804" lon="12.033815391711247"><ele>611.0</ele><time>2026-05-01T04:47:53Z</time></trkpt><trkpt lat="46.0279919227342" lon="12.03393784038481"><ele>611.0</ele><time>2026-05-01T04:47:54Z</time></trkpt><trkpt lat="46.02809567785728" lon="12.034061279342627"><ele>611.0</ele><time>2026-05-01T04:47:55Z</time></trkpt><trkpt lat="46.028186511480115" lon="12.034181354845941"><ele>610.4</ele><time>2026-05-01T04:47:56Z</time></trkpt><trkpt lat="46.028265256810656" lon="12.034292385599878"><ele>609.8</ele><time>2026-05-01T04:47:57Z</time></trkpt><trkpt lat="46.028331473748075" lon="12.0344062118633"><ele>609.1999999999999</ele><time>2026-05-01T04:47:58Z</time></trkpt><trkpt lat="46.028406141179474" lon="12.034464426426181"><ele>608.6</ele><time>2026-05-01T04:47:59Z</time></trkpt><trkpt lat="46.02847260526001" lon="12.034517995826848"><ele>608.0</ele><time>2026-05-01T04:48:00Z</time></trkpt><trkpt lat="46.028513697872725" lon="12.0346870855266"><ele>604.8</ele><time>2026-05-01T04:48:01Z</time></trkpt><trkpt lat="46.02858841201637" lon="12.034782251473219"><ele>601.5999999999999</ele><time>2026-05-01T04:48:02Z</time></trkpt><trkpt lat="46.02865574989706" lon="12.034875581352106"><ele>598.4000000000001</ele><time>2026-05-01T04:48:03Z</time></trkpt><trkpt lat="46.028709577004356" lon="12.034980519053827"><ele>595.2</ele><time>2026-05-01T04:48:04Z</time></trkpt><trkpt lat="46.02875828046011" lon="12.035082906035628"><ele>592.0</ele><time>2026-05-01T04:48:05Z</time></trkpt><trkpt lat="46.02880799581861" lon="12.035177510289959"><ele>592.0</ele><time>2026-05-01T04:48:06Z</time></trkpt><trkpt lat="46.028826919312664" lon="12.035278289361196"><ele>592.0</ele><time>2026-05-01T04:48:07Z</time></trkpt><trkpt lat="46.02883016938748" lon="12.035404753066782"><ele>592.0</ele><time>2026-05-01T04:48:09Z</time></trkpt><trkpt lat="46.028981641657325" lon="12.03542355896211"><ele>592.0</ele><time>2026-05-01T04:48:12Z</time></trkpt><trkpt lat="46.02903308716463" lon="12.035351668552806"><ele>592.0</ele><time>2026-05-01T04:48:13Z</time></trkpt><trkpt lat="46.02907383291524" lon="12.035244104982404"><ele>592.0</ele><time>2026-05-01T04:48:14Z</time></trkpt><trkpt lat="46.02909379575552" lon="12.0350981121548"><ele>592.0</ele><time>2026-05-01T04:48:16Z</time></trkpt><trkpt lat="46.02906400504607" lon="12.034948797310967"><ele>592.0</ele><time>2026-05-01T04:48:18Z</time></trkpt><trkpt lat="46.02901634218208" lon="12.03482014205339"><ele>592.0</ele><time>2026-05-01T04:48:21.999Z</time></trkpt><trkpt lat="46.029000479183445" lon="12.03472176002659"><ele>592.0</ele><time>2026-05-01T04:48:22.999Z</time></trkpt><trkpt lat="46.02893147277139" lon="12.034617831987024"><ele>591.75</ele><time>2026-05-01T04:48:23.999Z</time></trkpt><trkpt lat="46.028881584589385" lon="12.034501676736387"><ele>591.5</ele><time>2026-05-01T04:48:24.999Z</time></trkpt><trkpt lat="46.028878878597425" lon="12.034331162001424"><ele>591.25</ele><time>2026-05-01T04:48:26Z</time></trkpt><trkpt lat="46.028857438877104" lon="12.034135608562954"><ele>591.0</ele><time>2026-05-01T04:48:27Z</time></trkpt><trkpt lat="46.02885392307208" lon="12.033926649471008"><ele>591.3333333333334</ele><time>2026-05-01T04:48:28Z</time></trkpt><trkpt lat="46.02883380331178" lon="12.033713548827611"><ele>591.6666666666667</ele><time>2026-05-01T04:48:29Z</time></trkpt><trkpt lat="46.02882091773138" lon="12.03349525643094"><ele>592.0</ele><time>2026-05-01T04:48:30Z</time></trkpt><trkpt lat="46.02879298619237" lon="12.033282342072471"><ele>592.0</ele><time>2026-05-01T04:48:31Z</time></trkpt><trkpt lat="46.028756718037094" lon="12.033066617677951"><ele>592.0</ele><time>2026-05-01T04:48:32Z</time></trkpt><trkpt lat="46.02871940803034" lon="12.032852029711524"><ele>592.0</ele><time>2026-05-01T04:48:33Z</time></trkpt><trkpt lat="46.028687119421896" lon="12.032639920281396"><ele>592.3333333333334</ele><time>2026-05-01T04:48:34Z</time></trkpt><trkpt lat="46.02864117214867" lon="12.032426826754374"><ele>592.6666666666666</ele><time>2026-05-01T04:48:35Z</time></trkpt><trkpt lat="46.02862281814587" lon="12.032209483175793"><ele>593.0</ele><time>2026-05-01T04:48:36Z</time></trkpt><trkpt lat="46.02862146010889" lon="12.03200182428785"><ele>593.0</ele><time>2026-05-01T04:48:37Z</time></trkpt><trkpt lat="46.02864820165805" lon="12.031802778867998"><ele>593.0</ele><time>2026-05-01T04:48:38Z</time></trkpt><trkpt lat="46.028639754804566" lon="12.03160866041683"><ele>593.0</ele><time>2026-05-01T04:48:39Z</time></trkpt><trkpt lat="46.0286403667598" lon="12.03141943464019"><ele>593.0</ele><time>2026-05-01T04:48:40Z</time></trkpt><trkpt lat="46.02863244541072" lon="12.031231207522636"><ele>592.25</ele><time>2026-05-01T04:48:41Z</time></trkpt><trkpt lat="46.028620266762616" lon="12.03104345795446"><ele>591.5</ele><time>2026-05-01T04:48:42Z</time></trkpt><trkpt lat="46.02860370617051" lon="12.030857769691115"><ele>590.75</ele><time>2026-05-01T04:48:43Z</time></trkpt><trkpt lat="46.02857955924209" lon="12.03067447448415"><ele>590.0</ele><time>2026-05-01T04:48:44Z</time></trkpt><trkpt lat="46.02855004180837" lon="12.030491006377643"><ele>590.0</ele><time>2026-05-01T04:48:45Z</time></trkpt><trkpt lat="46.02851864321998" lon="12.030307390205326"><ele>590.0</ele><time>2026-05-01T04:48:46Z</time></trkpt><trkpt lat="46.02848700659482" lon="12.03012441792717"><ele>590.0</ele><time>2026-05-01T04:48:47Z</time></trkpt><trkpt lat="46.02845346733468" lon="12.02995039537611"><ele>590.0</ele><time>2026-05-01T04:48:48Z</time></trkpt><trkpt lat="46.028422593012316" lon="12.029778297554847"><ele>590.0</ele><time>2026-05-01T04:48:49Z</time></trkpt><trkpt lat="46.02839189078074" lon="12.02960949601543"><ele>590.0</ele><time>2026-05-01T04:48:50Z</time></trkpt><trkpt lat="46.02835917180739" lon="12.029446133199302"><ele>590.0</ele><time>2026-05-01T04:48:51Z</time></trkpt><trkpt lat="46.02832166327751" lon="12.029286505136719"><ele>590.0</ele><time>2026-05-01T04:48:52Z</time></trkpt><trkpt lat="46.02828304864211" lon="12.029128977039086"><ele>593.0</ele><time>2026-05-01T04:48:53Z</time></trkpt><trkpt lat="46.02823963997355" lon="12.02896895187476"><ele>596.0</ele><time>2026-05-01T04:48:54Z</time></trkpt><trkpt lat="46.02818544533696" lon="12.02881283161879"><ele>599.0</ele><time>2026-05-01T04:48:55Z</time></trkpt><trkpt lat="46.02812262852575" lon="12.028658175294561"><ele>602.0</ele><time>2026-05-01T04:48:56Z</time></trkpt><trkpt lat="46.02805527268172" lon="12.028505038323411"><ele>602.0</ele><time>2026-05-01T04:48:57Z</time></trkpt><trkpt lat="46.02798858884716" lon="12.028363930817015"><ele>602.0</ele><time>2026-05-01T04:48:58Z</time></trkpt><trkpt lat="46.027928366524954" lon="12.028230378540032"><ele>602.0</ele><time>2026-05-01T04:48:59Z</time></trkpt><trkpt lat="46.02787323231498" lon="12.028104030173928"><ele>602.0</ele><time>2026-05-01T04:49:00Z</time></trkpt><trkpt lat="46.02783659774447" lon="12.027963657731654"><ele>602.0</ele><time>2026-05-01T04:49:01Z</time></trkpt><trkpt lat="46.02781370123763" lon="12.027835937391407"><ele>599.75</ele><time>2026-05-01T04:49:02Z</time></trkpt><trkpt lat="46.02779555745592" lon="12.027670493688385"><ele>597.5</ele><time>2026-05-01T04:49:03Z</time></trkpt><trkpt lat="46.0277446194194" lon="12.027553443942208"><ele>595.25</ele><time>2026-05-01T04:49:04Z</time></trkpt><trkpt lat="46.02761307816929" lon="12.027503488225719"><ele>593.0</ele><time>2026-05-01T04:49:05Z</time></trkpt><trkpt lat="46.02755644829493" lon="12.027382248709145"><ele>591.8</ele><time>2026-05-01T04:49:06Z</time></trkpt><trkpt lat="46.02750378039761" lon="12.027257373360621"><ele>590.5999999999999</ele><time>2026-05-01T04:49:07Z</time></trkpt><trkpt lat="46.027455759794286" lon="12.027119712810544"><ele>589.4000000000001</ele><time>2026-05-01T04:49:08Z</time></trkpt><trkpt lat="46.027416368108554" lon="12.026974363007495"><ele>588.2</ele><time>2026-05-01T04:49:09Z</time></trkpt><trkpt lat="46.027384189621706" lon="12.026833604581691"><ele>587.0</ele><time>2026-05-01T04:49:10Z</time></trkpt><trkpt lat="46.027354825790226" lon="12.026697162221309"><ele>590.6666666666666</ele><time>2026-05-01T04:49:11Z</time></trkpt><trkpt lat="46.02732107677072" lon="12.026569835408123"><ele>594.3333333333333</ele><time>2026-05-01T04:49:12Z</time></trkpt><trkpt lat="46.02728817690867" lon="12.026448965599407"><ele>598.0</ele><time>2026-05-01T04:49:13Z</time></trkpt><trkpt lat="46.027256525273955" lon="12.02633635053383"><ele>601.6666666666666</ele><time>2026-05-01T04:49:14Z</time></trkpt><trkpt lat="46.02724437874691" lon="12.026216586410843"><ele>605.3333333333334</ele><time>2026-05-01T04:49:15Z</time></trkpt><trkpt lat="46.02725194647902" lon="12.02610829119943"><ele>609.0</ele><time>2026-05-01T04:49:16Z</time></trkpt><trkpt lat="46.027280200571" lon="12.02599353991377"><ele>609.0</ele><time>2026-05-01T04:49:17Z</time></trkpt><trkpt lat="46.02731635701659" lon="12.025877961911663"><ele>609.0</ele><time>2026-05-01T04:49:18Z</time></trkpt><trkpt lat="46.02735056735375" lon="12.025765622059883"><ele>609.0</ele><time>2026-05-01T04:49:19Z</time></trkpt><trkpt lat="46.027374336283735" lon="12.025644644601797"><ele>609.0</ele><time>2026-05-01T04:49:20Z</time></trkpt><trkpt lat="46.02738548631808" lon="12.025517338870598"><ele>609.0</ele><time>2026-05-01T04:49:21Z</time></trkpt><trkpt lat="46.02739391904033" lon="12.025383824158949"><ele>609.0</ele><time>2026-05-01T04:49:22Z</time></trkpt><trkpt lat="46.02740022910356" lon="12.025253715080105"><ele>607.3333333333334</ele><time>2026-05-01T04:49:23Z</time></trkpt><trkpt lat="46.02740319936809" lon="12.025141335013881"><ele>605.6666666666666</ele><time>2026-05-01T04:49:24Z</time></trkpt><trkpt lat="46.02741905954151" lon="12.02498297756677"><ele>604.0</ele><time>2026-05-01T04:49:26Z</time></trkpt><trkpt lat="46.02749260283538" lon="12.024887465309368"><ele>602.3333333333333</ele><time>2026-05-01T04:49:28Z</time></trkpt><trkpt lat="46.02756142424344" lon="12.024887799991715"><ele>600.6666666666666</ele><time>2026-05-01T04:49:29Z</time></trkpt><trkpt lat="46.02763874746265" lon="12.024877172643675"><ele>599.0</ele><time>2026-05-01T04:49:30Z</time></trkpt><trkpt lat="46.02771420569418" lon="12.024849883273593"><ele>593.0</ele><time>2026-05-01T04:49:31Z</time></trkpt><trkpt lat="46.02779279785112" lon="12.024832322915696"><ele>587.0</ele><time>2026-05-01T04:49:32Z</time></trkpt><trkpt lat="46.02786930458956" lon="12.024805634941258"><ele>581.0</ele><time>2026-05-01T04:49:33Z</time></trkpt><trkpt lat="46.02792465470683" lon="12.024752934942837"><ele>575.0</ele><time>2026-05-01T04:49:34Z</time></trkpt><trkpt lat="46.02799034881966" lon="12.02468474502593"><ele>569.0</ele><time>2026-05-01T04:49:35Z</time></trkpt><trkpt lat="46.02805700254346" lon="12.02461526743136"><ele>563.0</ele><time>2026-05-01T04:49:36Z</time></trkpt><trkpt lat="46.02812213958063" lon="12.024546208339595"><ele>563.0</ele><time>2026-05-01T04:49:37Z</time></trkpt><trkpt lat="46.02819398100529" lon="12.024503218404547"><ele>563.0</ele><time>2026-05-01T04:49:38Z</time></trkpt><trkpt lat="46.02824168448234" lon="12.02442922468136"><ele>563.0</ele><time>2026-05-01T04:49:39Z</time></trkpt><trkpt lat="46.02836478715234" lon="12.024351494875992"><ele>563.0</ele><time>2026-05-01T04:49:41Z</time></trkpt><trkpt lat="46.028431828702" lon="12.024332270147777"><ele>563.0</ele><time>2026-05-01T04:49:42Z</time></trkpt><trkpt lat="46.028503195062356" lon="12.02431319078745"><ele>563.0</ele><time>2026-05-01T04:49:43Z</time></trkpt><trkpt lat="46.02857413925619" lon="12.024290846261472"><ele>561.3333333333333</ele><time>2026-05-01T04:49:44Z</time></trkpt><trkpt lat="46.02865741134416" lon="12.024280904169153"><ele>559.6666666666666</ele><time>2026-05-01T04:49:45Z</time></trkpt><trkpt lat="46.02874168651911" lon="12.024257444672068"><ele>558.0</ele><time>2026-05-01T04:49:46Z</time></trkpt><trkpt lat="46.02882752471125" lon="12.024267544528767"><ele>556.3333333333334</ele><time>2026-05-01T04:49:47Z</time></trkpt><trkpt lat="46.02891614227487" lon="12.024271250124324"><ele>554.6666666666667</ele><time>2026-05-01T04:49:48Z</time></trkpt><trkpt lat="46.02899889986715" lon="12.024264849404885"><ele>553.0</ele><time>2026-05-01T04:49:49Z</time></trkpt><trkpt lat="46.029078613141394" lon="12.024262476651108"><ele>551.6666666666667</ele><time>2026-05-01T04:49:50Z</time></trkpt><trkpt lat="46.02915480856862" lon="12.024255710780402"><ele>550.3333333333334</ele><time>2026-05-01T04:49:51Z</time></trkpt><trkpt lat="46.02922189568374" lon="12.024246919053342"><ele>549.0</ele><time>2026-05-01T04:49:52Z</time></trkpt><trkpt lat="46.02928805250465" lon="12.024241823013964"><ele>547.6666666666666</ele><time>2026-05-01T04:49:53Z</time></trkpt><trkpt lat="46.029354762238846" lon="12.024260419089348"><ele>546.3333333333333</ele><time>2026-05-01T04:49:54Z</time></trkpt><trkpt lat="46.02941941717587" lon="12.024264913842984"><ele>545.0</ele><time>2026-05-01T04:49:55Z</time></trkpt><trkpt lat="46.029537853893295" lon="12.024273147466015"><ele>545.0</ele><time>2026-05-01T04:49:57Z</time></trkpt><trkpt lat="46.02964215509511" lon="12.024280398404889"><ele>545.0</ele><time>2026-05-01T04:49:59Z</time></trkpt><trkpt lat="46.02969555662881" lon="12.024038314030188"><ele>545.0</ele><time>2026-05-01T04:50:00Z</time></trkpt><trkpt lat="46.02980164890409" lon="12.024012440614658"><ele>545.0</ele><time>2026-05-01T04:50:02Z</time></trkpt><trkpt lat="46.029915249026665" lon="12.024015240840665"><ele>539.6</ele><time>2026-05-01T04:50:04Z</time></trkpt><trkpt lat="46.030013739715294" lon="12.024009956438888"><ele>534.2</ele><time>2026-05-01T04:50:06Z</time></trkpt><trkpt lat="46.03013519917523" lon="12.024001758571568"><ele>528.8</ele><time>2026-05-01T04:50:08Z</time></trkpt><trkpt lat="46.03021738686114" lon="12.023998628348496"><ele>523.4</ele><time>2026-05-01T04:50:09Z</time></trkpt><trkpt lat="46.030321730730265" lon="12.023985761138613"><ele>518.0</ele><time>2026-05-01T04:50:11Z</time></trkpt><trkpt lat="46.03038522933787" lon="12.023988048535895"><ele>518.0</ele><time>2026-05-01T04:50:12Z</time></trkpt><trkpt lat="46.030464621020485" lon="12.023993483769653"><ele>518.0</ele><time>2026-05-01T04:50:13Z</time></trkpt><trkpt lat="46.03054539112469" lon="12.023962094963139"><ele>518.0</ele><time>2026-05-01T04:50:14Z</time></trkpt><trkpt lat="46.03061255166688" lon="12.023961395903859"><ele>518.0</ele><time>2026-05-01T04:50:15Z</time></trkpt><trkpt lat="46.03067842527689" lon="12.023955528114117"><ele>518.0</ele><time>2026-05-01T04:50:16Z</time></trkpt><trkpt lat="46.030782873008796" lon="12.023918937344641"><ele>518.0</ele><time>2026-05-01T04:50:18Z</time></trkpt><trkpt lat="46.03084808615267" lon="12.02390147304112"><ele>514.6</ele><time>2026-05-01T04:50:19Z</time></trkpt><trkpt lat="46.03092811426171" lon="12.023886770466685"><ele>511.19999999999993</ele><time>2026-05-01T04:50:20Z</time></trkpt><trkpt lat="46.03100071379669" lon="12.023864877909382"><ele>507.8</ele><time>2026-05-01T04:50:21Z</time></trkpt><trkpt lat="46.031069075923" lon="12.023843898390655"><ele>504.4</ele><time>2026-05-01T04:50:22Z</time></trkpt><trkpt lat="46.03118727331741" lon="12.023818365601006"><ele>501.0</ele><time>2026-05-01T04:50:24Z</time></trkpt><trkpt lat="46.03130943043644" lon="12.023824218373917"><ele>501.0</ele><time>2026-05-01T04:50:25.999Z</time></trkpt><trkpt lat="46.03142425994439" lon="12.02388348475268"><ele>501.0</ele><time>2026-05-01T04:50:27.999Z</time></trkpt><trkpt lat="46.03153787844498" lon="12.02396512043169"><ele>501.0</ele><time>2026-05-01T04:50:29.999Z</time></trkpt><trkpt lat="46.0316000179697" lon="12.024016453676268"><ele>501.0</ele><time>2026-05-01T04:50:30.999Z</time></trkpt><trkpt lat="46.031677620427615" lon="12.024062435754201"><ele>501.0</ele><time>2026-05-01T04:50:32Z</time></trkpt><trkpt lat="46.031771785516426" lon="12.02410248514356"><ele>500.0</ele><time>2026-05-01T04:50:33Z</time></trkpt><trkpt lat="46.03184962251747" lon="12.024160173109719"><ele>499.0</ele><time>2026-05-01T04:50:34Z</time></trkpt><trkpt lat="46.03191478036113" lon="12.02422758426294"><ele>498.0</ele><time>2026-05-01T04:50:35Z</time></trkpt><trkpt lat="46.03198787067426" lon="12.024309407057974"><ele>497.0</ele><time>2026-05-01T04:50:36Z</time></trkpt><trkpt lat="46.032056813124434" lon="12.024398271271524"><ele>496.0</ele><time>2026-05-01T04:50:37Z</time></trkpt><trkpt lat="46.03211727015678" lon="12.024480667469136"><ele>495.0</ele><time>2026-05-01T04:50:38Z</time></trkpt><trkpt lat="46.03216756823241" lon="12.024565573439805"><ele>495.0</ele><time>2026-05-01T04:50:39Z</time></trkpt><trkpt lat="46.03223301915176" lon="12.024645525271199"><ele>495.0</ele><time>2026-05-01T04:50:40Z</time></trkpt><trkpt lat="46.03230431145868" lon="12.02472412680298"><ele>495.0</ele><time>2026-05-01T04:50:41Z</time></trkpt><trkpt lat="46.032450644034476" lon="12.024662430701104"><ele>495.0</ele><time>2026-05-01T04:50:42Z</time></trkpt><trkpt lat="46.03252326751642" lon="12.024766513773276"><ele>495.0</ele><time>2026-05-01T04:50:44Z</time></trkpt><trkpt lat="46.032588117172445" lon="12.024822316768304"><ele>495.0</ele><time>2026-05-01T04:50:47Z</time></trkpt><trkpt lat="46.0325255904245" lon="12.02473985666106"><ele>495.0</ele><time>2026-05-01T04:50:55Z</time></trkpt><trkpt lat="46.03232671177579" lon="12.024716710983062"><ele>495.0</ele><time>2026-05-01T04:50:57Z</time></trkpt><trkpt lat="46.03218530315691" lon="12.024507523328092"><ele>495.0</ele><time>2026-05-01T04:50:58Z</time></trkpt><trkpt lat="46.03210034573327" lon="12.024389075514321"><ele>495.0</ele><time>2026-05-01T04:50:59Z</time></trkpt><trkpt lat="46.03203509118919" lon="12.024295917329443"><ele>495.0</ele><time>2026-05-01T04:51:00Z</time></trkpt><trkpt lat="46.031982854896135" lon="12.024230123480635"><ele>495.0</ele><time>2026-05-01T04:51:01Z</time></trkpt><trkpt lat="46.03192159091837" lon="12.024160134548366"><ele>495.0</ele><time>2026-05-01T04:51:02Z</time></trkpt><trkpt lat="46.03185290407738" lon="12.0240826214024"><ele>495.0</ele><time>2026-05-01T04:51:03Z</time></trkpt><trkpt lat="46.031858001428716" lon="12.023567707065629"><ele>490.25</ele><time>2026-05-01T04:51:05Z</time></trkpt><trkpt lat="46.03177361080845" lon="12.023465071947498"><ele>485.5</ele><time>2026-05-01T04:51:06Z</time></trkpt><trkpt lat="46.03169430713698" lon="12.02332864937186"><ele>480.75</ele><time>2026-05-01T04:51:07Z</time></trkpt><trkpt lat="46.0316286346722" lon="12.023155057082679"><ele>476.0</ele><time>2026-05-01T04:51:08Z</time></trkpt><trkpt lat="46.03152713960132" lon="12.023035518415277"><ele>476.0</ele><time>2026-05-01T04:51:09Z</time></trkpt><trkpt lat="46.031443164416935" lon="12.02294411553679"><ele>476.0</ele><time>2026-05-01T04:51:10Z</time></trkpt><trkpt lat="46.031350058664835" lon="12.02287832965596"><ele>476.0</ele><time>2026-05-01T04:51:11Z</time></trkpt><trkpt lat="46.031264478018336" lon="12.02276902182965"><ele>476.0</ele><time>2026-05-01T04:51:12Z</time></trkpt><trkpt lat="46.03117163844168" lon="12.02268966248214"><ele>476.0</ele><time>2026-05-01T04:51:13Z</time></trkpt><trkpt lat="46.03108605238847" lon="12.022618564560952"><ele>476.0</ele><time>2026-05-01T04:51:14Z</time></trkpt><trkpt lat="46.03100373905542" lon="12.022560940082705"><ele>476.0</ele><time>2026-05-01T04:51:15Z</time></trkpt><trkpt lat="46.03091129603924" lon="12.022537689395534"><ele>476.0</ele><time>2026-05-01T04:51:16Z</time></trkpt><trkpt lat="46.03081843689116" lon="12.022512313787166"><ele>476.0</ele><time>2026-05-01T04:51:17Z</time></trkpt><trkpt lat="46.03071474926672" lon="12.022524644672297"><ele>476.0</ele><time>2026-05-01T04:51:18Z</time></trkpt><trkpt lat="46.03060224435199" lon="12.022547224870001"><ele>480.6</ele><time>2026-05-01T04:51:19Z</time></trkpt><trkpt lat="46.030487436627844" lon="12.022585344267892"><ele>485.20000000000005</ele><time>2026-05-01T04:51:20Z</time></trkpt><trkpt lat="46.03038309423005" lon="12.022597119474506"><ele>489.79999999999995</ele><time>2026-05-01T04:51:21Z</time></trkpt><trkpt lat="46.03030086966802" lon="12.022617122271154"><ele>494.4</ele><time>2026-05-01T04:51:22Z</time></trkpt><trkpt lat="46.03022373270656" lon="12.022612495383873"><ele>499.0</ele><time>2026-05-01T04:51:23Z</time></trkpt><trkpt lat="46.030162178521344" lon="12.02257212619162"><ele>499.0</ele><time>2026-05-01T04:51:24Z</time></trkpt><trkpt lat="46.03010637041077" lon="12.022492321640065"><ele>499.0</ele><time>2026-05-01T04:51:25Z</time></trkpt><trkpt lat="46.03006972787471" lon="12.022373260494204"><ele>499.0</ele><time>2026-05-01T04:51:26Z</time></trkpt><trkpt lat="46.03005932482274" lon="12.022255916735157"><ele>499.0</ele><time>2026-05-01T04:51:27Z</time></trkpt><trkpt lat="46.03005142904174" lon="12.022086696182535"><ele>499.0</ele><time>2026-05-01T04:51:28Z</time></trkpt><trkpt lat="46.030043928128016" lon="12.021898003673249"><ele>500.0</ele><time>2026-05-01T04:51:29Z</time></trkpt><trkpt lat="46.03002590170089" lon="12.021765089407575"><ele>501.0</ele><time>2026-05-01T04:51:30Z</time></trkpt><trkpt lat="46.030009710066665" lon="12.021643266545718"><ele>502.0</ele><time>2026-05-01T04:51:31Z</time></trkpt><trkpt lat="46.02997660054367" lon="12.02153010390455"><ele>503.0</ele><time>2026-05-01T04:51:32Z</time></trkpt><trkpt lat="46.02992073446214" lon="12.021420725098766"><ele>504.0</ele><time>2026-05-01T04:51:33Z</time></trkpt><trkpt lat="46.029832830717666" lon="12.021342254347429"><ele>504.0</ele><time>2026-05-01T04:51:34Z</time></trkpt><trkpt lat="46.029744620386055" lon="12.021258741398798"><ele>504.0</ele><time>2026-05-01T04:51:35Z</time></trkpt><trkpt lat="46.02966799704368" lon="12.021134543853755"><ele>504.0</ele><time>2026-05-01T04:51:36Z</time></trkpt><trkpt lat="46.029604106523934" lon="12.020999076105511"><ele>504.0</ele><time>2026-05-01T04:51:37Z</time></trkpt><trkpt lat="46.02955240966231" lon="12.020871237680804"><ele>504.0</ele><time>2026-05-01T04:51:38Z</time></trkpt><trkpt lat="46.029494690785995" lon="12.020758444723917"><ele>501.4</ele><time>2026-05-01T04:51:39Z</time></trkpt><trkpt lat="46.02941456494267" lon="12.020661871046048"><ele>498.79999999999995</ele><time>2026-05-01T04:51:40Z</time></trkpt><trkpt lat="46.02933514517129" lon="12.020581433214389"><ele>496.20000000000005</ele><time>2026-05-01T04:51:41Z</time></trkpt><trkpt lat="46.029306030048026" lon="12.020455020163485"><ele>493.6</ele><time>2026-05-01T04:51:42Z</time></trkpt><trkpt lat="46.0292704435083" lon="12.020318944270214"><ele>491.0</ele><time>2026-05-01T04:51:43Z</time></trkpt><trkpt lat="46.02925252280183" lon="12.020158892194743"><ele>491.0</ele><time>2026-05-01T04:51:44Z</time></trkpt><trkpt lat="46.029226350742356" lon="12.02002441735825"><ele>491.0</ele><time>2026-05-01T04:51:45Z</time></trkpt><trkpt lat="46.02919039931576" lon="12.019890714876617"><ele>491.0</ele><time>2026-05-01T04:51:46Z</time></trkpt><trkpt lat="46.02913838987006" lon="12.019759455370142"><ele>491.0</ele><time>2026-05-01T04:51:47Z</time></trkpt><trkpt lat="46.029088925793715" lon="12.019616295442654"><ele>491.0</ele><time>2026-05-01T04:51:48Z</time></trkpt><trkpt lat="46.02904222934179" lon="12.019470056702463"><ele>496.5</ele><time>2026-05-01T04:51:49Z</time></trkpt><trkpt lat="46.02901226053262" lon="12.019323207882668"><ele>502.0</ele><time>2026-05-01T04:51:50Z</time></trkpt><trkpt lat="46.028994121174144" lon="12.019153277089215"><ele>507.5</ele><time>2026-05-01T04:51:51Z</time></trkpt><trkpt lat="46.02898361323662" lon="12.018976388148364"><ele>513.0</ele><time>2026-05-01T04:51:52Z</time></trkpt><trkpt lat="46.028967317761065" lon="12.018802516424895"><ele>513.0</ele><time>2026-05-01T04:51:53Z</time></trkpt><trkpt lat="46.02894525948777" lon="12.018622762857857"><ele>513.0</ele><time>2026-05-01T04:51:54Z</time></trkpt><trkpt lat="46.028930957284665" lon="12.018446846245618"><ele>513.0</ele><time>2026-05-01T04:51:55Z</time></trkpt><trkpt lat="46.02892045103872" lon="12.01826924550399"><ele>513.0</ele><time>2026-05-01T04:51:56Z</time></trkpt><trkpt lat="46.02890021387369" lon="12.018110787848498"><ele>512.6</ele><time>2026-05-01T04:51:57Z</time></trkpt><trkpt lat="46.02887877542346" lon="12.017968556072011"><ele>512.1999999999999</ele><time>2026-05-01T04:51:58Z</time></trkpt><trkpt lat="46.028850977082485" lon="12.017809379755045"><ele>511.8</ele><time>2026-05-01T04:51:59Z</time></trkpt><trkpt lat="46.02881920929169" lon="12.017656120861503"><ele>511.4</ele><time>2026-05-01T04:52:00Z</time></trkpt><trkpt lat="46.02878828552502" lon="12.017505238296794"><ele>511.0</ele><time>2026-05-01T04:52:01Z</time></trkpt><trkpt lat="46.02875164914798" lon="12.017350882440661"><ele>507.75</ele><time>2026-05-01T04:52:02Z</time></trkpt><trkpt lat="46.028708172475866" lon="12.01718623177507"><ele>504.5</ele><time>2026-05-01T04:52:03Z</time></trkpt><trkpt lat="46.028657045917996" lon="12.01700411485682"><ele>501.25</ele><time>2026-05-01T04:52:04Z</time></trkpt><trkpt lat="46.02860324729423" lon="12.016815144118572"><ele>498.0</ele><time>2026-05-01T04:52:05Z</time></trkpt><trkpt lat="46.02854711381276" lon="12.016612978364657"><ele>495.75</ele><time>2026-05-01T04:52:06Z</time></trkpt><trkpt lat="46.02849488515645" lon="12.01640887671965"><ele>493.5</ele><time>2026-05-01T04:52:07Z</time></trkpt><trkpt lat="46.028444659421055" lon="12.01621074524605"><ele>491.25</ele><time>2026-05-01T04:52:08Z</time></trkpt><trkpt lat="46.02839807933402" lon="12.016017214532535"><ele>489.0</ele><time>2026-05-01T04:52:08.999Z</time></trkpt><trkpt lat="46.028362564292244" lon="12.015825754347205"><ele>487.5</ele><time>2026-05-01T04:52:09.999Z</time></trkpt><trkpt lat="46.028336774594834" lon="12.015638732543886"><ele>486.0</ele><time>2026-05-01T04:52:10.999Z</time></trkpt><trkpt lat="46.02831992334795" lon="12.015455944085188"><ele>484.5</ele><time>2026-05-01T04:52:11.999Z</time></trkpt><trkpt lat="46.028304894218394" lon="12.015279411885235"><ele>483.0</ele><time>2026-05-01T04:52:12.999Z</time></trkpt><trkpt lat="46.02828928106116" lon="12.01510955355808"><ele>485.75</ele><time>2026-05-01T04:52:13.999Z</time></trkpt><trkpt lat="46.0282679938842" lon="12.014943297614744"><ele>488.5</ele><time>2026-05-01T04:52:14.999Z</time></trkpt><trkpt lat="46.028238117595286" lon="12.014783191882866"><ele>491.25</ele><time>2026-05-01T04:52:15.999Z</time></trkpt><trkpt lat="46.028205818247216" lon="12.014627777959337"><ele>494.0</ele><time>2026-05-01T04:52:16.999Z</time></trkpt><trkpt lat="46.028167228660735" lon="12.014484882544364"><ele>494.0</ele><time>2026-05-01T04:52:17.999Z</time></trkpt><trkpt lat="46.02812769517162" lon="12.014341674546928"><ele>494.0</ele><time>2026-05-01T04:52:18.999Z</time></trkpt><trkpt lat="46.02809063549938" lon="12.014203375546266"><ele>494.0</ele><time>2026-05-01T04:52:19.999Z</time></trkpt><trkpt lat="46.02805468017887" lon="12.014072579521153"><ele>494.0</ele><time>2026-05-01T04:52:20.999Z</time></trkpt><trkpt lat="46.02801544749337" lon="12.013947462546325"><ele>494.0</ele><time>2026-05-01T04:52:21.999Z</time></trkpt><trkpt lat="46.02795327821117" lon="12.013845629791673"><ele>491.4</ele><time>2026-05-01T04:52:22.999Z</time></trkpt><trkpt lat="46.02787245148877" lon="12.013757468482822"><ele>488.79999999999995</ele><time>2026-05-01T04:52:23.999Z</time></trkpt><trkpt lat="46.02777097116699" lon="12.013687481551173"><ele>486.20000000000005</ele><time>2026-05-01T04:52:24.999Z</time></trkpt><trkpt lat="46.02766944938163" lon="12.013623883815633"><ele>483.6</ele><time>2026-05-01T04:52:25.999Z</time></trkpt><trkpt lat="46.027572168648845" lon="12.013555281971197"><ele>481.0</ele><time>2026-05-01T04:52:26.999Z</time></trkpt><trkpt lat="46.0274742438498" lon="12.013483192843678"><ele>481.0</ele><time>2026-05-01T04:52:27.999Z</time></trkpt><trkpt lat="46.02737463529825" lon="12.013404976378148"><ele>481.0</ele><time>2026-05-01T04:52:28.999Z</time></trkpt><trkpt lat="46.02727353195644" lon="12.013331944255379"><ele>481.0</ele><time>2026-05-01T04:52:29.999Z</time></trkpt><trkpt lat="46.02716957947059" lon="12.013259312480566"><ele>481.0</ele><time>2026-05-01T04:52:30.999Z</time></trkpt><trkpt lat="46.027065948046946" lon="12.013180573029224"><ele>476.83333333333337</ele><time>2026-05-01T04:52:31.999Z</time></trkpt><trkpt lat="46.026969842509715" lon="12.013089983422892"><ele>472.6666666666667</ele><time>2026-05-01T04:52:32.999Z</time></trkpt><trkpt lat="46.02689081110173" lon="12.013020690990722"><ele>468.5</ele><time>2026-05-01T04:52:33.999Z</time></trkpt><trkpt lat="46.026823418739326" lon="12.012951102988513"><ele>464.33333333333337</ele><time>2026-05-01T04:52:34.999Z</time></trkpt><trkpt lat="46.026760243002784" lon="12.012905674171611"><ele>460.1666666666667</ele><time>2026-05-01T04:52:35.999Z</time></trkpt><trkpt lat="46.026679134055314" lon="12.012895857511543"><ele>456.0</ele><time>2026-05-01T04:52:36.999Z</time></trkpt><trkpt lat="46.026593879478206" lon="12.012925670117584"><ele>456.0</ele><time>2026-05-01T04:52:38Z</time></trkpt><trkpt lat="46.026503533661185" lon="12.012918105179278"><ele>456.0</ele><time>2026-05-01T04:52:39Z</time></trkpt><trkpt lat="46.02641715481151" lon="12.012941355956865"><ele>456.0</ele><time>2026-05-01T04:52:40Z</time></trkpt><trkpt lat="46.02632334448818" lon="12.012947225373829"><ele>456.0</ele><time>2026-05-01T04:52:41Z</time></trkpt><trkpt lat="46.02623688294789" lon="12.012897075817143"><ele>456.0</ele><time>2026-05-01T04:52:42Z</time></trkpt><trkpt lat="46.02615036610307" lon="12.012822514265194"><ele>456.0</ele><time>2026-05-01T04:52:43Z</time></trkpt><trkpt lat="46.02609884635655" lon="12.012728550891332"><ele>456.0</ele><time>2026-05-01T04:52:44Z</time></trkpt><trkpt lat="46.02605773512807" lon="12.012632500974375"><ele>456.0</ele><time>2026-05-01T04:52:45Z</time></trkpt><trkpt lat="46.02600468606553" lon="12.012553317058677"><ele>456.0</ele><time>2026-05-01T04:52:46Z</time></trkpt><trkpt lat="46.025883310326414" lon="12.01246551934043"><ele>456.0</ele><time>2026-05-01T04:52:48Z</time></trkpt><trkpt lat="46.02580784205498" lon="12.012544699921886"><ele>458.8333333333333</ele><time>2026-05-01T04:52:50Z</time></trkpt><trkpt lat="46.02575051527648" lon="12.0126589993665"><ele>461.66666666666663</ele><time>2026-05-01T04:52:52Z</time></trkpt><trkpt lat="46.025698839192344" lon="12.012724256327392"><ele>464.5</ele><time>2026-05-01T04:52:53Z</time></trkpt><trkpt lat="46.025638654988946" lon="12.012763689941147"><ele>467.3333333333333</ele><time>2026-05-01T04:52:54Z</time></trkpt><trkpt lat="46.025573910269735" lon="12.012809876754183"><ele>470.16666666666663</ele><time>2026-05-01T04:52:55Z</time></trkpt><trkpt lat="46.02550418991348" lon="12.012819431788897"><ele>473.0</ele><time>2026-05-01T04:52:56Z</time></trkpt><trkpt lat="46.025417986261836" lon="12.012799723773908"><ele>473.0</ele><time>2026-05-01T04:52:57Z</time></trkpt><trkpt lat="46.025294493035375" lon="12.012757583023493"><ele>472.99999999999994</ele><time>2026-05-01T04:52:58Z</time></trkpt><trkpt lat="46.025173269040295" lon="12.012721981774096"><ele>472.99999999999994</ele><time>2026-05-01T04:52:59Z</time></trkpt><trkpt lat="46.025085394088435" lon="12.012671362314112"><ele>473.0</ele><time>2026-05-01T04:53:00Z</time></trkpt><trkpt lat="46.02500234018561" lon="12.012615440834598"><ele>473.0</ele><time>2026-05-01T04:53:01Z</time></trkpt><trkpt lat="46.024948026296656" lon="12.012496048932475"><ele>476.25</ele><time>2026-05-01T04:53:02Z</time></trkpt><trkpt lat="46.024909016861486" lon="12.01233334717479"><ele>479.5</ele><time>2026-05-01T04:53:03Z</time></trkpt><trkpt lat="46.02492768403559" lon="12.012182292427521"><ele>482.75</ele><time>2026-05-01T04:53:04Z</time></trkpt><trkpt lat="46.02493873626051" lon="12.012003678293924"><ele>486.0</ele><time>2026-05-01T04:53:05Z</time></trkpt><trkpt lat="46.024942996329095" lon="12.011855799307027"><ele>486.0</ele><time>2026-05-01T04:53:06Z</time></trkpt><trkpt lat="46.024925888671504" lon="12.011707475776946"><ele>486.0</ele><time>2026-05-01T04:53:07Z</time></trkpt><trkpt lat="46.024875522569936" lon="12.011527289270056"><ele>486.0</ele><time>2026-05-01T04:53:08Z</time></trkpt><trkpt lat="46.02480944873068" lon="12.011298211222476"><ele>486.0</ele><time>2026-05-01T04:53:09Z</time></trkpt><trkpt lat="46.02476660097944" lon="12.011139088648447"><ele>484.3333333333333</ele><time>2026-05-01T04:53:10Z</time></trkpt><trkpt lat="46.024733535200674" lon="12.011024211887317"><ele>482.66666666666663</ele><time>2026-05-01T04:53:11Z</time></trkpt><trkpt lat="46.02468293864331" lon="12.010924984725424"><ele>481.0</ele><time>2026-05-01T04:53:12Z</time></trkpt><trkpt lat="46.02462691976929" lon="12.010873314012384"><ele>479.3333333333333</ele><time>2026-05-01T04:53:13Z</time></trkpt><trkpt lat="46.02453803356455" lon="12.010856689629708"><ele>477.66666666666663</ele><time>2026-05-01T04:53:14Z</time></trkpt><trkpt lat="46.02444476165227" lon="12.010866312264428"><ele>476.0</ele><time>2026-05-01T04:53:15Z</time></trkpt><trkpt lat="46.02434871000489" lon="12.010845038748501"><ele>476.0</ele><time>2026-05-01T04:53:16Z</time></trkpt><trkpt lat="46.02426232794205" lon="12.010838763011485"><ele>476.0</ele><time>2026-05-01T04:53:17Z</time></trkpt><trkpt lat="46.024175233299026" lon="12.010889606043209"><ele>476.0</ele><time>2026-05-01T04:53:18Z</time></trkpt><trkpt lat="46.02406951888527" lon="12.010985436002233"><ele>476.0</ele><time>2026-05-01T04:53:19Z</time></trkpt><trkpt lat="46.0239821097055" lon="12.011081437916419"><ele>476.0</ele><time>2026-05-01T04:53:20Z</time></trkpt><trkpt lat="46.02390892722625" lon="12.011138307154505"><ele>477.8</ele><time>2026-05-01T04:53:21Z</time></trkpt><trkpt lat="46.02383030939578" lon="12.011114618222152"><ele>479.6</ele><time>2026-05-01T04:53:22Z</time></trkpt><trkpt lat="46.02376344287709" lon="12.011058604127568"><ele>481.4</ele><time>2026-05-01T04:53:23Z</time></trkpt><trkpt lat="46.02370547098049" lon="12.010934567613532"><ele>483.2</ele><time>2026-05-01T04:53:24Z</time></trkpt><trkpt lat="46.02370327756115" lon="12.010792755104562"><ele>485.0</ele><time>2026-05-01T04:53:25Z</time></trkpt><trkpt lat="46.02372558678856" lon="12.010661377328583"><ele>484.99999999999994</ele><time>2026-05-01T04:53:26Z</time></trkpt><trkpt lat="46.02376306595952" lon="12.010533415644918"><ele>485.0</ele><time>2026-05-01T04:53:27Z</time></trkpt><trkpt lat="46.023789658449516" lon="12.010415808356914"><ele>485.0</ele><time>2026-05-01T04:53:28Z</time></trkpt><trkpt lat="46.02380710325033" lon="12.010322769063785"><ele>485.0</ele><time>2026-05-01T04:53:29Z</time></trkpt><trkpt lat="46.02376915890187" lon="12.010220029754638"><ele>484.99999999999994</ele><time>2026-05-01T04:53:30Z</time></trkpt><trkpt lat="46.02371372943615" lon="12.010111032659248"><ele>485.0</ele><time>2026-05-01T04:53:31Z</time></trkpt><trkpt lat="46.02362747258066" lon="12.01002593377586"><ele>484.0</ele><time>2026-05-01T04:53:32Z</time></trkpt><trkpt lat="46.023519699646016" lon="12.009939378629369"><ele>483.0</ele><time>2026-05-01T04:53:33Z</time></trkpt><trkpt lat="46.02338358736564" lon="12.009801740654904"><ele>482.0</ele><time>2026-05-01T04:53:34Z</time></trkpt><trkpt lat="46.02322709885628" lon="12.009626080155671"><ele>488.0</ele><time>2026-05-01T04:53:35Z</time></trkpt><trkpt lat="46.023128649028585" lon="12.009432674446236"><ele>494.0</ele><time>2026-05-01T04:53:36Z</time></trkpt><trkpt lat="46.023032529235465" lon="12.009278709381213"><ele>500.0</ele><time>2026-05-01T04:53:37Z</time></trkpt><trkpt lat="46.022957977960196" lon="12.009098189541787"><ele>500.0</ele><time>2026-05-01T04:53:38Z</time></trkpt><trkpt lat="46.022900173679446" lon="12.008910893389407"><ele>500.0</ele><time>2026-05-01T04:53:39Z</time></trkpt><trkpt lat="46.02288356306193" lon="12.0086984514841"><ele>500.0</ele><time>2026-05-01T04:53:40Z</time></trkpt><trkpt lat="46.022863838976356" lon="12.008482848718364"><ele>500.0</ele><time>2026-05-01T04:53:41Z</time></trkpt><trkpt lat="46.02282764649435" lon="12.00823484212626"><ele>501.66666666666663</ele><time>2026-05-01T04:53:42Z</time></trkpt><trkpt lat="46.022804797851805" lon="12.00793719343167"><ele>503.33333333333337</ele><time>2026-05-01T04:53:43Z</time></trkpt><trkpt lat="46.022791097468954" lon="12.007596921115605"><ele>505.0</ele><time>2026-05-01T04:53:44Z</time></trkpt><trkpt lat="46.02276996455327" lon="12.00731613463585"><ele>505.5</ele><time>2026-05-01T04:53:45Z</time></trkpt><trkpt lat="46.0227433591316" lon="12.007096426280977"><ele>506.0</ele><time>2026-05-01T04:53:46Z</time></trkpt><trkpt lat="46.02274343762616" lon="12.00690552556197"><ele>506.5</ele><time>2026-05-01T04:53:47Z</time></trkpt><trkpt lat="46.02274494111447" lon="12.006736615260756"><ele>507.0</ele><time>2026-05-01T04:53:48Z</time></trkpt><trkpt lat="46.02275770912168" lon="12.0065849798675"><ele>507.0</ele><time>2026-05-01T04:53:49Z</time></trkpt><trkpt lat="46.02277640310441" lon="12.006448073599227"><ele>507.0</ele><time>2026-05-01T04:53:50Z</time></trkpt><trkpt lat="46.022796855040724" lon="12.006331347343666"><ele>507.0</ele><time>2026-05-01T04:53:51Z</time></trkpt><trkpt lat="46.022807418405634" lon="12.006222335616638"><ele>507.0</ele><time>2026-05-01T04:53:52Z</time></trkpt><trkpt lat="46.02281258413337" lon="12.006105221886438"><ele>507.0</ele><time>2026-05-01T04:53:53Z</time></trkpt><trkpt lat="46.022773330051656" lon="12.00598792934306"><ele>507.0</ele><time>2026-05-01T04:53:54Z</time></trkpt><trkpt lat="46.02272017995635" lon="12.005870140342079"><ele>508.66666666666663</ele><time>2026-05-01T04:53:55Z</time></trkpt><trkpt lat="46.02264644638208" lon="12.00573639947013"><ele>510.3333333333333</ele><time>2026-05-01T04:53:56Z</time></trkpt><trkpt lat="46.02252264230221" lon="12.005524549864235"><ele>512.0</ele><time>2026-05-01T04:53:57Z</time></trkpt><trkpt lat="46.02240526070657" lon="12.005325369513269"><ele>512.0</ele><time>2026-05-01T04:53:58Z</time></trkpt><trkpt lat="46.022307921068496" lon="12.005158332434931"><ele>512.0</ele><time>2026-05-01T04:53:59Z</time></trkpt><trkpt lat="46.022206536300935" lon="12.005021189560015"><ele>512.0</ele><time>2026-05-01T04:54:00Z</time></trkpt><trkpt lat="46.022126831888485" lon="12.004885871355539"><ele>512.0</ele><time>2026-05-01T04:54:01Z</time></trkpt><trkpt lat="46.022048652085225" lon="12.004772169393863"><ele>512.0</ele><time>2026-05-01T04:54:02Z</time></trkpt><trkpt lat="46.021954419074646" lon="12.00469163580629"><ele>512.0</ele><time>2026-05-01T04:54:03Z</time></trkpt><trkpt lat="46.02184908163652" lon="12.00462932042793"><ele>512.0</ele><time>2026-05-01T04:54:04Z</time></trkpt><trkpt lat="46.021752753330404" lon="12.004575170288083"><ele>512.0</ele><time>2026-05-01T04:54:05Z</time></trkpt><trkpt lat="46.02167087169193" lon="12.00452166190094"><ele>512.0</ele><time>2026-05-01T04:54:06Z</time></trkpt><trkpt lat="46.02159467962985" lon="12.00447178238359"><ele>512.0</ele><time>2026-05-01T04:54:07Z</time></trkpt><trkpt lat="46.02151639899567" lon="12.004428589585798"><ele>512.0</ele><time>2026-05-01T04:54:08Z</time></trkpt><trkpt lat="46.02143239859437" lon="12.004418792935077"><ele>512.0</ele><time>2026-05-01T04:54:09Z</time></trkpt><trkpt lat="46.02135012211167" lon="12.004452326645527"><ele>512.0</ele><time>2026-05-01T04:54:10Z</time></trkpt><trkpt lat="46.021263645793105" lon="12.00452151287885"><ele>512.0</ele><time>2026-05-01T04:54:11Z</time></trkpt><trkpt lat="46.021174324557535" lon="12.004602187094429"><ele>511.99999999999994</ele><time>2026-05-01T04:54:12Z</time></trkpt><trkpt lat="46.021099847583365" lon="12.004652206974617"><ele>512.0</ele><time>2026-05-01T04:54:13Z</time></trkpt><trkpt lat="46.021022891305385" lon="12.00466175543742"><ele>512.0</ele><time>2026-05-01T04:54:14Z</time></trkpt><trkpt lat="46.020942109609514" lon="12.004671249938022"><ele>512.0</ele><time>2026-05-01T04:54:15Z</time></trkpt><trkpt lat="46.020881776986606" lon="12.004571374000587"><ele>511.99999999999994</ele><time>2026-05-01T04:54:16Z</time></trkpt><trkpt lat="46.020815475978154" lon="12.004484930019714"><ele>512.0</ele><time>2026-05-01T04:54:17Z</time></trkpt><trkpt lat="46.0207575682286" lon="12.004386314384655"><ele>513.5</ele><time>2026-05-01T04:54:18Z</time></trkpt><trkpt lat="46.020683099803996" lon="12.004259496120786"><ele>515.0</ele><time>2026-05-01T04:54:19Z</time></trkpt><trkpt lat="46.02060258869595" lon="12.00415138207792"><ele>516.5</ele><time>2026-05-01T04:54:20Z</time></trkpt><trkpt lat="46.02047997845377" lon="12.004025948268897"><ele>518.0</ele><time>2026-05-01T04:54:21Z</time></trkpt><trkpt lat="46.02033853059236" lon="12.003878268728979"><ele>518.0</ele><time>2026-05-01T04:54:22Z</time></trkpt><trkpt lat="46.0202559203051" lon="12.003749414282842"><ele>518.0</ele><time>2026-05-01T04:54:23Z</time></trkpt><trkpt lat="46.020182702825004" lon="12.0035874894705"><ele>518.0</ele><time>2026-05-01T04:54:24Z</time></trkpt><trkpt lat="46.020131053113595" lon="12.003413394870197"><ele>518.0</ele><time>2026-05-01T04:54:25Z</time></trkpt><trkpt lat="46.02008012650266" lon="12.003235538236"><ele>519.25</ele><time>2026-05-01T04:54:26Z</time></trkpt><trkpt lat="46.02002238948672" lon="12.003055215072788"><ele>520.5</ele><time>2026-05-01T04:54:27Z</time></trkpt><trkpt lat="46.019972335782505" lon="12.00289558946293"><ele>521.75</ele><time>2026-05-01T04:54:27.999Z</time></trkpt><trkpt lat="46.01992402050116" lon="12.00274838554373"><ele>523.0</ele><time>2026-05-01T04:54:28.999Z</time></trkpt><trkpt lat="46.019889771100914" lon="12.002611190072043"><ele>521.0</ele><time>2026-05-01T04:54:29.999Z</time></trkpt><trkpt lat="46.01984940188586" lon="12.00249102703946"><ele>519.0</ele><time>2026-05-01T04:54:30.999Z</time></trkpt><trkpt lat="46.01979479903338" lon="12.002389220405064"><ele>517.0</ele><time>2026-05-01T04:54:31.999Z</time></trkpt><trkpt lat="46.01971209869278" lon="12.00230419242589"><ele>515.0</ele><time>2026-05-01T04:54:32.999Z</time></trkpt><trkpt lat="46.0196063921467" lon="12.002217972056307"><ele>513.0</ele><time>2026-05-01T04:54:33.999Z</time></trkpt><trkpt lat="46.01949076992552" lon="12.00212063988887"><ele>513.0</ele><time>2026-05-01T04:54:34.999Z</time></trkpt><trkpt lat="46.01938475165545" lon="12.002020405675855"><ele>513.0</ele><time>2026-05-01T04:54:35.999Z</time></trkpt><trkpt lat="46.019290634044836" lon="12.001928100074979"><ele>513.0</ele><time>2026-05-01T04:54:36.999Z</time></trkpt><trkpt lat="46.019197554192104" lon="12.001846254746775"><ele>513.0</ele><time>2026-05-01T04:54:37.999Z</time></trkpt><trkpt lat="46.01908710168747" lon="12.001796509958902"><ele>512.5</ele><time>2026-05-01T04:54:38.999Z</time></trkpt><trkpt lat="46.018963939076436" lon="12.001762182415947"><ele>512.0</ele><time>2026-05-01T04:54:39.999Z</time></trkpt><trkpt lat="46.01883882073469" lon="12.00170062806913"><ele>511.5</ele><time>2026-05-01T04:54:40.999Z</time></trkpt><trkpt lat="46.01872072205773" lon="12.001592221862985"><ele>511.0</ele><time>2026-05-01T04:54:41.999Z</time></trkpt><trkpt lat="46.01860940914679" lon="12.001444144053197"><ele>511.0</ele><time>2026-05-01T04:54:42.999Z</time></trkpt><trkpt lat="46.018498959218036" lon="12.001266476988246"><ele>511.0</ele><time>2026-05-01T04:54:44Z</time></trkpt><trkpt lat="46.01839138231482" lon="12.00108948012338"><ele>511.0</ele><time>2026-05-01T04:54:45Z</time></trkpt><trkpt lat="46.018279514495454" lon="12.000909539326207"><ele>513.6666666666667</ele><time>2026-05-01T04:54:46Z</time></trkpt><trkpt lat="46.01816392398245" lon="12.000728460784757"><ele>516.3333333333334</ele><time>2026-05-01T04:54:47Z</time></trkpt><trkpt lat="46.0180448079307" lon="12.000548322495526"><ele>519.0</ele><time>2026-05-01T04:54:48Z</time></trkpt><trkpt lat="46.01792660615005" lon="12.000368365633653"><ele>519.0</ele><time>2026-05-01T04:54:49Z</time></trkpt><trkpt lat="46.017821891125614" lon="12.000169536265364"><ele>519.0</ele><time>2026-05-01T04:54:50Z</time></trkpt><trkpt lat="46.01769178523549" lon="12.00000022292989"><ele>519.0</ele><time>2026-05-01T04:54:51Z</time></trkpt><trkpt lat="46.01757418412817" lon="11.999811860614829"><ele>527.3333333333334</ele><time>2026-05-01T04:54:52Z</time></trkpt><trkpt lat="46.017459521264264" lon="11.999615562426515"><ele>535.6666666666667</ele><time>2026-05-01T04:54:53Z</time></trkpt><trkpt lat="46.01737653381456" lon="11.999400473018982"><ele>544.0</ele><time>2026-05-01T04:54:54Z</time></trkpt><trkpt lat="46.01729387964009" lon="11.999204056176056"><ele>539.5</ele><time>2026-05-01T04:54:55Z</time></trkpt><trkpt lat="46.01721474497489" lon="11.99901583306876"><ele>535.0</ele><time>2026-05-01T04:54:56Z</time></trkpt><trkpt lat="46.01714103627872" lon="11.998842000653845"><ele>530.5</ele><time>2026-05-01T04:54:57Z</time></trkpt><trkpt lat="46.017075003109134" lon="11.998686479257128"><ele>526.0</ele><time>2026-05-01T04:54:58Z</time></trkpt><trkpt lat="46.01702081034361" lon="11.998556293381919"><ele>526.0</ele><time>2026-05-01T04:54:59Z</time></trkpt><trkpt lat="46.01697930513265" lon="11.998455337774597"><ele>526.0</ele><time>2026-05-01T04:55:00Z</time></trkpt><trkpt lat="46.01692474318171" lon="11.99834625162809"><ele>526.0</ele><time>2026-05-01T04:55:02Z</time></trkpt><trkpt lat="46.016986430461955" lon="11.998409833561798"><ele>526.0</ele><time>2026-05-01T04:55:05Z</time></trkpt><trkpt lat="46.0170336691507" lon="11.998501543124721"><ele>526.0</ele><time>2026-05-01T04:55:06Z</time></trkpt><trkpt lat="46.01709161612094" lon="11.998606663923978"><ele>526.0</ele><time>2026-05-01T04:55:07Z</time></trkpt><trkpt lat="46.01715435169174" lon="11.99873003222165"><ele>526.0</ele><time>2026-05-01T04:55:08Z</time></trkpt><trkpt lat="46.01724206089695" lon="11.99886055686688"><ele>526.0</ele><time>2026-05-01T04:55:09Z</time></trkpt><trkpt lat="46.01734747636141" lon="11.998985170690208"><ele>526.0</ele><time>2026-05-01T04:55:10Z</time></trkpt><trkpt lat="46.01745158069975" lon="11.999104029641275"><ele>526.0</ele><time>2026-05-01T04:55:11Z</time></trkpt><trkpt lat="46.0175550673512" lon="11.999207337254795"><ele>524.6</ele><time>2026-05-01T04:55:12Z</time></trkpt><trkpt lat="46.017655902468526" lon="11.999287499254093"><ele>523.2</ele><time>2026-05-01T04:55:13Z</time></trkpt><trkpt lat="46.017755659616746" lon="11.999351699127226"><ele>521.8</ele><time>2026-05-01T04:55:14Z</time></trkpt><trkpt lat="46.0178526709601" lon="11.999399895217811"><ele>520.4</ele><time>2026-05-01T04:55:15Z</time></trkpt><trkpt lat="46.01794242038463" lon="11.999443518526894"><ele>519.0</ele><time>2026-05-01T04:55:16Z</time></trkpt><trkpt lat="46.01802672659823" lon="11.999483502426116"><ele>519.0</ele><time>2026-05-01T04:55:17Z</time></trkpt><trkpt lat="46.01810404005186" lon="11.999514971594209"><ele>519.0</ele><time>2026-05-01T04:55:18Z</time></trkpt><trkpt lat="46.01817362952203" lon="11.999530059109484"><ele>519.0</ele><time>2026-05-01T04:55:19Z</time></trkpt><trkpt lat="46.01828225511688" lon="11.999521265058878"><ele>519.0</ele><time>2026-05-01T04:55:21Z</time></trkpt><trkpt lat="46.018372244246216" lon="11.999470546711082"><ele>519.0</ele><time>2026-05-01T04:55:23Z</time></trkpt><trkpt lat="46.01843972078657" lon="11.999437022823228"><ele>519.0</ele><time>2026-05-01T04:55:25Z</time></trkpt><trkpt lat="46.018490156693126" lon="11.998889480688849"><ele>517.1428571428571</ele><time>2026-05-01T04:55:37Z</time></trkpt><trkpt lat="46.018439821097736" lon="11.99880319582072"><ele>515.2857142857142</ele><time>2026-05-01T04:55:41Z</time></trkpt><trkpt lat="46.018397456242035" lon="11.99869912868185"><ele>513.4285714285714</ele><time>2026-05-01T04:55:58Z</time></trkpt><trkpt lat="46.018352985076355" lon="11.998621115515645"><ele>511.57142857142856</ele><time>2026-05-01T04:56:00Z</time></trkpt><trkpt lat="46.01832205183436" lon="11.998530691851602"><ele>509.7142857142857</ele><time>2026-05-01T04:56:03Z</time></trkpt><trkpt lat="46.01830740581091" lon="11.998434547655078"><ele>507.8571428571429</ele><time>2026-05-01T04:56:05Z</time></trkpt><trkpt lat="46.01829096191747" lon="11.99832873690964"><ele>506.00000000000006</ele><time>2026-05-01T04:56:07Z</time></trkpt><trkpt lat="46.0182733606355" lon="11.99820511926009"><ele>504.6</ele><time>2026-05-01T04:56:09Z</time></trkpt><trkpt lat="46.018263206577956" lon="11.998087019472134"><ele>503.20000000000005</ele><time>2026-05-01T04:56:11Z</time></trkpt><trkpt lat="46.01826702801104" lon="11.997962946721733"><ele>501.79999999999995</ele><time>2026-05-01T04:56:13Z</time></trkpt><trkpt lat="46.0182406947681" lon="11.997820716956083"><ele>500.4</ele><time>2026-05-01T04:56:15Z</time></trkpt><trkpt lat="46.01819325966975" lon="11.997689337673837"><ele>499.0</ele><time>2026-05-01T04:56:17Z</time></trkpt><trkpt lat="46.01818371790941" lon="11.997577655775455"><ele>497.6666666666667</ele><time>2026-05-01T04:56:19Z</time></trkpt><trkpt lat="46.018237512219514" lon="11.99746222160426"><ele>496.33333333333337</ele><time>2026-05-01T04:56:22Z</time></trkpt><trkpt lat="46.018317462621724" lon="11.997461228402605"><ele>495.0</ele><time>2026-05-01T04:56:25Z</time></trkpt><trkpt lat="46.0183802666809" lon="11.997559029845352"><ele>493.66666666666663</ele><time>2026-05-01T04:56:28Z</time></trkpt><trkpt lat="46.01842271009147" lon="11.99766370535296"><ele>492.3333333333333</ele><time>2026-05-01T04:56:29.999Z</time></trkpt><trkpt lat="46.01844657433061" lon="11.997766186832479"><ele>491.0</ele><time>2026-05-01T04:56:31.999Z</time></trkpt><trkpt lat="46.01847096449636" lon="11.997867196038785"><ele>490.0</ele><time>2026-05-01T04:56:33.999Z</time></trkpt><trkpt lat="46.01849432071143" lon="11.997971121348284"><ele>489.0</ele><time>2026-05-01T04:56:35.999Z</time></trkpt><trkpt lat="46.0185347616843" lon="11.998078343448052"><ele>488.0</ele><time>2026-05-01T04:56:38.999Z</time></trkpt><trkpt lat="46.018585255927555" lon="11.998148864763698"><ele>487.0</ele><time>2026-05-01T04:56:41.999Z</time></trkpt><trkpt lat="46.01849697077714" lon="11.998072525100673"><ele>486.0</ele><time>2026-05-01T04:58:02Z</time></trkpt><trkpt lat="46.01847827359723" lon="11.997857648982515"><ele>486.0</ele><time>2026-05-01T04:58:28Z</time></trkpt><trkpt lat="46.01845845276177" lon="11.997712918448965"><ele>486.0</ele><time>2026-05-01T04:58:30Z</time></trkpt><trkpt lat="46.01840671344947" lon="11.99761180111984"><ele>486.0</ele><time>2026-05-01T04:58:32Z</time></trkpt><trkpt lat="46.01835837710755" lon="11.99751705076689"><ele>486.0</ele><time>2026-05-01T04:58:34Z</time></trkpt><trkpt lat="46.01830518141572" lon="11.997459399311651"><ele>486.0</ele><time>2026-05-01T04:58:36Z</time></trkpt><trkpt lat="46.0182300207126" lon="11.997436110830783"><ele>486.0</ele><time>2026-05-01T04:58:37.999Z</time></trkpt><trkpt lat="46.018160342296476" lon="11.99749213943506"><ele>488.6</ele><time>2026-05-01T04:58:39.999Z</time></trkpt><trkpt lat="46.01814584304363" lon="11.997587162639148"><ele>491.20000000000005</ele><time>2026-05-01T04:58:41.999Z</time></trkpt><trkpt lat="46.018191099630904" lon="11.997719078383325"><ele>493.79999999999995</ele><time>2026-05-01T04:58:43.999Z</time></trkpt><trkpt lat="46.01823846282636" lon="11.997865965535553"><ele>496.4</ele><time>2026-05-01T04:58:45.999Z</time></trkpt><trkpt lat="46.018256367175475" lon="11.99800696062888"><ele>499.0</ele><time>2026-05-01T04:58:47.999Z</time></trkpt><trkpt lat="46.01826528480534" lon="11.998156880723656"><ele>499.00000000000006</ele><time>2026-05-01T04:58:49.999Z</time></trkpt><trkpt lat="46.01827878164984" lon="11.99830134258607"><ele>499.0</ele><time>2026-05-01T04:58:51.999Z</time></trkpt><trkpt lat="46.01830691111108" lon="11.998433564763063"><ele>499.0</ele><time>2026-05-01T04:58:53.999Z</time></trkpt><trkpt lat="46.018328949657025" lon="11.998553351960636"><ele>499.0</ele><time>2026-05-01T04:58:56Z</time></trkpt><trkpt lat="46.01836972326949" lon="11.998658617100386"><ele>499.00000000000006</ele><time>2026-05-01T04:58:58Z</time></trkpt><trkpt lat="46.01842014848166" lon="11.998749573229826"><ele>499.0</ele><time>2026-05-01T04:59:01Z</time></trkpt><trkpt lat="46.0184710595733" lon="11.998857193633297"><ele>499.50000000000006</ele><time>2026-05-01T04:59:04Z</time></trkpt><trkpt lat="46.01849664472541" lon="11.998940130773228"><ele>500.0</ele><time>2026-05-01T04:59:06Z</time></trkpt><trkpt lat="46.018493659215444" lon="11.999035854886126"><ele>500.5</ele><time>2026-05-01T04:59:08Z</time></trkpt><trkpt lat="46.01849872028184" lon="11.999176102670328"><ele>501.0</ele><time>2026-05-01T04:59:11Z</time></trkpt><trkpt lat="46.01855158127781" lon="11.99927759631227"><ele>501.50000000000006</ele><time>2026-05-01T04:59:13Z</time></trkpt><trkpt lat="46.01860849125929" lon="11.999344333507661"><ele>502.0</ele><time>2026-05-01T04:59:16Z</time></trkpt><trkpt lat="46.01869844588302" lon="11.999336310996577"><ele>502.00000000000006</ele><time>2026-05-01T04:59:18Z</time></trkpt><trkpt lat="46.018791898107786" lon="11.999281382174704"><ele>502.0</ele><time>2026-05-01T04:59:20Z</time></trkpt><trkpt lat="46.01885750270279" lon="11.999260607426855"><ele>502.0</ele><time>2026-05-01T04:59:22Z</time></trkpt><trkpt lat="46.01892794392165" lon="11.999382488380856"><ele>502.0</ele><time>2026-05-01T04:59:24Z</time></trkpt><trkpt lat="46.01897189610813" lon="11.99947291129803"><ele>502.00000000000006</ele><time>2026-05-01T04:59:25Z</time></trkpt><trkpt lat="46.01902698746436" lon="11.999580088808042"><ele>502.0</ele><time>2026-05-01T04:59:26Z</time></trkpt><trkpt lat="46.019060944869885" lon="11.999668212753816"><ele>502.0</ele><time>2026-05-01T04:59:27Z</time></trkpt><trkpt lat="46.01906910940179" lon="11.99977671600088"><ele>502.00000000000006</ele><time>2026-05-01T04:59:28Z</time></trkpt><trkpt lat="46.01907569876219" lon="11.99994144125851"><ele>502.00000000000006</ele><time>2026-05-01T04:59:29Z</time></trkpt><trkpt lat="46.01907810569808" lon="12.000048863643583"><ele>502.0</ele><time>2026-05-01T04:59:30Z</time></trkpt><trkpt lat="46.01909521621332" lon="12.000226733883228"><ele>502.0</ele><time>2026-05-01T04:59:32Z</time></trkpt><trkpt lat="46.019136337235274" lon="12.000332612517127"><ele>501.6666666666667</ele><time>2026-05-01T04:59:33Z</time></trkpt><trkpt lat="46.01919105506595" lon="12.000423981409794"><ele>501.33333333333337</ele><time>2026-05-01T04:59:34Z</time></trkpt><trkpt lat="46.01924182616005" lon="12.000512559553675"><ele>501.0</ele><time>2026-05-01T04:59:35Z</time></trkpt><trkpt lat="46.0192734393797" lon="12.0006049023141"><ele>500.66666666666663</ele><time>2026-05-01T04:59:36Z</time></trkpt><trkpt lat="46.019284967515965" lon="12.000707235416488"><ele>500.3333333333333</ele><time>2026-05-01T04:59:37Z</time></trkpt><trkpt lat="46.01929260249375" lon="12.000822165056118"><ele>500.0</ele><time>2026-05-01T04:59:38Z</time></trkpt><trkpt lat="46.019284588543876" lon="12.000932123302567"><ele>501.49999999999994</ele><time>2026-05-01T04:59:39Z</time></trkpt><trkpt lat="46.0192699586097" lon="12.001038796777433"><ele>503.0</ele><time>2026-05-01T04:59:40Z</time></trkpt><trkpt lat="46.01923419724655" lon="12.001155057746303"><ele>504.5</ele><time>2026-05-01T04:59:41Z</time></trkpt><trkpt lat="46.01919900463757" lon="12.001278694976287"><ele>506.0</ele><time>2026-05-01T04:59:42Z</time></trkpt><trkpt lat="46.01915852248987" lon="12.00140539593723"><ele>507.49999999999994</ele><time>2026-05-01T04:59:43Z</time></trkpt><trkpt lat="46.019125921010485" lon="12.001529427317749"><ele>509.0</ele><time>2026-05-01T04:59:44Z</time></trkpt><trkpt lat="46.01909246521033" lon="12.001617411924894"><ele>511.0</ele><time>2026-05-01T04:59:45Z</time></trkpt><trkpt lat="46.01903140901366" lon="12.00173595517391"><ele>513.0</ele><time>2026-05-01T04:59:47Z</time></trkpt><trkpt lat="46.018959582463864" lon="12.001801189760208"><ele>515.0</ele><time>2026-05-01T05:00:04Z</time></trkpt><trkpt lat="46.01885763779356" lon="12.001934208606585"><ele>517.0</ele><time>2026-05-01T05:00:06Z</time></trkpt><trkpt lat="46.018807431411275" lon="12.002012037557254"><ele>519.0</ele><time>2026-05-01T05:00:07Z</time></trkpt><trkpt lat="46.01873134061277" lon="12.002077831491135"><ele>519.0</ele><time>2026-05-01T05:00:08Z</time></trkpt><trkpt lat="46.01867144685975" lon="12.002164518674299"><ele>519.0</ele><time>2026-05-01T05:00:09Z</time></trkpt><trkpt lat="46.018599093166515" lon="12.002251375656707"><ele>519.0</ele><time>2026-05-01T05:00:10Z</time></trkpt><trkpt lat="46.0185186788322" lon="12.002309409883631"><ele>519.0</ele><time>2026-05-01T05:00:11Z</time></trkpt><trkpt lat="46.018427539331164" lon="12.00235724552213"><ele>519.0</ele><time>2026-05-01T05:00:12Z</time></trkpt><trkpt lat="46.01833931470991" lon="12.002373576388154"><ele>523.3333333333334</ele><time>2026-05-01T05:00:13Z</time></trkpt><trkpt lat="46.018245589338655" lon="12.002386140958182"><ele>527.6666666666666</ele><time>2026-05-01T05:00:14Z</time></trkpt><trkpt lat="46.01814870179654" lon="12.002401634219924"><ele>532.0</ele><time>2026-05-01T05:00:15Z</time></trkpt><trkpt lat="46.0180824331196" lon="12.002443057702937"><ele>536.3333333333333</ele><time>2026-05-01T05:00:16Z</time></trkpt><trkpt lat="46.01802168008062" lon="12.002547019296001"><ele>540.6666666666666</ele><time>2026-05-01T05:00:17Z</time></trkpt><trkpt lat="46.01797190353494" lon="12.0026473733346"><ele>545.0</ele><time>2026-05-01T05:00:18Z</time></trkpt><trkpt lat="46.0180035503537" lon="12.002780595323907"><ele>547.5</ele><time>2026-05-01T05:00:19Z</time></trkpt><trkpt lat="46.01801841352145" lon="12.002883748923999"><ele>550.0</ele><time>2026-05-01T05:00:20Z</time></trkpt><trkpt lat="46.01808022203054" lon="12.002957337627878"><ele>552.5</ele><time>2026-05-01T05:00:21Z</time></trkpt><trkpt lat="46.018147631612415" lon="12.003022118870335"><ele>555.0</ele><time>2026-05-01T05:00:22Z</time></trkpt><trkpt lat="46.018220086254566" lon="12.003086639340893"><ele>557.5</ele><time>2026-05-01T05:00:23Z</time></trkpt><trkpt lat="46.01829323735876" lon="12.003161787735793"><ele>560.0</ele><time>2026-05-01T05:00:24Z</time></trkpt><trkpt lat="46.018359852308805" lon="12.00323656936002"><ele>557.5</ele><time>2026-05-01T05:00:25Z</time></trkpt><trkpt lat="46.018422561244414" lon="12.003308361776126"><ele>555.0</ele><time>2026-05-01T05:00:26Z</time></trkpt><trkpt lat="46.01848582279304" lon="12.003381254143218"><ele>552.5</ele><time>2026-05-01T05:00:27Z</time></trkpt><trkpt lat="46.01854574887929" lon="12.00345248242054"><ele>550.0</ele><time>2026-05-01T05:00:28Z</time></trkpt><trkpt lat="46.01861353326956" lon="12.003511578513557"><ele>547.5</ele><time>2026-05-01T05:00:29Z</time></trkpt><trkpt lat="46.01868288783695" lon="12.003566347126968"><ele>545.0</ele><time>2026-05-01T05:00:30Z</time></trkpt><trkpt lat="46.01875868693879" lon="12.003617459513714"><ele>545.0</ele><time>2026-05-01T05:00:31Z</time></trkpt><trkpt lat="46.01883571121937" lon="12.003662315679177"><ele>545.0</ele><time>2026-05-01T05:00:32Z</time></trkpt><trkpt lat="46.01891241302784" lon="12.003710516459249"><ele>545.0</ele><time>2026-05-01T05:00:33Z</time></trkpt><trkpt lat="46.01898399726563" lon="12.003764262414306"><ele>545.0</ele><time>2026-05-01T05:00:34Z</time></trkpt><trkpt lat="46.01905514663824" lon="12.003830370647925"><ele>545.0</ele><time>2026-05-01T05:00:35Z</time></trkpt><trkpt lat="46.019124735436186" lon="12.0039068390829"><ele>545.0</ele><time>2026-05-01T05:00:36Z</time></trkpt><trkpt lat="46.019204735214316" lon="12.003964861683517"><ele>544.0</ele><time>2026-05-01T05:00:37Z</time></trkpt><trkpt lat="46.019279281113796" lon="12.00402422497839"><ele>543.0</ele><time>2026-05-01T05:00:38Z</time></trkpt><trkpt lat="46.01932955913695" lon="12.004110124389047"><ele>542.0</ele><time>2026-05-01T05:00:39Z</time></trkpt><trkpt lat="46.019381238272366" lon="12.004190007547598"><ele>541.0</ele><time>2026-05-01T05:00:40Z</time></trkpt><trkpt lat="46.01936916103412" lon="12.004314518324158"><ele>540.0</ele><time>2026-05-01T05:00:42Z</time></trkpt><trkpt lat="46.019305089950954" lon="12.004355695257487"><ele>539.0</ele><time>2026-05-01T05:00:43Z</time></trkpt><trkpt lat="46.019238395584786" lon="12.004292830635766"><ele>544.0</ele><time>2026-05-01T05:00:44Z</time></trkpt><trkpt lat="46.01911445306431" lon="12.004284280099313"><ele>549.0</ele><time>2026-05-01T05:00:45.999Z</time></trkpt><trkpt lat="46.01903275604795" lon="12.004280590027765"><ele>554.0</ele><time>2026-05-01T05:00:46.999Z</time></trkpt><trkpt lat="46.01894350152013" lon="12.004296862645031"><ele>559.0</ele><time>2026-05-01T05:00:47.999Z</time></trkpt><trkpt lat="46.018863522112525" lon="12.00428884615592"><ele>564.0</ele><time>2026-05-01T05:00:48.999Z</time></trkpt><trkpt lat="46.01879656435399" lon="12.0042587887073"><ele>569.0</ele><time>2026-05-01T05:00:49.999Z</time></trkpt><trkpt lat="46.01871940009351" lon="12.004247102384637"><ele>569.0</ele><time>2026-05-01T05:00:51.999Z</time></trkpt><trkpt lat="46.018651912280625" lon="12.004295060354119"><ele>569.0</ele><time>2026-05-01T05:00:53.999Z</time></trkpt><trkpt lat="46.01858693250453" lon="12.004359930729184"><ele>569.0</ele><time>2026-05-01T05:00:55.999Z</time></trkpt><trkpt lat="46.01859936708738" lon="12.004472004500538"><ele>569.0</ele><time>2026-05-01T05:00:57.999Z</time></trkpt><trkpt lat="46.01869475483838" lon="12.0045675471525"><ele>569.0</ele><time>2026-05-01T05:00:59.999Z</time></trkpt><trkpt lat="46.01876304460743" lon="12.004629060320697"><ele>569.0</ele><time>2026-05-01T05:01:00.999Z</time></trkpt><trkpt lat="46.018813793724725" lon="12.00470301501135"><ele>569.0</ele><time>2026-05-01T05:01:02Z</time></trkpt><trkpt lat="46.018856970414085" lon="12.004785884465944"><ele>569.0</ele><time>2026-05-01T05:01:03Z</time></trkpt><trkpt lat="46.01889251463871" lon="12.004898651477752"><ele>569.0</ele><time>2026-05-01T05:01:04Z</time></trkpt><trkpt lat="46.018926988227776" lon="12.00503033098924"><ele>569.0</ele><time>2026-05-01T05:01:05Z</time></trkpt><trkpt lat="46.01897148040482" lon="12.005155957271393"><ele>569.0</ele><time>2026-05-01T05:01:06Z</time></trkpt><trkpt lat="46.019035305815336" lon="12.005288977223636"><ele>569.4</ele><time>2026-05-01T05:01:07Z</time></trkpt><trkpt lat="46.01910577303708" lon="12.005421584657933"><ele>569.8</ele><time>2026-05-01T05:01:08Z</time></trkpt><trkpt lat="46.01917345318884" lon="12.005554786622024"><ele>570.2</ele><time>2026-05-01T05:01:09Z</time></trkpt><trkpt lat="46.01923575584362" lon="12.005664180051658"><ele>570.6</ele><time>2026-05-01T05:01:10Z</time></trkpt><trkpt lat="46.019285013393265" lon="12.005756338491942"><ele>571.0</ele><time>2026-05-01T05:01:11Z</time></trkpt><trkpt lat="46.0193343985246" lon="12.005854047665517"><ele>574.0</ele><time>2026-05-01T05:01:12Z</time></trkpt><trkpt lat="46.019364888235835" lon="12.005963701323553"><ele>577.0</ele><time>2026-05-01T05:01:13Z</time></trkpt><trkpt lat="46.01939693204995" lon="12.00608125450009"><ele>580.0</ele><time>2026-05-01T05:01:14Z</time></trkpt><trkpt lat="46.019422402884956" lon="12.00620132227218"><ele>583.0</ele><time>2026-05-01T05:01:15Z</time></trkpt><trkpt lat="46.01945321389905" lon="12.006315430079153"><ele>586.0</ele><time>2026-05-01T05:01:16Z</time></trkpt><trkpt lat="46.01947077347267" lon="12.00643684239904"><ele>589.0</ele><time>2026-05-01T05:01:17Z</time></trkpt><trkpt lat="46.0194769619951" lon="12.006560665018256"><ele>591.3333333333334</ele><time>2026-05-01T05:01:18Z</time></trkpt><trkpt lat="46.01946829011302" lon="12.006681844409272"><ele>593.6666666666667</ele><time>2026-05-01T05:01:19Z</time></trkpt><trkpt lat="46.01945065090639" lon="12.006802998793402"><ele>596.0</ele><time>2026-05-01T05:01:20Z</time></trkpt><trkpt lat="46.019430070088546" lon="12.006939062029826"><ele>598.3333333333334</ele><time>2026-05-01T05:01:21Z</time></trkpt><trkpt lat="46.01941323595458" lon="12.007057104749233"><ele>600.6666666666666</ele><time>2026-05-01T05:01:22Z</time></trkpt><trkpt lat="46.019406920521334" lon="12.007165224564206"><ele>603.0</ele><time>2026-05-01T05:01:23Z</time></trkpt><trkpt lat="46.01937986206116" lon="12.007279546943474"><ele>603.0</ele><time>2026-05-01T05:01:24Z</time></trkpt><trkpt lat="46.01935993977099" lon="12.007379864338755"><ele>603.0</ele><time>2026-05-01T05:01:25Z</time></trkpt><trkpt lat="46.01934160832812" lon="12.007513171508016"><ele>603.0</ele><time>2026-05-01T05:01:26Z</time></trkpt><trkpt lat="46.019357762475984" lon="12.007653314308843"><ele>603.0</ele><time>2026-05-01T05:01:27Z</time></trkpt><trkpt lat="46.01936025029781" lon="12.007773354494422"><ele>603.0</ele><time>2026-05-01T05:01:28Z</time></trkpt><trkpt lat="46.019377039967694" lon="12.007889039002698"><ele>603.0</ele><time>2026-05-01T05:01:29Z</time></trkpt><trkpt lat="46.019397876290796" lon="12.007979218747625"><ele>604.5</ele><time>2026-05-01T05:01:30Z</time></trkpt><trkpt lat="46.019387706787306" lon="12.008080643254653"><ele>606.0</ele><time>2026-05-01T05:01:31Z</time></trkpt><trkpt lat="46.019350825666514" lon="12.00816451703321"><ele>607.5</ele><time>2026-05-01T05:01:32Z</time></trkpt><trkpt lat="46.01931840532492" lon="12.008272134934941"><ele>609.0</ele><time>2026-05-01T05:01:33Z</time></trkpt><trkpt lat="46.01926555813786" lon="12.008389569838473"><ele>610.5</ele><time>2026-05-01T05:01:34Z</time></trkpt><trkpt lat="46.01919307359302" lon="12.008475932406533"><ele>612.0</ele><time>2026-05-01T05:01:35Z</time></trkpt><trkpt lat="46.01916183236989" lon="12.00860640836264"><ele>613.1666666666666</ele><time>2026-05-01T05:01:36Z</time></trkpt><trkpt lat="46.019154811231296" lon="12.008746945957927"><ele>614.3333333333334</ele><time>2026-05-01T05:01:37Z</time></trkpt><trkpt lat="46.019150976612764" lon="12.008869996195356"><ele>615.5</ele><time>2026-05-01T05:01:38Z</time></trkpt><trkpt lat="46.01914276191077" lon="12.009017325326585"><ele>616.6666666666667</ele><time>2026-05-01T05:01:40Z</time></trkpt><trkpt lat="46.019126530929285" lon="12.00911655094593"><ele>617.8333333333334</ele><time>2026-05-01T05:01:41Z</time></trkpt><trkpt lat="46.01910950435769" lon="12.009224325691664"><ele>619.0</ele><time>2026-05-01T05:01:42Z</time></trkpt><trkpt lat="46.01906436155153" lon="12.009312691977838"><ele>623.3333333333334</ele><time>2026-05-01T05:01:43Z</time></trkpt><trkpt lat="46.01900614833892" lon="12.009383345961126"><ele>627.6666666666667</ele><time>2026-05-01T05:01:44Z</time></trkpt><trkpt lat="46.01893423726222" lon="12.00943666475321"><ele>632.0</ele><time>2026-05-01T05:01:45Z</time></trkpt><trkpt lat="46.0188599846966" lon="12.009449231217767"><ele>636.3333333333334</ele><time>2026-05-01T05:01:46Z</time></trkpt><trkpt lat="46.01878604402839" lon="12.009439574158089"><ele>640.6666666666666</ele><time>2026-05-01T05:01:47Z</time></trkpt><trkpt lat="46.018707620426405" lon="12.009402284344201"><ele>645.0</ele><time>2026-05-01T05:01:48Z</time></trkpt><trkpt lat="46.0186245918401" lon="12.009361612792823"><ele>645.0</ele><time>2026-05-01T05:01:49Z</time></trkpt><trkpt lat="46.018531112748434" lon="12.009334459736534"><ele>645.0</ele><time>2026-05-01T05:01:50Z</time></trkpt><trkpt lat="46.01842931916606" lon="12.009281234276724"><ele>645.0</ele><time>2026-05-01T05:01:51Z</time></trkpt><trkpt lat="46.01833287350397" lon="12.009249634946293"><ele>645.0</ele><time>2026-05-01T05:01:52Z</time></trkpt><trkpt lat="46.01824304664044" lon="12.009215568098577"><ele>645.0</ele><time>2026-05-01T05:01:53Z</time></trkpt><trkpt lat="46.01814793355638" lon="12.00919248150213"><ele>647.5</ele><time>2026-05-01T05:01:54Z</time></trkpt><trkpt lat="46.01806023850577" lon="12.009135735438067"><ele>650.0</ele><time>2026-05-01T05:01:55Z</time></trkpt><trkpt lat="46.01797213049379" lon="12.009092260218251"><ele>652.5</ele><time>2026-05-01T05:01:56Z</time></trkpt><trkpt lat="46.0178930624029" lon="12.009041481156363"><ele>655.0</ele><time>2026-05-01T05:01:57Z</time></trkpt><trkpt lat="46.01782346280141" lon="12.00896466120826"><ele>657.5</ele><time>2026-05-01T05:01:58Z</time></trkpt><trkpt lat="46.01774747913505" lon="12.00893424607668"><ele>660.0</ele><time>2026-05-01T05:01:59Z</time></trkpt><trkpt lat="46.01767310625182" lon="12.008860529491688"><ele>660.0000000000001</ele><time>2026-05-01T05:02:00Z</time></trkpt><trkpt lat="46.017599771235574" lon="12.008817859054423"><ele>660.0</ele><time>2026-05-01T05:02:01Z</time></trkpt><trkpt lat="46.0175244799973" lon="12.008793138928146"><ele>660.0</ele><time>2026-05-01T05:02:02Z</time></trkpt><trkpt lat="46.0174552138125" lon="12.008800650241186"><ele>660.0</ele><time>2026-05-01T05:02:03Z</time></trkpt><trkpt lat="46.01738549633037" lon="12.008812907462115"><ele>660.0</ele><time>2026-05-01T05:02:04Z</time></trkpt><trkpt lat="46.01731404232889" lon="12.00884282961497"><ele>660.0000000000001</ele><time>2026-05-01T05:02:05Z</time></trkpt><trkpt lat="46.01725314771867" lon="12.008896265940706"><ele>660.0</ele><time>2026-05-01T05:02:06Z</time></trkpt><trkpt lat="46.017176641458505" lon="12.00895631526142"><ele>663.5</ele><time>2026-05-01T05:02:07Z</time></trkpt><trkpt lat="46.017108134204136" lon="12.009016401484404"><ele>667.0</ele><time>2026-05-01T05:02:08Z</time></trkpt><trkpt lat="46.01702889990054" lon="12.00907193807392"><ele>670.5</ele><time>2026-05-01T05:02:09Z</time></trkpt><trkpt lat="46.01697403981425" lon="12.009145246575477"><ele>674.0</ele><time>2026-05-01T05:02:10Z</time></trkpt><trkpt lat="46.01691703570376" lon="12.009208107992121"><ele>677.5</ele><time>2026-05-01T05:02:11Z</time></trkpt><trkpt lat="46.01683420264998" lon="12.00927261948923"><ele>681.0</ele><time>2026-05-01T05:02:12Z</time></trkpt><trkpt lat="46.01675953645445" lon="12.009272703126696"><ele>681.0</ele><time>2026-05-01T05:02:13Z</time></trkpt><trkpt lat="46.01669339468164" lon="12.00930704914665"><ele>681.0</ele><time>2026-05-01T05:02:14Z</time></trkpt><trkpt lat="46.01658325676327" lon="12.009338107962877"><ele>681.0</ele><time>2026-05-01T05:02:16Z</time></trkpt><trkpt lat="46.01650032443224" lon="12.0093785215455"><ele>681.0</ele><time>2026-05-01T05:02:17Z</time></trkpt><trkpt lat="46.016381767283775" lon="12.009426565975017"><ele>681.0</ele><time>2026-05-01T05:02:19Z</time></trkpt><trkpt lat="46.016313649734094" lon="12.009445091975872"><ele>686.3333333333334</ele><time>2026-05-01T05:02:20Z</time></trkpt><trkpt lat="46.01624022942268" lon="12.009437550287007"><ele>691.6666666666666</ele><time>2026-05-01T05:02:21Z</time></trkpt><trkpt lat="46.01615604363635" lon="12.00942862068973"><ele>697.0</ele><time>2026-05-01T05:02:23Z</time></trkpt><trkpt lat="46.01608267149758" lon="12.009312965425712"><ele>702.3333333333333</ele><time>2026-05-01T05:02:26Z</time></trkpt><trkpt lat="46.016101381096554" lon="12.009225446186534"><ele>707.6666666666666</ele><time>2026-05-01T05:02:27Z</time></trkpt><trkpt lat="46.0161433643926" lon="12.009085333855461"><ele>713.0</ele><time>2026-05-01T05:02:29Z</time></trkpt><trkpt lat="46.01618300417273" lon="12.00894772117681"><ele>713.0</ele><time>2026-05-01T05:02:31Z</time></trkpt><trkpt lat="46.0162124110389" lon="12.008762896567188"><ele>713.0</ele><time>2026-05-01T05:02:33Z</time></trkpt><trkpt lat="46.01621725905683" lon="12.008660672872784"><ele>713.0</ele><time>2026-05-01T05:02:34Z</time></trkpt><trkpt lat="46.01616194988972" lon="12.008585084199701"><ele>713.0</ele><time>2026-05-01T05:02:35Z</time></trkpt><trkpt lat="46.01612058838041" lon="12.008506823081161"><ele>713.0</ele><time>2026-05-01T05:02:36Z</time></trkpt><trkpt lat="46.0160693013611" lon="12.008429954802727"><ele>713.0</ele><time>2026-05-01T05:02:37Z</time></trkpt><trkpt lat="46.0160166771769" lon="12.008367545564095"><ele>710.4</ele><time>2026-05-01T05:02:38Z</time></trkpt><trkpt lat="46.01595784860619" lon="12.008313729676866"><ele>707.8</ele><time>2026-05-01T05:02:39Z</time></trkpt><trkpt lat="46.01584090651437" lon="12.008223844530788"><ele>705.2</ele><time>2026-05-01T05:02:41Z</time></trkpt><trkpt lat="46.01572021345382" lon="12.00813233560808"><ele>702.6</ele><time>2026-05-01T05:02:43Z</time></trkpt><trkpt lat="46.01564985249474" lon="12.008072506274221"><ele>700.0</ele><time>2026-05-01T05:02:44Z</time></trkpt><trkpt lat="46.01558450925578" lon="12.008016579345757"><ele>704.8333333333334</ele><time>2026-05-01T05:02:45Z</time></trkpt><trkpt lat="46.01551937114062" lon="12.00798501793737"><ele>709.6666666666667</ele><time>2026-05-01T05:02:46Z</time></trkpt><trkpt lat="46.01547445277876" lon="12.007917698603457"><ele>714.5</ele><time>2026-05-01T05:02:47Z</time></trkpt><trkpt lat="46.015416420285284" lon="12.007859453730203"><ele>719.3333333333334</ele><time>2026-05-01T05:02:48Z</time></trkpt><trkpt lat="46.0153575418396" lon="12.007813531873518"><ele>724.1666666666666</ele><time>2026-05-01T05:02:49Z</time></trkpt><trkpt lat="46.015260034135935" lon="12.007718845267132"><ele>729.0</ele><time>2026-05-01T05:02:50Z</time></trkpt><trkpt lat="46.01519355882846" lon="12.007697321847889"><ele>729.0</ele><time>2026-05-01T05:02:51Z</time></trkpt><trkpt lat="46.015087989596665" lon="12.007695327281251"><ele>729.0</ele><time>2026-05-01T05:02:53Z</time></trkpt><trkpt lat="46.01502088880598" lon="12.00774375873411"><ele>729.0</ele><time>2026-05-01T05:02:54Z</time></trkpt><trkpt lat="46.014958528365796" lon="12.007810489494208"><ele>729.0</ele><time>2026-05-01T05:02:55Z</time></trkpt><trkpt lat="46.01489977804029" lon="12.007896038808044"><ele>729.0</ele><time>2026-05-01T05:02:56Z</time></trkpt><trkpt lat="46.01485103248325" lon="12.00798366316717"><ele>729.0</ele><time>2026-05-01T05:02:57Z</time></trkpt><trkpt lat="46.01480534055453" lon="12.008075852746481"><ele>733.0</ele><time>2026-05-01T05:02:58Z</time></trkpt><trkpt lat="46.01476424951581" lon="12.008186705305208"><ele>737.0</ele><time>2026-05-01T05:02:59Z</time></trkpt><trkpt lat="46.0147179508905" lon="12.00826874237934"><ele>741.0</ele><time>2026-05-01T05:03:00Z</time></trkpt><trkpt lat="46.01467408531027" lon="12.008365554480973"><ele>745.0</ele><time>2026-05-01T05:03:01Z</time></trkpt><trkpt lat="46.01457835330143" lon="12.00854755243712"><ele>749.0</ele><time>2026-05-01T05:03:03Z</time></trkpt><trkpt lat="46.01453479685593" lon="12.008644887911862"><ele>750.4000000000001</ele><time>2026-05-01T05:03:04Z</time></trkpt><trkpt lat="46.01447172286276" lon="12.008850269312328"><ele>751.8</ele><time>2026-05-01T05:03:05Z</time></trkpt><trkpt lat="46.01445685805457" lon="12.008958642465732"><ele>753.2</ele><time>2026-05-01T05:03:06Z</time></trkpt><trkpt lat="46.01442374295594" lon="12.009067448541064"><ele>754.5999999999999</ele><time>2026-05-01T05:03:07Z</time></trkpt><trkpt lat="46.01439736445915" lon="12.00917313729485"><ele>756.0</ele><time>2026-05-01T05:03:08Z</time></trkpt><trkpt lat="46.01435632536697" lon="12.009282335921455"><ele>757.1999999999999</ele><time>2026-05-01T05:03:10Z</time></trkpt><trkpt lat="46.014280067703005" lon="12.00941152129529"><ele>758.4</ele><time>2026-05-01T05:03:12Z</time></trkpt><trkpt lat="46.014229542914634" lon="12.009520723783018"><ele>759.6</ele><time>2026-05-01T05:03:14Z</time></trkpt><trkpt lat="46.01415596306338" lon="12.00963806822165"><ele>760.8</ele><time>2026-05-01T05:03:16Z</time></trkpt><trkpt lat="46.01408867117295" lon="12.00971530062259"><ele>762.0</ele><time>2026-05-01T05:03:17Z</time></trkpt><trkpt lat="46.01400187075678" lon="12.009807888191666"><ele>764.6666666666666</ele><time>2026-05-01T05:03:18Z</time></trkpt><trkpt lat="46.01394319935006" lon="12.009885930181461"><ele>767.3333333333333</ele><time>2026-05-01T05:03:19Z</time></trkpt><trkpt lat="46.01386854030733" lon="12.009958098880826"><ele>770.0</ele><time>2026-05-01T05:03:20Z</time></trkpt><trkpt lat="46.01379558431929" lon="12.010025788670797"><ele>772.6666666666666</ele><time>2026-05-01T05:03:21Z</time></trkpt><trkpt lat="46.013744209999004" lon="12.010108746860674"><ele>775.3333333333333</ele><time>2026-05-01T05:03:22Z</time></trkpt><trkpt lat="46.01369663605811" lon="12.010200307363801"><ele>778.0</ele><time>2026-05-01T05:03:23Z</time></trkpt><trkpt lat="46.01363836639042" lon="12.010279472092938"><ele>778.2857142857143</ele><time>2026-05-01T05:03:24Z</time></trkpt><trkpt lat="46.013589487908156" lon="12.010371495982977"><ele>778.5714285714286</ele><time>2026-05-01T05:03:25Z</time></trkpt><trkpt lat="46.01356401590458" lon="12.010459643866827"><ele>778.8571428571429</ele><time>2026-05-01T05:03:26Z</time></trkpt><trkpt lat="46.0135376502015" lon="12.010557415411895"><ele>779.1428571428571</ele><time>2026-05-01T05:03:27Z</time></trkpt><trkpt lat="46.01350870028108" lon="12.010664770043382"><ele>779.4285714285713</ele><time>2026-05-01T05:03:28Z</time></trkpt><trkpt lat="46.01348141647127" lon="12.01076131674101"><ele>779.7142857142857</ele><time>2026-05-01T05:03:29Z</time></trkpt><trkpt lat="46.013452559293995" lon="12.010854374006692"><ele>780.0</ele><time>2026-05-01T05:03:30Z</time></trkpt><trkpt lat="46.01341538000141" lon="12.010934901707012"><ele>780.8571428571429</ele><time>2026-05-01T05:03:31Z</time></trkpt><trkpt lat="46.013403472013586" lon="12.011026682302283"><ele>781.7142857142857</ele><time>2026-05-01T05:03:32Z</time></trkpt><trkpt lat="46.01337015357412" lon="12.011125242582853"><ele>782.5714285714287</ele><time>2026-05-01T05:03:33Z</time></trkpt><trkpt lat="46.013337936113864" lon="12.011215728115214"><ele>783.4285714285714</ele><time>2026-05-01T05:03:34Z</time></trkpt><trkpt lat="46.013301538196615" lon="12.011311211379475"><ele>784.2857142857143</ele><time>2026-05-01T05:03:35Z</time></trkpt><trkpt lat="46.01326096393711" lon="12.011405001103418"><ele>785.1428571428572</ele><time>2026-05-01T05:03:36Z</time></trkpt><trkpt lat="46.01321264553226" lon="12.011500238138497"><ele>786.0</ele><time>2026-05-01T05:03:37Z</time></trkpt><trkpt lat="46.013158509558586" lon="12.011592374758537"><ele>793.4</ele><time>2026-05-01T05:03:38Z</time></trkpt><trkpt lat="46.01308339377562" lon="12.011718671303667"><ele>800.8</ele><time>2026-05-01T05:03:40Z</time></trkpt><trkpt lat="46.01300541572229" lon="12.011825465348357"><ele>808.1999999999999</ele><time>2026-05-01T05:03:42Z</time></trkpt><trkpt lat="46.012929196362144" lon="12.011942850271755"><ele>815.5999999999999</ele><time>2026-05-01T05:03:44Z</time></trkpt><trkpt lat="46.012883456097505" lon="12.0120144143787"><ele>823.0</ele><time>2026-05-01T05:03:45Z</time></trkpt><trkpt lat="46.01282008261463" lon="12.012135545388022"><ele>822.9999999999999</ele><time>2026-05-01T05:03:47Z</time></trkpt><trkpt lat="46.01277691001104" lon="12.012221316839483"><ele>823.0</ele><time>2026-05-01T05:03:49Z</time></trkpt><trkpt lat="46.01273060663587" lon="12.012315384927238"><ele>823.0</ele><time>2026-05-01T05:03:51Z</time></trkpt><trkpt lat="46.01268325521009" lon="12.012439364925617"><ele>823.0</ele><time>2026-05-01T05:03:53Z</time></trkpt><trkpt lat="46.01263698811651" lon="12.012501691538613"><ele>822.9999999999999</ele><time>2026-05-01T05:03:54Z</time></trkpt><trkpt lat="46.01256787985262" lon="12.012628632064315"><ele>823.0</ele><time>2026-05-01T05:03:56Z</time></trkpt><trkpt lat="46.01250013739351" lon="12.012746872039726"><ele>829.4</ele><time>2026-05-01T05:03:58Z</time></trkpt><trkpt lat="46.01246620863919" lon="12.01283716225766"><ele>835.8</ele><time>2026-05-01T05:03:59Z</time></trkpt><trkpt lat="46.01239434500579" lon="12.012928215398533"><ele>842.2</ele><time>2026-05-01T05:04:01Z</time></trkpt><trkpt lat="46.01231780467843" lon="12.013058894232932"><ele>848.6</ele><time>2026-05-01T05:04:03Z</time></trkpt><trkpt lat="46.01226189729114" lon="12.013148319965765"><ele>855.0</ele><time>2026-05-01T05:04:04Z</time></trkpt><trkpt lat="46.012194949123895" lon="12.013267968028005"><ele>855.2</ele><time>2026-05-01T05:04:06Z</time></trkpt><trkpt lat="46.01215252214656" lon="12.013337603156758"><ele>855.4</ele><time>2026-05-01T05:04:07Z</time></trkpt><trkpt lat="46.01205462813282" lon="12.013429416917505"><ele>855.5999999999999</ele><time>2026-05-01T05:04:09Z</time></trkpt><trkpt lat="46.01196964623918" lon="12.013537515975258"><ele>855.8</ele><time>2026-05-01T05:04:11Z</time></trkpt><trkpt lat="46.01191589087469" lon="12.013607469451022"><ele>856.0</ele><time>2026-05-01T05:04:12Z</time></trkpt><trkpt lat="46.01182895272024" lon="12.01373101153373"><ele>856.0</ele><time>2026-05-01T05:04:14Z</time></trkpt><trkpt lat="46.01178458002665" lon="12.013797984032239"><ele>855.9999999999999</ele><time>2026-05-01T05:04:15Z</time></trkpt><trkpt lat="46.011738949554996" lon="12.013880917208928"><ele>855.9999999999999</ele><time>2026-05-01T05:04:16Z</time></trkpt><trkpt lat="46.01167566911235" lon="12.014046507062222"><ele>856.0</ele><time>2026-05-01T05:04:18Z</time></trkpt><trkpt lat="46.01165051684677" lon="12.014177209661007"><ele>856.0</ele><time>2026-05-01T05:04:20Z</time></trkpt><trkpt lat="46.011652973015636" lon="12.014303823446596"><ele>861.5999999999999</ele><time>2026-05-01T05:04:22Z</time></trkpt><trkpt lat="46.01159212812805" lon="12.014451517825163"><ele>867.1999999999999</ele><time>2026-05-01T05:04:24Z</time></trkpt><trkpt lat="46.0115613154327" lon="12.014588657511933"><ele>872.8000000000001</ele><time>2026-05-01T05:04:26Z</time></trkpt><trkpt lat="46.01150464718658" lon="12.014737621736687"><ele>878.4000000000001</ele><time>2026-05-01T05:04:28Z</time></trkpt><trkpt lat="46.01145521654114" lon="12.014806523562859"><ele>884.0</ele><time>2026-05-01T05:04:30Z</time></trkpt><trkpt lat="46.011368893679034" lon="12.014794719614784"><ele>884.0</ele><time>2026-05-01T05:04:32Z</time></trkpt><trkpt lat="46.01128054619137" lon="12.014743550018567"><ele>884.0000000000001</ele><time>2026-05-01T05:04:34Z</time></trkpt><trkpt lat="46.01121097950095" lon="12.014714769363621"><ele>884.0000000000001</ele><time>2026-05-01T05:04:36Z</time></trkpt><trkpt lat="46.011120070631925" lon="12.014694742131551"><ele>884.0</ele><time>2026-05-01T05:04:38Z</time></trkpt><trkpt lat="46.01101589383876" lon="12.014624522075572"><ele>884.0</ele><time>2026-05-01T05:04:40Z</time></trkpt><trkpt lat="46.01091833040047" lon="12.014547222317052"><ele>884.0</ele><time>2026-05-01T05:04:42Z</time></trkpt><trkpt lat="46.01083131046249" lon="12.014466442751996"><ele>884.0000000000001</ele><time>2026-05-01T05:04:44Z</time></trkpt><trkpt lat="46.01075310207435" lon="12.014426159230748"><ele>884.0000000000001</ele><time>2026-05-01T05:04:46Z</time></trkpt><trkpt lat="46.01066071791549" lon="12.014343276262064"><ele>884.0</ele><time>2026-05-01T05:04:48Z</time></trkpt><trkpt lat="46.01056433009632" lon="12.014273908459806"><ele>884.0</ele><time>2026-05-01T05:04:50Z</time></trkpt><trkpt lat="46.01049592185911" lon="12.014199082213787"><ele>888.6666666666667</ele><time>2026-05-01T05:04:52Z</time></trkpt><trkpt lat="46.010431467359595" lon="12.014144502011241"><ele>893.3333333333334</ele><time>2026-05-01T05:04:54Z</time></trkpt><trkpt lat="46.010341629884394" lon="12.014037419823"><ele>898.0</ele><time>2026-05-01T05:04:57Z</time></trkpt><trkpt lat="46.010289722671715" lon="12.013955359674688"><ele>902.6666666666667</ele><time>2026-05-01T05:04:59Z</time></trkpt><trkpt lat="46.01026230453897" lon="12.013867503845274"><ele>907.3333333333334</ele><time>2026-05-01T05:05:02Z</time></trkpt><trkpt lat="46.0101765573321" lon="12.013913105820107"><ele>912.0</ele><time>2026-05-01T05:05:05Z</time></trkpt><trkpt lat="46.01015172048778" lon="12.014023032326504"><ele>912.0</ele><time>2026-05-01T05:05:07Z</time></trkpt><trkpt lat="46.010113643781104" lon="12.014125529387309"><ele>912.0</ele><time>2026-05-01T05:05:08.999Z</time></trkpt><trkpt lat="46.01007474072438" lon="12.014216515574407"><ele>912.0</ele><time>2026-05-01T05:05:10.999Z</time></trkpt><trkpt lat="46.01001838398887" lon="12.014295678767478"><ele>912.0</ele><time>2026-05-01T05:05:15Z</time></trkpt><trkpt lat="46.009963356094225" lon="12.014378345402871"><ele>912.0</ele><time>2026-05-01T05:05:18Z</time></trkpt><trkpt lat="46.00989104215888" lon="12.014426720586313"><ele>912.0</ele><time>2026-05-01T05:05:20Z</time></trkpt><trkpt lat="46.00981035379325" lon="12.014483375732393"><ele>911.4000000000001</ele><time>2026-05-01T05:05:22Z</time></trkpt><trkpt lat="46.00975672562825" lon="12.01453272489281"><ele>910.8000000000001</ele><time>2026-05-01T05:05:25Z</time></trkpt><trkpt lat="46.00984370825637" lon="12.014421261091114"><ele>910.2</ele><time>2026-05-01T05:05:58Z</time></trkpt><trkpt lat="46.009924723134446" lon="12.014353347676524"><ele>909.6</ele><time>2026-05-01T05:06:00Z</time></trkpt><trkpt lat="46.00999559776258" lon="12.014275151410796"><ele>909.0</ele><time>2026-05-01T05:06:02Z</time></trkpt><trkpt lat="46.0100525174668" lon="12.014157537088193"><ele>909.5</ele><time>2026-05-01T05:06:04Z</time></trkpt><trkpt lat="46.010065646200516" lon="12.01405489744243"><ele>910.0</ele><time>2026-05-01T05:06:06Z</time></trkpt><trkpt lat="46.01013924994315" lon="12.013955077246518"><ele>910.5</ele><time>2026-05-01T05:06:09Z</time></trkpt><trkpt lat="46.010178675727275" lon="12.01385612363077"><ele>911.0</ele><time>2026-05-01T05:06:11Z</time></trkpt><trkpt lat="46.010198828174424" lon="12.013761686193565"><ele>911.5</ele><time>2026-05-01T05:06:13Z</time></trkpt><trkpt lat="46.01017447093222" lon="12.013645489189757"><ele>912.0</ele><time>2026-05-01T05:06:15Z</time></trkpt><trkpt lat="46.0101617310744" lon="12.013529906682313"><ele>912.0</ele><time>2026-05-01T05:06:17Z</time></trkpt><trkpt lat="46.01013587188989" lon="12.013410359406885"><ele>912.0</ele><time>2026-05-01T05:06:18Z</time></trkpt><trkpt lat="46.01011326604794" lon="12.013318071681635"><ele>912.0</ele><time>2026-05-01T05:06:19Z</time></trkpt><trkpt lat="46.01007339927143" lon="12.013182746098567"><ele>912.0</ele><time>2026-05-01T05:06:21Z</time></trkpt><trkpt lat="46.010011766184824" lon="12.013142201563706"><ele>912.0</ele><time>2026-05-01T05:06:23Z</time></trkpt><trkpt lat="46.009975104786086" lon="12.013229001616281"><ele>912.0</ele><time>2026-05-01T05:06:25Z</time></trkpt><trkpt lat="46.00992927816096" lon="12.013329888170501"><ele>916.4000000000001</ele><time>2026-05-01T05:06:27Z</time></trkpt><trkpt lat="46.00988123434992" lon="12.013439401297612"><ele>920.8000000000001</ele><time>2026-05-01T05:06:28Z</time></trkpt><trkpt lat="46.009796391198584" lon="12.01351606959229"><ele>925.2</ele><time>2026-05-01T05:06:30Z</time></trkpt><trkpt lat="46.00972096590828" lon="12.013487601924952"><ele>929.6</ele><time>2026-05-01T05:06:32Z</time></trkpt><trkpt lat="46.00963936547504" lon="12.013422074203968"><ele>934.0</ele><time>2026-05-01T05:06:34Z</time></trkpt><trkpt lat="46.00955898989649" lon="12.013296774260652"><ele>933.9999999999999</ele><time>2026-05-01T05:06:36Z</time></trkpt><trkpt lat="46.0095620968136" lon="12.013183025395042"><ele>934.0</ele><time>2026-05-01T05:06:37Z</time></trkpt><trkpt lat="46.009525391590465" lon="12.01307304915124"><ele>934.0</ele><time>2026-05-01T05:06:39Z</time></trkpt><trkpt lat="46.00947575848432" lon="12.013008834696915"><ele>934.0</ele><time>2026-05-01T05:06:41Z</time></trkpt><trkpt lat="46.00942095678531" lon="12.012916095745405"><ele>933.9999999999999</ele><time>2026-05-01T05:06:43Z</time></trkpt><trkpt lat="46.00934349818953" lon="12.01279875301954"><ele>934.0</ele><time>2026-05-01T05:06:45Z</time></trkpt><trkpt lat="46.009300251517345" lon="12.012715113831659"><ele>933.9999999999999</ele><time>2026-05-01T05:06:46Z</time></trkpt><trkpt lat="46.00924714475022" lon="12.012649440155279"><ele>934.0</ele><time>2026-05-01T05:06:47Z</time></trkpt><trkpt lat="46.009177533610504" lon="12.012551501307541"><ele>934.0</ele><time>2026-05-01T05:06:48Z</time></trkpt><trkpt lat="46.009118690424415" lon="12.012457295795768"><ele>934.0</ele><time>2026-05-01T05:06:49Z</time></trkpt><trkpt lat="46.00907241502173" lon="12.012369668191667"><ele>933.9999999999999</ele><time>2026-05-01T05:06:50Z</time></trkpt><trkpt lat="46.00902203969113" lon="12.01227856979797"><ele>934.0</ele><time>2026-05-01T05:06:51Z</time></trkpt><trkpt lat="46.00891362664254" lon="12.012129068469866"><ele>938.6</ele><time>2026-05-01T05:06:53Z</time></trkpt><trkpt lat="46.00885203932638" lon="12.011995151319153"><ele>943.2</ele><time>2026-05-01T05:06:55Z</time></trkpt><trkpt lat="46.008787364959296" lon="12.011912766890388"><ele>947.8000000000001</ele><time>2026-05-01T05:06:57Z</time></trkpt><trkpt lat="46.00872050854042" lon="12.011856530557525"><ele>952.4000000000001</ele><time>2026-05-01T05:06:58Z</time></trkpt><trkpt lat="46.00861311566897" lon="12.011819279231856"><ele>957.0</ele><time>2026-05-01T05:07:00Z</time></trkpt><trkpt lat="46.0085061983021" lon="12.011737606546"><ele>957.0</ele><time>2026-05-01T05:07:02Z</time></trkpt><trkpt lat="46.00845607082155" lon="12.011667900597178"><ele>957.0000000000001</ele><time>2026-05-01T05:07:03Z</time></trkpt><trkpt lat="46.00839359183153" lon="12.011608819938195"><ele>957.0</ele><time>2026-05-01T05:07:04Z</time></trkpt><trkpt lat="46.00833360156518" lon="12.011553391931741"><ele>957.0</ele><time>2026-05-01T05:07:05Z</time></trkpt><trkpt lat="46.00826984902616" lon="12.01147336184883"><ele>957.0000000000001</ele><time>2026-05-01T05:07:06Z</time></trkpt><trkpt lat="46.00820779202253" lon="12.011437523260229"><ele>957.0</ele><time>2026-05-01T05:07:07Z</time></trkpt><trkpt lat="46.008147750635814" lon="12.011406019392473"><ele>957.0</ele><time>2026-05-01T05:07:08Z</time></trkpt><trkpt lat="46.00807522520005" lon="12.011376670380658"><ele>955.3333333333334</ele><time>2026-05-01T05:07:09Z</time></trkpt><trkpt lat="46.00799769436977" lon="12.011351117354833"><ele>953.6666666666667</ele><time>2026-05-01T05:07:10Z</time></trkpt><trkpt lat="46.0079171422351" lon="12.011325334986834"><ele>952.0</ele><time>2026-05-01T05:07:11Z</time></trkpt><trkpt lat="46.00780717519032" lon="12.011295275050383"><ele>950.3333333333334</ele><time>2026-05-01T05:07:12Z</time></trkpt><trkpt lat="46.007729203114145" lon="12.011245888029201"><ele>948.6666666666667</ele><time>2026-05-01T05:07:13Z</time></trkpt><trkpt lat="46.00765070817621" lon="12.011224114190966"><ele>947.0</ele><time>2026-05-01T05:07:14Z</time></trkpt><trkpt lat="46.007581070722736" lon="12.011229156467392"><ele>947.0000000000001</ele><time>2026-05-01T05:07:15Z</time></trkpt><trkpt lat="46.00751409217757" lon="12.01122527623496"><ele>947.0</ele><time>2026-05-01T05:07:16Z</time></trkpt><trkpt lat="46.007409321515404" lon="12.01121211784123"><ele>947.0</ele><time>2026-05-01T05:07:17Z</time></trkpt><trkpt lat="46.00732380346771" lon="12.011209044002888"><ele>947.0</ele><time>2026-05-01T05:07:18Z</time></trkpt><trkpt lat="46.00723092506662" lon="12.011210961372948"><ele>947.0000000000001</ele><time>2026-05-01T05:07:19Z</time></trkpt><trkpt lat="46.00714748781285" lon="12.011214366734302"><ele>947.0</ele><time>2026-05-01T05:07:20Z</time></trkpt><trkpt lat="46.007064384150944" lon="12.011196170971433"><ele>947.8571428571428</ele><time>2026-05-01T05:07:21Z</time></trkpt><trkpt lat="46.006984093552695" lon="12.011199500060146"><ele>948.7142857142856</ele><time>2026-05-01T05:07:22Z</time></trkpt><trkpt lat="46.00692138441526" lon="12.011229873818198"><ele>949.5714285714286</ele><time>2026-05-01T05:07:23Z</time></trkpt><trkpt lat="46.006861768856666" lon="12.011274965257076"><ele>950.4285714285713</ele><time>2026-05-01T05:07:24Z</time></trkpt><trkpt lat="46.006797448861306" lon="12.011337891923347"><ele>951.2857142857142</ele><time>2026-05-01T05:07:25Z</time></trkpt><trkpt lat="46.00673369473664" lon="12.011403926001815"><ele>952.1428571428571</ele><time>2026-05-01T05:07:26Z</time></trkpt><trkpt lat="46.00667260479851" lon="12.011472975538467"><ele>953.0</ele><time>2026-05-01T05:07:27Z</time></trkpt><trkpt lat="46.0066088554175" lon="12.011490352003612"><ele>957.3333333333334</ele><time>2026-05-01T05:07:28Z</time></trkpt><trkpt lat="46.00652363278918" lon="12.011504733191632"><ele>961.6666666666667</ele><time>2026-05-01T05:07:29Z</time></trkpt><trkpt lat="46.00642666838961" lon="12.011498738058089"><ele>966.0</ele><time>2026-05-01T05:07:31Z</time></trkpt><trkpt lat="46.00635753621804" lon="12.011388686170603"><ele>970.3333333333333</ele><time>2026-05-01T05:07:34Z</time></trkpt><trkpt lat="46.006293157684915" lon="12.011355336666622"><ele>974.6666666666666</ele><time>2026-05-01T05:07:48Z</time></trkpt><trkpt lat="46.006218962651765" lon="12.011271114749466"><ele>979.0</ele><time>2026-05-01T05:09:43Z</time></trkpt><trkpt lat="46.00617281479841" lon="12.011145463503382"><ele>979.0</ele><time>2026-05-01T05:09:45Z</time></trkpt><trkpt lat="46.00609514723864" lon="12.011018124231008"><ele>979.0000000000001</ele><time>2026-05-01T05:09:47Z</time></trkpt><trkpt lat="46.006049235549206" lon="12.010953510508187"><ele>979.0000000000001</ele><time>2026-05-01T05:09:48Z</time></trkpt><trkpt lat="46.005961912394845" lon="12.010854221712686"><ele>979.0</ele><time>2026-05-01T05:09:50Z</time></trkpt><trkpt lat="46.00586266359912" lon="12.01070635081688"><ele>979.0</ele><time>2026-05-01T05:09:52Z</time></trkpt><trkpt lat="46.00577605660665" lon="12.010666999689295"><ele>977.4999999999999</ele><time>2026-05-01T05:09:53Z</time></trkpt><trkpt lat="46.00570890120011" lon="12.010619343523627"><ele>976.0</ele><time>2026-05-01T05:09:54Z</time></trkpt><trkpt lat="46.00564978407427" lon="12.01058722094741"><ele>974.5</ele><time>2026-05-01T05:09:55Z</time></trkpt><trkpt lat="46.00558311740558" lon="12.010538557817682"><ele>973.0</ele><time>2026-05-01T05:09:56Z</time></trkpt><trkpt lat="46.00551622284838" lon="12.010497532271462"><ele>971.4999999999999</ele><time>2026-05-01T05:09:57Z</time></trkpt><trkpt lat="46.005444862745335" lon="12.010455916417454"><ele>970.0</ele><time>2026-05-01T05:09:58Z</time></trkpt><trkpt lat="46.00535548576931" lon="12.010444279087032"><ele>969.9999999999999</ele><time>2026-05-01T05:09:59Z</time></trkpt><trkpt lat="46.00527233800694" lon="12.01042236534961"><ele>970.0</ele><time>2026-05-01T05:10:00Z</time></trkpt><trkpt lat="46.00518333855966" lon="12.01039363618395"><ele>970.0</ele><time>2026-05-01T05:10:01Z</time></trkpt><trkpt lat="46.00510567910876" lon="12.010388249713358"><ele>970.0</ele><time>2026-05-01T05:10:02Z</time></trkpt><trkpt lat="46.0050231967818" lon="12.010372813751845"><ele>969.9999999999999</ele><time>2026-05-01T05:10:03Z</time></trkpt><trkpt lat="46.004939260008925" lon="12.010366075881011"><ele>970.0</ele><time>2026-05-01T05:10:04Z</time></trkpt><trkpt lat="46.004862070761085" lon="12.010346492092623"><ele>971.8333333333333</ele><time>2026-05-01T05:10:05Z</time></trkpt><trkpt lat="46.00479135539009" lon="12.01031969031154"><ele>973.6666666666666</ele><time>2026-05-01T05:10:06Z</time></trkpt><trkpt lat="46.00472429782668" lon="12.010291668003276"><ele>975.5</ele><time>2026-05-01T05:10:07Z</time></trkpt><trkpt lat="46.004666927151966" lon="12.01025097923973"><ele>977.3333333333333</ele><time>2026-05-01T05:10:08Z</time></trkpt><trkpt lat="46.004605500661874" lon="12.01021943742517"><ele>979.1666666666666</ele><time>2026-05-01T05:10:09Z</time></trkpt><trkpt lat="46.00453573477253" lon="12.010174366299324"><ele>981.0</ele><time>2026-05-01T05:10:10Z</time></trkpt><trkpt lat="46.00440662814122" lon="12.01015831957659"><ele>981.0</ele><time>2026-05-01T05:10:12Z</time></trkpt><trkpt lat="46.00433660375733" lon="12.01015433110869"><ele>981.0</ele><time>2026-05-01T05:10:13Z</time></trkpt><trkpt lat="46.00425427852734" lon="12.01015350111435"><ele>981.0</ele><time>2026-05-01T05:10:14Z</time></trkpt><trkpt lat="46.00418679467695" lon="12.010145200892394"><ele>981.0</ele><time>2026-05-01T05:10:15Z</time></trkpt><trkpt lat="46.00412197555015" lon="12.010152494014019"><ele>981.0</ele><time>2026-05-01T05:10:16Z</time></trkpt><trkpt lat="46.00402086139148" lon="12.010198516296143"><ele>981.0</ele><time>2026-05-01T05:10:18Z</time></trkpt><trkpt lat="46.00395928916872" lon="12.010254229185344"><ele>979.5</ele><time>2026-05-01T05:10:19Z</time></trkpt><trkpt lat="46.00391056430095" lon="12.010327234214031"><ele>978.0</ele><time>2026-05-01T05:10:20Z</time></trkpt><trkpt lat="46.00384855209178" lon="12.010390472601381"><ele>976.5</ele><time>2026-05-01T05:10:21Z</time></trkpt><trkpt lat="46.003751386045195" lon="12.010479641276866"><ele>975.0</ele><time>2026-05-01T05:10:23Z</time></trkpt><trkpt lat="46.00369598583219" lon="12.01052707352895"><ele>973.5</ele><time>2026-05-01T05:10:24Z</time></trkpt><trkpt lat="46.00358816420619" lon="12.01059100798196"><ele>972.0</ele><time>2026-05-01T05:10:26Z</time></trkpt><trkpt lat="46.003506106656744" lon="12.010581813327569"><ele>972.0</ele><time>2026-05-01T05:10:27Z</time></trkpt><trkpt lat="46.00347202086567" lon="12.010660405280783"><ele>972.0</ele><time>2026-05-01T05:10:29Z</time></trkpt><trkpt lat="46.00337902910762" lon="12.010790718141909"><ele>972.0</ele><time>2026-05-01T05:10:33Z</time></trkpt><trkpt lat="46.00329351672912" lon="12.010807086311917"><ele>972.0</ele><time>2026-05-01T05:10:35Z</time></trkpt><trkpt lat="46.00320824123864" lon="12.010856397459776"><ele>972.0</ele><time>2026-05-01T05:10:37Z</time></trkpt><trkpt lat="46.00311067584406" lon="12.010900198510104"><ele>977.0</ele><time>2026-05-01T05:10:39Z</time></trkpt><trkpt lat="46.003002559354684" lon="12.010920553296394"><ele>982.0</ele><time>2026-05-01T05:10:41Z</time></trkpt><trkpt lat="46.00284963149037" lon="12.010885226558031"><ele>987.0</ele><time>2026-05-01T05:10:42Z</time></trkpt><trkpt lat="46.00273353420907" lon="12.010871727902275"><ele>992.0</ele><time>2026-05-01T05:10:43Z</time></trkpt><trkpt lat="46.00264445932206" lon="12.010880006821282"><ele>992.0</ele><time>2026-05-01T05:10:44Z</time></trkpt><trkpt lat="46.002563175580676" lon="12.01100222657879"><ele>992.0</ele><time>2026-05-01T05:10:46Z</time></trkpt><trkpt lat="46.002521049563434" lon="12.011110039552022"><ele>992.0</ele><time>2026-05-01T05:10:48Z</time></trkpt><trkpt lat="46.0024832058008" lon="12.011235121691833"><ele>992.0</ele><time>2026-05-01T05:10:50Z</time></trkpt><trkpt lat="46.00245297333837" lon="12.011338971397373"><ele>992.0</ele><time>2026-05-01T05:10:52Z</time></trkpt><trkpt lat="46.00236158456037" lon="12.011485298550179"><ele>992.1666666666667</ele><time>2026-05-01T05:10:53Z</time></trkpt><trkpt lat="46.002306846070574" lon="12.011560421274593"><ele>992.3333333333334</ele><time>2026-05-01T05:10:54Z</time></trkpt><trkpt lat="46.00225721439776" lon="12.011622199456601"><ele>992.5</ele><time>2026-05-01T05:10:55Z</time></trkpt><trkpt lat="46.00219126129581" lon="12.011714057015826"><ele>992.6666666666667</ele><time>2026-05-01T05:10:56Z</time></trkpt><trkpt lat="46.002080180387644" lon="12.011788519064226"><ele>992.8333333333334</ele><time>2026-05-01T05:10:57Z</time></trkpt><trkpt lat="46.00199761225927" lon="12.011822424240084"><ele>993.0</ele><time>2026-05-01T05:10:58Z</time></trkpt><trkpt lat="46.00192306889303" lon="12.011827694775391"><ele>993.0</ele><time>2026-05-01T05:10:59Z</time></trkpt><trkpt lat="46.001834476489506" lon="12.01188055865359"><ele>993.0</ele><time>2026-05-01T05:11:01Z</time></trkpt><trkpt lat="46.00178882459459" lon="12.011970338200886"><ele>993.0</ele><time>2026-05-01T05:11:02Z</time></trkpt><trkpt lat="46.00175492689098" lon="12.0120516901472"><ele>993.0</ele><time>2026-05-01T05:11:03Z</time></trkpt><trkpt lat="46.00166355589602" lon="12.012173361287985"><ele>993.0</ele><time>2026-05-01T05:11:05Z</time></trkpt><trkpt lat="46.001638215668656" lon="12.012257614469538"><ele>993.0</ele><time>2026-05-01T05:11:06Z</time></trkpt><trkpt lat="46.001577910191706" lon="12.012348481384231"><ele>994.2</ele><time>2026-05-01T05:11:08Z</time></trkpt><trkpt lat="46.00149032525558" lon="12.012461874430404"><ele>995.4</ele><time>2026-05-01T05:11:11Z</time></trkpt><trkpt lat="46.00143450670148" lon="12.012551657554265"><ele>996.6000000000001</ele><time>2026-05-01T05:11:12Z</time></trkpt><trkpt lat="46.00135329494929" lon="12.012652051969033"><ele>997.8000000000001</ele><time>2026-05-01T05:11:13Z</time></trkpt><trkpt lat="46.00129821555495" lon="12.01272960925456"><ele>999.0</ele><time>2026-05-01T05:11:14Z</time></trkpt><trkpt lat="46.00124780937594" lon="12.012832863959481"><ele>999.0</ele><time>2026-05-01T05:11:16Z</time></trkpt><trkpt lat="46.00117563203532" lon="12.012913561370395"><ele>999.0000000000001</ele><time>2026-05-01T05:11:18Z</time></trkpt><trkpt lat="46.00108940045996" lon="12.013060576127181"><ele>999.0000000000001</ele><time>2026-05-01T05:11:20Z</time></trkpt><trkpt lat="46.001021123203266" lon="12.013160879713578"><ele>999.0</ele><time>2026-05-01T05:11:21Z</time></trkpt><trkpt lat="46.0009592988827" lon="12.013239078566823"><ele>999.0</ele><time>2026-05-01T05:11:23Z</time></trkpt><trkpt lat="46.00089568908563" lon="12.013241476685284"><ele>1001.3333333333334</ele><time>2026-05-01T05:11:25Z</time></trkpt><trkpt lat="46.00081678242985" lon="12.013310625148229"><ele>1003.6666666666667</ele><time>2026-05-01T05:11:27Z</time></trkpt><trkpt lat="46.00073054724624" lon="12.013302927327608"><ele>1006.0</ele><time>2026-05-01T05:11:28.999Z</time></trkpt><trkpt lat="46.00065367735664" lon="12.013301784533304"><ele>1008.3333333333334</ele><time>2026-05-01T05:11:30.999Z</time></trkpt><trkpt lat="46.00058150919687" lon="12.013254667033777"><ele>1010.6666666666667</ele><time>2026-05-01T05:11:32Z</time></trkpt><trkpt lat="46.000476518221035" lon="12.013216592557265"><ele>1013.0</ele><time>2026-05-01T05:11:33Z</time></trkpt><trkpt lat="46.00039783021436" lon="12.013181644333793"><ele>1013.0000000000001</ele><time>2026-05-01T05:11:34Z</time></trkpt><trkpt lat="46.000304010987556" lon="12.013135901990186"><ele>1013.0</ele><time>2026-05-01T05:11:36Z</time></trkpt><trkpt lat="46.00023887495422" lon="12.01311536146157"><ele>1013.0</ele><time>2026-05-01T05:11:38Z</time></trkpt><trkpt lat="46.00015963827166" lon="12.013171151320869"><ele>1013.0</ele><time>2026-05-01T05:11:40Z</time></trkpt><trkpt lat="46.000089236536425" lon="12.013212410605474"><ele>1013.0000000000001</ele><time>2026-05-01T05:11:42Z</time></trkpt><trkpt lat="45.99998978789766" lon="12.013240743340166"><ele>1013.0</ele><time>2026-05-01T05:11:44Z</time></trkpt><trkpt lat="45.99987998206428" lon="12.01325936279854"><ele>1013.0</ele><time>2026-05-01T05:11:46Z</time></trkpt><trkpt lat="45.99978035937865" lon="12.013281847090182"><ele>1013.0</ele><time>2026-05-01T05:11:48Z</time></trkpt><trkpt lat="45.9996765134671" lon="12.013250790311647"><ele>1013.0</ele><time>2026-05-01T05:11:50Z</time></trkpt><trkpt lat="45.99957795107373" lon="12.013183302937758"><ele>1013.0</ele><time>2026-05-01T05:11:52Z</time></trkpt><trkpt lat="45.99949213188799" lon="12.01311821234857"><ele>1013.0</ele><time>2026-05-01T05:11:54Z</time></trkpt><trkpt lat="45.99939662920377" lon="12.013101880683779"><ele>1013.0</ele><time>2026-05-01T05:11:56Z</time></trkpt><trkpt lat="45.9992951824955" lon="12.01313219588476"><ele>1013.0</ele><time>2026-05-01T05:11:58Z</time></trkpt><trkpt lat="45.99920002564303" lon="12.01315118712515"><ele>1013.0</ele><time>2026-05-01T05:12:00Z</time></trkpt><trkpt lat="45.999086593707595" lon="12.013151027727812"><ele>1013.0</ele><time>2026-05-01T05:12:02Z</time></trkpt><trkpt lat="45.998977242666626" lon="12.01316294847305"><ele>1013.0</ele><time>2026-05-01T05:12:04Z</time></trkpt><trkpt lat="45.99889562200014" lon="12.013155145604097"><ele>1015.5000000000001</ele><time>2026-05-01T05:12:06Z</time></trkpt><trkpt lat="45.99884843700675" lon="12.013087209628354"><ele>1018.0</ele><time>2026-05-01T05:12:08Z</time></trkpt><trkpt lat="45.99880595800171" lon="12.013015831857793"><ele>1020.5</ele><time>2026-05-01T05:12:09Z</time></trkpt><trkpt lat="45.998743331352976" lon="12.012915680915944"><ele>1023.0</ele><time>2026-05-01T05:12:11Z</time></trkpt><trkpt lat="45.99865561930052" lon="12.012825153475688"><ele>1025.5</ele><time>2026-05-01T05:12:13Z</time></trkpt><trkpt lat="45.998572003940374" lon="12.012720385509294"><ele>1028.0</ele><time>2026-05-01T05:12:15Z</time></trkpt><trkpt lat="45.998496404351854" lon="12.012664324565977"><ele>1028.0</ele><time>2026-05-01T05:12:17Z</time></trkpt><trkpt lat="45.99843250420671" lon="12.012607884331324"><ele>1028.0</ele><time>2026-05-01T05:12:19Z</time></trkpt><trkpt lat="45.99835719375535" lon="12.012572900321326"><ele>1028.0</ele><time>2026-05-01T05:12:21Z</time></trkpt><trkpt lat="45.998291783719004" lon="12.012569345486558"><ele>1028.0</ele><time>2026-05-01T05:12:23Z</time></trkpt><trkpt lat="45.99822032353406" lon="12.01257504750697"><ele>1028.0</ele><time>2026-05-01T05:12:26Z</time></trkpt><trkpt lat="45.99815576771937" lon="12.012590415005112"><ele>1028.0</ele><time>2026-05-01T05:12:28Z</time></trkpt><trkpt lat="45.99806683732797" lon="12.012621955458552"><ele>1028.0</ele><time>2026-05-01T05:12:30Z</time></trkpt><trkpt lat="45.997946047318" lon="12.012619494535837"><ele>1027.0</ele><time>2026-05-01T05:12:32Z</time></trkpt><trkpt lat="45.99783274542409" lon="12.012597076418105"><ele>1026.0</ele><time>2026-05-01T05:12:34Z</time></trkpt><trkpt lat="45.99774173258081" lon="12.012489372342912"><ele>1025.0</ele><time>2026-05-01T05:12:36Z</time></trkpt><trkpt lat="45.99771209911449" lon="12.012409231584119"><ele>1024.0</ele><time>2026-05-01T05:12:37Z</time></trkpt><trkpt lat="45.99767657626184" lon="12.01224385017385"><ele>1023.0</ele><time>2026-05-01T05:12:39Z</time></trkpt><trkpt lat="45.99766939478555" lon="12.012150481796915"><ele>1023.0</ele><time>2026-05-01T05:12:40Z</time></trkpt><trkpt lat="45.99764795833546" lon="12.011996419971213"><ele>1023.0</ele><time>2026-05-01T05:12:42Z</time></trkpt><trkpt lat="45.99764937868063" lon="12.011837537051276"><ele>1023.0</ele><time>2026-05-01T05:12:44Z</time></trkpt><trkpt lat="45.997646641021824" lon="12.011707492804328"><ele>1023.0</ele><time>2026-05-01T05:12:46Z</time></trkpt><trkpt lat="45.99761822291409" lon="12.011608744474168"><ele>1023.0</ele><time>2026-05-01T05:12:49Z</time></trkpt><trkpt lat="45.99760880297062" lon="12.011509134443775"><ele>1022.2</ele><time>2026-05-01T05:12:51Z</time></trkpt><trkpt lat="45.997578027405176" lon="12.011299560072477"><ele>1021.4</ele><time>2026-05-01T05:12:53Z</time></trkpt><trkpt lat="45.99756481578736" lon="12.011201806838992"><ele>1020.6000000000001</ele><time>2026-05-01T05:12:54Z</time></trkpt><trkpt lat="45.99752763442447" lon="12.011078983993578"><ele>1019.8000000000001</ele><time>2026-05-01T05:12:56Z</time></trkpt><trkpt lat="45.99746264380794" lon="12.01099235921518"><ele>1019.0</ele><time>2026-05-01T05:12:58Z</time></trkpt><trkpt lat="45.997390083468986" lon="12.01089749555775"><ele>1019.0000000000001</ele><time>2026-05-01T05:13:00Z</time></trkpt><trkpt lat="45.997334357253585" lon="12.01083758576321"><ele>1019.0</ele><time>2026-05-01T05:13:02Z</time></trkpt><trkpt lat="45.997266942424545" lon="12.010784399395408"><ele>1019.0000000000001</ele><time>2026-05-01T05:13:16Z</time></trkpt><trkpt lat="45.9973250781118" lon="12.010847138398422"><ele>1019.0000000000001</ele><time>2026-05-01T05:13:31.999Z</time></trkpt><trkpt lat="45.99739271379187" lon="12.01089672499944"><ele>1019.0</ele><time>2026-05-01T05:13:33.999Z</time></trkpt><trkpt lat="45.99745183882345" lon="12.0109659997932"><ele>1019.0000000000001</ele><time>2026-05-01T05:13:35.999Z</time></trkpt><trkpt lat="45.99749263482089" lon="12.011035964604565"><ele>1019.0000000000001</ele><time>2026-05-01T05:13:38Z</time></trkpt><trkpt lat="45.99751275581638" lon="12.0111276950735"><ele>1019.0000000000001</ele><time>2026-05-01T05:13:40Z</time></trkpt><trkpt lat="45.9975353397281" lon="12.011243970828282"><ele>1019.0</ele><time>2026-05-01T05:13:42Z</time></trkpt><trkpt lat="45.99755096774568" lon="12.011368447371702"><ele>1019.0</ele><time>2026-05-01T05:13:44Z</time></trkpt><trkpt lat="45.99757312868081" lon="12.01146908557544"><ele>1019.0</ele><time>2026-05-01T05:13:46Z</time></trkpt><trkpt lat="45.99759370941989" lon="12.01158306761561"><ele>1019.0000000000001</ele><time>2026-05-01T05:13:48Z</time></trkpt><trkpt lat="45.99761275468795" lon="12.011670758527826"><ele>1019.0</ele><time>2026-05-01T05:13:50Z</time></trkpt><trkpt lat="45.99763119763635" lon="12.011778117858254"><ele>1019.6666666666667</ele><time>2026-05-01T05:13:52Z</time></trkpt><trkpt lat="45.997636187663744" lon="12.011887250570496"><ele>1020.3333333333334</ele><time>2026-05-01T05:13:54Z</time></trkpt><trkpt lat="45.99762404360708" lon="12.01203361536563"><ele>1021.0</ele><time>2026-05-01T05:13:56Z</time></trkpt><trkpt lat="45.99763602714299" lon="12.012159490764208"><ele>1021.6666666666667</ele><time>2026-05-01T05:13:58Z</time></trkpt><trkpt lat="45.99765300135265" lon="12.012256722229287"><ele>1022.3333333333334</ele><time>2026-05-01T05:13:59Z</time></trkpt><trkpt lat="45.99769031774669" lon="12.012383167121447"><ele>1023.0</ele><time>2026-05-01T05:14:01Z</time></trkpt><trkpt lat="45.99772386060822" lon="12.012506290369892"><ele>1028.6</ele><time>2026-05-01T05:14:03Z</time></trkpt><trkpt lat="45.997788099667424" lon="12.012589034289284"><ele>1034.1999999999998</ele><time>2026-05-01T05:14:05Z</time></trkpt><trkpt lat="45.997912809457695" lon="12.012612559441953"><ele>1039.8</ele><time>2026-05-01T05:14:07Z</time></trkpt><trkpt lat="45.99803266105878" lon="12.012597431309779"><ele>1045.3999999999999</ele><time>2026-05-01T05:14:09Z</time></trkpt><trkpt lat="45.99812962042838" lon="12.012589530267178"><ele>1051.0</ele><time>2026-05-01T05:14:11Z</time></trkpt><trkpt lat="45.99822415906635" lon="12.012589635283863"><ele>1046.3999999999999</ele><time>2026-05-01T05:14:13Z</time></trkpt><trkpt lat="45.9983389479142" lon="12.012580588523836"><ele>1041.8</ele><time>2026-05-01T05:14:15Z</time></trkpt><trkpt lat="45.99841802158055" lon="12.012600060854243"><ele>1037.1999999999998</ele><time>2026-05-01T05:14:17Z</time></trkpt><trkpt lat="45.99850065745614" lon="12.012641879344805"><ele>1032.6</ele><time>2026-05-01T05:14:19Z</time></trkpt><trkpt lat="45.998572029987656" lon="12.012737056191945"><ele>1028.0</ele><time>2026-05-01T05:14:21Z</time></trkpt><trkpt lat="45.9986509210522" lon="12.012820626223451"><ele>1028.0</ele><time>2026-05-01T05:14:23Z</time></trkpt><trkpt lat="45.998730582946386" lon="12.012922035917606"><ele>1028.0</ele><time>2026-05-01T05:14:25Z</time></trkpt><trkpt lat="45.99879690998111" lon="12.013025138119215"><ele>1028.0</ele><time>2026-05-01T05:14:27Z</time></trkpt><trkpt lat="45.99884392384052" lon="12.01310744203046"><ele>1028.0</ele><time>2026-05-01T05:14:29Z</time></trkpt><trkpt lat="45.99894488650518" lon="12.013165995508677"><ele>1028.0</ele><time>2026-05-01T05:14:32Z</time></trkpt><trkpt lat="45.99904981961584" lon="12.013167394589908"><ele>1025.0</ele><time>2026-05-01T05:14:34Z</time></trkpt><trkpt lat="45.999168866236" lon="12.013149995461069"><ele>1022.0</ele><time>2026-05-01T05:14:36Z</time></trkpt><trkpt lat="45.99927332795651" lon="12.013129575393211"><ele>1019.0</ele><time>2026-05-01T05:14:38Z</time></trkpt><trkpt lat="45.99937412946002" lon="12.013118931222099"><ele>1016.0</ele><time>2026-05-01T05:14:40Z</time></trkpt><trkpt lat="45.99947080001424" lon="12.013128697193325"><ele>1013.0</ele><time>2026-05-01T05:14:42Z</time></trkpt><trkpt lat="45.99956677212358" lon="12.013191751504781"><ele>1013.0000000000001</ele><time>2026-05-01T05:14:44Z</time></trkpt><trkpt lat="45.99965057944101" lon="12.013248454626247"><ele>1013.0</ele><time>2026-05-01T05:14:46Z</time></trkpt><trkpt lat="45.999753257404265" lon="12.013262327258449"><ele>1013.0</ele><time>2026-05-01T05:14:48Z</time></trkpt><trkpt lat="45.999842242870706" lon="12.013250674873317"><ele>1013.0</ele><time>2026-05-01T05:14:50Z</time></trkpt><trkpt lat="45.999919988362684" lon="12.013235297376218"><ele>1013.0000000000001</ele><time>2026-05-01T05:14:52Z</time></trkpt><trkpt lat="45.999996247234" lon="12.01321014547891"><ele>1013.0</ele><time>2026-05-01T05:14:54Z</time></trkpt><trkpt lat="46.000081966929066" lon="12.01315413923497"><ele>1013.0</ele><time>2026-05-01T05:14:56Z</time></trkpt><trkpt lat="46.00015434623009" lon="12.013176782772904"><ele>1013.0</ele><time>2026-05-01T05:14:58Z</time></trkpt><trkpt lat="46.00023248539368" lon="12.013170362743683"><ele>1013.0</ele><time>2026-05-01T05:15:00Z</time></trkpt><trkpt lat="46.000313199780614" lon="12.013250523943897"><ele>1013.0</ele><time>2026-05-01T05:15:03Z</time></trkpt><trkpt lat="46.000425230146824" lon="12.013331353076724"><ele>1013.0</ele><time>2026-05-01T05:15:05Z</time></trkpt><trkpt lat="46.00053310812193" lon="12.013380398386047"><ele>1010.2</ele><time>2026-05-01T05:15:07Z</time></trkpt><trkpt lat="46.00066282479464" lon="12.013407244749875"><ele>1007.4</ele><time>2026-05-01T05:15:09Z</time></trkpt><trkpt lat="46.00077231550233" lon="12.013417872654374"><ele>1004.6000000000001</ele><time>2026-05-01T05:15:11Z</time></trkpt><trkpt lat="46.00083800975935" lon="12.013403846386144"><ele>1001.8000000000001</ele><time>2026-05-01T05:15:12Z</time></trkpt><trkpt lat="46.00093016367577" lon="12.013335612829987"><ele>999.0</ele><time>2026-05-01T05:15:14Z</time></trkpt><trkpt lat="46.00100418307028" lon="12.013211446268198"><ele>999.0</ele><time>2026-05-01T05:15:16Z</time></trkpt><trkpt lat="46.00107106926233" lon="12.013105636659311"><ele>999.0000000000001</ele><time>2026-05-01T05:15:17.999Z</time></trkpt><trkpt lat="46.001142841185896" lon="12.012990472388617"><ele>999.0000000000001</ele><time>2026-05-01T05:15:19.999Z</time></trkpt><trkpt lat="46.001187352744516" lon="12.012910589709143"><ele>999.0</ele><time>2026-05-01T05:15:20.999Z</time></trkpt><trkpt lat="46.00127290683299" lon="12.012783855798608"><ele>999.0</ele><time>2026-05-01T05:15:22.999Z</time></trkpt><trkpt lat="46.001328088180315" lon="12.012725443639502"><ele>999.0</ele><time>2026-05-01T05:15:23.999Z</time></trkpt><trkpt lat="46.001377527497795" lon="12.01266834608953"><ele>999.0</ele><time>2026-05-01T05:15:24.999Z</time></trkpt><trkpt lat="46.001433444228546" lon="12.01258596552786"><ele>999.0</ele><time>2026-05-01T05:15:25.999Z</time></trkpt><trkpt lat="46.00148936474979" lon="12.012494683262727"><ele>999.0</ele><time>2026-05-01T05:15:26.999Z</time></trkpt><trkpt lat="46.001593173622204" lon="12.012379342043564"><ele>999.0</ele><time>2026-05-01T05:15:28.999Z</time></trkpt><trkpt lat="46.00163014143061" lon="12.012279291856641"><ele>999.0</ele><time>2026-05-01T05:15:29.999Z</time></trkpt><trkpt lat="46.00167555894417" lon="12.012211246664641"><ele>997.8000000000001</ele><time>2026-05-01T05:15:30.999Z</time></trkpt><trkpt lat="46.00172778117067" lon="12.012150450825489"><ele>996.6000000000001</ele><time>2026-05-01T05:15:31.999Z</time></trkpt><trkpt lat="46.00179190857687" lon="12.012027291450778"><ele>995.4</ele><time>2026-05-01T05:15:34.999Z</time></trkpt><trkpt lat="46.0019017201042" lon="12.011992453691748"><ele>994.2</ele><time>2026-05-01T05:15:36.999Z</time></trkpt><trkpt lat="46.0020149778713" lon="12.011973335137151"><ele>993.0</ele><time>2026-05-01T05:15:38.999Z</time></trkpt><trkpt lat="46.00210033631317" lon="12.011913832156752"><ele>993.0</ele><time>2026-05-01T05:15:40.999Z</time></trkpt><trkpt lat="46.002172920018005" lon="12.011830798158423"><ele>993.0</ele><time>2026-05-01T05:15:42.999Z</time></trkpt><trkpt lat="46.002229765538445" lon="12.011688135301144"><ele>993.0</ele><time>2026-05-01T05:15:45Z</time></trkpt><trkpt lat="46.00226115621955" lon="12.011593306025588"><ele>993.0</ele><time>2026-05-01T05:15:46Z</time></trkpt><trkpt lat="46.00229234161151" lon="12.011496740584098"><ele>993.0</ele><time>2026-05-01T05:15:47Z</time></trkpt><trkpt lat="46.00233084943718" lon="12.011416132721621"><ele>993.0</ele><time>2026-05-01T05:15:48Z</time></trkpt><trkpt lat="46.002372957417975" lon="12.011321845262737"><ele>992.8</ele><time>2026-05-01T05:15:49Z</time></trkpt><trkpt lat="46.00240475483613" lon="12.011241053698907"><ele>992.5999999999999</ele><time>2026-05-01T05:15:50Z</time></trkpt><trkpt lat="46.00246847292609" lon="12.011126163055867"><ele>992.4000000000001</ele><time>2026-05-01T05:15:52Z</time></trkpt><trkpt lat="46.002546923022535" lon="12.011052165529945"><ele>992.2</ele><time>2026-05-01T05:15:54Z</time></trkpt><trkpt lat="46.002625700854665" lon="12.011001563941287"><ele>992.0</ele><time>2026-05-01T05:15:56Z</time></trkpt><trkpt lat="46.002732766919955" lon="12.011023856102558"><ele>992.0000000000001</ele><time>2026-05-01T05:15:59Z</time></trkpt><trkpt lat="46.002772924539805" lon="12.010939751693675"><ele>992.0</ele><time>2026-05-01T05:16:09Z</time></trkpt><trkpt lat="46.002668737206164" lon="12.010893527622322"><ele>992.0</ele><time>2026-05-01T05:16:14Z</time></trkpt><trkpt lat="46.00260437591783" lon="12.010875514849767"><ele>992.0</ele><time>2026-05-01T05:16:15Z</time></trkpt><trkpt lat="46.00250606304346" lon="12.010856279023104"><ele>992.0000000000001</ele><time>2026-05-01T05:16:17Z</time></trkpt><trkpt lat="46.00243085930226" lon="12.010829669726142"><ele>992.0</ele><time>2026-05-01T05:16:20Z</time></trkpt><trkpt lat="46.00236590113086" lon="12.010899309917477"><ele>986.6</ele><time>2026-05-01T05:16:23Z</time></trkpt><trkpt lat="46.00232360233883" lon="12.010990152728287"><ele>981.2</ele><time>2026-05-01T05:16:25Z</time></trkpt><trkpt lat="46.0022941088374" lon="12.011097450739602"><ele>975.8</ele><time>2026-05-01T05:16:28Z</time></trkpt><trkpt lat="46.00224914340484" lon="12.011195849884187"><ele>970.4</ele><time>2026-05-01T05:16:30Z</time></trkpt><trkpt lat="46.002151168339815" lon="12.011338676053082"><ele>965.0</ele><time>2026-05-01T05:16:32Z</time></trkpt><trkpt lat="46.00203334005787" lon="12.01137672534235"><ele>965.0</ele><time>2026-05-01T05:16:34Z</time></trkpt><trkpt lat="46.00191999064408" lon="12.011408221438517"><ele>965.0</ele><time>2026-05-01T05:16:36Z</time></trkpt><trkpt lat="46.00180948573394" lon="12.011417488713187"><ele>965.0</ele><time>2026-05-01T05:16:38Z</time></trkpt><trkpt lat="46.001716076545485" lon="12.011475244038488"><ele>965.0</ele><time>2026-05-01T05:16:40Z</time></trkpt><trkpt lat="46.00165510347058" lon="12.011597420730762"><ele>965.0</ele><time>2026-05-01T05:16:42Z</time></trkpt><trkpt lat="46.001600041345" lon="12.01169386424891"><ele>965.6</ele><time>2026-05-01T05:16:44Z</time></trkpt><trkpt lat="46.00154947542719" lon="12.011823572043498"><ele>966.2</ele><time>2026-05-01T05:16:46Z</time></trkpt><trkpt lat="46.00149781149766" lon="12.01187640129987"><ele>966.8</ele><time>2026-05-01T05:16:47Z</time></trkpt><trkpt lat="46.00143965281233" lon="12.012000875575207"><ele>967.4</ele><time>2026-05-01T05:16:49Z</time></trkpt><trkpt lat="46.00134894662358" lon="12.01210721925322"><ele>968.0</ele><time>2026-05-01T05:16:51Z</time></trkpt><trkpt lat="46.0012865347215" lon="12.012181678195107"><ele>968.0000000000001</ele><time>2026-05-01T05:16:53Z</time></trkpt><trkpt lat="46.00123039490127" lon="12.012265502627487"><ele>968.0</ele><time>2026-05-01T05:16:54Z</time></trkpt><trkpt lat="46.00116845656502" lon="12.012336718465228"><ele>968.0</ele><time>2026-05-01T05:16:56Z</time></trkpt><trkpt lat="46.00112448405342" lon="12.012411054168169"><ele>968.0</ele><time>2026-05-01T05:16:57Z</time></trkpt><trkpt lat="46.00101630864591" lon="12.012477256224557"><ele>968.0000000000001</ele><time>2026-05-01T05:16:59Z</time></trkpt><trkpt lat="46.00098269217234" lon="12.012554195241455"><ele>968.0</ele><time>2026-05-01T05:17:00Z</time></trkpt><trkpt lat="46.00092379696811" lon="12.012598536453757"><ele>969.1666666666667</ele><time>2026-05-01T05:17:01Z</time></trkpt><trkpt lat="46.00080354468642" lon="12.012611296479161"><ele>970.3333333333334</ele><time>2026-05-01T05:17:03Z</time></trkpt><trkpt lat="46.000737083710476" lon="12.012590999767658"><ele>971.5</ele><time>2026-05-01T05:17:05Z</time></trkpt><trkpt lat="46.00066981356149" lon="12.01253240308207"><ele>972.6666666666667</ele><time>2026-05-01T05:17:07Z</time></trkpt><trkpt lat="46.00059396529475" lon="12.012461207393716"><ele>973.8333333333334</ele><time>2026-05-01T05:17:09Z</time></trkpt><trkpt lat="46.00053943860522" lon="12.012397907112437"><ele>975.0</ele><time>2026-05-01T05:17:11Z</time></trkpt><trkpt lat="46.00049901548963" lon="12.012305972835703"><ele>975.0</ele><time>2026-05-01T05:17:13Z</time></trkpt><trkpt lat="46.00044260888282" lon="12.012222742065397"><ele>975.0</ele><time>2026-05-01T05:17:15Z</time></trkpt><trkpt lat="46.00038934915301" lon="12.012133438015288"><ele>975.0</ele><time>2026-05-01T05:17:17Z</time></trkpt><trkpt lat="46.000327686164006" lon="12.012087208519127"><ele>975.0</ele><time>2026-05-01T05:17:19Z</time></trkpt><trkpt lat="46.00024357903363" lon="12.012062718976987"><ele>975.0</ele><time>2026-05-01T05:17:22Z</time></trkpt><trkpt lat="46.000164641284215" lon="12.012101888083416"><ele>975.0</ele><time>2026-05-01T05:17:23.999Z</time></trkpt><trkpt lat="46.000089613973856" lon="12.012087115910223"><ele>975.0</ele><time>2026-05-01T05:17:25.999Z</time></trkpt><trkpt lat="46.00000192705383" lon="12.012079130926413"><ele>975.0</ele><time>2026-05-01T05:17:27.999Z</time></trkpt><trkpt lat="45.99990189106762" lon="12.012034573342705"><ele>975.0</ele><time>2026-05-01T05:17:29.999Z</time></trkpt><trkpt lat="45.99981200904949" lon="12.011943357850647"><ele>975.0</ele><time>2026-05-01T05:17:31.999Z</time></trkpt><trkpt lat="45.999759764583274" lon="12.011877886765102"><ele>975.0</ele><time>2026-05-01T05:17:33.999Z</time></trkpt><trkpt lat="45.999696566610005" lon="12.011824796259981"><ele>975.0</ele><time>2026-05-01T05:17:35.999Z</time></trkpt><trkpt lat="45.99962880166071" lon="12.011747617698541"><ele>967.2</ele><time>2026-05-01T05:17:37.999Z</time></trkpt><trkpt lat="45.99960369418373" lon="12.01162184699963"><ele>959.4</ele><time>2026-05-01T05:17:39.999Z</time></trkpt><trkpt lat="45.999535374368016" lon="12.011619910771072"><ele>951.5999999999999</ele><time>2026-05-01T05:17:40.999Z</time></trkpt><trkpt lat="45.99945639015813" lon="12.011558355171843"><ele>943.8</ele><time>2026-05-01T05:17:42.999Z</time></trkpt><trkpt lat="45.999359151247155" lon="12.011468548130367"><ele>936.0</ele><time>2026-05-01T05:17:44.999Z</time></trkpt><trkpt lat="45.999308436447066" lon="12.011359906323785"><ele>936.0</ele><time>2026-05-01T05:17:46.999Z</time></trkpt><trkpt lat="45.99926850223086" lon="12.011286645856115"><ele>936.0</ele><time>2026-05-01T05:17:48.999Z</time></trkpt><trkpt lat="45.99923214240821" lon="12.011168253585891"><ele>936.0</ele><time>2026-05-01T05:17:51Z</time></trkpt><trkpt lat="45.99921191820664" lon="12.011042177553618"><ele>936.0</ele><time>2026-05-01T05:17:53Z</time></trkpt><trkpt lat="45.999193731639515" lon="12.010940164936887"><ele>936.0</ele><time>2026-05-01T05:17:55Z</time></trkpt><trkpt lat="45.99917513159413" lon="12.01083985477315"><ele>936.0</ele><time>2026-05-01T05:17:57Z</time></trkpt><trkpt lat="45.999197250950715" lon="12.010750420733697"><ele>930.6666666666666</ele><time>2026-05-01T05:17:59Z</time></trkpt><trkpt lat="45.99918613760285" lon="12.010659555351449"><ele>925.3333333333333</ele><time>2026-05-01T05:18:01Z</time></trkpt><trkpt lat="45.999220169958065" lon="12.01054681553185"><ele>920.0</ele><time>2026-05-01T05:18:03Z</time></trkpt><trkpt lat="45.9992399586714" lon="12.010383130767444"><ele>914.6666666666666</ele><time>2026-05-01T05:18:05Z</time></trkpt><trkpt lat="45.99925841982203" lon="12.010292378246602"><ele>909.3333333333333</ele><time>2026-05-01T05:18:07Z</time></trkpt><trkpt lat="45.99926371973247" lon="12.010191198295193"><ele>904.0</ele><time>2026-05-01T05:18:09Z</time></trkpt><trkpt lat="45.99927977102956" lon="12.010020737260374"><ele>900.8000000000001</ele><time>2026-05-01T05:18:11Z</time></trkpt><trkpt lat="45.99926363048694" lon="12.009856824499396"><ele>897.6000000000001</ele><time>2026-05-01T05:18:13Z</time></trkpt><trkpt lat="45.999264559370076" lon="12.009691177426767"><ele>894.4</ele><time>2026-05-01T05:18:15Z</time></trkpt><trkpt lat="45.99925569829704" lon="12.009537108018236"><ele>891.2</ele><time>2026-05-01T05:18:17Z</time></trkpt><trkpt lat="45.99924124055294" lon="12.009380026241844"><ele>888.0</ele><time>2026-05-01T05:18:19Z</time></trkpt><trkpt lat="45.9992036820702" lon="12.009199841225065"><ele>885.2</ele><time>2026-05-01T05:18:21Z</time></trkpt><trkpt lat="45.9991822290061" lon="12.009037149084383"><ele>882.4</ele><time>2026-05-01T05:18:23Z</time></trkpt><trkpt lat="45.99916812471188" lon="12.008947515363184"><ele>879.6000000000001</ele><time>2026-05-01T05:18:24Z</time></trkpt><trkpt lat="45.999145984958574" lon="12.008853466668507"><ele>876.8000000000001</ele><time>2026-05-01T05:18:25Z</time></trkpt><trkpt lat="45.99912811790023" lon="12.008702551221788"><ele>874.0</ele><time>2026-05-01T05:18:27Z</time></trkpt><trkpt lat="45.99906940026814" lon="12.008573701964652"><ele>879.2</ele><time>2026-05-01T05:18:29Z</time></trkpt><trkpt lat="45.998979179363374" lon="12.008457011849377"><ele>884.4000000000001</ele><time>2026-05-01T05:18:31Z</time></trkpt><trkpt lat="45.998895173704305" lon="12.008351146708794"><ele>889.6</ele><time>2026-05-01T05:18:33Z</time></trkpt><trkpt lat="45.9988466773966" lon="12.00828922986542"><ele>894.8</ele><time>2026-05-01T05:18:34Z</time></trkpt><trkpt lat="45.998761135565836" lon="12.008163772022211"><ele>900.0</ele><time>2026-05-01T05:18:36Z</time></trkpt><trkpt lat="45.99868312148421" lon="12.008066538839861"><ele>900.0</ele><time>2026-05-01T05:18:38Z</time></trkpt><trkpt lat="45.99861114439184" lon="12.00796713634196"><ele>900.0</ele><time>2026-05-01T05:18:40Z</time></trkpt><trkpt lat="45.99853238470564" lon="12.00784619692358"><ele>900.0</ele><time>2026-05-01T05:18:42Z</time></trkpt><trkpt lat="45.99846883656939" lon="12.007768331493244"><ele>900.0</ele><time>2026-05-01T05:18:44Z</time></trkpt><trkpt lat="45.998377251105225" lon="12.007645521888302"><ele>900.0</ele><time>2026-05-01T05:18:46Z</time></trkpt><trkpt lat="45.99828277355734" lon="12.007549076057334"><ele>901.2</ele><time>2026-05-01T05:18:48Z</time></trkpt><trkpt lat="45.998226274548735" lon="12.007487871838538"><ele>902.4</ele><time>2026-05-01T05:18:49Z</time></trkpt><trkpt lat="45.99812295379371" lon="12.007380127825394"><ele>903.5999999999999</ele><time>2026-05-01T05:18:51Z</time></trkpt><trkpt lat="45.998055987603784" lon="12.007332948874009"><ele>904.8</ele><time>2026-05-01T05:18:52Z</time></trkpt><trkpt lat="45.99799392573701" lon="12.007279353504483"><ele>906.0</ele><time>2026-05-01T05:18:53Z</time></trkpt><trkpt lat="45.997871577174344" lon="12.007252157153282"><ele>906.0</ele><time>2026-05-01T05:18:55Z</time></trkpt><trkpt lat="45.99775475503253" lon="12.007270771079723"><ele>905.9999999999999</ele><time>2026-05-01T05:18:57Z</time></trkpt><trkpt lat="45.99766267663025" lon="12.007187824050641"><ele>905.9999999999999</ele><time>2026-05-01T05:18:59Z</time></trkpt><trkpt lat="45.997587134166885" lon="12.007048116236353"><ele>906.0</ele><time>2026-05-01T05:19:02Z</time></trkpt><trkpt lat="45.99755388852989" lon="12.00694382519115"><ele>906.0</ele><time>2026-05-01T05:19:04Z</time></trkpt><trkpt lat="45.99750232353323" lon="12.006839941789943"><ele>908.0</ele><time>2026-05-01T05:19:05Z</time></trkpt><trkpt lat="45.99748464549985" lon="12.006737794432999"><ele>910.0</ele><time>2026-05-01T05:19:07Z</time></trkpt><trkpt lat="45.99749071604849" lon="12.006645140837467"><ele>912.0</ele><time>2026-05-01T05:19:09Z</time></trkpt><trkpt lat="45.99750681666973" lon="12.006496590402296"><ele>914.0</ele><time>2026-05-01T05:19:12Z</time></trkpt><trkpt lat="45.99755740843896" lon="12.006337232977714"><ele>916.0</ele><time>2026-05-01T05:19:14Z</time></trkpt><trkpt lat="45.99760488698833" lon="12.006246527679105"><ele>918.0</ele><time>2026-05-01T05:19:15Z</time></trkpt><trkpt lat="45.99764249850716" lon="12.006161627770664"><ele>918.0</ele><time>2026-05-01T05:19:16Z</time></trkpt><trkpt lat="45.99768168001562" lon="12.006085070849226"><ele>918.0</ele><time>2026-05-01T05:19:17Z</time></trkpt><trkpt lat="45.99780475860978" lon="12.005956854138065"><ele>918.0</ele><time>2026-05-01T05:19:19Z</time></trkpt><trkpt lat="45.99794921526719" lon="12.005863658631405"><ele>918.0</ele><time>2026-05-01T05:19:21Z</time></trkpt><trkpt lat="45.99801392133698" lon="12.005832123224602"><ele>918.0</ele><time>2026-05-01T05:19:22Z</time></trkpt><trkpt lat="45.99807401648397" lon="12.005787735421833"><ele>915.3333333333334</ele><time>2026-05-01T05:19:23Z</time></trkpt><trkpt lat="45.998136600925186" lon="12.005746560228312"><ele>912.6666666666667</ele><time>2026-05-01T05:19:24Z</time></trkpt><trkpt lat="45.998205071121745" lon="12.00569358013313"><ele>910.0</ele><time>2026-05-01T05:19:25Z</time></trkpt><trkpt lat="45.998277279595094" lon="12.005695792936017"><ele>907.3333333333334</ele><time>2026-05-01T05:19:26.999Z</time></trkpt><trkpt lat="45.998353722867535" lon="12.005649450664283"><ele>904.6666666666667</ele><time>2026-05-01T05:19:27.999Z</time></trkpt><trkpt lat="45.99844985812961" lon="12.005622424850378"><ele>902.0</ele><time>2026-05-01T05:19:29.999Z</time></trkpt><trkpt lat="45.99855542389496" lon="12.00553566498366"><ele>902.0</ele><time>2026-05-01T05:19:31.999Z</time></trkpt><trkpt lat="45.99862484392646" lon="12.005489330531843"><ele>902.0</ele><time>2026-05-01T05:19:32.999Z</time></trkpt><trkpt lat="45.99871187743397" lon="12.005422870475638"><ele>902.0</ele><time>2026-05-01T05:19:34.999Z</time></trkpt><trkpt lat="45.99877061557024" lon="12.005385520576857"><ele>902.0</ele><time>2026-05-01T05:19:35.999Z</time></trkpt><trkpt lat="45.998865776119736" lon="12.00530284256849"><ele>902.0</ele><time>2026-05-01T05:19:37.999Z</time></trkpt><trkpt lat="45.998937837096456" lon="12.005194044604714"><ele>902.0000000000001</ele><time>2026-05-01T05:19:39.999Z</time></trkpt><trkpt lat="45.998960529462856" lon="12.005047828899233"><ele>902.0</ele><time>2026-05-01T05:19:41.999Z</time></trkpt><trkpt lat="45.998956698545584" lon="12.004916554050629"><ele>902.0</ele><time>2026-05-01T05:19:43.999Z</time></trkpt><trkpt lat="45.998933558289" lon="12.00482860107287"><ele>902.0</ele><time>2026-05-01T05:19:44.999Z</time></trkpt><trkpt lat="45.99889375120425" lon="12.004704977913962"><ele>902.0000000000001</ele><time>2026-05-01T05:19:45.999Z</time></trkpt><trkpt lat="45.9989033312214" lon="12.004572839905023"><ele>902.0</ele><time>2026-05-01T05:19:46.999Z</time></trkpt><trkpt lat="45.99888647100846" lon="12.004454689390935"><ele>902.4000000000001</ele><time>2026-05-01T05:19:47.999Z</time></trkpt><trkpt lat="45.99887455503718" lon="12.004325882375483"><ele>902.8000000000001</ele><time>2026-05-01T05:19:48.999Z</time></trkpt><trkpt lat="45.99886009787958" lon="12.00417788233306"><ele>903.2</ele><time>2026-05-01T05:19:49.999Z</time></trkpt><trkpt lat="45.99883599526384" lon="12.004029643431702"><ele>903.6</ele><time>2026-05-01T05:19:50.999Z</time></trkpt><trkpt lat="45.998826897721166" lon="12.00387855619424"><ele>904.0</ele><time>2026-05-01T05:19:51.999Z</time></trkpt><trkpt lat="45.99878538302894" lon="12.003756873228447"><ele>903.9999999999999</ele><time>2026-05-01T05:19:52.999Z</time></trkpt><trkpt lat="45.99876013410873" lon="12.003634951261875"><ele>904.0</ele><time>2026-05-01T05:19:53.999Z</time></trkpt><trkpt lat="45.99875768977275" lon="12.003536234453138"><ele>904.0</ele><time>2026-05-01T05:19:54.999Z</time></trkpt><trkpt lat="45.99873152880985" lon="12.00343124606682"><ele>904.0</ele><time>2026-05-01T05:19:56Z</time></trkpt><trkpt lat="45.998703725584306" lon="12.003348611316515"><ele>903.9999999999999</ele><time>2026-05-01T05:19:57Z</time></trkpt><trkpt lat="45.99868814774946" lon="12.003228688109889"><ele>904.0</ele><time>2026-05-01T05:19:58Z</time></trkpt><trkpt lat="45.99869158314643" lon="12.00313107447479"><ele>903.6666666666666</ele><time>2026-05-01T05:19:59Z</time></trkpt><trkpt lat="45.99866872512079" lon="12.003038832949917"><ele>903.3333333333333</ele><time>2026-05-01T05:20:00Z</time></trkpt><trkpt lat="45.99863664062412" lon="12.002938210310713"><ele>903.0</ele><time>2026-05-01T05:20:01Z</time></trkpt><trkpt lat="45.998631698613174" lon="12.002824610717424"><ele>902.6666666666667</ele><time>2026-05-01T05:20:02Z</time></trkpt><trkpt lat="45.99860955672839" lon="12.002701363577648"><ele>902.3333333333334</ele><time>2026-05-01T05:20:03Z</time></trkpt><trkpt lat="45.99858746553129" lon="12.002586430884113"><ele>902.0</ele><time>2026-05-01T05:20:04Z</time></trkpt><trkpt lat="45.99855635545907" lon="12.002463306621083"><ele>901.1666666666667</ele><time>2026-05-01T05:20:05Z</time></trkpt><trkpt lat="45.9985187513133" lon="12.00234387998787"><ele>900.3333333333334</ele><time>2026-05-01T05:20:06Z</time></trkpt><trkpt lat="45.99847976936752" lon="12.00224155909333"><ele>899.5</ele><time>2026-05-01T05:20:07Z</time></trkpt><trkpt lat="45.99843442922578" lon="12.002160365381462"><ele>898.6666666666667</ele><time>2026-05-01T05:20:08Z</time></trkpt><trkpt lat="45.99838845789229" lon="12.002089087472319"><ele>897.8333333333334</ele><time>2026-05-01T05:20:09Z</time></trkpt><trkpt lat="45.998339620148386" lon="12.002004626813942"><ele>897.0</ele><time>2026-05-01T05:20:10Z</time></trkpt><trkpt lat="45.99828367885049" lon="12.001942462250227"><ele>903.0</ele><time>2026-05-01T05:20:11Z</time></trkpt><trkpt lat="45.998219843670064" lon="12.001904113161316"><ele>909.0</ele><time>2026-05-01T05:20:12Z</time></trkpt><trkpt lat="45.99816404306029" lon="12.001856474488115"><ele>915.0</ele><time>2026-05-01T05:20:13Z</time></trkpt><trkpt lat="45.998096549407954" lon="12.00179877070008"><ele>921.0</ele><time>2026-05-01T05:20:14Z</time></trkpt><trkpt lat="45.99802751446188" lon="12.001764298034956"><ele>927.0</ele><time>2026-05-01T05:20:15Z</time></trkpt><trkpt lat="45.997972881762536" lon="12.001676039824384"><ele>933.0</ele><time>2026-05-01T05:20:16Z</time></trkpt><trkpt lat="45.99786676069109" lon="12.001737168496781"><ele>933.0</ele><time>2026-05-01T05:20:18Z</time></trkpt><trkpt lat="45.9978191704919" lon="12.001850931624057"><ele>933.0</ele><time>2026-05-01T05:20:20Z</time></trkpt><trkpt lat="45.997870007835544" lon="12.00198954042312"><ele>933.0</ele><time>2026-05-01T05:20:22Z</time></trkpt><trkpt lat="45.99792635915421" lon="12.002041757708088"><ele>933.0</ele><time>2026-05-01T05:20:23Z</time></trkpt><trkpt lat="45.99798141563866" lon="12.002085886578197"><ele>933.0</ele><time>2026-05-01T05:20:24Z</time></trkpt><trkpt lat="45.99806607174132" lon="12.002212910153503"><ele>933.0</ele><time>2026-05-01T05:20:26Z</time></trkpt><trkpt lat="45.99808808418501" lon="12.002366442681897"><ele>933.0</ele><time>2026-05-01T05:20:28Z</time></trkpt><trkpt lat="45.998089763233445" lon="12.002463587922481"><ele>933.0</ele><time>2026-05-01T05:20:29Z</time></trkpt><trkpt lat="45.998044176862216" lon="12.002575820034949"><ele>933.0</ele><time>2026-05-01T05:20:31Z</time></trkpt><trkpt lat="45.99793790972132" lon="12.002607977257407"><ele>933.0</ele><time>2026-05-01T05:20:33Z</time></trkpt><trkpt lat="45.997805112256046" lon="12.002566625470665"><ele>935.4</ele><time>2026-05-01T05:20:35Z</time></trkpt><trkpt lat="45.9977072293554" lon="12.00250726787534"><ele>937.8</ele><time>2026-05-01T05:20:37Z</time></trkpt><trkpt lat="45.99756855482496" lon="12.002509106594394"><ele>940.2</ele><time>2026-05-01T05:20:39Z</time></trkpt><trkpt lat="45.99748272830663" lon="12.00249205835654"><ele>942.6</ele><time>2026-05-01T05:20:40Z</time></trkpt><trkpt lat="45.99740850223752" lon="12.002476710065347"><ele>945.0</ele><time>2026-05-01T05:20:41Z</time></trkpt><trkpt lat="45.99734068855273" lon="12.00245316838721"><ele>945.0</ele><time>2026-05-01T05:20:42Z</time></trkpt><trkpt lat="45.997261945314726" lon="12.002446826218717"><ele>945.0</ele><time>2026-05-01T05:20:43Z</time></trkpt><trkpt lat="45.9971729613125" lon="12.0024596623663"><ele>945.0</ele><time>2026-05-01T05:20:44Z</time></trkpt><trkpt lat="45.99708703269657" lon="12.002497832405265"><ele>945.0</ele><time>2026-05-01T05:20:45Z</time></trkpt><trkpt lat="45.99699345288444" lon="12.002521880438369"><ele>945.0</ele><time>2026-05-01T05:20:46Z</time></trkpt><trkpt lat="45.996896248029124" lon="12.002540570126417"><ele>948.8</ele><time>2026-05-01T05:20:47Z</time></trkpt><trkpt lat="45.99680086065436" lon="12.002562674111699"><ele>952.6</ele><time>2026-05-01T05:20:48Z</time></trkpt><trkpt lat="45.996714223964595" lon="12.002594065910909"><ele>956.4000000000001</ele><time>2026-05-01T05:20:49Z</time></trkpt><trkpt lat="45.9966228810415" lon="12.00266498193917"><ele>960.2</ele><time>2026-05-01T05:20:50Z</time></trkpt><trkpt lat="45.996532281506596" lon="12.002747624438813"><ele>964.0</ele><time>2026-05-01T05:20:51Z</time></trkpt><trkpt lat="45.996449153885116" lon="12.00279085343851"><ele>966.6666666666666</ele><time>2026-05-01T05:20:52Z</time></trkpt><trkpt lat="45.996363298078684" lon="12.002822930343997"><ele>969.3333333333333</ele><time>2026-05-01T05:20:53Z</time></trkpt><trkpt lat="45.99627269335147" lon="12.002820580670614"><ele>972.0</ele><time>2026-05-01T05:20:54Z</time></trkpt><trkpt lat="45.99618967184129" lon="12.002805921925132"><ele>974.6666666666667</ele><time>2026-05-01T05:20:55Z</time></trkpt><trkpt lat="45.99610934890176" lon="12.00281431101049"><ele>977.3333333333334</ele><time>2026-05-01T05:20:56Z</time></trkpt><trkpt lat="45.99601342417456" lon="12.002864747616183"><ele>980.0</ele><time>2026-05-01T05:20:58Z</time></trkpt><trkpt lat="45.995998445665826" lon="12.00302954693067"><ele>980.0000000000001</ele><time>2026-05-01T05:21:00Z</time></trkpt><trkpt lat="45.99602246414695" lon="12.003121886684722"><ele>980.0</ele><time>2026-05-01T05:21:01Z</time></trkpt><trkpt lat="45.99606101707034" lon="12.003211580859984"><ele>980.0</ele><time>2026-05-01T05:21:02Z</time></trkpt><trkpt lat="45.996078632801435" lon="12.003330346371811"><ele>980.0</ele><time>2026-05-01T05:21:03Z</time></trkpt><trkpt lat="45.99609500452371" lon="12.003447765141058"><ele>980.0000000000001</ele><time>2026-05-01T05:21:04Z</time></trkpt><trkpt lat="45.99610802899143" lon="12.003537460323267"><ele>980.0</ele><time>2026-05-01T05:21:05Z</time></trkpt><trkpt lat="45.99611546428007" lon="12.00367188665268"><ele>981.8</ele><time>2026-05-01T05:21:06Z</time></trkpt><trkpt lat="45.996103272402856" lon="12.00378440973494"><ele>983.6</ele><time>2026-05-01T05:21:07Z</time></trkpt><trkpt lat="45.99608537924413" lon="12.003901824913621"><ele>985.4000000000001</ele><time>2026-05-01T05:21:08Z</time></trkpt><trkpt lat="45.99605937131377" lon="12.004040895045996"><ele>987.2</ele><time>2026-05-01T05:21:09Z</time></trkpt><trkpt lat="45.99603518795205" lon="12.004180697923976"><ele>989.0</ele><time>2026-05-01T05:21:10Z</time></trkpt><trkpt lat="45.99599318708812" lon="12.004360168830683"><ele>990.6</ele><time>2026-05-01T05:21:11Z</time></trkpt><trkpt lat="45.99594095611214" lon="12.004544675866464"><ele>992.2</ele><time>2026-05-01T05:21:12Z</time></trkpt><trkpt lat="45.995892585432514" lon="12.004651502433903"><ele>993.8000000000001</ele><time>2026-05-01T05:21:13Z</time></trkpt><trkpt lat="45.99584855642821" lon="12.00479835667817"><ele>995.4000000000001</ele><time>2026-05-01T05:21:14Z</time></trkpt><trkpt lat="45.995805773792846" lon="12.004943147535032"><ele>997.0</ele><time>2026-05-01T05:21:15Z</time></trkpt><trkpt lat="45.99576305294278" lon="12.005100120910836"><ele>1004.0</ele><time>2026-05-01T05:21:16Z</time></trkpt><trkpt lat="45.995743262146874" lon="12.005240645777262"><ele>1011.0</ele><time>2026-05-01T05:21:17Z</time></trkpt><trkpt lat="45.99573062960496" lon="12.005348204035306"><ele>1018.0</ele><time>2026-05-01T05:21:18Z</time></trkpt><trkpt lat="45.99569316672791" lon="12.005537403416731"><ele>1025.0</ele><time>2026-05-01T05:21:20Z</time></trkpt><trkpt lat="45.99564591526259" lon="12.005667433783122"><ele>1032.0</ele><time>2026-05-01T05:21:21Z</time></trkpt><trkpt lat="45.99558432539582" lon="12.005795329942822"><ele>1031.6666666666667</ele><time>2026-05-01T05:21:22Z</time></trkpt><trkpt lat="45.99552749404197" lon="12.005860927403981"><ele>1031.3333333333333</ele><time>2026-05-01T05:21:23Z</time></trkpt><trkpt lat="45.99546169227032" lon="12.00590929052359"><ele>1031.0</ele><time>2026-05-01T05:21:24Z</time></trkpt><trkpt lat="45.995402470427194" lon="12.00594856549263"><ele>1030.6666666666665</ele><time>2026-05-01T05:21:25Z</time></trkpt><trkpt lat="45.99534062014449" lon="12.005984393362638"><ele>1030.3333333333333</ele><time>2026-05-01T05:21:26Z</time></trkpt><trkpt lat="45.9952694638185" lon="12.006011610526725"><ele>1030.0</ele><time>2026-05-01T05:21:27Z</time></trkpt><trkpt lat="45.99515017813195" lon="12.006064005248131"><ele>1030.0</ele><time>2026-05-01T05:21:29Z</time></trkpt><trkpt lat="45.99507604923599" lon="12.006106726026472"><ele>1030.0</ele><time>2026-05-01T05:21:30Z</time></trkpt><trkpt lat="45.99497191863512" lon="12.006167885568745"><ele>1030.0</ele><time>2026-05-01T05:21:31Z</time></trkpt><trkpt lat="45.99487889502561" lon="12.00621861339179"><ele>1030.0</ele><time>2026-05-01T05:21:32Z</time></trkpt><trkpt lat="45.994812484647" lon="12.00624625944757"><ele>1030.0</ele><time>2026-05-01T05:21:33Z</time></trkpt><trkpt lat="45.994744016875984" lon="12.006336816786316"><ele>1034.5</ele><time>2026-05-01T05:21:35Z</time></trkpt><trkpt lat="45.99469163933037" lon="12.00639187753406"><ele>1039.0</ele><time>2026-05-01T05:21:36Z</time></trkpt><trkpt lat="45.99463664858188" lon="12.006526224448006"><ele>1043.5</ele><time>2026-05-01T05:21:37.999Z</time></trkpt><trkpt lat="45.99462870595171" lon="12.006635094363338"><ele>1048.0</ele><time>2026-05-01T05:21:38.999Z</time></trkpt><trkpt lat="45.99463334395034" lon="12.00673250978722"><ele>1052.5</ele><time>2026-05-01T05:21:39.999Z</time></trkpt><trkpt lat="45.994651817259154" lon="12.006903708449942"><ele>1057.0</ele><time>2026-05-01T05:21:41.999Z</time></trkpt><trkpt lat="45.99466754783814" lon="12.00699975819658"><ele>1057.0</ele><time>2026-05-01T05:21:42.999Z</time></trkpt><trkpt lat="45.99469222391489" lon="12.007088316259166"><ele>1057.0</ele><time>2026-05-01T05:21:43.999Z</time></trkpt><trkpt lat="45.99472831884743" lon="12.007209167256487"><ele>1057.0</ele><time>2026-05-01T05:21:45.999Z</time></trkpt><trkpt lat="45.99467677869134" lon="12.007305402511594"><ele>1057.0</ele><time>2026-05-01T05:21:48.999Z</time></trkpt><trkpt lat="45.99459916707405" lon="12.007229709770105"><ele>1057.0</ele><time>2026-05-01T05:21:49.999Z</time></trkpt><trkpt lat="45.99457353796343" lon="12.00711316562898"><ele>1057.0</ele><time>2026-05-01T05:21:50.999Z</time></trkpt><trkpt lat="45.994531132284884" lon="12.007012653721691"><ele>1057.0</ele><time>2026-05-01T05:21:51.999Z</time></trkpt><trkpt lat="45.994471126867" lon="12.006886505685621"><ele>1057.0</ele><time>2026-05-01T05:21:53.999Z</time></trkpt><trkpt lat="45.99439140554514" lon="12.006747898570936"><ele>1057.0</ele><time>2026-05-01T05:21:55.999Z</time></trkpt><trkpt lat="45.9943441345193" lon="12.006672958916292"><ele>1057.0</ele><time>2026-05-01T05:21:56.999Z</time></trkpt><trkpt lat="45.99430430918977" lon="12.006576610794431"><ele>1057.0</ele><time>2026-05-01T05:21:57.999Z</time></trkpt><trkpt lat="45.994259319039195" lon="12.00650045904866"><ele>1057.0</ele><time>2026-05-01T05:21:58.999Z</time></trkpt><trkpt lat="45.99417108919918" lon="12.006324660081544"><ele>1061.4</ele><time>2026-05-01T05:22:00.999Z</time></trkpt><trkpt lat="45.99411740577196" lon="12.006221118740006"><ele>1065.8000000000002</ele><time>2026-05-01T05:22:02Z</time></trkpt><trkpt lat="45.994071659877875" lon="12.006140430024503"><ele>1070.2</ele><time>2026-05-01T05:22:03Z</time></trkpt><trkpt lat="45.994030051928476" lon="12.006035991189137"><ele>1074.6000000000001</ele><time>2026-05-01T05:22:04Z</time></trkpt><trkpt lat="45.9939681822794" lon="12.00587353578234"><ele>1079.0</ele><time>2026-05-01T05:22:06Z</time></trkpt><trkpt lat="45.993957062367805" lon="12.005761580162034"><ele>1079.0</ele><time>2026-05-01T05:22:07Z</time></trkpt><trkpt lat="45.99396644059934" lon="12.005655013985713"><ele>1079.0</ele><time>2026-05-01T05:22:08Z</time></trkpt><trkpt lat="45.99398793687979" lon="12.00555954468416"><ele>1079.0</ele><time>2026-05-01T05:22:09Z</time></trkpt><trkpt lat="45.99402313155869" lon="12.005425384677817"><ele>1079.0</ele><time>2026-05-01T05:22:11Z</time></trkpt><trkpt lat="45.99400756530592" lon="12.005269719142653"><ele>1079.0</ele><time>2026-05-01T05:22:13Z</time></trkpt><trkpt lat="45.99395620138708" lon="12.005124441156655"><ele>1079.0</ele><time>2026-05-01T05:22:15Z</time></trkpt><trkpt lat="45.99388111941838" lon="12.005048805341865"><ele>1079.0</ele><time>2026-05-01T05:22:17Z</time></trkpt><trkpt lat="45.99377868604603" lon="12.005011865155707"><ele>1079.0</ele><time>2026-05-01T05:22:19Z</time></trkpt><trkpt lat="45.993666474045604" lon="12.00499781409619"><ele>1079.0</ele><time>2026-05-01T05:22:21Z</time></trkpt><trkpt lat="45.993549064293" lon="12.004992985404028"><ele>1079.0</ele><time>2026-05-01T05:22:23Z</time></trkpt><trkpt lat="45.993475138634324" lon="12.00497973811684"><ele>1079.0</ele><time>2026-05-01T05:22:24Z</time></trkpt><trkpt lat="45.993374052952866" lon="12.00502051102827"><ele>1079.0</ele><time>2026-05-01T05:22:26Z</time></trkpt><trkpt lat="45.99326291015472" lon="12.00510177324856"><ele>1079.0</ele><time>2026-05-01T05:22:28Z</time></trkpt><trkpt lat="45.99319695182811" lon="12.00512734580525"><ele>1079.0</ele><time>2026-05-01T05:22:29Z</time></trkpt><trkpt lat="45.99308358926459" lon="12.005172520499151"><ele>1079.0</ele><time>2026-05-01T05:22:31Z</time></trkpt><trkpt lat="45.992972770391646" lon="12.005178280769925"><ele>1084.0</ele><time>2026-05-01T05:22:33Z</time></trkpt><trkpt lat="45.99287104157109" lon="12.005152256483267"><ele>1089.0</ele><time>2026-05-01T05:22:35Z</time></trkpt><trkpt lat="45.99275187486121" lon="12.005124264109785"><ele>1094.0</ele><time>2026-05-01T05:22:37Z</time></trkpt><trkpt lat="45.99266194865215" lon="12.005070094609236"><ele>1099.0</ele><time>2026-05-01T05:22:39Z</time></trkpt><trkpt lat="45.992594438670636" lon="12.005067970751918"><ele>1104.0</ele><time>2026-05-01T05:22:41Z</time></trkpt><trkpt lat="45.99254717159177" lon="12.005143479618539"><ele>1104.0</ele><time>2026-05-01T05:22:43Z</time></trkpt><trkpt lat="45.992527800523135" lon="12.005283688563752"><ele>1104.0</ele><time>2026-05-01T05:22:45Z</time></trkpt><trkpt lat="45.99250734472041" lon="12.005424616946655"><ele>1104.0</ele><time>2026-05-01T05:22:47Z</time></trkpt><trkpt lat="45.99254102261487" lon="12.00552458673241"><ele>1104.0</ele><time>2026-05-01T05:22:49Z</time></trkpt><trkpt lat="45.99262777976514" lon="12.005578632760406"><ele>1104.0</ele><time>2026-05-01T05:22:51Z</time></trkpt><trkpt lat="45.992714854871615" lon="12.005682354396006"><ele>1104.0</ele><time>2026-05-01T05:22:53Z</time></trkpt><trkpt lat="45.99278180917356" lon="12.00580666599911"><ele>1104.0</ele><time>2026-05-01T05:22:55Z</time></trkpt><trkpt lat="45.992836258569184" lon="12.005933256472872"><ele>1104.0</ele><time>2026-05-01T05:22:57Z</time></trkpt><trkpt lat="45.992770830047164" lon="12.006013792974723"><ele>1104.0</ele><time>2026-05-01T05:23:00Z</time></trkpt><trkpt lat="45.99269972054974" lon="12.005984353857178"><ele>1104.0</ele><time>2026-05-01T05:23:02Z</time></trkpt><trkpt lat="45.99260796352525" lon="12.005961110367963"><ele>1106.1666666666667</ele><time>2026-05-01T05:23:05Z</time></trkpt><trkpt lat="45.99255088482971" lon="12.006028695995722"><ele>1108.3333333333333</ele><time>2026-05-01T05:23:07Z</time></trkpt><trkpt lat="45.992511941143796" lon="12.006139501578563"><ele>1110.5</ele><time>2026-05-01T05:23:09Z</time></trkpt><trkpt lat="45.99249932485411" lon="12.006329954929296"><ele>1112.6666666666665</ele><time>2026-05-01T05:23:11Z</time></trkpt><trkpt lat="45.992502637679955" lon="12.006443709103767"><ele>1114.8333333333333</ele><time>2026-05-01T05:23:12Z</time></trkpt><trkpt lat="45.99250478045354" lon="12.00654135238114"><ele>1117.0</ele><time>2026-05-01T05:23:13Z</time></trkpt><trkpt lat="45.992497922315806" lon="12.00669753099127"><ele>1122.2</ele><time>2026-05-01T05:23:15Z</time></trkpt><trkpt lat="45.992494765753555" lon="12.006877042692858"><ele>1127.4</ele><time>2026-05-01T05:23:17Z</time></trkpt><trkpt lat="45.99250090607134" lon="12.007011931547177"><ele>1132.6</ele><time>2026-05-01T05:23:19Z</time></trkpt><trkpt lat="45.992476449597646" lon="12.00710962302691"><ele>1137.8</ele><time>2026-05-01T05:23:21Z</time></trkpt><trkpt lat="45.99239063905231" lon="12.00716577151986"><ele>1143.0</ele><time>2026-05-01T05:23:24Z</time></trkpt><trkpt lat="45.99227448326394" lon="12.007174001912004"><ele>1143.0</ele><time>2026-05-01T05:23:26Z</time></trkpt><trkpt lat="45.99218588531091" lon="12.007206980896406"><ele>1143.0</ele><time>2026-05-01T05:23:28Z</time></trkpt><trkpt lat="45.99213975111805" lon="12.007289896527666"><ele>1143.0</ele><time>2026-05-01T05:23:30Z</time></trkpt><trkpt lat="45.99215705493448" lon="12.007401086793788"><ele>1143.0</ele><time>2026-05-01T05:23:32Z</time></trkpt><trkpt lat="45.99223562683967" lon="12.007528867454727"><ele>1143.0</ele><time>2026-05-01T05:23:34Z</time></trkpt><trkpt lat="45.99228137013446" lon="12.00759278431828"><ele>1143.0</ele><time>2026-05-01T05:23:35Z</time></trkpt><trkpt lat="45.9922893544799" lon="12.007739910280296"><ele>1141.6</ele><time>2026-05-01T05:23:37Z</time></trkpt><trkpt lat="45.99234479888735" lon="12.007915064184512"><ele>1140.1999999999998</ele><time>2026-05-01T05:23:39Z</time></trkpt><trkpt lat="45.9924355808445" lon="12.008034542308582"><ele>1138.8</ele><time>2026-05-01T05:23:40Z</time></trkpt><trkpt lat="45.99250755568497" lon="12.008110896260897"><ele>1137.3999999999999</ele><time>2026-05-01T05:23:41Z</time></trkpt><trkpt lat="45.99256185725528" lon="12.008222389689474"><ele>1136.0</ele><time>2026-05-01T05:23:43Z</time></trkpt><trkpt lat="45.99248581710764" lon="12.008272183316855"><ele>1140.6</ele><time>2026-05-01T05:23:46Z</time></trkpt><trkpt lat="45.99239851295471" lon="12.008214309968556"><ele>1145.1999999999998</ele><time>2026-05-01T05:23:48Z</time></trkpt><trkpt lat="45.99233292506202" lon="12.008148016813042"><ele>1149.8000000000002</ele><time>2026-05-01T05:23:50Z</time></trkpt><trkpt lat="45.99224060912959" lon="12.008098416028373"><ele>1154.4</ele><time>2026-05-01T05:23:52Z</time></trkpt><trkpt lat="45.99217631698113" lon="12.008063912954976"><ele>1159.0</ele><time>2026-05-01T05:23:53Z</time></trkpt><trkpt lat="45.992066901794956" lon="12.008093834462475"><ele>1159.0</ele><time>2026-05-01T05:23:55Z</time></trkpt><trkpt lat="45.992011310581766" lon="12.008220395914535"><ele>1159.0</ele><time>2026-05-01T05:23:57.999Z</time></trkpt><trkpt lat="45.99202760802671" lon="12.008373215509122"><ele>1159.0</ele><time>2026-05-01T05:23:59.999Z</time></trkpt><trkpt lat="45.9920492771512" lon="12.008465667743698"><ele>1159.0</ele><time>2026-05-01T05:24:00.999Z</time></trkpt><trkpt lat="45.99207587829502" lon="12.008569652209186"><ele>1159.0</ele><time>2026-05-01T05:24:01.999Z</time></trkpt><trkpt lat="45.99210822411359" lon="12.008677137468467"><ele>1159.0</ele><time>2026-05-01T05:24:02.999Z</time></trkpt><trkpt lat="45.99212234320762" lon="12.008842931298354"><ele>1162.2</ele><time>2026-05-01T05:24:04.999Z</time></trkpt><trkpt lat="45.99210729572931" lon="12.008944203346216"><ele>1165.4</ele><time>2026-05-01T05:24:05.999Z</time></trkpt><trkpt lat="45.99207107277406" lon="12.009149391168812"><ele>1168.6</ele><time>2026-05-01T05:24:08Z</time></trkpt><trkpt lat="45.99203210422543" lon="12.009277617483717"><ele>1171.8</ele><time>2026-05-01T05:24:09Z</time></trkpt><trkpt lat="45.99200466777329" lon="12.009406240706632"><ele>1175.0</ele><time>2026-05-01T05:24:10Z</time></trkpt><trkpt lat="45.99197539620459" lon="12.00951288005898"><ele>1177.6</ele><time>2026-05-01T05:24:11Z</time></trkpt><trkpt lat="45.99194207817722" lon="12.009657017978697"><ele>1180.2</ele><time>2026-05-01T05:24:12Z</time></trkpt><trkpt lat="45.99190837138786" lon="12.00980218143115"><ele>1182.8</ele><time>2026-05-01T05:24:13Z</time></trkpt><trkpt lat="45.99187162429893" lon="12.009939301726032"><ele>1185.4</ele><time>2026-05-01T05:24:14Z</time></trkpt><trkpt lat="45.99181952739073" lon="12.010047479582939"><ele>1188.0</ele><time>2026-05-01T05:24:15Z</time></trkpt><trkpt lat="45.99176870040734" lon="12.010166059569393"><ele>1188.1666666666667</ele><time>2026-05-01T05:24:16Z</time></trkpt><trkpt lat="45.991732964774904" lon="12.010260580707401"><ele>1188.3333333333333</ele><time>2026-05-01T05:24:17Z</time></trkpt><trkpt lat="45.991712464586286" lon="12.010374038349447"><ele>1188.5</ele><time>2026-05-01T05:24:18Z</time></trkpt><trkpt lat="45.99168802365738" lon="12.010500257201768"><ele>1188.6666666666665</ele><time>2026-05-01T05:24:19Z</time></trkpt><trkpt lat="45.991673838798285" lon="12.010617252926727"><ele>1188.8333333333333</ele><time>2026-05-01T05:24:20Z</time></trkpt><trkpt lat="45.99166373729711" lon="12.010726255583984"><ele>1189.0</ele><time>2026-05-01T05:24:21Z</time></trkpt><trkpt lat="45.991665804192685" lon="12.010850514633344"><ele>1189.8</ele><time>2026-05-01T05:24:22Z</time></trkpt><trkpt lat="45.99168285451742" lon="12.01097204299498"><ele>1190.6000000000001</ele><time>2026-05-01T05:24:23Z</time></trkpt><trkpt lat="45.991708733593796" lon="12.011100750762305"><ele>1191.4</ele><time>2026-05-01T05:24:24Z</time></trkpt><trkpt lat="45.991751451512684" lon="12.011257860713949"><ele>1192.2</ele><time>2026-05-01T05:24:25Z</time></trkpt><trkpt lat="45.99177819241859" lon="12.011420825269793"><ele>1193.0</ele><time>2026-05-01T05:24:26Z</time></trkpt><trkpt lat="45.99178727614917" lon="12.01153876691306"><ele>1193.0</ele><time>2026-05-01T05:24:27Z</time></trkpt><trkpt lat="45.991811741738815" lon="12.01165202419895"><ele>1193.0</ele><time>2026-05-01T05:24:28Z</time></trkpt><trkpt lat="45.99182343464792" lon="12.011747930770742"><ele>1193.0</ele><time>2026-05-01T05:24:29Z</time></trkpt><trkpt lat="45.99183548086549" lon="12.011858076337235"><ele>1193.0</ele><time>2026-05-01T05:24:30Z</time></trkpt><trkpt lat="45.991857326459915" lon="12.01197491627237"><ele>1193.0</ele><time>2026-05-01T05:24:31Z</time></trkpt><trkpt lat="45.991882340824446" lon="12.012083787877199"><ele>1193.0</ele><time>2026-05-01T05:24:32Z</time></trkpt><trkpt lat="45.99189956227662" lon="12.012173480945446"><ele>1194.9999999999998</ele><time>2026-05-01T05:24:33Z</time></trkpt><trkpt lat="45.99191445314808" lon="12.012269259315124"><ele>1197.0</ele><time>2026-05-01T05:24:34Z</time></trkpt><trkpt lat="45.99192648360672" lon="12.012358469684017"><ele>1199.0</ele><time>2026-05-01T05:24:35Z</time></trkpt><trkpt lat="45.99191535436971" lon="12.012499079317573"><ele>1201.0</ele><time>2026-05-01T05:24:37Z</time></trkpt><trkpt lat="45.991887103040085" lon="12.012596980004737"><ele>1203.0</ele><time>2026-05-01T05:24:39Z</time></trkpt><trkpt lat="45.9918462653659" lon="12.01270100609026"><ele>1204.9999999999998</ele><time>2026-05-01T05:24:42Z</time></trkpt><trkpt lat="45.99180106397247" lon="12.01276432028174"><ele>1207.0</ele><time>2026-05-01T05:24:51Z</time></trkpt><trkpt lat="45.9917070107502" lon="12.012837561284949"><ele>1210.1666666666665</ele><time>2026-05-01T05:28:44.999Z</time></trkpt><trkpt lat="45.9916122890575" lon="12.012952533446498"><ele>1213.3333333333333</ele><time>2026-05-01T05:28:46.999Z</time></trkpt><trkpt lat="45.99155075104629" lon="12.013006921690211"><ele>1216.5</ele><time>2026-05-01T05:28:47.999Z</time></trkpt><trkpt lat="45.99146767183097" lon="12.013030428174215"><ele>1219.6666666666667</ele><time>2026-05-01T05:28:48.999Z</time></trkpt><trkpt lat="45.99139682311072" lon="12.013085582369596"><ele>1222.8333333333335</ele><time>2026-05-01T05:28:49.999Z</time></trkpt><trkpt lat="45.9913306549753" lon="12.013135837780526"><ele>1226.0</ele><time>2026-05-01T05:28:50.999Z</time></trkpt><trkpt lat="45.99125663649902" lon="12.013192055583907"><ele>1226.0</ele><time>2026-05-01T05:28:51.999Z</time></trkpt><trkpt lat="45.99119912336684" lon="12.013235043113825"><ele>1226.0</ele><time>2026-05-01T05:28:52.999Z</time></trkpt><trkpt lat="45.991140364048945" lon="12.013276278773432"><ele>1226.0</ele><time>2026-05-01T05:28:53.999Z</time></trkpt><trkpt lat="45.99109110138938" lon="12.013342413999343"><ele>1226.0</ele><time>2026-05-01T05:28:54.999Z</time></trkpt><trkpt lat="45.990973435573515" lon="12.01338511549247"><ele>1226.0</ele><time>2026-05-01T05:28:56.999Z</time></trkpt><trkpt lat="45.99086077980324" lon="12.013393260671016"><ele>1226.0</ele><time>2026-05-01T05:28:58.999Z</time></trkpt><trkpt lat="45.99074908811106" lon="12.013408557465716"><ele>1224.1666666666667</ele><time>2026-05-01T05:29:00.999Z</time></trkpt><trkpt lat="45.990684880062595" lon="12.01343799689635"><ele>1222.3333333333335</ele><time>2026-05-01T05:29:01.999Z</time></trkpt><trkpt lat="45.99060013007368" lon="12.013457224858003"><ele>1220.5</ele><time>2026-05-01T05:29:02.999Z</time></trkpt><trkpt lat="45.99051528613251" lon="12.01344979505927"><ele>1218.6666666666667</ele><time>2026-05-01T05:29:03.999Z</time></trkpt><trkpt lat="45.990423439550035" lon="12.013432032102719"><ele>1216.8333333333333</ele><time>2026-05-01T05:29:04.999Z</time></trkpt><trkpt lat="45.99031456731" lon="12.01342103043636"><ele>1215.0</ele><time>2026-05-01T05:29:05.999Z</time></trkpt><trkpt lat="45.99020588382074" lon="12.013427631234368"><ele>1215.0</ele><time>2026-05-01T05:29:06.999Z</time></trkpt><trkpt lat="45.99009123194044" lon="12.013421742105232"><ele>1215.0</ele><time>2026-05-01T05:29:07.999Z</time></trkpt><trkpt lat="45.98997648799037" lon="12.013465908618647"><ele>1215.0</ele><time>2026-05-01T05:29:08.999Z</time></trkpt><trkpt lat="45.98986323951377" lon="12.013473982579173"><ele>1215.0</ele><time>2026-05-01T05:29:09.999Z</time></trkpt><trkpt lat="45.98975194292957" lon="12.013466248801674"><ele>1214.5</ele><time>2026-05-01T05:29:10.999Z</time></trkpt><trkpt lat="45.98963856504233" lon="12.013443692007685"><ele>1214.0</ele><time>2026-05-01T05:29:11.999Z</time></trkpt><trkpt lat="45.98952468311083" lon="12.01341834548784"><ele>1213.5</ele><time>2026-05-01T05:29:12.999Z</time></trkpt><trkpt lat="45.989411210471154" lon="12.013397013298219"><ele>1213.0</ele><time>2026-05-01T05:29:13.999Z</time></trkpt><trkpt lat="45.98929613910132" lon="12.013378209424348"><ele>1213.0</ele><time>2026-05-01T05:29:14.999Z</time></trkpt><trkpt lat="45.9891844517078" lon="12.013365638798"><ele>1213.0</ele><time>2026-05-01T05:29:15.999Z</time></trkpt><trkpt lat="45.9890752020468" lon="12.013315330405788"><ele>1213.0</ele><time>2026-05-01T05:29:16.999Z</time></trkpt><trkpt lat="45.98896290465907" lon="12.013295122174423"><ele>1213.0</ele><time>2026-05-01T05:29:17.999Z</time></trkpt><trkpt lat="45.98884411316817" lon="12.013282487725071"><ele>1209.0</ele><time>2026-05-01T05:29:18.999Z</time></trkpt><trkpt lat="45.98873178666757" lon="12.013267997581863"><ele>1205.0</ele><time>2026-05-01T05:29:19.999Z</time></trkpt><trkpt lat="45.98862421103496" lon="12.013230829009451"><ele>1201.0</ele><time>2026-05-01T05:29:20.999Z</time></trkpt><trkpt lat="45.98852550910369" lon="12.01316485121817"><ele>1197.0</ele><time>2026-05-01T05:29:21.999Z</time></trkpt><trkpt lat="45.98842620888678" lon="12.013086272475519"><ele>1193.0</ele><time>2026-05-01T05:29:22.999Z</time></trkpt><trkpt lat="45.98832404583802" lon="12.013029486359944"><ele>1193.0</ele><time>2026-05-01T05:29:23.999Z</time></trkpt><trkpt lat="45.98822186674963" lon="12.013010476537593"><ele>1193.0</ele><time>2026-05-01T05:29:24.999Z</time></trkpt><trkpt lat="45.98812256030349" lon="12.012997842419638"><ele>1193.0</ele><time>2026-05-01T05:29:25.999Z</time></trkpt><trkpt lat="45.98801370905658" lon="12.01298602584805"><ele>1193.0</ele><time>2026-05-01T05:29:26.999Z</time></trkpt><trkpt lat="45.98789775598195" lon="12.012970481480377"><ele>1193.0</ele><time>2026-05-01T05:29:27.999Z</time></trkpt><trkpt lat="45.98777349676761" lon="12.012941726356182"><ele>1193.0</ele><time>2026-05-01T05:29:28.999Z</time></trkpt><trkpt lat="45.98766246931908" lon="12.012906745258862"><ele>1193.0</ele><time>2026-05-01T05:29:29.999Z</time></trkpt><trkpt lat="45.98756108032355" lon="12.012867026481645"><ele>1193.0</ele><time>2026-05-01T05:29:30.999Z</time></trkpt><trkpt lat="45.98745944906437" lon="12.012829239593598"><ele>1193.0</ele><time>2026-05-01T05:29:31.999Z</time></trkpt><trkpt lat="45.98736482474039" lon="12.012795496567831"><ele>1193.0</ele><time>2026-05-01T05:29:32.999Z</time></trkpt><trkpt lat="45.98727005088131" lon="12.012761216098012"><ele>1194.0</ele><time>2026-05-01T05:29:33.999Z</time></trkpt><trkpt lat="45.98715777379278" lon="12.012717788867002"><ele>1195.0</ele><time>2026-05-01T05:29:34.999Z</time></trkpt><trkpt lat="45.987046093499686" lon="12.012676599339839"><ele>1196.0</ele><time>2026-05-01T05:29:35.999Z</time></trkpt><trkpt lat="45.986949356284086" lon="12.012632171844036"><ele>1197.0</ele><time>2026-05-01T05:29:36.999Z</time></trkpt><trkpt lat="45.986868444547405" lon="12.012570067318615"><ele>1198.0</ele><time>2026-05-01T05:29:37.999Z</time></trkpt><trkpt lat="45.98679313012781" lon="12.012502249158707"><ele>1196.6</ele><time>2026-05-01T05:29:38.999Z</time></trkpt><trkpt lat="45.98671355936705" lon="12.012422102364582"><ele>1195.1999999999998</ele><time>2026-05-01T05:29:39.999Z</time></trkpt><trkpt lat="45.98663292018233" lon="12.012341071313342"><ele>1193.8</ele><time>2026-05-01T05:29:40.999Z</time></trkpt><trkpt lat="45.98654270188964" lon="12.012261046952295"><ele>1192.3999999999999</ele><time>2026-05-01T05:29:41.999Z</time></trkpt><trkpt lat="45.986463270435486" lon="12.012193590390549"><ele>1191.0</ele><time>2026-05-01T05:29:42.999Z</time></trkpt><trkpt lat="45.98638209958009" lon="12.012132136886239"><ele>1191.0</ele><time>2026-05-01T05:29:43.999Z</time></trkpt><trkpt lat="45.9862972932766" lon="12.012071002289149"><ele>1191.0</ele><time>2026-05-01T05:29:44.999Z</time></trkpt><trkpt lat="45.98624516544448" lon="12.011972559920288"><ele>1191.0</ele><time>2026-05-01T05:29:45.999Z</time></trkpt><trkpt lat="45.98617808057727" lon="12.011913530588021"><ele>1191.0</ele><time>2026-05-01T05:29:46.999Z</time></trkpt><trkpt lat="45.986127396482274" lon="12.011838137268365"><ele>1191.0</ele><time>2026-05-01T05:29:47.999Z</time></trkpt><trkpt lat="45.986066300207725" lon="12.011772629310803"><ele>1191.0</ele><time>2026-05-01T05:29:48.999Z</time></trkpt><trkpt lat="45.986005144566086" lon="12.011708711446058"><ele>1190.4285714285716</ele><time>2026-05-01T05:29:49.999Z</time></trkpt><trkpt lat="45.985950379406034" lon="12.011645687823702"><ele>1189.857142857143</ele><time>2026-05-01T05:29:50.999Z</time></trkpt><trkpt lat="45.98589934115155" lon="12.011572214101827"><ele>1189.2857142857142</ele><time>2026-05-01T05:29:51.999Z</time></trkpt><trkpt lat="45.98584813485189" lon="12.011499225714704"><ele>1188.7142857142858</ele><time>2026-05-01T05:29:52.999Z</time></trkpt><trkpt lat="45.985787950739734" lon="12.011422075168607"><ele>1188.142857142857</ele><time>2026-05-01T05:29:53.999Z</time></trkpt><trkpt lat="45.98572137303818" lon="12.011369252769105"><ele>1187.5714285714287</ele><time>2026-05-01T05:29:54.999Z</time></trkpt><trkpt lat="45.98564878445681" lon="12.01133241391747"><ele>1187.0</ele><time>2026-05-01T05:29:55.999Z</time></trkpt><trkpt lat="45.985568146398386" lon="12.011296085976984"><ele>1187.0</ele><time>2026-05-01T05:29:56.999Z</time></trkpt><trkpt lat="45.985501161839295" lon="12.011263810333613"><ele>1187.0</ele><time>2026-05-01T05:29:57.999Z</time></trkpt><trkpt lat="45.98543433194517" lon="12.01120850075204"><ele>1187.0</ele><time>2026-05-01T05:29:58.999Z</time></trkpt><trkpt lat="45.9853698571942" lon="12.011151323581075"><ele>1187.0</ele><time>2026-05-01T05:29:59.999Z</time></trkpt><trkpt lat="45.98530318331798" lon="12.01109987193422"><ele>1187.0</ele><time>2026-05-01T05:30:00.999Z</time></trkpt><trkpt lat="45.98522706450322" lon="12.011066245784185"><ele>1187.0</ele><time>2026-05-01T05:30:01.999Z</time></trkpt><trkpt lat="45.9851422675442" lon="12.011044844543452"><ele>1187.0</ele><time>2026-05-01T05:30:02.999Z</time></trkpt><trkpt lat="45.98505774867183" lon="12.011027097946432"><ele>1187.0</ele><time>2026-05-01T05:30:03.999Z</time></trkpt><trkpt lat="45.9849720678218" lon="12.01100520341653"><ele>1187.0</ele><time>2026-05-01T05:30:04.999Z</time></trkpt><trkpt lat="45.98489164329629" lon="12.010962263568743"><ele>1187.0</ele><time>2026-05-01T05:30:05.999Z</time></trkpt><trkpt lat="45.984802825811535" lon="12.010909831343797"><ele>1187.0</ele><time>2026-05-01T05:30:06.999Z</time></trkpt><trkpt lat="45.98472959107439" lon="12.010837867623238"><ele>1187.0</ele><time>2026-05-01T05:30:07.999Z</time></trkpt><trkpt lat="45.98464012164451" lon="12.010769065947187"><ele>1185.6</ele><time>2026-05-01T05:30:08.999Z</time></trkpt><trkpt lat="45.98456210410399" lon="12.010694595857393"><ele>1184.2</ele><time>2026-05-01T05:30:09.999Z</time></trkpt><trkpt lat="45.9844907724208" lon="12.010594558280264"><ele>1182.8</ele><time>2026-05-01T05:30:10.999Z</time></trkpt><trkpt lat="45.98441857639021" lon="12.010539177721755"><ele>1181.4</ele><time>2026-05-01T05:30:11.999Z</time></trkpt><trkpt lat="45.98431096052618" lon="12.010452408293256"><ele>1180.0</ele><time>2026-05-01T05:30:13.999Z</time></trkpt><trkpt lat="45.98420542612143" lon="12.010449409162355"><ele>1183.8</ele><time>2026-05-01T05:30:15.999Z</time></trkpt><trkpt lat="45.98414198089272" lon="12.010425618859259"><ele>1187.6</ele><time>2026-05-01T05:30:16.999Z</time></trkpt><trkpt lat="45.98403400915139" lon="12.01046368048744"><ele>1191.4</ele><time>2026-05-01T05:30:18.999Z</time></trkpt><trkpt lat="45.98395894287386" lon="12.010423107875386"><ele>1195.2</ele><time>2026-05-01T05:30:20.999Z</time></trkpt><trkpt lat="45.98384446765614" lon="12.010343936222972"><ele>1199.0</ele><time>2026-05-01T05:30:22.999Z</time></trkpt><trkpt lat="45.98374842717966" lon="12.010267327360067"><ele>1199.0</ele><time>2026-05-01T05:30:24.999Z</time></trkpt><trkpt lat="45.98364334633654" lon="12.010330849498885"><ele>1199.0</ele><time>2026-05-01T05:30:27Z</time></trkpt><trkpt lat="45.9835918675544" lon="12.010453645688273"><ele>1199.0</ele><time>2026-05-01T05:30:29Z</time></trkpt><trkpt lat="45.98358081422456" lon="12.010604032980874"><ele>1199.0</ele><time>2026-05-01T05:30:49Z</time></trkpt><trkpt lat="45.9835462036113" lon="12.010699737032676"><ele>1199.0</ele><time>2026-05-01T05:30:50Z</time></trkpt><trkpt lat="45.98350730425844" lon="12.010825578102198"><ele>1200.8</ele><time>2026-05-01T05:30:51Z</time></trkpt><trkpt lat="45.983433088507866" lon="12.010928988156675"><ele>1202.6000000000001</ele><time>2026-05-01T05:30:52Z</time></trkpt><trkpt lat="45.98339104887631" lon="12.011044600523405"><ele>1204.4</ele><time>2026-05-01T05:30:53Z</time></trkpt><trkpt lat="45.98335099897609" lon="12.011141978759463"><ele>1206.2</ele><time>2026-05-01T05:30:54Z</time></trkpt><trkpt lat="45.98326858510377" lon="12.01126567626865"><ele>1208.0</ele><time>2026-05-01T05:30:56Z</time></trkpt><trkpt lat="45.98321712926671" lon="12.011318605786155"><ele>1208.0</ele><time>2026-05-01T05:30:57Z</time></trkpt><trkpt lat="45.98309221921257" lon="12.011350742438898"><ele>1208.0</ele><time>2026-05-01T05:30:59Z</time></trkpt><trkpt lat="45.98302281151574" lon="12.011374621014138"><ele>1208.0</ele><time>2026-05-01T05:31:00Z</time></trkpt><trkpt lat="45.98295835722978" lon="12.011399350596292"><ele>1208.0</ele><time>2026-05-01T05:31:01Z</time></trkpt><trkpt lat="45.982890950779264" lon="12.011435719275818"><ele>1208.0</ele><time>2026-05-01T05:31:02Z</time></trkpt><trkpt lat="45.98282291251671" lon="12.011476248726915"><ele>1208.0</ele><time>2026-05-01T05:31:03Z</time></trkpt><trkpt lat="45.982752464208275" lon="12.01152510645039"><ele>1208.0</ele><time>2026-05-01T05:31:04Z</time></trkpt><trkpt lat="45.98269274177552" lon="12.0115697630012"><ele>1208.0</ele><time>2026-05-01T05:31:05Z</time></trkpt><trkpt lat="45.98262306947195" lon="12.011683059595695"><ele>1208.0</ele><time>2026-05-01T05:31:07Z</time></trkpt><trkpt lat="45.98257994673836" lon="12.011850758634864"><ele>1208.0</ele><time>2026-05-01T05:31:09Z</time></trkpt><trkpt lat="45.98255859589279" lon="12.011943358649866"><ele>1208.0</ele><time>2026-05-01T05:31:10Z</time></trkpt><trkpt lat="45.98253335954826" lon="12.012045818058622"><ele>1208.0</ele><time>2026-05-01T05:31:11Z</time></trkpt><trkpt lat="45.98251391321872" lon="12.012144121378187"><ele>1206.6666666666667</ele><time>2026-05-01T05:31:12Z</time></trkpt><trkpt lat="45.982483638836726" lon="12.012225749086374"><ele>1205.3333333333335</ele><time>2026-05-01T05:31:13Z</time></trkpt><trkpt lat="45.98243924323405" lon="12.012313732567737"><ele>1204.0</ele><time>2026-05-01T05:31:14Z</time></trkpt><trkpt lat="45.98238128441131" lon="12.01241115962619"><ele>1202.6666666666667</ele><time>2026-05-01T05:31:15Z</time></trkpt><trkpt lat="45.9823283664276" lon="12.012516925524908"><ele>1201.3333333333333</ele><time>2026-05-01T05:31:16Z</time></trkpt><trkpt lat="45.982261144811595" lon="12.012570802259047"><ele>1200.0</ele><time>2026-05-01T05:31:17Z</time></trkpt><trkpt lat="45.98220837269668" lon="12.012622700457616"><ele>1203.1666666666667</ele><time>2026-05-01T05:31:18Z</time></trkpt><trkpt lat="45.98213033516904" lon="12.012639926159911"><ele>1206.3333333333333</ele><time>2026-05-01T05:31:19Z</time></trkpt><trkpt lat="45.98206121844631" lon="12.012686730878873"><ele>1209.5</ele><time>2026-05-01T05:31:20Z</time></trkpt><trkpt lat="45.98199092563762" lon="12.012738478394652"><ele>1212.6666666666665</ele><time>2026-05-01T05:31:21Z</time></trkpt><trkpt lat="45.98192053666218" lon="12.012832689638543"><ele>1215.8333333333333</ele><time>2026-05-01T05:31:22Z</time></trkpt><trkpt lat="45.981847491866816" lon="12.01289185376592"><ele>1219.0</ele><time>2026-05-01T05:31:23Z</time></trkpt><trkpt lat="45.98178752863734" lon="12.012955188013228"><ele>1219.0</ele><time>2026-05-01T05:31:24Z</time></trkpt><trkpt lat="45.98172456929152" lon="12.01301838521513"><ele>1219.0</ele><time>2026-05-01T05:31:25Z</time></trkpt><trkpt lat="45.98165442865635" lon="12.013087625671284"><ele>1219.0</ele><time>2026-05-01T05:31:26Z</time></trkpt><trkpt lat="45.981577582292545" lon="12.013155466194078"><ele>1219.0</ele><time>2026-05-01T05:31:27Z</time></trkpt><trkpt lat="45.98149532788912" lon="12.013220275099432"><ele>1219.0</ele><time>2026-05-01T05:31:28Z</time></trkpt><trkpt lat="45.98141838402676" lon="12.01327278178466"><ele>1219.0</ele><time>2026-05-01T05:31:29Z</time></trkpt><trkpt lat="45.981331382111904" lon="12.013332132651778"><ele>1217.1666666666665</ele><time>2026-05-01T05:31:30Z</time></trkpt><trkpt lat="45.98125579796739" lon="12.013412095371686"><ele>1215.3333333333333</ele><time>2026-05-01T05:31:31Z</time></trkpt><trkpt lat="45.981186929153544" lon="12.013463097729636"><ele>1213.5</ele><time>2026-05-01T05:31:32Z</time></trkpt><trkpt lat="45.98112373898844" lon="12.013515967893296"><ele>1211.6666666666667</ele><time>2026-05-01T05:31:33Z</time></trkpt><trkpt lat="45.98107285442511" lon="12.013573266737545"><ele>1209.8333333333335</ele><time>2026-05-01T05:31:34Z</time></trkpt><trkpt lat="45.98099601869285" lon="12.01368355707073"><ele>1208.0</ele><time>2026-05-01T05:31:36Z</time></trkpt><trkpt lat="45.980919691023104" lon="12.013805255651333"><ele>1207.75</ele><time>2026-05-01T05:31:38Z</time></trkpt><trkpt lat="45.98082826815869" lon="12.013928628941404"><ele>1207.5</ele><time>2026-05-01T05:31:40Z</time></trkpt><trkpt lat="45.980750757944776" lon="12.014088632023117"><ele>1207.25</ele><time>2026-05-01T05:31:42Z</time></trkpt><trkpt lat="45.980673731451915" lon="12.014228852513837"><ele>1207.0</ele><time>2026-05-01T05:31:44Z</time></trkpt><trkpt lat="45.980611800956744" lon="12.014296321458197"><ele>1206.6666666666665</ele><time>2026-05-01T05:31:45Z</time></trkpt><trkpt lat="45.98056688278887" lon="12.014377729796953"><ele>1206.3333333333333</ele><time>2026-05-01T05:31:46Z</time></trkpt><trkpt lat="45.98051894825168" lon="12.014480609633285"><ele>1206.0</ele><time>2026-05-01T05:31:47Z</time></trkpt><trkpt lat="45.98049053437205" lon="12.014579952266658"><ele>1205.6666666666667</ele><time>2026-05-01T05:31:48Z</time></trkpt><trkpt lat="45.980453050161195" lon="12.014680200020848"><ele>1205.3333333333335</ele><time>2026-05-01T05:31:49Z</time></trkpt><trkpt lat="45.980418315839266" lon="12.014827786733518"><ele>1205.0</ele><time>2026-05-01T05:31:51Z</time></trkpt><trkpt lat="45.98040835988294" lon="12.014931137419744"><ele>1202.4285714285716</ele><time>2026-05-01T05:31:52Z</time></trkpt><trkpt lat="45.98039459774477" lon="12.015022016470699"><ele>1199.857142857143</ele><time>2026-05-01T05:31:53Z</time></trkpt><trkpt lat="45.980359762650316" lon="12.015135399399837"><ele>1197.2857142857142</ele><time>2026-05-01T05:31:54Z</time></trkpt><trkpt lat="45.98034332715489" lon="12.015236622325864"><ele>1194.7142857142858</ele><time>2026-05-01T05:31:55Z</time></trkpt><trkpt lat="45.980326527287815" lon="12.015340089338954"><ele>1192.142857142857</ele><time>2026-05-01T05:31:56Z</time></trkpt><trkpt lat="45.98031326942123" lon="12.01544058875752"><ele>1189.5714285714287</ele><time>2026-05-01T05:31:57Z</time></trkpt><trkpt lat="45.98032047834084" lon="12.015538068282389"><ele>1187.0</ele><time>2026-05-01T05:31:58Z</time></trkpt><trkpt lat="45.98029668099687" lon="12.015726397584697"><ele>1183.8333333333335</ele><time>2026-05-01T05:32:00Z</time></trkpt><trkpt lat="45.980281953610294" lon="12.015917198994938"><ele>1180.6666666666667</ele><time>2026-05-01T05:32:02Z</time></trkpt><trkpt lat="45.98026030377318" lon="12.016012717178189"><ele>1177.5</ele><time>2026-05-01T05:32:03Z</time></trkpt><trkpt lat="45.98022598690183" lon="12.016103884635797"><ele>1174.3333333333333</ele><time>2026-05-01T05:32:04Z</time></trkpt><trkpt lat="45.980184835858886" lon="12.016197254166935"><ele>1171.1666666666665</ele><time>2026-05-01T05:32:05Z</time></trkpt><trkpt lat="45.980125062281" lon="12.016300441263137"><ele>1168.0</ele><time>2026-05-01T05:32:06Z</time></trkpt><trkpt lat="45.98008104549322" lon="12.016396562147612"><ele>1168.0</ele><time>2026-05-01T05:32:07Z</time></trkpt><trkpt lat="45.98003752703262" lon="12.016504526484876"><ele>1168.0</ele><time>2026-05-01T05:32:08Z</time></trkpt><trkpt lat="45.98000518502397" lon="12.016615912381823"><ele>1168.0</ele><time>2026-05-01T05:32:10Z</time></trkpt><trkpt lat="45.979948848875125" lon="12.016704241712391"><ele>1168.0</ele><time>2026-05-01T05:32:12Z</time></trkpt><trkpt lat="45.9798931225813" lon="12.016786418935098"><ele>1168.0</ele><time>2026-05-01T05:32:14Z</time></trkpt><trkpt lat="45.979793798194535" lon="12.01685774274868"><ele>1168.0</ele><time>2026-05-01T05:32:16Z</time></trkpt><trkpt lat="45.97970739851998" lon="12.01686444004947"><ele>1169.2</ele><time>2026-05-01T05:32:17Z</time></trkpt><trkpt lat="45.97964021205214" lon="12.016874586234316"><ele>1170.4</ele><time>2026-05-01T05:32:18Z</time></trkpt><trkpt lat="45.97953447041908" lon="12.016893450872761"><ele>1171.6000000000001</ele><time>2026-05-01T05:32:20Z</time></trkpt><trkpt lat="45.97943375767533" lon="12.016904746829425"><ele>1172.8</ele><time>2026-05-01T05:32:22Z</time></trkpt><trkpt lat="45.97936197551903" lon="12.016922289298975"><ele>1174.0</ele><time>2026-05-01T05:32:23Z</time></trkpt><trkpt lat="45.979256853598855" lon="12.016968745594701"><ele>1178.0</ele><time>2026-05-01T05:32:25Z</time></trkpt><trkpt lat="45.97917802624876" lon="12.017060987152947"><ele>1182.0</ele><time>2026-05-01T05:32:27Z</time></trkpt><trkpt lat="45.97911966999871" lon="12.017111251961126"><ele>1186.0</ele><time>2026-05-01T05:32:28Z</time></trkpt><trkpt lat="45.979018613392334" lon="12.01719915107295"><ele>1190.0</ele><time>2026-05-01T05:32:29Z</time></trkpt><trkpt lat="45.97891871678113" lon="12.01733302971089"><ele>1194.0</ele><time>2026-05-01T05:32:31Z</time></trkpt><trkpt lat="45.978867614834805" lon="12.017439484103253"><ele>1188.8333333333333</ele><time>2026-05-01T05:32:32.001Z</time></trkpt><trkpt lat="45.978828408269734" lon="12.0175496221906"><ele>1183.6666666666667</ele><time>2026-05-01T05:32:33.001Z</time></trkpt><trkpt lat="45.97879926745748" lon="12.017653316512055"><ele>1178.5</ele><time>2026-05-01T05:32:34.001Z</time></trkpt><trkpt lat="45.978774038127554" lon="12.017739392285492"><ele>1173.3333333333335</ele><time>2026-05-01T05:32:35.001Z</time></trkpt><trkpt lat="45.9787907003286" lon="12.017845372050514"><ele>1168.1666666666667</ele><time>2026-05-01T05:32:36.001Z</time></trkpt><trkpt lat="45.9787472427397" lon="12.017939290870066"><ele>1163.0</ele><time>2026-05-01T05:32:38.001Z</time></trkpt><trkpt lat="45.97867308619438" lon="12.017967824787211"><ele>1163.0</ele><time>2026-05-01T05:32:40Z</time></trkpt><trkpt lat="45.9785985183412" lon="12.017938588661043"><ele>1163.0</ele><time>2026-05-01T05:32:42Z</time></trkpt><trkpt lat="45.97852436205993" lon="12.017855874000379"><ele>1163.0</ele><time>2026-05-01T05:32:44Z</time></trkpt><trkpt lat="45.97842215257622" lon="12.017805906636521"><ele>1163.0</ele><time>2026-05-01T05:32:46Z</time></trkpt><trkpt lat="45.978326049718476" lon="12.017801853806434"><ele>1163.0</ele><time>2026-05-01T05:32:48Z</time></trkpt><trkpt lat="45.9782622026004" lon="12.017798329164599"><ele>1163.0</ele><time>2026-05-01T05:32:49Z</time></trkpt><trkpt lat="45.97819049565362" lon="12.017765523295202"><ele>1165.8333333333335</ele><time>2026-05-01T05:32:51Z</time></trkpt><trkpt lat="45.97812089324368" lon="12.017787050591865"><ele>1168.6666666666667</ele><time>2026-05-01T05:32:53Z</time></trkpt><trkpt lat="45.97802672534442" lon="12.017872379681888"><ele>1171.5</ele><time>2026-05-01T05:32:56Z</time></trkpt><trkpt lat="45.97797731997058" lon="12.017941750721363"><ele>1174.3333333333333</ele><time>2026-05-01T05:32:59Z</time></trkpt><trkpt lat="45.97790474728946" lon="12.017964668632679"><ele>1177.1666666666665</ele><time>2026-05-01T05:33:01Z</time></trkpt><trkpt lat="45.977833459631036" lon="12.017985337825353"><ele>1180.0</ele><time>2026-05-01T05:33:03Z</time></trkpt><trkpt lat="45.97775128527709" lon="12.018129787058609"><ele>1180.0</ele><time>2026-05-01T05:33:05Z</time></trkpt><trkpt lat="45.97772297854963" lon="12.018239341693999"><ele>1180.0</ele><time>2026-05-01T05:33:07Z</time></trkpt><trkpt lat="45.9776657920896" lon="12.018332882564549"><ele>1180.0</ele><time>2026-05-01T05:33:09Z</time></trkpt><trkpt lat="45.97762421824257" lon="12.01840208364258"><ele>1180.0</ele><time>2026-05-01T05:33:11Z</time></trkpt><trkpt lat="45.97755079207638" lon="12.018475814383654"><ele>1180.0</ele><time>2026-05-01T05:33:13Z</time></trkpt><trkpt lat="45.97747412348882" lon="12.01850700240218"><ele>1180.0</ele><time>2026-05-01T05:33:14Z</time></trkpt><trkpt lat="45.97740536521229" lon="12.018575556913904"><ele>1175.8</ele><time>2026-05-01T05:33:15Z</time></trkpt><trkpt lat="45.977336979969884" lon="12.018656117362"><ele>1171.6</ele><time>2026-05-01T05:33:16Z</time></trkpt><trkpt lat="45.97718461824725" lon="12.018598302764094"><ele>1167.4</ele><time>2026-05-01T05:33:17Z</time></trkpt><trkpt lat="45.977108996057154" lon="12.018718312079837"><ele>1163.2</ele><time>2026-05-01T05:33:19Z</time></trkpt><trkpt lat="45.97705779566316" lon="12.018825529826637"><ele>1159.0</ele><time>2026-05-01T05:33:20Z</time></trkpt><trkpt lat="45.97701514520902" lon="12.018971057389562"><ele>1159.0</ele><time>2026-05-01T05:33:21Z</time></trkpt><trkpt lat="45.97700161309046" lon="12.019106347775779"><ele>1159.0</ele><time>2026-05-01T05:33:22Z</time></trkpt><trkpt lat="45.97699804860363" lon="12.019209529619424"><ele>1159.0</ele><time>2026-05-01T05:33:23Z</time></trkpt><trkpt lat="45.97700619696674" lon="12.019369868141377"><ele>1159.0</ele><time>2026-05-01T05:33:24Z</time></trkpt><trkpt lat="45.97702807752115" lon="12.019499459445267"><ele>1159.0</ele><time>2026-05-01T05:33:25Z</time></trkpt><trkpt lat="45.977057814625134" lon="12.019655106209912"><ele>1152.6000000000001</ele><time>2026-05-01T05:33:27Z</time></trkpt><trkpt lat="45.977076180352086" lon="12.019833410548493"><ele>1146.2</ele><time>2026-05-01T05:33:29Z</time></trkpt><trkpt lat="45.97708283436083" lon="12.019941445153048"><ele>1139.8000000000002</ele><time>2026-05-01T05:33:30Z</time></trkpt><trkpt lat="45.97707170850029" lon="12.020066663285558"><ele>1133.4</ele><time>2026-05-01T05:33:32Z</time></trkpt><trkpt lat="45.977050708053945" lon="12.020219476737598"><ele>1127.0</ele><time>2026-05-01T05:33:34Z</time></trkpt><trkpt lat="45.977025636455764" lon="12.020303976184545"><ele>1122.0</ele><time>2026-05-01T05:33:35Z</time></trkpt><trkpt lat="45.97699150115483" lon="12.020382886600196"><ele>1117.0</ele><time>2026-05-01T05:33:36Z</time></trkpt><trkpt lat="45.9769112916882" lon="12.020488292009976"><ele>1112.0</ele><time>2026-05-01T05:33:38Z</time></trkpt><trkpt lat="45.97681880287841" lon="12.020570520874823"><ele>1107.0</ele><time>2026-05-01T05:33:40Z</time></trkpt><trkpt lat="45.976722359619735" lon="12.020666044522999"><ele>1102.0</ele><time>2026-05-01T05:33:42Z</time></trkpt><trkpt lat="45.976678189450055" lon="12.02073676897055"><ele>1108.0</ele><time>2026-05-01T05:33:43Z</time></trkpt><trkpt lat="45.97658808217843" lon="12.02083252532826"><ele>1114.0</ele><time>2026-05-01T05:33:45Z</time></trkpt><trkpt lat="45.97650613654377" lon="12.02095235727574"><ele>1120.0</ele><time>2026-05-01T05:33:47Z</time></trkpt><trkpt lat="45.976432818350865" lon="12.02103570879943"><ele>1126.0</ele><time>2026-05-01T05:33:48Z</time></trkpt><trkpt lat="45.97636153481987" lon="12.021131727839728"><ele>1132.0</ele><time>2026-05-01T05:33:49Z</time></trkpt><trkpt lat="45.97629491543944" lon="12.021215872281351"><ele>1132.0</ele><time>2026-05-01T05:33:50Z</time></trkpt><trkpt lat="45.97623767920514" lon="12.021285604707082"><ele>1132.0</ele><time>2026-05-01T05:33:51Z</time></trkpt><trkpt lat="45.97615521935438" lon="12.021362568994107"><ele>1132.0</ele><time>2026-05-01T05:33:53Z</time></trkpt><trkpt lat="45.976065537842096" lon="12.021357295260012"><ele>1132.0</ele><time>2026-05-01T05:33:56Z</time></trkpt><trkpt lat="45.9760112434069" lon="12.021306643496896"><ele>1132.0</ele><time>2026-05-01T05:33:57Z</time></trkpt><trkpt lat="45.9759531153914" lon="12.021210401222994"><ele>1132.0</ele><time>2026-05-01T05:33:59Z</time></trkpt><trkpt lat="45.97588200722141" lon="12.021053754611255"><ele>1132.6666666666665</ele><time>2026-05-01T05:34:01Z</time></trkpt><trkpt lat="45.97583226391349" lon="12.02095850394877"><ele>1133.3333333333333</ele><time>2026-05-01T05:34:02Z</time></trkpt><trkpt lat="45.97579220666461" lon="12.020877048700402"><ele>1134.0</ele><time>2026-05-01T05:34:03Z</time></trkpt><trkpt lat="45.97575815743689" lon="12.020782685452364"><ele>1134.6666666666667</ele><time>2026-05-01T05:34:04Z</time></trkpt><trkpt lat="45.975723618495984" lon="12.02068947419014"><ele>1135.3333333333335</ele><time>2026-05-01T05:34:05Z</time></trkpt><trkpt lat="45.97567770067871" lon="12.020561882574418"><ele>1136.0</ele><time>2026-05-01T05:34:07Z</time></trkpt><trkpt lat="45.97561677608751" lon="12.020459917493271"><ele>1142.8</ele><time>2026-05-01T05:34:09Z</time></trkpt><trkpt lat="45.97556686662401" lon="12.020379395019683"><ele>1149.6</ele><time>2026-05-01T05:34:10Z</time></trkpt><trkpt lat="45.97550728511888" lon="12.020340350230523"><ele>1156.4</ele><time>2026-05-01T05:34:11Z</time></trkpt><trkpt lat="45.97543195841267" lon="12.020293142927205"><ele>1163.2</ele><time>2026-05-01T05:34:13Z</time></trkpt><trkpt lat="45.97534308815054" lon="12.02033288871775"><ele>1170.0</ele><time>2026-05-01T05:34:15Z</time></trkpt><trkpt lat="45.975218640436616" lon="12.020407392636132"><ele>1170.0</ele><time>2026-05-01T05:34:17Z</time></trkpt><trkpt lat="45.97512458939782" lon="12.020438746519558"><ele>1170.0</ele><time>2026-05-01T05:34:18Z</time></trkpt><trkpt lat="45.975026243317835" lon="12.020471479703401"><ele>1170.0</ele><time>2026-05-01T05:34:20Z</time></trkpt><trkpt lat="45.974947861733106" lon="12.020462555129237"><ele>1170.0</ele><time>2026-05-01T05:34:22Z</time></trkpt><trkpt lat="45.97483185931648" lon="12.020510765080637"><ele>1170.0</ele><time>2026-05-01T05:34:24Z</time></trkpt><trkpt lat="45.97476855480446" lon="12.020582432708114"><ele>1169.8333333333333</ele><time>2026-05-01T05:34:25Z</time></trkpt><trkpt lat="45.9747144953498" lon="12.020657929104935"><ele>1169.6666666666667</ele><time>2026-05-01T05:34:26Z</time></trkpt><trkpt lat="45.974678785646134" lon="12.020749917054113"><ele>1169.5</ele><time>2026-05-01T05:34:27Z</time></trkpt><trkpt lat="45.974635053435435" lon="12.020820169505267"><ele>1169.3333333333335</ele><time>2026-05-01T05:34:28Z</time></trkpt><trkpt lat="45.974573892046585" lon="12.02088105369844"><ele>1169.1666666666667</ele><time>2026-05-01T05:34:30Z</time></trkpt><trkpt lat="45.974472488132704" lon="12.020904826003344"><ele>1169.0</ele><time>2026-05-01T05:34:32Z</time></trkpt><trkpt lat="45.974404711147095" lon="12.020933803333198"><ele>1165.5714285714287</ele><time>2026-05-01T05:34:33Z</time></trkpt><trkpt lat="45.97434360812133" lon="12.020964840591983"><ele>1162.142857142857</ele><time>2026-05-01T05:34:34Z</time></trkpt><trkpt lat="45.97428454811322" lon="12.0210244403664"><ele>1158.7142857142858</ele><time>2026-05-01T05:34:35Z</time></trkpt><trkpt lat="45.97422432509651" lon="12.021073670278984"><ele>1155.2857142857142</ele><time>2026-05-01T05:34:36Z</time></trkpt><trkpt lat="45.974171369754266" lon="12.021138771121688"><ele>1151.857142857143</ele><time>2026-05-01T05:34:37Z</time></trkpt><trkpt lat="45.974107440281976" lon="12.021235719145936"><ele>1148.4285714285716</ele><time>2026-05-01T05:34:39.001Z</time></trkpt><trkpt lat="45.97404774700359" lon="12.021294005675198"><ele>1145.0</ele><time>2026-05-01T05:34:42.001Z</time></trkpt><trkpt lat="45.97395011568399" lon="12.02126332616693"><ele>1145.0</ele><time>2026-05-01T05:34:44.001Z</time></trkpt><trkpt lat="45.97384287053898" lon="12.021228640698787"><ele>1145.0</ele><time>2026-05-01T05:34:46.001Z</time></trkpt><trkpt lat="45.97374746364647" lon="12.021099812893429"><ele>1145.0</ele><time>2026-05-01T05:34:48.001Z</time></trkpt><trkpt lat="45.973675286596084" lon="12.021037670815074"><ele>1145.0</ele><time>2026-05-01T05:34:50Z</time></trkpt><trkpt lat="45.97358486370557" lon="12.020944533163922"><ele>1145.0</ele><time>2026-05-01T05:34:52Z</time></trkpt><trkpt lat="45.9735064911352" lon="12.020848665034"><ele>1150.6</ele><time>2026-05-01T05:34:54Z</time></trkpt><trkpt lat="45.97341000687781" lon="12.02072274893791"><ele>1156.2</ele><time>2026-05-01T05:34:56Z</time></trkpt><trkpt lat="45.97335205796457" lon="12.020666983347523"><ele>1161.8</ele><time>2026-05-01T05:34:57Z</time></trkpt><trkpt lat="45.97327525113963" lon="12.020625536298514"><ele>1167.4</ele><time>2026-05-01T05:34:58Z</time></trkpt><trkpt lat="45.97315651785265" lon="12.02054664031451"><ele>1173.0</ele><time>2026-05-01T05:35:00Z</time></trkpt><trkpt lat="45.973093414265826" lon="12.020512092815961"><ele>1173.0000000000002</ele><time>2026-05-01T05:35:01Z</time></trkpt><trkpt lat="45.97302750601338" lon="12.020519423801087"><ele>1173.0</ele><time>2026-05-01T05:35:02Z</time></trkpt><trkpt lat="45.97294565660828" lon="12.02058647363112"><ele>1173.0</ele><time>2026-05-01T05:35:04Z</time></trkpt><trkpt lat="45.97288144312563" lon="12.020613987751407"><ele>1173.0</ele><time>2026-05-01T05:35:05Z</time></trkpt><trkpt lat="45.97282326676715" lon="12.020683161243511"><ele>1173.0</ele><time>2026-05-01T05:35:06Z</time></trkpt><trkpt lat="45.972773140553144" lon="12.020764184786975"><ele>1173.0000000000002</ele><time>2026-05-01T05:35:07Z</time></trkpt><trkpt lat="45.97275227437429" lon="12.020855322480688"><ele>1173.0</ele><time>2026-05-01T05:35:08Z</time></trkpt><trkpt lat="45.972699902509696" lon="12.020911987264128"><ele>1165.2</ele><time>2026-05-01T05:35:09Z</time></trkpt><trkpt lat="45.97259812292863" lon="12.020993722833367"><ele>1157.4</ele><time>2026-05-01T05:35:11Z</time></trkpt><trkpt lat="45.97249258028188" lon="12.020979036554808"><ele>1149.6000000000001</ele><time>2026-05-01T05:35:13Z</time></trkpt><trkpt lat="45.97237687342776" lon="12.020967737015157"><ele>1141.8</ele><time>2026-05-01T05:35:15Z</time></trkpt><trkpt lat="45.972282545175084" lon="12.020951185740156"><ele>1134.0</ele><time>2026-05-01T05:35:17Z</time></trkpt><trkpt lat="45.97218398341153" lon="12.020898757485863"><ele>1133.8</ele><time>2026-05-01T05:35:19Z</time></trkpt><trkpt lat="45.972080300875646" lon="12.020834894205606"><ele>1133.6000000000001</ele><time>2026-05-01T05:35:21Z</time></trkpt><trkpt lat="45.97199701925598" lon="12.020765374561734"><ele>1133.4</ele><time>2026-05-01T05:35:23Z</time></trkpt><trkpt lat="45.97193968005228" lon="12.02071763492141"><ele>1133.2</ele><time>2026-05-01T05:35:24Z</time></trkpt><trkpt lat="45.97182180855262" lon="12.020707733208733"><ele>1133.0</ele><time>2026-05-01T05:35:26Z</time></trkpt><trkpt lat="45.97170823707798" lon="12.020766678633388"><ele>1143.0</ele><time>2026-05-01T05:35:28Z</time></trkpt><trkpt lat="45.971646863648445" lon="12.020788102493949"><ele>1153.0</ele><time>2026-05-01T05:35:29Z</time></trkpt><trkpt lat="45.9715630905662" lon="12.020810998408502"><ele>1163.0</ele><time>2026-05-01T05:35:31Z</time></trkpt><trkpt lat="45.971457818578735" lon="12.020772675822956"><ele>1173.0</ele><time>2026-05-01T05:35:33Z</time></trkpt><trkpt lat="45.97134313733835" lon="12.020697437524124"><ele>1183.0</ele><time>2026-05-01T05:35:35Z</time></trkpt><trkpt lat="45.97126967771589" lon="12.020695904236998"><ele>1183.0</ele><time>2026-05-01T05:35:36Z</time></trkpt><trkpt lat="45.97118534855524" lon="12.020680869540582"><ele>1183.0</ele><time>2026-05-01T05:35:37Z</time></trkpt><trkpt lat="45.971109571480675" lon="12.020666847666861"><ele>1183.0</ele><time>2026-05-01T05:35:38Z</time></trkpt><trkpt lat="45.970983103734724" lon="12.020628617817085"><ele>1183.0</ele><time>2026-05-01T05:35:40Z</time></trkpt><trkpt lat="45.97092285083353" lon="12.020670339744058"><ele>1183.0</ele><time>2026-05-01T05:35:41Z</time></trkpt><trkpt lat="45.97085724916557" lon="12.020684180365063"><ele>1183.0</ele><time>2026-05-01T05:35:42Z</time></trkpt><trkpt lat="45.97076419836643" lon="12.020635800983532"><ele>1179.6</ele><time>2026-05-01T05:35:44Z</time></trkpt><trkpt lat="45.97070750800742" lon="12.020501177408445"><ele>1176.1999999999998</ele><time>2026-05-01T05:35:46Z</time></trkpt><trkpt lat="45.97062438987918" lon="12.020373701765969"><ele>1172.8</ele><time>2026-05-01T05:35:48Z</time></trkpt><trkpt lat="45.97052290813367" lon="12.020262617396842"><ele>1169.3999999999999</ele><time>2026-05-01T05:35:50Z</time></trkpt><trkpt lat="45.970464210161765" lon="12.020225403253669"><ele>1166.0</ele><time>2026-05-01T05:35:51Z</time></trkpt><trkpt lat="45.970341788498125" lon="12.020173361286528"><ele>1166.0</ele><time>2026-05-01T05:35:53Z</time></trkpt><trkpt lat="45.970275359156666" lon="12.020194942542956"><ele>1166.0</ele><time>2026-05-01T05:35:54Z</time></trkpt><trkpt lat="45.97017384039086" lon="12.020235880749608"><ele>1166.0</ele><time>2026-05-01T05:35:56Z</time></trkpt><trkpt lat="45.97006477246293" lon="12.020241965064681"><ele>1166.0</ele><time>2026-05-01T05:35:58Z</time></trkpt><trkpt lat="45.96995137721251" lon="12.020208636010347"><ele>1166.0</ele><time>2026-05-01T05:36:00Z</time></trkpt><trkpt lat="45.96982848472032" lon="12.020199111633527"><ele>1164.3999999999999</ele><time>2026-05-01T05:36:02Z</time></trkpt><trkpt lat="45.96976904129003" lon="12.020232334775743"><ele>1162.8</ele><time>2026-05-01T05:36:03Z</time></trkpt><trkpt lat="45.96965522539251" lon="12.020260146211868"><ele>1161.1999999999998</ele><time>2026-05-01T05:36:05Z</time></trkpt><trkpt lat="45.96954012739176" lon="12.020227848804886"><ele>1159.6</ele><time>2026-05-01T05:36:07Z</time></trkpt><trkpt lat="45.96944820835789" lon="12.020172924671549"><ele>1158.0</ele><time>2026-05-01T05:36:09Z</time></trkpt><trkpt lat="45.96938099732931" lon="12.020133731579737"><ele>1158.0</ele><time>2026-05-01T05:36:11Z</time></trkpt><trkpt lat="45.96931517663283" lon="12.020098403147081"><ele>1158.0</ele><time>2026-05-01T05:36:12Z</time></trkpt><trkpt lat="45.969237994302105" lon="12.020060310961801"><ele>1158.0</ele><time>2026-05-01T05:36:13Z</time></trkpt><trkpt lat="45.96914228411632" lon="12.020042666964574"><ele>1158.0</ele><time>2026-05-01T05:36:15Z</time></trkpt><trkpt lat="45.96902246188261" lon="12.020074820439369"><ele>1158.0</ele><time>2026-05-01T05:36:17Z</time></trkpt><trkpt lat="45.968931509131416" lon="12.020160094719241"><ele>1158.3333333333333</ele><time>2026-05-01T05:36:19Z</time></trkpt><trkpt lat="45.96883640284949" lon="12.020168064996676"><ele>1158.6666666666667</ele><time>2026-05-01T05:36:21Z</time></trkpt><trkpt lat="45.968754502745654" lon="12.020133585003222"><ele>1159.0</ele><time>2026-05-01T05:36:23Z</time></trkpt><trkpt lat="45.968689492449066" lon="12.020093759955035"><ele>1159.3333333333335</ele><time>2026-05-01T05:36:25Z</time></trkpt><trkpt lat="45.96857535002637" lon="12.020030911851386"><ele>1159.6666666666667</ele><time>2026-05-01T05:36:28Z</time></trkpt><trkpt lat="45.968528717061645" lon="12.019962234593836"><ele>1160.0</ele><time>2026-05-01T05:36:30Z</time></trkpt><trkpt lat="45.968456078905874" lon="12.02002177987459"><ele>1160.0</ele><time>2026-05-01T05:36:33Z</time></trkpt><trkpt lat="45.96837026676399" lon="12.020021398360678"><ele>1160.0</ele><time>2026-05-01T05:36:34Z</time></trkpt><trkpt lat="45.968300977502416" lon="12.020037632208785"><ele>1160.0</ele><time>2026-05-01T05:36:35Z</time></trkpt><trkpt lat="45.968237415270735" lon="12.020035406703567"><ele>1160.0</ele><time>2026-05-01T05:36:36Z</time></trkpt><trkpt lat="45.96816174987472" lon="12.020051920118934"><ele>1160.0</ele><time>2026-05-01T05:36:37Z</time></trkpt><trkpt lat="45.96808986352618" lon="12.020044519742605"><ele>1160.0</ele><time>2026-05-01T05:36:38Z</time></trkpt><trkpt lat="45.96798861602549" lon="12.020037673979017"><ele>1159.4</ele><time>2026-05-01T05:36:40Z</time></trkpt><trkpt lat="45.96791296734701" lon="12.020028844783784"><ele>1158.8</ele><time>2026-05-01T05:36:41Z</time></trkpt><trkpt lat="45.96784941609769" lon="12.020015973148858"><ele>1158.2</ele><time>2026-05-01T05:36:42Z</time></trkpt><trkpt lat="45.9677211373575" lon="12.020031341589384"><ele>1157.6</ele><time>2026-05-01T05:36:44Z</time></trkpt><trkpt lat="45.96759427963784" lon="12.020011972065479"><ele>1157.0</ele><time>2026-05-01T05:36:46Z</time></trkpt><trkpt lat="45.96753145313823" lon="12.019983173327695"><ele>1167.6</ele><time>2026-05-01T05:36:47Z</time></trkpt><trkpt lat="45.96742855821865" lon="12.019954345326552"><ele>1178.2</ele><time>2026-05-01T05:36:49Z</time></trkpt><trkpt lat="45.967320125474195" lon="12.019960356203223"><ele>1188.8</ele><time>2026-05-01T05:36:51Z</time></trkpt><trkpt lat="45.967244061728856" lon="12.019937560711869"><ele>1199.4</ele><time>2026-05-01T05:36:53Z</time></trkpt><trkpt lat="45.96716883704977" lon="12.019951694236315"><ele>1210.0</ele><time>2026-05-01T05:36:54Z</time></trkpt><trkpt lat="45.96704644264751" lon="12.019938168594697"><ele>1210.0</ele><time>2026-05-01T05:36:56Z</time></trkpt><trkpt lat="45.96693574204806" lon="12.019926584677675"><ele>1210.0</ele><time>2026-05-01T05:36:58Z</time></trkpt><trkpt lat="45.96682243393897" lon="12.019931417792195"><ele>1210.0</ele><time>2026-05-01T05:37:00Z</time></trkpt><trkpt lat="45.96669897758465" lon="12.01994373524273"><ele>1210.0</ele><time>2026-05-01T05:37:02Z</time></trkpt><trkpt lat="45.96663580745739" lon="12.01997207148948"><ele>1210.0</ele><time>2026-05-01T05:37:03Z</time></trkpt><trkpt lat="45.96652339699142" lon="12.019968638812093"><ele>1203.0</ele><time>2026-05-01T05:37:05Z</time></trkpt><trkpt lat="45.966410219654506" lon="12.020009987045693"><ele>1196.0</ele><time>2026-05-01T05:37:07Z</time></trkpt><trkpt lat="45.9662846205663" lon="12.020023597912282"><ele>1189.0</ele><time>2026-05-01T05:37:09Z</time></trkpt><trkpt lat="45.96621850186398" lon="12.020041024158012"><ele>1182.0</ele><time>2026-05-01T05:37:10Z</time></trkpt><trkpt lat="45.96614147495454" lon="12.020080845937738"><ele>1175.0</ele><time>2026-05-01T05:37:11Z</time></trkpt><trkpt lat="45.96603772241581" lon="12.020138515433882"><ele>1175.0</ele><time>2026-05-01T05:37:13Z</time></trkpt><trkpt lat="45.96592509965231" lon="12.020173043579852"><ele>1175.0</ele><time>2026-05-01T05:37:15Z</time></trkpt><trkpt lat="45.9658283493131" lon="12.020198613256863"><ele>1175.0</ele><time>2026-05-01T05:37:17Z</time></trkpt><trkpt lat="45.96574328596494" lon="12.020229296019563"><ele>1175.0</ele><time>2026-05-01T05:37:19Z</time></trkpt><trkpt lat="45.9656753389252" lon="12.02029499713121"><ele>1175.0</ele><time>2026-05-01T05:37:20Z</time></trkpt><trkpt lat="45.96560168187089" lon="12.020344204896187"><ele>1179.0</ele><time>2026-05-01T05:37:21Z</time></trkpt><trkpt lat="45.96548644945701" lon="12.020385347764172"><ele>1183.0</ele><time>2026-05-01T05:37:23Z</time></trkpt><trkpt lat="45.965408019241046" lon="12.020413312183033"><ele>1187.0</ele><time>2026-05-01T05:37:25Z</time></trkpt><trkpt lat="45.96529774980588" lon="12.020442150785312"><ele>1191.0</ele><time>2026-05-01T05:37:27Z</time></trkpt><trkpt lat="45.965201609518985" lon="12.020429758571305"><ele>1195.0</ele><time>2026-05-01T05:37:31Z</time></trkpt><trkpt lat="45.965079632101194" lon="12.02044169181546"><ele>1197.5</ele><time>2026-05-01T05:37:33Z</time></trkpt><trkpt lat="45.96494536258666" lon="12.02050939272221"><ele>1200.0</ele><time>2026-05-01T05:37:35Z</time></trkpt><trkpt lat="45.9648805887707" lon="12.020542179169949"><ele>1202.5</ele><time>2026-05-01T05:37:36Z</time></trkpt><trkpt lat="45.96481569523862" lon="12.02057160072176"><ele>1205.0</ele><time>2026-05-01T05:37:37Z</time></trkpt><trkpt lat="45.96474974703316" lon="12.020579792452727"><ele>1207.5</ele><time>2026-05-01T05:37:38Z</time></trkpt><trkpt lat="45.964693805657916" lon="12.020625383860779"><ele>1210.0</ele><time>2026-05-01T05:37:39Z</time></trkpt><trkpt lat="45.96462247346076" lon="12.020650733326423"><ele>1210.0</ele><time>2026-05-01T05:37:40Z</time></trkpt><trkpt lat="45.96449573163765" lon="12.020676060552159"><ele>1210.0</ele><time>2026-05-01T05:37:42Z</time></trkpt><trkpt lat="45.96438439046655" lon="12.020691864627036"><ele>1210.0</ele><time>2026-05-01T05:37:44Z</time></trkpt><trkpt lat="45.96428609427269" lon="12.020729620629192"><ele>1210.0</ele><time>2026-05-01T05:37:46Z</time></trkpt><trkpt lat="45.96422033772155" lon="12.020732541424625"><ele>1210.0</ele><time>2026-05-01T05:37:47Z</time></trkpt><trkpt lat="45.964156628741875" lon="12.020744859196771"><ele>1208.0</ele><time>2026-05-01T05:37:48Z</time></trkpt><trkpt lat="45.96403594702626" lon="12.020735261615368"><ele>1206.0</ele><time>2026-05-01T05:37:50Z</time></trkpt><trkpt lat="45.963914780101156" lon="12.020758099149557"><ele>1204.0</ele><time>2026-05-01T05:37:52Z</time></trkpt><trkpt lat="45.96380727108087" lon="12.020798637710643"><ele>1202.0</ele><time>2026-05-01T05:37:54Z</time></trkpt><trkpt lat="45.963743984276874" lon="12.020823579109752"><ele>1200.0</ele><time>2026-05-01T05:37:55Z</time></trkpt><trkpt lat="45.96368019048032" lon="12.020852423638939"><ele>1198.0</ele><time>2026-05-01T05:37:56Z</time></trkpt><trkpt lat="45.96359410384752" lon="12.020892994234138"><ele>1196.0</ele><time>2026-05-01T05:37:58Z</time></trkpt><trkpt lat="45.96348998976877" lon="12.02097277895027"><ele>1194.0</ele><time>2026-05-01T05:38:00Z</time></trkpt><trkpt lat="45.963402368124335" lon="12.021043891232244"><ele>1192.0</ele><time>2026-05-01T05:38:01Z</time></trkpt><trkpt lat="45.96331745390246" lon="12.021084318775697"><ele>1190.0</ele><time>2026-05-01T05:38:02Z</time></trkpt><trkpt lat="45.96325612557478" lon="12.021201917734853"><ele>1190.0</ele><time>2026-05-01T05:38:03Z</time></trkpt><trkpt lat="45.96319038894358" lon="12.021289959430849"><ele>1190.0</ele><time>2026-05-01T05:38:04Z</time></trkpt><trkpt lat="45.963131254882676" lon="12.02139410254424"><ele>1190.0</ele><time>2026-05-01T05:38:05Z</time></trkpt><trkpt lat="45.96306814228986" lon="12.021491066517466"><ele>1190.0</ele><time>2026-05-01T05:38:06Z</time></trkpt><trkpt lat="45.96300291863237" lon="12.021558508916357"><ele>1190.0</ele><time>2026-05-01T05:38:07Z</time></trkpt><trkpt lat="45.96294397860721" lon="12.02164583442373"><ele>1190.0</ele><time>2026-05-01T05:38:08Z</time></trkpt><trkpt lat="45.962897085478204" lon="12.021717093461882"><ele>1189.1666666666667</ele><time>2026-05-01T05:38:09Z</time></trkpt><trkpt lat="45.96283733702374" lon="12.021811104183778"><ele>1188.3333333333335</ele><time>2026-05-01T05:38:10Z</time></trkpt><trkpt lat="45.96279565840777" lon="12.021917082539822"><ele>1187.5</ele><time>2026-05-01T05:38:11Z</time></trkpt><trkpt lat="45.96274474072501" lon="12.02199210419226"><ele>1186.6666666666667</ele><time>2026-05-01T05:38:12Z</time></trkpt><trkpt lat="45.962691178484846" lon="12.022072965520625"><ele>1185.8333333333333</ele><time>2026-05-01T05:38:13Z</time></trkpt><trkpt lat="45.962639105043706" lon="12.02214739704652"><ele>1185.0</ele><time>2026-05-01T05:38:14Z</time></trkpt><trkpt lat="45.9625514740127" lon="12.02221396156228"><ele>1186.3333333333333</ele><time>2026-05-01T05:38:16Z</time></trkpt><trkpt lat="45.962487772605044" lon="12.022262961355992"><ele>1187.6666666666667</ele><time>2026-05-01T05:38:17Z</time></trkpt><trkpt lat="45.96242543692364" lon="12.02229651926391"><ele>1189.0</ele><time>2026-05-01T05:38:18Z</time></trkpt><trkpt lat="45.962356263303164" lon="12.022364450807345"><ele>1190.3333333333335</ele><time>2026-05-01T05:38:20Z</time></trkpt><trkpt lat="45.96229605710058" lon="12.022484057536646"><ele>1191.6666666666667</ele><time>2026-05-01T05:38:23Z</time></trkpt><trkpt lat="45.96224544503996" lon="12.022539250760653"><ele>1193.0</ele><time>2026-05-01T05:38:26Z</time></trkpt><trkpt lat="45.96219547174672" lon="12.022696129872253"><ele>1193.2</ele><time>2026-05-01T05:38:28Z</time></trkpt><trkpt lat="45.96214733588573" lon="12.022762735525099"><ele>1193.4</ele><time>2026-05-01T05:38:30Z</time></trkpt><trkpt lat="45.9620732466471" lon="12.022862290134201"><ele>1193.6000000000001</ele><time>2026-05-01T05:38:32Z</time></trkpt><trkpt lat="45.9620088174636" lon="12.02296611453394"><ele>1193.8</ele><time>2026-05-01T05:38:34Z</time></trkpt><trkpt lat="45.96196812768881" lon="12.023077035257314"><ele>1194.0</ele><time>2026-05-01T05:38:36Z</time></trkpt><trkpt lat="45.961877619751135" lon="12.023183882529947"><ele>1194.0</ele><time>2026-05-01T05:38:38Z</time></trkpt><trkpt lat="45.96182106463978" lon="12.023274569457769"><ele>1194.0</ele><time>2026-05-01T05:38:40Z</time></trkpt><trkpt lat="45.961763763634444" lon="12.023385821583966"><ele>1194.0</ele><time>2026-05-01T05:38:42Z</time></trkpt><trkpt lat="45.96169084195105" lon="12.023480989096976"><ele>1194.0</ele><time>2026-05-01T05:38:44Z</time></trkpt><trkpt lat="45.961639077105744" lon="12.023575301215876"><ele>1194.0</ele><time>2026-05-01T05:38:46.999Z</time></trkpt><trkpt lat="45.96158371711601" lon="12.023635610692724"><ele>1194.0</ele><time>2026-05-01T05:38:48.999Z</time></trkpt><trkpt lat="45.961526165020096" lon="12.023737314630479"><ele>1195.5</ele><time>2026-05-01T05:38:51Z</time></trkpt><trkpt lat="45.96146499700535" lon="12.023835362418307"><ele>1197.0</ele><time>2026-05-01T05:38:53Z</time></trkpt><trkpt lat="45.96141274233564" lon="12.023928520789262"><ele>1198.5</ele><time>2026-05-01T05:38:56Z</time></trkpt><trkpt lat="45.96137317955537" lon="12.024062391672304"><ele>1200.0</ele><time>2026-05-01T05:38:59Z</time></trkpt><trkpt lat="45.9613533579157" lon="12.024175228003944"><ele>1201.5</ele><time>2026-05-01T05:39:02Z</time></trkpt><trkpt lat="45.961310954864" lon="12.02426953704047"><ele>1203.0</ele><time>2026-05-01T05:39:04Z</time></trkpt><trkpt lat="45.96126826156739" lon="12.0243732669781"><ele>1198.6666666666667</ele><time>2026-05-01T05:39:06Z</time></trkpt><trkpt lat="45.96123111543303" lon="12.024446857431412"><ele>1194.3333333333333</ele><time>2026-05-01T05:39:07Z</time></trkpt><trkpt lat="45.96116955937496" lon="12.024536422879349"><ele>1190.0</ele><time>2026-05-01T05:39:10Z</time></trkpt><trkpt lat="45.961128217501276" lon="12.024629388001914"><ele>1185.6666666666665</ele><time>2026-05-01T05:39:12Z</time></trkpt><trkpt lat="45.96108275988915" lon="12.024692184221205"><ele>1181.3333333333333</ele><time>2026-05-01T05:39:14Z</time></trkpt><trkpt lat="45.96105230528721" lon="12.02477764875624"><ele>1177.0</ele><time>2026-05-01T05:39:17Z</time></trkpt><trkpt lat="45.96097858641625" lon="12.024859466853728"><ele>1177.0</ele><time>2026-05-01T05:39:20Z</time></trkpt><trkpt lat="45.96093030183091" lon="12.024940078820537"><ele>1177.0</ele><time>2026-05-01T05:39:23Z</time></trkpt><trkpt lat="45.96089210845284" lon="12.025023064864452"><ele>1177.0</ele><time>2026-05-01T05:39:26Z</time></trkpt><trkpt lat="45.960819876718425" lon="12.025072998907033"><ele>1177.0</ele><time>2026-05-01T05:39:29Z</time></trkpt><trkpt lat="45.960766169082675" lon="12.025120459486043"><ele>1177.0</ele><time>2026-05-01T05:39:31Z</time></trkpt><trkpt lat="45.96069463920949" lon="12.025212917907869"><ele>1177.0</ele><time>2026-05-01T05:39:35Z</time></trkpt><trkpt lat="45.9606364481262" lon="12.025289356160627"><ele>1179.3333333333333</ele><time>2026-05-01T05:39:37Z</time></trkpt><trkpt lat="45.96059002974466" lon="12.025353981078034"><ele>1181.6666666666665</ele><time>2026-05-01T05:39:39Z</time></trkpt><trkpt lat="45.9605266433323" lon="12.0254417855783"><ele>1184.0</ele><time>2026-05-01T05:39:42Z</time></trkpt><trkpt lat="45.96047719938747" lon="12.025513566374961"><ele>1186.3333333333333</ele><time>2026-05-01T05:39:44Z</time></trkpt><trkpt lat="45.96041356349022" lon="12.025618563291337"><ele>1188.6666666666667</ele><time>2026-05-01T05:39:46Z</time></trkpt><trkpt lat="45.96033689490369" lon="12.025703262928875"><ele>1191.0</ele><time>2026-05-01T05:39:48Z</time></trkpt><trkpt lat="45.960262928902175" lon="12.025767881877112"><ele>1191.8333333333333</ele><time>2026-05-01T05:39:50Z</time></trkpt><trkpt lat="45.960200889954166" lon="12.025843219733982"><ele>1192.6666666666667</ele><time>2026-05-01T05:39:52Z</time></trkpt><trkpt lat="45.96014272418504" lon="12.025917964901236"><ele>1193.5</ele><time>2026-05-01T05:39:54Z</time></trkpt><trkpt lat="45.96008516837866" lon="12.02596110915626"><ele>1194.3333333333335</ele><time>2026-05-01T05:39:57Z</time></trkpt><trkpt lat="45.96002597987844" lon="12.026041200548857"><ele>1195.1666666666667</ele><time>2026-05-01T05:39:59Z</time></trkpt><trkpt lat="45.95995011416713" lon="12.026171936805603"><ele>1196.0</ele><time>2026-05-01T05:40:01Z</time></trkpt><trkpt lat="45.95989006446561" lon="12.026216375320912"><ele>1196.0</ele><time>2026-05-01T05:40:03Z</time></trkpt><trkpt lat="45.959789698585844" lon="12.026299330155268"><ele>1196.0</ele><time>2026-05-01T05:40:16Z</time></trkpt><trkpt lat="45.95974365743688" lon="12.026405422419876"><ele>1196.0</ele><time>2026-05-01T05:40:18Z</time></trkpt><trkpt lat="45.95969838849493" lon="12.026526365063996"><ele>1196.0</ele><time>2026-05-01T05:40:21Z</time></trkpt><trkpt lat="45.959666289180646" lon="12.02663417865267"><ele>1196.0</ele><time>2026-05-01T05:40:24Z</time></trkpt><trkpt lat="45.95965551742727" lon="12.02672944514991"><ele>1196.0</ele><time>2026-05-01T05:40:26Z</time></trkpt><trkpt lat="45.959645729456454" lon="12.02683641501186"><ele>1193.5</ele><time>2026-05-01T05:40:29Z</time></trkpt><trkpt lat="45.959599554089074" lon="12.026935575842495"><ele>1191.0</ele><time>2026-05-01T05:40:31.999Z</time></trkpt><trkpt lat="45.95954128799475" lon="12.027039442832889"><ele>1188.5</ele><time>2026-05-01T05:40:33.999Z</time></trkpt><trkpt lat="45.95949020848912" lon="12.02713803899116"><ele>1186.0</ele><time>2026-05-01T05:40:35.999Z</time></trkpt><trkpt lat="45.95945114036516" lon="12.02723470216333"><ele>1183.5</ele><time>2026-05-01T05:40:38.999Z</time></trkpt><trkpt lat="45.959377506019116" lon="12.027280561977053"><ele>1181.0</ele><time>2026-05-01T05:40:40.999Z</time></trkpt><trkpt lat="45.95930481436348" lon="12.027354697064217"><ele>1181.0</ele><time>2026-05-01T05:40:42.999Z</time></trkpt><trkpt lat="45.95924011294272" lon="12.027448663097237"><ele>1181.0</ele><time>2026-05-01T05:40:44.999Z</time></trkpt><trkpt lat="45.95918393471628" lon="12.027527613152825"><ele>1181.0</ele><time>2026-05-01T05:40:47.999Z</time></trkpt><trkpt lat="45.959171624563155" lon="12.027627296695623"><ele>1181.0</ele><time>2026-05-01T05:40:49.999Z</time></trkpt><trkpt lat="45.95920139170937" lon="12.027709053723827"><ele>1181.0</ele><time>2026-05-01T05:40:51.999Z</time></trkpt><trkpt lat="45.95928159968052" lon="12.027734651916283"><ele>1181.0</ele><time>2026-05-01T05:40:54.999Z</time></trkpt><trkpt lat="45.95934534778042" lon="12.027776890720313"><ele>1183.4285714285716</ele><time>2026-05-01T05:40:57Z</time></trkpt><trkpt lat="45.95942043870486" lon="12.027733247913027"><ele>1185.857142857143</ele><time>2026-05-01T05:41:01Z</time></trkpt><trkpt lat="45.95949222377065" lon="12.027737953229783"><ele>1188.2857142857142</ele><time>2026-05-01T05:41:03Z</time></trkpt><trkpt lat="45.95955637861636" lon="12.027730554307468"><ele>1190.7142857142858</ele><time>2026-05-01T05:41:05Z</time></trkpt><trkpt lat="45.95963044585631" lon="12.027702206122752"><ele>1193.142857142857</ele><time>2026-05-01T05:41:08Z</time></trkpt><trkpt lat="45.95969450079784" lon="12.027657285979064"><ele>1195.5714285714287</ele><time>2026-05-01T05:41:12Z</time></trkpt><trkpt lat="45.95977668585063" lon="12.027630546059275"><ele>1198.0</ele><time>2026-05-01T05:41:15Z</time></trkpt><trkpt lat="45.959856486538285" lon="12.027625192732684"><ele>1198.0</ele><time>2026-05-01T05:41:16Z</time></trkpt><trkpt lat="45.95994608874492" lon="12.027602755348427"><ele>1198.0</ele><time>2026-05-01T05:41:18Z</time></trkpt><trkpt lat="45.960014315536554" lon="12.027561923293389"><ele>1198.0</ele><time>2026-05-01T05:41:20Z</time></trkpt><trkpt lat="45.96008653817651" lon="12.027535281084146"><ele>1198.0</ele><time>2026-05-01T05:41:24Z</time></trkpt><trkpt lat="45.96017576569183" lon="12.027491752691429"><ele>1198.0</ele><time>2026-05-01T05:41:27Z</time></trkpt><trkpt lat="45.96023358036351" lon="12.02743749872477"><ele>1198.0</ele><time>2026-05-01T05:41:29Z</time></trkpt><trkpt lat="45.96029711329506" lon="12.027399633633133"><ele>1196.0</ele><time>2026-05-01T05:41:31Z</time></trkpt><trkpt lat="45.96039561269568" lon="12.027331881940583"><ele>1194.0</ele><time>2026-05-01T05:41:34Z</time></trkpt><trkpt lat="45.96046083681178" lon="12.027301196017023"><ele>1192.0</ele><time>2026-05-01T05:41:36Z</time></trkpt><trkpt lat="45.96052322343707" lon="12.027286937146348"><ele>1190.0</ele><time>2026-05-01T05:41:39Z</time></trkpt><trkpt lat="45.96060991059567" lon="12.027282243379315"><ele>1188.0</ele><time>2026-05-01T05:41:42Z</time></trkpt><trkpt lat="45.960712625458385" lon="12.027288334294253"><ele>1186.0</ele><time>2026-05-01T05:41:44Z</time></trkpt><trkpt lat="45.96078730086429" lon="12.027289955057855"><ele>1186.0</ele><time>2026-05-01T05:41:46Z</time></trkpt><trkpt lat="45.960845183120234" lon="12.027239569219478"><ele>1186.0</ele><time>2026-05-01T05:41:48Z</time></trkpt><trkpt lat="45.96091250011783" lon="12.027221458689446"><ele>1186.0</ele><time>2026-05-01T05:41:50Z</time></trkpt><trkpt lat="45.96099031992849" lon="12.027223324893368"><ele>1186.0</ele><time>2026-05-01T05:41:52Z</time></trkpt><trkpt lat="45.961070925963085" lon="12.027203891584014"><ele>1186.0</ele><time>2026-05-01T05:41:54Z</time></trkpt><trkpt lat="45.96118495420104" lon="12.027211348679371"><ele>1186.0</ele><time>2026-05-01T05:41:57Z</time></trkpt><trkpt lat="45.96126247146785" lon="12.027204191014803"><ele>1188.0</ele><time>2026-05-01T05:41:59Z</time></trkpt><trkpt lat="45.961360466483804" lon="12.02716260348238"><ele>1190.0</ele><time>2026-05-01T05:42:02Z</time></trkpt><trkpt lat="45.961431410883065" lon="12.027107827738412"><ele>1192.0</ele><time>2026-05-01T05:42:05Z</time></trkpt><trkpt lat="45.961494848323056" lon="12.027156995163965"><ele>1194.0</ele><time>2026-05-01T05:42:07Z</time></trkpt><trkpt lat="45.96155880177142" lon="12.027172635185089"><ele>1196.0</ele><time>2026-05-01T05:42:08Z</time></trkpt><trkpt lat="45.961649671253326" lon="12.027171943003474"><ele>1198.0</ele><time>2026-05-01T05:42:11Z</time></trkpt><trkpt lat="45.96172244426592" lon="12.02719273301107"><ele>1201.1666666666665</ele><time>2026-05-01T05:42:13Z</time></trkpt><trkpt lat="45.961805420207746" lon="12.027163648383102"><ele>1204.3333333333333</ele><time>2026-05-01T05:42:18Z</time></trkpt><trkpt lat="45.961880578452046" lon="12.027209131436974"><ele>1207.5</ele><time>2026-05-01T05:42:20Z</time></trkpt><trkpt lat="45.961946445582115" lon="12.02722711521137"><ele>1210.6666666666667</ele><time>2026-05-01T05:42:24Z</time></trkpt><trkpt lat="45.96203407650378" lon="12.027251262930015"><ele>1213.8333333333335</ele><time>2026-05-01T05:42:25Z</time></trkpt><trkpt lat="45.96210994943773" lon="12.027228404690309"><ele>1217.0</ele><time>2026-05-01T05:42:27Z</time></trkpt><trkpt lat="45.962196635054525" lon="12.027251561958229"><ele>1217.0</ele><time>2026-05-01T05:42:28.999Z</time></trkpt><trkpt lat="45.96229038422576" lon="12.027251483979718"><ele>1217.0</ele><time>2026-05-01T05:42:30.999Z</time></trkpt><trkpt lat="45.96239143214416" lon="12.027318154963229"><ele>1217.0</ele><time>2026-05-01T05:42:33.999Z</time></trkpt><trkpt lat="45.9624574150112" lon="12.027352632193045"><ele>1217.0</ele><time>2026-05-01T05:42:35.999Z</time></trkpt><trkpt lat="45.96245271289995" lon="12.027473454431336"><ele>1217.0</ele><time>2026-05-01T05:42:38.999Z</time></trkpt><trkpt lat="45.96243798606634" lon="12.027608185299886"><ele>1221.0</ele><time>2026-05-01T05:42:41.999Z</time></trkpt><trkpt lat="45.962410491064574" lon="12.027737475716146"><ele>1225.0</ele><time>2026-05-01T05:42:43.999Z</time></trkpt><trkpt lat="45.962390402499594" lon="12.02782472892093"><ele>1229.0</ele><time>2026-05-01T05:42:44.999Z</time></trkpt><trkpt lat="45.962372068996174" lon="12.02795342543005"><ele>1233.0</ele><time>2026-05-01T05:42:46.999Z</time></trkpt><trkpt lat="45.962412479807696" lon="12.028044285814472"><ele>1237.0</ele><time>2026-05-01T05:42:48.999Z</time></trkpt><trkpt lat="45.962471240222115" lon="12.028095730567474"><ele>1241.0</ele><time>2026-05-01T05:42:50.999Z</time></trkpt><trkpt lat="45.96257136278255" lon="12.028067219280889"><ele>1241.3999999999999</ele><time>2026-05-01T05:42:53.999Z</time></trkpt><trkpt lat="45.96268219441783" lon="12.028070123123014"><ele>1241.8</ele><time>2026-05-01T05:42:55.999Z</time></trkpt><trkpt lat="45.96276067199351" lon="12.028090074743366"><ele>1242.1999999999998</ele><time>2026-05-01T05:42:57.999Z</time></trkpt><trkpt lat="45.962862578417386" lon="12.028124496239979"><ele>1242.6</ele><time>2026-05-01T05:42:59.999Z</time></trkpt><trkpt lat="45.9629282337469" lon="12.028130188842674"><ele>1243.0</ele><time>2026-05-01T05:43:00.999Z</time></trkpt><trkpt lat="45.9630377598199" lon="12.028127695916815"><ele>1243.0</ele><time>2026-05-01T05:43:03Z</time></trkpt><trkpt lat="45.963101216047214" lon="12.028131896513907"><ele>1243.0</ele><time>2026-05-01T05:43:04Z</time></trkpt><trkpt lat="45.96319545199084" lon="12.028112100961357"><ele>1243.0</ele><time>2026-05-01T05:43:06Z</time></trkpt><trkpt lat="45.963259905187286" lon="12.028117124945236"><ele>1243.0</ele><time>2026-05-01T05:43:08Z</time></trkpt><trkpt lat="45.963361612407006" lon="12.02805945371119"><ele>1243.0</ele><time>2026-05-01T05:43:10Z</time></trkpt><trkpt lat="45.96343216382111" lon="12.028054236101347"><ele>1243.0</ele><time>2026-05-01T05:43:12Z</time></trkpt><trkpt lat="45.96354443842729" lon="12.028086997644271"><ele>1242.1428571428573</ele><time>2026-05-01T05:43:14Z</time></trkpt><trkpt lat="45.96356477367915" lon="12.028175166801235"><ele>1241.2857142857142</ele><time>2026-05-01T05:43:17Z</time></trkpt><trkpt lat="45.96353763926882" lon="12.028286410101323"><ele>1240.4285714285716</ele><time>2026-05-01T05:43:20Z</time></trkpt><trkpt lat="45.96349536860077" lon="12.028358096310205"><ele>1239.5714285714287</ele><time>2026-05-01T05:43:22Z</time></trkpt><trkpt lat="45.963444177723375" lon="12.028432759040767"><ele>1238.7142857142858</ele><time>2026-05-01T05:43:25Z</time></trkpt><trkpt lat="45.96340846828791" lon="12.028535582010516"><ele>1237.857142857143</ele><time>2026-05-01T05:43:29Z</time></trkpt><trkpt lat="45.963370341935665" lon="12.028633101296656"><ele>1237.0</ele><time>2026-05-01T05:43:32Z</time></trkpt><trkpt lat="45.96334020301144" lon="12.028714349086076"><ele>1239.6666666666665</ele><time>2026-05-01T05:43:34Z</time></trkpt><trkpt lat="45.96331164583288" lon="12.028796156049301"><ele>1242.3333333333333</ele><time>2026-05-01T05:43:36Z</time></trkpt><trkpt lat="45.96329356564784" lon="12.028899651876985"><ele>1245.0</ele><time>2026-05-01T05:43:39Z</time></trkpt><trkpt lat="45.963273234926135" lon="12.02898677325524"><ele>1247.6666666666667</ele><time>2026-05-01T05:43:41Z</time></trkpt><trkpt lat="45.96325245222571" lon="12.029088296505698"><ele>1250.3333333333335</ele><time>2026-05-01T05:43:44Z</time></trkpt><trkpt lat="45.963250553020664" lon="12.029193476832742"><ele>1253.0</ele><time>2026-05-01T05:43:45Z</time></trkpt><trkpt lat="45.963235777963305" lon="12.029360209922391"><ele>1253.0</ele><time>2026-05-01T05:43:47Z</time></trkpt><trkpt lat="45.96322823396636" lon="12.02946318030635"><ele>1253.0</ele><time>2026-05-01T05:43:49Z</time></trkpt><trkpt lat="45.96324290656548" lon="12.029585322255487"><ele>1253.0</ele><time>2026-05-01T05:43:51Z</time></trkpt><trkpt lat="45.96326145765618" lon="12.029691280549617"><ele>1253.0</ele><time>2026-05-01T05:43:54Z</time></trkpt><trkpt lat="45.963256441138284" lon="12.02981339315939"><ele>1253.0</ele><time>2026-05-01T05:43:56Z</time></trkpt><trkpt lat="45.963211320988556" lon="12.029925206939131"><ele>1253.0</ele><time>2026-05-01T05:43:59Z</time></trkpt><trkpt lat="45.96314625439038" lon="12.03001648609041"><ele>1250.5</ele><time>2026-05-01T05:44:02Z</time></trkpt><trkpt lat="45.963067691169435" lon="12.02998303059578"><ele>1248.0</ele><time>2026-05-01T05:44:04Z</time></trkpt><trkpt lat="45.963017385990305" lon="12.03006586578393"><ele>1245.5</ele><time>2026-05-01T05:44:07Z</time></trkpt><trkpt lat="45.962970534350504" lon="12.030168896985323"><ele>1243.0</ele><time>2026-05-01T05:44:10Z</time></trkpt><trkpt lat="45.96292928357142" lon="12.030281223676598"><ele>1240.5</ele><time>2026-05-01T05:44:12Z</time></trkpt><trkpt lat="45.96291188765583" lon="12.030386535136113"><ele>1238.0</ele><time>2026-05-01T05:44:13Z</time></trkpt><trkpt lat="45.96286886066853" lon="12.030470872196185"><ele>1238.0</ele><time>2026-05-01T05:44:14Z</time></trkpt><trkpt lat="45.962809456715455" lon="12.03056702529156"><ele>1238.0</ele><time>2026-05-01T05:44:16Z</time></trkpt><trkpt lat="45.96275087439694" lon="12.030606049699509"><ele>1238.0</ele><time>2026-05-01T05:44:19Z</time></trkpt><trkpt lat="45.962684434639584" lon="12.030683678616061"><ele>1238.0</ele><time>2026-05-01T05:44:22Z</time></trkpt><trkpt lat="45.96261948917031" lon="12.030714134296558"><ele>1238.0</ele><time>2026-05-01T05:44:24Z</time></trkpt><trkpt lat="45.962562320053024" lon="12.030786978378018"><ele>1238.0</ele><time>2026-05-01T05:44:26Z</time></trkpt><trkpt lat="45.96250284242067" lon="12.03085325939947"><ele>1239.6666666666667</ele><time>2026-05-01T05:44:27Z</time></trkpt><trkpt lat="45.96243485277039" lon="12.030927261973293"><ele>1241.3333333333335</ele><time>2026-05-01T05:44:28Z</time></trkpt><trkpt lat="45.962366075580405" lon="12.031004906316655"><ele>1243.0</ele><time>2026-05-01T05:44:30Z</time></trkpt><trkpt lat="45.96230298300061" lon="12.031021230408456"><ele>1244.6666666666667</ele><time>2026-05-01T05:44:31.999Z</time></trkpt><trkpt lat="45.962229925582896" lon="12.031083487325278"><ele>1246.3333333333333</ele><time>2026-05-01T05:44:33.999Z</time></trkpt><trkpt lat="45.96215641380008" lon="12.031109863865696"><ele>1248.0</ele><time>2026-05-01T05:44:34.999Z</time></trkpt><trkpt lat="45.962055313197176" lon="12.031203805057656"><ele>1248.0</ele><time>2026-05-01T05:44:36.999Z</time></trkpt><trkpt lat="45.9619694084578" lon="12.031313092411239"><ele>1248.0</ele><time>2026-05-01T05:44:39.999Z</time></trkpt><trkpt lat="45.96188471871874" lon="12.03139893171964"><ele>1248.0</ele><time>2026-05-01T05:44:41.999Z</time></trkpt><trkpt lat="45.96177435161319" lon="12.031462927020112"><ele>1248.0</ele><time>2026-05-01T05:44:43.999Z</time></trkpt><trkpt lat="45.9617085182109" lon="12.031490716942544"><ele>1248.0</ele><time>2026-05-01T05:44:44.999Z</time></trkpt><trkpt lat="45.961613739393506" lon="12.031520397428247"><ele>1247.6666666666667</ele><time>2026-05-01T05:44:46.999Z</time></trkpt><trkpt lat="45.96153590114375" lon="12.031578322313516"><ele>1247.3333333333333</ele><time>2026-05-01T05:44:48.999Z</time></trkpt><trkpt lat="45.961427683411294" lon="12.031634900855657"><ele>1247.0</ele><time>2026-05-01T05:44:52.999Z</time></trkpt><trkpt lat="45.96138109340851" lon="12.031732448627599"><ele>1246.6666666666665</ele><time>2026-05-01T05:44:55.999Z</time></trkpt><trkpt lat="45.96134503385609" lon="12.031830301994994"><ele>1246.3333333333333</ele><time>2026-05-01T05:44:57.999Z</time></trkpt><trkpt lat="45.96131254281599" lon="12.031916808780183"><ele>1246.0</ele><time>2026-05-01T05:44:59.999Z</time></trkpt><trkpt lat="45.961257724782975" lon="12.031975678092817"><ele>1246.0</ele><time>2026-05-01T05:45:01.999Z</time></trkpt><trkpt lat="45.961190602158304" lon="12.032024310336949"><ele>1246.0</ele><time>2026-05-01T05:45:03.999Z</time></trkpt><trkpt lat="45.961081187594424" lon="12.032110502742446"><ele>1246.0</ele><time>2026-05-01T05:45:05.999Z</time></trkpt><trkpt lat="45.96102280416546" lon="12.032218512431692"><ele>1246.0</ele><time>2026-05-01T05:45:06.999Z</time></trkpt><trkpt lat="45.96095000407923" lon="12.03235251678388"><ele>1246.0</ele><time>2026-05-01T05:45:09Z</time></trkpt><trkpt lat="45.960896654202294" lon="12.032425078219834"><ele>1247.5</ele><time>2026-05-01T05:45:12Z</time></trkpt><trkpt lat="45.96079270127268" lon="12.032531707259922"><ele>1249.0</ele><time>2026-05-01T05:45:15Z</time></trkpt><trkpt lat="45.960740217658575" lon="12.032615619931661"><ele>1250.5</ele><time>2026-05-01T05:45:18Z</time></trkpt><trkpt lat="45.960665990950574" lon="12.032734607400252"><ele>1252.0</ele><time>2026-05-01T05:45:21Z</time></trkpt><trkpt lat="45.960590101010006" lon="12.032894871516506"><ele>1252.0</ele><time>2026-05-01T05:45:23Z</time></trkpt><trkpt lat="45.960517593615535" lon="12.032991185708688"><ele>1252.0</ele><time>2026-05-01T05:45:24Z</time></trkpt><trkpt lat="45.96042789384719" lon="12.033098158418516"><ele>1252.0</ele><time>2026-05-01T05:45:26Z</time></trkpt><trkpt lat="45.960351982491815" lon="12.033240278963191"><ele>1252.0</ele><time>2026-05-01T05:45:28Z</time></trkpt><trkpt lat="45.960280724662056" lon="12.0333544167101"><ele>1252.0</ele><time>2026-05-01T05:45:30Z</time></trkpt><trkpt lat="45.96023588314689" lon="12.033460239121611"><ele>1254.3333333333333</ele><time>2026-05-01T05:45:32Z</time></trkpt><trkpt lat="45.96013382621187" lon="12.033578458874736"><ele>1256.6666666666665</ele><time>2026-05-01T05:45:34Z</time></trkpt><trkpt lat="45.960087016856235" lon="12.033643692188043"><ele>1259.0</ele><time>2026-05-01T05:45:35Z</time></trkpt><trkpt lat="45.96004227248116" lon="12.033716877610285"><ele>1261.3333333333333</ele><time>2026-05-01T05:45:38Z</time></trkpt><trkpt lat="45.9599902871358" lon="12.033794417218168"><ele>1263.6666666666667</ele><time>2026-05-01T05:45:40Z</time></trkpt><trkpt lat="45.95991087475567" lon="12.03389747871649"><ele>1266.0</ele><time>2026-05-01T05:45:42Z</time></trkpt><trkpt lat="45.95985387197659" lon="12.03394543473098"><ele>1266.0</ele><time>2026-05-01T05:45:43Z</time></trkpt><trkpt lat="45.95976891996495" lon="12.034052097291454"><ele>1266.0</ele><time>2026-05-01T05:45:47Z</time></trkpt><trkpt lat="45.95971095477305" lon="12.034126610478594"><ele>1266.0</ele><time>2026-05-01T05:45:49Z</time></trkpt><trkpt lat="45.95965134288129" lon="12.034190553972909"><ele>1266.0</ele><time>2026-05-01T05:45:50Z</time></trkpt><trkpt lat="45.95959381783532" lon="12.034267640342604"><ele>1266.0</ele><time>2026-05-01T05:45:52Z</time></trkpt><trkpt lat="45.95954494843496" lon="12.03432512572132"><ele>1266.0</ele><time>2026-05-01T05:45:53Z</time></trkpt><trkpt lat="45.95947666889989" lon="12.034361979387063"><ele>1267.0</ele><time>2026-05-01T05:45:56Z</time></trkpt><trkpt lat="45.959373172944154" lon="12.034484894205162"><ele>1268.0</ele><time>2026-05-01T05:45:58Z</time></trkpt><trkpt lat="45.95930986014836" lon="12.034544324997956"><ele>1269.0</ele><time>2026-05-01T05:46:00Z</time></trkpt><trkpt lat="45.95927202719148" lon="12.03462327181638"><ele>1270.0</ele><time>2026-05-01T05:46:01Z</time></trkpt><trkpt lat="45.95924311024271" lon="12.034713885744393"><ele>1271.0</ele><time>2026-05-01T05:46:03Z</time></trkpt><trkpt lat="45.95916868898773" lon="12.03477967105322"><ele>1272.0</ele><time>2026-05-01T05:46:05Z</time></trkpt><trkpt lat="45.95905294140592" lon="12.034896594895946"><ele>1272.0</ele><time>2026-05-01T05:46:07Z</time></trkpt><trkpt lat="45.95898883038264" lon="12.034934098600997"><ele>1272.0</ele><time>2026-05-01T05:46:08Z</time></trkpt><trkpt lat="45.95888866998501" lon="12.035073773495798"><ele>1272.0</ele><time>2026-05-01T05:46:11Z</time></trkpt><trkpt lat="45.95883776535448" lon="12.035167898050855"><ele>1272.0</ele><time>2026-05-01T05:46:12Z</time></trkpt><trkpt lat="45.958776501047765" lon="12.035260971370349"><ele>1272.0</ele><time>2026-05-01T05:46:13Z</time></trkpt><trkpt lat="45.95872536635551" lon="12.035333369674778"><ele>1274.4</ele><time>2026-05-01T05:46:14Z</time></trkpt><trkpt lat="45.95866024078571" lon="12.035398668188927"><ele>1276.8000000000002</ele><time>2026-05-01T05:46:15Z</time></trkpt><trkpt lat="45.95857960410488" lon="12.035501831146103"><ele>1279.2</ele><time>2026-05-01T05:46:17Z</time></trkpt><trkpt lat="45.95851061574116" lon="12.03559302854346"><ele>1281.6000000000001</ele><time>2026-05-01T05:46:19Z</time></trkpt><trkpt lat="45.958411927553605" lon="12.035696984024613"><ele>1284.0</ele><time>2026-05-01T05:46:21Z</time></trkpt><trkpt lat="45.95835913823758" lon="12.035747048826492"><ele>1278.4</ele><time>2026-05-01T05:46:22Z</time></trkpt><trkpt lat="45.95830021640052" lon="12.03583146502189"><ele>1272.8000000000002</ele><time>2026-05-01T05:46:24Z</time></trkpt><trkpt lat="45.95821491846834" lon="12.035950085296761"><ele>1267.1999999999998</ele><time>2026-05-01T05:46:26Z</time></trkpt><trkpt lat="45.95816718969796" lon="12.036010218046002"><ele>1261.6</ele><time>2026-05-01T05:46:27Z</time></trkpt><trkpt lat="45.958129765731734" lon="12.036110284935587"><ele>1256.0</ele><time>2026-05-01T05:46:28Z</time></trkpt><trkpt lat="45.958036681377095" lon="12.036198341575167"><ele>1256.0</ele><time>2026-05-01T05:46:30Z</time></trkpt><trkpt lat="45.95797161701754" lon="12.036326868760973"><ele>1256.0</ele><time>2026-05-01T05:46:32Z</time></trkpt><trkpt lat="45.957936346012055" lon="12.036408899233665"><ele>1256.0</ele><time>2026-05-01T05:46:33Z</time></trkpt><trkpt lat="45.95788321663061" lon="12.036478827742817"><ele>1256.0</ele><time>2026-05-01T05:46:36Z</time></trkpt><trkpt lat="45.95786577542963" lon="12.036615770689405"><ele>1256.0</ele><time>2026-05-01T05:46:40Z</time></trkpt><trkpt lat="45.95781269650356" lon="12.036706631786661"><ele>1256.0</ele><time>2026-05-01T05:46:42Z</time></trkpt><trkpt lat="45.95775574391694" lon="12.03683533849356"><ele>1255.8333333333335</ele><time>2026-05-01T05:46:45Z</time></trkpt><trkpt lat="45.95780385450855" lon="12.036899220966188"><ele>1255.6666666666667</ele><time>2026-05-01T05:46:48.999Z</time></trkpt><trkpt lat="45.95787783488636" lon="12.036935658614942"><ele>1255.5</ele><time>2026-05-01T05:46:54.999Z</time></trkpt><trkpt lat="45.957940034136485" lon="12.036916853614532"><ele>1255.3333333333333</ele><time>2026-05-01T05:46:57.999Z</time></trkpt><trkpt lat="45.95801783512933" lon="12.03682725167899"><ele>1255.1666666666665</ele><time>2026-05-01T05:46:59.999Z</time></trkpt><trkpt lat="45.95806689038312" lon="12.036737868348878"><ele>1255.0</ele><time>2026-05-01T05:47:01.999Z</time></trkpt><trkpt lat="45.95813246181247" lon="12.036675287200017"><ele>1255.1666666666665</ele><time>2026-05-01T05:47:03.999Z</time></trkpt><trkpt lat="45.958201570478955" lon="12.036588803604495"><ele>1255.3333333333333</ele><time>2026-05-01T05:47:05.999Z</time></trkpt><trkpt lat="45.95826343463183" lon="12.036537236800742"><ele>1255.5</ele><time>2026-05-01T05:47:07.999Z</time></trkpt><trkpt lat="45.95831841340511" lon="12.036482801709537"><ele>1255.6666666666667</ele><time>2026-05-01T05:47:08.999Z</time></trkpt><trkpt lat="45.95842093395291" lon="12.036390165548678"><ele>1255.8333333333335</ele><time>2026-05-01T05:47:10.999Z</time></trkpt><trkpt lat="45.95849792608" lon="12.036338655020934"><ele>1256.0</ele><time>2026-05-01T05:47:12.999Z</time></trkpt><trkpt lat="45.95856173562264" lon="12.036281111287767"><ele>1254.1666666666667</ele><time>2026-05-01T05:47:15Z</time></trkpt><trkpt lat="45.9586451689917" lon="12.036192998642363"><ele>1252.3333333333335</ele><time>2026-05-01T05:47:17Z</time></trkpt><trkpt lat="45.95872010611541" lon="12.036134375097886"><ele>1250.5</ele><time>2026-05-01T05:47:19Z</time></trkpt><trkpt lat="45.958781911368845" lon="12.036063117084872"><ele>1248.6666666666667</ele><time>2026-05-01T05:47:21Z</time></trkpt><trkpt lat="45.9588429291572" lon="12.036017933731209"><ele>1246.8333333333333</ele><time>2026-05-01T05:47:23Z</time></trkpt><trkpt lat="45.95894125135566" lon="12.035955058635931"><ele>1245.0</ele><time>2026-05-01T05:47:25Z</time></trkpt><trkpt lat="45.95906672003299" lon="12.03590189051376"><ele>1245.0</ele><time>2026-05-01T05:47:28Z</time></trkpt><trkpt lat="45.95917576879932" lon="12.035825897804365"><ele>1245.0</ele><time>2026-05-01T05:47:30Z</time></trkpt><trkpt lat="45.95927089325455" lon="12.035753502632314"><ele>1245.0</ele><time>2026-05-01T05:47:32Z</time></trkpt><trkpt lat="45.95942674197279" lon="12.03570376133351"><ele>1245.0</ele><time>2026-05-01T05:47:34Z</time></trkpt><trkpt lat="45.9595193922058" lon="12.03566052580642"><ele>1241.0</ele><time>2026-05-01T05:47:36Z</time></trkpt><trkpt lat="45.95962390257347" lon="12.035614272294318"><ele>1237.0</ele><time>2026-05-01T05:47:38Z</time></trkpt><trkpt lat="45.95975327625245" lon="12.0355620307102"><ele>1233.0</ele><time>2026-05-01T05:47:40Z</time></trkpt><trkpt lat="45.95985020269153" lon="12.035487945127326"><ele>1229.0</ele><time>2026-05-01T05:47:42Z</time></trkpt><trkpt lat="45.959930529309474" lon="12.035447457591344"><ele>1225.0</ele><time>2026-05-01T05:47:43Z</time></trkpt><trkpt lat="45.96005264165086" lon="12.035425519359581"><ele>1224.2</ele><time>2026-05-01T05:47:45Z</time></trkpt><trkpt lat="45.960131467376" lon="12.035415940853303"><ele>1223.4</ele><time>2026-05-01T05:47:47Z</time></trkpt><trkpt lat="45.96020687124823" lon="12.035387960039865"><ele>1222.6</ele><time>2026-05-01T05:47:49Z</time></trkpt><trkpt lat="45.96030194726316" lon="12.035407194532025"><ele>1221.8</ele><time>2026-05-01T05:47:51Z</time></trkpt><trkpt lat="45.96039527674958" lon="12.035433559873256"><ele>1221.0</ele><time>2026-05-01T05:47:53Z</time></trkpt><trkpt lat="45.96049509022698" lon="12.035477766467478"><ele>1221.0</ele><time>2026-05-01T05:47:55Z</time></trkpt><trkpt lat="45.96059152557548" lon="12.035530947528812"><ele>1221.0</ele><time>2026-05-01T05:47:57Z</time></trkpt><trkpt lat="45.96065568608999" lon="12.03553809139319"><ele>1221.0</ele><time>2026-05-01T05:47:59Z</time></trkpt><trkpt lat="45.96072467026353" lon="12.035553557168367"><ele>1221.0</ele><time>2026-05-01T05:48:00Z</time></trkpt><trkpt lat="45.96080518626317" lon="12.03545333251224"><ele>1221.0</ele><time>2026-05-01T05:48:02Z</time></trkpt><trkpt lat="45.96083347316161" lon="12.035317314329108"><ele>1221.0</ele><time>2026-05-01T05:48:04Z</time></trkpt><trkpt lat="45.960898650059384" lon="12.035213532554975"><ele>1223.5</ele><time>2026-05-01T05:48:07Z</time></trkpt><trkpt lat="45.960951603738025" lon="12.035071959024327"><ele>1226.0</ele><time>2026-05-01T05:48:09Z</time></trkpt><trkpt lat="45.96100561955359" lon="12.035017464394342"><ele>1228.5</ele><time>2026-05-01T05:48:11Z</time></trkpt><trkpt lat="45.96107658913413" lon="12.03493850964943"><ele>1231.0</ele><time>2026-05-01T05:48:13Z</time></trkpt><trkpt lat="45.96114201566161" lon="12.034840808082443"><ele>1233.5</ele><time>2026-05-01T05:48:15Z</time></trkpt><trkpt lat="45.96119556009921" lon="12.034782386234632"><ele>1236.0</ele><time>2026-05-01T05:48:17Z</time></trkpt><trkpt lat="45.96125843481241" lon="12.034739446043952"><ele>1231.5</ele><time>2026-05-01T05:48:19Z</time></trkpt><trkpt lat="45.96132505362513" lon="12.034706149192"><ele>1227.0</ele><time>2026-05-01T05:48:21Z</time></trkpt><trkpt lat="45.961409116251815" lon="12.034659919254917"><ele>1222.5</ele><time>2026-05-01T05:48:23Z</time></trkpt><trkpt lat="45.96147720777008" lon="12.034617682917464"><ele>1218.0</ele><time>2026-05-01T05:48:25Z</time></trkpt><trkpt lat="45.96157680736429" lon="12.034585460893398"><ele>1213.5</ele><time>2026-05-01T05:48:27Z</time></trkpt><trkpt lat="45.96163995001516" lon="12.034500077650826"><ele>1209.0</ele><time>2026-05-01T05:48:29Z</time></trkpt><trkpt lat="45.96170444500919" lon="12.03443044834142"><ele>1209.0</ele><time>2026-05-01T05:48:31Z</time></trkpt><trkpt lat="45.96182110498457" lon="12.034421683924638"><ele>1209.0</ele><time>2026-05-01T05:48:33Z</time></trkpt><trkpt lat="45.96188658288238" lon="12.0343924131701"><ele>1209.0</ele><time>2026-05-01T05:48:35Z</time></trkpt><trkpt lat="45.96195655882708" lon="12.034347316040714"><ele>1209.0</ele><time>2026-05-01T05:48:38Z</time></trkpt><trkpt lat="45.962020638660164" lon="12.03426024085682"><ele>1209.0</ele><time>2026-05-01T05:48:40.999Z</time></trkpt><trkpt lat="45.96207318017723" lon="12.03417441175746"><ele>1209.0</ele><time>2026-05-01T05:48:42.999Z</time></trkpt><trkpt lat="45.96216085942322" lon="12.034214387819567"><ele>1209.0</ele><time>2026-05-01T05:48:43.999Z</time></trkpt><trkpt lat="45.962242106193465" lon="12.034162160724502"><ele>1209.0</ele><time>2026-05-01T05:48:44.999Z</time></trkpt><trkpt lat="45.962323280649095" lon="12.034138132571993"><ele>1209.0</ele><time>2026-05-01T05:48:45.999Z</time></trkpt><trkpt lat="45.96241348410529" lon="12.034099344241454"><ele>1209.0</ele><time>2026-05-01T05:48:47.999Z</time></trkpt><trkpt lat="45.96252501692754" lon="12.0341007649511"><ele>1209.0</ele><time>2026-05-01T05:48:49.999Z</time></trkpt><trkpt lat="45.962601623645476" lon="12.034094238031972"><ele>1201.8</ele><time>2026-05-01T05:48:50.999Z</time></trkpt><trkpt lat="45.962690055203225" lon="12.034060670650565"><ele>1194.6000000000001</ele><time>2026-05-01T05:48:52.999Z</time></trkpt><trkpt lat="45.96278336029712" lon="12.034059273230326"><ele>1187.4</ele><time>2026-05-01T05:48:54.999Z</time></trkpt><trkpt lat="45.96285120271419" lon="12.034072170275051"><ele>1180.2</ele><time>2026-05-01T05:48:55.999Z</time></trkpt><trkpt lat="45.9629449163223" lon="12.034069413063879"><ele>1173.0</ele><time>2026-05-01T05:48:57.999Z</time></trkpt><trkpt lat="45.96305052987425" lon="12.034056617708652"><ele>1173.0</ele><time>2026-05-01T05:48:59.999Z</time></trkpt><trkpt lat="45.963146359472475" lon="12.034057110819202"><ele>1173.0</ele><time>2026-05-01T05:49:01.999Z</time></trkpt><trkpt lat="45.96320946080209" lon="12.034047149377557"><ele>1173.0</ele><time>2026-05-01T05:49:02.999Z</time></trkpt><trkpt lat="45.96331728317662" lon="12.034014672283789"><ele>1173.0</ele><time>2026-05-01T05:49:04.999Z</time></trkpt><trkpt lat="45.96342855033823" lon="12.033971337778313"><ele>1173.0</ele><time>2026-05-01T05:49:06.999Z</time></trkpt><trkpt lat="45.963504427288264" lon="12.033905089985343"><ele>1173.6</ele><time>2026-05-01T05:49:08.999Z</time></trkpt><trkpt lat="45.96360093047266" lon="12.033866406054218"><ele>1174.1999999999998</ele><time>2026-05-01T05:49:10.999Z</time></trkpt><trkpt lat="45.963680921656604" lon="12.033834586105272"><ele>1174.8</ele><time>2026-05-01T05:49:12.999Z</time></trkpt><trkpt lat="45.963758422085014" lon="12.033779689166105"><ele>1175.3999999999999</ele><time>2026-05-01T05:49:14.999Z</time></trkpt><trkpt lat="45.96385366920048" lon="12.033740592751952"><ele>1176.0</ele><time>2026-05-01T05:49:16.999Z</time></trkpt><trkpt lat="45.963948323530886" lon="12.033700774056255"><ele>1176.0</ele><time>2026-05-01T05:49:18.999Z</time></trkpt><trkpt lat="45.96405411959045" lon="12.033651211320494"><ele>1176.0</ele><time>2026-05-01T05:49:21Z</time></trkpt><trkpt lat="45.9641421923144" lon="12.033620538373706"><ele>1176.0</ele><time>2026-05-01T05:49:23Z</time></trkpt><trkpt lat="45.96422593911962" lon="12.033570394247471"><ele>1176.0</ele><time>2026-05-01T05:49:25Z</time></trkpt><trkpt lat="45.96430462965245" lon="12.03354414979307"><ele>1176.0</ele><time>2026-05-01T05:49:27Z</time></trkpt><trkpt lat="45.96437279245406" lon="12.033560895292752"><ele>1176.0</ele><time>2026-05-01T05:49:29Z</time></trkpt><trkpt lat="45.96444419783575" lon="12.033624159879144"><ele>1177.2</ele><time>2026-05-01T05:49:31Z</time></trkpt><trkpt lat="45.96452533320379" lon="12.033711518441459"><ele>1178.3999999999999</ele><time>2026-05-01T05:49:33Z</time></trkpt><trkpt lat="45.9645876930189" lon="12.033794268504566"><ele>1179.6</ele><time>2026-05-01T05:49:35Z</time></trkpt><trkpt lat="45.96467370110608" lon="12.033805776807323"><ele>1180.8</ele><time>2026-05-01T05:49:37Z</time></trkpt><trkpt lat="45.96477260472686" lon="12.033798157433212"><ele>1182.0</ele><time>2026-05-01T05:49:39Z</time></trkpt><trkpt lat="45.964866399087136" lon="12.033792006366216"><ele>1182.0</ele><time>2026-05-01T05:49:41Z</time></trkpt><trkpt lat="45.964901989318044" lon="12.033700890262658"><ele>1182.0</ele><time>2026-05-01T05:49:43Z</time></trkpt><trkpt lat="45.96495495169743" lon="12.03363916472562"><ele>1182.0</ele><time>2026-05-01T05:49:44Z</time></trkpt><trkpt lat="45.965018349224664" lon="12.03357893788303"><ele>1182.0</ele><time>2026-05-01T05:49:45Z</time></trkpt><trkpt lat="45.96504879814315" lon="12.033490390737713"><ele>1182.0</ele><time>2026-05-01T05:49:47Z</time></trkpt><trkpt lat="45.96508053744318" lon="12.033375553302385"><ele>1182.0</ele><time>2026-05-01T05:49:49Z</time></trkpt><trkpt lat="45.96514675853129" lon="12.033230771841692"><ele>1182.3333333333333</ele><time>2026-05-01T05:49:51Z</time></trkpt><trkpt lat="45.965158311682885" lon="12.033102405131848"><ele>1182.6666666666667</ele><time>2026-05-01T05:49:54Z</time></trkpt><trkpt lat="45.965149115191046" lon="12.033002711075493"><ele>1183.0</ele><time>2026-05-01T05:49:55Z</time></trkpt><trkpt lat="45.965171997463564" lon="12.032852288942644"><ele>1183.3333333333335</ele><time>2026-05-01T05:49:57Z</time></trkpt><trkpt lat="45.96520592789499" lon="12.032745361354653"><ele>1183.6666666666667</ele><time>2026-05-01T05:49:59Z</time></trkpt><trkpt lat="45.9652625689847" lon="12.032632523762167"><ele>1184.0</ele><time>2026-05-01T05:50:01Z</time></trkpt><trkpt lat="45.9653148771659" lon="12.032538555403718"><ele>1176.8</ele><time>2026-05-01T05:50:03Z</time></trkpt><trkpt lat="45.96540365564345" lon="12.032457085273846"><ele>1169.6000000000001</ele><time>2026-05-01T05:50:05Z</time></trkpt><trkpt lat="45.96547095969401" lon="12.032403920883919"><ele>1162.4</ele><time>2026-05-01T05:50:08Z</time></trkpt><trkpt lat="45.96552772400929" lon="12.032343972426885"><ele>1155.2</ele><time>2026-05-01T05:50:10Z</time></trkpt><trkpt lat="45.96559776462996" lon="12.032259918573107"><ele>1148.0</ele><time>2026-05-01T05:50:12Z</time></trkpt><trkpt lat="45.96573451908328" lon="12.031974853105856"><ele>1148.0</ele><time>2026-05-01T05:50:14Z</time></trkpt><trkpt lat="45.96580651022747" lon="12.031930055409747"><ele>1148.0</ele><time>2026-05-01T05:50:16Z</time></trkpt><trkpt lat="45.96585842280104" lon="12.031847858942537"><ele>1148.0</ele><time>2026-05-01T05:50:18Z</time></trkpt><trkpt lat="45.96594872445068" lon="12.031752973900357"><ele>1148.0</ele><time>2026-05-01T05:50:20Z</time></trkpt><trkpt lat="45.966019804744725" lon="12.031665145277609"><ele>1148.0</ele><time>2026-05-01T05:50:22Z</time></trkpt><trkpt lat="45.966092203207275" lon="12.03165204185908"><ele>1148.0</ele><time>2026-05-01T05:50:24Z</time></trkpt><trkpt lat="45.96616319938251" lon="12.031604457631918"><ele>1144.2</ele><time>2026-05-01T05:50:26Z</time></trkpt><trkpt lat="45.96623718083263" lon="12.031521804818954"><ele>1140.4</ele><time>2026-05-01T05:50:29Z</time></trkpt><trkpt lat="45.96631121331715" lon="12.031532778125756"><ele>1136.6000000000001</ele><time>2026-05-01T05:50:31Z</time></trkpt><trkpt lat="45.966408660817635" lon="12.031506932321369"><ele>1132.8</ele><time>2026-05-01T05:50:33Z</time></trkpt><trkpt lat="45.96650447379141" lon="12.031459382716971"><ele>1129.0</ele><time>2026-05-01T05:50:35Z</time></trkpt><trkpt lat="45.96658019225908" lon="12.03150091882684"><ele>1129.0</ele><time>2026-05-01T05:50:37Z</time></trkpt><trkpt lat="45.9666776832218" lon="12.031521850471067"><ele>1129.0</ele><time>2026-05-01T05:50:39Z</time></trkpt><trkpt lat="45.96676967685253" lon="12.0315772003853"><ele>1129.0</ele><time>2026-05-01T05:50:41Z</time></trkpt><trkpt lat="45.966863980709846" lon="12.031597262596604"><ele>1129.0</ele><time>2026-05-01T05:50:43Z</time></trkpt><trkpt lat="45.966945549033674" lon="12.031558600758256"><ele>1129.0</ele><time>2026-05-01T05:50:45Z</time></trkpt><trkpt lat="45.967020557549475" lon="12.031450988834715"><ele>1131.2</ele><time>2026-05-01T05:50:47Z</time></trkpt><trkpt lat="45.9671013015495" lon="12.031339909773326"><ele>1133.4</ele><time>2026-05-01T05:50:49Z</time></trkpt><trkpt lat="45.96717443109307" lon="12.031208786207118"><ele>1135.6</ele><time>2026-05-01T05:50:51Z</time></trkpt><trkpt lat="45.9672539332404" lon="12.031120801058277"><ele>1137.8</ele><time>2026-05-01T05:50:53Z</time></trkpt><trkpt lat="45.96734376113282" lon="12.03100572237518"><ele>1140.0</ele><time>2026-05-01T05:50:54.999Z</time></trkpt><trkpt lat="45.96743884138825" lon="12.03096197881717"><ele>1140.0</ele><time>2026-05-01T05:50:56.999Z</time></trkpt><trkpt lat="45.96751422340009" lon="12.031006975382383"><ele>1140.0</ele><time>2026-05-01T05:50:59.999Z</time></trkpt><trkpt lat="45.967587941629574" lon="12.031077955962832"><ele>1140.0</ele><time>2026-05-01T05:51:02.999Z</time></trkpt><trkpt lat="45.967624679061885" lon="12.031156461634815"><ele>1140.0</ele><time>2026-05-01T05:51:04.999Z</time></trkpt><trkpt lat="45.967677132234" lon="12.031237677836108"><ele>1140.0</ele><time>2026-05-01T05:51:06.999Z</time></trkpt><trkpt lat="45.96777466256851" lon="12.031324328730761"><ele>1140.0</ele><time>2026-05-01T05:51:07.999Z</time></trkpt><trkpt lat="45.96783365860454" lon="12.031376953187896"><ele>1139.8333333333333</ele><time>2026-05-01T05:51:08.999Z</time></trkpt><trkpt lat="45.9678798256212" lon="12.031439240501694"><ele>1139.6666666666667</ele><time>2026-05-01T05:51:09.999Z</time></trkpt><trkpt lat="45.96796270705337" lon="12.031540632730813"><ele>1139.5</ele><time>2026-05-01T05:51:11.999Z</time></trkpt><trkpt lat="45.96801527821029" lon="12.031644355693082"><ele>1139.3333333333335</ele><time>2026-05-01T05:51:13.999Z</time></trkpt><trkpt lat="45.968072162942114" lon="12.03176230503847"><ele>1139.1666666666667</ele><time>2026-05-01T05:51:15.999Z</time></trkpt><trkpt lat="45.968075524079886" lon="12.031861863332523"><ele>1139.0</ele><time>2026-05-01T05:51:17.999Z</time></trkpt><trkpt lat="45.968033725518204" lon="12.031937515993675"><ele>1141.0</ele><time>2026-05-01T05:51:18.999Z</time></trkpt><trkpt lat="45.968015891117176" lon="12.03206706603734"><ele>1143.0</ele><time>2026-05-01T05:51:20.999Z</time></trkpt><trkpt lat="45.968071079406876" lon="12.032144651433413"><ele>1145.0</ele><time>2026-05-01T05:51:22.999Z</time></trkpt><trkpt lat="45.96812632588232" lon="12.032193382974336"><ele>1147.0</ele><time>2026-05-01T05:51:24.999Z</time></trkpt><trkpt lat="45.96821174725459" lon="12.03215789716908"><ele>1149.0</ele><time>2026-05-01T05:51:27Z</time></trkpt><trkpt lat="45.96829154799193" lon="12.032112472683348"><ele>1151.0</ele><time>2026-05-01T05:51:28Z</time></trkpt><trkpt lat="45.96839555732137" lon="12.032048134445994"><ele>1153.0</ele><time>2026-05-01T05:51:30Z</time></trkpt><trkpt lat="45.96846045874458" lon="12.031992868092733"><ele>1155.0</ele><time>2026-05-01T05:51:31Z</time></trkpt><trkpt lat="45.96858410369481" lon="12.031932072190484"><ele>1157.0</ele><time>2026-05-01T05:51:33Z</time></trkpt><trkpt lat="45.9686590823119" lon="12.031855101011438"><ele>1159.0</ele><time>2026-05-01T05:51:35Z</time></trkpt><trkpt lat="45.968733760930235" lon="12.03170204595096"><ele>1161.0</ele><time>2026-05-01T05:51:38Z</time></trkpt><trkpt lat="45.968805528813995" lon="12.031675314887845"><ele>1159.5</ele><time>2026-05-01T05:51:39Z</time></trkpt><trkpt lat="45.96882689183273" lon="12.031525408969452"><ele>1158.0</ele><time>2026-05-01T05:51:41Z</time></trkpt><trkpt lat="45.968851601731195" lon="12.031374262737872"><ele>1156.5</ele><time>2026-05-01T05:51:43Z</time></trkpt><trkpt lat="45.96886313555441" lon="12.031241120846145"><ele>1155.0</ele><time>2026-05-01T05:51:45Z</time></trkpt><trkpt lat="45.96888523239065" lon="12.031150165301959"><ele>1153.5</ele><time>2026-05-01T05:51:47Z</time></trkpt><trkpt lat="45.96895346045368" lon="12.031175981177215"><ele>1152.0</ele><time>2026-05-01T05:51:52Z</time></trkpt><trkpt lat="45.96897674967398" lon="12.031284234657445"><ele>1152.0</ele><time>2026-05-01T05:51:54Z</time></trkpt><trkpt lat="45.9690194633491" lon="12.031448962906556"><ele>1152.0</ele><time>2026-05-01T05:51:56Z</time></trkpt><trkpt lat="45.9690610653848" lon="12.031554487863012"><ele>1152.0</ele><time>2026-05-01T05:51:58Z</time></trkpt><trkpt lat="45.96911786964846" lon="12.031678602061321"><ele>1152.0</ele><time>2026-05-01T05:52:00Z</time></trkpt><trkpt lat="45.9691560183032" lon="12.031753115784886"><ele>1152.0</ele><time>2026-05-01T05:52:01Z</time></trkpt><trkpt lat="45.96922344062983" lon="12.031879340542174"><ele>1152.0</ele><time>2026-05-01T05:52:03Z</time></trkpt><trkpt lat="45.969298594709755" lon="12.031967898873173"><ele>1152.0</ele><time>2026-05-01T05:52:05Z</time></trkpt><trkpt lat="45.969347328924734" lon="12.032025260456335"><ele>1152.0</ele><time>2026-05-01T05:52:08Z</time></trkpt><trkpt lat="45.96943030425655" lon="12.031939340860331"><ele>1152.0</ele><time>2026-05-01T05:52:12Z</time></trkpt><trkpt lat="45.96949465128738" lon="12.0318495460199"><ele>1152.0</ele><time>2026-05-01T05:52:14Z</time></trkpt><trkpt lat="45.96953179094147" lon="12.03173858059451"><ele>1152.0</ele><time>2026-05-01T05:52:16Z</time></trkpt><trkpt lat="45.96959480636014" lon="12.031649815506299"><ele>1151.1666666666667</ele><time>2026-05-01T05:52:18Z</time></trkpt><trkpt lat="45.96965932996549" lon="12.031541614807518"><ele>1150.3333333333333</ele><time>2026-05-01T05:52:20Z</time></trkpt><trkpt lat="45.96970958769436" lon="12.031457006260089"><ele>1149.5</ele><time>2026-05-01T05:52:22Z</time></trkpt><trkpt lat="45.96976938349562" lon="12.03138712188423"><ele>1148.6666666666665</ele><time>2026-05-01T05:52:24Z</time></trkpt><trkpt lat="45.96983730754347" lon="12.031398956818418"><ele>1147.8333333333333</ele><time>2026-05-01T05:52:26Z</time></trkpt><trkpt lat="45.969900062788774" lon="12.031457989451901"><ele>1147.0</ele><time>2026-05-01T05:52:28Z</time></trkpt><trkpt lat="45.96997287792415" lon="12.031507948775173"><ele>1144.0</ele><time>2026-05-01T05:52:30Z</time></trkpt><trkpt lat="45.97003814940495" lon="12.031569889905033"><ele>1141.0</ele><time>2026-05-01T05:52:32Z</time></trkpt><trkpt lat="45.970103670318586" lon="12.031642011479423"><ele>1138.0</ele><time>2026-05-01T05:52:34Z</time></trkpt><trkpt lat="45.970146902192695" lon="12.031740946707052"><ele>1135.0</ele><time>2026-05-01T05:52:36Z</time></trkpt><trkpt lat="45.97015409809178" lon="12.031833195752503"><ele>1132.0</ele><time>2026-05-01T05:52:38Z</time></trkpt><trkpt lat="45.97011477245663" lon="12.031919886428012"><ele>1129.0</ele><time>2026-05-01T05:52:40Z</time></trkpt><trkpt lat="45.970085192305234" lon="12.032030944725962"><ele>1129.0</ele><time>2026-05-01T05:52:42Z</time></trkpt><trkpt lat="45.97004647783035" lon="12.032144755953015"><ele>1129.0</ele><time>2026-05-01T05:52:44Z</time></trkpt><trkpt lat="45.97002088036812" lon="12.032241704227902"><ele>1129.0</ele><time>2026-05-01T05:52:45Z</time></trkpt><trkpt lat="45.97001488380466" lon="12.03236276513356"><ele>1129.0</ele><time>2026-05-01T05:52:47Z</time></trkpt><trkpt lat="45.97003838930816" lon="12.032496707033966"><ele>1129.0</ele><time>2026-05-01T05:52:49Z</time></trkpt><trkpt lat="45.970091401640055" lon="12.032591230449546"><ele>1129.0</ele><time>2026-05-01T05:52:51Z</time></trkpt><trkpt lat="45.97019365098643" lon="12.032635730719466"><ele>1128.1666666666665</ele><time>2026-05-01T05:52:53Z</time></trkpt><trkpt lat="45.970290793692676" lon="12.032687022118152"><ele>1127.3333333333333</ele><time>2026-05-01T05:52:55Z</time></trkpt><trkpt lat="45.97033303592678" lon="12.032804333289803"><ele>1126.5</ele><time>2026-05-01T05:52:57Z</time></trkpt><trkpt lat="45.9703141467854" lon="12.032901868051095"><ele>1125.6666666666667</ele><time>2026-05-01T05:52:58.999Z</time></trkpt><trkpt lat="45.97027528889702" lon="12.033021306614131"><ele>1124.8333333333335</ele><time>2026-05-01T05:53:00.999Z</time></trkpt><trkpt lat="45.97022790637171" lon="12.0330944898986"><ele>1124.0</ele><time>2026-05-01T05:53:01.999Z</time></trkpt><trkpt lat="45.97016616654484" lon="12.03322910654045"><ele>1124.0</ele><time>2026-05-01T05:53:03.999Z</time></trkpt><trkpt lat="45.97012648898942" lon="12.033301059867037"><ele>1124.0</ele><time>2026-05-01T05:53:04.999Z</time></trkpt><trkpt lat="45.97007451673827" lon="12.033402864362202"><ele>1124.0</ele><time>2026-05-01T05:53:05.999Z</time></trkpt><trkpt lat="45.97002452264943" lon="12.033479031331625"><ele>1124.0</ele><time>2026-05-01T05:53:06.999Z</time></trkpt><trkpt lat="45.96997281893396" lon="12.033616831427112"><ele>1124.0</ele><time>2026-05-01T05:53:08.999Z</time></trkpt><trkpt lat="45.96996912471606" lon="12.033750102922989"><ele>1124.0</ele><time>2026-05-01T05:53:10.999Z</time></trkpt><trkpt lat="45.969991329419436" lon="12.033853114019529"><ele>1124.75</ele><time>2026-05-01T05:53:12.999Z</time></trkpt><trkpt lat="45.97006160401431" lon="12.033922147659185"><ele>1125.5</ele><time>2026-05-01T05:53:15.999Z</time></trkpt><trkpt lat="45.9701595665811" lon="12.033898618956613"><ele>1126.25</ele><time>2026-05-01T05:53:17.999Z</time></trkpt><trkpt lat="45.970361546960454" lon="12.033916960610378"><ele>1127.0</ele><time>2026-05-01T05:53:19.999Z</time></trkpt><trkpt lat="45.970428888279415" lon="12.033905001723872"><ele>1127.0</ele><time>2026-05-01T05:53:20.999Z</time></trkpt><trkpt lat="45.970509327245914" lon="12.033872973766968"><ele>1127.0</ele><time>2026-05-01T05:53:21.999Z</time></trkpt><trkpt lat="45.97058475075894" lon="12.033836979714463"><ele>1127.0</ele><time>2026-05-01T05:53:22.999Z</time></trkpt><trkpt lat="45.970657855144864" lon="12.033811771725714"><ele>1127.0</ele><time>2026-05-01T05:53:23.999Z</time></trkpt><trkpt lat="45.970750842422184" lon="12.033708067801873"><ele>1127.0</ele><time>2026-05-01T05:53:25.999Z</time></trkpt><trkpt lat="45.9708199946253" lon="12.033666614418197"><ele>1127.0</ele><time>2026-05-01T05:53:26.999Z</time></trkpt><trkpt lat="45.97092001760454" lon="12.033593415434469"><ele>1125.0</ele><time>2026-05-01T05:53:28.999Z</time></trkpt><trkpt lat="45.97098984482127" lon="12.033520970884744"><ele>1123.0</ele><time>2026-05-01T05:53:30.999Z</time></trkpt><trkpt lat="45.971062365838335" lon="12.03347460765098"><ele>1121.0</ele><time>2026-05-01T05:53:33Z</time></trkpt><trkpt lat="45.97114022645578" lon="12.033445473144674"><ele>1119.0</ele><time>2026-05-01T05:53:35Z</time></trkpt><trkpt lat="45.9712192455575" lon="12.033367151071234"><ele>1117.0</ele><time>2026-05-01T05:53:37Z</time></trkpt><trkpt lat="45.97130534455812" lon="12.033259453254534"><ele>1115.6666666666665</ele><time>2026-05-01T05:53:39Z</time></trkpt><trkpt lat="45.971405538260875" lon="12.033208457132726"><ele>1114.3333333333333</ele><time>2026-05-01T05:53:41Z</time></trkpt><trkpt lat="45.97148999117033" lon="12.033176836960731"><ele>1113.0</ele><time>2026-05-01T05:53:43Z</time></trkpt><trkpt lat="45.97156869762953" lon="12.033163778551785"><ele>1111.6666666666667</ele><time>2026-05-01T05:53:45Z</time></trkpt><trkpt lat="45.97168082199055" lon="12.033161809874494"><ele>1110.3333333333335</ele><time>2026-05-01T05:53:48Z</time></trkpt><trkpt lat="45.971742829218115" lon="12.033181689593965"><ele>1109.0</ele><time>2026-05-01T05:53:50Z</time></trkpt><trkpt lat="45.97179664327307" lon="12.03325250893136"><ele>1110.6000000000001</ele><time>2026-05-01T05:53:52Z</time></trkpt><trkpt lat="45.97178628771223" lon="12.03336999183662"><ele>1112.2</ele><time>2026-05-01T05:53:55Z</time></trkpt><trkpt lat="45.97172671484825" lon="12.033452823125673"><ele>1113.8000000000002</ele><time>2026-05-01T05:53:57Z</time></trkpt><trkpt lat="45.971679685780195" lon="12.033556114667324"><ele>1115.4</ele><time>2026-05-01T05:53:59Z</time></trkpt><trkpt lat="45.971582050931325" lon="12.03365147799457"><ele>1117.0</ele><time>2026-05-01T05:54:01Z</time></trkpt><trkpt lat="45.97150499954979" lon="12.033773790057687"><ele>1117.0000000000002</ele><time>2026-05-01T05:54:03Z</time></trkpt><trkpt lat="45.97144971280664" lon="12.033840873791275"><ele>1117.0</ele><time>2026-05-01T05:54:04Z</time></trkpt><trkpt lat="45.97139595532716" lon="12.033920647312444"><ele>1117.0</ele><time>2026-05-01T05:54:05Z</time></trkpt><trkpt lat="45.9713586481148" lon="12.034004777017211"><ele>1117.0</ele><time>2026-05-01T05:54:06Z</time></trkpt><trkpt lat="45.97132013177688" lon="12.034088947935075"><ele>1117.0</ele><time>2026-05-01T05:54:07Z</time></trkpt><trkpt lat="45.97127714865025" lon="12.034159374827592"><ele>1117.0000000000002</ele><time>2026-05-01T05:54:08Z</time></trkpt><trkpt lat="45.97123111746911" lon="12.034240887619053"><ele>1117.0</ele><time>2026-05-01T05:54:09Z</time></trkpt><trkpt lat="45.97119775547862" lon="12.034328101638609"><ele>1114.1666666666665</ele><time>2026-05-01T05:54:10Z</time></trkpt><trkpt lat="45.97116433925219" lon="12.034413156446611"><ele>1111.3333333333333</ele><time>2026-05-01T05:54:11Z</time></trkpt><trkpt lat="45.97115177118171" lon="12.034556926067994"><ele>1108.5</ele><time>2026-05-01T05:54:13Z</time></trkpt><trkpt lat="45.97115599298139" lon="12.034654691124278"><ele>1105.6666666666667</ele><time>2026-05-01T05:54:14Z</time></trkpt><trkpt lat="45.971178937208954" lon="12.034751255182963"><ele>1102.8333333333335</ele><time>2026-05-01T05:54:15Z</time></trkpt><trkpt lat="45.971203359258155" lon="12.034842604096038"><ele>1100.0</ele><time>2026-05-01T05:54:16Z</time></trkpt><trkpt lat="45.97122016543488" lon="12.03497300628995"><ele>1095.0</ele><time>2026-05-01T05:54:18Z</time></trkpt><trkpt lat="45.971160884746986" lon="12.035024909559919"><ele>1090.0</ele><time>2026-05-01T05:54:21Z</time></trkpt><trkpt lat="45.970971136116496" lon="12.035309399132306"><ele>1085.0</ele><time>2026-05-01T05:54:23Z</time></trkpt><trkpt lat="45.97090521753829" lon="12.035390443885904"><ele>1080.0</ele><time>2026-05-01T05:54:24Z</time></trkpt><trkpt lat="45.97083920882908" lon="12.035441905304564"><ele>1083.1666666666667</ele><time>2026-05-01T05:54:25Z</time></trkpt><trkpt lat="45.97071611171555" lon="12.035523366862575"><ele>1086.3333333333333</ele><time>2026-05-01T05:54:27Z</time></trkpt><trkpt lat="45.97065413325814" lon="12.03558402262285"><ele>1089.5</ele><time>2026-05-01T05:54:28Z</time></trkpt><trkpt lat="45.97059286156173" lon="12.03564599211886"><ele>1092.6666666666665</ele><time>2026-05-01T05:54:29Z</time></trkpt><trkpt lat="45.97053309630551" lon="12.03571367558774"><ele>1095.8333333333333</ele><time>2026-05-01T05:54:30Z</time></trkpt><trkpt lat="45.970471742211885" lon="12.03578639972199"><ele>1099.0</ele><time>2026-05-01T05:54:31Z</time></trkpt><trkpt lat="45.97041671167786" lon="12.035882546708768"><ele>1099.0</ele><time>2026-05-01T05:54:32Z</time></trkpt><trkpt lat="45.97035069928778" lon="12.036006144998789"><ele>1099.0</ele><time>2026-05-01T05:54:34Z</time></trkpt><trkpt lat="45.97026996278185" lon="12.036120963708681"><ele>1099.0</ele><time>2026-05-01T05:54:36Z</time></trkpt><trkpt lat="45.970212425532836" lon="12.036207878076738"><ele>1099.0</ele><time>2026-05-01T05:54:37Z</time></trkpt><trkpt lat="45.970148743497795" lon="12.036303208392768"><ele>1099.0</ele><time>2026-05-01T05:54:38Z</time></trkpt><trkpt lat="45.970097257726906" lon="12.0364150832069"><ele>1104.5</ele><time>2026-05-01T05:54:39Z</time></trkpt><trkpt lat="45.97001250970609" lon="12.036588929127085"><ele>1110.0</ele><time>2026-05-01T05:54:41Z</time></trkpt><trkpt lat="45.96997739163205" lon="12.036677615313527"><ele>1115.5</ele><time>2026-05-01T05:54:42Z</time></trkpt><trkpt lat="45.96994910076877" lon="12.036820470135432"><ele>1121.0</ele><time>2026-05-01T05:54:43Z</time></trkpt><trkpt lat="45.96992962100098" lon="12.037025254413216"><ele>1121.0</ele><time>2026-05-01T05:54:45Z</time></trkpt><trkpt lat="45.96995278174401" lon="12.037164910666954"><ele>1121.0</ele><time>2026-05-01T05:54:47Z</time></trkpt><trkpt lat="45.96989434475783" lon="12.037247908981412"><ele>1121.0</ele><time>2026-05-01T05:54:49Z</time></trkpt><trkpt lat="45.96980095497853" lon="12.037311571358337"><ele>1121.0</ele><time>2026-05-01T05:54:51Z</time></trkpt><trkpt lat="45.969753657275014" lon="12.037413767969614"><ele>1121.0</ele><time>2026-05-01T05:54:52Z</time></trkpt><trkpt lat="45.96967125206603" lon="12.03748364409132"><ele>1115.0</ele><time>2026-05-01T05:54:53Z</time></trkpt><trkpt lat="45.96959660494516" lon="12.037565639390477"><ele>1109.0</ele><time>2026-05-01T05:54:54Z</time></trkpt><trkpt lat="45.96951180871923" lon="12.03773677633422"><ele>1103.0</ele><time>2026-05-01T05:54:56Z</time></trkpt><trkpt lat="45.9694714604928" lon="12.03783043043051"><ele>1097.0</ele><time>2026-05-01T05:54:57Z</time></trkpt><trkpt lat="45.96938422214935" lon="12.037946334505506"><ele>1091.0</ele><time>2026-05-01T05:54:59Z</time></trkpt><trkpt lat="45.96928626185404" lon="12.038027535737648"><ele>1091.0</ele><time>2026-05-01T05:55:01Z</time></trkpt><trkpt lat="45.96922723943119" lon="12.038061704357789"><ele>1091.0</ele><time>2026-05-01T05:55:02Z</time></trkpt><trkpt lat="45.969117018260285" lon="12.038117458033604"><ele>1091.0</ele><time>2026-05-01T05:55:04Z</time></trkpt><trkpt lat="45.96902224367811" lon="12.038235345591946"><ele>1091.0</ele><time>2026-05-01T05:55:06Z</time></trkpt><trkpt lat="45.96898935976119" lon="12.038316486278388"><ele>1091.0</ele><time>2026-05-01T05:55:07Z</time></trkpt><trkpt lat="45.96896130070112" lon="12.038407320255134"><ele>1091.0</ele><time>2026-05-01T05:55:08Z</time></trkpt><trkpt lat="45.96891042100186" lon="12.038528963530597"><ele>1093.2</ele><time>2026-05-01T05:55:09.999Z</time></trkpt><trkpt lat="45.96884758914294" lon="12.038574610645012"><ele>1095.3999999999999</ele><time>2026-05-01T05:55:11.999Z</time></trkpt><trkpt lat="45.968782506603695" lon="12.038596075647117"><ele>1097.6</ele><time>2026-05-01T05:55:12.999Z</time></trkpt><trkpt lat="45.96865943454172" lon="12.038639537302833"><ele>1099.8</ele><time>2026-05-01T05:55:14.999Z</time></trkpt><trkpt lat="45.96856013800625" lon="12.038652459436058"><ele>1102.0</ele><time>2026-05-01T05:55:16.999Z</time></trkpt><trkpt lat="45.968468983826085" lon="12.038700573038126"><ele>1102.0</ele><time>2026-05-01T05:55:18.999Z</time></trkpt><trkpt lat="45.968396823864225" lon="12.038810131175877"><ele>1102.0</ele><time>2026-05-01T05:55:20.999Z</time></trkpt><trkpt lat="45.96832835749517" lon="12.038919759035002"><ele>1102.0</ele><time>2026-05-01T05:55:22.999Z</time></trkpt><trkpt lat="45.96827197472351" lon="12.038965398189747"><ele>1102.0</ele><time>2026-05-01T05:55:23.999Z</time></trkpt><trkpt lat="45.968166936957985" lon="12.039064365290992"><ele>1102.0</ele><time>2026-05-01T05:55:25.999Z</time></trkpt><trkpt lat="45.96812360079054" lon="12.039136665861289"><ele>1105.0</ele><time>2026-05-01T05:55:26.999Z</time></trkpt><trkpt lat="45.968075518153114" lon="12.039222022686621"><ele>1108.0</ele><time>2026-05-01T05:55:27.999Z</time></trkpt><trkpt lat="45.96797920122915" lon="12.03934279029045"><ele>1111.0</ele><time>2026-05-01T05:55:29.999Z</time></trkpt><trkpt lat="45.96793866003182" lon="12.039418404244511"><ele>1114.0</ele><time>2026-05-01T05:55:30.999Z</time></trkpt><trkpt lat="45.96791207624799" lon="12.03950685709582"><ele>1117.0</ele><time>2026-05-01T05:55:32.999Z</time></trkpt><trkpt lat="45.967911567911514" lon="12.039655104081216"><ele>1120.0</ele><time>2026-05-01T05:55:34.999Z</time></trkpt><trkpt lat="45.96791325044357" lon="12.039799352450459"><ele>1120.0</ele><time>2026-05-01T05:55:36.999Z</time></trkpt><trkpt lat="45.96794458246302" lon="12.039932797562825"><ele>1120.0</ele><time>2026-05-01T05:55:39Z</time></trkpt><trkpt lat="45.968025522439426" lon="12.040018384374317"><ele>1120.0</ele><time>2026-05-01T05:55:41Z</time></trkpt><trkpt lat="45.96807672550301" lon="12.040078607096826"><ele>1120.0</ele><time>2026-05-01T05:55:43Z</time></trkpt><trkpt lat="45.96817037112038" lon="12.040195070891729"><ele>1120.0</ele><time>2026-05-01T05:55:45Z</time></trkpt><trkpt lat="45.968201815481166" lon="12.040305055934759"><ele>1117.4</ele><time>2026-05-01T05:55:47Z</time></trkpt><trkpt lat="45.96819564224638" lon="12.040432672318866"><ele>1114.8</ele><time>2026-05-01T05:55:49Z</time></trkpt><trkpt lat="45.96815551422523" lon="12.040560427022022"><ele>1112.2</ele><time>2026-05-01T05:55:51Z</time></trkpt><trkpt lat="45.968093337567716" lon="12.040705251021535"><ele>1109.6</ele><time>2026-05-01T05:55:53Z</time></trkpt><trkpt lat="45.9680061667209" lon="12.040831195130005"><ele>1107.0</ele><time>2026-05-01T05:55:55Z</time></trkpt><trkpt lat="45.967949078343" lon="12.040881714556216"><ele>1106.142857142857</ele><time>2026-05-01T05:55:56Z</time></trkpt><trkpt lat="45.96788742703528" lon="12.040924781882572"><ele>1105.2857142857142</ele><time>2026-05-01T05:55:57Z</time></trkpt><trkpt lat="45.967819909161975" lon="12.040963840381828"><ele>1104.4285714285713</ele><time>2026-05-01T05:55:58Z</time></trkpt><trkpt lat="45.967753073886406" lon="12.040996867962084"><ele>1103.5714285714284</ele><time>2026-05-01T05:55:59Z</time></trkpt><trkpt lat="45.96768755659072" lon="12.041026110980376"><ele>1102.7142857142856</ele><time>2026-05-01T05:56:00Z</time></trkpt><trkpt lat="45.967625431615765" lon="12.041052933603673"><ele>1101.857142857143</ele><time>2026-05-01T05:56:01Z</time></trkpt><trkpt lat="45.967564385564984" lon="12.041089166285463"><ele>1101.0</ele><time>2026-05-01T05:56:02Z</time></trkpt><trkpt lat="45.96745351554183" lon="12.041154674110466"><ele>1107.142857142857</ele><time>2026-05-01T05:56:04Z</time></trkpt><trkpt lat="45.96739191016079" lon="12.04122276111969"><ele>1113.2857142857142</ele><time>2026-05-01T05:56:05Z</time></trkpt><trkpt lat="45.967335838531525" lon="12.04126908523735"><ele>1119.4285714285713</ele><time>2026-05-01T05:56:06Z</time></trkpt><trkpt lat="45.96727204408558" lon="12.041315885146533"><ele>1125.5714285714284</ele><time>2026-05-01T05:56:07Z</time></trkpt><trkpt lat="45.96720085307684" lon="12.041360951036095"><ele>1131.7142857142858</ele><time>2026-05-01T05:56:08Z</time></trkpt><trkpt lat="45.967140106759956" lon="12.041398500224004"><ele>1137.8571428571427</ele><time>2026-05-01T05:56:09Z</time></trkpt><trkpt lat="45.9670792134995" lon="12.04143904175414"><ele>1144.0</ele><time>2026-05-01T05:56:10Z</time></trkpt><trkpt lat="45.966994952345914" lon="12.041485757682535"><ele>1144.0</ele><time>2026-05-01T05:56:12Z</time></trkpt><trkpt lat="45.96690450192741" lon="12.041547420979212"><ele>1144.0</ele><time>2026-05-01T05:56:14Z</time></trkpt><trkpt lat="45.96682252404229" lon="12.041647711304348"><ele>1144.0</ele><time>2026-05-01T05:56:16Z</time></trkpt><trkpt lat="45.96674116845052" lon="12.041758451379138"><ele>1144.0</ele><time>2026-05-01T05:56:18Z</time></trkpt><trkpt lat="45.966642871835596" lon="12.041859728166706"><ele>1144.0</ele><time>2026-05-01T05:56:20Z</time></trkpt><trkpt lat="45.966581719219484" lon="12.041919184266375"><ele>1145.9999999999998</ele><time>2026-05-01T05:56:21Z</time></trkpt><trkpt lat="45.96652017652496" lon="12.041981175047608"><ele>1148.0</ele><time>2026-05-01T05:56:22Z</time></trkpt><trkpt lat="45.96646523328932" lon="12.042040665841293"><ele>1150.0</ele><time>2026-05-01T05:56:23Z</time></trkpt><trkpt lat="45.966407595433836" lon="12.042097571387746"><ele>1152.0</ele><time>2026-05-01T05:56:24Z</time></trkpt><trkpt lat="45.96635351649072" lon="12.042148510023702"><ele>1154.0</ele><time>2026-05-01T05:56:25Z</time></trkpt><trkpt lat="45.96628960853606" lon="12.042210539592267"><ele>1155.9999999999998</ele><time>2026-05-01T05:56:26Z</time></trkpt><trkpt lat="45.96622550765323" lon="12.04225917692351"><ele>1158.0</ele><time>2026-05-01T05:56:27Z</time></trkpt><trkpt lat="45.96616519597262" lon="12.04230621569892"><ele>1157.9999999999998</ele><time>2026-05-01T05:56:28Z</time></trkpt><trkpt lat="45.966107241596056" lon="12.04235755189418"><ele>1158.0</ele><time>2026-05-01T05:56:29Z</time></trkpt><trkpt lat="45.966041229698696" lon="12.04240919243929"><ele>1158.0</ele><time>2026-05-01T05:56:30Z</time></trkpt><trkpt lat="45.96598364649559" lon="12.042452788236064"><ele>1158.0</ele><time>2026-05-01T05:56:31Z</time></trkpt><trkpt lat="45.965927583316855" lon="12.042502834063594"><ele>1158.0</ele><time>2026-05-01T05:56:32Z</time></trkpt><trkpt lat="45.96587056967113" lon="12.042546507408908"><ele>1157.9999999999998</ele><time>2026-05-01T05:56:33Z</time></trkpt><trkpt lat="45.965781839713486" lon="12.042599681401134"><ele>1158.0</ele><time>2026-05-01T05:56:35Z</time></trkpt><trkpt lat="45.96568477483583" lon="12.042593451742073"><ele>1158.0</ele><time>2026-05-01T05:56:37Z</time></trkpt><trkpt lat="45.965568120896386" lon="12.042589311782425"><ele>1158.0</ele><time>2026-05-01T05:56:39Z</time></trkpt><trkpt lat="45.965476275353396" lon="12.042537996180933"><ele>1158.0</ele><time>2026-05-01T05:56:42Z</time></trkpt><trkpt lat="45.965412494139095" lon="12.04254970452332"><ele>1158.0</ele><time>2026-05-01T05:56:44Z</time></trkpt><trkpt lat="45.96533261192885" lon="12.04258769060972"><ele>1158.0</ele><time>2026-05-01T05:56:46Z</time></trkpt><trkpt lat="45.96525674330672" lon="12.0426688158709"><ele>1158.0</ele><time>2026-05-01T05:56:48Z</time></trkpt><trkpt lat="45.96517561794815" lon="12.042720722438347"><ele>1158.0</ele><time>2026-05-01T05:56:50Z</time></trkpt><trkpt lat="45.965114243681136" lon="12.042745463323588"><ele>1158.0</ele><time>2026-05-01T05:56:52Z</time></trkpt><trkpt lat="45.96504763221825" lon="12.042802935489098"><ele>1158.0</ele><time>2026-05-01T05:56:54Z</time></trkpt><trkpt lat="45.96498691408485" lon="12.042847137269309"><ele>1158.0</ele><time>2026-05-01T05:56:55Z</time></trkpt><trkpt lat="45.964880100505745" lon="12.04291165339712"><ele>1158.0</ele><time>2026-05-01T05:56:57Z</time></trkpt><trkpt lat="45.96477932047205" lon="12.042873671863259"><ele>1161.6666666666667</ele><time>2026-05-01T05:56:59Z</time></trkpt><trkpt lat="45.964696412477785" lon="12.042923416655935"><ele>1165.3333333333333</ele><time>2026-05-01T05:57:00Z</time></trkpt><trkpt lat="45.96463682246057" lon="12.042961767786974"><ele>1169.0</ele><time>2026-05-01T05:57:01Z</time></trkpt><trkpt lat="45.96457739881267" lon="12.042998223612246"><ele>1172.6666666666665</ele><time>2026-05-01T05:57:02Z</time></trkpt><trkpt lat="45.96449865148843" lon="12.042978290792071"><ele>1176.3333333333333</ele><time>2026-05-01T05:57:03Z</time></trkpt><trkpt lat="45.964425245792675" lon="12.043012555783463"><ele>1180.0</ele><time>2026-05-01T05:57:04Z</time></trkpt><trkpt lat="45.96431251596696" lon="12.043069841832764"><ele>1180.5</ele><time>2026-05-01T05:57:06Z</time></trkpt><trkpt lat="45.96419042791919" lon="12.043151410450449"><ele>1181.0</ele><time>2026-05-01T05:57:08Z</time></trkpt><trkpt lat="45.964119986124544" lon="12.04318715010959"><ele>1181.5</ele><time>2026-05-01T05:57:09Z</time></trkpt><trkpt lat="45.964056052394255" lon="12.043237245564406"><ele>1182.0</ele><time>2026-05-01T05:57:10Z</time></trkpt><trkpt lat="45.96399031389751" lon="12.043254880944776"><ele>1182.5</ele><time>2026-05-01T05:57:11Z</time></trkpt><trkpt lat="45.963929098915294" lon="12.043292133526714"><ele>1183.0</ele><time>2026-05-01T05:57:12Z</time></trkpt><trkpt lat="45.96386657088499" lon="12.043330185094065"><ele>1183.0</ele><time>2026-05-01T05:57:13Z</time></trkpt><trkpt lat="45.963758701142375" lon="12.043398036536884"><ele>1183.0</ele><time>2026-05-01T05:57:14.999Z</time></trkpt><trkpt lat="45.9637128398525" lon="12.043464216787205"><ele>1183.0</ele><time>2026-05-01T05:57:15.999Z</time></trkpt><trkpt lat="45.963629621780186" lon="12.043509949992266"><ele>1183.0</ele><time>2026-05-01T05:57:17.999Z</time></trkpt><trkpt lat="45.96351269715855" lon="12.0435426181432"><ele>1183.0</ele><time>2026-05-01T05:57:19.999Z</time></trkpt><trkpt lat="45.96339283013541" lon="12.043581341554594"><ele>1187.6</ele><time>2026-05-01T05:57:21.999Z</time></trkpt><trkpt lat="45.96329912295032" lon="12.043622058553542"><ele>1192.1999999999998</ele><time>2026-05-01T05:57:23.999Z</time></trkpt><trkpt lat="45.963206906381025" lon="12.043671525829762"><ele>1196.8</ele><time>2026-05-01T05:57:25.999Z</time></trkpt><trkpt lat="45.96311193329949" lon="12.04376106752285"><ele>1201.3999999999999</ele><time>2026-05-01T05:57:27.999Z</time></trkpt><trkpt lat="45.96303315221641" lon="12.04385995684065"><ele>1206.0</ele><time>2026-05-01T05:57:29.999Z</time></trkpt><trkpt lat="45.96295345705189" lon="12.043964086332258"><ele>1206.0</ele><time>2026-05-01T05:57:31.999Z</time></trkpt><trkpt lat="45.96287353523697" lon="12.044049965894805"><ele>1206.0</ele><time>2026-05-01T05:57:33.999Z</time></trkpt><trkpt lat="45.96278727190506" lon="12.044131847291366"><ele>1206.0</ele><time>2026-05-01T05:57:35.999Z</time></trkpt><trkpt lat="45.96268972468517" lon="12.044230047024778"><ele>1206.0</ele><time>2026-05-01T05:57:37.999Z</time></trkpt><trkpt lat="45.96260190450896" lon="12.044326727204538"><ele>1206.0</ele><time>2026-05-01T05:57:39.999Z</time></trkpt><trkpt lat="45.962521022423346" lon="12.044412664118434"><ele>1208.0</ele><time>2026-05-01T05:57:41.999Z</time></trkpt><trkpt lat="45.962417545438676" lon="12.044457015444047"><ele>1210.0</ele><time>2026-05-01T05:57:44Z</time></trkpt><trkpt lat="45.962323411492406" lon="12.044479021326708"><ele>1212.0</ele><time>2026-05-01T05:57:46Z</time></trkpt><trkpt lat="45.96223184055618" lon="12.04452415587529"><ele>1214.0</ele><time>2026-05-01T05:57:48Z</time></trkpt><trkpt lat="45.96214329004393" lon="12.044628619496123"><ele>1216.0</ele><time>2026-05-01T05:57:50Z</time></trkpt><trkpt lat="45.96206955615777" lon="12.044735545750306"><ele>1216.0</ele><time>2026-05-01T05:57:52Z</time></trkpt><trkpt lat="45.96199353040804" lon="12.044778563003826"><ele>1216.0</ele><time>2026-05-01T05:57:54Z</time></trkpt><trkpt lat="45.96190719568761" lon="12.044772934414475"><ele>1216.0</ele><time>2026-05-01T05:57:56Z</time></trkpt><trkpt lat="45.96181703953919" lon="12.044758153950934"><ele>1216.0</ele><time>2026-05-01T05:57:58Z</time></trkpt><trkpt lat="45.96172400185369" lon="12.04470127783577"><ele>1216.0</ele><time>2026-05-01T05:58:00Z</time></trkpt><trkpt lat="45.96162992421403" lon="12.044664558094462"><ele>1220.1666666666665</ele><time>2026-05-01T05:58:02Z</time></trkpt><trkpt lat="45.961552058661596" lon="12.044640969059259"><ele>1224.3333333333333</ele><time>2026-05-01T05:58:04Z</time></trkpt><trkpt lat="45.961494511311955" lon="12.0445998854091"><ele>1228.5</ele><time>2026-05-01T05:58:05Z</time></trkpt><trkpt lat="45.96139314125239" lon="12.04457819685242"><ele>1232.6666666666667</ele><time>2026-05-01T05:58:07Z</time></trkpt><trkpt lat="45.96132673010096" lon="12.044636677447409"><ele>1236.8333333333335</ele><time>2026-05-01T05:58:09Z</time></trkpt><trkpt lat="45.961280791471815" lon="12.044717201833008"><ele>1241.0</ele><time>2026-05-01T05:58:11Z</time></trkpt><trkpt lat="45.961243722624566" lon="12.04480330158335"><ele>1241.0</ele><time>2026-05-01T05:58:12Z</time></trkpt><trkpt lat="45.96118956072979" lon="12.044863215016612"><ele>1241.0</ele><time>2026-05-01T05:58:14Z</time></trkpt><trkpt lat="45.96109538630755" lon="12.044914871688668"><ele>1241.0</ele><time>2026-05-01T05:58:16Z</time></trkpt><trkpt lat="45.96102142048228" lon="12.044901618115182"><ele>1241.0</ele><time>2026-05-01T05:58:18Z</time></trkpt><trkpt lat="45.96093609336757" lon="12.044881562882228"><ele>1241.0</ele><time>2026-05-01T05:58:20Z</time></trkpt><trkpt lat="45.96088499944145" lon="12.044820704373924"><ele>1241.0</ele><time>2026-05-01T05:58:21Z</time></trkpt><trkpt lat="45.960797239450315" lon="12.044765393601853"><ele>1244.2</ele><time>2026-05-01T05:58:23Z</time></trkpt><trkpt lat="45.9607138220373" lon="12.044716229772774"><ele>1247.3999999999999</ele><time>2026-05-01T05:58:25Z</time></trkpt><trkpt lat="45.96062851545173" lon="12.04466158308761"><ele>1250.6</ele><time>2026-05-01T05:58:27Z</time></trkpt><trkpt lat="45.96053986667567" lon="12.044591972131027"><ele>1253.8</ele><time>2026-05-01T05:58:29Z</time></trkpt><trkpt lat="45.96045838075522" lon="12.044595027079088"><ele>1257.0</ele><time>2026-05-01T05:58:31Z</time></trkpt><trkpt lat="45.960357280611184" lon="12.04455268952604"><ele>1257.0</ele><time>2026-05-01T05:58:33Z</time></trkpt><trkpt lat="45.96026079622226" lon="12.044560573629019"><ele>1257.0</ele><time>2026-05-01T05:58:35Z</time></trkpt><trkpt lat="45.96017399978784" lon="12.044579148165317"><ele>1257.0</ele><time>2026-05-01T05:58:37Z</time></trkpt><trkpt lat="45.96012086653505" lon="12.044645589711557"><ele>1257.0</ele><time>2026-05-01T05:58:39Z</time></trkpt><trkpt lat="45.96007932011758" lon="12.044774963899036"><ele>1257.0</ele><time>2026-05-01T05:58:41Z</time></trkpt><trkpt lat="45.96009276542271" lon="12.04493103182739"><ele>1258.4</ele><time>2026-05-01T05:58:43Z</time></trkpt><trkpt lat="45.96001635640914" lon="12.04503925005571"><ele>1259.8000000000002</ele><time>2026-05-01T05:58:45Z</time></trkpt><trkpt lat="45.9600810771837" lon="12.045186838952592"><ele>1261.2</ele><time>2026-05-01T05:58:47Z</time></trkpt><trkpt lat="45.96003462750226" lon="12.045307994127638"><ele>1262.6000000000001</ele><time>2026-05-01T05:58:49Z</time></trkpt><trkpt lat="45.95996615070462" lon="12.045392219032655"><ele>1264.0</ele><time>2026-05-01T05:58:51Z</time></trkpt><trkpt lat="45.95987871862172" lon="12.045456350918949"><ele>1264.0</ele><time>2026-05-01T05:58:54Z</time></trkpt><trkpt lat="45.95978429272195" lon="12.045525058674778"><ele>1264.0</ele><time>2026-05-01T05:58:56Z</time></trkpt><trkpt lat="45.95970394542374" lon="12.045537783779501"><ele>1264.0</ele><time>2026-05-01T05:58:58Z</time></trkpt><trkpt lat="45.959639501254564" lon="12.0455888707776"><ele>1264.0</ele><time>2026-05-01T05:59:01Z</time></trkpt><trkpt lat="45.959580657318874" lon="12.04564856161414"><ele>1264.0</ele><time>2026-05-01T06:00:46Z</time></trkpt><trkpt lat="45.959537793452654" lon="12.045736633089517"><ele>1264.0</ele><time>2026-05-01T06:00:48Z</time></trkpt><trkpt lat="45.95945379899004" lon="12.04576568001297"><ele>1264.0</ele><time>2026-05-01T06:00:50Z</time></trkpt><trkpt lat="45.95936865621268" lon="12.045767727747243"><ele>1264.0</ele><time>2026-05-01T06:00:52Z</time></trkpt><trkpt lat="45.95927717470509" lon="12.04578304628543"><ele>1264.0</ele><time>2026-05-01T06:00:54Z</time></trkpt><trkpt lat="45.9591714886078" lon="12.04580265072618"><ele>1264.0</ele><time>2026-05-01T06:00:56Z</time></trkpt><trkpt lat="45.95906128046686" lon="12.045802841757984"><ele>1264.0</ele><time>2026-05-01T06:00:58Z</time></trkpt><trkpt lat="45.95899446619062" lon="12.045812801074371"><ele>1262.6000000000001</ele><time>2026-05-01T06:00:59Z</time></trkpt><trkpt lat="45.95890528581808" lon="12.045774867592653"><ele>1261.2</ele><time>2026-05-01T06:01:01Z</time></trkpt><trkpt lat="45.9587996302713" lon="12.045843652832126"><ele>1259.8000000000002</ele><time>2026-05-01T06:01:03Z</time></trkpt><trkpt lat="45.958733884121585" lon="12.045978643379442"><ele>1258.4</ele><time>2026-05-01T06:01:05Z</time></trkpt><trkpt lat="45.95872843447525" lon="12.046138357914604"><ele>1257.0</ele><time>2026-05-01T06:01:07Z</time></trkpt><trkpt lat="45.958717851461174" lon="12.046235381476533"><ele>1257.0</ele><time>2026-05-01T06:01:08Z</time></trkpt><trkpt lat="45.958684175247726" lon="12.046329371901237"><ele>1257.0</ele><time>2026-05-01T06:01:09Z</time></trkpt><trkpt lat="45.958666757744375" lon="12.046423924050579"><ele>1257.0</ele><time>2026-05-01T06:01:10Z</time></trkpt><trkpt lat="45.958651039874084" lon="12.046607777592902"><ele>1257.0</ele><time>2026-05-01T06:01:12Z</time></trkpt><trkpt lat="45.95861534264639" lon="12.046779154698605"><ele>1257.0</ele><time>2026-05-01T06:01:14Z</time></trkpt><trkpt lat="45.958585571248335" lon="12.046938141868583"><ele>1252.6</ele><time>2026-05-01T06:01:16Z</time></trkpt><trkpt lat="45.95857373832958" lon="12.047027110220593"><ele>1248.2</ele><time>2026-05-01T06:01:17Z</time></trkpt><trkpt lat="45.95856231392075" lon="12.047197004015874"><ele>1243.8</ele><time>2026-05-01T06:01:19Z</time></trkpt><trkpt lat="45.958567624105775" lon="12.04729029834296"><ele>1239.4</ele><time>2026-05-01T06:01:20Z</time></trkpt><trkpt lat="45.95857096531064" lon="12.047458146242528"><ele>1235.0</ele><time>2026-05-01T06:01:21Z</time></trkpt><trkpt lat="45.95857273625181" lon="12.047586943984813"><ele>1232.0</ele><time>2026-05-01T06:01:22Z</time></trkpt><trkpt lat="45.95856538415991" lon="12.04770717884207"><ele>1229.0</ele><time>2026-05-01T06:01:23Z</time></trkpt><trkpt lat="45.95856089379117" lon="12.047822839407429"><ele>1226.0</ele><time>2026-05-01T06:01:24Z</time></trkpt><trkpt lat="45.958553214623215" lon="12.047936329360128"><ele>1223.0</ele><time>2026-05-01T06:01:24.999Z</time></trkpt><trkpt lat="45.95854202354205" lon="12.048047667431684"><ele>1220.0</ele><time>2026-05-01T06:01:25.999Z</time></trkpt><trkpt lat="45.95853020882459" lon="12.048145369212305"><ele>1217.0</ele><time>2026-05-01T06:01:26.999Z</time></trkpt><trkpt lat="45.95851693374368" lon="12.048241541111226"><ele>1215.5</ele><time>2026-05-01T06:01:27.999Z</time></trkpt><trkpt lat="45.95851459679137" lon="12.048361911754347"><ele>1214.0</ele><time>2026-05-01T06:01:28.999Z</time></trkpt><trkpt lat="45.95849135500237" lon="12.048473225497151"><ele>1212.5</ele><time>2026-05-01T06:01:29.999Z</time></trkpt><trkpt lat="45.95846823188093" lon="12.048597807720247"><ele>1211.0</ele><time>2026-05-01T06:01:30.999Z</time></trkpt><trkpt lat="45.958456355904595" lon="12.048718131764941"><ele>1209.5</ele><time>2026-05-01T06:01:31.999Z</time></trkpt><trkpt lat="45.9584267421803" lon="12.048824180450044"><ele>1208.0</ele><time>2026-05-01T06:01:32.999Z</time></trkpt><trkpt lat="45.95842734040222" lon="12.048929128014809"><ele>1208.0</ele><time>2026-05-01T06:01:33.999Z</time></trkpt><trkpt lat="45.9584192535822" lon="12.049033542263745"><ele>1208.0</ele><time>2026-05-01T06:01:34.999Z</time></trkpt><trkpt lat="45.958408654047275" lon="12.049136255113432"><ele>1208.0</ele><time>2026-05-01T06:01:35.999Z</time></trkpt><trkpt lat="45.958391730454" lon="12.049244641815157"><ele>1208.0</ele><time>2026-05-01T06:01:36.999Z</time></trkpt><trkpt lat="45.95837713923143" lon="12.049358528867906"><ele>1208.0</ele><time>2026-05-01T06:01:37.999Z</time></trkpt><trkpt lat="45.958357684325385" lon="12.049554514923612"><ele>1208.0</ele><time>2026-05-01T06:01:39.999Z</time></trkpt><trkpt lat="45.95833329090432" lon="12.049653132058792"><ele>1210.5</ele><time>2026-05-01T06:01:40.999Z</time></trkpt><trkpt lat="45.95833165709296" lon="12.049755865435472"><ele>1213.0</ele><time>2026-05-01T06:01:41.999Z</time></trkpt><trkpt lat="45.95831135182037" lon="12.049864558657099"><ele>1215.5</ele><time>2026-05-01T06:01:42.999Z</time></trkpt><trkpt lat="45.9582844775701" lon="12.049962564968457"><ele>1218.0</ele><time>2026-05-01T06:01:43.999Z</time></trkpt><trkpt lat="45.95825632755719" lon="12.0500641739701"><ele>1220.5</ele><time>2026-05-01T06:01:44.999Z</time></trkpt><trkpt lat="45.95822327930209" lon="12.05017078298778"><ele>1223.0</ele><time>2026-05-01T06:01:45.999Z</time></trkpt><trkpt lat="45.95818699241102" lon="12.050284976697485"><ele>1223.0</ele><time>2026-05-01T06:01:46.999Z</time></trkpt><trkpt lat="45.95815371400135" lon="12.050389338051204"><ele>1223.0</ele><time>2026-05-01T06:01:47.999Z</time></trkpt><trkpt lat="45.95812330845903" lon="12.050493258933031"><ele>1223.0</ele><time>2026-05-01T06:01:48.999Z</time></trkpt><trkpt lat="45.95808973385473" lon="12.050590721366996"><ele>1223.0</ele><time>2026-05-01T06:01:49.999Z</time></trkpt><trkpt lat="45.95803207632743" lon="12.050664137566105"><ele>1223.0</ele><time>2026-05-01T06:01:50.999Z</time></trkpt><trkpt lat="45.95798559066915" lon="12.050749968419174"><ele>1223.0</ele><time>2026-05-01T06:01:51.999Z</time></trkpt><trkpt lat="45.95793279027981" lon="12.050833699440997"><ele>1221.0</ele><time>2026-05-01T06:01:52.999Z</time></trkpt><trkpt lat="45.95788133126576" lon="12.050913057865383"><ele>1219.0</ele><time>2026-05-01T06:01:53.999Z</time></trkpt><trkpt lat="45.95783390162534" lon="12.050977227915823"><ele>1217.0</ele><time>2026-05-01T06:01:54.999Z</time></trkpt><trkpt lat="45.95778512682976" lon="12.051040596350786"><ele>1215.0</ele><time>2026-05-01T06:01:56Z</time></trkpt><trkpt lat="45.95773301290718" lon="12.05110385695051"><ele>1213.0</ele><time>2026-05-01T06:01:57Z</time></trkpt><trkpt lat="45.957681066088355" lon="12.051162065025483"><ele>1211.0</ele><time>2026-05-01T06:01:58Z</time></trkpt><trkpt lat="45.95762190891365" lon="12.051225836064248"><ele>1209.0</ele><time>2026-05-01T06:01:59Z</time></trkpt><trkpt lat="45.95755438236183" lon="12.051293155643101"><ele>1211.6000000000001</ele><time>2026-05-01T06:02:00Z</time></trkpt><trkpt lat="45.95747611386803" lon="12.051359618298081"><ele>1214.2</ele><time>2026-05-01T06:02:01Z</time></trkpt><trkpt lat="45.95740278477826" lon="12.051438002736695"><ele>1216.8000000000002</ele><time>2026-05-01T06:02:02Z</time></trkpt><trkpt lat="45.957332068297895" lon="12.051500616936872"><ele>1219.4</ele><time>2026-05-01T06:02:03Z</time></trkpt><trkpt lat="45.95724756565789" lon="12.05157331633372"><ele>1222.0</ele><time>2026-05-01T06:02:04Z</time></trkpt><trkpt lat="45.957172401396896" lon="12.051634544044724"><ele>1222.0</ele><time>2026-05-01T06:02:05Z</time></trkpt><trkpt lat="45.9571068109533" lon="12.051681050559113"><ele>1222.0</ele><time>2026-05-01T06:02:06Z</time></trkpt><trkpt lat="45.957041340961126" lon="12.051712540049573"><ele>1222.0</ele><time>2026-05-01T06:02:07Z</time></trkpt><trkpt lat="45.95697781728801" lon="12.051769317117861"><ele>1222.0</ele><time>2026-05-01T06:02:19Z</time></trkpt><trkpt lat="45.95690965633361" lon="12.051817516731434"><ele>1222.0</ele><time>2026-05-01T06:02:21Z</time></trkpt><trkpt lat="45.956829053106546" lon="12.051921826105918"><ele>1222.0</ele><time>2026-05-01T06:02:23Z</time></trkpt><trkpt lat="45.95676618729405" lon="12.051990471277133"><ele>1222.0</ele><time>2026-05-01T06:02:25Z</time></trkpt><trkpt lat="45.95671008876729" lon="12.052049545738639"><ele>1222.0</ele><time>2026-05-01T06:02:27Z</time></trkpt><trkpt lat="45.95665926469307" lon="12.052117232366891"><ele>1222.0</ele><time>2026-05-01T06:02:29Z</time></trkpt><trkpt lat="45.95663468401903" lon="12.052228054954176"><ele>1222.0</ele><time>2026-05-01T06:02:32Z</time></trkpt><trkpt lat="45.95668835487201" lon="12.052314207336478"><ele>1222.0</ele><time>2026-05-01T06:02:34Z</time></trkpt><trkpt lat="45.956806123203386" lon="12.05235517541191"><ele>1222.0</ele><time>2026-05-01T06:02:36Z</time></trkpt><trkpt lat="45.95687838570098" lon="12.052381366257034"><ele>1222.0</ele><time>2026-05-01T06:02:37Z</time></trkpt><trkpt lat="45.956938570946164" lon="12.052421577376656"><ele>1222.0</ele><time>2026-05-01T06:02:38Z</time></trkpt><trkpt lat="45.95700279623403" lon="12.05245583009014"><ele>1222.0</ele><time>2026-05-01T06:02:39Z</time></trkpt><trkpt lat="45.95708258650261" lon="12.052547086551451"><ele>1222.0</ele><time>2026-05-01T06:02:41Z</time></trkpt><trkpt lat="45.957135013874975" lon="12.052599856881562"><ele>1222.0</ele><time>2026-05-01T06:02:42Z</time></trkpt><trkpt lat="45.95719282477512" lon="12.052765102005893"><ele>1222.0</ele><time>2026-05-01T06:02:44Z</time></trkpt><trkpt lat="45.957232386299545" lon="12.052863812542656"><ele>1221.1666666666665</ele><time>2026-05-01T06:02:45Z</time></trkpt><trkpt lat="45.95725467631527" lon="12.052967257163491"><ele>1220.3333333333333</ele><time>2026-05-01T06:02:46Z</time></trkpt><trkpt lat="45.95727907378271" lon="12.053069024277262"><ele>1219.5</ele><time>2026-05-01T06:02:47Z</time></trkpt><trkpt lat="45.95730342623219" lon="12.053186422093676"><ele>1218.6666666666667</ele><time>2026-05-01T06:02:48Z</time></trkpt><trkpt lat="45.95733043717892" lon="12.053278343536377"><ele>1217.8333333333335</ele><time>2026-05-01T06:02:49Z</time></trkpt><trkpt lat="45.95736890838609" lon="12.053384339412462"><ele>1217.0</ele><time>2026-05-01T06:02:50Z</time></trkpt><trkpt lat="45.95738617626645" lon="12.053480784778223"><ele>1219.2</ele><time>2026-05-01T06:02:51Z</time></trkpt><trkpt lat="45.95739599248249" lon="12.053576117794611"><ele>1221.4</ele><time>2026-05-01T06:02:52Z</time></trkpt><trkpt lat="45.95740166706494" lon="12.053682569116171"><ele>1223.6</ele><time>2026-05-01T06:02:53Z</time></trkpt><trkpt lat="45.957399445069164" lon="12.053873899072888"><ele>1225.8</ele><time>2026-05-01T06:02:55Z</time></trkpt><trkpt lat="45.957410906160746" lon="12.053996745565389"><ele>1228.0</ele><time>2026-05-01T06:02:57Z</time></trkpt><trkpt lat="45.957490528541044" lon="12.054068080155723"><ele>1224.5</ele><time>2026-05-01T06:02:59Z</time></trkpt><trkpt lat="45.95759503396206" lon="12.054013941291926"><ele>1221.0</ele><time>2026-05-01T06:03:01Z</time></trkpt><trkpt lat="45.957695146106005" lon="12.05401414473519"><ele>1217.5</ele><time>2026-05-01T06:03:02Z</time></trkpt><trkpt lat="45.957780555633974" lon="12.054005608398823"><ele>1214.0</ele><time>2026-05-01T06:03:03Z</time></trkpt><trkpt lat="45.957841653743735" lon="12.05398054975982"><ele>1210.5</ele><time>2026-05-01T06:03:04Z</time></trkpt><trkpt lat="45.95790954415848" lon="12.053946678344031"><ele>1207.0</ele><time>2026-05-01T06:03:05Z</time></trkpt><trkpt lat="45.95798025884093" lon="12.053939935415938"><ele>1207.0</ele><time>2026-05-01T06:03:06Z</time></trkpt><trkpt lat="45.958050619715" lon="12.053942312137279"><ele>1207.0</ele><time>2026-05-01T06:03:07Z</time></trkpt><trkpt lat="45.958114216166926" lon="12.053931378303805"><ele>1207.0</ele><time>2026-05-01T06:03:08Z</time></trkpt><trkpt lat="45.9582328518156" lon="12.053946611603298"><ele>1207.0</ele><time>2026-05-01T06:03:10Z</time></trkpt><trkpt lat="45.95830125097375" lon="12.053964061794376"><ele>1207.0</ele><time>2026-05-01T06:03:11Z</time></trkpt><trkpt lat="45.95839210136779" lon="12.054059096584634"><ele>1207.0</ele><time>2026-05-01T06:03:13Z</time></trkpt><trkpt lat="45.958443797458735" lon="12.054124139196574"><ele>1205.5</ele><time>2026-05-01T06:03:14Z</time></trkpt><trkpt lat="45.95848082984013" lon="12.054210669161048"><ele>1204.0</ele><time>2026-05-01T06:03:15Z</time></trkpt><trkpt lat="45.95852056318243" lon="12.054314557942075"><ele>1202.5</ele><time>2026-05-01T06:03:16Z</time></trkpt><trkpt lat="45.958556635723674" lon="12.054415075326487"><ele>1201.0</ele><time>2026-05-01T06:03:17Z</time></trkpt><trkpt lat="45.95859895273482" lon="12.05455250097303"><ele>1199.5</ele><time>2026-05-01T06:03:18Z</time></trkpt><trkpt lat="45.958607886817916" lon="12.054670446043154"><ele>1198.0</ele><time>2026-05-01T06:03:19Z</time></trkpt><trkpt lat="45.95862840031127" lon="12.054802804111812"><ele>1198.0</ele><time>2026-05-01T06:03:20Z</time></trkpt><trkpt lat="45.95864570802351" lon="12.05492537121476"><ele>1198.0</ele><time>2026-05-01T06:03:21Z</time></trkpt><trkpt lat="45.958668260704556" lon="12.05504553491508"><ele>1198.0</ele><time>2026-05-01T06:03:22Z</time></trkpt><trkpt lat="45.958682541851566" lon="12.055180317834397"><ele>1198.0</ele><time>2026-05-01T06:03:23Z</time></trkpt><trkpt lat="45.958694058375464" lon="12.055306315638935"><ele>1198.0</ele><time>2026-05-01T06:03:24Z</time></trkpt><trkpt lat="45.95869287186396" lon="12.055441260957414"><ele>1199.3333333333333</ele><time>2026-05-01T06:03:25Z</time></trkpt><trkpt lat="45.958698601967235" lon="12.055575762329996"><ele>1200.6666666666665</ele><time>2026-05-01T06:03:26Z</time></trkpt><trkpt lat="45.95870746808464" lon="12.055705183535352"><ele>1202.0</ele><time>2026-05-01T06:03:27Z</time></trkpt><trkpt lat="45.95870795064627" lon="12.055816891028925"><ele>1203.3333333333333</ele><time>2026-05-01T06:03:28Z</time></trkpt><trkpt lat="45.9587451613746" lon="12.0559312643222"><ele>1204.6666666666667</ele><time>2026-05-01T06:03:29Z</time></trkpt><trkpt lat="45.95876990669439" lon="12.056054762982662"><ele>1206.0</ele><time>2026-05-01T06:03:30Z</time></trkpt><trkpt lat="45.95881752995281" lon="12.056213686826627"><ele>1207.8</ele><time>2026-05-01T06:03:31Z</time></trkpt><trkpt lat="45.95885003138515" lon="12.056342378045665"><ele>1209.6</ele><time>2026-05-01T06:03:32Z</time></trkpt><trkpt lat="45.95888781637767" lon="12.056464694882672"><ele>1211.4</ele><time>2026-05-01T06:03:33Z</time></trkpt><trkpt lat="45.95893406819629" lon="12.056574060654002"><ele>1213.2</ele><time>2026-05-01T06:03:34Z</time></trkpt><trkpt lat="45.95893018561309" lon="12.0567009485658"><ele>1215.0</ele><time>2026-05-01T06:03:35Z</time></trkpt><trkpt lat="45.958948886546764" lon="12.056831152443637"><ele>1217.4</ele><time>2026-05-01T06:03:36Z</time></trkpt><trkpt lat="45.95895749805437" lon="12.056992395313255"><ele>1219.8</ele><time>2026-05-01T06:03:36.999Z</time></trkpt><trkpt lat="45.9589579809537" lon="12.057132958723404"><ele>1222.2</ele><time>2026-05-01T06:03:37.999Z</time></trkpt><trkpt lat="45.958955662659356" lon="12.057280582200118"><ele>1224.6</ele><time>2026-05-01T06:03:38.999Z</time></trkpt><trkpt lat="45.95896284119539" lon="12.057433496354047"><ele>1227.0</ele><time>2026-05-01T06:03:39.999Z</time></trkpt><trkpt lat="45.95894977003128" lon="12.057584910553597"><ele>1230.2</ele><time>2026-05-01T06:03:40.999Z</time></trkpt><trkpt lat="45.95895095711135" lon="12.057741097501719"><ele>1233.4</ele><time>2026-05-01T06:03:41.999Z</time></trkpt><trkpt lat="45.958960938966726" lon="12.05790071950777"><ele>1236.6</ele><time>2026-05-01T06:03:42.999Z</time></trkpt><trkpt lat="45.95899179593391" lon="12.058047360785448"><ele>1239.8</ele><time>2026-05-01T06:03:43.999Z</time></trkpt><trkpt lat="45.9590192742104" lon="12.05819503232697"><ele>1243.0</ele><time>2026-05-01T06:03:44.999Z</time></trkpt><trkpt lat="45.959043822194914" lon="12.058334512573358"><ele>1241.2</ele><time>2026-05-01T06:03:45.999Z</time></trkpt><trkpt lat="45.95907575015108" lon="12.058469259755629"><ele>1239.4</ele><time>2026-05-01T06:03:46.999Z</time></trkpt><trkpt lat="45.95910472087249" lon="12.058604763705704"><ele>1237.6000000000001</ele><time>2026-05-01T06:03:47.999Z</time></trkpt><trkpt lat="45.95914147151697" lon="12.058731558243897"><ele>1235.8</ele><time>2026-05-01T06:03:48.999Z</time></trkpt><trkpt lat="45.95919611171482" lon="12.058839043124468"><ele>1234.0</ele><time>2026-05-01T06:03:49.999Z</time></trkpt><trkpt lat="45.959250510879045" lon="12.058946369382156"><ele>1234.0</ele><time>2026-05-01T06:03:50.999Z</time></trkpt><trkpt lat="45.95929872526081" lon="12.059033390243057"><ele>1234.0</ele><time>2026-05-01T06:03:52.999Z</time></trkpt><trkpt lat="45.95934234758734" lon="12.059112352249068"><ele>1234.0</ele><time>2026-05-01T06:03:55.999Z</time></trkpt><trkpt lat="45.95942236487649" lon="12.059170837442473"><ele>1234.0</ele><time>2026-05-01T06:04:06Z</time></trkpt><trkpt lat="45.959537665930675" lon="12.05915146506199"><ele>1234.0</ele><time>2026-05-01T06:04:08Z</time></trkpt><trkpt lat="45.95962323707419" lon="12.059131810626251"><ele>1234.0</ele><time>2026-05-01T06:04:09Z</time></trkpt><trkpt lat="45.95970281152993" lon="12.059126477144787"><ele>1233.1666666666665</ele><time>2026-05-01T06:04:10Z</time></trkpt><trkpt lat="45.95977275852972" lon="12.059125470998673"><ele>1232.3333333333333</ele><time>2026-05-01T06:04:11Z</time></trkpt><trkpt lat="45.959894010585735" lon="12.059119543377378"><ele>1231.5</ele><time>2026-05-01T06:04:13Z</time></trkpt><trkpt lat="45.95995920077801" lon="12.059154947126103"><ele>1230.6666666666667</ele><time>2026-05-01T06:04:14Z</time></trkpt><trkpt lat="45.9600169817008" lon="12.059228238640936"><ele>1229.8333333333335</ele><time>2026-05-01T06:04:15Z</time></trkpt><trkpt lat="45.96006612390771" lon="12.05932008983227"><ele>1229.0</ele><time>2026-05-01T06:04:16Z</time></trkpt><trkpt lat="45.96012804935481" lon="12.059396054322335"><ele>1229.0</ele><time>2026-05-01T06:04:17Z</time></trkpt><trkpt lat="45.96019798137307" lon="12.059490865622239"><ele>1229.0</ele><time>2026-05-01T06:04:18Z</time></trkpt><trkpt lat="45.960267693270175" lon="12.05959156771176"><ele>1229.0</ele><time>2026-05-01T06:04:19Z</time></trkpt><trkpt lat="45.96032580781807" lon="12.059679050803378"><ele>1229.0</ele><time>2026-05-01T06:04:20Z</time></trkpt><trkpt lat="45.960388952519466" lon="12.059757086593432"><ele>1229.0</ele><time>2026-05-01T06:04:21Z</time></trkpt><trkpt lat="45.9604582614749" lon="12.059821015215698"><ele>1229.0</ele><time>2026-05-01T06:04:22Z</time></trkpt><trkpt lat="45.960532193545625" lon="12.059875284018792"><ele>1229.0</ele><time>2026-05-01T06:04:23Z</time></trkpt><trkpt lat="45.96061371721557" lon="12.059919335869319"><ele>1229.0</ele><time>2026-05-01T06:04:24Z</time></trkpt><trkpt lat="45.96069854331387" lon="12.059968115132381"><ele>1229.0</ele><time>2026-05-01T06:04:25Z</time></trkpt><trkpt lat="45.960781281604724" lon="12.060006771166174"><ele>1229.0</ele><time>2026-05-01T06:04:26Z</time></trkpt><trkpt lat="45.96084714226806" lon="12.060068340816734"><ele>1229.0</ele><time>2026-05-01T06:04:27Z</time></trkpt><trkpt lat="45.9609033308851" lon="12.060124077298582"><ele>1229.0</ele><time>2026-05-01T06:04:28Z</time></trkpt><trkpt lat="45.96096546176909" lon="12.060182334819228"><ele>1228.8</ele><time>2026-05-01T06:04:29Z</time></trkpt><trkpt lat="45.96102312135297" lon="12.060241540282753"><ele>1228.6000000000001</ele><time>2026-05-01T06:04:30Z</time></trkpt><trkpt lat="45.96113388766716" lon="12.06033965568559"><ele>1228.4</ele><time>2026-05-01T06:04:32Z</time></trkpt><trkpt lat="45.96119318317012" lon="12.060376249035535"><ele>1228.2</ele><time>2026-05-01T06:04:33Z</time></trkpt><trkpt lat="45.96132130194539" lon="12.060454450103984"><ele>1228.0</ele><time>2026-05-01T06:04:35Z</time></trkpt><trkpt lat="45.9614037343692" lon="12.060489466393532"><ele>1228.0</ele><time>2026-05-01T06:04:36Z</time></trkpt><trkpt lat="45.96149449991388" lon="12.060529242734445"><ele>1228.0</ele><time>2026-05-01T06:04:37Z</time></trkpt><trkpt lat="45.961568132606494" lon="12.060558259121564"><ele>1228.0</ele><time>2026-05-01T06:04:38Z</time></trkpt><trkpt lat="45.96163898617528" lon="12.060599344275143"><ele>1228.0</ele><time>2026-05-01T06:04:39Z</time></trkpt><trkpt lat="45.9616974845597" lon="12.060636550519405"><ele>1228.0</ele><time>2026-05-01T06:04:40Z</time></trkpt><trkpt lat="45.961754294389856" lon="12.060687259443887"><ele>1228.0</ele><time>2026-05-01T06:04:41Z</time></trkpt><trkpt lat="45.96181725661614" lon="12.060746227960777"><ele>1227.5</ele><time>2026-05-01T06:04:42Z</time></trkpt><trkpt lat="45.96187470983926" lon="12.06080742571937"><ele>1227.0</ele><time>2026-05-01T06:04:43Z</time></trkpt><trkpt lat="45.96193766639876" lon="12.060880124676768"><ele>1226.5</ele><time>2026-05-01T06:04:44Z</time></trkpt><trkpt lat="45.96199879632435" lon="12.060967661412718"><ele>1226.0</ele><time>2026-05-01T06:04:45Z</time></trkpt><trkpt lat="45.962053543421064" lon="12.06105051343645"><ele>1225.5</ele><time>2026-05-01T06:04:46Z</time></trkpt><trkpt lat="45.96211494787527" lon="12.06113036096708"><ele>1225.0</ele><time>2026-05-01T06:04:47Z</time></trkpt><trkpt lat="45.96218058898709" lon="12.061209175978057"><ele>1225.0</ele><time>2026-05-01T06:04:48Z</time></trkpt><trkpt lat="45.962238271519524" lon="12.061266997661338"><ele>1225.0</ele><time>2026-05-01T06:04:49Z</time></trkpt><trkpt lat="45.96228296431215" lon="12.06135656927505"><ele>1225.0</ele><time>2026-05-01T06:04:50Z</time></trkpt><trkpt lat="45.96234279302664" lon="12.061524676811384"><ele>1225.0</ele><time>2026-05-01T06:04:52Z</time></trkpt><trkpt lat="45.962397059743154" lon="12.061592842733102"><ele>1225.0</ele><time>2026-05-01T06:04:53Z</time></trkpt><trkpt lat="45.96246709379808" lon="12.061639468819715"><ele>1225.0</ele><time>2026-05-01T06:04:54Z</time></trkpt><trkpt lat="45.96256685614848" lon="12.061677637919278"><ele>1224.6</ele><time>2026-05-01T06:04:55Z</time></trkpt><trkpt lat="45.96266075192092" lon="12.061724249576598"><ele>1224.2</ele><time>2026-05-01T06:04:56Z</time></trkpt><trkpt lat="45.96274366973967" lon="12.061792761526574"><ele>1223.8</ele><time>2026-05-01T06:04:57Z</time></trkpt><trkpt lat="45.96282626318349" lon="12.06186973553469"><ele>1223.4</ele><time>2026-05-01T06:04:58Z</time></trkpt><trkpt lat="45.962906046056126" lon="12.061917573995586"><ele>1223.0</ele><time>2026-05-01T06:04:59Z</time></trkpt><trkpt lat="45.96297875122994" lon="12.061990547558707"><ele>1223.0</ele><time>2026-05-01T06:05:00Z</time></trkpt><trkpt lat="45.9630601380804" lon="12.062069271605758"><ele>1223.0</ele><time>2026-05-01T06:05:01Z</time></trkpt><trkpt lat="45.96313174362269" lon="12.062141257041707"><ele>1223.0</ele><time>2026-05-01T06:05:02Z</time></trkpt><trkpt lat="45.96320528211495" lon="12.062214629717586"><ele>1223.0</ele><time>2026-05-01T06:05:03Z</time></trkpt><trkpt lat="45.96326324582099" lon="12.062272112614467"><ele>1223.0</ele><time>2026-05-01T06:05:04Z</time></trkpt><trkpt lat="45.96332988094737" lon="12.062289989525574"><ele>1223.0</ele><time>2026-05-01T06:05:05Z</time></trkpt><trkpt lat="45.96339709298673" lon="12.062321034241016"><ele>1221.0</ele><time>2026-05-01T06:05:06Z</time></trkpt><trkpt lat="45.963467919413254" lon="12.062340786585406"><ele>1219.0</ele><time>2026-05-01T06:05:07Z</time></trkpt><trkpt lat="45.96354337137744" lon="12.062338901320366"><ele>1217.0</ele><time>2026-05-01T06:05:08Z</time></trkpt><trkpt lat="45.96361145801776" lon="12.062360164176312"><ele>1215.0</ele><time>2026-05-01T06:05:09Z</time></trkpt><trkpt lat="45.96372917714264" lon="12.062370471987322"><ele>1213.0</ele><time>2026-05-01T06:05:11Z</time></trkpt><trkpt lat="45.963815075422325" lon="12.062447050363506"><ele>1211.0</ele><time>2026-05-01T06:05:13Z</time></trkpt><trkpt lat="45.963872067655636" lon="12.06250301247251"><ele>1213.1666666666667</ele><time>2026-05-01T06:05:14Z</time></trkpt><trkpt lat="45.96392653690737" lon="12.062578692393517"><ele>1215.3333333333335</ele><time>2026-05-01T06:05:15Z</time></trkpt><trkpt lat="45.96398054219451" lon="12.062642748558662"><ele>1217.5</ele><time>2026-05-01T06:05:16Z</time></trkpt><trkpt lat="45.96404300841893" lon="12.062694753540889"><ele>1219.6666666666667</ele><time>2026-05-01T06:05:17Z</time></trkpt><trkpt lat="45.96411384578417" lon="12.06274494734993"><ele>1221.8333333333333</ele><time>2026-05-01T06:05:18Z</time></trkpt><trkpt lat="45.96419026503902" lon="12.062793040657075"><ele>1224.0</ele><time>2026-05-01T06:05:19Z</time></trkpt><trkpt lat="45.96426771682919" lon="12.062841859030684"><ele>1224.0</ele><time>2026-05-01T06:05:20Z</time></trkpt><trkpt lat="45.9643488624006" lon="12.06289228634985"><ele>1224.0</ele><time>2026-05-01T06:05:21Z</time></trkpt><trkpt lat="45.96444123924432" lon="12.062929629274679"><ele>1224.0</ele><time>2026-05-01T06:05:22Z</time></trkpt><trkpt lat="45.96450448787245" lon="12.06299348880869"><ele>1224.0</ele><time>2026-05-01T06:05:23Z</time></trkpt><trkpt lat="45.96456228603962" lon="12.063036181315564"><ele>1224.0</ele><time>2026-05-01T06:05:24Z</time></trkpt><trkpt lat="45.964624318228545" lon="12.063082009608003"><ele>1224.0</ele><time>2026-05-01T06:05:25Z</time></trkpt><trkpt lat="45.96470642882548" lon="12.063155277962792"><ele>1224.0</ele><time>2026-05-01T06:05:26Z</time></trkpt><trkpt lat="45.964779790102845" lon="12.06322126188346"><ele>1224.0</ele><time>2026-05-01T06:05:27Z</time></trkpt><trkpt lat="45.96486526841908" lon="12.063274818106855"><ele>1224.0</ele><time>2026-05-01T06:05:28Z</time></trkpt><trkpt lat="45.964950408182595" lon="12.063347217864731"><ele>1224.0</ele><time>2026-05-01T06:05:29Z</time></trkpt><trkpt lat="45.96505251778035" lon="12.063444776409762"><ele>1224.0</ele><time>2026-05-01T06:05:31Z</time></trkpt><trkpt lat="45.96509648785343" lon="12.06351247551455"><ele>1228.1666666666667</ele><time>2026-05-01T06:05:32Z</time></trkpt><trkpt lat="45.96513474781644" lon="12.0635901552723"><ele>1232.3333333333333</ele><time>2026-05-01T06:05:33Z</time></trkpt><trkpt lat="45.96517500300608" lon="12.063677387808683"><ele>1236.5</ele><time>2026-05-01T06:05:34Z</time></trkpt><trkpt lat="45.96520910671688" lon="12.063765698473079"><ele>1240.6666666666665</ele><time>2026-05-01T06:05:35Z</time></trkpt><trkpt lat="45.96522915201368" lon="12.063859501123936"><ele>1244.8333333333333</ele><time>2026-05-01T06:05:36Z</time></trkpt><trkpt lat="45.96530355952652" lon="12.063969077189025"><ele>1249.0</ele><time>2026-05-01T06:05:38Z</time></trkpt><trkpt lat="45.96542570294291" lon="12.06397192200887"><ele>1249.0</ele><time>2026-05-01T06:05:40Z</time></trkpt><trkpt lat="45.96548946715337" lon="12.0639409348539"><ele>1249.0</ele><time>2026-05-01T06:05:41Z</time></trkpt><trkpt lat="45.965560605848715" lon="12.063894455656541"><ele>1249.0</ele><time>2026-05-01T06:05:42Z</time></trkpt><trkpt lat="45.96563207133541" lon="12.063840317098759"><ele>1249.0</ele><time>2026-05-01T06:05:43Z</time></trkpt><trkpt lat="45.96570043912144" lon="12.063799074516815"><ele>1249.0</ele><time>2026-05-01T06:05:43.999Z</time></trkpt><trkpt lat="45.965794320135245" lon="12.063735517525197"><ele>1249.0</ele><time>2026-05-01T06:05:45.999Z</time></trkpt><trkpt lat="45.965859997180985" lon="12.06374155456026"><ele>1247.5</ele><time>2026-05-01T06:05:47.999Z</time></trkpt><trkpt lat="45.965894044399136" lon="12.063838340455366"><ele>1246.0</ele><time>2026-05-01T06:05:49.999Z</time></trkpt><trkpt lat="45.965905878411036" lon="12.06400827375593"><ele>1244.5</ele><time>2026-05-01T06:05:51.999Z</time></trkpt><trkpt lat="45.965906345729664" lon="12.064115641553887"><ele>1243.0</ele><time>2026-05-01T06:05:52.999Z</time></trkpt><trkpt lat="45.96590672729502" lon="12.064236663272501"><ele>1241.5</ele><time>2026-05-01T06:05:53.999Z</time></trkpt><trkpt lat="45.96591174627444" lon="12.064359102730844"><ele>1240.0</ele><time>2026-05-01T06:05:54.999Z</time></trkpt><trkpt lat="45.96591717342013" lon="12.06447260454273"><ele>1241.6666666666665</ele><time>2026-05-01T06:05:55.999Z</time></trkpt><trkpt lat="45.965914679763316" lon="12.064580770036201"><ele>1243.3333333333333</ele><time>2026-05-01T06:05:56.999Z</time></trkpt><trkpt lat="45.96590527795355" lon="12.064688369646673"><ele>1245.0</ele><time>2026-05-01T06:05:57.999Z</time></trkpt><trkpt lat="45.965882331629494" lon="12.06479010008298"><ele>1246.6666666666667</ele><time>2026-05-01T06:05:58.999Z</time></trkpt><trkpt lat="45.96585883384688" lon="12.064900479769003"><ele>1248.3333333333335</ele><time>2026-05-01T06:05:59.999Z</time></trkpt><trkpt lat="45.96584568694503" lon="12.065015609515028"><ele>1250.0</ele><time>2026-05-01T06:06:00.999Z</time></trkpt><trkpt lat="45.965843881463606" lon="12.065126715542096"><ele>1250.0</ele><time>2026-05-01T06:06:01.999Z</time></trkpt><trkpt lat="45.96584547837601" lon="12.065223868050671"><ele>1250.0</ele><time>2026-05-01T06:06:02.999Z</time></trkpt><trkpt lat="45.96586898901521" lon="12.065313556431763"><ele>1250.0</ele><time>2026-05-01T06:06:03.999Z</time></trkpt><trkpt lat="45.965911140284675" lon="12.065388782878852"><ele>1250.0</ele><time>2026-05-01T06:06:04.999Z</time></trkpt><trkpt lat="45.965963259343205" lon="12.06545967896048"><ele>1250.0</ele><time>2026-05-01T06:06:05.999Z</time></trkpt><trkpt lat="45.96600286127465" lon="12.06556952360797"><ele>1250.0</ele><time>2026-05-01T06:06:06.999Z</time></trkpt><trkpt lat="45.96602825131438" lon="12.065697055459756"><ele>1244.6</ele><time>2026-05-01T06:06:08Z</time></trkpt><trkpt lat="45.96604366764647" lon="12.065819880212999"><ele>1239.2</ele><time>2026-05-01T06:06:09Z</time></trkpt><trkpt lat="45.96606106585556" lon="12.065957874332925"><ele>1233.8</ele><time>2026-05-01T06:06:10Z</time></trkpt><trkpt lat="45.96608611319121" lon="12.066099235920698"><ele>1228.4</ele><time>2026-05-01T06:06:11Z</time></trkpt><trkpt lat="45.96611781510553" lon="12.066241473009603"><ele>1223.0</ele><time>2026-05-01T06:06:12Z</time></trkpt><trkpt lat="45.96615539544641" lon="12.066388228927554"><ele>1223.0</ele><time>2026-05-01T06:06:13Z</time></trkpt><trkpt lat="45.96620082718696" lon="12.066522184030214"><ele>1223.0</ele><time>2026-05-01T06:06:14Z</time></trkpt><trkpt lat="45.96625339184057" lon="12.066645043709883"><ele>1223.0</ele><time>2026-05-01T06:06:15Z</time></trkpt><trkpt lat="45.96630506504055" lon="12.066789689312365"><ele>1223.0</ele><time>2026-05-01T06:06:16Z</time></trkpt><trkpt lat="45.96635941337961" lon="12.066929103354878"><ele>1223.0</ele><time>2026-05-01T06:06:17Z</time></trkpt><trkpt lat="45.96640835222425" lon="12.067064775150351"><ele>1224.0</ele><time>2026-05-01T06:06:18Z</time></trkpt><trkpt lat="45.96645724254508" lon="12.06718350348198"><ele>1225.0</ele><time>2026-05-01T06:06:19Z</time></trkpt><trkpt lat="45.96650578633172" lon="12.067269406291611"><ele>1226.0</ele><time>2026-05-01T06:06:20Z</time></trkpt><trkpt lat="45.96655666390046" lon="12.06734716672621"><ele>1227.0</ele><time>2026-05-01T06:06:21Z</time></trkpt><trkpt lat="45.96658015157907" lon="12.067436402097316"><ele>1228.0</ele><time>2026-05-01T06:06:22Z</time></trkpt><trkpt lat="45.9665977557048" lon="12.067634734493435"><ele>1228.5</ele><time>2026-05-01T06:06:24Z</time></trkpt><trkpt lat="45.966594593032" lon="12.06775382621582"><ele>1229.0</ele><time>2026-05-01T06:06:25Z</time></trkpt><trkpt lat="45.96661197867913" lon="12.0678728420758"><ele>1229.5</ele><time>2026-05-01T06:06:26Z</time></trkpt><trkpt lat="45.96662174760822" lon="12.067970467524656"><ele>1230.0</ele><time>2026-05-01T06:06:27Z</time></trkpt><trkpt lat="45.96664525057154" lon="12.068099289758806"><ele>1230.5</ele><time>2026-05-01T06:06:28Z</time></trkpt><trkpt lat="45.96668138469526" lon="12.068210642979272"><ele>1231.0</ele><time>2026-05-01T06:06:29Z</time></trkpt><trkpt lat="45.966732252825935" lon="12.068319306136086"><ele>1228.3999999999999</ele><time>2026-05-01T06:06:30Z</time></trkpt><trkpt lat="45.96680223101508" lon="12.068428064008545"><ele>1225.8</ele><time>2026-05-01T06:06:31Z</time></trkpt><trkpt lat="45.966870258235346" lon="12.068554737470528"><ele>1223.1999999999998</ele><time>2026-05-01T06:06:32Z</time></trkpt><trkpt lat="45.966942371366464" lon="12.068665228794993"><ele>1220.6</ele><time>2026-05-01T06:06:33Z</time></trkpt><trkpt lat="45.96701222192456" lon="12.068781745852522"><ele>1218.0</ele><time>2026-05-01T06:06:34Z</time></trkpt><trkpt lat="45.967083629858344" lon="12.068900393725055"><ele>1218.0</ele><time>2026-05-01T06:06:35Z</time></trkpt><trkpt lat="45.967149145052566" lon="12.069018027123567"><ele>1218.0</ele><time>2026-05-01T06:06:36Z</time></trkpt><trkpt lat="45.967225975679206" lon="12.069125231404122"><ele>1218.0</ele><time>2026-05-01T06:06:37Z</time></trkpt><trkpt lat="45.96731167643363" lon="12.069239686265593"><ele>1218.0</ele><time>2026-05-01T06:06:38Z</time></trkpt><trkpt lat="45.967399210585185" lon="12.069352778830922"><ele>1218.0</ele><time>2026-05-01T06:06:39Z</time></trkpt><trkpt lat="45.96748993154368" lon="12.069459220526468"><ele>1216.8</ele><time>2026-05-01T06:06:40Z</time></trkpt><trkpt lat="45.96757800825959" lon="12.069560261606874"><ele>1215.6</ele><time>2026-05-01T06:06:41Z</time></trkpt><trkpt lat="45.96766293769702" lon="12.069657937852673"><ele>1214.4</ele><time>2026-05-01T06:06:42Z</time></trkpt><trkpt lat="45.96774327022835" lon="12.069740307867775"><ele>1213.2</ele><time>2026-05-01T06:06:43Z</time></trkpt><trkpt lat="45.9678248489118" lon="12.06985002173866"><ele>1212.0</ele><time>2026-05-01T06:06:44Z</time></trkpt><trkpt lat="45.96790186240337" lon="12.069938428205385"><ele>1214.5</ele><time>2026-05-01T06:06:45Z</time></trkpt><trkpt lat="45.967962030909185" lon="12.070016512938324"><ele>1217.0</ele><time>2026-05-01T06:06:46Z</time></trkpt><trkpt lat="45.96802028377928" lon="12.070080461407173"><ele>1219.5</ele><time>2026-05-01T06:06:47Z</time></trkpt><trkpt lat="45.968071863872105" lon="12.070139231732973"><ele>1222.0</ele><time>2026-05-01T06:06:48Z</time></trkpt><trkpt lat="45.96813860417538" lon="12.070275072601374"><ele>1224.5</ele><time>2026-05-01T06:06:50Z</time></trkpt><trkpt lat="45.968160158937906" lon="12.07036411128063"><ele>1227.0</ele><time>2026-05-01T06:06:51Z</time></trkpt><trkpt lat="45.96817584283606" lon="12.070474844108702"><ele>1227.0</ele><time>2026-05-01T06:06:52Z</time></trkpt><trkpt lat="45.96818704620319" lon="12.070598280303212"><ele>1227.0</ele><time>2026-05-01T06:06:53Z</time></trkpt><trkpt lat="45.968211558648335" lon="12.070721469150092"><ele>1227.0</ele><time>2026-05-01T06:06:54Z</time></trkpt><trkpt lat="45.96824951069731" lon="12.070842612190505"><ele>1227.0</ele><time>2026-05-01T06:06:55Z</time></trkpt><trkpt lat="45.96830874685672" lon="12.070953445899118"><ele>1227.0</ele><time>2026-05-01T06:06:56Z</time></trkpt><trkpt lat="45.96838427274665" lon="12.07105484561262"><ele>1223.5</ele><time>2026-05-01T06:06:57Z</time></trkpt><trkpt lat="45.96845693231771" lon="12.071127248787445"><ele>1220.0</ele><time>2026-05-01T06:06:58Z</time></trkpt><trkpt lat="45.968535686553636" lon="12.07119439504308"><ele>1216.5</ele><time>2026-05-01T06:06:59Z</time></trkpt><trkpt lat="45.968603256824366" lon="12.071262913290736"><ele>1213.0</ele><time>2026-05-01T06:07:00Z</time></trkpt><trkpt lat="45.96867374833182" lon="12.071338357074797"><ele>1209.5</ele><time>2026-05-01T06:07:01Z</time></trkpt><trkpt lat="45.9687432512885" lon="12.071415691361436"><ele>1206.0</ele><time>2026-05-01T06:07:02Z</time></trkpt><trkpt lat="45.968803962403975" lon="12.071492104825833"><ele>1206.0</ele><time>2026-05-01T06:07:03Z</time></trkpt><trkpt lat="45.96885970775351" lon="12.071566438693143"><ele>1206.0</ele><time>2026-05-01T06:07:04Z</time></trkpt><trkpt lat="45.9689004072715" lon="12.071642410727142"><ele>1206.0</ele><time>2026-05-01T06:07:05Z</time></trkpt><trkpt lat="45.96892734152884" lon="12.07172546781411"><ele>1206.0</ele><time>2026-05-01T06:07:06Z</time></trkpt><trkpt lat="45.96891195914598" lon="12.07181362129001"><ele>1206.0</ele><time>2026-05-01T06:07:07Z</time></trkpt><trkpt lat="45.96888025454558" lon="12.071998872489148"><ele>1206.0</ele><time>2026-05-01T06:07:09Z</time></trkpt><trkpt lat="45.96886316493423" lon="12.072089312697399"><ele>1208.3333333333333</ele><time>2026-05-01T06:07:10Z</time></trkpt><trkpt lat="45.9688629162377" lon="12.072239390157849"><ele>1210.6666666666667</ele><time>2026-05-01T06:07:12Z</time></trkpt><trkpt lat="45.96888652797508" lon="12.07233494685218"><ele>1213.0</ele><time>2026-05-01T06:07:18Z</time></trkpt><trkpt lat="45.96890979001793" lon="12.07245046206305"><ele>1215.3333333333335</ele><time>2026-05-01T06:07:20Z</time></trkpt><trkpt lat="45.96892601192793" lon="12.072569558682769"><ele>1217.6666666666667</ele><time>2026-05-01T06:07:29Z</time></trkpt><trkpt lat="45.968949963890815" lon="12.072704286926301"><ele>1220.0</ele><time>2026-05-01T06:07:31Z</time></trkpt><trkpt lat="45.968984369159486" lon="12.072853785823574"><ele>1221.142857142857</ele><time>2026-05-01T06:07:33Z</time></trkpt><trkpt lat="45.969006771375476" lon="12.07294049608873"><ele>1222.2857142857142</ele><time>2026-05-01T06:07:34Z</time></trkpt><trkpt lat="45.96904586240865" lon="12.073014103803793"><ele>1223.4285714285713</ele><time>2026-05-01T06:07:35Z</time></trkpt><trkpt lat="45.96907800380576" lon="12.073103768707924"><ele>1224.5714285714284</ele><time>2026-05-01T06:07:36Z</time></trkpt><trkpt lat="45.969123418801736" lon="12.07318862181365"><ele>1225.7142857142858</ele><time>2026-05-01T06:07:37Z</time></trkpt><trkpt lat="45.96917736174428" lon="12.073265003248254"><ele>1226.8571428571427</ele><time>2026-05-01T06:07:38Z</time></trkpt><trkpt lat="45.96923625936719" lon="12.07334184240013"><ele>1228.0</ele><time>2026-05-01T06:07:39Z</time></trkpt><trkpt lat="45.96929102148809" lon="12.073420210462029"><ele>1232.2</ele><time>2026-05-01T06:07:39.999Z</time></trkpt><trkpt lat="45.969343102002654" lon="12.073492179712359"><ele>1236.4</ele><time>2026-05-01T06:07:40.999Z</time></trkpt><trkpt lat="45.969453332163916" lon="12.0735605380851"><ele>1240.6000000000001</ele><time>2026-05-01T06:07:42.999Z</time></trkpt><trkpt lat="45.96957886176183" lon="12.073451362755522"><ele>1244.8</ele><time>2026-05-01T06:07:44.999Z</time></trkpt><trkpt lat="45.96961969767484" lon="12.073366328399855"><ele>1249.0</ele><time>2026-05-01T06:07:45.999Z</time></trkpt><trkpt lat="45.96965663214617" lon="12.073290507590707"><ele>1249.0</ele><time>2026-05-01T06:07:46.999Z</time></trkpt><trkpt lat="45.96972402586961" lon="12.073245812324235"><ele>1249.0</ele><time>2026-05-01T06:07:48.999Z</time></trkpt><trkpt lat="45.969821712796595" lon="12.07328283590928"><ele>1249.0</ele><time>2026-05-01T06:07:50.999Z</time></trkpt><trkpt lat="45.969879903944864" lon="12.073334423419853"><ele>1249.0</ele><time>2026-05-01T06:07:51.999Z</time></trkpt><trkpt lat="45.96994897788817" lon="12.073429798374388"><ele>1249.0</ele><time>2026-05-01T06:07:53.999Z</time></trkpt><trkpt lat="45.96999764051897" lon="12.073516562392088"><ele>1249.0</ele><time>2026-05-01T06:07:55.999Z</time></trkpt><trkpt lat="45.97004922573447" lon="12.073600874198112"><ele>1248.5</ele><time>2026-05-01T06:07:57.999Z</time></trkpt><trkpt lat="45.97008885642418" lon="12.07368157794557"><ele>1248.0</ele><time>2026-05-01T06:07:59.999Z</time></trkpt><trkpt lat="45.970121859805246" lon="12.073814728211659"><ele>1247.5</ele><time>2026-05-01T06:08:02.999Z</time></trkpt><trkpt lat="45.970149197904156" lon="12.0739090447348"><ele>1247.0</ele><time>2026-05-01T06:08:04.999Z</time></trkpt><trkpt lat="45.97016296778705" lon="12.074052165293825"><ele>1246.5</ele><time>2026-05-01T06:08:06.999Z</time></trkpt><trkpt lat="45.97016388058059" lon="12.07417689630138"><ele>1246.0</ele><time>2026-05-01T06:08:08.999Z</time></trkpt><trkpt lat="45.97019911662421" lon="12.07409443694523"><ele>1246.75</ele><time>2026-05-01T06:08:20Z</time></trkpt><trkpt lat="45.97014486231294" lon="12.073937144117117"><ele>1247.5</ele><time>2026-05-01T06:08:22Z</time></trkpt><trkpt lat="45.970107794718395" lon="12.073767115447804"><ele>1248.25</ele><time>2026-05-01T06:08:24Z</time></trkpt><trkpt lat="45.970066227211326" lon="12.073625698737692"><ele>1249.0</ele><time>2026-05-01T06:08:26Z</time></trkpt><trkpt lat="45.970001161614235" lon="12.073516728707718"><ele>1249.0</ele><time>2026-05-01T06:08:28Z</time></trkpt><trkpt lat="45.96992027742947" lon="12.07344944554427"><ele>1249.0</ele><time>2026-05-01T06:08:30Z</time></trkpt><trkpt lat="45.96984560153273" lon="12.073314684628189"><ele>1249.0</ele><time>2026-05-01T06:08:32Z</time></trkpt><trkpt lat="45.9697494077135" lon="12.073230604818177"><ele>1249.0</ele><time>2026-05-01T06:08:34Z</time></trkpt><trkpt lat="45.96965443102421" lon="12.07327171092917"><ele>1249.0</ele><time>2026-05-01T06:08:36Z</time></trkpt><trkpt lat="45.96956720021134" lon="12.073396601855121"><ele>1248.9999999999998</ele><time>2026-05-01T06:08:38Z</time></trkpt><trkpt lat="45.96952044641306" lon="12.073476410915113"><ele>1249.0</ele><time>2026-05-01T06:08:39Z</time></trkpt><trkpt lat="45.96946387000772" lon="12.073541796882104"><ele>1249.0</ele><time>2026-05-01T06:08:40Z</time></trkpt><trkpt lat="45.96939379295289" lon="12.073486096870079"><ele>1249.0</ele><time>2026-05-01T06:08:42Z</time></trkpt><trkpt lat="45.969332361094494" lon="12.073442072539013"><ele>1249.0</ele><time>2026-05-01T06:08:43Z</time></trkpt><trkpt lat="45.9692780840015" lon="12.073381693110266"><ele>1248.9999999999998</ele><time>2026-05-01T06:08:44Z</time></trkpt><trkpt lat="45.96923100214187" lon="12.073321201130867"><ele>1249.0</ele><time>2026-05-01T06:08:45Z</time></trkpt><trkpt lat="45.969182787588224" lon="12.07325449389924"><ele>1244.8</ele><time>2026-05-01T06:08:46Z</time></trkpt><trkpt lat="45.96913471276045" lon="12.073168806428402"><ele>1240.6000000000001</ele><time>2026-05-01T06:08:47Z</time></trkpt><trkpt lat="45.96908773593691" lon="12.073090293382263"><ele>1236.4</ele><time>2026-05-01T06:08:48Z</time></trkpt><trkpt lat="45.969052674121606" lon="12.072987510373238"><ele>1232.2</ele><time>2026-05-01T06:08:49Z</time></trkpt><trkpt lat="45.96900414882156" lon="12.07280687481202"><ele>1228.0</ele><time>2026-05-01T06:08:51Z</time></trkpt><trkpt lat="45.96898095382659" lon="12.072669869595952"><ele>1228.0</ele><time>2026-05-01T06:08:53Z</time></trkpt><trkpt lat="45.96896383191488" lon="12.072578865937935"><ele>1228.0</ele><time>2026-05-01T06:08:55Z</time></trkpt><trkpt lat="45.968991396938314" lon="12.07273741086533"><ele>1228.0</ele><time>2026-05-01T06:09:02Z</time></trkpt><trkpt lat="45.96898263304324" lon="12.072855024439178"><ele>1228.0</ele><time>2026-05-01T06:09:03Z</time></trkpt><trkpt lat="45.96898375667663" lon="12.072977770255081"><ele>1228.0</ele><time>2026-05-01T06:09:04Z</time></trkpt><trkpt lat="45.968983596451075" lon="12.0730901226277"><ele>1228.0</ele><time>2026-05-01T06:09:05Z</time></trkpt><trkpt lat="45.96899016760738" lon="12.07319287701586"><ele>1230.0</ele><time>2026-05-01T06:09:06Z</time></trkpt><trkpt lat="45.96898064866324" lon="12.073354245810744"><ele>1232.0</ele><time>2026-05-01T06:09:08Z</time></trkpt><trkpt lat="45.96896744096406" lon="12.073480945771776"><ele>1234.0</ele><time>2026-05-01T06:09:10Z</time></trkpt><trkpt lat="45.96893812783962" lon="12.073607290758776"><ele>1236.0</ele><time>2026-05-01T06:09:12Z</time></trkpt><trkpt lat="45.968885895631004" lon="12.073722413026147"><ele>1238.0</ele><time>2026-05-01T06:09:14Z</time></trkpt><trkpt lat="45.96882804958661" lon="12.073805973866932"><ele>1238.0</ele><time>2026-05-01T06:09:16Z</time></trkpt><trkpt lat="45.96878756936725" lon="12.073884106755276"><ele>1238.0</ele><time>2026-05-01T06:09:18Z</time></trkpt><trkpt lat="45.96878686743218" lon="12.073981028476636"><ele>1238.0</ele><time>2026-05-01T06:09:21Z</time></trkpt><trkpt lat="45.968751492726696" lon="12.074077543274138"><ele>1238.0</ele><time>2026-05-01T06:10:22Z</time></trkpt><trkpt lat="45.968782464043834" lon="12.07399053942646"><ele>1238.0</ele><time>2026-05-01T06:11:41Z</time></trkpt><trkpt lat="45.9687785604617" lon="12.073889488038887"><ele>1238.0</ele><time>2026-05-01T06:11:48Z</time></trkpt><trkpt lat="45.96878109775021" lon="12.073994980776371"><ele>1238.0</ele><time>2026-05-01T06:13:44Z</time></trkpt><trkpt lat="45.96882433169146" lon="12.073855753999272"><ele>1238.0</ele><time>2026-05-01T06:14:14.999Z</time></trkpt><trkpt lat="45.968886986417665" lon="12.073771264415303"><ele>1238.0</ele><time>2026-05-01T06:14:17Z</time></trkpt><trkpt lat="45.96894406717826" lon="12.073626592766562"><ele>1238.0</ele><time>2026-05-01T06:14:19Z</time></trkpt><trkpt lat="45.968963974198296" lon="12.073458032693782"><ele>1238.0</ele><time>2026-05-01T06:14:21Z</time></trkpt><trkpt lat="45.96897508022" lon="12.07336750813953"><ele>1238.0</ele><time>2026-05-01T06:14:22Z</time></trkpt><trkpt lat="45.9689811570998" lon="12.073248988028684"><ele>1236.5714285714284</ele><time>2026-05-01T06:14:23Z</time></trkpt><trkpt lat="45.96898609528909" lon="12.07314422376293"><ele>1235.142857142857</ele><time>2026-05-01T06:14:24Z</time></trkpt><trkpt lat="45.96898611507222" lon="12.073033981144388"><ele>1233.7142857142858</ele><time>2026-05-01T06:14:25Z</time></trkpt><trkpt lat="45.968972535637235" lon="12.072931521214121"><ele>1232.2857142857142</ele><time>2026-05-01T06:14:26Z</time></trkpt><trkpt lat="45.968968599199194" lon="12.07283256462617"><ele>1230.857142857143</ele><time>2026-05-01T06:14:27Z</time></trkpt><trkpt lat="45.96895947635309" lon="12.07272732758969"><ele>1229.4285714285713</ele><time>2026-05-01T06:14:28Z</time></trkpt><trkpt lat="45.96895229585221" lon="12.072624463356856"><ele>1228.0</ele><time>2026-05-01T06:14:29Z</time></trkpt><trkpt lat="45.96894301944037" lon="12.072055237378992"><ele>1226.4</ele><time>2026-05-01T06:14:34.156Z</time></trkpt><trkpt lat="45.9689629264604" lon="12.071894807752289"><ele>1224.8</ele><time>2026-05-01T06:14:36Z</time></trkpt><trkpt lat="45.96894155260731" lon="12.071720212709225"><ele>1223.2</ele><time>2026-05-01T06:14:38Z</time></trkpt><trkpt lat="45.96891368277927" lon="12.071633627649463"><ele>1221.6</ele><time>2026-05-01T06:14:39Z</time></trkpt><trkpt lat="45.9688566858377" lon="12.071562465291537"><ele>1220.0</ele><time>2026-05-01T06:14:40Z</time></trkpt><trkpt lat="45.968800275629356" lon="12.07148786635331"><ele>1217.6666666666667</ele><time>2026-05-01T06:14:41Z</time></trkpt><trkpt lat="45.96873150211383" lon="12.071393989037789"><ele>1215.3333333333335</ele><time>2026-05-01T06:14:42Z</time></trkpt><trkpt lat="45.96866134558429" lon="12.071301369007744"><ele>1213.0</ele><time>2026-05-01T06:14:43Z</time></trkpt><trkpt lat="45.96859852322002" lon="12.071239426743306"><ele>1210.6666666666667</ele><time>2026-05-01T06:14:44Z</time></trkpt><trkpt lat="45.968524888200655" lon="12.071171030413426"><ele>1208.3333333333333</ele><time>2026-05-01T06:14:45Z</time></trkpt><trkpt lat="45.96846780744006" lon="12.07111068071059"><ele>1206.0</ele><time>2026-05-01T06:14:46Z</time></trkpt><trkpt lat="45.968400082243924" lon="12.071040480690149"><ele>1208.6666666666667</ele><time>2026-05-01T06:14:47Z</time></trkpt><trkpt lat="45.968344043181276" lon="12.070966938566809"><ele>1211.3333333333333</ele><time>2026-05-01T06:14:48Z</time></trkpt><trkpt lat="45.968294365144644" lon="12.070879159371989"><ele>1214.0</ele><time>2026-05-01T06:14:49Z</time></trkpt><trkpt lat="45.96824632205775" lon="12.070779939152244"><ele>1216.6666666666665</ele><time>2026-05-01T06:14:50Z</time></trkpt><trkpt lat="45.96822330348326" lon="12.070678055222476"><ele>1219.3333333333333</ele><time>2026-05-01T06:14:51Z</time></trkpt><trkpt lat="45.96820141676877" lon="12.070550783189612"><ele>1222.0</ele><time>2026-05-01T06:14:52Z</time></trkpt><trkpt lat="45.968182662340745" lon="12.070438245990964"><ele>1222.8333333333333</ele><time>2026-05-01T06:14:53Z</time></trkpt><trkpt lat="45.968196261582555" lon="12.070331718417183"><ele>1223.6666666666665</ele><time>2026-05-01T06:14:54Z</time></trkpt><trkpt lat="45.96815331415552" lon="12.070226278467356"><ele>1224.5</ele><time>2026-05-01T06:14:56Z</time></trkpt><trkpt lat="45.968114013319415" lon="12.070135957208167"><ele>1225.3333333333333</ele><time>2026-05-01T06:14:59Z</time></trkpt><trkpt lat="45.96800828801914" lon="12.070052908110426"><ele>1226.1666666666667</ele><time>2026-05-01T06:15:46Z</time></trkpt><trkpt lat="45.967947878861295" lon="12.069987749286511"><ele>1227.0</ele><time>2026-05-01T06:15:47Z</time></trkpt><trkpt lat="45.96788683157551" lon="12.069910799651419"><ele>1226.6</ele><time>2026-05-01T06:15:48Z</time></trkpt><trkpt lat="45.96782916437519" lon="12.069808488159406"><ele>1226.2</ele><time>2026-05-01T06:15:49Z</time></trkpt><trkpt lat="45.96775326496691" lon="12.069727891882643"><ele>1225.8</ele><time>2026-05-01T06:15:50Z</time></trkpt><trkpt lat="45.96767609643532" lon="12.069634961650815"><ele>1225.4</ele><time>2026-05-01T06:15:51Z</time></trkpt><trkpt lat="45.967586588372875" lon="12.069526552024245"><ele>1225.0</ele><time>2026-05-01T06:15:52Z</time></trkpt><trkpt lat="45.96747492209727" lon="12.069413179701145"><ele>1225.0</ele><time>2026-05-01T06:15:53Z</time></trkpt><trkpt lat="45.967396465308035" lon="12.069292036930607"><ele>1225.0</ele><time>2026-05-01T06:15:54Z</time></trkpt><trkpt lat="45.967293816205206" lon="12.069192347001371"><ele>1225.0</ele><time>2026-05-01T06:15:55Z</time></trkpt><trkpt lat="45.967205402925885" lon="12.069080172012036"><ele>1225.0</ele><time>2026-05-01T06:15:56Z</time></trkpt><trkpt lat="45.967128849950605" lon="12.068962590295595"><ele>1223.25</ele><time>2026-05-01T06:15:57Z</time></trkpt><trkpt lat="45.96706879867908" lon="12.068822120403544"><ele>1221.5</ele><time>2026-05-01T06:15:58Z</time></trkpt><trkpt lat="45.96699453807777" lon="12.068697768134626"><ele>1219.75</ele><time>2026-05-01T06:15:59Z</time></trkpt><trkpt lat="45.96690739963491" lon="12.0685917409799"><ele>1218.0</ele><time>2026-05-01T06:16:00Z</time></trkpt><trkpt lat="45.96684073098483" lon="12.06846055623118"><ele>1218.0</ele><time>2026-05-01T06:16:01Z</time></trkpt><trkpt lat="45.966773544679576" lon="12.068349939501154"><ele>1218.0</ele><time>2026-05-01T06:16:02Z</time></trkpt><trkpt lat="45.966702521823414" lon="12.068252509351987"><ele>1218.0</ele><time>2026-05-01T06:16:03Z</time></trkpt><trkpt lat="45.96665634197976" lon="12.068143441402691"><ele>1218.0</ele><time>2026-05-01T06:16:04Z</time></trkpt><trkpt lat="45.966617764845324" lon="12.068021791777971"><ele>1218.0</ele><time>2026-05-01T06:16:04.999Z</time></trkpt><trkpt lat="45.96661547281279" lon="12.067881857027213"><ele>1219.6666666666667</ele><time>2026-05-01T06:16:05.999Z</time></trkpt><trkpt lat="45.96660447786885" lon="12.067736137296713"><ele>1221.3333333333333</ele><time>2026-05-01T06:16:06.999Z</time></trkpt><trkpt lat="45.96660552478017" lon="12.06760528860919"><ele>1223.0</ele><time>2026-05-01T06:16:07.999Z</time></trkpt><trkpt lat="45.9665806718481" lon="12.06749734560515"><ele>1224.6666666666665</ele><time>2026-05-01T06:16:08.999Z</time></trkpt><trkpt lat="45.96656822745118" lon="12.067391482531239"><ele>1226.3333333333333</ele><time>2026-05-01T06:16:09.999Z</time></trkpt><trkpt lat="45.966550513001074" lon="12.067284746543136"><ele>1228.0</ele><time>2026-05-01T06:16:10.999Z</time></trkpt><trkpt lat="45.96651011199521" lon="12.067193234888085"><ele>1228.0</ele><time>2026-05-01T06:16:11.999Z</time></trkpt><trkpt lat="45.966459598748195" lon="12.067083760163777"><ele>1228.0</ele><time>2026-05-01T06:16:12.999Z</time></trkpt><trkpt lat="45.966396793387915" lon="12.066947244214589"><ele>1228.0</ele><time>2026-05-01T06:16:13.999Z</time></trkpt><trkpt lat="45.966335399080435" lon="12.066795757794834"><ele>1228.0</ele><time>2026-05-01T06:16:14.999Z</time></trkpt><trkpt lat="45.96625865401745" lon="12.066644499873332"><ele>1227.0</ele><time>2026-05-01T06:16:15.999Z</time></trkpt><trkpt lat="45.96621256072724" lon="12.06652599256771"><ele>1226.0</ele><time>2026-05-01T06:16:16.999Z</time></trkpt><trkpt lat="45.966166607414145" lon="12.066402227107785"><ele>1225.0</ele><time>2026-05-01T06:16:17.999Z</time></trkpt><trkpt lat="45.966130545178046" lon="12.066293454598927"><ele>1224.0</ele><time>2026-05-01T06:16:18.999Z</time></trkpt><trkpt lat="45.96610496158519" lon="12.066201921720106"><ele>1223.0</ele><time>2026-05-01T06:16:19.999Z</time></trkpt><trkpt lat="45.966067261382435" lon="12.066033359947616"><ele>1223.0</ele><time>2026-05-01T06:16:21.999Z</time></trkpt><trkpt lat="45.96605063349551" lon="12.065915328023992"><ele>1223.0</ele><time>2026-05-01T06:16:22.999Z</time></trkpt><trkpt lat="45.96604326130356" lon="12.065804303095733"><ele>1223.0</ele><time>2026-05-01T06:16:23.999Z</time></trkpt><trkpt lat="45.96603169784867" lon="12.065692689994021"><ele>1223.0</ele><time>2026-05-01T06:16:24.999Z</time></trkpt><trkpt lat="45.96601718091998" lon="12.065581272217004"><ele>1223.0</ele><time>2026-05-01T06:16:25.999Z</time></trkpt><trkpt lat="45.965988707815974" lon="12.06546999498767"><ele>1223.0</ele><time>2026-05-01T06:16:26.999Z</time></trkpt><trkpt lat="45.965944169321695" lon="12.065362590742366"><ele>1222.8333333333335</ele><time>2026-05-01T06:16:27.999Z</time></trkpt><trkpt lat="45.965884412608006" lon="12.065273951177367"><ele>1222.6666666666667</ele><time>2026-05-01T06:16:28.999Z</time></trkpt><trkpt lat="45.96583755903509" lon="12.06519861807297"><ele>1222.5</ele><time>2026-05-01T06:16:29.999Z</time></trkpt><trkpt lat="45.9658402414477" lon="12.065098732862849"><ele>1222.3333333333333</ele><time>2026-05-01T06:16:30.999Z</time></trkpt><trkpt lat="45.96586058396547" lon="12.06499759837489"><ele>1222.1666666666665</ele><time>2026-05-01T06:16:31.999Z</time></trkpt><trkpt lat="45.96587251955361" lon="12.064876643798577"><ele>1222.0</ele><time>2026-05-01T06:16:32.999Z</time></trkpt><trkpt lat="45.96590392801866" lon="12.064766714491665"><ele>1223.0</ele><time>2026-05-01T06:16:33.999Z</time></trkpt><trkpt lat="45.96592788582571" lon="12.064638682318188"><ele>1224.0</ele><time>2026-05-01T06:16:34.999Z</time></trkpt><trkpt lat="45.9659286656701" lon="12.064489670006383"><ele>1225.0</ele><time>2026-05-01T06:16:35.999Z</time></trkpt><trkpt lat="45.96593943334406" lon="12.064381650491535"><ele>1226.0</ele><time>2026-05-01T06:16:36.999Z</time></trkpt><trkpt lat="45.96592701359839" lon="12.064244883770353"><ele>1227.0</ele><time>2026-05-01T06:16:37.999Z</time></trkpt><trkpt lat="45.9659190092429" lon="12.064135877180137"><ele>1228.0</ele><time>2026-05-01T06:16:38.999Z</time></trkpt><trkpt lat="45.965908326881774" lon="12.064028097366329"><ele>1230.0</ele><time>2026-05-01T06:16:39.999Z</time></trkpt><trkpt lat="45.96590002843856" lon="12.063920541088578"><ele>1232.0</ele><time>2026-05-01T06:16:40.999Z</time></trkpt><trkpt lat="45.96589282911865" lon="12.063826661781572"><ele>1234.0</ele><time>2026-05-01T06:16:41.999Z</time></trkpt><trkpt lat="45.965879206996824" lon="12.063716957195911"><ele>1236.0</ele><time>2026-05-01T06:16:43.999Z</time></trkpt><trkpt lat="45.965805985168146" lon="12.063681187443207"><ele>1238.0</ele><time>2026-05-01T06:16:46Z</time></trkpt><trkpt lat="45.96570522286428" lon="12.063749456906972"><ele>1240.0</ele><time>2026-05-01T06:16:48Z</time></trkpt><trkpt lat="45.96562115483513" lon="12.063793664346255"><ele>1241.5</ele><time>2026-05-01T06:16:49Z</time></trkpt><trkpt lat="45.965535075804716" lon="12.063867800979299"><ele>1243.0</ele><time>2026-05-01T06:16:50Z</time></trkpt><trkpt lat="45.965439744366904" lon="12.063885650914992"><ele>1244.5</ele><time>2026-05-01T06:16:51Z</time></trkpt><trkpt lat="45.96535435412939" lon="12.063904502737916"><ele>1246.0</ele><time>2026-05-01T06:16:52Z</time></trkpt><trkpt lat="45.965286241124105" lon="12.06390344247449"><ele>1247.5</ele><time>2026-05-01T06:16:53Z</time></trkpt><trkpt lat="45.96521895221714" lon="12.063811451953098"><ele>1249.0</ele><time>2026-05-01T06:16:55Z</time></trkpt><trkpt lat="45.96517414964968" lon="12.0636598251922"><ele>1249.0</ele><time>2026-05-01T06:16:57Z</time></trkpt><trkpt lat="45.96513580869169" lon="12.063547488382294"><ele>1249.0</ele><time>2026-05-01T06:16:58Z</time></trkpt><trkpt lat="45.965093092057074" lon="12.063460227575566"><ele>1249.0</ele><time>2026-05-01T06:16:59Z</time></trkpt><trkpt lat="45.965032623522504" lon="12.06338528238328"><ele>1249.0</ele><time>2026-05-01T06:17:00Z</time></trkpt><trkpt lat="45.964965145186305" lon="12.063325868471901"><ele>1249.0</ele><time>2026-05-01T06:17:01Z</time></trkpt><trkpt lat="45.96489990607173" lon="12.063258082419555"><ele>1249.0</ele><time>2026-05-01T06:17:02Z</time></trkpt><trkpt lat="45.96481367539396" lon="12.063199506169164"><ele>1244.8333333333333</ele><time>2026-05-01T06:17:03Z</time></trkpt><trkpt lat="45.96473880207495" lon="12.063125386311066"><ele>1240.6666666666665</ele><time>2026-05-01T06:17:04Z</time></trkpt><trkpt lat="45.96465351307647" lon="12.063056976987237"><ele>1236.5</ele><time>2026-05-01T06:17:05Z</time></trkpt><trkpt lat="45.9645739392101" lon="12.06301730964391"><ele>1232.3333333333333</ele><time>2026-05-01T06:17:06Z</time></trkpt><trkpt lat="45.96451335611315" lon="12.062954183831092"><ele>1228.1666666666667</ele><time>2026-05-01T06:17:07Z</time></trkpt><trkpt lat="45.96443728831903" lon="12.06290450741285"><ele>1224.0</ele><time>2026-05-01T06:17:08Z</time></trkpt><trkpt lat="45.96436537928385" lon="12.062825881565773"><ele>1224.0</ele><time>2026-05-01T06:17:09Z</time></trkpt><trkpt lat="45.96428324269398" lon="12.06276000608986"><ele>1224.0</ele><time>2026-05-01T06:17:10Z</time></trkpt><trkpt lat="45.96418802008345" lon="12.062725262269446"><ele>1224.0</ele><time>2026-05-01T06:17:11Z</time></trkpt><trkpt lat="45.964106715756856" lon="12.062656536134648"><ele>1224.0</ele><time>2026-05-01T06:17:12Z</time></trkpt><trkpt lat="45.9640344896582" lon="12.062598790164342"><ele>1224.0</ele><time>2026-05-01T06:17:13Z</time></trkpt><trkpt lat="45.96394890488412" lon="12.062563680875341"><ele>1221.4</ele><time>2026-05-01T06:17:14Z</time></trkpt><trkpt lat="45.96387168704371" lon="12.062490754335213"><ele>1218.8000000000002</ele><time>2026-05-01T06:17:15Z</time></trkpt><trkpt lat="45.963817094295486" lon="12.06242951698206"><ele>1216.1999999999998</ele><time>2026-05-01T06:17:16Z</time></trkpt><trkpt lat="45.96372764479231" lon="12.062342706311659"><ele>1213.6</ele><time>2026-05-01T06:17:18Z</time></trkpt><trkpt lat="45.96360734824465" lon="12.062300328946762"><ele>1211.0</ele><time>2026-05-01T06:17:20Z</time></trkpt><trkpt lat="45.96352964935696" lon="12.062287820561568"><ele>1211.0</ele><time>2026-05-01T06:17:21Z</time></trkpt><trkpt lat="45.96342964503935" lon="12.06230198632707"><ele>1211.0</ele><time>2026-05-01T06:17:22Z</time></trkpt><trkpt lat="45.963329888965355" lon="12.062294155288134"><ele>1211.0</ele><time>2026-05-01T06:17:23Z</time></trkpt><trkpt lat="45.963242544367795" lon="12.06225631227851"><ele>1211.0</ele><time>2026-05-01T06:17:24Z</time></trkpt><trkpt lat="45.96317437717268" lon="12.062187481912634"><ele>1211.0</ele><time>2026-05-01T06:17:25Z</time></trkpt><trkpt lat="45.96309569058811" lon="12.062124462756753"><ele>1213.3999999999999</ele><time>2026-05-01T06:17:26Z</time></trkpt><trkpt lat="45.96302443650692" lon="12.062036120688944"><ele>1215.8</ele><time>2026-05-01T06:17:27Z</time></trkpt><trkpt lat="45.96295428387713" lon="12.061967522168604"><ele>1218.1999999999998</ele><time>2026-05-01T06:17:28Z</time></trkpt><trkpt lat="45.96287678222884" lon="12.061893465531824"><ele>1220.6</ele><time>2026-05-01T06:17:29Z</time></trkpt><trkpt lat="45.962787530277346" lon="12.061816589246122"><ele>1223.0</ele><time>2026-05-01T06:17:30Z</time></trkpt><trkpt lat="45.96269888253414" lon="12.061749489606193"><ele>1223.0</ele><time>2026-05-01T06:17:31Z</time></trkpt><trkpt lat="45.962609766049574" lon="12.061690857774355"><ele>1223.0</ele><time>2026-05-01T06:17:32Z</time></trkpt><trkpt lat="45.962520104505415" lon="12.061647212585797"><ele>1223.0</ele><time>2026-05-01T06:17:33Z</time></trkpt><trkpt lat="45.962443248759314" lon="12.061627110074172"><ele>1223.0</ele><time>2026-05-01T06:17:34Z</time></trkpt><trkpt lat="45.96239227967209" lon="12.06155715792742"><ele>1223.0</ele><time>2026-05-01T06:17:35Z</time></trkpt><trkpt lat="45.96231786855212" lon="12.061443230884695"><ele>1223.3333333333335</ele><time>2026-05-01T06:17:37Z</time></trkpt><trkpt lat="45.96227442920245" lon="12.06136541176684"><ele>1223.6666666666667</ele><time>2026-05-01T06:17:38Z</time></trkpt><trkpt lat="45.96223730557876" lon="12.061271080584293"><ele>1224.0</ele><time>2026-05-01T06:17:39Z</time></trkpt><trkpt lat="45.962189891001266" lon="12.061202521050856"><ele>1224.3333333333333</ele><time>2026-05-01T06:17:40Z</time></trkpt><trkpt lat="45.9620783815994" lon="12.061058645115907"><ele>1224.6666666666665</ele><time>2026-05-01T06:17:42Z</time></trkpt><trkpt lat="45.96202210329178" lon="12.060962912743303"><ele>1225.0</ele><time>2026-05-01T06:17:43Z</time></trkpt><trkpt lat="45.96196177367539" lon="12.060883621885536"><ele>1225.0</ele><time>2026-05-01T06:17:44Z</time></trkpt><trkpt lat="45.96189521865034" lon="12.060803549138368"><ele>1225.0</ele><time>2026-05-01T06:17:45Z</time></trkpt><trkpt lat="45.9618286388793" lon="12.06074182724606"><ele>1225.0</ele><time>2026-05-01T06:17:46Z</time></trkpt><trkpt lat="45.96175811381083" lon="12.060678595370296"><ele>1225.0</ele><time>2026-05-01T06:17:47Z</time></trkpt><trkpt lat="45.96169019068857" lon="12.06062098930388"><ele>1225.0</ele><time>2026-05-01T06:17:48Z</time></trkpt><trkpt lat="45.96161689782278" lon="12.060570272594546"><ele>1225.0</ele><time>2026-05-01T06:17:49Z</time></trkpt><trkpt lat="45.96153721952356" lon="12.060523138343022"><ele>1225.6</ele><time>2026-05-01T06:17:50Z</time></trkpt><trkpt lat="45.96145016428116" lon="12.060487500122646"><ele>1226.2</ele><time>2026-05-01T06:17:51Z</time></trkpt><trkpt lat="45.961352702564085" lon="12.060452368506951"><ele>1226.8</ele><time>2026-05-01T06:17:52Z</time></trkpt><trkpt lat="45.96125551928296" lon="12.060399442242172"><ele>1227.4</ele><time>2026-05-01T06:17:53Z</time></trkpt><trkpt lat="45.961158575654245" lon="12.060345453056115"><ele>1228.0</ele><time>2026-05-01T06:17:54Z</time></trkpt><trkpt lat="45.961069110612925" lon="12.06028517424614"><ele>1228.0</ele><time>2026-05-01T06:17:55Z</time></trkpt><trkpt lat="45.960992150542346" lon="12.060224289567905"><ele>1228.0</ele><time>2026-05-01T06:17:56Z</time></trkpt><trkpt lat="45.96091377017661" lon="12.060158554280648"><ele>1228.0</ele><time>2026-05-01T06:17:57Z</time></trkpt><trkpt lat="45.960837596538724" lon="12.060081904783301"><ele>1228.0</ele><time>2026-05-01T06:17:58Z</time></trkpt><trkpt lat="45.96075068461508" lon="12.060001698009408"><ele>1228.0</ele><time>2026-05-01T06:17:59Z</time></trkpt><trkpt lat="45.96065848092217" lon="12.059926620185037"><ele>1228.2</ele><time>2026-05-01T06:18:00Z</time></trkpt><trkpt lat="45.96055305432859" lon="12.059870673664697"><ele>1228.4</ele><time>2026-05-01T06:18:01Z</time></trkpt><trkpt lat="45.96045607191444" lon="12.059815854793225"><ele>1228.6000000000001</ele><time>2026-05-01T06:18:02Z</time></trkpt><trkpt lat="45.96038223533325" lon="12.05975798442106"><ele>1228.8</ele><time>2026-05-01T06:18:03Z</time></trkpt><trkpt lat="45.9603192291346" lon="12.059685774402984"><ele>1229.0</ele><time>2026-05-01T06:18:03.999Z</time></trkpt><trkpt lat="45.96025390208046" lon="12.059606447568601"><ele>1229.0</ele><time>2026-05-01T06:18:04.999Z</time></trkpt><trkpt lat="45.96019682573797" lon="12.059499647508991"><ele>1229.0</ele><time>2026-05-01T06:18:05.999Z</time></trkpt><trkpt lat="45.96014200055512" lon="12.059393284371653"><ele>1229.0</ele><time>2026-05-01T06:18:06.999Z</time></trkpt><trkpt lat="45.960090574829366" lon="12.059300335899367"><ele>1229.0</ele><time>2026-05-01T06:18:07.999Z</time></trkpt><trkpt lat="45.96003236396997" lon="12.059223739061459"><ele>1229.0</ele><time>2026-05-01T06:18:08.999Z</time></trkpt><trkpt lat="45.959968493247295" lon="12.059166666497994"><ele>1229.0</ele><time>2026-05-01T06:18:09.999Z</time></trkpt><trkpt lat="45.95990496521718" lon="12.059117744773442"><ele>1229.7142857142858</ele><time>2026-05-01T06:18:10.999Z</time></trkpt><trkpt lat="45.959842163603376" lon="12.05909829058477"><ele>1230.4285714285716</ele><time>2026-05-01T06:18:11.999Z</time></trkpt><trkpt lat="45.959776122180415" lon="12.059095890972253"><ele>1231.1428571428573</ele><time>2026-05-01T06:18:12.999Z</time></trkpt><trkpt lat="45.9597020212159" lon="12.059095789066125"><ele>1231.857142857143</ele><time>2026-05-01T06:18:13.999Z</time></trkpt><trkpt lat="45.95962972919632" lon="12.059106510446586"><ele>1232.5714285714284</ele><time>2026-05-01T06:18:14.999Z</time></trkpt><trkpt lat="45.95955348165097" lon="12.05912402236219"><ele>1233.2857142857144</ele><time>2026-05-01T06:18:15.999Z</time></trkpt><trkpt lat="45.95947556290298" lon="12.05914579696411"><ele>1234.0</ele><time>2026-05-01T06:18:16.999Z</time></trkpt><trkpt lat="45.959412233120545" lon="12.059137564642262"><ele>1237.0</ele><time>2026-05-01T06:18:17.999Z</time></trkpt><trkpt lat="45.95930987746037" lon="12.059135659686156"><ele>1240.0</ele><time>2026-05-01T06:18:19.999Z</time></trkpt><trkpt lat="45.9592594127607" lon="12.059195866010292"><ele>1243.0</ele><time>2026-05-01T06:18:22.999Z</time></trkpt><trkpt lat="45.95920242479919" lon="12.059329876260671"><ele>1246.0</ele><time>2026-05-01T06:23:09Z</time></trkpt><trkpt lat="45.95916310068286" lon="12.059404439699843"><ele>1249.0</ele><time>2026-05-01T06:23:10Z</time></trkpt><trkpt lat="45.95911373668245" lon="12.059526014044025"><ele>1252.0</ele><time>2026-05-01T06:23:12Z</time></trkpt><trkpt lat="45.95913999452182" lon="12.059680691706696"><ele>1252.0</ele><time>2026-05-01T06:23:14Z</time></trkpt><trkpt lat="45.95916804922283" lon="12.059768111875947"><ele>1252.0</ele><time>2026-05-01T06:23:15Z</time></trkpt><trkpt lat="45.95920099685715" lon="12.059854252005515"><ele>1252.0</ele><time>2026-05-01T06:23:16Z</time></trkpt><trkpt lat="45.95922311261986" lon="12.059957265537031"><ele>1252.0</ele><time>2026-05-01T06:23:17Z</time></trkpt><trkpt lat="45.95924530190454" lon="12.060054724060036"><ele>1252.0</ele><time>2026-05-01T06:23:18Z</time></trkpt><trkpt lat="45.959280820801524" lon="12.06021903034308"><ele>1252.0</ele><time>2026-05-01T06:23:20Z</time></trkpt><trkpt lat="45.95922307318052" lon="12.060284304332148"><ele>1251.3333333333333</ele><time>2026-05-01T06:23:23Z</time></trkpt><trkpt lat="45.95918317085719" lon="12.060214046258997"><ele>1250.6666666666665</ele><time>2026-05-01T06:23:29Z</time></trkpt><trkpt lat="45.95913381840649" lon="12.060100478917816"><ele>1250.0</ele><time>2026-05-01T06:23:31Z</time></trkpt><trkpt lat="45.959075237834675" lon="12.059970835311333"><ele>1249.3333333333333</ele><time>2026-05-01T06:23:33Z</time></trkpt><trkpt lat="45.95903731394146" lon="12.059889675627922"><ele>1248.6666666666667</ele><time>2026-05-01T06:23:34Z</time></trkpt><trkpt lat="45.9589709472665" lon="12.059872633449407"><ele>1248.0</ele><time>2026-05-01T06:23:35Z</time></trkpt><trkpt lat="45.958863676053376" lon="12.059839018781169"><ele>1251.4</ele><time>2026-05-01T06:23:37Z</time></trkpt><trkpt lat="45.95879627979659" lon="12.05975524797393"><ele>1254.8</ele><time>2026-05-01T06:23:39Z</time></trkpt><trkpt lat="45.958704738241195" lon="12.059759313343086"><ele>1258.2</ele><time>2026-05-01T06:23:41Z</time></trkpt><trkpt lat="45.95860740837334" lon="12.059712595428854"><ele>1261.6</ele><time>2026-05-01T06:23:43Z</time></trkpt><trkpt lat="45.95853238670568" lon="12.059668103247"><ele>1265.0</ele><time>2026-05-01T06:23:45Z</time></trkpt><trkpt lat="45.958442129030324" lon="12.059667283994537"><ele>1266.0</ele><time>2026-05-01T06:23:46Z</time></trkpt><trkpt lat="45.95836741957533" lon="12.059667143249152"><ele>1267.0</ele><time>2026-05-01T06:23:47Z</time></trkpt><trkpt lat="45.95822702800945" lon="12.059651000053627"><ele>1268.0</ele><time>2026-05-01T06:23:49Z</time></trkpt><trkpt lat="45.958141644919934" lon="12.059643279172212"><ele>1269.0</ele><time>2026-05-01T06:23:50Z</time></trkpt><trkpt lat="45.95802800972016" lon="12.05965028674293"><ele>1270.0</ele><time>2026-05-01T06:23:51Z</time></trkpt><trkpt lat="45.95796828816846" lon="12.05962003635749"><ele>1270.0</ele><time>2026-05-01T06:23:52Z</time></trkpt><trkpt lat="45.95788428291015" lon="12.059647040534047"><ele>1270.0</ele><time>2026-05-01T06:23:53Z</time></trkpt><trkpt lat="45.95780671352782" lon="12.059644606345985"><ele>1270.0</ele><time>2026-05-01T06:23:54Z</time></trkpt><trkpt lat="45.957730071561635" lon="12.05967071300991"><ele>1270.0</ele><time>2026-05-01T06:23:55Z</time></trkpt><trkpt lat="45.957658954652985" lon="12.05967887962917"><ele>1270.0</ele><time>2026-05-01T06:23:56Z</time></trkpt><trkpt lat="45.95759238965702" lon="12.059657132643274"><ele>1270.0</ele><time>2026-05-01T06:23:57Z</time></trkpt><trkpt lat="45.95748568495362" lon="12.059608049616688"><ele>1264.6666666666665</ele><time>2026-05-01T06:23:59Z</time></trkpt><trkpt lat="45.95740221950646" lon="12.059492859574002"><ele>1259.3333333333333</ele><time>2026-05-01T06:24:01Z</time></trkpt><trkpt lat="45.95735256820953" lon="12.059425986746428"><ele>1254.0</ele><time>2026-05-01T06:24:02Z</time></trkpt><trkpt lat="45.95729735651105" lon="12.059369645730738"><ele>1248.6666666666667</ele><time>2026-05-01T06:24:03Z</time></trkpt><trkpt lat="45.95724369827691" lon="12.059275896748497"><ele>1243.3333333333335</ele><time>2026-05-01T06:24:04Z</time></trkpt><trkpt lat="45.957182011022994" lon="12.059226477638177"><ele>1238.0</ele><time>2026-05-01T06:24:05Z</time></trkpt><trkpt lat="45.95710695687929" lon="12.059126595443523"><ele>1246.5</ele><time>2026-05-01T06:24:07Z</time></trkpt><trkpt lat="45.95705900544966" lon="12.059064643389984"><ele>1255.0</ele><time>2026-05-01T06:24:08Z</time></trkpt><trkpt lat="45.95700013855235" lon="12.058998576363456"><ele>1263.5</ele><time>2026-05-01T06:24:10Z</time></trkpt><trkpt lat="45.95695299601448" lon="12.058919281686192"><ele>1272.0</ele><time>2026-05-01T06:24:11Z</time></trkpt><trkpt lat="45.95688009974608" lon="12.058911815207054"><ele>1280.5</ele><time>2026-05-01T06:24:12Z</time></trkpt><trkpt lat="45.956784677198186" lon="12.058909082491587"><ele>1289.0</ele><time>2026-05-01T06:24:13Z</time></trkpt><trkpt lat="45.956703212891696" lon="12.058916307506136"><ele>1283.8</ele><time>2026-05-01T06:24:14Z</time></trkpt><trkpt lat="45.95661496449313" lon="12.059041814382832"><ele>1278.6000000000001</ele><time>2026-05-01T06:24:17Z</time></trkpt><trkpt lat="45.95653868666595" lon="12.059082878339298"><ele>1273.4</ele><time>2026-05-01T06:24:18Z</time></trkpt><trkpt lat="45.95642837972613" lon="12.059113205136653"><ele>1268.2</ele><time>2026-05-01T06:24:19Z</time></trkpt><trkpt lat="45.95634464426495" lon="12.05911979656386"><ele>1263.0</ele><time>2026-05-01T06:24:20Z</time></trkpt><trkpt lat="45.956230220976195" lon="12.059142347641178"><ele>1254.6666666666667</ele><time>2026-05-01T06:24:21Z</time></trkpt><trkpt lat="45.95612712942552" lon="12.05918514128178"><ele>1246.3333333333333</ele><time>2026-05-01T06:24:22Z</time></trkpt><trkpt lat="45.95605633637071" lon="12.05920450947311"><ele>1238.0</ele><time>2026-05-01T06:24:23Z</time></trkpt><trkpt lat="45.95598986518908" lon="12.05919455594621"><ele>1229.6666666666665</ele><time>2026-05-01T06:24:24Z</time></trkpt><trkpt lat="45.95591429601721" lon="12.059183499097372"><ele>1221.3333333333333</ele><time>2026-05-01T06:24:25Z</time></trkpt><trkpt lat="45.95583476656578" lon="12.059153323539743"><ele>1213.0</ele><time>2026-05-01T06:24:26Z</time></trkpt><trkpt lat="45.95575272412958" lon="12.059130884400274"><ele>1211.3333333333333</ele><time>2026-05-01T06:24:27Z</time></trkpt><trkpt lat="45.95565290161453" lon="12.059133482653705"><ele>1209.6666666666665</ele><time>2026-05-01T06:24:28Z</time></trkpt><trkpt lat="45.955572343520465" lon="12.059144498467774"><ele>1208.0</ele><time>2026-05-01T06:24:29Z</time></trkpt><trkpt lat="45.9554975454846" lon="12.05917087486033"><ele>1206.3333333333333</ele><time>2026-05-01T06:24:30Z</time></trkpt><trkpt lat="45.955423594850565" lon="12.059209751820818"><ele>1204.6666666666667</ele><time>2026-05-01T06:24:31Z</time></trkpt><trkpt lat="45.95535277223057" lon="12.059255344286823"><ele>1203.0</ele><time>2026-05-01T06:24:32Z</time></trkpt><trkpt lat="45.95528779291567" lon="12.059301382602444"><ele>1203.0</ele><time>2026-05-01T06:24:33Z</time></trkpt><trkpt lat="45.955211875319165" lon="12.059351598081088"><ele>1203.0</ele><time>2026-05-01T06:24:35Z</time></trkpt><trkpt lat="45.95514427654263" lon="12.05935701221124"><ele>1203.0</ele><time>2026-05-01T06:24:36Z</time></trkpt><trkpt lat="45.95505189543361" lon="12.059330118969648"><ele>1203.0</ele><time>2026-05-01T06:24:38Z</time></trkpt><trkpt lat="45.95501455013245" lon="12.059217862780596"><ele>1203.0</ele><time>2026-05-01T06:24:39Z</time></trkpt><trkpt lat="45.95496032385322" lon="12.05915636999828"><ele>1203.0</ele><time>2026-05-01T06:24:40Z</time></trkpt><trkpt lat="45.95487251448955" lon="12.059122824857171"><ele>1211.0</ele><time>2026-05-01T06:24:40.999Z</time></trkpt><trkpt lat="45.954793866461245" lon="12.059047775578499"><ele>1219.0</ele><time>2026-05-01T06:24:41.999Z</time></trkpt><trkpt lat="45.95470883562838" lon="12.05899307372569"><ele>1227.0</ele><time>2026-05-01T06:24:42.999Z</time></trkpt><trkpt lat="45.9546215386295" lon="12.058914823407473"><ele>1235.0</ele><time>2026-05-01T06:24:44.999Z</time></trkpt><trkpt lat="45.954574279686504" lon="12.058849178245222"><ele>1243.0</ele><time>2026-05-01T06:24:45.999Z</time></trkpt><trkpt lat="45.95447655629558" lon="12.058751605478763"><ele>1243.0</ele><time>2026-05-01T06:24:47.999Z</time></trkpt><trkpt lat="45.95442647151531" lon="12.058639149359111"><ele>1243.0</ele><time>2026-05-01T06:24:49.999Z</time></trkpt><trkpt lat="45.954387191942" lon="12.058537298765387"><ele>1243.0</ele><time>2026-05-01T06:24:50.999Z</time></trkpt><trkpt lat="45.9542797510683" lon="12.05842862907038"><ele>1243.0</ele><time>2026-05-01T06:24:51.999Z</time></trkpt><trkpt lat="45.954222224189564" lon="12.058318445815942"><ele>1243.0</ele><time>2026-05-01T06:24:52.999Z</time></trkpt><trkpt lat="45.954168170088984" lon="12.05826773109482"><ele>1245.5</ele><time>2026-05-01T06:24:53.999Z</time></trkpt><trkpt lat="45.9540845306464" lon="12.058245469664957"><ele>1248.0</ele><time>2026-05-01T06:24:55.999Z</time></trkpt><trkpt lat="45.95396992933932" lon="12.058295397983283"><ele>1250.5</ele><time>2026-05-01T06:24:57.999Z</time></trkpt><trkpt lat="45.953883956942434" lon="12.05823635402954"><ele>1253.0</ele><time>2026-05-01T06:24:59.999Z</time></trkpt><trkpt lat="45.9537300685589" lon="12.058329888219912"><ele>1242.75</ele><time>2026-05-01T06:25:01.999Z</time></trkpt><trkpt lat="45.95357833841009" lon="12.058330907710392"><ele>1232.5</ele><time>2026-05-01T06:25:03.999Z</time></trkpt><trkpt lat="45.953487406585324" lon="12.05834035470557"><ele>1222.25</ele><time>2026-05-01T06:25:04.999Z</time></trkpt><trkpt lat="45.95336730322845" lon="12.058316714942492"><ele>1212.0</ele><time>2026-05-01T06:25:05.999Z</time></trkpt><trkpt lat="45.953237976505235" lon="12.05833763054708"><ele>1209.1666666666667</ele><time>2026-05-01T06:25:07.999Z</time></trkpt><trkpt lat="45.95316721003733" lon="12.058316315502255"><ele>1206.3333333333333</ele><time>2026-05-01T06:25:08.999Z</time></trkpt><trkpt lat="45.95309199934583" lon="12.058353239605006"><ele>1203.5</ele><time>2026-05-01T06:25:10Z</time></trkpt><trkpt lat="45.95302570992846" lon="12.058356616158907"><ele>1200.6666666666665</ele><time>2026-05-01T06:25:11Z</time></trkpt><trkpt lat="45.95294997538926" lon="12.058365477088893"><ele>1197.8333333333333</ele><time>2026-05-01T06:25:12Z</time></trkpt><trkpt lat="45.95287367041198" lon="12.058403711810868"><ele>1195.0</ele><time>2026-05-01T06:25:13Z</time></trkpt><trkpt lat="45.95279293482953" lon="12.0584246166376"><ele>1195.0</ele><time>2026-05-01T06:25:14Z</time></trkpt><trkpt lat="45.95272750967327" lon="12.058441466940153"><ele>1195.0</ele><time>2026-05-01T06:25:15Z</time></trkpt><trkpt lat="45.95265631155562" lon="12.058481472837766"><ele>1195.0</ele><time>2026-05-01T06:25:16Z</time></trkpt><trkpt lat="45.95257465575594" lon="12.058480686825392"><ele>1195.0</ele><time>2026-05-01T06:25:17Z</time></trkpt><trkpt lat="45.95250108372032" lon="12.058475522895336"><ele>1195.0</ele><time>2026-05-01T06:25:18Z</time></trkpt><trkpt lat="45.9524248398892" lon="12.058479762929148"><ele>1195.0</ele><time>2026-05-01T06:25:19Z</time></trkpt><trkpt lat="45.95234427630795" lon="12.058439023114788"><ele>1193.1666666666665</ele><time>2026-05-01T06:25:20Z</time></trkpt><trkpt lat="45.952270635466625" lon="12.058398413078047"><ele>1191.3333333333333</ele><time>2026-05-01T06:25:21Z</time></trkpt><trkpt lat="45.952185800022754" lon="12.058345392574902"><ele>1189.5</ele><time>2026-05-01T06:25:22Z</time></trkpt><trkpt lat="45.952129129942406" lon="12.058279803002538"><ele>1187.6666666666667</ele><time>2026-05-01T06:25:23Z</time></trkpt><trkpt lat="45.95203992440237" lon="12.05824993107733"><ele>1185.8333333333335</ele><time>2026-05-01T06:25:24Z</time></trkpt><trkpt lat="45.95195274074475" lon="12.058180724641115"><ele>1184.0</ele><time>2026-05-01T06:25:25Z</time></trkpt><trkpt lat="45.9518814782596" lon="12.058133620414042"><ele>1192.4</ele><time>2026-05-01T06:25:26Z</time></trkpt><trkpt lat="45.951797949985185" lon="12.058126721324147"><ele>1200.8000000000002</ele><time>2026-05-01T06:25:27Z</time></trkpt><trkpt lat="45.95171347416016" lon="12.058118022754757"><ele>1209.1999999999998</ele><time>2026-05-01T06:25:28Z</time></trkpt><trkpt lat="45.951622605331885" lon="12.058135976723316"><ele>1217.6</ele><time>2026-05-01T06:25:29Z</time></trkpt><trkpt lat="45.951520421134916" lon="12.058164758580181"><ele>1226.0</ele><time>2026-05-01T06:25:30Z</time></trkpt><trkpt lat="45.95140352624001" lon="12.05823535205317"><ele>1226.0</ele><time>2026-05-01T06:25:31Z</time></trkpt><trkpt lat="45.95131044010441" lon="12.05827183590507"><ele>1226.0</ele><time>2026-05-01T06:25:32Z</time></trkpt><trkpt lat="45.951242426736194" lon="12.058290483821676"><ele>1226.0</ele><time>2026-05-01T06:25:33Z</time></trkpt><trkpt lat="45.95116603539587" lon="12.058293187244507"><ele>1226.0</ele><time>2026-05-01T06:25:34Z</time></trkpt><trkpt lat="45.951090980574214" lon="12.058314286239677"><ele>1226.0</ele><time>2026-05-01T06:25:35Z</time></trkpt><trkpt lat="45.9510128000367" lon="12.058349995661048"><ele>1226.0</ele><time>2026-05-01T06:25:36Z</time></trkpt><trkpt lat="45.95091522887458" lon="12.058375974489138"><ele>1215.2</ele><time>2026-05-01T06:25:37Z</time></trkpt><trkpt lat="45.95084877994262" lon="12.05845415463537"><ele>1204.3999999999999</ele><time>2026-05-01T06:25:38Z</time></trkpt><trkpt lat="45.95078208039006" lon="12.058530811351932"><ele>1193.6</ele><time>2026-05-01T06:25:39Z</time></trkpt><trkpt lat="45.9506785915713" lon="12.058611442680789"><ele>1182.8</ele><time>2026-05-01T06:25:41Z</time></trkpt><trkpt lat="45.95060824006324" lon="12.058491187181176"><ele>1172.0</ele><time>2026-05-01T06:25:44Z</time></trkpt><trkpt lat="45.95054941453814" lon="12.05837129784301"><ele>1180.6</ele><time>2026-05-01T06:25:46Z</time></trkpt><trkpt lat="45.950494537183694" lon="12.058242121079868"><ele>1189.2</ele><time>2026-05-01T06:25:48Z</time></trkpt><trkpt lat="45.95045700974716" lon="12.058121768514138"><ele>1197.8</ele><time>2026-05-01T06:25:49Z</time></trkpt><trkpt lat="45.95039778923207" lon="12.05795274434554"><ele>1206.4</ele><time>2026-05-01T06:25:50Z</time></trkpt><trkpt lat="45.95033370651622" lon="12.057828217541408"><ele>1215.0</ele><time>2026-05-01T06:25:51Z</time></trkpt><trkpt lat="45.95028770276567" lon="12.057756789971837"><ele>1215.0</ele><time>2026-05-01T06:25:52Z</time></trkpt><trkpt lat="45.95020437899715" lon="12.057672727463993"><ele>1215.0</ele><time>2026-05-01T06:25:54Z</time></trkpt><trkpt lat="45.95013369491644" lon="12.057653468966619"><ele>1215.0</ele><time>2026-05-01T06:25:55Z</time></trkpt><trkpt lat="45.95002535074041" lon="12.057750574637204"><ele>1215.0</ele><time>2026-05-01T06:25:57Z</time></trkpt><trkpt lat="45.94995047126765" lon="12.05779312664872"><ele>1215.0</ele><time>2026-05-01T06:25:58Z</time></trkpt><trkpt lat="45.94988360653635" lon="12.057843655729425"><ele>1211.3333333333333</ele><time>2026-05-01T06:25:59Z</time></trkpt><trkpt lat="45.949811515895355" lon="12.057869202945156"><ele>1207.6666666666667</ele><time>2026-05-01T06:26:00Z</time></trkpt><trkpt lat="45.94973110263197" lon="12.057896847114229"><ele>1204.0</ele><time>2026-05-01T06:26:01Z</time></trkpt><trkpt lat="45.9496605580164" lon="12.057937737020566"><ele>1200.3333333333335</ele><time>2026-05-01T06:26:02Z</time></trkpt><trkpt lat="45.949576045244505" lon="12.057910237998819"><ele>1196.6666666666667</ele><time>2026-05-01T06:26:03Z</time></trkpt><trkpt lat="45.94945850223464" lon="12.057927994630573"><ele>1193.0</ele><time>2026-05-01T06:26:04Z</time></trkpt><trkpt lat="45.94934289064392" lon="12.058015608523814"><ele>1193.0</ele><time>2026-05-01T06:26:05Z</time></trkpt><trkpt lat="45.94929670299685" lon="12.058078254079199"><ele>1193.0</ele><time>2026-05-01T06:26:06Z</time></trkpt><trkpt lat="45.94922782628309" lon="12.058112153071367"><ele>1193.0</ele><time>2026-05-01T06:26:07Z</time></trkpt><trkpt lat="45.94914622890176" lon="12.058134300613476"><ele>1193.0</ele><time>2026-05-01T06:26:09Z</time></trkpt><trkpt lat="45.94903970273544" lon="12.058138734921787"><ele>1193.0</ele><time>2026-05-01T06:26:11Z</time></trkpt><trkpt lat="45.94897489997917" lon="12.058190017016686"><ele>1193.0</ele><time>2026-05-01T06:26:12Z</time></trkpt><trkpt lat="45.948913468450144" lon="12.058326278388384"><ele>1185.2</ele><time>2026-05-01T06:26:14Z</time></trkpt><trkpt lat="45.94889626913435" lon="12.058437519311207"><ele>1177.4</ele><time>2026-05-01T06:26:15Z</time></trkpt><trkpt lat="45.948882208036956" lon="12.058526444821611"><ele>1169.6000000000001</ele><time>2026-05-01T06:26:16Z</time></trkpt><trkpt lat="45.948833775158676" lon="12.058657094304497"><ele>1161.8</ele><time>2026-05-01T06:26:18Z</time></trkpt><trkpt lat="45.94871134702304" lon="12.058766709714034"><ele>1154.0</ele><time>2026-05-01T06:26:20Z</time></trkpt><trkpt lat="45.948579622822685" lon="12.058796877595068"><ele>1154.0</ele><time>2026-05-01T06:26:22Z</time></trkpt><trkpt lat="45.94857809276077" lon="12.058904950400809"><ele>1154.0</ele><time>2026-05-01T06:26:23Z</time></trkpt><trkpt lat="45.94854104484211" lon="12.059006260101873"><ele>1154.0</ele><time>2026-05-01T06:26:24Z</time></trkpt><trkpt lat="45.94808406666475" lon="12.059201253589297"><ele>1147.5</ele><time>2026-05-01T06:26:30.619Z</time></trkpt><trkpt lat="45.94803297896492" lon="12.05927962438395"><ele>1141.0</ele><time>2026-05-01T06:26:32Z</time></trkpt><trkpt lat="45.94761296179699" lon="12.059374758984948"><ele>1141.0</ele><time>2026-05-01T06:26:38.711Z</time></trkpt><trkpt lat="45.94754804395693" lon="12.059510881092454"><ele>1141.0</ele><time>2026-05-01T06:26:40Z</time></trkpt><trkpt lat="45.947497081985645" lon="12.059637950744534"><ele>1141.0</ele><time>2026-05-01T06:26:41Z</time></trkpt><trkpt lat="45.94744641338097" lon="12.059740964334514"><ele>1141.0</ele><time>2026-05-01T06:26:42Z</time></trkpt><trkpt lat="45.94738157935994" lon="12.059836853306797"><ele>1141.0</ele><time>2026-05-01T06:26:43Z</time></trkpt><trkpt lat="45.94731984664308" lon="12.059926791127827"><ele>1137.8333333333333</ele><time>2026-05-01T06:26:44Z</time></trkpt><trkpt lat="45.94725199513691" lon="12.06005981193116"><ele>1134.6666666666665</ele><time>2026-05-01T06:26:45Z</time></trkpt><trkpt lat="45.94719260935294" lon="12.060161819692757"><ele>1131.5</ele><time>2026-05-01T06:26:46Z</time></trkpt><trkpt lat="45.947126979051106" lon="12.06023675390711"><ele>1128.3333333333333</ele><time>2026-05-01T06:26:47Z</time></trkpt><trkpt lat="45.94708808702039" lon="12.06031587907305"><ele>1125.1666666666667</ele><time>2026-05-01T06:26:48Z</time></trkpt><trkpt lat="45.94701038677799" lon="12.060371451091077"><ele>1122.0</ele><time>2026-05-01T06:26:50Z</time></trkpt><trkpt lat="45.94694721576707" lon="12.060333874000644"><ele>1122.0</ele><time>2026-05-01T06:27:19Z</time></trkpt><trkpt lat="45.94687545537358" lon="12.060410009350024"><ele>1122.0</ele><time>2026-05-01T06:27:23Z</time></trkpt><trkpt lat="45.94678895831874" lon="12.060381824958517"><ele>1122.0</ele><time>2026-05-01T06:27:25Z</time></trkpt><trkpt lat="45.946743507652435" lon="12.060300373983441"><ele>1122.0</ele><time>2026-05-01T06:27:26Z</time></trkpt><trkpt lat="45.94670314482904" lon="12.060211261116597"><ele>1122.0</ele><time>2026-05-01T06:27:27Z</time></trkpt><trkpt lat="45.94665695795581" lon="12.060129137452893"><ele>1122.0</ele><time>2026-05-01T06:27:28Z</time></trkpt><trkpt lat="45.94660596316563" lon="12.060051594331101"><ele>1123.0</ele><time>2026-05-01T06:27:29Z</time></trkpt><trkpt lat="45.946541904024734" lon="12.059967849640623"><ele>1124.0</ele><time>2026-05-01T06:27:30Z</time></trkpt><trkpt lat="45.94647159342626" lon="12.059886659940272"><ele>1125.0</ele><time>2026-05-01T06:27:31Z</time></trkpt><trkpt lat="45.94638920567166" lon="12.059806028217766"><ele>1126.0</ele><time>2026-05-01T06:27:32Z</time></trkpt><trkpt lat="45.94628723762219" lon="12.059761300694504"><ele>1127.0</ele><time>2026-05-01T06:27:33Z</time></trkpt><trkpt lat="45.946185193317675" lon="12.059725162509674"><ele>1124.6</ele><time>2026-05-01T06:27:34Z</time></trkpt><trkpt lat="45.946094896669436" lon="12.059695087888644"><ele>1122.2</ele><time>2026-05-01T06:27:35Z</time></trkpt><trkpt lat="45.94600148042974" lon="12.059641776735647"><ele>1119.8</ele><time>2026-05-01T06:27:36Z</time></trkpt><trkpt lat="45.945925484102034" lon="12.05956867176451"><ele>1117.4</ele><time>2026-05-01T06:27:37Z</time></trkpt><trkpt lat="45.94585906297318" lon="12.059463407213732"><ele>1115.0</ele><time>2026-05-01T06:27:38Z</time></trkpt><trkpt lat="45.9458105944061" lon="12.059352191883908"><ele>1115.0</ele><time>2026-05-01T06:27:39Z</time></trkpt><trkpt lat="45.94576534695576" lon="12.059237585798293"><ele>1115.0</ele><time>2026-05-01T06:27:40Z</time></trkpt><trkpt lat="45.94570924924131" lon="12.059128689957596"><ele>1115.0</ele><time>2026-05-01T06:27:41Z</time></trkpt><trkpt lat="45.94564618278194" lon="12.059043280896855"><ele>1115.0</ele><time>2026-05-01T06:27:42Z</time></trkpt><trkpt lat="45.94556051831544" lon="12.058955535927298"><ele>1115.0</ele><time>2026-05-01T06:27:43Z</time></trkpt><trkpt lat="45.94544208961634" lon="12.05888786900334"><ele>1119.2</ele><time>2026-05-01T06:27:44Z</time></trkpt><trkpt lat="45.945371767307556" lon="12.058777968759697"><ele>1123.4</ele><time>2026-05-01T06:27:45Z</time></trkpt><trkpt lat="45.94528265597399" lon="12.058693212474676"><ele>1127.6</ele><time>2026-05-01T06:27:46Z</time></trkpt><trkpt lat="45.945212165796235" lon="12.058596862362663"><ele>1131.8</ele><time>2026-05-01T06:27:47Z</time></trkpt><trkpt lat="45.945158749696226" lon="12.058478865346233"><ele>1136.0</ele><time>2026-05-01T06:27:48Z</time></trkpt><trkpt lat="45.945109961790784" lon="12.058345201362958"><ele>1139.75</ele><time>2026-05-01T06:27:49Z</time></trkpt><trkpt lat="45.94506838241007" lon="12.058208540293114"><ele>1143.5</ele><time>2026-05-01T06:27:50Z</time></trkpt><trkpt lat="45.945026086273586" lon="12.058058921538061"><ele>1147.25</ele><time>2026-05-01T06:27:51Z</time></trkpt><trkpt lat="45.94498573239557" lon="12.057882584592686"><ele>1151.0</ele><time>2026-05-01T06:27:52Z</time></trkpt><trkpt lat="45.944944922853324" lon="12.057706762644825"><ele>1141.6</ele><time>2026-05-01T06:27:53Z</time></trkpt><trkpt lat="45.94490516193401" lon="12.05754286690981"><ele>1132.1999999999998</ele><time>2026-05-01T06:27:54Z</time></trkpt><trkpt lat="45.94489922721965" lon="12.057388614788133"><ele>1122.8000000000002</ele><time>2026-05-01T06:27:55Z</time></trkpt><trkpt lat="45.94489147065673" lon="12.057255483605475"><ele>1113.4</ele><time>2026-05-01T06:27:56Z</time></trkpt><trkpt lat="45.944875328621556" lon="12.057120997040455"><ele>1104.0</ele><time>2026-05-01T06:27:57Z</time></trkpt><trkpt lat="45.94490340140621" lon="12.056996229978429"><ele>1104.0</ele><time>2026-05-01T06:27:58Z</time></trkpt><trkpt lat="45.94490708793442" lon="12.056861715318611"><ele>1104.0</ele><time>2026-05-01T06:27:59Z</time></trkpt><trkpt lat="45.94491856745872" lon="12.05673568423093"><ele>1104.0</ele><time>2026-05-01T06:28:00Z</time></trkpt><trkpt lat="45.94491242123587" lon="12.056596880210394"><ele>1104.0</ele><time>2026-05-01T06:28:01Z</time></trkpt><trkpt lat="45.94490222718403" lon="12.056434602649865"><ele>1104.0</ele><time>2026-05-01T06:28:02Z</time></trkpt><trkpt lat="45.944875964847" lon="12.05624957071404"><ele>1105.2</ele><time>2026-05-01T06:28:03Z</time></trkpt><trkpt lat="45.94482113215308" lon="12.056083138910187"><ele>1106.4</ele><time>2026-05-01T06:28:04Z</time></trkpt><trkpt lat="45.94478699179016" lon="12.05594809197269"><ele>1107.6</ele><time>2026-05-01T06:28:05Z</time></trkpt><trkpt lat="45.94476356426591" lon="12.055836527836252"><ele>1108.8</ele><time>2026-05-01T06:28:06Z</time></trkpt><trkpt lat="45.94470806937688" lon="12.055759321563869"><ele>1110.0</ele><time>2026-05-01T06:28:07Z</time></trkpt><trkpt lat="45.944606912311585" lon="12.055725348097129"><ele>1110.0</ele><time>2026-05-01T06:28:08Z</time></trkpt><trkpt lat="45.94450445173397" lon="12.055760849905935"><ele>1110.0</ele><time>2026-05-01T06:28:09Z</time></trkpt><trkpt lat="45.94441892644218" lon="12.055893286173054"><ele>1110.0</ele><time>2026-05-01T06:28:10Z</time></trkpt><trkpt lat="45.94434003267112" lon="12.055987107179458"><ele>1110.0</ele><time>2026-05-01T06:28:11Z</time></trkpt><trkpt lat="45.94423918343506" lon="12.056101578007475"><ele>1107.4</ele><time>2026-05-01T06:28:12Z</time></trkpt><trkpt lat="45.94414331690388" lon="12.056166571415831"><ele>1104.8</ele><time>2026-05-01T06:28:13Z</time></trkpt><trkpt lat="45.94405270824341" lon="12.05622372680472"><ele>1102.2</ele><time>2026-05-01T06:28:14Z</time></trkpt><trkpt lat="45.943948712831045" lon="12.056225245144557"><ele>1099.6</ele><time>2026-05-01T06:28:15Z</time></trkpt><trkpt lat="45.943835725183725" lon="12.056235102611975"><ele>1097.0</ele><time>2026-05-01T06:28:16Z</time></trkpt><trkpt lat="45.94372621279122" lon="12.056241855822531"><ele>1097.0</ele><time>2026-05-01T06:28:17Z</time></trkpt><trkpt lat="45.94361620848655" lon="12.056245524225575"><ele>1097.0</ele><time>2026-05-01T06:28:18Z</time></trkpt><trkpt lat="45.94351926119632" lon="12.056228452097296"><ele>1097.0</ele><time>2026-05-01T06:28:19Z</time></trkpt><trkpt lat="45.94339848235981" lon="12.056167542827106"><ele>1097.0</ele><time>2026-05-01T06:28:20Z</time></trkpt><trkpt lat="45.94329262312388" lon="12.056103794121631"><ele>1098.6</ele><time>2026-05-01T06:28:21Z</time></trkpt><trkpt lat="45.94320761728876" lon="12.056006331204834"><ele>1100.2</ele><time>2026-05-01T06:28:21.999Z</time></trkpt><trkpt lat="45.943114083103055" lon="12.055941232557766"><ele>1101.8</ele><time>2026-05-01T06:28:22.999Z</time></trkpt><trkpt lat="45.943021486175915" lon="12.055849447181384"><ele>1103.4</ele><time>2026-05-01T06:28:23.999Z</time></trkpt><trkpt lat="45.942964521080825" lon="12.05574245262065"><ele>1105.0</ele><time>2026-05-01T06:28:24.999Z</time></trkpt><trkpt lat="45.94289697988625" lon="12.055625537156057"><ele>1105.0</ele><time>2026-05-01T06:28:25.999Z</time></trkpt><trkpt lat="45.942831755642324" lon="12.055498533351683"><ele>1105.0</ele><time>2026-05-01T06:28:26.999Z</time></trkpt><trkpt lat="45.94274987796708" lon="12.05541474258666"><ele>1105.0</ele><time>2026-05-01T06:28:27.999Z</time></trkpt><trkpt lat="45.94265354594363" lon="12.05542486775811"><ele>1105.0</ele><time>2026-05-01T06:28:28.999Z</time></trkpt><trkpt lat="45.942551749424496" lon="12.055478494827975"><ele>1105.0</ele><time>2026-05-01T06:28:29.999Z</time></trkpt><trkpt lat="45.94245930264822" lon="12.05550629484312"><ele>1099.2</ele><time>2026-05-01T06:28:30.999Z</time></trkpt><trkpt lat="45.94236892583189" lon="12.055484531023732"><ele>1093.4</ele><time>2026-05-01T06:28:31.999Z</time></trkpt><trkpt lat="45.94227864017531" lon="12.055438204899017"><ele>1087.6</ele><time>2026-05-01T06:28:32.999Z</time></trkpt><trkpt lat="45.942198042734404" lon="12.055381458975544"><ele>1081.8</ele><time>2026-05-01T06:28:33.999Z</time></trkpt><trkpt lat="45.94212632796896" lon="12.055276298743363"><ele>1076.0</ele><time>2026-05-01T06:28:34.999Z</time></trkpt><trkpt lat="45.94206387255446" lon="12.05515785037024"><ele>1076.0</ele><time>2026-05-01T06:28:35.999Z</time></trkpt><trkpt lat="45.94199900643484" lon="12.05505710015527"><ele>1076.0</ele><time>2026-05-01T06:28:36.999Z</time></trkpt><trkpt lat="45.9419331718932" lon="12.054902059076012"><ele>1076.0</ele><time>2026-05-01T06:28:37.999Z</time></trkpt><trkpt lat="45.941873737906896" lon="12.054757634228412"><ele>1076.0</ele><time>2026-05-01T06:28:38.999Z</time></trkpt><trkpt lat="45.941816395831886" lon="12.054626773416105"><ele>1076.0</ele><time>2026-05-01T06:28:39.999Z</time></trkpt><trkpt lat="45.941754780246306" lon="12.054486044321804"><ele>1072.3999999999999</ele><time>2026-05-01T06:28:40.999Z</time></trkpt><trkpt lat="45.94169823652074" lon="12.054347245807069"><ele>1068.8</ele><time>2026-05-01T06:28:41.999Z</time></trkpt><trkpt lat="45.94164160840011" lon="12.054232554405031"><ele>1065.1999999999998</ele><time>2026-05-01T06:28:42.999Z</time></trkpt><trkpt lat="45.94159943234229" lon="12.054133021039435"><ele>1061.6</ele><time>2026-05-01T06:28:43.999Z</time></trkpt><trkpt lat="45.941584277451064" lon="12.054014192453677"><ele>1058.0</ele><time>2026-05-01T06:28:44.999Z</time></trkpt><trkpt lat="45.94159608779265" lon="12.05389313623502"><ele>1058.0</ele><time>2026-05-01T06:28:45.999Z</time></trkpt><trkpt lat="45.94159296516264" lon="12.05372185932206"><ele>1058.0</ele><time>2026-05-01T06:28:46.999Z</time></trkpt><trkpt lat="45.941606683967734" lon="12.053549110036977"><ele>1058.0</ele><time>2026-05-01T06:28:47.999Z</time></trkpt><trkpt lat="45.94158570488274" lon="12.053377352484928"><ele>1058.0</ele><time>2026-05-01T06:28:48.999Z</time></trkpt><trkpt lat="45.941577490665395" lon="12.053215052177498"><ele>1060.75</ele><time>2026-05-01T06:28:49.999Z</time></trkpt><trkpt lat="45.94153315032618" lon="12.053063578524188"><ele>1063.5</ele><time>2026-05-01T06:28:51Z</time></trkpt><trkpt lat="45.94148661838516" lon="12.052956622251887"><ele>1066.25</ele><time>2026-05-01T06:28:52Z</time></trkpt><trkpt lat="45.94139111390526" lon="12.05284727239937"><ele>1069.0</ele><time>2026-05-01T06:28:53Z</time></trkpt><trkpt lat="45.94129069315597" lon="12.052732628523534"><ele>1069.0</ele><time>2026-05-01T06:28:54Z</time></trkpt><trkpt lat="45.94118419334111" lon="12.052631867208238"><ele>1069.0</ele><time>2026-05-01T06:28:55Z</time></trkpt><trkpt lat="45.94107478347134" lon="12.052559648565246"><ele>1069.0</ele><time>2026-05-01T06:28:56Z</time></trkpt><trkpt lat="45.94095177527533" lon="12.052498937252855"><ele>1069.0</ele><time>2026-05-01T06:28:57Z</time></trkpt><trkpt lat="45.94082742111346" lon="12.052439237748473"><ele>1066.6000000000001</ele><time>2026-05-01T06:28:58Z</time></trkpt><trkpt lat="45.940714164786186" lon="12.052362260760654"><ele>1064.2</ele><time>2026-05-01T06:28:59Z</time></trkpt><trkpt lat="45.94061302474443" lon="12.052291590716537"><ele>1061.8000000000002</ele><time>2026-05-01T06:29:00Z</time></trkpt><trkpt lat="45.940547433545646" lon="12.052184505022378"><ele>1059.4</ele><time>2026-05-01T06:29:01Z</time></trkpt><trkpt lat="45.9404586256077" lon="12.052102003321904"><ele>1057.0</ele><time>2026-05-01T06:29:02Z</time></trkpt><trkpt lat="45.94040839748432" lon="12.051977451860049"><ele>1057.0</ele><time>2026-05-01T06:29:03Z</time></trkpt><trkpt lat="45.94036101410217" lon="12.05185100927371"><ele>1057.0</ele><time>2026-05-01T06:29:04Z</time></trkpt><trkpt lat="45.94031453307458" lon="12.0517075346191"><ele>1057.0</ele><time>2026-05-01T06:29:05Z</time></trkpt><trkpt lat="45.94029474743787" lon="12.051560009337736"><ele>1057.0</ele><time>2026-05-01T06:29:06Z</time></trkpt><trkpt lat="45.940259049321995" lon="12.05143007919494"><ele>1057.0</ele><time>2026-05-01T06:29:07Z</time></trkpt><trkpt lat="45.940214363818335" lon="12.051274902780744"><ele>1056.25</ele><time>2026-05-01T06:29:08Z</time></trkpt><trkpt lat="45.940135262451875" lon="12.051167242935463"><ele>1055.5</ele><time>2026-05-01T06:29:09Z</time></trkpt><trkpt lat="45.94004732589859" lon="12.05109640247285"><ele>1054.75</ele><time>2026-05-01T06:29:10Z</time></trkpt><trkpt lat="45.939922651205165" lon="12.051081942810534"><ele>1054.0</ele><time>2026-05-01T06:29:11Z</time></trkpt><trkpt lat="45.93981697401316" lon="12.051204705177614"><ele>1054.0</ele><time>2026-05-01T06:29:12Z</time></trkpt><trkpt lat="45.93972609637907" lon="12.05125624087896"><ele>1054.0</ele><time>2026-05-01T06:29:13Z</time></trkpt><trkpt lat="45.93964059004057" lon="12.051282645415153"><ele>1054.0</ele><time>2026-05-01T06:29:14Z</time></trkpt><trkpt lat="45.93952477652827" lon="12.051334601372858"><ele>1054.0</ele><time>2026-05-01T06:29:15Z</time></trkpt><trkpt lat="45.93942972611922" lon="12.051362242136575"><ele>1054.0</ele><time>2026-05-01T06:29:16Z</time></trkpt><trkpt lat="45.939277433712164" lon="12.051357113124437"><ele>1049.0</ele><time>2026-05-01T06:29:18Z</time></trkpt><trkpt lat="45.93919320978359" lon="12.051371545363654"><ele>1044.0</ele><time>2026-05-01T06:29:19Z</time></trkpt><trkpt lat="45.93913045010039" lon="12.051405729829375"><ele>1039.0</ele><time>2026-05-01T06:29:20Z</time></trkpt><trkpt lat="45.939067812662174" lon="12.051517967189904"><ele>1034.0</ele><time>2026-05-01T06:29:21Z</time></trkpt><trkpt lat="45.939028986041585" lon="12.051629175463528"><ele>1029.0</ele><time>2026-05-01T06:29:22Z</time></trkpt><trkpt lat="45.93896613213186" lon="12.051699703929804"><ele>1024.0</ele><time>2026-05-01T06:29:23Z</time></trkpt><trkpt lat="45.93888404403956" lon="12.051720488207954"><ele>1023.9999999999999</ele><time>2026-05-01T06:29:24Z</time></trkpt><trkpt lat="45.938801476370905" lon="12.051707133745452"><ele>1024.0</ele><time>2026-05-01T06:29:25Z</time></trkpt><trkpt lat="45.938710043188" lon="12.051660798552177"><ele>1024.0</ele><time>2026-05-01T06:29:26Z</time></trkpt><trkpt lat="45.93865710901083" lon="12.051571575210614"><ele>1024.0</ele><time>2026-05-01T06:29:27Z</time></trkpt><trkpt lat="45.93861932146625" lon="12.051467903875341"><ele>1023.9999999999999</ele><time>2026-05-01T06:29:28Z</time></trkpt><trkpt lat="45.93859396534195" lon="12.051370732133112"><ele>1024.0</ele><time>2026-05-01T06:29:29Z</time></trkpt><trkpt lat="45.93858645661575" lon="12.051234796495676"><ele>1024.0</ele><time>2026-05-01T06:29:30Z</time></trkpt><trkpt lat="45.93857057123471" lon="12.051087151483141"><ele>1024.0</ele><time>2026-05-01T06:29:31Z</time></trkpt><trkpt lat="45.93858341899365" lon="12.050960475979057"><ele>1024.0</ele><time>2026-05-01T06:29:32Z</time></trkpt><trkpt lat="45.938616644955474" lon="12.050848791880883"><ele>1024.0</ele><time>2026-05-01T06:29:33Z</time></trkpt><trkpt lat="45.93866418387755" lon="12.050733060524"><ele>1024.0</ele><time>2026-05-01T06:29:34Z</time></trkpt><trkpt lat="45.938728721155485" lon="12.050588652922302"><ele>1023.8000000000001</ele><time>2026-05-01T06:29:35Z</time></trkpt><trkpt lat="45.93878586337994" lon="12.050445047774073"><ele>1023.6000000000001</ele><time>2026-05-01T06:29:36Z</time></trkpt><trkpt lat="45.93881961940712" lon="12.05034513574189"><ele>1023.4</ele><time>2026-05-01T06:29:37Z</time></trkpt><trkpt lat="45.93885336221184" lon="12.050188628245076"><ele>1023.2</ele><time>2026-05-01T06:29:39Z</time></trkpt><trkpt lat="45.938819078507365" lon="12.050092603860003"><ele>1023.0</ele><time>2026-05-01T06:29:40Z</time></trkpt><trkpt lat="45.938746409191" lon="12.05005573846545"><ele>1023.0</ele><time>2026-05-01T06:29:41Z</time></trkpt><trkpt lat="45.93866811427604" lon="12.050164863624325"><ele>1023.0</ele><time>2026-05-01T06:29:42Z</time></trkpt><trkpt lat="45.93864735826222" lon="12.050277485656409"><ele>1023.0</ele><time>2026-05-01T06:29:43Z</time></trkpt><trkpt lat="45.93858473014963" lon="12.050387864116953"><ele>1023.0</ele><time>2026-05-01T06:29:44Z</time></trkpt><trkpt lat="45.93850987515787" lon="12.05056128243513"><ele>1023.0</ele><time>2026-05-01T06:29:45Z</time></trkpt><trkpt lat="45.93847117750487" lon="12.050692055896594"><ele>1023.2</ele><time>2026-05-01T06:29:46Z</time></trkpt><trkpt lat="45.93839580773434" lon="12.050801958921019"><ele>1023.4</ele><time>2026-05-01T06:29:47Z</time></trkpt><trkpt lat="45.93833833872937" lon="12.050944209769437"><ele>1023.6000000000001</ele><time>2026-05-01T06:29:48Z</time></trkpt><trkpt lat="45.93828659791907" lon="12.051066917272887"><ele>1023.8000000000001</ele><time>2026-05-01T06:29:49Z</time></trkpt><trkpt lat="45.93821388204857" lon="12.051156204001995"><ele>1024.0</ele><time>2026-05-01T06:29:50Z</time></trkpt><trkpt lat="45.938119742897086" lon="12.05123632658167"><ele>1017.8333333333333</ele><time>2026-05-01T06:29:51Z</time></trkpt><trkpt lat="45.93802423607639" lon="12.05130111744951"><ele>1011.6666666666666</ele><time>2026-05-01T06:29:52Z</time></trkpt><trkpt lat="45.93793115742866" lon="12.051364424210938"><ele>1005.5</ele><time>2026-05-01T06:29:53Z</time></trkpt><trkpt lat="45.937847817363924" lon="12.051419345357477"><ele>999.3333333333333</ele><time>2026-05-01T06:29:54Z</time></trkpt><trkpt lat="45.93778717566436" lon="12.051480143240092"><ele>993.1666666666666</ele><time>2026-05-01T06:29:55Z</time></trkpt><trkpt lat="45.93775920678371" lon="12.051562726886914"><ele>987.0</ele><time>2026-05-01T06:29:56Z</time></trkpt><trkpt lat="45.93777659832108" lon="12.051665965837584"><ele>987.0</ele><time>2026-05-01T06:29:57Z</time></trkpt><trkpt lat="45.93781921771348" lon="12.051747767270296"><ele>987.0</ele><time>2026-05-01T06:29:58Z</time></trkpt><trkpt lat="45.93789435944752" lon="12.051820833474787"><ele>987.0</ele><time>2026-05-01T06:29:59Z</time></trkpt><trkpt lat="45.93795064201778" lon="12.051925260040692"><ele>987.0</ele><time>2026-05-01T06:30:00Z</time></trkpt><trkpt lat="45.937976983145525" lon="12.052054780095"><ele>987.0</ele><time>2026-05-01T06:30:01Z</time></trkpt><trkpt lat="45.93799655234102" lon="12.052194502306975"><ele>987.0</ele><time>2026-05-01T06:30:02Z</time></trkpt><trkpt lat="45.9380202895097" lon="12.052339385195562"><ele>985.0</ele><time>2026-05-01T06:30:03Z</time></trkpt><trkpt lat="45.9380674722073" lon="12.05246889979406"><ele>983.0</ele><time>2026-05-01T06:30:04Z</time></trkpt><trkpt lat="45.938092937009294" lon="12.052585925919708"><ele>981.0</ele><time>2026-05-01T06:30:05Z</time></trkpt><trkpt lat="45.93812853252565" lon="12.052662689028015"><ele>979.0</ele><time>2026-05-01T06:30:06Z</time></trkpt><trkpt lat="45.93807918474567" lon="12.05275684205003"><ele>977.0</ele><time>2026-05-01T06:30:08Z</time></trkpt><trkpt lat="45.937974082804224" lon="12.052663025649764"><ele>977.0</ele><time>2026-05-01T06:30:10Z</time></trkpt><trkpt lat="45.93793705305394" lon="12.052536151064343"><ele>977.0</ele><time>2026-05-01T06:30:11Z</time></trkpt><trkpt lat="45.93788843045313" lon="12.052408086201059"><ele>977.0</ele><time>2026-05-01T06:30:12Z</time></trkpt><trkpt lat="45.93784931821838" lon="12.052286464787175"><ele>977.0</ele><time>2026-05-01T06:30:13Z</time></trkpt><trkpt lat="45.9378043343398" lon="12.052168298676989"><ele>977.0</ele><time>2026-05-01T06:30:14Z</time></trkpt><trkpt lat="45.93775372187497" lon="12.052081616435382"><ele>978.6666666666667</ele><time>2026-05-01T06:30:15Z</time></trkpt><trkpt lat="45.93767309423292" lon="12.05202942660279"><ele>980.3333333333334</ele><time>2026-05-01T06:30:16Z</time></trkpt><trkpt lat="45.937580778897484" lon="12.052022104957157"><ele>982.0</ele><time>2026-05-01T06:30:17Z</time></trkpt><trkpt lat="45.93749028341948" lon="12.052015609618465"><ele>983.6666666666667</ele><time>2026-05-01T06:30:18Z</time></trkpt><trkpt lat="45.93740996600657" lon="12.051979972260467"><ele>985.3333333333334</ele><time>2026-05-01T06:30:19Z</time></trkpt><trkpt lat="45.93735371838409" lon="12.05192192734544"><ele>987.0</ele><time>2026-05-01T06:30:20Z</time></trkpt><trkpt lat="45.93732610810093" lon="12.05183992160576"><ele>985.8333333333334</ele><time>2026-05-01T06:30:21Z</time></trkpt><trkpt lat="45.93734759041262" lon="12.051742637647001"><ele>984.6666666666667</ele><time>2026-05-01T06:30:22Z</time></trkpt><trkpt lat="45.93738837065114" lon="12.051661454466963"><ele>983.5</ele><time>2026-05-01T06:30:23Z</time></trkpt><trkpt lat="45.937447427777855" lon="12.051567208640742"><ele>982.3333333333334</ele><time>2026-05-01T06:30:24Z</time></trkpt><trkpt lat="45.93755399308812" lon="12.051539414705166"><ele>981.1666666666667</ele><time>2026-05-01T06:30:25Z</time></trkpt><trkpt lat="45.93760775137411" lon="12.051455760911265"><ele>980.0</ele><time>2026-05-01T06:30:26Z</time></trkpt><trkpt lat="45.93767171607292" lon="12.051324380744791"><ele>980.0</ele><time>2026-05-01T06:30:28Z</time></trkpt><trkpt lat="45.93762641478846" lon="12.051226135121711"><ele>980.0</ele><time>2026-05-01T06:30:29Z</time></trkpt><trkpt lat="45.93751189680982" lon="12.051238702641221"><ele>980.0</ele><time>2026-05-01T06:30:31Z</time></trkpt><trkpt lat="45.93745371845384" lon="12.05132667237253"><ele>980.0</ele><time>2026-05-01T06:30:32Z</time></trkpt><trkpt lat="45.93739207230105" lon="12.051424561554105"><ele>980.0</ele><time>2026-05-01T06:30:33Z</time></trkpt><trkpt lat="45.93730100644795" lon="12.051543867025392"><ele>973.5</ele><time>2026-05-01T06:30:33.999Z</time></trkpt><trkpt lat="45.93721066005843" lon="12.051671671417493"><ele>967.0</ele><time>2026-05-01T06:30:34.999Z</time></trkpt><trkpt lat="45.93710322621886" lon="12.051760767056567"><ele>960.5</ele><time>2026-05-01T06:30:35.999Z</time></trkpt><trkpt lat="45.93699003979219" lon="12.051827773520385"><ele>954.0</ele><time>2026-05-01T06:30:36.999Z</time></trkpt><trkpt lat="45.93690672829306" lon="12.051918276486635"><ele>954.0</ele><time>2026-05-01T06:30:37.999Z</time></trkpt><trkpt lat="45.93685058637269" lon="12.05202145943296"><ele>954.0</ele><time>2026-05-01T06:30:38.999Z</time></trkpt><trkpt lat="45.93683060586728" lon="12.052122784798122"><ele>954.0</ele><time>2026-05-01T06:30:39.999Z</time></trkpt><trkpt lat="45.93676801353645" lon="12.052204341018998"><ele>954.0</ele><time>2026-05-01T06:30:41.999Z</time></trkpt><trkpt lat="45.936730252840576" lon="12.052046863282825"><ele>954.0</ele><time>2026-05-01T06:30:43.999Z</time></trkpt><trkpt lat="45.936773859140494" lon="12.051944863671736"><ele>954.0</ele><time>2026-05-01T06:30:44.999Z</time></trkpt><trkpt lat="45.93683736365672" lon="12.051848230754384"><ele>954.0</ele><time>2026-05-01T06:30:45.999Z</time></trkpt><trkpt lat="45.936913916438094" lon="12.051721486449857"><ele>954.0000000000001</ele><time>2026-05-01T06:30:46.999Z</time></trkpt><trkpt lat="45.93698899744356" lon="12.051606732755898"><ele>954.0000000000001</ele><time>2026-05-01T06:30:47.999Z</time></trkpt><trkpt lat="45.937070095949906" lon="12.051518360846774"><ele>954.0</ele><time>2026-05-01T06:30:48.999Z</time></trkpt><trkpt lat="45.93713660463702" lon="12.051408034579795"><ele>954.0</ele><time>2026-05-01T06:30:49.999Z</time></trkpt><trkpt lat="45.937225191331265" lon="12.051331921831334"><ele>952.1666666666666</ele><time>2026-05-01T06:30:50.999Z</time></trkpt><trkpt lat="45.937297156876305" lon="12.051287886704245"><ele>950.3333333333333</ele><time>2026-05-01T06:30:51.999Z</time></trkpt><trkpt lat="45.93732220053405" lon="12.051131461080658"><ele>948.5</ele><time>2026-05-01T06:30:53.999Z</time></trkpt><trkpt lat="45.93726843475387" lon="12.051055676652538"><ele>946.6666666666666</ele><time>2026-05-01T06:30:54.999Z</time></trkpt><trkpt lat="45.9371993582148" lon="12.051064700044876"><ele>944.8333333333333</ele><time>2026-05-01T06:30:55.999Z</time></trkpt><trkpt lat="45.93714362920816" lon="12.051142965956881"><ele>943.0</ele><time>2026-05-01T06:30:57Z</time></trkpt><trkpt lat="45.93708793112099" lon="12.051245601115475"><ele>943.0</ele><time>2026-05-01T06:30:58Z</time></trkpt><trkpt lat="45.93702050173078" lon="12.051352159013154"><ele>943.0</ele><time>2026-05-01T06:30:59Z</time></trkpt><trkpt lat="45.936929943562504" lon="12.051468290362976"><ele>943.0</ele><time>2026-05-01T06:31:00Z</time></trkpt><trkpt lat="45.9368275321683" lon="12.051570295785083"><ele>943.0</ele><time>2026-05-01T06:31:01Z</time></trkpt><trkpt lat="45.93670291787563" lon="12.051681212381327"><ele>934.6666666666666</ele><time>2026-05-01T06:31:02Z</time></trkpt><trkpt lat="45.936538725216614" lon="12.05180573053058"><ele>926.3333333333333</ele><time>2026-05-01T06:31:03Z</time></trkpt><trkpt lat="45.936413728785276" lon="12.051902876061352"><ele>918.0</ele><time>2026-05-01T06:31:04Z</time></trkpt><trkpt lat="45.93627929170888" lon="12.05200570716003"><ele>918.0</ele><time>2026-05-01T06:31:05Z</time></trkpt><trkpt lat="45.93616070727774" lon="12.052102300792038"><ele>918.0</ele><time>2026-05-01T06:31:06Z</time></trkpt><trkpt lat="45.936047542948735" lon="12.052220861957164"><ele>918.0</ele><time>2026-05-01T06:31:07Z</time></trkpt><trkpt lat="45.93594672988014" lon="12.05230762039514"><ele>918.0</ele><time>2026-05-01T06:31:08Z</time></trkpt><trkpt lat="45.9358577909209" lon="12.052351504268808"><ele>911.5999999999999</ele><time>2026-05-01T06:31:09Z</time></trkpt><trkpt lat="45.935765654692894" lon="12.052369588801891"><ele>905.1999999999999</ele><time>2026-05-01T06:31:10Z</time></trkpt><trkpt lat="45.93565627380365" lon="12.052382511543962"><ele>898.8</ele><time>2026-05-01T06:31:11Z</time></trkpt><trkpt lat="45.935551644363755" lon="12.052367415775233"><ele>892.4</ele><time>2026-05-01T06:31:12Z</time></trkpt><trkpt lat="45.935445077119816" lon="12.052340184796474"><ele>886.0</ele><time>2026-05-01T06:31:13Z</time></trkpt><trkpt lat="45.93533815658509" lon="12.052309931044874"><ele>886.0</ele><time>2026-05-01T06:31:14Z</time></trkpt><trkpt lat="45.935221805128606" lon="12.052275131367848"><ele>885.9999999999999</ele><time>2026-05-01T06:31:15Z</time></trkpt><trkpt lat="45.93510930244084" lon="12.05225524010934"><ele>885.9999999999999</ele><time>2026-05-01T06:31:16Z</time></trkpt><trkpt lat="45.93500209611458" lon="12.05226002288356"><ele>886.0</ele><time>2026-05-01T06:31:17Z</time></trkpt><trkpt lat="45.934928012010516" lon="12.052271048319943"><ele>886.0</ele><time>2026-05-01T06:31:18Z</time></trkpt><trkpt lat="45.934858077851125" lon="12.052301716948808"><ele>886.1666666666666</ele><time>2026-05-01T06:31:19Z</time></trkpt><trkpt lat="45.93480805686872" lon="12.052382623930564"><ele>886.3333333333333</ele><time>2026-05-01T06:31:20Z</time></trkpt><trkpt lat="45.93479776906736" lon="12.052484685925352"><ele>886.5</ele><time>2026-05-01T06:31:21Z</time></trkpt><trkpt lat="45.93482614238035" lon="12.052590673714917"><ele>886.6666666666667</ele><time>2026-05-01T06:31:22Z</time></trkpt><trkpt lat="45.93488640264128" lon="12.05267766432502"><ele>886.8333333333334</ele><time>2026-05-01T06:31:23Z</time></trkpt><trkpt lat="45.93494335249923" lon="12.052750610752348"><ele>887.0</ele><time>2026-05-01T06:31:24Z</time></trkpt><trkpt lat="45.934940304856" lon="12.052907004241904"><ele>887.0000000000001</ele><time>2026-05-01T06:31:26Z</time></trkpt><trkpt lat="45.934886907988385" lon="12.05295671792042"><ele>887.0</ele><time>2026-05-01T06:31:27Z</time></trkpt><trkpt lat="45.93481588673116" lon="12.052937950902214"><ele>887.0</ele><time>2026-05-01T06:31:28Z</time></trkpt><trkpt lat="45.934769949811205" lon="12.052856557164745"><ele>887.0</ele><time>2026-05-01T06:31:29Z</time></trkpt><trkpt lat="45.9347290694721" lon="12.052748936990117"><ele>887.0000000000001</ele><time>2026-05-01T06:31:30Z</time></trkpt><trkpt lat="45.934682444598266" lon="12.052633431929424"><ele>887.0</ele><time>2026-05-01T06:31:31Z</time></trkpt><trkpt lat="45.934649140768016" lon="12.052489321075116"><ele>883.0</ele><time>2026-05-01T06:31:32Z</time></trkpt><trkpt lat="45.93461810004725" lon="12.052349856970011"><ele>879.0</ele><time>2026-05-01T06:31:33Z</time></trkpt><trkpt lat="45.93458401398346" lon="12.052212071111182"><ele>875.0</ele><time>2026-05-01T06:31:34Z</time></trkpt><trkpt lat="45.934557495446384" lon="12.052093088824046"><ele>871.0</ele><time>2026-05-01T06:31:35Z</time></trkpt><trkpt lat="45.93452424106089" lon="12.052016216539606"><ele>867.0</ele><time>2026-05-01T06:31:36Z</time></trkpt><trkpt lat="45.934409752663875" lon="12.05198692308478"><ele>867.0</ele><time>2026-05-01T06:31:38Z</time></trkpt><trkpt lat="45.934341279047686" lon="12.052118483973567"><ele>867.0</ele><time>2026-05-01T06:31:40Z</time></trkpt><trkpt lat="45.934369529615694" lon="12.052205421328633"><ele>867.0</ele><time>2026-05-01T06:31:41Z</time></trkpt><trkpt lat="45.93442909816764" lon="12.052301459209767"><ele>867.0</ele><time>2026-05-01T06:31:42Z</time></trkpt><trkpt lat="45.934478040791056" lon="12.052408515931605"><ele>867.0</ele><time>2026-05-01T06:31:43Z</time></trkpt><trkpt lat="45.93449343357794" lon="12.052551125894015"><ele>871.0</ele><time>2026-05-01T06:31:44Z</time></trkpt><trkpt lat="45.934478907703344" lon="12.052707253238085"><ele>875.0</ele><time>2026-05-01T06:31:45Z</time></trkpt><trkpt lat="45.93444236344883" lon="12.052870760817665"><ele>879.0</ele><time>2026-05-01T06:31:46Z</time></trkpt><trkpt lat="45.93439634544337" lon="12.053010342008815"><ele>883.0</ele><time>2026-05-01T06:31:47Z</time></trkpt><trkpt lat="45.934364372941594" lon="12.053127815703002"><ele>887.0</ele><time>2026-05-01T06:31:48Z</time></trkpt><trkpt lat="45.934374467825236" lon="12.053227422108128"><ele>885.0</ele><time>2026-05-01T06:31:49Z</time></trkpt><trkpt lat="45.934414768943995" lon="12.053330190277821"><ele>883.0</ele><time>2026-05-01T06:31:50Z</time></trkpt><trkpt lat="45.934467748732295" lon="12.053406122217414"><ele>881.0</ele><time>2026-05-01T06:31:51Z</time></trkpt><trkpt lat="45.93448236766324" lon="12.053537215618784"><ele>879.0</ele><time>2026-05-01T06:31:53Z</time></trkpt><trkpt lat="45.93439409035607" lon="12.053560818072597"><ele>877.0</ele><time>2026-05-01T06:31:54Z</time></trkpt><trkpt lat="45.934252537798116" lon="12.05353691356117"><ele>875.6</ele><time>2026-05-01T06:31:56Z</time></trkpt><trkpt lat="45.93419436976172" lon="12.053373088208428"><ele>874.2</ele><time>2026-05-01T06:31:58Z</time></trkpt><trkpt lat="45.93418372269234" lon="12.053242233933709"><ele>872.8</ele><time>2026-05-01T06:31:59Z</time></trkpt><trkpt lat="45.934189302195065" lon="12.053094970247303"><ele>871.4</ele><time>2026-05-01T06:32:00Z</time></trkpt><trkpt lat="45.93420310749448" lon="12.052960626279193"><ele>870.0</ele><time>2026-05-01T06:32:01Z</time></trkpt><trkpt lat="45.934231362874215" lon="12.052857230063413"><ele>870.0</ele><time>2026-05-01T06:32:02Z</time></trkpt><trkpt lat="45.93426527103981" lon="12.05277289893944"><ele>870.0</ele><time>2026-05-01T06:32:03Z</time></trkpt><trkpt lat="45.93427949206452" lon="12.052678703155749"><ele>870.0</ele><time>2026-05-01T06:32:04Z</time></trkpt><trkpt lat="45.934254782382865" lon="12.052579450526796"><ele>870.0</ele><time>2026-05-01T06:32:05Z</time></trkpt><trkpt lat="45.9341892823144" lon="12.05247818886495"><ele>870.0</ele><time>2026-05-01T06:32:06Z</time></trkpt><trkpt lat="45.934095244759604" lon="12.052395347905883"><ele>870.0</ele><time>2026-05-01T06:32:07Z</time></trkpt><trkpt lat="45.9339831304011" lon="12.05233858052193"><ele>867.5</ele><time>2026-05-01T06:32:08Z</time></trkpt><trkpt lat="45.933871409939066" lon="12.052294572331983"><ele>865.0</ele><time>2026-05-01T06:32:09Z</time></trkpt><trkpt lat="45.93374693065914" lon="12.0522664783559"><ele>862.5</ele><time>2026-05-01T06:32:10Z</time></trkpt><trkpt lat="45.933632112483586" lon="12.052229273928267"><ele>860.0</ele><time>2026-05-01T06:32:11Z</time></trkpt><trkpt lat="45.933512091681386" lon="12.05220564268167"><ele>860.0</ele><time>2026-05-01T06:32:12Z</time></trkpt><trkpt lat="45.93339052482828" lon="12.05220967562756"><ele>860.0</ele><time>2026-05-01T06:32:13Z</time></trkpt><trkpt lat="45.93327145530654" lon="12.052146799202417"><ele>860.0</ele><time>2026-05-01T06:32:14Z</time></trkpt><trkpt lat="45.933186470611744" lon="12.052081136521295"><ele>860.0</ele><time>2026-05-01T06:32:15Z</time></trkpt><trkpt lat="45.93310035266385" lon="12.05199303326421"><ele>858.5</ele><time>2026-05-01T06:32:16Z</time></trkpt><trkpt lat="45.93302402575775" lon="12.051858663509341"><ele>857.0</ele><time>2026-05-01T06:32:17Z</time></trkpt><trkpt lat="45.932913655711126" lon="12.051768213539674"><ele>855.5</ele><time>2026-05-01T06:32:18Z</time></trkpt><trkpt lat="45.9328255306199" lon="12.051652714168391"><ele>854.0</ele><time>2026-05-01T06:32:19Z</time></trkpt><trkpt lat="45.932742599376766" lon="12.051530913789678"><ele>849.4000000000001</ele><time>2026-05-01T06:32:20Z</time></trkpt><trkpt lat="45.93268543303098" lon="12.051408642079208"><ele>844.8000000000001</ele><time>2026-05-01T06:32:21Z</time></trkpt><trkpt lat="45.932643445401574" lon="12.051270780160705"><ele>840.2</ele><time>2026-05-01T06:32:22Z</time></trkpt><trkpt lat="45.93258316822783" lon="12.051144814972472"><ele>835.5999999999999</ele><time>2026-05-01T06:32:23Z</time></trkpt><trkpt lat="45.932488208379" lon="12.051016375909555"><ele>831.0</ele><time>2026-05-01T06:32:24Z</time></trkpt><trkpt lat="45.93240364956167" lon="12.050881465559588"><ele>826.25</ele><time>2026-05-01T06:32:25Z</time></trkpt><trkpt lat="45.93231776808584" lon="12.050740700681684"><ele>821.5</ele><time>2026-05-01T06:32:26Z</time></trkpt><trkpt lat="45.93224837360582" lon="12.050612450611505"><ele>816.75</ele><time>2026-05-01T06:32:27Z</time></trkpt><trkpt lat="45.932188207000294" lon="12.050482265950581"><ele>812.0</ele><time>2026-05-01T06:32:28Z</time></trkpt><trkpt lat="45.932145056568395" lon="12.050346295493096"><ele>812.0</ele><time>2026-05-01T06:32:29Z</time></trkpt><trkpt lat="45.93211494314269" lon="12.050228043374416"><ele>812.0</ele><time>2026-05-01T06:32:30Z</time></trkpt><trkpt lat="45.93208207475478" lon="12.050127345490397"><ele>812.0</ele><time>2026-05-01T06:32:31Z</time></trkpt><trkpt lat="45.932031091343056" lon="12.05004307342148"><ele>812.0</ele><time>2026-05-01T06:32:32Z</time></trkpt><trkpt lat="45.93196426860625" lon="12.049979140373136"><ele>812.0</ele><time>2026-05-01T06:32:33Z</time></trkpt><trkpt lat="45.93181286057968" lon="12.04992728951415"><ele>812.0000000000001</ele><time>2026-05-01T06:32:35Z</time></trkpt><trkpt lat="45.931744334630054" lon="12.04990762019093"><ele>812.0</ele><time>2026-05-01T06:32:36Z</time></trkpt><trkpt lat="45.93165637427064" lon="12.05000844555789"><ele>812.0</ele><time>2026-05-01T06:32:37.999Z</time></trkpt><trkpt lat="45.9316824493857" lon="12.050101092156982"><ele>812.0</ele><time>2026-05-01T06:32:38.999Z</time></trkpt><trkpt lat="45.93173998239146" lon="12.050194931425185"><ele>812.0000000000001</ele><time>2026-05-01T06:32:39.999Z</time></trkpt><trkpt lat="45.93182464498567" lon="12.050287073577897"><ele>812.0</ele><time>2026-05-01T06:32:40.999Z</time></trkpt><trkpt lat="45.931909157489414" lon="12.05039568446434"><ele>812.0</ele><time>2026-05-01T06:32:41.999Z</time></trkpt><trkpt lat="45.9319720296046" lon="12.050498635387703"><ele>812.0</ele><time>2026-05-01T06:32:42.999Z</time></trkpt><trkpt lat="45.93200104133522" lon="12.05059250993858"><ele>812.0</ele><time>2026-05-01T06:32:43.999Z</time></trkpt><trkpt lat="45.93202080774009" lon="12.050682613897932"><ele>812.0</ele><time>2026-05-01T06:32:44.999Z</time></trkpt><trkpt lat="45.93206821243399" lon="12.050884966115722"><ele>812.0</ele><time>2026-05-01T06:32:46.999Z</time></trkpt><trkpt lat="45.93210931281579" lon="12.050977365650132"><ele>815.1666666666667</ele><time>2026-05-01T06:32:47.999Z</time></trkpt><trkpt lat="45.932139782984166" lon="12.051079099163122"><ele>818.3333333333334</ele><time>2026-05-01T06:32:48.999Z</time></trkpt><trkpt lat="45.93214995201338" lon="12.051180088566241"><ele>821.5</ele><time>2026-05-01T06:32:49.999Z</time></trkpt><trkpt lat="45.932138928946785" lon="12.051308878895558"><ele>824.6666666666667</ele><time>2026-05-01T06:32:50.999Z</time></trkpt><trkpt lat="45.932141234007716" lon="12.051453377947315"><ele>827.8333333333334</ele><time>2026-05-01T06:32:51.999Z</time></trkpt><trkpt lat="45.93214409642929" lon="12.051608080553246"><ele>831.0</ele><time>2026-05-01T06:32:52.999Z</time></trkpt><trkpt lat="45.93214700932294" lon="12.051760312914103"><ele>832.0</ele><time>2026-05-01T06:32:53.999Z</time></trkpt><trkpt lat="45.93218283887857" lon="12.051862589129028"><ele>833.0</ele><time>2026-05-01T06:32:54.999Z</time></trkpt><trkpt lat="45.93224921135147" lon="12.051956351318317"><ele>834.0</ele><time>2026-05-01T06:32:55.999Z</time></trkpt><trkpt lat="45.93233863991836" lon="12.052029751624424"><ele>835.0</ele><time>2026-05-01T06:32:56.999Z</time></trkpt><trkpt lat="45.93241752564088" lon="12.05210334397613"><ele>836.0</ele><time>2026-05-01T06:32:57.999Z</time></trkpt><trkpt lat="45.9324690235943" lon="12.052201698386208"><ele>836.0</ele><time>2026-05-01T06:32:58.999Z</time></trkpt><trkpt lat="45.93250540083445" lon="12.052307875277766"><ele>836.0</ele><time>2026-05-01T06:32:59.999Z</time></trkpt><trkpt lat="45.93251177384171" lon="12.052442549132582"><ele>836.0</ele><time>2026-05-01T06:33:00.999Z</time></trkpt><trkpt lat="45.93249984215776" lon="12.052575453861527"><ele>836.0</ele><time>2026-05-01T06:33:01.999Z</time></trkpt><trkpt lat="45.93248909856536" lon="12.052710845810488"><ele>836.0</ele><time>2026-05-01T06:33:03Z</time></trkpt><trkpt lat="45.93250182205212" lon="12.05283769605824"><ele>834.8</ele><time>2026-05-01T06:33:04Z</time></trkpt><trkpt lat="45.93255093706832" lon="12.052951308805149"><ele>833.5999999999999</ele><time>2026-05-01T06:33:05Z</time></trkpt><trkpt lat="45.93261025431999" lon="12.05305314916493"><ele>832.4</ele><time>2026-05-01T06:33:06Z</time></trkpt><trkpt lat="45.93267119565412" lon="12.053145429052758"><ele>831.2</ele><time>2026-05-01T06:33:07Z</time></trkpt><trkpt lat="45.932734245828" lon="12.053256894550264"><ele>830.0</ele><time>2026-05-01T06:33:09Z</time></trkpt><trkpt lat="45.93265388225699" lon="12.053361160185009"><ele>830.0000000000001</ele><time>2026-05-01T06:33:11Z</time></trkpt><trkpt lat="45.93258896285489" lon="12.053328260729126"><ele>830.0</ele><time>2026-05-01T06:33:12Z</time></trkpt><trkpt lat="45.9325090151164" lon="12.053230493942086"><ele>830.0</ele><time>2026-05-01T06:33:13Z</time></trkpt><trkpt lat="45.93242985524271" lon="12.053140634930418"><ele>830.0</ele><time>2026-05-01T06:33:14Z</time></trkpt><trkpt lat="45.932371188954676" lon="12.053063188563286"><ele>830.0000000000001</ele><time>2026-05-01T06:33:15Z</time></trkpt><trkpt lat="45.93234874260733" lon="12.052972416081039"><ele>830.0</ele><time>2026-05-01T06:33:16Z</time></trkpt><trkpt lat="45.93232847936564" lon="12.052850323494447"><ele>831.0000000000001</ele><time>2026-05-01T06:33:17Z</time></trkpt><trkpt lat="45.93230427505975" lon="12.052742484661271"><ele>832.0</ele><time>2026-05-01T06:33:18Z</time></trkpt><trkpt lat="45.93227826599243" lon="12.052639459158847"><ele>833.0</ele><time>2026-05-01T06:33:19Z</time></trkpt><trkpt lat="45.93226566619625" lon="12.052539533304786"><ele>834.0</ele><time>2026-05-01T06:33:20Z</time></trkpt><trkpt lat="45.93221618954081" lon="12.052434863681096"><ele>835.0000000000001</ele><time>2026-05-01T06:33:21Z</time></trkpt><trkpt lat="45.93212168595627" lon="12.052347317904195"><ele>836.0</ele><time>2026-05-01T06:33:22Z</time></trkpt><trkpt lat="45.93200183619207" lon="12.05233010031099"><ele>836.0</ele><time>2026-05-01T06:33:23Z</time></trkpt><trkpt lat="45.93188148235938" lon="12.052315672794636"><ele>836.0</ele><time>2026-05-01T06:33:24Z</time></trkpt><trkpt lat="45.931783877154054" lon="12.052267399749073"><ele>836.0</ele><time>2026-05-01T06:33:25Z</time></trkpt><trkpt lat="45.93169674497662" lon="12.052209389248054"><ele>836.0</ele><time>2026-05-01T06:33:26Z</time></trkpt><trkpt lat="45.93163157447169" lon="12.052164178403833"><ele>836.0</ele><time>2026-05-01T06:33:27Z</time></trkpt><trkpt lat="45.93162677342217" lon="12.05197918259136"><ele>830.5</ele><time>2026-05-01T06:33:29Z</time></trkpt><trkpt lat="45.93165003523948" lon="12.051781160443849"><ele>825.0</ele><time>2026-05-01T06:33:31Z</time></trkpt><trkpt lat="45.931685536206125" lon="12.051624181591464"><ele>819.5</ele><time>2026-05-01T06:33:32Z</time></trkpt><trkpt lat="45.93167313912663" lon="12.051421721749884"><ele>814.0</ele><time>2026-05-01T06:33:34Z</time></trkpt><trkpt lat="45.931608915237305" lon="12.051299552413857"><ele>814.0</ele><time>2026-05-01T06:33:35Z</time></trkpt><trkpt lat="45.93152290097706" lon="12.05120517119696"><ele>814.0</ele><time>2026-05-01T06:33:36Z</time></trkpt><trkpt lat="45.93143663148088" lon="12.05110607075219"><ele>814.0</ele><time>2026-05-01T06:33:37Z</time></trkpt><trkpt lat="45.931346531275544" lon="12.051022891040084"><ele>814.0</ele><time>2026-05-01T06:33:38Z</time></trkpt><trkpt lat="45.931222250931356" lon="12.050983281710472"><ele>814.0</ele><time>2026-05-01T06:33:39Z</time></trkpt><trkpt lat="45.931109921707744" lon="12.05096024130184"><ele>814.0</ele><time>2026-05-01T06:33:40Z</time></trkpt><trkpt lat="45.931039432116165" lon="12.050898663850399"><ele>814.0</ele><time>2026-05-01T06:33:41Z</time></trkpt><trkpt lat="45.930962245595346" lon="12.050840322363108"><ele>814.0</ele><time>2026-05-01T06:33:42Z</time></trkpt><trkpt lat="45.93092099693771" lon="12.050702390858602"><ele>814.0</ele><time>2026-05-01T06:33:44Z</time></trkpt><trkpt lat="45.93088788640633" lon="12.050571448974768"><ele>812.2</ele><time>2026-05-01T06:33:45Z</time></trkpt><trkpt lat="45.93080239715507" lon="12.050472401395416"><ele>810.4000000000001</ele><time>2026-05-01T06:33:46Z</time></trkpt><trkpt lat="45.93071599144006" lon="12.050464988535174"><ele>808.6</ele><time>2026-05-01T06:33:47Z</time></trkpt><trkpt lat="45.93060519042471" lon="12.050497491787308"><ele>806.8</ele><time>2026-05-01T06:33:48Z</time></trkpt><trkpt lat="45.9305123193287" lon="12.050511714054641"><ele>805.0</ele><time>2026-05-01T06:33:49Z</time></trkpt><trkpt lat="45.93042008247611" lon="12.050537129431312"><ele>804.9999999999999</ele><time>2026-05-01T06:33:50Z</time></trkpt><trkpt lat="45.9303455359547" lon="12.050531139102116"><ele>805.0</ele><time>2026-05-01T06:33:51Z</time></trkpt><trkpt lat="45.9302814666284" lon="12.050487386864784"><ele>805.0</ele><time>2026-05-01T06:33:52Z</time></trkpt><trkpt lat="45.930233885094616" lon="12.050417010650053"><ele>805.0</ele><time>2026-05-01T06:33:53Z</time></trkpt><trkpt lat="45.93017817174969" lon="12.050293629602034"><ele>804.9999999999999</ele><time>2026-05-01T06:33:54Z</time></trkpt><trkpt lat="45.930150754414576" lon="12.050160872487274"><ele>805.0</ele><time>2026-05-01T06:33:55Z</time></trkpt><trkpt lat="45.930126847177505" lon="12.049994491619355"><ele>804.8</ele><time>2026-05-01T06:33:56Z</time></trkpt><trkpt lat="45.930104002857355" lon="12.0498482425134"><ele>804.6</ele><time>2026-05-01T06:33:57Z</time></trkpt><trkpt lat="45.93008366148296" lon="12.049712157363754"><ele>804.4000000000001</ele><time>2026-05-01T06:33:58Z</time></trkpt><trkpt lat="45.93006100229443" lon="12.049582242975044"><ele>804.2</ele><time>2026-05-01T06:33:59Z</time></trkpt><trkpt lat="45.930025466090584" lon="12.049449391248247"><ele>804.0</ele><time>2026-05-01T06:34:00Z</time></trkpt><trkpt lat="45.92997085562634" lon="12.049330236166023"><ele>797.6</ele><time>2026-05-01T06:34:01Z</time></trkpt><trkpt lat="45.929893992815515" lon="12.049221111045126"><ele>791.2</ele><time>2026-05-01T06:34:02Z</time></trkpt><trkpt lat="45.92983575737324" lon="12.04910624567436"><ele>784.8000000000001</ele><time>2026-05-01T06:34:03Z</time></trkpt><trkpt lat="45.92978016699356" lon="12.048985315075432"><ele>778.4000000000001</ele><time>2026-05-01T06:34:04Z</time></trkpt><trkpt lat="45.92973193741867" lon="12.048870640408076"><ele>772.0</ele><time>2026-05-01T06:34:05Z</time></trkpt><trkpt lat="45.929674787292406" lon="12.048754830648583"><ele>771.6</ele><time>2026-05-01T06:34:06Z</time></trkpt><trkpt lat="45.929628398380956" lon="12.048623921002452"><ele>771.2</ele><time>2026-05-01T06:34:07Z</time></trkpt><trkpt lat="45.929593744450806" lon="12.048496453706383"><ele>770.8</ele><time>2026-05-01T06:34:08Z</time></trkpt><trkpt lat="45.92954486461904" lon="12.048373066666743"><ele>770.4</ele><time>2026-05-01T06:34:09Z</time></trkpt><trkpt lat="45.92950784958802" lon="12.048282320343587"><ele>770.0</ele><time>2026-05-01T06:34:10Z</time></trkpt><trkpt lat="45.929400862472136" lon="12.048220995884142"><ele>770.0</ele><time>2026-05-01T06:34:12Z</time></trkpt><trkpt lat="45.9293491104231" lon="12.0483624899584"><ele>770.0</ele><time>2026-05-01T06:34:14Z</time></trkpt><trkpt lat="45.92937621942262" lon="12.048471684388598"><ele>770.0</ele><time>2026-05-01T06:34:15Z</time></trkpt><trkpt lat="45.929395128763716" lon="12.048612311616639"><ele>770.0</ele><time>2026-05-01T06:34:16Z</time></trkpt><trkpt lat="45.92943630537506" lon="12.048756621719601"><ele>770.0</ele><time>2026-05-01T06:34:17Z</time></trkpt><trkpt lat="45.92948548534692" lon="12.048918489022997"><ele>770.0</ele><time>2026-05-01T06:34:18Z</time></trkpt><trkpt lat="45.9295389639154" lon="12.04909445370115"><ele>770.0</ele><time>2026-05-01T06:34:19Z</time></trkpt><trkpt lat="45.92958503804874" lon="12.049269938092905"><ele>770.0</ele><time>2026-05-01T06:34:20Z</time></trkpt><trkpt lat="45.92964214298572" lon="12.049423982096352"><ele>770.0</ele><time>2026-05-01T06:34:21Z</time></trkpt><trkpt lat="45.929696013527305" lon="12.049566826200646"><ele>770.4</ele><time>2026-05-01T06:34:22Z</time></trkpt><trkpt lat="45.92972434542114" lon="12.049700306458506"><ele>770.8</ele><time>2026-05-01T06:34:23Z</time></trkpt><trkpt lat="45.92973061343374" lon="12.049850001252496"><ele>771.2</ele><time>2026-05-01T06:34:24Z</time></trkpt><trkpt lat="45.9297315488353" lon="12.050017834525784"><ele>771.6</ele><time>2026-05-01T06:34:25Z</time></trkpt><trkpt lat="45.92972659042825" lon="12.050172052974885"><ele>772.0</ele><time>2026-05-01T06:34:26Z</time></trkpt><trkpt lat="45.929722291175814" lon="12.050316062404898"><ele>770.2</ele><time>2026-05-01T06:34:27Z</time></trkpt><trkpt lat="45.92971198235291" lon="12.05046371976273"><ele>768.4000000000001</ele><time>2026-05-01T06:34:28Z</time></trkpt><trkpt lat="45.92970601672879" lon="12.050608460990038"><ele>766.5999999999999</ele><time>2026-05-01T06:34:29Z</time></trkpt><trkpt lat="45.92971326095388" lon="12.050743700113689"><ele>764.8</ele><time>2026-05-01T06:34:30Z</time></trkpt><trkpt lat="45.92972354537406" lon="12.050883412412084"><ele>763.0</ele><time>2026-05-01T06:34:31Z</time></trkpt><trkpt lat="45.92973409416264" lon="12.051015687350073"><ele>761.8</ele><time>2026-05-01T06:34:31.999Z</time></trkpt><trkpt lat="45.92974854866551" lon="12.051144962085909"><ele>760.5999999999999</ele><time>2026-05-01T06:34:32.999Z</time></trkpt><trkpt lat="45.92978275417967" lon="12.051253260406378"><ele>759.4000000000001</ele><time>2026-05-01T06:34:33.999Z</time></trkpt><trkpt lat="45.929840882912124" lon="12.051349946942358"><ele>758.2</ele><time>2026-05-01T06:34:34.999Z</time></trkpt><trkpt lat="45.92991035272525" lon="12.05143046528787"><ele>757.0</ele><time>2026-05-01T06:34:35.999Z</time></trkpt><trkpt lat="45.92999089341956" lon="12.051526528740723"><ele>758.0</ele><time>2026-05-01T06:34:36.999Z</time></trkpt><trkpt lat="45.93009745250283" lon="12.051602592874271"><ele>759.0</ele><time>2026-05-01T06:34:37.999Z</time></trkpt><trkpt lat="45.93020618454512" lon="12.05163970538231"><ele>760.0</ele><time>2026-05-01T06:34:38.999Z</time></trkpt><trkpt lat="45.93028691666907" lon="12.051673605387487"><ele>761.0</ele><time>2026-05-01T06:34:39.999Z</time></trkpt><trkpt lat="45.930346626042" lon="12.051723468988634"><ele>762.0</ele><time>2026-05-01T06:34:40.999Z</time></trkpt><trkpt lat="45.93041444008556" lon="12.051825239611384"><ele>762.0</ele><time>2026-05-01T06:34:42.999Z</time></trkpt><trkpt lat="45.93040104567977" lon="12.05192632461945"><ele>762.0</ele><time>2026-05-01T06:34:43.999Z</time></trkpt><trkpt lat="45.93041067959248" lon="12.05201683217694"><ele>762.0</ele><time>2026-05-01T06:34:44.999Z</time></trkpt><trkpt lat="45.93043205344125" lon="12.052139364424376"><ele>762.0</ele><time>2026-05-01T06:34:45.999Z</time></trkpt><trkpt lat="45.93054147386241" lon="12.05216955353269"><ele>762.0</ele><time>2026-05-01T06:34:46.999Z</time></trkpt><trkpt lat="45.930629827692606" lon="12.052169350343862"><ele>762.0</ele><time>2026-05-01T06:34:47.999Z</time></trkpt><trkpt lat="45.93071873645689" lon="12.052255281778104"><ele>762.0</ele><time>2026-05-01T06:34:49.999Z</time></trkpt><trkpt lat="45.93069156349419" lon="12.052382404873509"><ele>762.0</ele><time>2026-05-01T06:34:50.999Z</time></trkpt><trkpt lat="45.93067938071982" lon="12.052506408141317"><ele>762.0</ele><time>2026-05-01T06:34:51.999Z</time></trkpt><trkpt lat="45.930672690023826" lon="12.052628151167129"><ele>762.0</ele><time>2026-05-01T06:34:52.999Z</time></trkpt><trkpt lat="45.9306914892649" lon="12.052748244168608"><ele>762.0</ele><time>2026-05-01T06:34:53.999Z</time></trkpt><trkpt lat="45.93071523498249" lon="12.052872076599039"><ele>762.0</ele><time>2026-05-01T06:34:54.999Z</time></trkpt><trkpt lat="45.93073236224896" lon="12.05297252669495"><ele>758.3333333333334</ele><time>2026-05-01T06:34:55.999Z</time></trkpt><trkpt lat="45.93073630544628" lon="12.053066186262456"><ele>754.6666666666666</ele><time>2026-05-01T06:34:56.999Z</time></trkpt><trkpt lat="45.93067553380766" lon="12.05314511882575"><ele>751.0</ele><time>2026-05-01T06:34:57.999Z</time></trkpt><trkpt lat="45.930596456876366" lon="12.05321749629176"><ele>747.3333333333333</ele><time>2026-05-01T06:34:58.999Z</time></trkpt><trkpt lat="45.9305151150399" lon="12.053302053737522"><ele>743.6666666666666</ele><time>2026-05-01T06:34:59.999Z</time></trkpt><trkpt lat="45.9304390983083" lon="12.053405108855502"><ele>740.0</ele><time>2026-05-01T06:35:00.999Z</time></trkpt><trkpt lat="45.9303924015013" lon="12.053520232074511"><ele>738.6</ele><time>2026-05-01T06:35:01.999Z</time></trkpt><trkpt lat="45.93034444282469" lon="12.05358581264987"><ele>737.2</ele><time>2026-05-01T06:35:02.999Z</time></trkpt><trkpt lat="45.930301745506696" lon="12.053798881969675"><ele>735.8</ele><time>2026-05-01T06:35:04.999Z</time></trkpt><trkpt lat="45.93030945643136" lon="12.053914390118264"><ele>734.4</ele><time>2026-05-01T06:35:05.999Z</time></trkpt><trkpt lat="45.93035766886516" lon="12.054022523790325"><ele>733.0</ele><time>2026-05-01T06:35:06.999Z</time></trkpt><trkpt lat="45.93042182573199" lon="12.054126087813305"><ele>732.8</ele><time>2026-05-01T06:35:07.999Z</time></trkpt><trkpt lat="45.930479965922196" lon="12.054196780936328"><ele>732.5999999999999</ele><time>2026-05-01T06:35:09Z</time></trkpt><trkpt lat="45.93053254744601" lon="12.054310738471386"><ele>732.4000000000001</ele><time>2026-05-01T06:35:11Z</time></trkpt><trkpt lat="45.93041763598063" lon="12.054390711583089"><ele>732.2</ele><time>2026-05-01T06:35:13Z</time></trkpt><trkpt lat="45.93032286524796" lon="12.0543689490595"><ele>732.0</ele><time>2026-05-01T06:35:14Z</time></trkpt><trkpt lat="45.93023318183266" lon="12.054412148090988"><ele>732.0</ele><time>2026-05-01T06:35:15Z</time></trkpt><trkpt lat="45.93014760739061" lon="12.05446155499647"><ele>732.0</ele><time>2026-05-01T06:35:16Z</time></trkpt><trkpt lat="45.93005771235681" lon="12.054512687071517"><ele>732.0</ele><time>2026-05-01T06:35:17Z</time></trkpt><trkpt lat="45.929989558342676" lon="12.05462702997621"><ele>732.0</ele><time>2026-05-01T06:35:18Z</time></trkpt><trkpt lat="45.92993702303283" lon="12.054754942266436"><ele>732.0</ele><time>2026-05-01T06:35:19Z</time></trkpt><trkpt lat="45.9299052303196" lon="12.05489655839972"><ele>725.25</ele><time>2026-05-01T06:35:20Z</time></trkpt><trkpt lat="45.929882039587746" lon="12.055032142118643"><ele>718.5</ele><time>2026-05-01T06:35:21Z</time></trkpt><trkpt lat="45.929907317521824" lon="12.055155623749114"><ele>711.75</ele><time>2026-05-01T06:35:22Z</time></trkpt><trkpt lat="45.92986075559895" lon="12.055333531018203"><ele>705.0</ele><time>2026-05-01T06:35:24Z</time></trkpt><trkpt lat="45.929717831960055" lon="12.055347243437582"><ele>705.0</ele><time>2026-05-01T06:35:26Z</time></trkpt><trkpt lat="45.9296214672076" lon="12.055306236892703"><ele>705.0</ele><time>2026-05-01T06:35:27Z</time></trkpt><trkpt lat="45.92951227083794" lon="12.055256911811602"><ele>705.0</ele><time>2026-05-01T06:35:28Z</time></trkpt><trkpt lat="45.92941848609029" lon="12.055183620763325"><ele>705.0</ele><time>2026-05-01T06:35:29Z</time></trkpt><trkpt lat="45.92935950546521" lon="12.055095067942808"><ele>705.0</ele><time>2026-05-01T06:35:30Z</time></trkpt><trkpt lat="45.92929831431325" lon="12.055025321220814"><ele>705.0</ele><time>2026-05-01T06:35:31Z</time></trkpt><trkpt lat="45.929244360598" lon="12.054956085807383"><ele>705.0</ele><time>2026-05-01T06:35:32Z</time></trkpt><trkpt lat="45.92923301594615" lon="12.054774423531354"><ele>705.0</ele><time>2026-05-01T06:35:34Z</time></trkpt><trkpt lat="45.92931523975321" lon="12.054679783155397"><ele>705.0</ele><time>2026-05-01T06:35:35Z</time></trkpt><trkpt lat="45.929338702053926" lon="12.054530833884613"><ele>705.0</ele><time>2026-05-01T06:35:37Z</time></trkpt><trkpt lat="45.92933518760921" lon="12.054433577205243"><ele>705.2</ele><time>2026-05-01T06:35:38Z</time></trkpt><trkpt lat="45.92927200098474" lon="12.054366800529278"><ele>705.4</ele><time>2026-05-01T06:35:39Z</time></trkpt><trkpt lat="45.92916583032889" lon="12.054462924074443"><ele>705.5999999999999</ele><time>2026-05-01T06:35:40Z</time></trkpt><trkpt lat="45.92909781351824" lon="12.05455101128497"><ele>705.8</ele><time>2026-05-01T06:35:41Z</time></trkpt><trkpt lat="45.92900316890228" lon="12.054610794205118"><ele>706.0</ele><time>2026-05-01T06:35:42Z</time></trkpt><trkpt lat="45.92891009622887" lon="12.054677573483582"><ele>702.3333333333334</ele><time>2026-05-01T06:35:43Z</time></trkpt><trkpt lat="45.92884410547794" lon="12.054747426644704"><ele>698.6666666666667</ele><time>2026-05-01T06:35:44Z</time></trkpt><trkpt lat="45.92878331512578" lon="12.054847519902278"><ele>695.0</ele><time>2026-05-01T06:35:45Z</time></trkpt><trkpt lat="45.92876020127129" lon="12.054952153945091"><ele>691.3333333333334</ele><time>2026-05-01T06:35:46Z</time></trkpt><trkpt lat="45.92875780252204" lon="12.055074742271925"><ele>687.6666666666666</ele><time>2026-05-01T06:35:47Z</time></trkpt><trkpt lat="45.92875675755626" lon="12.055220250942915"><ele>684.0</ele><time>2026-05-01T06:35:48Z</time></trkpt><trkpt lat="45.92877191766642" lon="12.055379168513044"><ele>684.0</ele><time>2026-05-01T06:35:49Z</time></trkpt><trkpt lat="45.92878905782839" lon="12.055559191184077"><ele>684.0</ele><time>2026-05-01T06:35:50Z</time></trkpt><trkpt lat="45.92880472618544" lon="12.05574588585599"><ele>684.0</ele><time>2026-05-01T06:35:51Z</time></trkpt><trkpt lat="45.928868262902625" lon="12.055869452143067"><ele>684.0</ele><time>2026-05-01T06:35:52Z</time></trkpt><trkpt lat="45.92890559689847" lon="12.055990860893742"><ele>685.25</ele><time>2026-05-01T06:35:53Z</time></trkpt><trkpt lat="45.92896987076753" lon="12.056082001029385"><ele>686.5</ele><time>2026-05-01T06:35:54Z</time></trkpt><trkpt lat="45.929066739159545" lon="12.056150072556001"><ele>687.75</ele><time>2026-05-01T06:35:55Z</time></trkpt><trkpt lat="45.92918199017254" lon="12.056212158328547"><ele>689.0</ele><time>2026-05-01T06:35:56Z</time></trkpt><trkpt lat="45.929308006884845" lon="12.056266871735653"><ele>689.0</ele><time>2026-05-01T06:35:57Z</time></trkpt><trkpt lat="45.92943709421769" lon="12.056294808483987"><ele>689.0</ele><time>2026-05-01T06:35:58Z</time></trkpt><trkpt lat="45.92952073583575" lon="12.056276262640738"><ele>689.0</ele><time>2026-05-01T06:35:59Z</time></trkpt><trkpt lat="45.92958404956469" lon="12.056289356995684"><ele>689.0</ele><time>2026-05-01T06:36:00Z</time></trkpt><trkpt lat="45.92962275793982" lon="12.056426811449365"><ele>689.0</ele><time>2026-05-01T06:36:02Z</time></trkpt><trkpt lat="45.92951721657653" lon="12.056510699399599"><ele>689.0</ele><time>2026-05-01T06:36:04Z</time></trkpt><trkpt lat="45.92943585409959" lon="12.05650352009924"><ele>689.0</ele><time>2026-05-01T06:36:05Z</time></trkpt><trkpt lat="45.92933613263492" lon="12.056531540460293"><ele>689.0</ele><time>2026-05-01T06:36:06Z</time></trkpt><trkpt lat="45.92923699613635" lon="12.056529383932642"><ele>689.0</ele><time>2026-05-01T06:36:07Z</time></trkpt><trkpt lat="45.929116590044124" lon="12.056513042494585"><ele>689.0</ele><time>2026-05-01T06:36:08Z</time></trkpt><trkpt lat="45.9289671426393" lon="12.056543071515199"><ele>685.75</ele><time>2026-05-01T06:36:09Z</time></trkpt><trkpt lat="45.928832864270355" lon="12.056556698970295"><ele>682.5</ele><time>2026-05-01T06:36:10Z</time></trkpt><trkpt lat="45.92870023257162" lon="12.056539009876802"><ele>679.25</ele><time>2026-05-01T06:36:11Z</time></trkpt><trkpt lat="45.92859138399653" lon="12.056521608014778"><ele>676.0</ele><time>2026-05-01T06:36:12Z</time></trkpt><trkpt lat="45.928484505071225" lon="12.056491748569568"><ele>676.0</ele><time>2026-05-01T06:36:13Z</time></trkpt><trkpt lat="45.9283976183011" lon="12.056434660537395"><ele>676.0</ele><time>2026-05-01T06:36:14Z</time></trkpt><trkpt lat="45.92832038411137" lon="12.056374953865"><ele>676.0</ele><time>2026-05-01T06:36:15Z</time></trkpt><trkpt lat="45.92827616616841" lon="12.056273267078781"><ele>676.0</ele><time>2026-05-01T06:36:16Z</time></trkpt><trkpt lat="45.92822390743326" lon="12.05620882639458"><ele>676.0</ele><time>2026-05-01T06:36:17Z</time></trkpt><trkpt lat="45.92811848039729" lon="12.056232088094518"><ele>676.0</ele><time>2026-05-01T06:36:19Z</time></trkpt><trkpt lat="45.92812743340567" lon="12.056398733143808"><ele>671.8333333333334</ele><time>2026-05-01T06:36:21Z</time></trkpt><trkpt lat="45.928150982938526" lon="12.056517809111101"><ele>667.6666666666667</ele><time>2026-05-01T06:36:22Z</time></trkpt><trkpt lat="45.92817693595967" lon="12.0566065582864"><ele>663.5</ele><time>2026-05-01T06:36:23Z</time></trkpt><trkpt lat="45.92820574599966" lon="12.056705077326209"><ele>659.3333333333334</ele><time>2026-05-01T06:36:24Z</time></trkpt><trkpt lat="45.92822752313953" lon="12.056844158163406"><ele>655.1666666666666</ele><time>2026-05-01T06:36:25Z</time></trkpt><trkpt lat="45.92825201179577" lon="12.056996065322306"><ele>651.0</ele><time>2026-05-01T06:36:26Z</time></trkpt><trkpt lat="45.92829267519185" lon="12.057084394946518"><ele>650.8333333333334</ele><time>2026-05-01T06:36:27Z</time></trkpt><trkpt lat="45.928329702382314" lon="12.057163123853869"><ele>650.6666666666666</ele><time>2026-05-01T06:36:28Z</time></trkpt><trkpt lat="45.92840569912801" lon="12.057173932186936"><ele>650.5</ele><time>2026-05-01T06:36:29Z</time></trkpt><trkpt lat="45.92849102352674" lon="12.057173656476708"><ele>650.3333333333333</ele><time>2026-05-01T06:36:30Z</time></trkpt><trkpt lat="45.92855977315745" lon="12.057145348556014"><ele>650.1666666666666</ele><time>2026-05-01T06:36:31Z</time></trkpt><trkpt lat="45.92864561433602" lon="12.057193328695957"><ele>650.0</ele><time>2026-05-01T06:36:32.999Z</time></trkpt><trkpt lat="45.92858136830689" lon="12.057344150817892"><ele>650.0</ele><time>2026-05-01T06:36:34.999Z</time></trkpt><trkpt lat="45.928497136898834" lon="12.057401575003754"><ele>650.0</ele><time>2026-05-01T06:36:35.999Z</time></trkpt><trkpt lat="45.92839620589286" lon="12.057458210592314"><ele>650.0</ele><time>2026-05-01T06:36:36.999Z</time></trkpt><trkpt lat="45.92827698256093" lon="12.057510662499684"><ele>650.0</ele><time>2026-05-01T06:36:37.999Z</time></trkpt><trkpt lat="45.92816880572513" lon="12.05752382156638"><ele>650.0</ele><time>2026-05-01T06:36:38.999Z</time></trkpt><trkpt lat="45.928058508827206" lon="12.057537741344365"><ele>647.4</ele><time>2026-05-01T06:36:39.999Z</time></trkpt><trkpt lat="45.92795603700773" lon="12.05755255114878"><ele>644.8</ele><time>2026-05-01T06:36:40.999Z</time></trkpt><trkpt lat="45.927879898366534" lon="12.057523113443354"><ele>642.2</ele><time>2026-05-01T06:36:41.999Z</time></trkpt><trkpt lat="45.92778885506279" lon="12.057431224351662"><ele>639.6</ele><time>2026-05-01T06:36:43.999Z</time></trkpt><trkpt lat="45.92780707945424" lon="12.057326496415115"><ele>637.0</ele><time>2026-05-01T06:36:45.999Z</time></trkpt><trkpt lat="45.927854823614226" lon="12.05715847166784"><ele>637.0</ele><time>2026-05-01T06:36:47.999Z</time></trkpt><trkpt lat="45.92786628521671" lon="12.056998581890248"><ele>637.0</ele><time>2026-05-01T06:36:48.999Z</time></trkpt><trkpt lat="45.927850593714034" lon="12.056863489991072"><ele>637.0</ele><time>2026-05-01T06:36:49.999Z</time></trkpt><trkpt lat="45.92775595444223" lon="12.056757610985994"><ele>637.0</ele><time>2026-05-01T06:36:50.999Z</time></trkpt><trkpt lat="45.92764935977649" lon="12.056654252165698"><ele>633.25</ele><time>2026-05-01T06:36:51.999Z</time></trkpt><trkpt lat="45.927540578621596" lon="12.056583084588558"><ele>629.5</ele><time>2026-05-01T06:36:52.999Z</time></trkpt><trkpt lat="45.92743829664988" lon="12.056504605421171"><ele>625.75</ele><time>2026-05-01T06:36:53.999Z</time></trkpt><trkpt lat="45.92732237126469" lon="12.056487185857183"><ele>622.0</ele><time>2026-05-01T06:36:54.999Z</time></trkpt><trkpt lat="45.92721400639693" lon="12.056491461402826"><ele>622.0</ele><time>2026-05-01T06:36:55.999Z</time></trkpt><trkpt lat="45.927091744630616" lon="12.056470031875156"><ele>622.0</ele><time>2026-05-01T06:36:56.999Z</time></trkpt><trkpt lat="45.927004138716384" lon="12.05643450758671"><ele>622.0</ele><time>2026-05-01T06:36:57.999Z</time></trkpt><trkpt lat="45.92692694465887" lon="12.056348112509726"><ele>622.0</ele><time>2026-05-01T06:36:59.999Z</time></trkpt><trkpt lat="45.92689142937928" lon="12.056266808262949"><ele>622.0</ele><time>2026-05-01T06:37:00.999Z</time></trkpt><trkpt lat="45.926884775686375" lon="12.05616782704366"><ele>622.0</ele><time>2026-05-01T06:37:01.999Z</time></trkpt><trkpt lat="45.92692245305183" lon="12.05603507472501"><ele>622.0</ele><time>2026-05-01T06:37:02.999Z</time></trkpt><trkpt lat="45.9269655502546" lon="12.055875371235068"><ele>622.0</ele><time>2026-05-01T06:37:03.999Z</time></trkpt><trkpt lat="45.92699925298388" lon="12.05571736012626"><ele>622.0</ele><time>2026-05-01T06:37:04.999Z</time></trkpt><trkpt lat="45.92703323305012" lon="12.055570208532142"><ele>622.0</ele><time>2026-05-01T06:37:05.999Z</time></trkpt><trkpt lat="45.92701701149413" lon="12.055473140543635"><ele>622.0</ele><time>2026-05-01T06:37:06.999Z</time></trkpt><trkpt lat="45.92696922612699" lon="12.055390706650114"><ele>621.6666666666667</ele><time>2026-05-01T06:37:07.999Z</time></trkpt><trkpt lat="45.92689859244827" lon="12.055335470203595"><ele>621.3333333333334</ele><time>2026-05-01T06:37:08.999Z</time></trkpt><trkpt lat="45.92682914736817" lon="12.05527788520565"><ele>621.0</ele><time>2026-05-01T06:37:09.999Z</time></trkpt><trkpt lat="45.926741902583" lon="12.055202682402351"><ele>620.6666666666666</ele><time>2026-05-01T06:37:10.999Z</time></trkpt><trkpt lat="45.92668198315931" lon="12.055138230489804"><ele>620.3333333333333</ele><time>2026-05-01T06:37:11.999Z</time></trkpt><trkpt lat="45.92662101323333" lon="12.055062317145355"><ele>620.0</ele><time>2026-05-01T06:37:12.999Z</time></trkpt><trkpt lat="45.92657964138402" lon="12.054975618442764"><ele>612.6</ele><time>2026-05-01T06:37:13.999Z</time></trkpt><trkpt lat="45.926555599700734" lon="12.054869927159295"><ele>605.2</ele><time>2026-05-01T06:37:15Z</time></trkpt><trkpt lat="45.9265697202114" lon="12.054760634763637"><ele>597.8</ele><time>2026-05-01T06:37:16Z</time></trkpt><trkpt lat="45.92657323483629" lon="12.054667143357957"><ele>590.4</ele><time>2026-05-01T06:37:17Z</time></trkpt><trkpt lat="45.92647528518502" lon="12.054524349157662"><ele>583.0</ele><time>2026-05-01T06:37:19Z</time></trkpt><trkpt lat="45.92638693373505" lon="12.054593383311143"><ele>583.0</ele><time>2026-05-01T06:37:20Z</time></trkpt><trkpt lat="45.92633944719553" lon="12.054685487485713"><ele>583.0</ele><time>2026-05-01T06:37:21Z</time></trkpt><trkpt lat="45.92631650008691" lon="12.054831014412475"><ele>583.0</ele><time>2026-05-01T06:37:22Z</time></trkpt><trkpt lat="45.926333898665874" lon="12.054966786665833"><ele>583.0</ele><time>2026-05-01T06:37:23Z</time></trkpt><trkpt lat="45.92635126599392" lon="12.055095857978213"><ele>583.0</ele><time>2026-05-01T06:37:24Z</time></trkpt><trkpt lat="45.92639255286446" lon="12.055211028494261"><ele>584.6666666666667</ele><time>2026-05-01T06:37:25Z</time></trkpt><trkpt lat="45.92646121969732" lon="12.05532116245085"><ele>586.3333333333334</ele><time>2026-05-01T06:37:26Z</time></trkpt><trkpt lat="45.92654191625763" lon="12.055406465770549"><ele>588.0</ele><time>2026-05-01T06:37:27Z</time></trkpt><trkpt lat="45.9266041151028" lon="12.055482825281661"><ele>589.6666666666666</ele><time>2026-05-01T06:37:28Z</time></trkpt><trkpt lat="45.92664320126113" lon="12.055581869964744"><ele>591.3333333333333</ele><time>2026-05-01T06:37:29Z</time></trkpt><trkpt lat="45.92664755903231" lon="12.05568942295953"><ele>593.0</ele><time>2026-05-01T06:37:30Z</time></trkpt><trkpt lat="45.92652480745444" lon="12.055778738830496"><ele>593.0</ele><time>2026-05-01T06:37:32Z</time></trkpt><trkpt lat="45.92644910818425" lon="12.055778769460115"><ele>593.0</ele><time>2026-05-01T06:37:33Z</time></trkpt><trkpt lat="45.92636578793907" lon="12.055788580484288"><ele>593.0</ele><time>2026-05-01T06:37:34Z</time></trkpt><trkpt lat="45.92628288440047" lon="12.055787425252067"><ele>593.0</ele><time>2026-05-01T06:37:35Z</time></trkpt><trkpt lat="45.92620661934687" lon="12.055838811127979"><ele>593.0</ele><time>2026-05-01T06:37:36Z</time></trkpt><trkpt lat="45.92613663287116" lon="12.055900727001779"><ele>593.0</ele><time>2026-05-01T06:37:37Z</time></trkpt><trkpt lat="45.926081513960256" lon="12.056003454374823"><ele>592.5</ele><time>2026-05-01T06:37:38Z</time></trkpt><trkpt lat="45.926033634664776" lon="12.056102376407534"><ele>592.0</ele><time>2026-05-01T06:37:39Z</time></trkpt><trkpt lat="45.92596844669866" lon="12.056183565546402"><ele>591.5</ele><time>2026-05-01T06:37:40Z</time></trkpt><trkpt lat="45.92588241860599" lon="12.056229014948261"><ele>591.0</ele><time>2026-05-01T06:37:41Z</time></trkpt><trkpt lat="45.92579489561649" lon="12.056244662517726"><ele>590.5</ele><time>2026-05-01T06:37:42Z</time></trkpt><trkpt lat="45.925712326349846" lon="12.05624298245645"><ele>590.0</ele><time>2026-05-01T06:37:43Z</time></trkpt><trkpt lat="45.92563726081166" lon="12.056229965817716"><ele>586.1666666666666</ele><time>2026-05-01T06:37:44Z</time></trkpt><trkpt lat="45.925562296129605" lon="12.05620812871214"><ele>582.3333333333333</ele><time>2026-05-01T06:37:45Z</time></trkpt><trkpt lat="45.925498955316236" lon="12.056188139244409"><ele>578.5</ele><time>2026-05-01T06:37:46Z</time></trkpt><trkpt lat="45.9254185767708" lon="12.056193142915427"><ele>574.6666666666666</ele><time>2026-05-01T06:37:47Z</time></trkpt><trkpt lat="45.92533773873563" lon="12.056150308134342"><ele>570.8333333333334</ele><time>2026-05-01T06:37:48Z</time></trkpt><trkpt lat="45.92525250072155" lon="12.056123063183316"><ele>567.0</ele><time>2026-05-01T06:37:49Z</time></trkpt><trkpt lat="45.92518216660606" lon="12.056089486353638"><ele>567.0</ele><time>2026-05-01T06:37:50Z</time></trkpt><trkpt lat="45.925108446154425" lon="12.056052866742098"><ele>567.0</ele><time>2026-05-01T06:37:51Z</time></trkpt><trkpt lat="45.925033459655836" lon="12.056008391966621"><ele>567.0</ele><time>2026-05-01T06:37:52Z</time></trkpt><trkpt lat="45.92498546577372" lon="12.055944164394482"><ele>567.0</ele><time>2026-05-01T06:37:53Z</time></trkpt><trkpt lat="45.924961063669286" lon="12.055844887124529"><ele>567.0</ele><time>2026-05-01T06:37:54Z</time></trkpt><trkpt lat="45.92495218495701" lon="12.055678458448234"><ele>567.0</ele><time>2026-05-01T06:37:56Z</time></trkpt><trkpt lat="45.92501871549337" lon="12.055495282398256"><ele>566.3333333333334</ele><time>2026-05-01T06:37:58Z</time></trkpt><trkpt lat="45.92507971825951" lon="12.055438871149102"><ele>565.6666666666666</ele><time>2026-05-01T06:37:59Z</time></trkpt><trkpt lat="45.925158631581006" lon="12.055482349864546"><ele>565.0</ele><time>2026-05-01T06:38:00Z</time></trkpt><trkpt lat="45.9252199425473" lon="12.055430191420244"><ele>564.3333333333333</ele><time>2026-05-01T06:38:01Z</time></trkpt><trkpt lat="45.92529338267835" lon="12.055306623912013"><ele>563.6666666666666</ele><time>2026-05-01T06:38:03Z</time></trkpt><trkpt lat="45.92523420892751" lon="12.055192653498292"><ele>563.0</ele><time>2026-05-01T06:38:04Z</time></trkpt><trkpt lat="45.92515529301539" lon="12.05512233503348"><ele>560.0</ele><time>2026-05-01T06:38:05Z</time></trkpt><trkpt lat="45.92505091170849" lon="12.05508230503772"><ele>557.0</ele><time>2026-05-01T06:38:06Z</time></trkpt><trkpt lat="45.92494347895047" lon="12.055085014785051"><ele>554.0</ele><time>2026-05-01T06:38:07Z</time></trkpt><trkpt lat="45.92485557257253" lon="12.05512088882036"><ele>551.0</ele><time>2026-05-01T06:38:08Z</time></trkpt><trkpt lat="45.924779289537646" lon="12.055158619662757"><ele>548.0</ele><time>2026-05-01T06:38:09Z</time></trkpt><trkpt lat="45.924705036512854" lon="12.055228265892413"><ele>548.0</ele><time>2026-05-01T06:38:10Z</time></trkpt><trkpt lat="45.924620921271746" lon="12.055354870504273"><ele>548.0</ele><time>2026-05-01T06:38:11Z</time></trkpt><trkpt lat="45.92456998703489" lon="12.055477626619814"><ele>548.0</ele><time>2026-05-01T06:38:12Z</time></trkpt><trkpt lat="45.92451438736672" lon="12.055572849568307"><ele>548.0</ele><time>2026-05-01T06:38:13Z</time></trkpt><trkpt lat="45.92448162205994" lon="12.055713507940895"><ele>548.0</ele><time>2026-05-01T06:38:14Z</time></trkpt><trkpt lat="45.924488341257735" lon="12.055849427458325"><ele>550.1999999999999</ele><time>2026-05-01T06:38:15Z</time></trkpt><trkpt lat="45.92451027598583" lon="12.055963010562166"><ele>552.4</ele><time>2026-05-01T06:38:16Z</time></trkpt><trkpt lat="45.92454454468587" lon="12.056120269155455"><ele>554.5999999999999</ele><time>2026-05-01T06:38:17Z</time></trkpt><trkpt lat="45.924574633792666" lon="12.056297084262894"><ele>556.8</ele><time>2026-05-01T06:38:18Z</time></trkpt><trkpt lat="45.92462352098664" lon="12.056440791807985"><ele>559.0</ele><time>2026-05-01T06:38:19Z</time></trkpt><trkpt lat="45.924687515196624" lon="12.056533639238127"><ele>557.3333333333334</ele><time>2026-05-01T06:38:20Z</time></trkpt><trkpt lat="45.92475696572075" lon="12.056667460653408"><ele>555.6666666666667</ele><time>2026-05-01T06:38:21Z</time></trkpt><trkpt lat="45.92481965511535" lon="12.056752165338558"><ele>554.0</ele><time>2026-05-01T06:38:22Z</time></trkpt><trkpt lat="45.92487338365475" lon="12.056828375767369"><ele>552.3333333333334</ele><time>2026-05-01T06:38:23Z</time></trkpt><trkpt lat="45.92493771625383" lon="12.056919091223113"><ele>550.6666666666666</ele><time>2026-05-01T06:38:25Z</time></trkpt><trkpt lat="45.92488539635737" lon="12.056997611522345"><ele>549.0</ele><time>2026-05-01T06:38:26Z</time></trkpt><trkpt lat="45.92481493397871" lon="12.05710361919344"><ele>549.0</ele><time>2026-05-01T06:38:27Z</time></trkpt><trkpt lat="45.92473378753691" lon="12.057200283545159"><ele>549.0</ele><time>2026-05-01T06:38:28Z</time></trkpt><trkpt lat="45.924666397804295" lon="12.057262221965104"><ele>549.0</ele><time>2026-05-01T06:38:29Z</time></trkpt><trkpt lat="45.924599358079846" lon="12.057311079415323"><ele>549.0</ele><time>2026-05-01T06:38:30Z</time></trkpt><trkpt lat="45.92451447487466" lon="12.057355358274062"><ele>549.0</ele><time>2026-05-01T06:38:31Z</time></trkpt><trkpt lat="45.92442913140466" lon="12.057343425473961"><ele>549.0</ele><time>2026-05-01T06:38:32Z</time></trkpt><trkpt lat="45.92435077978922" lon="12.057268824547746"><ele>549.0</ele><time>2026-05-01T06:38:33Z</time></trkpt><trkpt lat="45.924285211412105" lon="12.057198451099621"><ele>549.0</ele><time>2026-05-01T06:38:34Z</time></trkpt><trkpt lat="45.92420759563775" lon="12.057128652440895"><ele>549.0</ele><time>2026-05-01T06:38:35Z</time></trkpt><trkpt lat="45.924096848074505" lon="12.057124061453873"><ele>549.0</ele><time>2026-05-01T06:38:36Z</time></trkpt><trkpt lat="45.92398419708321" lon="12.05713812054718"><ele>549.0</ele><time>2026-05-01T06:38:37Z</time></trkpt><trkpt lat="45.92387769467376" lon="12.057153853843342"><ele>544.5</ele><time>2026-05-01T06:38:38Z</time></trkpt><trkpt lat="45.923773924571044" lon="12.05718002641153"><ele>540.0</ele><time>2026-05-01T06:38:39Z</time></trkpt><trkpt lat="45.92367663757382" lon="12.05723395929371"><ele>535.5</ele><time>2026-05-01T06:38:40Z</time></trkpt><trkpt lat="45.92357559729231" lon="12.057307940930345"><ele>531.0</ele><time>2026-05-01T06:38:41Z</time></trkpt><trkpt lat="45.92346870802188" lon="12.0574069780763"><ele>529.75</ele><time>2026-05-01T06:38:42Z</time></trkpt><trkpt lat="45.92336102743108" lon="12.057513803268016"><ele>528.5</ele><time>2026-05-01T06:38:43Z</time></trkpt><trkpt lat="45.9232622864444" lon="12.05761822011311"><ele>527.25</ele><time>2026-05-01T06:38:44Z</time></trkpt><trkpt lat="45.92316417910453" lon="12.057727798806521"><ele>526.0</ele><time>2026-05-01T06:38:44.999Z</time></trkpt><trkpt lat="45.92307661732749" lon="12.057849655163716"><ele>526.0</ele><time>2026-05-01T06:38:45.999Z</time></trkpt><trkpt lat="45.9229804569213" lon="12.057944165526145"><ele>526.0</ele><time>2026-05-01T06:38:46.999Z</time></trkpt><trkpt lat="45.92288916603207" lon="12.058017485785403"><ele>526.0</ele><time>2026-05-01T06:38:47.999Z</time></trkpt><trkpt lat="45.922798267756775" lon="12.05806530012955"><ele>526.0</ele><time>2026-05-01T06:38:48.999Z</time></trkpt><trkpt lat="45.922711566935895" lon="12.058066636557966"><ele>526.0</ele><time>2026-05-01T06:38:49.999Z</time></trkpt><trkpt lat="45.92262087286805" lon="12.058028733045475"><ele>527.0</ele><time>2026-05-01T06:38:50.999Z</time></trkpt><trkpt lat="45.92253725641471" lon="12.057988298231878"><ele>528.0</ele><time>2026-05-01T06:38:51.999Z</time></trkpt><trkpt lat="45.92244878307641" lon="12.057963634367006"><ele>529.0</ele><time>2026-05-01T06:38:52.999Z</time></trkpt><trkpt lat="45.922345680974075" lon="12.057921715165566"><ele>530.0</ele><time>2026-05-01T06:38:53.999Z</time></trkpt><trkpt lat="45.922228459441435" lon="12.05792007358861"><ele>531.0</ele><time>2026-05-01T06:38:54.999Z</time></trkpt><trkpt lat="45.922111296445536" lon="12.057903396543466"><ele>531.0</ele><time>2026-05-01T06:38:55.999Z</time></trkpt><trkpt lat="45.92197889295229" lon="12.057896698890852"><ele>531.0</ele><time>2026-05-01T06:38:56.999Z</time></trkpt><trkpt lat="45.92184260868495" lon="12.057893143372592"><ele>531.0</ele><time>2026-05-01T06:38:57.999Z</time></trkpt><trkpt lat="45.92171251437296" lon="12.057851773684739"><ele>531.0</ele><time>2026-05-01T06:38:58.999Z</time></trkpt><trkpt lat="45.92160300516555" lon="12.057810281718439"><ele>530.0</ele><time>2026-05-01T06:38:59.999Z</time></trkpt><trkpt lat="45.92147899000969" lon="12.057764617989738"><ele>529.0</ele><time>2026-05-01T06:39:00.999Z</time></trkpt><trkpt lat="45.92135305375771" lon="12.057714647706291"><ele>528.0</ele><time>2026-05-01T06:39:01.999Z</time></trkpt><trkpt lat="45.92122734348026" lon="12.057659114705942"><ele>527.0</ele><time>2026-05-01T06:39:02.999Z</time></trkpt><trkpt lat="45.92110261620603" lon="12.05759354319428"><ele>527.0</ele><time>2026-05-01T06:39:03.999Z</time></trkpt><trkpt lat="45.92097849681455" lon="12.057559140878066"><ele>527.0</ele><time>2026-05-01T06:39:04.999Z</time></trkpt><trkpt lat="45.92085565537144" lon="12.057548101465699"><ele>527.0</ele><time>2026-05-01T06:39:05.999Z</time></trkpt><trkpt lat="45.92073399932641" lon="12.05757614901605"><ele>527.0</ele><time>2026-05-01T06:39:06.999Z</time></trkpt><trkpt lat="45.920611234253776" lon="12.057620738806062"><ele>525.0</ele><time>2026-05-01T06:39:07.999Z</time></trkpt><trkpt lat="45.9204817890236" lon="12.057683953592994"><ele>523.0</ele><time>2026-05-01T06:39:08.999Z</time></trkpt><trkpt lat="45.92035669398931" lon="12.057728333759227"><ele>521.0</ele><time>2026-05-01T06:39:09.999Z</time></trkpt><trkpt lat="45.92022890570102" lon="12.057743767383792"><ele>519.0</ele><time>2026-05-01T06:39:10.999Z</time></trkpt><trkpt lat="45.920112556611436" lon="12.057762145887342"><ele>517.4</ele><time>2026-05-01T06:39:11.999Z</time></trkpt><trkpt lat="45.92000003907128" lon="12.057778058688683"><ele>515.8</ele><time>2026-05-01T06:39:12.999Z</time></trkpt><trkpt lat="45.919885793237654" lon="12.057796347542109"><ele>514.2</ele><time>2026-05-01T06:39:13.999Z</time></trkpt><trkpt lat="45.91978625891322" lon="12.057812573343151"><ele>512.6</ele><time>2026-05-01T06:39:14.999Z</time></trkpt><trkpt lat="45.9196861207012" lon="12.057835014939068"><ele>511.0</ele><time>2026-05-01T06:39:15.999Z</time></trkpt><trkpt lat="45.91960570280578" lon="12.057871948742307"><ele>511.00000000000006</ele><time>2026-05-01T06:39:16.999Z</time></trkpt><trkpt lat="45.91955012932912" lon="12.057937822156326"><ele>511.0</ele><time>2026-05-01T06:39:17.999Z</time></trkpt><trkpt lat="45.91952950878463" lon="12.058033963383545"><ele>511.0</ele><time>2026-05-01T06:39:18.999Z</time></trkpt><trkpt lat="45.91953748028738" lon="12.058140053390975"><ele>511.0</ele><time>2026-05-01T06:39:19.999Z</time></trkpt><trkpt lat="45.919614869732015" lon="12.058209053435398"><ele>511.00000000000006</ele><time>2026-05-01T06:39:21Z</time></trkpt><trkpt lat="45.919711505957906" lon="12.058193588828846"><ele>511.0</ele><time>2026-05-01T06:39:22Z</time></trkpt><trkpt lat="45.91981155896768" lon="12.05814880078548"><ele>511.0</ele><time>2026-05-01T06:39:23Z</time></trkpt><trkpt lat="45.91991744742365" lon="12.058108844971093"><ele>511.0</ele><time>2026-05-01T06:39:24Z</time></trkpt><trkpt lat="45.9200116697157" lon="12.058086964380843"><ele>511.0</ele><time>2026-05-01T06:39:25Z</time></trkpt><trkpt lat="45.92010802175277" lon="12.058082263039402"><ele>511.0</ele><time>2026-05-01T06:39:26Z</time></trkpt><trkpt lat="45.92020484598028" lon="12.05807731350676"><ele>511.0</ele><time>2026-05-01T06:39:27Z</time></trkpt><trkpt lat="45.920306440906394" lon="12.058073272774555"><ele>512.6</ele><time>2026-05-01T06:39:28Z</time></trkpt><trkpt lat="45.92041294220814" lon="12.058074940088677"><ele>514.2</ele><time>2026-05-01T06:39:29Z</time></trkpt><trkpt lat="45.92052601449982" lon="12.058098502070465"><ele>515.8</ele><time>2026-05-01T06:39:30Z</time></trkpt><trkpt lat="45.920630275845056" lon="12.058123730930959"><ele>517.4</ele><time>2026-05-01T06:39:31Z</time></trkpt><trkpt lat="45.92072463316141" lon="12.058155895156604"><ele>519.0</ele><time>2026-05-01T06:39:32Z</time></trkpt><trkpt lat="45.92083007680373" lon="12.05820771592207"><ele>521.0</ele><time>2026-05-01T06:39:33Z</time></trkpt><trkpt lat="45.920962550294476" lon="12.05823420467765"><ele>523.0</ele><time>2026-05-01T06:39:34Z</time></trkpt><trkpt lat="45.92107697199719" lon="12.05829241211284"><ele>525.0</ele><time>2026-05-01T06:39:35Z</time></trkpt><trkpt lat="45.92118417138649" lon="12.058348888730402"><ele>527.0</ele><time>2026-05-01T06:39:36Z</time></trkpt><trkpt lat="45.92128718013415" lon="12.058404201477417"><ele>524.8000000000001</ele><time>2026-05-01T06:39:37Z</time></trkpt><trkpt lat="45.921386539117265" lon="12.05845949837394"><ele>522.6</ele><time>2026-05-01T06:39:38Z</time></trkpt><trkpt lat="45.92147930109864" lon="12.058518720314062"><ele>520.4000000000001</ele><time>2026-05-01T06:39:39Z</time></trkpt><trkpt lat="45.92156912939811" lon="12.058580881294326"><ele>518.2</ele><time>2026-05-01T06:39:40Z</time></trkpt><trkpt lat="45.921662348650976" lon="12.058645032891269"><ele>516.0</ele><time>2026-05-01T06:39:41Z</time></trkpt><trkpt lat="45.92174831169645" lon="12.058711516137423"><ele>516.0</ele><time>2026-05-01T06:39:42Z</time></trkpt><trkpt lat="45.92183720231243" lon="12.058775245649988"><ele>516.0</ele><time>2026-05-01T06:39:43Z</time></trkpt><trkpt lat="45.921929000964276" lon="12.058829613900478"><ele>516.0</ele><time>2026-05-01T06:39:44Z</time></trkpt><trkpt lat="45.92201145973867" lon="12.058911698841117"><ele>516.0</ele><time>2026-05-01T06:39:45Z</time></trkpt><trkpt lat="45.922070603111436" lon="12.059032702925364"><ele>516.0</ele><time>2026-05-01T06:39:46Z</time></trkpt><trkpt lat="45.92209642138354" lon="12.05918694577959"><ele>511.25</ele><time>2026-05-01T06:39:47Z</time></trkpt><trkpt lat="45.922106197473745" lon="12.05935757734145"><ele>506.5</ele><time>2026-05-01T06:39:48Z</time></trkpt><trkpt lat="45.92211578083011" lon="12.05952675631583"><ele>501.75</ele><time>2026-05-01T06:39:49Z</time></trkpt><trkpt lat="45.92213654963716" lon="12.059685646285372"><ele>497.0</ele><time>2026-05-01T06:39:50Z</time></trkpt><trkpt lat="45.92215286377797" lon="12.059845223280602"><ele>494.6</ele><time>2026-05-01T06:39:51Z</time></trkpt><trkpt lat="45.92216594114185" lon="12.060007468374089"><ele>492.20000000000005</ele><time>2026-05-01T06:39:52Z</time></trkpt><trkpt lat="45.92217583322931" lon="12.060152347821482"><ele>489.8</ele><time>2026-05-01T06:39:53Z</time></trkpt><trkpt lat="45.922213996086306" lon="12.060288759874059"><ele>487.4</ele><time>2026-05-01T06:39:54Z</time></trkpt><trkpt lat="45.92227734970223" lon="12.060409012926055"><ele>485.0</ele><time>2026-05-01T06:39:55Z</time></trkpt><trkpt lat="45.922336087890365" lon="12.060508450944196"><ele>484.99999999999994</ele><time>2026-05-01T06:39:56Z</time></trkpt><trkpt lat="45.92238331053106" lon="12.060596462489956"><ele>485.0</ele><time>2026-05-01T06:39:57Z</time></trkpt><trkpt lat="45.92243028940207" lon="12.060720659890299"><ele>485.0</ele><time>2026-05-01T06:39:59Z</time></trkpt><trkpt lat="45.92234597673038" lon="12.060799730522126"><ele>485.0</ele><time>2026-05-01T06:40:01Z</time></trkpt><trkpt lat="45.92226633702713" lon="12.060776628646988"><ele>484.99999999999994</ele><time>2026-05-01T06:40:02Z</time></trkpt><trkpt lat="45.9222090094546" lon="12.060681668025444"><ele>485.0</ele><time>2026-05-01T06:40:03Z</time></trkpt><trkpt lat="45.922147572877265" lon="12.060581051503792"><ele>485.0</ele><time>2026-05-01T06:40:04Z</time></trkpt><trkpt lat="45.92208295147942" lon="12.060463039323626"><ele>485.0</ele><time>2026-05-01T06:40:05Z</time></trkpt><trkpt lat="45.92201527997031" lon="12.060348858045524"><ele>485.0</ele><time>2026-05-01T06:40:06Z</time></trkpt><trkpt lat="45.92201050430994" lon="12.060204391502015"><ele>485.0</ele><time>2026-05-01T06:40:07Z</time></trkpt><trkpt lat="45.92198114004702" lon="12.060080866272388"><ele>485.0</ele><time>2026-05-01T06:40:08Z</time></trkpt><trkpt lat="45.921924939936936" lon="12.05995857737776"><ele>484.8</ele><time>2026-05-01T06:40:09Z</time></trkpt><trkpt lat="45.92184885875621" lon="12.059845456783068"><ele>484.6</ele><time>2026-05-01T06:40:10Z</time></trkpt><trkpt lat="45.921773853931676" lon="12.059747532328348"><ele>484.4</ele><time>2026-05-01T06:40:11Z</time></trkpt><trkpt lat="45.92168777847172" lon="12.059652363542803"><ele>484.2</ele><time>2026-05-01T06:40:12Z</time></trkpt><trkpt lat="45.921589388146" lon="12.059590628834163"><ele>484.0</ele><time>2026-05-01T06:40:13Z</time></trkpt><trkpt lat="45.921493886503505" lon="12.05954493401304"><ele>484.00000000000006</ele><time>2026-05-01T06:40:14Z</time></trkpt><trkpt lat="45.9214191196904" lon="12.059507616916527"><ele>484.0</ele><time>2026-05-01T06:40:15Z</time></trkpt><trkpt lat="45.92133081065718" lon="12.059494111745066"><ele>484.0</ele><time>2026-05-01T06:40:16Z</time></trkpt><trkpt lat="45.92124439043725" lon="12.059494276035261"><ele>484.0</ele><time>2026-05-01T06:40:17Z</time></trkpt><trkpt lat="45.92115740583589" lon="12.059506296591215"><ele>484.00000000000006</ele><time>2026-05-01T06:40:18Z</time></trkpt><trkpt lat="45.92107763566637" lon="12.059532274105276"><ele>484.0</ele><time>2026-05-01T06:40:19Z</time></trkpt><trkpt lat="45.92103057856124" lon="12.05960328915057"><ele>484.0</ele><time>2026-05-01T06:40:20Z</time></trkpt><trkpt lat="45.920988008651825" lon="12.059759007830701"><ele>484.0</ele><time>2026-05-01T06:40:22Z</time></trkpt><trkpt lat="45.92103386994537" lon="12.059831836315665"><ele>484.0</ele><time>2026-05-01T06:40:23Z</time></trkpt><trkpt lat="45.92111212447354" lon="12.059894859598629"><ele>484.0</ele><time>2026-05-01T06:40:24Z</time></trkpt><trkpt lat="45.92119935443571" lon="12.059956841292157"><ele>484.0</ele><time>2026-05-01T06:40:25Z</time></trkpt><trkpt lat="45.92130149401041" lon="12.060014733751986"><ele>481.0</ele><time>2026-05-01T06:40:26Z</time></trkpt><trkpt lat="45.921379173716694" lon="12.060100436063237"><ele>478.0</ele><time>2026-05-01T06:40:27Z</time></trkpt><trkpt lat="45.92144361614127" lon="12.060203940357594"><ele>475.0</ele><time>2026-05-01T06:40:28Z</time></trkpt><trkpt lat="45.92151424347865" lon="12.060299786305151"><ele>472.0</ele><time>2026-05-01T06:40:29Z</time></trkpt><trkpt lat="45.921568256899334" lon="12.060436678718096"><ele>469.0</ele><time>2026-05-01T06:40:30Z</time></trkpt><trkpt lat="45.92160070527879" lon="12.060583420426452"><ele>469.0</ele><time>2026-05-01T06:40:31Z</time></trkpt><trkpt lat="45.92161692015874" lon="12.060727725914388"><ele>469.0</ele><time>2026-05-01T06:40:32Z</time></trkpt><trkpt lat="45.92165096468073" lon="12.060871270238762"><ele>469.0</ele><time>2026-05-01T06:40:33Z</time></trkpt><trkpt lat="45.92169476664369" lon="12.061007391010932"><ele>469.0</ele><time>2026-05-01T06:40:34Z</time></trkpt><trkpt lat="45.92175647344308" lon="12.061120404475004"><ele>469.0</ele><time>2026-05-01T06:40:35Z</time></trkpt><trkpt lat="45.921804958331286" lon="12.061242423440277"><ele>468.79999999999995</ele><time>2026-05-01T06:40:36Z</time></trkpt><trkpt lat="45.921841859117855" lon="12.061356446238774"><ele>468.59999999999997</ele><time>2026-05-01T06:40:37Z</time></trkpt><trkpt lat="45.921830316036825" lon="12.061466189550757"><ele>468.4</ele><time>2026-05-01T06:40:38Z</time></trkpt><trkpt lat="45.921817625910116" lon="12.0615692085193"><ele>468.2</ele><time>2026-05-01T06:40:39Z</time></trkpt><trkpt lat="45.921802671673596" lon="12.061714723915584"><ele>468.0</ele><time>2026-05-01T06:40:40Z</time></trkpt><trkpt lat="45.92181139341096" lon="12.061876817156826"><ele>464.5</ele><time>2026-05-01T06:40:41Z</time></trkpt><trkpt lat="45.92182817765468" lon="12.062037149002457"><ele>461.0</ele><time>2026-05-01T06:40:42Z</time></trkpt><trkpt lat="45.92185067592255" lon="12.062200518902847"><ele>457.5</ele><time>2026-05-01T06:40:43Z</time></trkpt><trkpt lat="45.92185580368711" lon="12.062365422919934"><ele>454.0</ele><time>2026-05-01T06:40:44Z</time></trkpt><trkpt lat="45.92184520919669" lon="12.062528105760988"><ele>449.79999999999995</ele><time>2026-05-01T06:40:45Z</time></trkpt><trkpt lat="45.92184501542644" lon="12.062676194510571"><ele>445.59999999999997</ele><time>2026-05-01T06:40:46Z</time></trkpt><trkpt lat="45.92187720546129" lon="12.062798568736037"><ele>441.4</ele><time>2026-05-01T06:40:47Z</time></trkpt><trkpt lat="45.921938450006195" lon="12.062902418757124"><ele>437.2</ele><time>2026-05-01T06:40:48Z</time></trkpt><trkpt lat="45.922009043111444" lon="12.062980552383818"><ele>433.0</ele><time>2026-05-01T06:40:49Z</time></trkpt><trkpt lat="45.92209250289684" lon="12.063024363965456"><ele>433.00000000000006</ele><time>2026-05-01T06:40:50Z</time></trkpt><trkpt lat="45.92217243063361" lon="12.063030288565898"><ele>433.0</ele><time>2026-05-01T06:40:51Z</time></trkpt><trkpt lat="45.922253078096524" lon="12.063012288972915"><ele>433.0</ele><time>2026-05-01T06:40:52Z</time></trkpt><trkpt lat="45.9223298967567" lon="12.062960238760517"><ele>433.0</ele><time>2026-05-01T06:40:53Z</time></trkpt><trkpt lat="45.92239114471444" lon="12.062881681399514"><ele>433.00000000000006</ele><time>2026-05-01T06:40:54Z</time></trkpt><trkpt lat="45.922444679691" lon="12.062773732389685"><ele>433.0</ele><time>2026-05-01T06:40:55Z</time></trkpt><trkpt lat="45.92248403132697" lon="12.062656992571522"><ele>433.00000000000006</ele><time>2026-05-01T06:40:56Z</time></trkpt><trkpt lat="45.92253564351254" lon="12.062556213336213"><ele>433.0</ele><time>2026-05-01T06:40:56.999Z</time></trkpt><trkpt lat="45.92256169452191" lon="12.062451909539933"><ele>433.0</ele><time>2026-05-01T06:40:57.999Z</time></trkpt><trkpt lat="45.9226203978171" lon="12.062370336504062"><ele>433.0</ele><time>2026-05-01T06:40:58.999Z</time></trkpt><trkpt lat="45.92266558634374" lon="12.062277196982295"><ele>433.00000000000006</ele><time>2026-05-01T06:40:59.999Z</time></trkpt><trkpt lat="45.922739453264526" lon="12.062219070644884"><ele>433.0</ele><time>2026-05-01T06:41:00.999Z</time></trkpt><trkpt lat="45.92281006420839" lon="12.06219494804465"><ele>433.00000000000006</ele><time>2026-05-01T06:41:01.999Z</time></trkpt><trkpt lat="45.92288695378381" lon="12.062177292324709"><ele>433.0</ele><time>2026-05-01T06:41:02.999Z</time></trkpt><trkpt lat="45.92296559081728" lon="12.062174525660906"><ele>433.0</ele><time>2026-05-01T06:41:03.999Z</time></trkpt><trkpt lat="45.92304355423864" lon="12.062159540265567"><ele>433.0</ele><time>2026-05-01T06:41:04.999Z</time></trkpt><trkpt lat="45.92311327949073" lon="12.062109116274383"><ele>433.00000000000006</ele><time>2026-05-01T06:41:05.999Z</time></trkpt><trkpt lat="45.92317305323961" lon="12.062030128494083"><ele>433.0</ele><time>2026-05-01T06:41:06.999Z</time></trkpt><trkpt lat="45.923223313818205" lon="12.061936412450628"><ele>433.00000000000006</ele><time>2026-05-01T06:41:07.999Z</time></trkpt><trkpt lat="45.923275697968954" lon="12.061826524897212"><ele>433.0</ele><time>2026-05-01T06:41:08.999Z</time></trkpt><trkpt lat="45.923329569323705" lon="12.061771738846913"><ele>433.0</ele><time>2026-05-01T06:41:09.999Z</time></trkpt><trkpt lat="45.92341960757697" lon="12.061767871437088"><ele>433.0</ele><time>2026-05-01T06:41:11.999Z</time></trkpt><trkpt lat="45.92334706081251" lon="12.061901444916582"><ele>433.00000000000006</ele><time>2026-05-01T06:41:16.999Z</time></trkpt><trkpt lat="45.92329659610697" lon="12.061983532973105"><ele>433.0</ele><time>2026-05-01T06:41:17.999Z</time></trkpt><trkpt lat="45.92322828485725" lon="12.062036016326108"><ele>433.0</ele><time>2026-05-01T06:41:18.999Z</time></trkpt><trkpt lat="45.92315306331142" lon="12.062120552132685"><ele>432.99999999999994</ele><time>2026-05-01T06:41:19.999Z</time></trkpt><trkpt lat="45.92308514769928" lon="12.0622068692646"><ele>432.99999999999994</ele><time>2026-05-01T06:41:20.999Z</time></trkpt><trkpt lat="45.922984477087844" lon="12.062248060532845"><ele>433.0</ele><time>2026-05-01T06:41:21.999Z</time></trkpt><trkpt lat="45.92288510446005" lon="12.062280329141238"><ele>433.0</ele><time>2026-05-01T06:41:22.999Z</time></trkpt><trkpt lat="45.92278922980274" lon="12.06236597357453"><ele>433.0</ele><time>2026-05-01T06:41:23.999Z</time></trkpt><trkpt lat="45.922692696203484" lon="12.062476886600034"><ele>433.0</ele><time>2026-05-01T06:41:24.999Z</time></trkpt><trkpt lat="45.9226228633479" lon="12.062658336742777"><ele>433.0</ele><time>2026-05-01T06:41:25.999Z</time></trkpt><trkpt lat="45.922601531736156" lon="12.062827940453191"><ele>433.0</ele><time>2026-05-01T06:41:27Z</time></trkpt><trkpt lat="45.9225627497345" lon="12.062975540970333"><ele>433.0</ele><time>2026-05-01T06:41:28Z</time></trkpt><trkpt lat="45.922512793123424" lon="12.063096296793441"><ele>432.99999999999994</ele><time>2026-05-01T06:41:29Z</time></trkpt><trkpt lat="45.922426656281374" lon="12.063191558789226"><ele>432.99999999999994</ele><time>2026-05-01T06:41:30Z</time></trkpt><trkpt lat="45.92233500970442" lon="12.063266365447754"><ele>433.0</ele><time>2026-05-01T06:41:31Z</time></trkpt><trkpt lat="45.92224227011023" lon="12.063331172702858"><ele>433.0</ele><time>2026-05-01T06:41:32Z</time></trkpt><trkpt lat="45.922145577895456" lon="12.063392435175036"><ele>433.00000000000006</ele><time>2026-05-01T06:41:33Z</time></trkpt><trkpt lat="45.9220525404749" lon="12.06345014428487"><ele>433.0</ele><time>2026-05-01T06:41:34Z</time></trkpt><trkpt lat="45.921960097228826" lon="12.06348319355703"><ele>433.0</ele><time>2026-05-01T06:41:35Z</time></trkpt><trkpt lat="45.9218795047904" lon="12.063466519593003"><ele>433.0</ele><time>2026-05-01T06:41:36Z</time></trkpt><trkpt lat="45.92181409837832" lon="12.063399323972915"><ele>433.00000000000006</ele><time>2026-05-01T06:41:37Z</time></trkpt><trkpt lat="45.9217721863333" lon="12.063300910653803"><ele>433.0</ele><time>2026-05-01T06:41:38Z</time></trkpt><trkpt lat="45.92173483948633" lon="12.063184536488478"><ele>428.75</ele><time>2026-05-01T06:41:39Z</time></trkpt><trkpt lat="45.92170169883821" lon="12.063047472260868"><ele>424.5</ele><time>2026-05-01T06:41:40Z</time></trkpt><trkpt lat="45.921667610411426" lon="12.062896416356955"><ele>420.25</ele><time>2026-05-01T06:41:41Z</time></trkpt><trkpt lat="45.921627397924205" lon="12.06273746553038"><ele>416.0</ele><time>2026-05-01T06:41:42Z</time></trkpt><trkpt lat="45.92158695498333" lon="12.062565483766573"><ele>420.0</ele><time>2026-05-01T06:41:43Z</time></trkpt><trkpt lat="45.921548755932456" lon="12.062384043800328"><ele>424.0</ele><time>2026-05-01T06:41:44Z</time></trkpt><trkpt lat="45.92151430992762" lon="12.062205269425487"><ele>428.0</ele><time>2026-05-01T06:41:45Z</time></trkpt><trkpt lat="45.9214963485445" lon="12.062038358623836"><ele>432.0</ele><time>2026-05-01T06:41:46Z</time></trkpt><trkpt lat="45.92149879252005" lon="12.061876894097221"><ele>432.0</ele><time>2026-05-01T06:41:47Z</time></trkpt><trkpt lat="45.921505581176085" lon="12.061729820642395"><ele>432.00000000000006</ele><time>2026-05-01T06:41:48Z</time></trkpt><trkpt lat="45.92149053601425" lon="12.06159354181831"><ele>432.00000000000006</ele><time>2026-05-01T06:41:49Z</time></trkpt><trkpt lat="45.92143633900526" lon="12.06146267914501"><ele>432.0</ele><time>2026-05-01T06:41:50Z</time></trkpt><trkpt lat="45.92135058045761" lon="12.061346953182854"><ele>432.0</ele><time>2026-05-01T06:41:51Z</time></trkpt><trkpt lat="45.921248971516185" lon="12.061265790675726"><ele>434.0</ele><time>2026-05-01T06:41:52Z</time></trkpt><trkpt lat="45.921146137381115" lon="12.0612348990206"><ele>436.00000000000006</ele><time>2026-05-01T06:41:53Z</time></trkpt><trkpt lat="45.921045018567824" lon="12.061273245834034"><ele>438.00000000000006</ele><time>2026-05-01T06:41:54Z</time></trkpt><trkpt lat="45.92094080289225" lon="12.061353498483419"><ele>440.0</ele><time>2026-05-01T06:41:55Z</time></trkpt><trkpt lat="45.92084355295811" lon="12.061442867015344"><ele>442.0</ele><time>2026-05-01T06:41:56Z</time></trkpt><trkpt lat="45.920757366549566" lon="12.061529548146325"><ele>437.0</ele><time>2026-05-01T06:41:57Z</time></trkpt><trkpt lat="45.9206815367429" lon="12.061634640679143"><ele>432.0</ele><time>2026-05-01T06:41:58Z</time></trkpt><trkpt lat="45.92061136572893" lon="12.061771915706052"><ele>427.0</ele><time>2026-05-01T06:41:59Z</time></trkpt><trkpt lat="45.92056506469859" lon="12.061929351569525"><ele>422.0</ele><time>2026-05-01T06:42:00Z</time></trkpt><trkpt lat="45.92053123735474" lon="12.0620928907169"><ele>422.0</ele><time>2026-05-01T06:42:01Z</time></trkpt><trkpt lat="45.92047906950604" lon="12.062244295759859"><ele>422.0</ele><time>2026-05-01T06:42:02Z</time></trkpt><trkpt lat="45.92040635351016" lon="12.062377881624059"><ele>422.0</ele><time>2026-05-01T06:42:03Z</time></trkpt><trkpt lat="45.92031592963339" lon="12.062497953618523"><ele>422.0</ele><time>2026-05-01T06:42:04Z</time></trkpt><trkpt lat="45.92022050109326" lon="12.062615766345445"><ele>423.40000000000003</ele><time>2026-05-01T06:42:05Z</time></trkpt><trkpt lat="45.92013165632545" lon="12.062722063626133"><ele>424.8</ele><time>2026-05-01T06:42:06Z</time></trkpt><trkpt lat="45.920041090395884" lon="12.062819909282583"><ele>426.2</ele><time>2026-05-01T06:42:07Z</time></trkpt><trkpt lat="45.9199561255802" lon="12.06291228296302"><ele>427.6</ele><time>2026-05-01T06:42:08Z</time></trkpt><trkpt lat="45.91987454741768" lon="12.062991716535405"><ele>429.0</ele><time>2026-05-01T06:42:09Z</time></trkpt><trkpt lat="45.91978941355863" lon="12.063064189048575"><ele>429.0</ele><time>2026-05-01T06:42:10Z</time></trkpt><trkpt lat="45.919701255375045" lon="12.063095905207886"><ele>429.0</ele><time>2026-05-01T06:42:11Z</time></trkpt><trkpt lat="45.91961531850044" lon="12.063079493833671"><ele>429.0</ele><time>2026-05-01T06:42:12Z</time></trkpt><trkpt lat="45.919532317244695" lon="12.06304864798934"><ele>429.0</ele><time>2026-05-01T06:42:13Z</time></trkpt><trkpt lat="45.91944962259387" lon="12.06299973176228"><ele>429.0</ele><time>2026-05-01T06:42:14Z</time></trkpt><trkpt lat="45.91935693548629" lon="12.062936828366578"><ele>429.0</ele><time>2026-05-01T06:42:15Z</time></trkpt><trkpt lat="45.91925743857464" lon="12.06287595527981"><ele>429.0</ele><time>2026-05-01T06:42:16Z</time></trkpt><trkpt lat="45.919152705668694" lon="12.062814102338924"><ele>429.0</ele><time>2026-05-01T06:42:17Z</time></trkpt><trkpt lat="45.91904100361826" lon="12.062754961655042"><ele>429.0</ele><time>2026-05-01T06:42:18Z</time></trkpt><trkpt lat="45.91892362740847" lon="12.062687564223172"><ele>428.0</ele><time>2026-05-01T06:42:19Z</time></trkpt><trkpt lat="45.91880374013346" lon="12.062618803720731"><ele>427.0</ele><time>2026-05-01T06:42:20Z</time></trkpt><trkpt lat="45.91868602047691" lon="12.062552075781513"><ele>426.0</ele><time>2026-05-01T06:42:21Z</time></trkpt><trkpt lat="45.91857951127437" lon="12.062482302226538"><ele>425.0</ele><time>2026-05-01T06:42:22Z</time></trkpt><trkpt lat="45.91847570282252" lon="12.062417635730986"><ele>427.0</ele><time>2026-05-01T06:42:23Z</time></trkpt><trkpt lat="45.91837525808974" lon="12.062354237513382"><ele>429.0</ele><time>2026-05-01T06:42:24Z</time></trkpt><trkpt lat="45.91827918353728" lon="12.062283741340094"><ele>431.0</ele><time>2026-05-01T06:42:25Z</time></trkpt><trkpt lat="45.91818141696529" lon="12.06221403848521"><ele>433.0</ele><time>2026-05-01T06:42:26Z</time></trkpt><trkpt lat="45.918077850597946" lon="12.062156461628202"><ele>435.0</ele><time>2026-05-01T06:42:27Z</time></trkpt><trkpt lat="45.91796593238372" lon="12.062137128798332"><ele>435.0</ele><time>2026-05-01T06:42:28Z</time></trkpt><trkpt lat="45.91785685743157" lon="12.06217048912007"><ele>435.0</ele><time>2026-05-01T06:42:29Z</time></trkpt><trkpt lat="45.917754836425566" lon="12.0622561801614"><ele>435.0</ele><time>2026-05-01T06:42:30Z</time></trkpt><trkpt lat="45.9176728244902" lon="12.062357915833484"><ele>435.0</ele><time>2026-05-01T06:42:31Z</time></trkpt><trkpt lat="45.917594392053424" lon="12.062457831487182"><ele>435.0</ele><time>2026-05-01T06:42:32Z</time></trkpt><trkpt lat="45.91750933459325" lon="12.062513781709914"><ele>429.8</ele><time>2026-05-01T06:42:33Z</time></trkpt><trkpt lat="45.91742154935237" lon="12.062514880427887"><ele>424.6</ele><time>2026-05-01T06:42:34Z</time></trkpt><trkpt lat="45.917320324484706" lon="12.062487310678494"><ele>419.4</ele><time>2026-05-01T06:42:35Z</time></trkpt><trkpt lat="45.91720681823862" lon="12.062455910185188"><ele>414.2</ele><time>2026-05-01T06:42:36Z</time></trkpt><trkpt lat="45.91710672706598" lon="12.062426627428025"><ele>409.0</ele><time>2026-05-01T06:42:37Z</time></trkpt><trkpt lat="45.91701141984666" lon="12.062395511584086"><ele>409.00000000000006</ele><time>2026-05-01T06:42:38Z</time></trkpt><trkpt lat="45.91692807802684" lon="12.06234639945883"><ele>409.0</ele><time>2026-05-01T06:42:39Z</time></trkpt><trkpt lat="45.916865004118726" lon="12.062268063641664"><ele>409.0</ele><time>2026-05-01T06:42:40Z</time></trkpt><trkpt lat="45.91683271137425" lon="12.062174739353557"><ele>409.0</ele><time>2026-05-01T06:42:41Z</time></trkpt><trkpt lat="45.916827145292864" lon="12.062034118767473"><ele>409.00000000000006</ele><time>2026-05-01T06:42:43Z</time></trkpt><trkpt lat="45.91682872609963" lon="12.061923657441742"><ele>409.0</ele><time>2026-05-01T06:42:45Z</time></trkpt><trkpt lat="45.91682637852449" lon="12.061808427477109"><ele>409.00000000000006</ele><time>2026-05-01T06:42:47Z</time></trkpt><trkpt lat="45.916829170179916" lon="12.06170639548501"><ele>409.0</ele><time>2026-05-01T06:42:49Z</time></trkpt><trkpt lat="45.91684480965366" lon="12.061616178262229"><ele>409.0</ele><time>2026-05-01T06:42:52Z</time></trkpt><trkpt lat="45.916828505619904" lon="12.061482251146323"><ele>409.0</ele><time>2026-05-01T06:43:57Z</time></trkpt><trkpt lat="45.916829092691884" lon="12.061356883223825"><ele>409.00000000000006</ele><time>2026-05-01T06:43:58Z</time></trkpt><trkpt lat="45.91683562219461" lon="12.061235866979516"><ele>409.0</ele><time>2026-05-01T06:43:59Z</time></trkpt><trkpt lat="45.91684111351394" lon="12.061100460694114"><ele>410.79999999999995</ele><time>2026-05-01T06:44:00Z</time></trkpt><trkpt lat="45.916849217498694" lon="12.06094589129105"><ele>412.59999999999997</ele><time>2026-05-01T06:44:01Z</time></trkpt><trkpt lat="45.91685872248662" lon="12.060778528052483"><ele>414.4</ele><time>2026-05-01T06:44:02Z</time></trkpt><trkpt lat="45.9168693758306" lon="12.060622761099662"><ele>416.2</ele><time>2026-05-01T06:44:03Z</time></trkpt><trkpt lat="45.91686703237808" lon="12.060478743261262"><ele>418.0</ele><time>2026-05-01T06:44:04Z</time></trkpt><trkpt lat="45.91683047083072" lon="12.060339230346951"><ele>421.5</ele><time>2026-05-01T06:44:05Z</time></trkpt><trkpt lat="45.91675558999538" lon="12.06021329333944"><ele>425.0</ele><time>2026-05-01T06:44:06Z</time></trkpt><trkpt lat="45.91665416124236" lon="12.060118308016568"><ele>428.5</ele><time>2026-05-01T06:44:07Z</time></trkpt><trkpt lat="45.91653771282517" lon="12.060042608576026"><ele>432.0</ele><time>2026-05-01T06:44:08Z</time></trkpt><trkpt lat="45.916415259932016" lon="12.059974073120468"><ele>426.75</ele><time>2026-05-01T06:44:09Z</time></trkpt><trkpt lat="45.91629995765873" lon="12.05990270757357"><ele>421.5</ele><time>2026-05-01T06:44:10Z</time></trkpt><trkpt lat="45.91619140200184" lon="12.059834578996345"><ele>416.25</ele><time>2026-05-01T06:44:11Z</time></trkpt><trkpt lat="45.91609373207716" lon="12.059765411579312"><ele>411.0</ele><time>2026-05-01T06:44:12Z</time></trkpt><trkpt lat="45.91599153333966" lon="12.059699397719857"><ele>404.8</ele><time>2026-05-01T06:44:13Z</time></trkpt><trkpt lat="45.91589707358136" lon="12.059629346156253"><ele>398.6</ele><time>2026-05-01T06:44:14Z</time></trkpt><trkpt lat="45.91580484672563" lon="12.05956198910814"><ele>392.4</ele><time>2026-05-01T06:44:15Z</time></trkpt><trkpt lat="45.91570831688298" lon="12.05950236891061"><ele>386.2</ele><time>2026-05-01T06:44:16Z</time></trkpt><trkpt lat="45.915617479747375" lon="12.059449704454435"><ele>380.0</ele><time>2026-05-01T06:44:17Z</time></trkpt><trkpt lat="45.915522317679155" lon="12.059423410501948"><ele>380.0</ele><time>2026-05-01T06:44:18Z</time></trkpt><trkpt lat="45.91542645394806" lon="12.05942758295385"><ele>380.0</ele><time>2026-05-01T06:44:19Z</time></trkpt><trkpt lat="45.91533237961948" lon="12.059457472598412"><ele>380.0</ele><time>2026-05-01T06:44:20Z</time></trkpt><trkpt lat="45.91524671507006" lon="12.059478182865156"><ele>380.0</ele><time>2026-05-01T06:44:21Z</time></trkpt><trkpt lat="45.91515660674326" lon="12.05947985266184"><ele>380.0</ele><time>2026-05-01T06:44:22Z</time></trkpt><trkpt lat="45.915070096651924" lon="12.059463296887484"><ele>376.6666666666667</ele><time>2026-05-01T06:44:23Z</time></trkpt><trkpt lat="45.914989677979975" lon="12.059419379325787"><ele>373.33333333333337</ele><time>2026-05-01T06:44:24Z</time></trkpt><trkpt lat="45.91491944467699" lon="12.059344903173136"><ele>370.0</ele><time>2026-05-01T06:44:25Z</time></trkpt><trkpt lat="45.91485830694495" lon="12.05925120195117"><ele>366.6666666666667</ele><time>2026-05-01T06:44:26Z</time></trkpt><trkpt lat="45.91481515091857" lon="12.059144916832526"><ele>363.3333333333333</ele><time>2026-05-01T06:44:27Z</time></trkpt><trkpt lat="45.91480384093718" lon="12.059046532414548"><ele>360.0</ele><time>2026-05-01T06:44:28Z</time></trkpt><trkpt lat="45.914822896643365" lon="12.058952524121906"><ele>359.5</ele><time>2026-05-01T06:44:29Z</time></trkpt><trkpt lat="45.91486654345069" lon="12.058865442279222"><ele>359.0</ele><time>2026-05-01T06:44:30Z</time></trkpt><trkpt lat="45.91492371243629" lon="12.058802314383223"><ele>358.5</ele><time>2026-05-01T06:44:31Z</time></trkpt><trkpt lat="45.91497776332346" lon="12.058738950358865"><ele>358.0</ele><time>2026-05-01T06:44:32Z</time></trkpt><trkpt lat="45.91502496196014" lon="12.058664992971659"><ele>357.5</ele><time>2026-05-01T06:44:33Z</time></trkpt><trkpt lat="45.915068635219235" lon="12.058564317666816"><ele>357.0</ele><time>2026-05-01T06:44:34Z</time></trkpt><trkpt lat="45.91509667034951" lon="12.058436849245794"><ele>361.0</ele><time>2026-05-01T06:44:35Z</time></trkpt><trkpt lat="45.91510960917407" lon="12.058309122813279"><ele>365.0</ele><time>2026-05-01T06:44:36Z</time></trkpt><trkpt lat="45.9151115144032" lon="12.058184430075203"><ele>369.0</ele><time>2026-05-01T06:44:37Z</time></trkpt><trkpt lat="45.915110739388176" lon="12.058060145226465"><ele>373.0</ele><time>2026-05-01T06:44:38Z</time></trkpt><trkpt lat="45.915111991495934" lon="12.057938552158545"><ele>377.0</ele><time>2026-05-01T06:44:39Z</time></trkpt><trkpt lat="45.91511170874674" lon="12.057811481077211"><ele>381.0</ele><time>2026-05-01T06:44:40Z</time></trkpt><trkpt lat="45.915114221106066" lon="12.05768042323928"><ele>381.0</ele><time>2026-05-01T06:44:41Z</time></trkpt><trkpt lat="45.91511525820887" lon="12.057541130775657"><ele>381.0</ele><time>2026-05-01T06:44:42Z</time></trkpt><trkpt lat="45.91511849296197" lon="12.057411594583513"><ele>381.0</ele><time>2026-05-01T06:44:43Z</time></trkpt><trkpt lat="45.91511761582021" lon="12.057283352731739"><ele>381.0</ele><time>2026-05-01T06:44:44Z</time></trkpt><trkpt lat="45.91511228702388" lon="12.057153404687352"><ele>381.0</ele><time>2026-05-01T06:44:45Z</time></trkpt><trkpt lat="45.915093925007525" lon="12.05703155594326"><ele>375.20000000000005</ele><time>2026-05-01T06:44:46Z</time></trkpt><trkpt lat="45.91504321500792" lon="12.056914515023156"><ele>369.40000000000003</ele><time>2026-05-01T06:44:47Z</time></trkpt><trkpt lat="45.91496973166812" lon="12.056824255295112"><ele>363.6</ele><time>2026-05-01T06:44:48Z</time></trkpt><trkpt lat="45.914880112980434" lon="12.056741073769535"><ele>357.8</ele><time>2026-05-01T06:44:49Z</time></trkpt><trkpt lat="45.91478480782118" lon="12.056655600505943"><ele>352.0</ele><time>2026-05-01T06:44:50Z</time></trkpt><trkpt lat="45.91469697374024" lon="12.056572287159598"><ele>351.40000000000003</ele><time>2026-05-01T06:44:51Z</time></trkpt><trkpt lat="45.91461167187773" lon="12.056486044722517"><ele>350.8</ele><time>2026-05-01T06:44:52Z</time></trkpt><trkpt lat="45.9145260736833" lon="12.05639925443675"><ele>350.2</ele><time>2026-05-01T06:44:53Z</time></trkpt><trkpt lat="45.91444256738642" lon="12.056319126988283"><ele>349.6</ele><time>2026-05-01T06:44:54Z</time></trkpt><trkpt lat="45.914368409959096" lon="12.056232747277825"><ele>349.0</ele><time>2026-05-01T06:44:55Z</time></trkpt><trkpt lat="45.9143297843797" lon="12.056123791247147"><ele>349.0</ele><time>2026-05-01T06:44:56Z</time></trkpt><trkpt lat="45.91432735758845" lon="12.056002058984776"><ele>349.0</ele><time>2026-05-01T06:44:57Z</time></trkpt><trkpt lat="45.91437432259499" lon="12.055899116896239"><ele>349.0</ele><time>2026-05-01T06:44:58Z</time></trkpt><trkpt lat="45.91444537462789" lon="12.055834301420546"><ele>349.0</ele><time>2026-05-01T06:44:59Z</time></trkpt><trkpt lat="45.91452574256718" lon="12.055796882376551"><ele>349.0</ele><time>2026-05-01T06:45:00Z</time></trkpt><trkpt lat="45.91461145523951" lon="12.055780538583384"><ele>349.0</ele><time>2026-05-01T06:45:01Z</time></trkpt><trkpt lat="45.91469670643563" lon="12.055775333662973"><ele>347.66666666666663</ele><time>2026-05-01T06:45:02Z</time></trkpt><trkpt lat="45.91477636195366" lon="12.055759940396625"><ele>346.3333333333333</ele><time>2026-05-01T06:45:03Z</time></trkpt><trkpt lat="45.91485249846033" lon="12.05572528411238"><ele>345.0</ele><time>2026-05-01T06:45:04Z</time></trkpt><trkpt lat="45.91491658541886" lon="12.055656847132683"><ele>343.6666666666667</ele><time>2026-05-01T06:45:05Z</time></trkpt><trkpt lat="45.91495831987736" lon="12.055554465059043"><ele>342.33333333333337</ele><time>2026-05-01T06:45:05.999Z</time></trkpt><trkpt lat="45.91496607780643" lon="12.055425740530358"><ele>341.0</ele><time>2026-05-01T06:45:06.999Z</time></trkpt><trkpt lat="45.91494308652284" lon="12.055296861061144"><ele>341.0</ele><time>2026-05-01T06:45:07.999Z</time></trkpt><trkpt lat="45.91490650638736" lon="12.055164584536938"><ele>341.0</ele><time>2026-05-01T06:45:08.999Z</time></trkpt><trkpt lat="45.914873742535825" lon="12.05502935192162"><ele>341.0</ele><time>2026-05-01T06:45:09.999Z</time></trkpt><trkpt lat="45.914846229092" lon="12.054903096399043"><ele>341.0</ele><time>2026-05-01T06:45:10.999Z</time></trkpt><trkpt lat="45.914817405798495" lon="12.054779316425307"><ele>341.0</ele><time>2026-05-01T06:45:11.999Z</time></trkpt><trkpt lat="45.914791104117526" lon="12.054651225293929"><ele>340.5</ele><time>2026-05-01T06:45:12.999Z</time></trkpt><trkpt lat="45.91476765146951" lon="12.054531763064265"><ele>340.0</ele><time>2026-05-01T06:45:13.999Z</time></trkpt><trkpt lat="45.91474285760672" lon="12.05441509953439"><ele>339.5</ele><time>2026-05-01T06:45:14.999Z</time></trkpt><trkpt lat="45.914717523580975" lon="12.054294338296739"><ele>339.0</ele><time>2026-05-01T06:45:15.999Z</time></trkpt><trkpt lat="45.914692953735624" lon="12.054178221768392"><ele>338.5</ele><time>2026-05-01T06:45:16.999Z</time></trkpt><trkpt lat="45.914663027212555" lon="12.054071244241076"><ele>338.0</ele><time>2026-05-01T06:45:17.999Z</time></trkpt><trkpt lat="45.91462157115538" lon="12.053964773589222"><ele>339.4</ele><time>2026-05-01T06:45:18.999Z</time></trkpt><trkpt lat="45.914564705604086" lon="12.053850828104824"><ele>340.79999999999995</ele><time>2026-05-01T06:45:19.999Z</time></trkpt><trkpt lat="45.91450523187733" lon="12.053739951409423"><ele>342.2</ele><time>2026-05-01T06:45:20.999Z</time></trkpt><trkpt lat="45.914445222235244" lon="12.053635060063772"><ele>343.6</ele><time>2026-05-01T06:45:21.999Z</time></trkpt><trkpt lat="45.914381656668276" lon="12.053520966327712"><ele>345.0</ele><time>2026-05-01T06:45:22.999Z</time></trkpt><trkpt lat="45.91431942128782" lon="12.053404286964243"><ele>344.2</ele><time>2026-05-01T06:45:23.999Z</time></trkpt><trkpt lat="45.91425612488412" lon="12.053282498701671"><ele>343.4</ele><time>2026-05-01T06:45:24.999Z</time></trkpt><trkpt lat="45.91419246337893" lon="12.053164574904521"><ele>342.6</ele><time>2026-05-01T06:45:25.999Z</time></trkpt><trkpt lat="45.91412937253019" lon="12.053052306155399"><ele>341.8</ele><time>2026-05-01T06:45:26.999Z</time></trkpt><trkpt lat="45.91406931386329" lon="12.052944501639896"><ele>341.0</ele><time>2026-05-01T06:45:27.999Z</time></trkpt><trkpt lat="45.914004498016844" lon="12.05285168369109"><ele>341.0</ele><time>2026-05-01T06:45:28.999Z</time></trkpt><trkpt lat="45.91394932293015" lon="12.052753303285515"><ele>341.0</ele><time>2026-05-01T06:45:29.999Z</time></trkpt><trkpt lat="45.91386231770127" lon="12.052693648022826"><ele>341.0</ele><time>2026-05-01T06:45:30.999Z</time></trkpt><trkpt lat="45.91375280373258" lon="12.052678078753338"><ele>341.0</ele><time>2026-05-01T06:45:31.999Z</time></trkpt><trkpt lat="45.913645293373776" lon="12.052718904234899"><ele>341.0</ele><time>2026-05-01T06:45:32.999Z</time></trkpt><trkpt lat="45.91353721205029" lon="12.052744705251344"><ele>341.0</ele><time>2026-05-01T06:45:33.999Z</time></trkpt><trkpt lat="45.913424650227824" lon="12.052765769356263"><ele>341.0</ele><time>2026-05-01T06:45:34.999Z</time></trkpt><trkpt lat="45.91330497925981" lon="12.05279093502584"><ele>341.0</ele><time>2026-05-01T06:45:35.999Z</time></trkpt><trkpt lat="45.913179319261125" lon="12.052817504279473"><ele>341.0</ele><time>2026-05-01T06:45:36.999Z</time></trkpt><trkpt lat="45.913059263798345" lon="12.052847427087645"><ele>338.8</ele><time>2026-05-01T06:45:37.999Z</time></trkpt><trkpt lat="45.912944307598266" lon="12.05287163028078"><ele>336.6</ele><time>2026-05-01T06:45:39Z</time></trkpt><trkpt lat="45.91283306332841" lon="12.052891697190248"><ele>334.4</ele><time>2026-05-01T06:45:40Z</time></trkpt><trkpt lat="45.91272515460911" lon="12.052915180241923"><ele>332.2</ele><time>2026-05-01T06:45:41Z</time></trkpt><trkpt lat="45.91262249305565" lon="12.052943954418593"><ele>330.0</ele><time>2026-05-01T06:45:42Z</time></trkpt><trkpt lat="45.91252183363602" lon="12.05297029366092"><ele>329.2</ele><time>2026-05-01T06:45:43Z</time></trkpt><trkpt lat="45.91242052368172" lon="12.052992620825671"><ele>328.4</ele><time>2026-05-01T06:45:44Z</time></trkpt><trkpt lat="45.91232333836307" lon="12.053006742929748"><ele>327.6</ele><time>2026-05-01T06:45:45Z</time></trkpt><trkpt lat="45.91222455726335" lon="12.05302659166454"><ele>326.8</ele><time>2026-05-01T06:45:46Z</time></trkpt><trkpt lat="45.91212777540416" lon="12.053051086404318"><ele>326.0</ele><time>2026-05-01T06:45:47Z</time></trkpt><trkpt lat="45.91203793965936" lon="12.053092361791517"><ele>326.0</ele><time>2026-05-01T06:45:48Z</time></trkpt><trkpt lat="45.91195646479887" lon="12.053169403135634"><ele>326.0</ele><time>2026-05-01T06:45:49Z</time></trkpt><trkpt lat="45.91188770656969" lon="12.053264843800703"><ele>326.0</ele><time>2026-05-01T06:45:50Z</time></trkpt><trkpt lat="45.911818974275654" lon="12.053352417529673"><ele>326.0</ele><time>2026-05-01T06:45:51Z</time></trkpt><trkpt lat="45.91174551527341" lon="12.05342093317405"><ele>326.0</ele><time>2026-05-01T06:45:52Z</time></trkpt><trkpt lat="45.91166850184222" lon="12.053474367628853"><ele>324.0</ele><time>2026-05-01T06:45:53Z</time></trkpt><trkpt lat="45.91158312226899" lon="12.053514240375673"><ele>322.0</ele><time>2026-05-01T06:45:54Z</time></trkpt><trkpt lat="45.91148583031495" lon="12.053537891343742"><ele>320.0</ele><time>2026-05-01T06:45:55Z</time></trkpt><trkpt lat="45.91138609966011" lon="12.053551242383971"><ele>318.0</ele><time>2026-05-01T06:45:56Z</time></trkpt><trkpt lat="45.91128488100505" lon="12.05355416273513"><ele>316.0</ele><time>2026-05-01T06:45:57Z</time></trkpt><trkpt lat="45.911185223238114" lon="12.053554013487213"><ele>316.0</ele><time>2026-05-01T06:45:58Z</time></trkpt><trkpt lat="45.91108945171251" lon="12.053552225988877"><ele>316.0</ele><time>2026-05-01T06:45:59Z</time></trkpt><trkpt lat="45.910996191654746" lon="12.053552444679573"><ele>316.0</ele><time>2026-05-01T06:46:00Z</time></trkpt><trkpt lat="45.910906954188185" lon="12.053543595230776"><ele>316.0</ele><time>2026-05-01T06:46:01Z</time></trkpt><trkpt lat="45.91080881370766" lon="12.053551512237506"><ele>316.0</ele><time>2026-05-01T06:46:02Z</time></trkpt><trkpt lat="45.910710763159614" lon="12.053541184220231"><ele>314.40000000000003</ele><time>2026-05-01T06:46:03Z</time></trkpt><trkpt lat="45.910618343286764" lon="12.053505346829523"><ele>312.8</ele><time>2026-05-01T06:46:04Z</time></trkpt><trkpt lat="45.910529271977914" lon="12.053445798313756"><ele>311.20000000000005</ele><time>2026-05-01T06:46:05Z</time></trkpt><trkpt lat="45.91044719659776" lon="12.053365516065222"><ele>309.6</ele><time>2026-05-01T06:46:06Z</time></trkpt><trkpt lat="45.910372771385966" lon="12.053274147072969"><ele>308.0</ele><time>2026-05-01T06:46:07Z</time></trkpt><trkpt lat="45.91030126009562" lon="12.053186653786366"><ele>308.2</ele><time>2026-05-01T06:46:08Z</time></trkpt><trkpt lat="45.91023306924514" lon="12.053081614546"><ele>308.4</ele><time>2026-05-01T06:46:09Z</time></trkpt><trkpt lat="45.910157096932195" lon="12.052982584216352"><ele>308.59999999999997</ele><time>2026-05-01T06:46:10Z</time></trkpt><trkpt lat="45.91007897589048" lon="12.052882002998441"><ele>308.8</ele><time>2026-05-01T06:46:11Z</time></trkpt><trkpt lat="45.91000572362919" lon="12.05277220477606"><ele>309.0</ele><time>2026-05-01T06:46:12Z</time></trkpt><trkpt lat="45.90993562707099" lon="12.052656348294255"><ele>309.0</ele><time>2026-05-01T06:46:13Z</time></trkpt><trkpt lat="45.90987308874608" lon="12.05253725992439"><ele>309.0</ele><time>2026-05-01T06:46:14Z</time></trkpt><trkpt lat="45.909812315407684" lon="12.052419159821099"><ele>309.0</ele><time>2026-05-01T06:46:15Z</time></trkpt><trkpt lat="45.9097542246671" lon="12.052300663186484"><ele>309.0</ele><time>2026-05-01T06:46:16Z</time></trkpt><trkpt lat="45.90970273388649" lon="12.052177389990133"><ele>309.0</ele><time>2026-05-01T06:46:17Z</time></trkpt><trkpt lat="45.90964233828595" lon="12.052054450396634"><ele>313.4</ele><time>2026-05-01T06:46:18Z</time></trkpt><trkpt lat="45.90957803817072" lon="12.051936534918251"><ele>317.79999999999995</ele><time>2026-05-01T06:46:19Z</time></trkpt><trkpt lat="45.90951154709748" lon="12.051816233695114"><ele>322.20000000000005</ele><time>2026-05-01T06:46:20Z</time></trkpt><trkpt lat="45.9094432056503" lon="12.051698712157654"><ele>326.6</ele><time>2026-05-01T06:46:21Z</time></trkpt><trkpt lat="45.90936687224733" lon="12.051583981131158"><ele>331.0</ele><time>2026-05-01T06:46:22Z</time></trkpt><trkpt lat="45.90929000393858" lon="12.05146799222884"><ele>328.2</ele><time>2026-05-01T06:46:23Z</time></trkpt><trkpt lat="45.909214766364194" lon="12.051349333861074"><ele>325.40000000000003</ele><time>2026-05-01T06:46:24Z</time></trkpt><trkpt lat="45.909142455905304" lon="12.051226198971106"><ele>322.6</ele><time>2026-05-01T06:46:25Z</time></trkpt><trkpt lat="45.90907230787586" lon="12.051105803126594"><ele>319.8</ele><time>2026-05-01T06:46:26Z</time></trkpt><trkpt lat="45.90900147874613" lon="12.050984991737009"><ele>317.0</ele><time>2026-05-01T06:46:27Z</time></trkpt><trkpt lat="45.90893074276502" lon="12.050865214429779"><ele>320.2</ele><time>2026-05-01T06:46:28Z</time></trkpt><trkpt lat="45.90886227043187" lon="12.050743112462925"><ele>323.4</ele><time>2026-05-01T06:46:29Z</time></trkpt><trkpt lat="45.90879409804898" lon="12.050619140779535"><ele>326.59999999999997</ele><time>2026-05-01T06:46:30Z</time></trkpt><trkpt lat="45.908721164855486" lon="12.050494176015382"><ele>329.79999999999995</ele><time>2026-05-01T06:46:31Z</time></trkpt><trkpt lat="45.90864802867768" lon="12.050367350440453"><ele>333.0</ele><time>2026-05-01T06:46:32Z</time></trkpt><trkpt lat="45.90857575715913" lon="12.05023871148757"><ele>333.0</ele><time>2026-05-01T06:46:33Z</time></trkpt><trkpt lat="45.90850415048822" lon="12.050112755188259"><ele>333.0</ele><time>2026-05-01T06:46:34Z</time></trkpt><trkpt lat="45.90843036121796" lon="12.049995083713428"><ele>333.0</ele><time>2026-05-01T06:46:35Z</time></trkpt><trkpt lat="45.90834669918758" lon="12.049890806297054"><ele>333.0</ele><time>2026-05-01T06:46:36Z</time></trkpt><trkpt lat="45.90825753972844" lon="12.049795492864963"><ele>333.0</ele><time>2026-05-01T06:46:37Z</time></trkpt><trkpt lat="45.90816910273036" lon="12.049699634940024"><ele>331.0</ele><time>2026-05-01T06:46:38Z</time></trkpt><trkpt lat="45.908075837958926" lon="12.049609206631503"><ele>329.0</ele><time>2026-05-01T06:46:39Z</time></trkpt><trkpt lat="45.907986222399316" lon="12.049521169471472"><ele>327.0</ele><time>2026-05-01T06:46:40Z</time></trkpt><trkpt lat="45.907896815533725" lon="12.049443771333276"><ele>325.0</ele><time>2026-05-01T06:46:41Z</time></trkpt><trkpt lat="45.90780641535614" lon="12.049373497262483"><ele>323.0</ele><time>2026-05-01T06:46:42Z</time></trkpt><trkpt lat="45.90771840015203" lon="12.049307323281715"><ele>323.0</ele><time>2026-05-01T06:46:43Z</time></trkpt><trkpt lat="45.90762841182881" lon="12.049249279370375"><ele>323.0</ele><time>2026-05-01T06:46:44Z</time></trkpt><trkpt lat="45.90753850583886" lon="12.04920638856139"><ele>323.0</ele><time>2026-05-01T06:46:45Z</time></trkpt><trkpt lat="45.9074651994865" lon="12.049176068967162"><ele>323.0</ele><time>2026-05-01T06:46:46Z</time></trkpt><trkpt lat="45.907405211890826" lon="12.0491447038849"><ele>323.0</ele><time>2026-05-01T06:46:48Z</time></trkpt><trkpt lat="45.9073223654269" lon="12.049105120131175"><ele>323.0</ele><time>2026-05-01T06:48:25Z</time></trkpt><trkpt lat="45.90718058570955" lon="12.0490796554372"><ele>323.79999999999995</ele><time>2026-05-01T06:48:27Z</time></trkpt><trkpt lat="45.90708476338619" lon="12.04906414694123"><ele>324.6</ele><time>2026-05-01T06:48:28Z</time></trkpt><trkpt lat="45.906960342074896" lon="12.04903391560151"><ele>325.4</ele><time>2026-05-01T06:48:29Z</time></trkpt><trkpt lat="45.906852795847676" lon="12.04900513594393"><ele>326.20000000000005</ele><time>2026-05-01T06:48:30Z</time></trkpt><trkpt lat="45.906758832987045" lon="12.048973224764191"><ele>327.0</ele><time>2026-05-01T06:48:31Z</time></trkpt><trkpt lat="45.90667031665198" lon="12.048939818289663"><ele>324.5</ele><time>2026-05-01T06:48:32Z</time></trkpt><trkpt lat="45.90658588634145" lon="12.04890384329366"><ele>322.0</ele><time>2026-05-01T06:48:33Z</time></trkpt><trkpt lat="45.90650617384494" lon="12.048857971790834"><ele>319.5</ele><time>2026-05-01T06:48:34Z</time></trkpt><trkpt lat="45.90643033086202" lon="12.048797717312763"><ele>317.0</ele><time>2026-05-01T06:48:35Z</time></trkpt><trkpt lat="45.90636514406298" lon="12.0487151520248"><ele>314.5</ele><time>2026-05-01T06:48:36Z</time></trkpt><trkpt lat="45.906314888660596" lon="12.048616033429882"><ele>312.0</ele><time>2026-05-01T06:48:37Z</time></trkpt><trkpt lat="45.90626853834486" lon="12.048496823053934"><ele>312.0</ele><time>2026-05-01T06:48:38Z</time></trkpt><trkpt lat="45.9062306845567" lon="12.048361544686815"><ele>312.0</ele><time>2026-05-01T06:48:39Z</time></trkpt><trkpt lat="45.90620545757085" lon="12.048214971512127"><ele>312.0</ele><time>2026-05-01T06:48:40Z</time></trkpt><trkpt lat="45.90619602703316" lon="12.048058262809505"><ele>312.0</ele><time>2026-05-01T06:48:41Z</time></trkpt><trkpt lat="45.90618258003782" lon="12.047905020355495"><ele>312.0</ele><time>2026-05-01T06:48:42Z</time></trkpt><trkpt lat="45.90616942417341" lon="12.047747772946327"><ele>312.75</ele><time>2026-05-01T06:48:43Z</time></trkpt><trkpt lat="45.9061583899588" lon="12.047588816514516"><ele>313.5</ele><time>2026-05-01T06:48:44Z</time></trkpt><trkpt lat="45.90614158556504" lon="12.04742310102527"><ele>314.25</ele><time>2026-05-01T06:48:45Z</time></trkpt><trkpt lat="45.90611700303451" lon="12.047266593868041"><ele>315.0</ele><time>2026-05-01T06:48:46Z</time></trkpt><trkpt lat="45.90608074313667" lon="12.047115965380824"><ele>315.8</ele><time>2026-05-01T06:48:47Z</time></trkpt><trkpt lat="45.90603206905834" lon="12.046964578783436"><ele>316.6</ele><time>2026-05-01T06:48:48Z</time></trkpt><trkpt lat="45.90598325805753" lon="12.046821285952618"><ele>317.4</ele><time>2026-05-01T06:48:49Z</time></trkpt><trkpt lat="45.90593660922577" lon="12.046687953107877"><ele>318.2</ele><time>2026-05-01T06:48:50Z</time></trkpt><trkpt lat="45.90589615016271" lon="12.046561133004126"><ele>319.0</ele><time>2026-05-01T06:48:51Z</time></trkpt><trkpt lat="45.905858514733374" lon="12.046439511929611"><ele>316.4</ele><time>2026-05-01T06:48:52Z</time></trkpt><trkpt lat="45.9058279011251" lon="12.046317466294786"><ele>313.79999999999995</ele><time>2026-05-01T06:48:53Z</time></trkpt><trkpt lat="45.9058122205405" lon="12.046191499648891"><ele>311.20000000000005</ele><time>2026-05-01T06:48:54Z</time></trkpt><trkpt lat="45.905801978637186" lon="12.04604979677792"><ele>308.6</ele><time>2026-05-01T06:48:55Z</time></trkpt><trkpt lat="45.90579722836548" lon="12.045905285463716"><ele>306.0</ele><time>2026-05-01T06:48:56Z</time></trkpt><trkpt lat="45.90578137996238" lon="12.045759209590587"><ele>306.0</ele><time>2026-05-01T06:48:57Z</time></trkpt><trkpt lat="45.90575287878471" lon="12.045609171092059"><ele>306.0</ele><time>2026-05-01T06:48:58Z</time></trkpt><trkpt lat="45.90571114613144" lon="12.045462658401505"><ele>306.0</ele><time>2026-05-01T06:48:59Z</time></trkpt><trkpt lat="45.905660677063885" lon="12.045324183715769"><ele>306.0</ele><time>2026-05-01T06:49:00Z</time></trkpt><trkpt lat="45.9056015880744" lon="12.045189941198133"><ele>306.0</ele><time>2026-05-01T06:49:01Z</time></trkpt><trkpt lat="45.90554358449001" lon="12.045051598981086"><ele>308.25</ele><time>2026-05-01T06:49:02Z</time></trkpt><trkpt lat="45.90548340422286" lon="12.044910705952395"><ele>310.5</ele><time>2026-05-01T06:49:03Z</time></trkpt><trkpt lat="45.90542366772045" lon="12.044765431144207"><ele>312.75</ele><time>2026-05-01T06:49:04Z</time></trkpt><trkpt lat="45.90537058223939" lon="12.044612497590903"><ele>315.0</ele><time>2026-05-01T06:49:05Z</time></trkpt><trkpt lat="45.90532931845022" lon="12.044454310814494"><ele>315.0</ele><time>2026-05-01T06:49:06Z</time></trkpt><trkpt lat="45.9053006211435" lon="12.044294980259135"><ele>315.0</ele><time>2026-05-01T06:49:07Z</time></trkpt><trkpt lat="45.90528030075542" lon="12.044136161179992"><ele>315.0</ele><time>2026-05-01T06:49:08Z</time></trkpt><trkpt lat="45.905260849272786" lon="12.043978460044155"><ele>315.0</ele><time>2026-05-01T06:49:09Z</time></trkpt><trkpt lat="45.90522897619611" lon="12.043823736796144"><ele>316.75</ele><time>2026-05-01T06:49:10Z</time></trkpt><trkpt lat="45.90517973114873" lon="12.043678318524744"><ele>318.5</ele><time>2026-05-01T06:49:11Z</time></trkpt><trkpt lat="45.90511588677007" lon="12.043545513122579"><ele>320.25</ele><time>2026-05-01T06:49:12Z</time></trkpt><trkpt lat="45.905050735931155" lon="12.043415537771864"><ele>322.0</ele><time>2026-05-01T06:49:13Z</time></trkpt><trkpt lat="45.90498835731213" lon="12.043276436970629"><ele>317.0</ele><time>2026-05-01T06:49:14Z</time></trkpt><trkpt lat="45.904933010451806" lon="12.043135366566995"><ele>312.0</ele><time>2026-05-01T06:49:15Z</time></trkpt><trkpt lat="45.90489175947621" lon="12.042978562454449"><ele>307.0</ele><time>2026-05-01T06:49:16Z</time></trkpt><trkpt lat="45.904865751294544" lon="12.042817545270319"><ele>302.0</ele><time>2026-05-01T06:49:17Z</time></trkpt><trkpt lat="45.904847469329624" lon="12.042656995994522"><ele>302.0</ele><time>2026-05-01T06:49:18Z</time></trkpt><trkpt lat="45.90484343890745" lon="12.04250557461959"><ele>302.0</ele><time>2026-05-01T06:49:19Z</time></trkpt><trkpt lat="45.90485998695268" lon="12.0423709221781"><ele>302.0</ele><time>2026-05-01T06:49:20Z</time></trkpt><trkpt lat="45.904898248356965" lon="12.04223722945345"><ele>302.0</ele><time>2026-05-01T06:49:21Z</time></trkpt><trkpt lat="45.904956369564644" lon="12.04211292206413"><ele>302.0</ele><time>2026-05-01T06:49:22Z</time></trkpt><trkpt lat="45.9050289692419" lon="12.042002744715742"><ele>307.0</ele><time>2026-05-01T06:49:23Z</time></trkpt><trkpt lat="45.90510869609732" lon="12.041901678459253"><ele>312.0</ele><time>2026-05-01T06:49:23.999Z</time></trkpt><trkpt lat="45.90518682078956" lon="12.04180661131674"><ele>317.0</ele><time>2026-05-01T06:49:24.999Z</time></trkpt><trkpt lat="45.90525408160423" lon="12.041708556732319"><ele>322.0</ele><time>2026-05-01T06:49:25.999Z</time></trkpt><trkpt lat="45.905325373885205" lon="12.041600291376772"><ele>327.0</ele><time>2026-05-01T06:49:26.999Z</time></trkpt><trkpt lat="45.90538492806346" lon="12.041465782918324"><ele>327.0</ele><time>2026-05-01T06:49:27.999Z</time></trkpt><trkpt lat="45.90543202675777" lon="12.04131938964707"><ele>327.0</ele><time>2026-05-01T06:49:28.999Z</time></trkpt><trkpt lat="45.90545578581193" lon="12.041161540158614"><ele>327.0</ele><time>2026-05-01T06:49:29.999Z</time></trkpt><trkpt lat="45.90545649176678" lon="12.040998405988171"><ele>327.0</ele><time>2026-05-01T06:49:30.999Z</time></trkpt><trkpt lat="45.90543808498043" lon="12.040835213019445"><ele>328.20000000000005</ele><time>2026-05-01T06:49:31.999Z</time></trkpt><trkpt lat="45.90540163694918" lon="12.040689434283603"><ele>329.4</ele><time>2026-05-01T06:49:32.999Z</time></trkpt><trkpt lat="45.90535122076317" lon="12.040540359356562"><ele>330.6</ele><time>2026-05-01T06:49:33.999Z</time></trkpt><trkpt lat="45.905304182159604" lon="12.040401508647019"><ele>331.79999999999995</ele><time>2026-05-01T06:49:34.999Z</time></trkpt><trkpt lat="45.905261595325136" lon="12.040268193698841"><ele>333.0</ele><time>2026-05-01T06:49:35.999Z</time></trkpt><trkpt lat="45.90521993997194" lon="12.040135618676917"><ele>333.0</ele><time>2026-05-01T06:49:36.999Z</time></trkpt><trkpt lat="45.90517706246731" lon="12.040003759843389"><ele>333.0</ele><time>2026-05-01T06:49:37.999Z</time></trkpt><trkpt lat="45.90513783715538" lon="12.039873797594723"><ele>333.0</ele><time>2026-05-01T06:49:38.999Z</time></trkpt><trkpt lat="45.90510328421864" lon="12.039743671884773"><ele>333.0</ele><time>2026-05-01T06:49:39.999Z</time></trkpt><trkpt lat="45.90507449177732" lon="12.039609778002879"><ele>333.0</ele><time>2026-05-01T06:49:40.999Z</time></trkpt><trkpt lat="45.90506146574212" lon="12.039477020310368"><ele>332.4</ele><time>2026-05-01T06:49:41.999Z</time></trkpt><trkpt lat="45.905058521811064" lon="12.03933641005677"><ele>331.79999999999995</ele><time>2026-05-01T06:49:42.999Z</time></trkpt><trkpt lat="45.90506201527407" lon="12.039198385817032"><ele>331.2</ele><time>2026-05-01T06:49:43.999Z</time></trkpt><trkpt lat="45.905067148861974" lon="12.039056484775424"><ele>330.6</ele><time>2026-05-01T06:49:44.999Z</time></trkpt><trkpt lat="45.90507536258659" lon="12.038913929432514"><ele>330.0</ele><time>2026-05-01T06:49:45.999Z</time></trkpt><trkpt lat="45.90508662781557" lon="12.038771189005576"><ele>330.0</ele><time>2026-05-01T06:49:46.999Z</time></trkpt><trkpt lat="45.905102921418155" lon="12.038625277356562"><ele>330.0</ele><time>2026-05-01T06:49:47.999Z</time></trkpt><trkpt lat="45.905124610347976" lon="12.038481754581452"><ele>330.0</ele><time>2026-05-01T06:49:48.999Z</time></trkpt><trkpt lat="45.90515144055089" lon="12.038341983112632"><ele>330.0</ele><time>2026-05-01T06:49:49.999Z</time></trkpt><trkpt lat="45.90519053361087" lon="12.0382038963169"><ele>330.0</ele><time>2026-05-01T06:49:51Z</time></trkpt><trkpt lat="45.90523835885361" lon="12.038071380035083"><ele>329.0</ele><time>2026-05-01T06:49:52Z</time></trkpt><trkpt lat="45.90528878542175" lon="12.037946569614226"><ele>328.0</ele><time>2026-05-01T06:49:53Z</time></trkpt><trkpt lat="45.90533963862674" lon="12.0378214552341"><ele>327.0</ele><time>2026-05-01T06:49:54Z</time></trkpt><trkpt lat="45.90539038517601" lon="12.037695032614657"><ele>326.0</ele><time>2026-05-01T06:49:55Z</time></trkpt><trkpt lat="45.905441162985205" lon="12.037573073157994"><ele>325.0</ele><time>2026-05-01T06:49:56Z</time></trkpt><trkpt lat="45.90548883879646" lon="12.037449989134423"><ele>324.2</ele><time>2026-05-01T06:49:57Z</time></trkpt><trkpt lat="45.9055347391173" lon="12.037327042423065"><ele>323.4</ele><time>2026-05-01T06:49:58Z</time></trkpt><trkpt lat="45.90558539611261" lon="12.03720334503685"><ele>322.6</ele><time>2026-05-01T06:49:59Z</time></trkpt><trkpt lat="45.905636478095566" lon="12.037079879173714"><ele>321.8</ele><time>2026-05-01T06:50:00Z</time></trkpt><trkpt lat="45.90568619321328" lon="12.036956268811135"><ele>321.0</ele><time>2026-05-01T06:50:01Z</time></trkpt><trkpt lat="45.90573551899125" lon="12.036831049695111"><ele>321.0</ele><time>2026-05-01T06:50:02Z</time></trkpt><trkpt lat="45.90578112286028" lon="12.03670475231075"><ele>321.0</ele><time>2026-05-01T06:50:03Z</time></trkpt><trkpt lat="45.90582251074546" lon="12.03657293347331"><ele>321.0</ele><time>2026-05-01T06:50:04Z</time></trkpt><trkpt lat="45.90585311926691" lon="12.036424385753163"><ele>321.0</ele><time>2026-05-01T06:50:05Z</time></trkpt><trkpt lat="45.905889555581986" lon="12.036277892506954"><ele>321.0</ele><time>2026-05-01T06:50:06Z</time></trkpt><trkpt lat="45.9059030939924" lon="12.036117279360575"><ele>320.6</ele><time>2026-05-01T06:50:07Z</time></trkpt><trkpt lat="45.90589363533855" lon="12.035959112680967"><ele>320.20000000000005</ele><time>2026-05-01T06:50:08Z</time></trkpt><trkpt lat="45.90589030399501" lon="12.035797811345251"><ele>319.79999999999995</ele><time>2026-05-01T06:50:09Z</time></trkpt><trkpt lat="45.90590230951807" lon="12.035646727582773"><ele>319.4</ele><time>2026-05-01T06:50:10Z</time></trkpt><trkpt lat="45.90587206117737" lon="12.035494177525754"><ele>319.0</ele><time>2026-05-01T06:50:11Z</time></trkpt><trkpt lat="45.905858830128814" lon="12.035341483927958"><ele>319.79999999999995</ele><time>2026-05-01T06:50:12Z</time></trkpt><trkpt lat="45.90584249273334" lon="12.035184610708885"><ele>320.59999999999997</ele><time>2026-05-01T06:50:13Z</time></trkpt><trkpt lat="45.90582469291277" lon="12.035029381081987"><ele>321.4</ele><time>2026-05-01T06:50:14Z</time></trkpt><trkpt lat="45.90579877553146" lon="12.034871733509899"><ele>322.2</ele><time>2026-05-01T06:50:15Z</time></trkpt><trkpt lat="45.905762568719815" lon="12.034721710831452"><ele>323.0</ele><time>2026-05-01T06:50:16Z</time></trkpt><trkpt lat="45.905712873289815" lon="12.034584708052288"><ele>326.4</ele><time>2026-05-01T06:50:17Z</time></trkpt><trkpt lat="45.90564909198052" lon="12.03446507438379"><ele>329.79999999999995</ele><time>2026-05-01T06:50:18Z</time></trkpt><trkpt lat="45.90557177005721" lon="12.034365363100482"><ele>333.2</ele><time>2026-05-01T06:50:19Z</time></trkpt><trkpt lat="45.905486532437145" lon="12.034290289250476"><ele>336.6</ele><time>2026-05-01T06:50:20Z</time></trkpt><trkpt lat="45.905398269324884" lon="12.034221890717166"><ele>340.0</ele><time>2026-05-01T06:50:21Z</time></trkpt><trkpt lat="45.90531139223974" lon="12.034146252769185"><ele>340.0</ele><time>2026-05-01T06:50:22Z</time></trkpt><trkpt lat="45.90522953917397" lon="12.034057264616258"><ele>340.0</ele><time>2026-05-01T06:50:23Z</time></trkpt><trkpt lat="45.90515601733928" lon="12.033955017718672"><ele>340.0</ele><time>2026-05-01T06:50:24Z</time></trkpt><trkpt lat="45.90508503885838" lon="12.033846547412088"><ele>340.0</ele><time>2026-05-01T06:50:25Z</time></trkpt><trkpt lat="45.905018716309684" lon="12.033730083406278"><ele>340.0</ele><time>2026-05-01T06:50:26Z</time></trkpt><trkpt lat="45.90495371821552" lon="12.033610926515086"><ele>340.0</ele><time>2026-05-01T06:50:27Z</time></trkpt><trkpt lat="45.90488841814289" lon="12.0334951695152"><ele>340.0</ele><time>2026-05-01T06:50:28Z</time></trkpt><trkpt lat="45.90482688272966" lon="12.033372077774752"><ele>340.0</ele><time>2026-05-01T06:50:29Z</time></trkpt><trkpt lat="45.904768878724255" lon="12.03324271501124"><ele>340.0</ele><time>2026-05-01T06:50:30Z</time></trkpt><trkpt lat="45.9047178758161" lon="12.033107167473682"><ele>340.0</ele><time>2026-05-01T06:50:31Z</time></trkpt><trkpt lat="45.90467516815438" lon="12.032963143671285"><ele>344.0</ele><time>2026-05-01T06:50:32Z</time></trkpt><trkpt lat="45.904628495733895" lon="12.03281945970214"><ele>348.0</ele><time>2026-05-01T06:50:33Z</time></trkpt><trkpt lat="45.90458502534216" lon="12.032675766999478"><ele>352.0</ele><time>2026-05-01T06:50:34Z</time></trkpt><trkpt lat="45.90454206374755" lon="12.032528779600051"><ele>356.0</ele><time>2026-05-01T06:50:35Z</time></trkpt><trkpt lat="45.90450392460535" lon="12.032381300459528"><ele>360.0</ele><time>2026-05-01T06:50:36Z</time></trkpt><trkpt lat="45.90446627349394" lon="12.032232068782331"><ele>364.0</ele><time>2026-05-01T06:50:37Z</time></trkpt><trkpt lat="45.90443053322606" lon="12.032083509105217"><ele>368.0</ele><time>2026-05-01T06:50:38Z</time></trkpt><trkpt lat="45.90439774294609" lon="12.031933697820547"><ele>372.0</ele><time>2026-05-01T06:50:39Z</time></trkpt><trkpt lat="45.90436086965471" lon="12.031785659975615"><ele>376.0</ele><time>2026-05-01T06:50:40Z</time></trkpt><trkpt lat="45.90432665198297" lon="12.031637491240218"><ele>380.0</ele><time>2026-05-01T06:50:41Z</time></trkpt><trkpt lat="45.90429185459367" lon="12.031493388460957"><ele>383.8</ele><time>2026-05-01T06:50:42Z</time></trkpt><trkpt lat="45.90424750828114" lon="12.031351247434488"><ele>387.6</ele><time>2026-05-01T06:50:43Z</time></trkpt><trkpt lat="45.90419314682169" lon="12.031219663497462"><ele>391.4</ele><time>2026-05-01T06:50:44Z</time></trkpt><trkpt lat="45.904124049350095" lon="12.031108517390741"><ele>395.2</ele><time>2026-05-01T06:50:45Z</time></trkpt><trkpt lat="45.90403512852481" lon="12.031014445466315"><ele>399.0</ele><time>2026-05-01T06:50:46Z</time></trkpt><trkpt lat="45.90394389391614" lon="12.030942071150339"><ele>394.2</ele><time>2026-05-01T06:50:47Z</time></trkpt><trkpt lat="45.903844704264195" lon="12.03088415813329"><ele>389.4</ele><time>2026-05-01T06:50:48Z</time></trkpt><trkpt lat="45.90374932806381" lon="12.030811702421175"><ele>384.6</ele><time>2026-05-01T06:50:49Z</time></trkpt><trkpt lat="45.90364650728119" lon="12.030783185116716"><ele>379.8</ele><time>2026-05-01T06:50:50Z</time></trkpt><trkpt lat="45.903550520812644" lon="12.030722475757559"><ele>375.0</ele><time>2026-05-01T06:50:51Z</time></trkpt><trkpt lat="45.90345667131873" lon="12.030658146469074"><ele>370.2</ele><time>2026-05-01T06:50:52Z</time></trkpt><trkpt lat="45.903364871375025" lon="12.03057859050216"><ele>365.4</ele><time>2026-05-01T06:50:53Z</time></trkpt><trkpt lat="45.90328667095631" lon="12.030483862185074"><ele>360.6</ele><time>2026-05-01T06:50:54Z</time></trkpt><trkpt lat="45.90322082372683" lon="12.03037652686577"><ele>355.8</ele><time>2026-05-01T06:50:55Z</time></trkpt><trkpt lat="45.90316270636631" lon="12.030260613850665"><ele>351.0</ele><time>2026-05-01T06:50:56Z</time></trkpt><trkpt lat="45.90311494627127" lon="12.030132648291405"><ele>351.0</ele><time>2026-05-01T06:50:57Z</time></trkpt><trkpt lat="45.90307944471915" lon="12.029998518409796"><ele>351.0</ele><time>2026-05-01T06:50:58Z</time></trkpt><trkpt lat="45.903053703722016" lon="12.02986204046485"><ele>351.0</ele><time>2026-05-01T06:50:59Z</time></trkpt><trkpt lat="45.9030437180778" lon="12.029722840485595"><ele>351.0</ele><time>2026-05-01T06:51:00Z</time></trkpt><trkpt lat="45.9030708634247" lon="12.029585218696408"><ele>351.0</ele><time>2026-05-01T06:51:01Z</time></trkpt><trkpt lat="45.90308465347173" lon="12.029445199487563"><ele>350.20000000000005</ele><time>2026-05-01T06:51:02Z</time></trkpt><trkpt lat="45.90313358936465" lon="12.029319769766008"><ele>349.40000000000003</ele><time>2026-05-01T06:51:03Z</time></trkpt><trkpt lat="45.90320155233731" lon="12.029210599813721"><ele>348.6</ele><time>2026-05-01T06:51:04Z</time></trkpt><trkpt lat="45.903278055008364" lon="12.029111419314551"><ele>347.8</ele><time>2026-05-01T06:51:05Z</time></trkpt><trkpt lat="45.90335935717192" lon="12.029017564406756"><ele>347.0</ele><time>2026-05-01T06:51:06Z</time></trkpt><trkpt lat="45.90343986531942" lon="12.028920308247697"><ele>351.20000000000005</ele><time>2026-05-01T06:51:07Z</time></trkpt><trkpt lat="45.90350221959916" lon="12.028803123808705"><ele>355.4</ele><time>2026-05-01T06:51:08Z</time></trkpt><trkpt lat="45.903534739834235" lon="12.028655380865434"><ele>359.6</ele><time>2026-05-01T06:51:09Z</time></trkpt><trkpt lat="45.90353278221989" lon="12.028498973272255"><ele>363.79999999999995</ele><time>2026-05-01T06:51:10Z</time></trkpt><trkpt lat="45.903496293204505" lon="12.02835229481479"><ele>368.0</ele><time>2026-05-01T06:51:11Z</time></trkpt><trkpt lat="45.90343720872983" lon="12.028227192128716"><ele>365.0</ele><time>2026-05-01T06:51:12Z</time></trkpt><trkpt lat="45.90337886204783" lon="12.028110302142064"><ele>362.0</ele><time>2026-05-01T06:51:13Z</time></trkpt><trkpt lat="45.903322376659894" lon="12.027996710878373"><ele>359.0</ele><time>2026-05-01T06:51:14Z</time></trkpt><trkpt lat="45.903274706937104" lon="12.027872279598453"><ele>356.0</ele><time>2026-05-01T06:51:15Z</time></trkpt><trkpt lat="45.903234574498065" lon="12.027744088406847"><ele>353.0</ele><time>2026-05-01T06:51:16Z</time></trkpt><trkpt lat="45.90321621002422" lon="12.02760870934255"><ele>350.59999999999997</ele><time>2026-05-01T06:51:17Z</time></trkpt><trkpt lat="45.90322232023894" lon="12.02747120334867"><ele>348.2</ele><time>2026-05-01T06:51:18Z</time></trkpt><trkpt lat="45.90324115670983" lon="12.027330711594566"><ele>345.8</ele><time>2026-05-01T06:51:19Z</time></trkpt><trkpt lat="45.90326900446794" lon="12.027187908234966"><ele>343.4</ele><time>2026-05-01T06:51:20Z</time></trkpt><trkpt lat="45.90330852916507" lon="12.027044719468524"><ele>341.0</ele><time>2026-05-01T06:51:21Z</time></trkpt><trkpt lat="45.90335699459026" lon="12.026919716772776"><ele>341.4</ele><time>2026-05-01T06:51:22Z</time></trkpt><trkpt lat="45.90341983288494" lon="12.026806654294683"><ele>341.8</ele><time>2026-05-01T06:51:23Z</time></trkpt><trkpt lat="45.90349586771944" lon="12.026691965169954"><ele>342.2</ele><time>2026-05-01T06:51:24Z</time></trkpt><trkpt lat="45.90357932760567" lon="12.026596941013702"><ele>342.59999999999997</ele><time>2026-05-01T06:51:25Z</time></trkpt><trkpt lat="45.903667523616754" lon="12.02651508682864"><ele>343.0</ele><time>2026-05-01T06:51:26Z</time></trkpt><trkpt lat="45.903764968658955" lon="12.026449805659487"><ele>343.0</ele><time>2026-05-01T06:51:27Z</time></trkpt><trkpt lat="45.90386950997268" lon="12.026405920088012"><ele>343.0</ele><time>2026-05-01T06:51:27.999Z</time></trkpt><trkpt lat="45.903975833523006" lon="12.02636938792858"><ele>343.0</ele><time>2026-05-01T06:51:28.999Z</time></trkpt><trkpt lat="45.904083248008355" lon="12.02633339041877"><ele>343.0</ele><time>2026-05-01T06:51:29.999Z</time></trkpt><trkpt lat="45.904189233119865" lon="12.026286401321613"><ele>343.0</ele><time>2026-05-01T06:51:30.999Z</time></trkpt><trkpt lat="45.90429166375844" lon="12.026228798402267"><ele>345.59999999999997</ele><time>2026-05-01T06:51:31.999Z</time></trkpt><trkpt lat="45.904387402506586" lon="12.026155750471263"><ele>348.2</ele><time>2026-05-01T06:51:32.999Z</time></trkpt><trkpt lat="45.904471049274896" lon="12.026052415977896"><ele>350.8</ele><time>2026-05-01T06:51:33.999Z</time></trkpt><trkpt lat="45.904537734601426" lon="12.025930714986728"><ele>353.4</ele><time>2026-05-01T06:51:34.999Z</time></trkpt><trkpt lat="45.90457979078941" lon="12.025787502906208"><ele>356.0</ele><time>2026-05-01T06:51:35.999Z</time></trkpt><trkpt lat="45.9045975378692" lon="12.025636410953057"><ele>356.0</ele><time>2026-05-01T06:51:36.999Z</time></trkpt><trkpt lat="45.904601038407954" lon="12.025493467365497"><ele>356.0</ele><time>2026-05-01T06:51:37.999Z</time></trkpt><trkpt lat="45.904593625412836" lon="12.02534849751923"><ele>356.0</ele><time>2026-05-01T06:51:38.999Z</time></trkpt><trkpt lat="45.904564777065815" lon="12.025215726151863"><ele>356.0</ele><time>2026-05-01T06:51:39.999Z</time></trkpt><trkpt lat="45.90449992292315" lon="12.025108101998082"><ele>356.0</ele><time>2026-05-01T06:51:40.999Z</time></trkpt><trkpt lat="45.9044107593442" lon="12.025028354550566"><ele>355.4</ele><time>2026-05-01T06:51:41.999Z</time></trkpt><trkpt lat="45.9043120625331" lon="12.024964593953332"><ele>354.8</ele><time>2026-05-01T06:51:42.999Z</time></trkpt><trkpt lat="45.90421159400674" lon="12.024900565960943"><ele>354.2</ele><time>2026-05-01T06:51:43.999Z</time></trkpt><trkpt lat="45.90411182548995" lon="12.024838130262491"><ele>353.59999999999997</ele><time>2026-05-01T06:51:44.999Z</time></trkpt><trkpt lat="45.90401341658428" lon="12.02476758048774"><ele>353.0</ele><time>2026-05-01T06:51:45.999Z</time></trkpt><trkpt lat="45.90392115867945" lon="12.024692583174174"><ele>353.0</ele><time>2026-05-01T06:51:46.999Z</time></trkpt><trkpt lat="45.90383867166289" lon="12.024616249042916"><ele>353.0</ele><time>2026-05-01T06:51:47.999Z</time></trkpt><trkpt lat="45.90377023172184" lon="12.024517827654375"><ele>353.0</ele><time>2026-05-01T06:51:48.999Z</time></trkpt><trkpt lat="45.90371299471242" lon="12.02439701001278"><ele>353.0</ele><time>2026-05-01T06:51:49.999Z</time></trkpt><trkpt lat="45.90366437159008" lon="12.024265582121762"><ele>353.0</ele><time>2026-05-01T06:51:50.999Z</time></trkpt><trkpt lat="45.90361990092409" lon="12.024127198582592"><ele>352.2</ele><time>2026-05-01T06:51:51.999Z</time></trkpt><trkpt lat="45.90357831249579" lon="12.023982399329125"><ele>351.4</ele><time>2026-05-01T06:51:52.999Z</time></trkpt><trkpt lat="45.90353367443224" lon="12.023836697674968"><ele>350.59999999999997</ele><time>2026-05-01T06:51:53.999Z</time></trkpt><trkpt lat="45.903483836081826" lon="12.023689653204306"><ele>349.79999999999995</ele><time>2026-05-01T06:51:54.999Z</time></trkpt><trkpt lat="45.90345367017526" lon="12.02353176262391"><ele>349.0</ele><time>2026-05-01T06:51:55.999Z</time></trkpt><trkpt lat="45.90340862368863" lon="12.02338092972435"><ele>349.0</ele><time>2026-05-01T06:51:57Z</time></trkpt><trkpt lat="45.903345796796295" lon="12.023226863238078"><ele>349.0</ele><time>2026-05-01T06:51:58Z</time></trkpt><trkpt lat="45.90329944205728" lon="12.023074716874826"><ele>349.0</ele><time>2026-05-01T06:51:59Z</time></trkpt><trkpt lat="45.90326789511297" lon="12.022924518639217"><ele>349.0</ele><time>2026-05-01T06:52:00Z</time></trkpt><trkpt lat="45.9032179057451" lon="12.022779269954153"><ele>349.0</ele><time>2026-05-01T06:52:01Z</time></trkpt><trkpt lat="45.90314761597312" lon="12.022649043646908"><ele>349.0</ele><time>2026-05-01T06:52:02Z</time></trkpt><trkpt lat="45.9031190611833" lon="12.022470226628766"><ele>349.0</ele><time>2026-05-01T06:52:03Z</time></trkpt><trkpt lat="45.90297220618073" lon="12.022417414184023"><ele>349.0</ele><time>2026-05-01T06:52:04Z</time></trkpt><trkpt lat="45.90286248668412" lon="12.022328840615677"><ele>350.25</ele><time>2026-05-01T06:52:05Z</time></trkpt><trkpt lat="45.90274731694994" lon="12.022249727219942"><ele>351.5</ele><time>2026-05-01T06:52:06Z</time></trkpt><trkpt lat="45.90263797613771" lon="12.02217743499447"><ele>352.75</ele><time>2026-05-01T06:52:07Z</time></trkpt><trkpt lat="45.90252818960706" lon="12.022102513125178"><ele>354.0</ele><time>2026-05-01T06:52:08Z</time></trkpt><trkpt lat="45.90242183891251" lon="12.02199809406051"><ele>350.75</ele><time>2026-05-01T06:52:09Z</time></trkpt><trkpt lat="45.90230586004718" lon="12.021916390995075"><ele>347.5</ele><time>2026-05-01T06:52:10Z</time></trkpt><trkpt lat="45.90219582582991" lon="12.02183878852084"><ele>344.25</ele><time>2026-05-01T06:52:11Z</time></trkpt><trkpt lat="45.902088676048166" lon="12.021763220259873"><ele>341.0</ele><time>2026-05-01T06:52:12Z</time></trkpt><trkpt lat="45.9019780715048" lon="12.021696159771622"><ele>341.8</ele><time>2026-05-01T06:52:13Z</time></trkpt><trkpt lat="45.90187171716639" lon="12.021627626103635"><ele>342.6</ele><time>2026-05-01T06:52:14Z</time></trkpt><trkpt lat="45.90177762674113" lon="12.021547380742494"><ele>343.4</ele><time>2026-05-01T06:52:15Z</time></trkpt><trkpt lat="45.90169482940582" lon="12.021456269935411"><ele>344.2</ele><time>2026-05-01T06:52:16Z</time></trkpt><trkpt lat="45.90162496542615" lon="12.021345941911711"><ele>345.0</ele><time>2026-05-01T06:52:17Z</time></trkpt><trkpt lat="45.90156130801348" lon="12.02121739846956"><ele>343.25</ele><time>2026-05-01T06:52:18Z</time></trkpt><trkpt lat="45.90149990143531" lon="12.02107782206934"><ele>341.5</ele><time>2026-05-01T06:52:19Z</time></trkpt><trkpt lat="45.90143085370263" lon="12.020941529774726"><ele>339.75</ele><time>2026-05-01T06:52:20Z</time></trkpt><trkpt lat="45.90136511639826" lon="12.020810003413255"><ele>338.0</ele><time>2026-05-01T06:52:21Z</time></trkpt><trkpt lat="45.901302090846904" lon="12.020684828058782"><ele>338.0</ele><time>2026-05-01T06:52:22Z</time></trkpt><trkpt lat="45.901241813899574" lon="12.020563117603812"><ele>338.0</ele><time>2026-05-01T06:52:23Z</time></trkpt><trkpt lat="45.90118288981854" lon="12.020447817415754"><ele>338.0</ele><time>2026-05-01T06:52:24Z</time></trkpt><trkpt lat="45.901127291308065" lon="12.020335241249608"><ele>338.0</ele><time>2026-05-01T06:52:25Z</time></trkpt><trkpt lat="45.901072960379764" lon="12.020225158099318"><ele>338.0</ele><time>2026-05-01T06:52:26Z</time></trkpt><trkpt lat="45.90101922392095" lon="12.02011884792192"><ele>338.0</ele><time>2026-05-01T06:52:27Z</time></trkpt><trkpt lat="45.90097327375659" lon="12.020011243566136"><ele>338.0</ele><time>2026-05-01T06:52:28Z</time></trkpt><trkpt lat="45.90092207468916" lon="12.019913166915508"><ele>338.0</ele><time>2026-05-01T06:52:29Z</time></trkpt><trkpt lat="45.90087799949399" lon="12.019809564404037"><ele>338.0</ele><time>2026-05-01T06:52:30Z</time></trkpt><trkpt lat="45.90083685625638" lon="12.019712702380266"><ele>338.0</ele><time>2026-05-01T06:52:31Z</time></trkpt><trkpt lat="45.90079933274118" lon="12.019615332395421"><ele>338.0</ele><time>2026-05-01T06:52:32Z</time></trkpt><trkpt lat="45.90076433850586" lon="12.01949647990823"><ele>335.79999999999995</ele><time>2026-05-01T06:52:33Z</time></trkpt><trkpt lat="45.9007376294584" lon="12.019365991890732"><ele>333.6</ele><time>2026-05-01T06:52:34Z</time></trkpt><trkpt lat="45.90072595907682" lon="12.01921835737268"><ele>331.4</ele><time>2026-05-01T06:52:35Z</time></trkpt><trkpt lat="45.900722143793644" lon="12.019078054099406"><ele>329.20000000000005</ele><time>2026-05-01T06:52:36Z</time></trkpt><trkpt lat="45.90071615893375" lon="12.018947388057951"><ele>327.0</ele><time>2026-05-01T06:52:37Z</time></trkpt><trkpt lat="45.90071110010355" lon="12.018817745832127"><ele>326.0</ele><time>2026-05-01T06:52:38Z</time></trkpt><trkpt lat="45.900701541480615" lon="12.018687746968013"><ele>325.0</ele><time>2026-05-01T06:52:39Z</time></trkpt><trkpt lat="45.90069728128493" lon="12.018557063188634"><ele>324.0</ele><time>2026-05-01T06:52:40Z</time></trkpt><trkpt lat="45.90068842859291" lon="12.018425553416417"><ele>323.0</ele><time>2026-05-01T06:52:41Z</time></trkpt><trkpt lat="45.90067689869267" lon="12.0182820433496"><ele>322.0</ele><time>2026-05-01T06:52:42Z</time></trkpt><trkpt lat="45.900660980012056" lon="12.01813485735449"><ele>321.6</ele><time>2026-05-01T06:52:43Z</time></trkpt><trkpt lat="45.90064755806748" lon="12.017984685048376"><ele>321.20000000000005</ele><time>2026-05-01T06:52:44Z</time></trkpt><trkpt lat="45.90063659666924" lon="12.017831995604851"><ele>320.8</ele><time>2026-05-01T06:52:45Z</time></trkpt><trkpt lat="45.90063182865908" lon="12.017679807795464"><ele>320.4</ele><time>2026-05-01T06:52:46Z</time></trkpt><trkpt lat="45.9006331516593" lon="12.017524671623146"><ele>320.0</ele><time>2026-05-01T06:52:47Z</time></trkpt><trkpt lat="45.90064292750523" lon="12.017367048102269"><ele>319.0</ele><time>2026-05-01T06:52:48Z</time></trkpt><trkpt lat="45.900659828456064" lon="12.01720141779609"><ele>318.0</ele><time>2026-05-01T06:52:49Z</time></trkpt><trkpt lat="45.90067881383505" lon="12.017035493703194"><ele>317.0</ele><time>2026-05-01T06:52:50Z</time></trkpt><trkpt lat="45.90069985109146" lon="12.016865695353085"><ele>316.0</ele><time>2026-05-01T06:52:51Z</time></trkpt><trkpt lat="45.90072055762157" lon="12.016696317406995"><ele>314.75</ele><time>2026-05-01T06:52:52Z</time></trkpt><trkpt lat="45.90073913948867" lon="12.016530160172172"><ele>313.5</ele><time>2026-05-01T06:52:53Z</time></trkpt><trkpt lat="45.9007588372889" lon="12.01636508062943"><ele>312.25</ele><time>2026-05-01T06:52:54Z</time></trkpt><trkpt lat="45.90077731963721" lon="12.016202919115573"><ele>311.0</ele><time>2026-05-01T06:52:55Z</time></trkpt><trkpt lat="45.900795429444294" lon="12.016040142852436"><ele>311.0</ele><time>2026-05-01T06:52:56Z</time></trkpt><trkpt lat="45.90081772128342" lon="12.015878903477638"><ele>311.0</ele><time>2026-05-01T06:52:57Z</time></trkpt><trkpt lat="45.9008352693486" lon="12.015712311763508"><ele>311.0</ele><time>2026-05-01T06:52:58Z</time></trkpt><trkpt lat="45.90085362180518" lon="12.015549358352477"><ele>311.0</ele><time>2026-05-01T06:52:59Z</time></trkpt><trkpt lat="45.900876270325966" lon="12.015391049150054"><ele>311.2</ele><time>2026-05-01T06:53:00Z</time></trkpt><trkpt lat="45.90089830268206" lon="12.015237556857075"><ele>311.40000000000003</ele><time>2026-05-01T06:53:01Z</time></trkpt><trkpt lat="45.90092133588475" lon="12.015089711270383"><ele>311.6</ele><time>2026-05-01T06:53:02Z</time></trkpt><trkpt lat="45.900944302093926" lon="12.014941207073665"><ele>311.8</ele><time>2026-05-01T06:53:03Z</time></trkpt><trkpt lat="45.90097066444423" lon="12.014796072279838"><ele>312.0</ele><time>2026-05-01T06:53:04Z</time></trkpt><trkpt lat="45.90100233070253" lon="12.014655030879947"><ele>312.0</ele><time>2026-05-01T06:53:05Z</time></trkpt><trkpt lat="45.90103661623152" lon="12.014508430228412"><ele>312.0</ele><time>2026-05-01T06:53:06Z</time></trkpt><trkpt lat="45.901072600317285" lon="12.014365321019303"><ele>312.0</ele><time>2026-05-01T06:53:07Z</time></trkpt><trkpt lat="45.90110843653481" lon="12.014222697993858"><ele>312.0</ele><time>2026-05-01T06:53:08Z</time></trkpt><trkpt lat="45.90114498346406" lon="12.014077066126925"><ele>312.0</ele><time>2026-05-01T06:53:09Z</time></trkpt><trkpt lat="45.90118286948676" lon="12.013931809886161"><ele>311.0</ele><time>2026-05-01T06:53:10Z</time></trkpt><trkpt lat="45.90122015620559" lon="12.013782276324736"><ele>310.0</ele><time>2026-05-01T06:53:11Z</time></trkpt><trkpt lat="45.901260193467216" lon="12.013633686422551"><ele>309.0</ele><time>2026-05-01T06:53:12Z</time></trkpt><trkpt lat="45.901296824290874" lon="12.013484910022756"><ele>308.0</ele><time>2026-05-01T06:53:13Z</time></trkpt><trkpt lat="45.90133099892549" lon="12.01333887044891"><ele>307.0</ele><time>2026-05-01T06:53:14Z</time></trkpt><trkpt lat="45.90136985634688" lon="12.013186979645205"><ele>306.6</ele><time>2026-05-01T06:53:15Z</time></trkpt><trkpt lat="45.90140868549866" lon="12.013039418807441"><ele>306.2</ele><time>2026-05-01T06:53:16Z</time></trkpt><trkpt lat="45.90144697632904" lon="12.012890923362374"><ele>305.8</ele><time>2026-05-01T06:53:17Z</time></trkpt><trkpt lat="45.901489404957466" lon="12.012746336056011"><ele>305.4</ele><time>2026-05-01T06:53:18Z</time></trkpt><trkpt lat="45.90153194578744" lon="12.012598251664961"><ele>305.0</ele><time>2026-05-01T06:53:19Z</time></trkpt><trkpt lat="45.901574586079384" lon="12.012452321105787"><ele>304.0</ele><time>2026-05-01T06:53:20Z</time></trkpt><trkpt lat="45.9016131755278" lon="12.012297855302222"><ele>303.0</ele><time>2026-05-01T06:53:21Z</time></trkpt><trkpt lat="45.90165141732274" lon="12.012136942562082"><ele>302.0</ele><time>2026-05-01T06:53:22Z</time></trkpt><trkpt lat="45.90169120705861" lon="12.011980357251817"><ele>301.0</ele><time>2026-05-01T06:53:23Z</time></trkpt><trkpt lat="45.90173320902907" lon="12.011825223836013"><ele>301.25</ele><time>2026-05-01T06:53:24Z</time></trkpt><trkpt lat="45.90177612204226" lon="12.011669863151775"><ele>301.5</ele><time>2026-05-01T06:53:25Z</time></trkpt><trkpt lat="45.901818668553" lon="12.011512952756396"><ele>301.75</ele><time>2026-05-01T06:53:26Z</time></trkpt><trkpt lat="45.90185971269964" lon="12.011356345624755"><ele>302.0</ele><time>2026-05-01T06:53:27Z</time></trkpt><trkpt lat="45.901898155702725" lon="12.011194153418884"><ele>302.0</ele><time>2026-05-01T06:53:28Z</time></trkpt><trkpt lat="45.90193777064467" lon="12.011043027803884"><ele>302.0</ele><time>2026-05-01T06:53:29Z</time></trkpt><trkpt lat="45.901972730645035" lon="12.010880724080643"><ele>302.0</ele><time>2026-05-01T06:53:30Z</time></trkpt><trkpt lat="45.902010851978055" lon="12.010721365564185"><ele>302.0</ele><time>2026-05-01T06:53:31Z</time></trkpt><trkpt lat="45.902050934957245" lon="12.010559631779115"><ele>301.0</ele><time>2026-05-01T06:53:32Z</time></trkpt><trkpt lat="45.90209470768427" lon="12.010402015442839"><ele>300.0</ele><time>2026-05-01T06:53:33Z</time></trkpt><trkpt lat="45.90213853161969" lon="12.010253852529127"><ele>299.0</ele><time>2026-05-01T06:53:34Z</time></trkpt><trkpt lat="45.902180404240426" lon="12.010099461703003"><ele>298.0</ele><time>2026-05-01T06:53:35Z</time></trkpt><trkpt lat="45.90222252496891" lon="12.009940375019275"><ele>296.8</ele><time>2026-05-01T06:53:36Z</time></trkpt><trkpt lat="45.90226378081504" lon="12.009788267863623"><ele>295.6</ele><time>2026-05-01T06:53:37Z</time></trkpt><trkpt lat="45.90230170192583" lon="12.0096353014911"><ele>294.4</ele><time>2026-05-01T06:53:38Z</time></trkpt><trkpt lat="45.90233932490254" lon="12.009487504972329"><ele>293.2</ele><time>2026-05-01T06:53:39Z</time></trkpt><trkpt lat="45.902372906467996" lon="12.009342732706985"><ele>292.0</ele><time>2026-05-01T06:53:40Z</time></trkpt><trkpt lat="45.90240104569566" lon="12.00920415589223"><ele>291.4</ele><time>2026-05-01T06:53:41Z</time></trkpt><trkpt lat="45.90241802905884" lon="12.009064340979661"><ele>290.79999999999995</ele><time>2026-05-01T06:53:42Z</time></trkpt><trkpt lat="45.90242838910811" lon="12.008925698466642"><ele>290.2</ele><time>2026-05-01T06:53:43Z</time></trkpt><trkpt lat="45.902423447518835" lon="12.008786022295249"><ele>289.59999999999997</ele><time>2026-05-01T06:53:44Z</time></trkpt><trkpt lat="45.90240903040775" lon="12.008638140919624"><ele>289.0</ele><time>2026-05-01T06:53:45Z</time></trkpt><trkpt lat="45.902391780912524" lon="12.00848146976142"><ele>289.0</ele><time>2026-05-01T06:53:45.999Z</time></trkpt><trkpt lat="45.90237935206885" lon="12.00833585001119"><ele>289.0</ele><time>2026-05-01T06:53:46.999Z</time></trkpt><trkpt lat="45.902367465147144" lon="12.008188729195936"><ele>289.0</ele><time>2026-05-01T06:53:47.999Z</time></trkpt><trkpt lat="45.9023528986849" lon="12.008041515688237"><ele>289.0</ele><time>2026-05-01T06:53:48.999Z</time></trkpt><trkpt lat="45.90233795988075" lon="12.007895504188559"><ele>289.0</ele><time>2026-05-01T06:53:49.999Z</time></trkpt><trkpt lat="45.90232246047492" lon="12.007759008748364"><ele>288.8</ele><time>2026-05-01T06:53:50.999Z</time></trkpt><trkpt lat="45.902307722295156" lon="12.007620859924742"><ele>288.59999999999997</ele><time>2026-05-01T06:53:51.999Z</time></trkpt><trkpt lat="45.90229340135808" lon="12.007486176189607"><ele>288.4</ele><time>2026-05-01T06:53:52.999Z</time></trkpt><trkpt lat="45.90228226910141" lon="12.007356436012667"><ele>288.2</ele><time>2026-05-01T06:53:53.999Z</time></trkpt><trkpt lat="45.90226972601113" lon="12.00723052276591"><ele>288.0</ele><time>2026-05-01T06:53:54.999Z</time></trkpt><trkpt lat="45.90224698383141" lon="12.007106341852948"><ele>287.6</ele><time>2026-05-01T06:53:55.999Z</time></trkpt><trkpt lat="45.90221008389065" lon="12.006989352551354"><ele>287.20000000000005</ele><time>2026-05-01T06:53:56.999Z</time></trkpt><trkpt lat="45.90216537939418" lon="12.006876559767793"><ele>286.8</ele><time>2026-05-01T06:53:57.999Z</time></trkpt><trkpt lat="45.90211321522752" lon="12.006758529712382"><ele>286.40000000000003</ele><time>2026-05-01T06:53:58.999Z</time></trkpt><trkpt lat="45.90206399010297" lon="12.006654622744007"><ele>286.0</ele><time>2026-05-01T06:53:59.999Z</time></trkpt><trkpt lat="45.90201459567935" lon="12.006532645665057"><ele>285.40000000000003</ele><time>2026-05-01T06:54:00.999Z</time></trkpt><trkpt lat="45.901982504836546" lon="12.006399004078053"><ele>284.8</ele><time>2026-05-01T06:54:01.999Z</time></trkpt><trkpt lat="45.90196121381257" lon="12.00626170545118"><ele>284.20000000000005</ele><time>2026-05-01T06:54:03Z</time></trkpt><trkpt lat="45.90195640187837" lon="12.006123492266873"><ele>283.6</ele><time>2026-05-01T06:54:04Z</time></trkpt><trkpt lat="45.90196677982815" lon="12.005988442521605"><ele>283.0</ele><time>2026-05-01T06:54:05Z</time></trkpt><trkpt lat="45.90198589991114" lon="12.005861232903353"><ele>282.4</ele><time>2026-05-01T06:54:06Z</time></trkpt><trkpt lat="45.902003571577566" lon="12.005733535833368"><ele>281.8</ele><time>2026-05-01T06:54:07Z</time></trkpt><trkpt lat="45.90201840919152" lon="12.005603239870563"><ele>281.2</ele><time>2026-05-01T06:54:08Z</time></trkpt><trkpt lat="45.9020267112186" lon="12.005469585466267"><ele>280.6</ele><time>2026-05-01T06:54:09Z</time></trkpt><trkpt lat="45.90202207484433" lon="12.005329413462551"><ele>280.0</ele><time>2026-05-01T06:54:10Z</time></trkpt><trkpt lat="45.90200132891457" lon="12.005188909560333"><ele>280.0</ele><time>2026-05-01T06:54:11Z</time></trkpt><trkpt lat="45.901968917576376" lon="12.005053573647478"><ele>280.0</ele><time>2026-05-01T06:54:12Z</time></trkpt><trkpt lat="45.901923307438835" lon="12.00492077891748"><ele>280.0</ele><time>2026-05-01T06:54:13Z</time></trkpt><trkpt lat="45.90187397727261" lon="12.004794338110235"><ele>280.0</ele><time>2026-05-01T06:54:14Z</time></trkpt><trkpt lat="45.90182642344085" lon="12.004664836232287"><ele>280.0</ele><time>2026-05-01T06:54:15Z</time></trkpt><trkpt lat="45.901783765592825" lon="12.004533356153093"><ele>276.6</ele><time>2026-05-01T06:54:16Z</time></trkpt><trkpt lat="45.90173683248155" lon="12.004398675500287"><ele>273.2</ele><time>2026-05-01T06:54:17Z</time></trkpt><trkpt lat="45.90169317583368" lon="12.004267463945109"><ele>269.8</ele><time>2026-05-01T06:54:18Z</time></trkpt><trkpt lat="45.90164771733259" lon="12.004128742808422"><ele>266.4</ele><time>2026-05-01T06:54:19Z</time></trkpt><trkpt lat="45.90160228261152" lon="12.003998071739192"><ele>263.0</ele><time>2026-05-01T06:54:20Z</time></trkpt><trkpt lat="45.9015575728928" lon="12.003861703723711"><ele>262.4</ele><time>2026-05-01T06:54:21Z</time></trkpt><trkpt lat="45.90151781848317" lon="12.003722748485401"><ele>261.8</ele><time>2026-05-01T06:54:22Z</time></trkpt><trkpt lat="45.90147585303307" lon="12.003584638937753"><ele>261.2</ele><time>2026-05-01T06:54:23Z</time></trkpt><trkpt lat="45.90143300139402" lon="12.003449119364518"><ele>260.6</ele><time>2026-05-01T06:54:24Z</time></trkpt><trkpt lat="45.901394489419474" lon="12.003304187998753"><ele>260.0</ele><time>2026-05-01T06:54:25Z</time></trkpt><trkpt lat="45.901355576827406" lon="12.003157735194765"><ele>259.6</ele><time>2026-05-01T06:54:26Z</time></trkpt><trkpt lat="45.90132748688827" lon="12.003009400758263"><ele>259.2</ele><time>2026-05-01T06:54:27Z</time></trkpt><trkpt lat="45.901312097890944" lon="12.002851722076102"><ele>258.8</ele><time>2026-05-01T06:54:28Z</time></trkpt><trkpt lat="45.901313073199105" lon="12.00269951267756"><ele>258.4</ele><time>2026-05-01T06:54:29Z</time></trkpt><trkpt lat="45.901310221205215" lon="12.002547693717919"><ele>258.0</ele><time>2026-05-01T06:54:30Z</time></trkpt><trkpt lat="45.90130272628044" lon="12.002403184961837"><ele>258.0</ele><time>2026-05-01T06:54:31Z</time></trkpt><trkpt lat="45.90129640948014" lon="12.002257895254283"><ele>258.0</ele><time>2026-05-01T06:54:32Z</time></trkpt><trkpt lat="45.90128894016392" lon="12.002116192475246"><ele>258.0</ele><time>2026-05-01T06:54:33Z</time></trkpt><trkpt lat="45.9012889287456" lon="12.001984804801161"><ele>258.0</ele><time>2026-05-01T06:54:34Z</time></trkpt><trkpt lat="45.90128537800138" lon="12.001851486952656"><ele>258.0</ele><time>2026-05-01T06:54:35Z</time></trkpt><trkpt lat="45.90128196286839" lon="12.00171781307239"><ele>257.6</ele><time>2026-05-01T06:54:36Z</time></trkpt><trkpt lat="45.90129724361555" lon="12.001581218925548"><ele>257.20000000000005</ele><time>2026-05-01T06:54:37Z</time></trkpt><trkpt lat="45.9013082840352" lon="12.001452970366312"><ele>256.8</ele><time>2026-05-01T06:54:38Z</time></trkpt><trkpt lat="45.901320182520145" lon="12.001316829524317"><ele>256.40000000000003</ele><time>2026-05-01T06:54:39Z</time></trkpt><trkpt lat="45.901338895670854" lon="12.001180493444885"><ele>256.0</ele><time>2026-05-01T06:54:40Z</time></trkpt><trkpt lat="45.901354443809666" lon="12.001043464121054"><ele>255.99999999999997</ele><time>2026-05-01T06:54:41Z</time></trkpt><trkpt lat="45.90136848655208" lon="12.000915152821504"><ele>256.0</ele><time>2026-05-01T06:54:42Z</time></trkpt><trkpt lat="45.90138318717876" lon="12.000792306340868"><ele>256.0</ele><time>2026-05-01T06:54:43Z</time></trkpt><trkpt lat="45.90139668755703" lon="12.000680691452542"><ele>256.0</ele><time>2026-05-01T06:54:44Z</time></trkpt><trkpt lat="45.90140899605639" lon="12.00057653795635"><ele>255.99999999999997</ele><time>2026-05-01T06:54:45Z</time></trkpt><trkpt lat="45.9014171793185" lon="12.000476031653672"><ele>256.0</ele><time>2026-05-01T06:54:46Z</time></trkpt><trkpt lat="45.90143293178139" lon="12.00029978685093"><ele>255.57142857142856</ele><time>2026-05-01T06:54:48Z</time></trkpt><trkpt lat="45.90143786939565" lon="12.000204048329826"><ele>255.1428571428571</ele><time>2026-05-01T06:54:49Z</time></trkpt><trkpt lat="45.90146109742111" lon="12.000110324167258"><ele>254.71428571428572</ele><time>2026-05-01T06:54:50Z</time></trkpt><trkpt lat="45.90147328422107" lon="12.000014158079427"><ele>254.28571428571428</ele><time>2026-05-01T06:54:51Z</time></trkpt><trkpt lat="45.90147101934226" lon="11.999909922643658"><ele>253.85714285714286</ele><time>2026-05-01T06:54:52Z</time></trkpt><trkpt lat="45.90148301749806" lon="11.99980122539627"><ele>253.42857142857144</ele><time>2026-05-01T06:54:53Z</time></trkpt><trkpt lat="45.901511609387434" lon="11.999700003800312"><ele>253.00000000000003</ele><time>2026-05-01T06:54:54Z</time></trkpt><trkpt lat="45.901524594906896" lon="11.999593092379802"><ele>252.99999999999997</ele><time>2026-05-01T06:54:55Z</time></trkpt><trkpt lat="45.9015245141875" lon="11.999486006738895"><ele>253.0</ele><time>2026-05-01T06:54:56Z</time></trkpt><trkpt lat="45.90154703161021" lon="11.999390307328042"><ele>253.0</ele><time>2026-05-01T06:54:57Z</time></trkpt><trkpt lat="45.90156400892401" lon="11.999279273908165"><ele>253.0</ele><time>2026-05-01T06:54:58Z</time></trkpt><trkpt lat="45.9015765491097" lon="11.999165285185038"><ele>252.99999999999997</ele><time>2026-05-01T06:54:59Z</time></trkpt><trkpt lat="45.90158848668662" lon="11.999050306079331"><ele>253.0</ele><time>2026-05-01T06:55:00Z</time></trkpt><trkpt lat="45.90160004043431" lon="11.998943546955537"><ele>253.00000000000003</ele><time>2026-05-01T06:55:01Z</time></trkpt><trkpt lat="45.90160862978909" lon="11.99883252302135"><ele>253.0</ele><time>2026-05-01T06:55:02Z</time></trkpt><trkpt lat="45.90161871074537" lon="11.998725748746656"><ele>253.00000000000003</ele><time>2026-05-01T06:55:03Z</time></trkpt><trkpt lat="45.901630976093166" lon="11.9986202024803"><ele>253.00000000000003</ele><time>2026-05-01T06:55:04Z</time></trkpt><trkpt lat="45.90164494939052" lon="11.998515111684833"><ele>253.0</ele><time>2026-05-01T06:55:05Z</time></trkpt><trkpt lat="45.901660460339194" lon="11.998412021313046"><ele>253.00000000000003</ele><time>2026-05-01T06:55:06Z</time></trkpt><trkpt lat="45.90167617015364" lon="11.998307977893669"><ele>253.00000000000003</ele><time>2026-05-01T06:55:07Z</time></trkpt><trkpt lat="45.90169085291612" lon="11.998204314043319"><ele>253.00000000000003</ele><time>2026-05-01T06:55:08Z</time></trkpt><trkpt lat="45.901701065804666" lon="11.998096652381436"><ele>253.0</ele><time>2026-05-01T06:55:09Z</time></trkpt><trkpt lat="45.90171057349947" lon="11.99799115817323"><ele>253.00000000000003</ele><time>2026-05-01T06:55:10Z</time></trkpt><trkpt lat="45.90172349345128" lon="11.9978897781006"><ele>253.00000000000003</ele><time>2026-05-01T06:55:11Z</time></trkpt><trkpt lat="45.90173545316858" lon="11.997789271729088"><ele>253.0</ele><time>2026-05-01T06:55:12Z</time></trkpt><trkpt lat="45.90174602474064" lon="11.997686226683484"><ele>253.00000000000003</ele><time>2026-05-01T06:55:13Z</time></trkpt><trkpt lat="45.90175752052875" lon="11.997583722171544"><ele>253.00000000000003</ele><time>2026-05-01T06:55:14Z</time></trkpt><trkpt lat="45.90176835052219" lon="11.99749249292218"><ele>254.5714285714286</ele><time>2026-05-01T06:55:15Z</time></trkpt><trkpt lat="45.901782087193965" lon="11.997395331914364"><ele>256.14285714285717</ele><time>2026-05-01T06:55:16Z</time></trkpt><trkpt lat="45.90179485436045" lon="11.997292778103729"><ele>257.7142857142857</ele><time>2026-05-01T06:55:17Z</time></trkpt><trkpt lat="45.90180764677931" lon="11.997190924421261"><ele>259.28571428571433</ele><time>2026-05-01T06:55:18Z</time></trkpt><trkpt lat="45.90182278829659" lon="11.997089495509504"><ele>260.8571428571429</ele><time>2026-05-01T06:55:19Z</time></trkpt><trkpt lat="45.90183076742883" lon="11.996976105504137"><ele>262.42857142857144</ele><time>2026-05-01T06:55:20Z</time></trkpt><trkpt lat="45.901838793716244" lon="11.996868723076773"><ele>264.0</ele><time>2026-05-01T06:55:21Z</time></trkpt><trkpt lat="45.90184464482615" lon="11.996761427133569"><ele>264.0</ele><time>2026-05-01T06:55:22Z</time></trkpt><trkpt lat="45.90184478870374" lon="11.996649392042913"><ele>264.0</ele><time>2026-05-01T06:55:23Z</time></trkpt><trkpt lat="45.90184802751647" lon="11.996546147015549"><ele>264.0</ele><time>2026-05-01T06:55:24Z</time></trkpt><trkpt lat="45.90184937462691" lon="11.996441330452852"><ele>264.0</ele><time>2026-05-01T06:55:25Z</time></trkpt><trkpt lat="45.901852293645135" lon="11.996340329248676"><ele>264.0</ele><time>2026-05-01T06:55:26Z</time></trkpt><trkpt lat="45.90185216039751" lon="11.996243612560672"><ele>264.0</ele><time>2026-05-01T06:55:27Z</time></trkpt><trkpt lat="45.90185304496559" lon="11.996149404492959"><ele>264.0</ele><time>2026-05-01T06:55:28Z</time></trkpt><trkpt lat="45.9018376198759" lon="11.995979248771995"><ele>264.0</ele><time>2026-05-01T06:55:30Z</time></trkpt><trkpt lat="45.90181968500147" lon="11.995841829885743"><ele>264.0</ele><time>2026-05-01T06:55:32Z</time></trkpt><trkpt lat="45.90181556366127" lon="11.995682711796027"><ele>264.0</ele><time>2026-05-01T06:55:34Z</time></trkpt><trkpt lat="45.901845996501805" lon="11.9955183377069"><ele>264.0</ele><time>2026-05-01T06:55:36Z</time></trkpt><trkpt lat="45.90193066293993" lon="11.995386718580209"><ele>263.6666666666667</ele><time>2026-05-01T06:55:38Z</time></trkpt><trkpt lat="45.90197770654116" lon="11.99531295025924"><ele>263.3333333333333</ele><time>2026-05-01T06:55:39Z</time></trkpt><trkpt lat="45.902027760706915" lon="11.995235523384775"><ele>263.0</ele><time>2026-05-01T06:55:40Z</time></trkpt><trkpt lat="45.902069975103835" lon="11.995145368514894"><ele>262.66666666666663</ele><time>2026-05-01T06:55:41Z</time></trkpt><trkpt lat="45.90212497165497" lon="11.99506562241195"><ele>262.3333333333333</ele><time>2026-05-01T06:55:42Z</time></trkpt><trkpt lat="45.90218131199639" lon="11.994991247490013"><ele>262.0</ele><time>2026-05-01T06:55:43Z</time></trkpt><trkpt lat="45.9022351367758" lon="11.994911208204284"><ele>262.0</ele><time>2026-05-01T06:55:44Z</time></trkpt><trkpt lat="45.90228975758345" lon="11.994828470159256"><ele>262.0</ele><time>2026-05-01T06:55:45Z</time></trkpt><trkpt lat="45.902342361049215" lon="11.994745722697775"><ele>262.0</ele><time>2026-05-01T06:55:46Z</time></trkpt><trkpt lat="45.902404537879285" lon="11.99468191832209"><ele>262.0</ele><time>2026-05-01T06:55:47Z</time></trkpt><trkpt lat="45.902448377924706" lon="11.994606605270269"><ele>262.0</ele><time>2026-05-01T06:55:48Z</time></trkpt><trkpt lat="45.902452849380836" lon="11.99450017255748"><ele>262.0</ele><time>2026-05-01T06:55:49Z</time></trkpt><trkpt lat="45.90239800318025" lon="11.994336487530793"><ele>262.0</ele><time>2026-05-01T06:55:50.999Z</time></trkpt><trkpt lat="45.90233962535559" lon="11.99427819505306"><ele>262.0</ele><time>2026-05-01T06:55:51.999Z</time></trkpt><trkpt lat="45.90227904951393" lon="11.994237101749098"><ele>262.0</ele><time>2026-05-01T06:55:52.999Z</time></trkpt><trkpt lat="45.902201950458945" lon="11.99423230316091"><ele>262.0</ele><time>2026-05-01T06:55:53.999Z</time></trkpt><trkpt lat="45.90212424951101" lon="11.994259973741855"><ele>262.0</ele><time>2026-05-01T06:55:54.999Z</time></trkpt><trkpt lat="45.9020444685833" lon="11.994296278068925"><ele>262.0</ele><time>2026-05-01T06:55:55.999Z</time></trkpt><trkpt lat="45.901958471224866" lon="11.994327316344211"><ele>262.0</ele><time>2026-05-01T06:55:56.999Z</time></trkpt><trkpt lat="45.90187668858431" lon="11.994363468763321"><ele>262.0</ele><time>2026-05-01T06:55:57.999Z</time></trkpt><trkpt lat="45.90178640155319" lon="11.994390784637538"><ele>262.0</ele><time>2026-05-01T06:55:58.999Z</time></trkpt><trkpt lat="45.90169809310117" lon="11.994410802374235"><ele>262.0</ele><time>2026-05-01T06:55:59.999Z</time></trkpt><trkpt lat="45.90160714635419" lon="11.994425406284483"><ele>262.0</ele><time>2026-05-01T06:56:00.999Z</time></trkpt><trkpt lat="45.90152317752214" lon="11.994432384098177"><ele>262.0</ele><time>2026-05-01T06:56:01.999Z</time></trkpt><trkpt lat="45.90144068686248" lon="11.994433764913259"><ele>261.66666666666663</ele><time>2026-05-01T06:56:02.999Z</time></trkpt><trkpt lat="45.90136094117565" lon="11.99443794131293"><ele>261.3333333333333</ele><time>2026-05-01T06:56:03.999Z</time></trkpt><trkpt lat="45.90128493838946" lon="11.994443308665362"><ele>261.0</ele><time>2026-05-01T06:56:04.999Z</time></trkpt><trkpt lat="45.90121569236771" lon="11.994446388498375"><ele>260.6666666666667</ele><time>2026-05-01T06:56:05.999Z</time></trkpt><trkpt lat="45.90115007846104" lon="11.99443456214481"><ele>260.33333333333337</ele><time>2026-05-01T06:56:06.999Z</time></trkpt><trkpt lat="45.901052943668944" lon="11.994316406428613"><ele>260.0</ele><time>2026-05-01T06:56:09Z</time></trkpt><trkpt lat="45.90100310403183" lon="11.994233596644701"><ele>260.1666666666667</ele><time>2026-05-01T06:56:10Z</time></trkpt><trkpt lat="45.90094663974742" lon="11.994154362213282"><ele>260.33333333333337</ele><time>2026-05-01T06:56:11Z</time></trkpt><trkpt lat="45.900882539890546" lon="11.99407618730468"><ele>260.5</ele><time>2026-05-01T06:56:12Z</time></trkpt><trkpt lat="45.900822457884004" lon="11.993994752386703"><ele>260.6666666666667</ele><time>2026-05-01T06:56:13Z</time></trkpt><trkpt lat="45.90077133071941" lon="11.993919494093605"><ele>260.8333333333333</ele><time>2026-05-01T06:56:14Z</time></trkpt><trkpt lat="45.90071936663692" lon="11.993838755563344"><ele>261.0</ele><time>2026-05-01T06:56:15Z</time></trkpt><trkpt lat="45.900667133747746" lon="11.993741893430196"><ele>261.0</ele><time>2026-05-01T06:56:16Z</time></trkpt><trkpt lat="45.9006400176695" lon="11.993623621929265"><ele>261.0</ele><time>2026-05-01T06:56:17Z</time></trkpt><trkpt lat="45.900619760163" lon="11.993502872151751"><ele>261.0</ele><time>2026-05-01T06:56:18Z</time></trkpt><trkpt lat="45.90060188964162" lon="11.993382148052225"><ele>261.0</ele><time>2026-05-01T06:56:19Z</time></trkpt><trkpt lat="45.90057703122904" lon="11.993263896655225"><ele>261.0</ele><time>2026-05-01T06:56:20Z</time></trkpt><trkpt lat="45.90055036097019" lon="11.993154875935167"><ele>261.0</ele><time>2026-05-01T06:56:21Z</time></trkpt><trkpt lat="45.90050547764734" lon="11.993036727216614"><ele>261.6</ele><time>2026-05-01T06:56:22Z</time></trkpt><trkpt lat="45.900455432330936" lon="11.99293206537675"><ele>262.20000000000005</ele><time>2026-05-01T06:56:23Z</time></trkpt><trkpt lat="45.90039870090824" lon="11.99282379921694"><ele>262.79999999999995</ele><time>2026-05-01T06:56:24Z</time></trkpt><trkpt lat="45.900341123242065" lon="11.992719645246634"><ele>263.4</ele><time>2026-05-01T06:56:25Z</time></trkpt><trkpt lat="45.90027925207996" lon="11.992609621312106"><ele>264.0</ele><time>2026-05-01T06:56:26Z</time></trkpt><trkpt lat="45.90021833777202" lon="11.992507038849208"><ele>264.2</ele><time>2026-05-01T06:56:27Z</time></trkpt><trkpt lat="45.900155377928" lon="11.992400648951632"><ele>264.4</ele><time>2026-05-01T06:56:28Z</time></trkpt><trkpt lat="45.900093586281386" lon="11.992296079984984"><ele>264.6</ele><time>2026-05-01T06:56:29Z</time></trkpt><trkpt lat="45.90003326180424" lon="11.992192136940806"><ele>264.8</ele><time>2026-05-01T06:56:30Z</time></trkpt><trkpt lat="45.89997166939293" lon="11.99208508646423"><ele>265.0</ele><time>2026-05-01T06:56:31Z</time></trkpt><trkpt lat="45.89990799443826" lon="11.991976925332287"><ele>264.4</ele><time>2026-05-01T06:56:32Z</time></trkpt><trkpt lat="45.89984328366599" lon="11.991866239494119"><ele>263.8</ele><time>2026-05-01T06:56:33Z</time></trkpt><trkpt lat="45.89978192876209" lon="11.991758029382087"><ele>263.2</ele><time>2026-05-01T06:56:34Z</time></trkpt><trkpt lat="45.89972460896363" lon="11.99164679550916"><ele>262.6</ele><time>2026-05-01T06:56:35Z</time></trkpt><trkpt lat="45.89967107101511" lon="11.991539236303815"><ele>262.0</ele><time>2026-05-01T06:56:36Z</time></trkpt><trkpt lat="45.89961499833174" lon="11.991426942490078"><ele>262.0</ele><time>2026-05-01T06:56:37Z</time></trkpt><trkpt lat="45.89956150632774" lon="11.991308620319833"><ele>262.0</ele><time>2026-05-01T06:56:38Z</time></trkpt><trkpt lat="45.899515459370186" lon="11.991183101837626"><ele>262.0</ele><time>2026-05-01T06:56:39Z</time></trkpt><trkpt lat="45.89947989145191" lon="11.99105439942916"><ele>262.0</ele><time>2026-05-01T06:56:40Z</time></trkpt><trkpt lat="45.89945470321105" lon="11.990921237779732"><ele>262.0</ele><time>2026-05-01T06:56:41Z</time></trkpt><trkpt lat="45.89943742002241" lon="11.990784166846437"><ele>262.6</ele><time>2026-05-01T06:56:42Z</time></trkpt><trkpt lat="45.89942811572668" lon="11.990646794072138"><ele>263.2</ele><time>2026-05-01T06:56:43Z</time></trkpt><trkpt lat="45.899434519612406" lon="11.990509983182983"><ele>263.8</ele><time>2026-05-01T06:56:44Z</time></trkpt><trkpt lat="45.899452526315805" lon="11.990374581490626"><ele>264.4</ele><time>2026-05-01T06:56:45Z</time></trkpt><trkpt lat="45.89946933673785" lon="11.990241373928898"><ele>265.0</ele><time>2026-05-01T06:56:46Z</time></trkpt><trkpt lat="45.89948997539262" lon="11.990108629116532"><ele>264.8</ele><time>2026-05-01T06:56:47Z</time></trkpt><trkpt lat="45.899501780076044" lon="11.98996423590173"><ele>264.6</ele><time>2026-05-01T06:56:48Z</time></trkpt><trkpt lat="45.89951387255379" lon="11.989832776740863"><ele>264.4</ele><time>2026-05-01T06:56:49Z</time></trkpt><trkpt lat="45.8995261792895" lon="11.989704124364826"><ele>264.2</ele><time>2026-05-01T06:56:50Z</time></trkpt><trkpt lat="45.89953965649135" lon="11.989576583619778"><ele>264.0</ele><time>2026-05-01T06:56:51Z</time></trkpt><trkpt lat="45.899553876468985" lon="11.989445529183362"><ele>264.0</ele><time>2026-05-01T06:56:52Z</time></trkpt><trkpt lat="45.899569978932355" lon="11.989306950981867"><ele>264.0</ele><time>2026-05-01T06:56:53Z</time></trkpt><trkpt lat="45.899583318046766" lon="11.98916226695485"><ele>264.0</ele><time>2026-05-01T06:56:54Z</time></trkpt><trkpt lat="45.899592617143334" lon="11.989013420398383"><ele>264.0</ele><time>2026-05-01T06:56:55Z</time></trkpt><trkpt lat="45.89960846650276" lon="11.988876718046857"><ele>264.0</ele><time>2026-05-01T06:56:56Z</time></trkpt><trkpt lat="45.89962263863501" lon="11.98874253393715"><ele>263.4</ele><time>2026-05-01T06:56:57Z</time></trkpt><trkpt lat="45.89964085421823" lon="11.988607391982928"><ele>262.79999999999995</ele><time>2026-05-01T06:56:58Z</time></trkpt><trkpt lat="45.89967760955274" lon="11.988475301924948"><ele>262.20000000000005</ele><time>2026-05-01T06:56:59Z</time></trkpt><trkpt lat="45.899692234311736" lon="11.988342780860188"><ele>261.6</ele><time>2026-05-01T06:57:00Z</time></trkpt><trkpt lat="45.89970067385856" lon="11.988220102495097"><ele>261.0</ele><time>2026-05-01T06:57:01Z</time></trkpt><trkpt lat="45.899714411913095" lon="11.988087435654922"><ele>259.40000000000003</ele><time>2026-05-01T06:57:02Z</time></trkpt><trkpt lat="45.899731683930376" lon="11.987950151473372"><ele>257.8</ele><time>2026-05-01T06:57:03Z</time></trkpt><trkpt lat="45.89974658247742" lon="11.987816717569892"><ele>256.20000000000005</ele><time>2026-05-01T06:57:04Z</time></trkpt><trkpt lat="45.899762833284434" lon="11.987677014323246"><ele>254.60000000000002</ele><time>2026-05-01T06:57:05Z</time></trkpt><trkpt lat="45.89976976879972" lon="11.987548391424104"><ele>253.0</ele><time>2026-05-01T06:57:06Z</time></trkpt><trkpt lat="45.89975331333594" lon="11.98742252235173"><ele>252.60000000000002</ele><time>2026-05-01T06:57:07Z</time></trkpt><trkpt lat="45.899713592200925" lon="11.987307996962878"><ele>252.20000000000002</ele><time>2026-05-01T06:57:08Z</time></trkpt><trkpt lat="45.89965480009171" lon="11.987214496595078"><ele>251.8</ele><time>2026-05-01T06:57:09Z</time></trkpt><trkpt lat="45.89956475764432" lon="11.98716596671502"><ele>251.4</ele><time>2026-05-01T06:57:10Z</time></trkpt><trkpt lat="45.899470358581894" lon="11.987127785297407"><ele>251.0</ele><time>2026-05-01T06:57:11Z</time></trkpt><trkpt lat="45.89937686957472" lon="11.98708665281945"><ele>251.0</ele><time>2026-05-01T06:57:12Z</time></trkpt><trkpt lat="45.89929271272063" lon="11.987029296629755"><ele>251.00000000000003</ele><time>2026-05-01T06:57:13Z</time></trkpt><trkpt lat="45.89921197673057" lon="11.98696193660249"><ele>251.00000000000003</ele><time>2026-05-01T06:57:14Z</time></trkpt><trkpt lat="45.89913242663032" lon="11.986888906806062"><ele>251.0</ele><time>2026-05-01T06:57:15Z</time></trkpt><trkpt lat="45.89905122080097" lon="11.986816496509086"><ele>251.0</ele><time>2026-05-01T06:57:16Z</time></trkpt><trkpt lat="45.898966541409045" lon="11.986743241552993"><ele>250.4</ele><time>2026-05-01T06:57:17Z</time></trkpt><trkpt lat="45.89888393218934" lon="11.986666340502365"><ele>249.8</ele><time>2026-05-01T06:57:18Z</time></trkpt><trkpt lat="45.89880704030163" lon="11.986594368851334"><ele>249.20000000000002</ele><time>2026-05-01T06:57:19Z</time></trkpt><trkpt lat="45.89872922224357" lon="11.98652183389877"><ele>248.60000000000002</ele><time>2026-05-01T06:57:20Z</time></trkpt><trkpt lat="45.89864465214609" lon="11.986442590248698"><ele>248.0</ele><time>2026-05-01T06:57:21Z</time></trkpt><trkpt lat="45.898555299814824" lon="11.986362150491853"><ele>248.0</ele><time>2026-05-01T06:57:22Z</time></trkpt><trkpt lat="45.89846938285859" lon="11.986276600178023"><ele>248.0</ele><time>2026-05-01T06:57:23Z</time></trkpt><trkpt lat="45.898388553927816" lon="11.986192951831672"><ele>248.0</ele><time>2026-05-01T06:57:24Z</time></trkpt><trkpt lat="45.8983135013769" lon="11.98611962283814"><ele>248.0</ele><time>2026-05-01T06:57:25Z</time></trkpt><trkpt lat="45.89824731248363" lon="11.98604582082772"><ele>248.0</ele><time>2026-05-01T06:57:26Z</time></trkpt><trkpt lat="45.89818684808529" lon="11.985967612447888"><ele>248.00000000000003</ele><time>2026-05-01T06:57:27Z</time></trkpt><trkpt lat="45.89812585132024" lon="11.985898963975433"><ele>248.0</ele><time>2026-05-01T06:57:28Z</time></trkpt><trkpt lat="45.898058274694016" lon="11.985824236939306"><ele>248.0</ele><time>2026-05-01T06:57:29Z</time></trkpt><trkpt lat="45.89798973092015" lon="11.98574597909603"><ele>248.0</ele><time>2026-05-01T06:57:30Z</time></trkpt><trkpt lat="45.89791514775542" lon="11.985680709315197"><ele>248.00000000000003</ele><time>2026-05-01T06:57:31Z</time></trkpt><trkpt lat="45.89783525994226" lon="11.985622761246443"><ele>248.0</ele><time>2026-05-01T06:57:32Z</time></trkpt><trkpt lat="45.89775407547798" lon="11.985577101802233"><ele>247.71428571428572</ele><time>2026-05-01T06:57:33Z</time></trkpt><trkpt lat="45.89767526420609" lon="11.985548565121984"><ele>247.42857142857144</ele><time>2026-05-01T06:57:34Z</time></trkpt><trkpt lat="45.89761016428985" lon="11.985524200984091"><ele>247.14285714285717</ele><time>2026-05-01T06:57:35Z</time></trkpt><trkpt lat="45.89754978406254" lon="11.985495460953715"><ele>246.8571428571429</ele><time>2026-05-01T06:57:36Z</time></trkpt><trkpt lat="45.897465297651436" lon="11.985464597486333"><ele>246.57142857142858</ele><time>2026-05-01T06:57:38Z</time></trkpt><trkpt lat="45.89740614590021" lon="11.985414855724999"><ele>246.28571428571433</ele><time>2026-05-01T06:57:43Z</time></trkpt><trkpt lat="45.89735193836579" lon="11.985333528779499"><ele>246.00000000000003</ele><time>2026-05-01T06:57:47Z</time></trkpt><trkpt lat="45.89742424403148" lon="11.985124446682121"><ele>244.8</ele><time>2026-05-01T06:57:50Z</time></trkpt><trkpt lat="45.89745275437253" lon="11.985002707954342"><ele>243.60000000000002</ele><time>2026-05-01T06:57:51Z</time></trkpt><trkpt lat="45.897490812454016" lon="11.984868815592401"><ele>242.4</ele><time>2026-05-01T06:57:52Z</time></trkpt><trkpt lat="45.897522753429655" lon="11.984749055722402"><ele>241.2</ele><time>2026-05-01T06:57:52.999Z</time></trkpt><trkpt lat="45.89755812615859" lon="11.984633638754234"><ele>240.0</ele><time>2026-05-01T06:57:53.999Z</time></trkpt><trkpt lat="45.89758962273496" lon="11.984519664187046"><ele>240.0</ele><time>2026-05-01T06:57:54.999Z</time></trkpt><trkpt lat="45.89762559843608" lon="11.984402181715023"><ele>240.0</ele><time>2026-05-01T06:57:55.999Z</time></trkpt><trkpt lat="45.89766100129391" lon="11.984282275770884"><ele>240.0</ele><time>2026-05-01T06:57:56.999Z</time></trkpt><trkpt lat="45.89770031870726" lon="11.98416205662338"><ele>240.0</ele><time>2026-05-01T06:57:57.999Z</time></trkpt><trkpt lat="45.89775354407256" lon="11.984054609174777"><ele>240.0</ele><time>2026-05-01T06:57:58.999Z</time></trkpt><trkpt lat="45.897813169258235" lon="11.98395242137031"><ele>239.8</ele><time>2026-05-01T06:57:59.999Z</time></trkpt><trkpt lat="45.89786302863076" lon="11.983837416466358"><ele>239.6</ele><time>2026-05-01T06:58:00.999Z</time></trkpt><trkpt lat="45.897900111631394" lon="11.983712011205535"><ele>239.39999999999998</ele><time>2026-05-01T06:58:01.999Z</time></trkpt><trkpt lat="45.89791376681537" lon="11.983577137361467"><ele>239.2</ele><time>2026-05-01T06:58:02.999Z</time></trkpt><trkpt lat="45.89791166728638" lon="11.98343856686151"><ele>239.0</ele><time>2026-05-01T06:58:03.999Z</time></trkpt><trkpt lat="45.89789063663066" lon="11.98329858082828"><ele>239.0</ele><time>2026-05-01T06:58:04.999Z</time></trkpt><trkpt lat="45.897856024099156" lon="11.983156429279413"><ele>238.99999999999997</ele><time>2026-05-01T06:58:05.999Z</time></trkpt><trkpt lat="45.89781721603069" lon="11.983021322295132"><ele>238.99999999999997</ele><time>2026-05-01T06:58:06.999Z</time></trkpt><trkpt lat="45.89777904435004" lon="11.982887391702496"><ele>239.0</ele><time>2026-05-01T06:58:07.999Z</time></trkpt><trkpt lat="45.897738878421414" lon="11.982752362320298"><ele>239.0</ele><time>2026-05-01T06:58:08.999Z</time></trkpt><trkpt lat="45.89769957775542" lon="11.98261599207936"><ele>239.0</ele><time>2026-05-01T06:58:09.999Z</time></trkpt><trkpt lat="45.89765911419357" lon="11.98248018788054"><ele>238.99999999999997</ele><time>2026-05-01T06:58:10.999Z</time></trkpt><trkpt lat="45.897615606591216" lon="11.982340667696953"><ele>238.99999999999997</ele><time>2026-05-01T06:58:11.999Z</time></trkpt><trkpt lat="45.897571722797345" lon="11.982198855036208"><ele>239.0</ele><time>2026-05-01T06:58:12.999Z</time></trkpt><trkpt lat="45.8975325016934" lon="11.982058322884205"><ele>239.0</ele><time>2026-05-01T06:58:13.999Z</time></trkpt><trkpt lat="45.897490456102034" lon="11.981915860737354"><ele>237.39999999999998</ele><time>2026-05-01T06:58:15Z</time></trkpt><trkpt lat="45.897447663314104" lon="11.981775911960305"><ele>235.79999999999998</ele><time>2026-05-01T06:58:16Z</time></trkpt><trkpt lat="45.89740429343328" lon="11.98163452937013"><ele>234.20000000000002</ele><time>2026-05-01T06:58:17Z</time></trkpt><trkpt lat="45.89736268523292" lon="11.981487035722454"><ele>232.60000000000002</ele><time>2026-05-01T06:58:18Z</time></trkpt><trkpt lat="45.89732408766908" lon="11.981343379706773"><ele>231.0</ele><time>2026-05-01T06:58:19Z</time></trkpt><trkpt lat="45.89728475712744" lon="11.98119435204436"><ele>231.0</ele><time>2026-05-01T06:58:20Z</time></trkpt><trkpt lat="45.89724365256108" lon="11.981053207543154"><ele>231.00000000000003</ele><time>2026-05-01T06:58:21Z</time></trkpt><trkpt lat="45.89719819404933" lon="11.980905654996596"><ele>231.00000000000003</ele><time>2026-05-01T06:58:22Z</time></trkpt><trkpt lat="45.89715157050408" lon="11.980753290170332"><ele>231.0</ele><time>2026-05-01T06:58:23Z</time></trkpt><trkpt lat="45.897107026777306" lon="11.980602727597265"><ele>231.0</ele><time>2026-05-01T06:58:24Z</time></trkpt><trkpt lat="45.89706269916673" lon="11.980448667997212"><ele>231.0</ele><time>2026-05-01T06:58:25Z</time></trkpt><trkpt lat="45.89701985314901" lon="11.98029356468949"><ele>231.0</ele><time>2026-05-01T06:58:26Z</time></trkpt><trkpt lat="45.896975144483626" lon="11.98013650345897"><ele>231.0</ele><time>2026-05-01T06:58:27Z</time></trkpt><trkpt lat="45.89692704263912" lon="11.979975367945942"><ele>231.0</ele><time>2026-05-01T06:58:28Z</time></trkpt><trkpt lat="45.89688242101592" lon="11.979820042052173"><ele>231.0</ele><time>2026-05-01T06:58:29Z</time></trkpt><trkpt lat="45.896837311674126" lon="11.979662757779662"><ele>231.0</ele><time>2026-05-01T06:58:30Z</time></trkpt><trkpt lat="45.89679182316245" lon="11.979504923477572"><ele>231.0</ele><time>2026-05-01T06:58:31Z</time></trkpt><trkpt lat="45.89674660578907" lon="11.97934606249267"><ele>231.0</ele><time>2026-05-01T06:58:32Z</time></trkpt><trkpt lat="45.89670417985037" lon="11.979187984074985"><ele>229.5</ele><time>2026-05-01T06:58:33Z</time></trkpt><trkpt lat="45.89665758125981" lon="11.979025992171364"><ele>228.0</ele><time>2026-05-01T06:58:34Z</time></trkpt><trkpt lat="45.89661162755724" lon="11.97886480488174"><ele>226.5</ele><time>2026-05-01T06:58:35Z</time></trkpt><trkpt lat="45.896566570838495" lon="11.97870530639214"><ele>225.0</ele><time>2026-05-01T06:58:36Z</time></trkpt><trkpt lat="45.89652061704151" lon="11.97854431466727"><ele>225.0</ele><time>2026-05-01T06:58:37Z</time></trkpt><trkpt lat="45.89647525998779" lon="11.978383446843319"><ele>225.0</ele><time>2026-05-01T06:58:38Z</time></trkpt><trkpt lat="45.89642618294916" lon="11.978226012345775"><ele>225.0</ele><time>2026-05-01T06:58:39Z</time></trkpt><trkpt lat="45.89638010265772" lon="11.978066777809637"><ele>225.0</ele><time>2026-05-01T06:58:40Z</time></trkpt><trkpt lat="45.896335569133406" lon="11.977907836326436"><ele>225.0</ele><time>2026-05-01T06:58:41Z</time></trkpt><trkpt lat="45.896291435302345" lon="11.977752652406355"><ele>225.0</ele><time>2026-05-01T06:58:42Z</time></trkpt><trkpt lat="45.89624895459416" lon="11.977598562163605"><ele>225.0</ele><time>2026-05-01T06:58:43Z</time></trkpt><trkpt lat="45.896204197198195" lon="11.977445280264684"><ele>225.0</ele><time>2026-05-01T06:58:44Z</time></trkpt><trkpt lat="45.89615444927864" lon="11.977286381467298"><ele>225.0</ele><time>2026-05-01T06:58:45Z</time></trkpt><trkpt lat="45.896106630879466" lon="11.977129816220943"><ele>225.0</ele><time>2026-05-01T06:58:46Z</time></trkpt><trkpt lat="45.896058979666506" lon="11.976972187209322"><ele>225.0</ele><time>2026-05-01T06:58:47Z</time></trkpt><trkpt lat="45.896011950842656" lon="11.976812046744755"><ele>225.0</ele><time>2026-05-01T06:58:48Z</time></trkpt><trkpt lat="45.89596441506704" lon="11.976656266814947"><ele>225.75</ele><time>2026-05-01T06:58:49Z</time></trkpt><trkpt lat="45.895915921710255" lon="11.976501476711283"><ele>226.5</ele><time>2026-05-01T06:58:50Z</time></trkpt><trkpt lat="45.89586861236559" lon="11.976346610054932"><ele>227.25</ele><time>2026-05-01T06:58:51Z</time></trkpt><trkpt lat="45.89582226636196" lon="11.976190150311272"><ele>228.0</ele><time>2026-05-01T06:58:52Z</time></trkpt><trkpt lat="45.89578455409587" lon="11.976036983349973"><ele>228.0</ele><time>2026-05-01T06:58:53Z</time></trkpt><trkpt lat="45.895744694139566" lon="11.975877890134656"><ele>228.0</ele><time>2026-05-01T06:58:54Z</time></trkpt><trkpt lat="45.895706932353164" lon="11.975730378848235"><ele>228.0</ele><time>2026-05-01T06:58:55Z</time></trkpt><trkpt lat="45.89566788381513" lon="11.975586200364283"><ele>228.0</ele><time>2026-05-01T06:58:56Z</time></trkpt><trkpt lat="45.89562848350775" lon="11.975445027202658"><ele>228.0</ele><time>2026-05-01T06:58:57Z</time></trkpt><trkpt lat="45.895594380325065" lon="11.97530374199029"><ele>228.0</ele><time>2026-05-01T06:58:58Z</time></trkpt><trkpt lat="45.89555647761257" lon="11.975154876305107"><ele>228.0</ele><time>2026-05-01T06:58:59Z</time></trkpt><trkpt lat="45.89552563397035" lon="11.974993178575671"><ele>228.0</ele><time>2026-05-01T06:59:00Z</time></trkpt><trkpt lat="45.89550336886629" lon="11.974825858207625"><ele>228.0</ele><time>2026-05-01T06:59:01Z</time></trkpt><trkpt lat="45.89548879363442" lon="11.974659706535572"><ele>229.0</ele><time>2026-05-01T06:59:02Z</time></trkpt><trkpt lat="45.89548236094302" lon="11.974487670376709"><ele>230.0</ele><time>2026-05-01T06:59:03Z</time></trkpt><trkpt lat="45.89548627062523" lon="11.97431677509992"><ele>231.0</ele><time>2026-05-01T06:59:04Z</time></trkpt><trkpt lat="45.895495723431004" lon="11.974146973243519"><ele>232.0</ele><time>2026-05-01T06:59:05Z</time></trkpt><trkpt lat="45.89551175613456" lon="11.973981488510534"><ele>231.75</ele><time>2026-05-01T06:59:06Z</time></trkpt><trkpt lat="45.89553406937239" lon="11.97381754810074"><ele>231.5</ele><time>2026-05-01T06:59:07Z</time></trkpt><trkpt lat="45.89556115848211" lon="11.973657745375673"><ele>231.25</ele><time>2026-05-01T06:59:08Z</time></trkpt><trkpt lat="45.89559110149797" lon="11.973498813045024"><ele>231.0</ele><time>2026-05-01T06:59:09Z</time></trkpt><trkpt lat="45.89562125648688" lon="11.97333888936079"><ele>231.0</ele><time>2026-05-01T06:59:10Z</time></trkpt><trkpt lat="45.8956508701437" lon="11.973176983562611"><ele>231.0</ele><time>2026-05-01T06:59:11Z</time></trkpt><trkpt lat="45.89568048798668" lon="11.973015805202111"><ele>231.0</ele><time>2026-05-01T06:59:12Z</time></trkpt><trkpt lat="45.89570899719569" lon="11.972857094964224"><ele>231.0</ele><time>2026-05-01T06:59:13Z</time></trkpt><trkpt lat="45.89573820333949" lon="11.97269528231006"><ele>231.0</ele><time>2026-05-01T06:59:14Z</time></trkpt><trkpt lat="45.8957670768805" lon="11.972530588318472"><ele>231.0</ele><time>2026-05-01T06:59:15Z</time></trkpt><trkpt lat="45.89579706761791" lon="11.97237061601475"><ele>231.0</ele><time>2026-05-01T06:59:16Z</time></trkpt><trkpt lat="45.89582581625119" lon="11.972208443884396"><ele>231.0</ele><time>2026-05-01T06:59:17Z</time></trkpt><trkpt lat="45.895854461189224" lon="11.972050012660633"><ele>230.20000000000002</ele><time>2026-05-01T06:59:18Z</time></trkpt><trkpt lat="45.89588239911915" lon="11.971907356748032"><ele>229.40000000000003</ele><time>2026-05-01T06:59:19Z</time></trkpt><trkpt lat="45.89591003858002" lon="11.971757273453585"><ele>228.6</ele><time>2026-05-01T06:59:20Z</time></trkpt><trkpt lat="45.895938421525976" lon="11.971601470402844"><ele>227.8</ele><time>2026-05-01T06:59:21Z</time></trkpt><trkpt lat="45.89596861886057" lon="11.971445388688199"><ele>227.0</ele><time>2026-05-01T06:59:22Z</time></trkpt><trkpt lat="45.89599723144254" lon="11.971292472200037"><ele>230.0</ele><time>2026-05-01T06:59:23Z</time></trkpt><trkpt lat="45.89602456732833" lon="11.971142687530019"><ele>233.0</ele><time>2026-05-01T06:59:24Z</time></trkpt><trkpt lat="45.89604879624325" lon="11.970995247861264"><ele>236.0</ele><time>2026-05-01T06:59:25Z</time></trkpt><trkpt lat="45.896070624993506" lon="11.9708502083785"><ele>239.0</ele><time>2026-05-01T06:59:26Z</time></trkpt><trkpt lat="45.8960875678901" lon="11.970700034002745"><ele>242.0</ele><time>2026-05-01T06:59:27Z</time></trkpt><trkpt lat="45.896096570477745" lon="11.970549749667235"><ele>242.0</ele><time>2026-05-01T06:59:28Z</time></trkpt><trkpt lat="45.89609778940259" lon="11.970401732716871"><ele>242.0</ele><time>2026-05-01T06:59:29Z</time></trkpt><trkpt lat="45.89609555644435" lon="11.970243647287585"><ele>242.0</ele><time>2026-05-01T06:59:30Z</time></trkpt><trkpt lat="45.89609326273794" lon="11.970089372340796"><ele>242.0</ele><time>2026-05-01T06:59:31Z</time></trkpt><trkpt lat="45.896099408671994" lon="11.969939748571212"><ele>242.0</ele><time>2026-05-01T06:59:32Z</time></trkpt><trkpt lat="45.896114859328826" lon="11.969792078790727"><ele>242.0</ele><time>2026-05-01T06:59:33Z</time></trkpt><trkpt lat="45.89613379496975" lon="11.9696470447163"><ele>242.0</ele><time>2026-05-01T06:59:34Z</time></trkpt><trkpt lat="45.89615065231664" lon="11.969498472445515"><ele>242.0</ele><time>2026-05-01T06:59:35Z</time></trkpt><trkpt lat="45.896165471157325" lon="11.96935297917094"><ele>242.0</ele><time>2026-05-01T06:59:36Z</time></trkpt><trkpt lat="45.896177742668904" lon="11.969209264608317"><ele>242.0</ele><time>2026-05-01T06:59:37Z</time></trkpt><trkpt lat="45.89618708820283" lon="11.96907216004041"><ele>242.0</ele><time>2026-05-01T06:59:38Z</time></trkpt><trkpt lat="45.89619399424775" lon="11.968922529923208"><ele>242.0</ele><time>2026-05-01T06:59:39Z</time></trkpt><trkpt lat="45.89619248666537" lon="11.96876093065181"><ele>242.0</ele><time>2026-05-01T06:59:40Z</time></trkpt><trkpt lat="45.89620394673082" lon="11.96861473043555"><ele>242.0</ele><time>2026-05-01T06:59:41Z</time></trkpt><trkpt lat="45.89621631212811" lon="11.968479763766904"><ele>242.0</ele><time>2026-05-01T06:59:42Z</time></trkpt><trkpt lat="45.89622633911427" lon="11.968348026277711"><ele>241.6</ele><time>2026-05-01T06:59:43Z</time></trkpt><trkpt lat="45.896233615099725" lon="11.968218178324745"><ele>241.2</ele><time>2026-05-01T06:59:44Z</time></trkpt><trkpt lat="45.8962424405947" lon="11.968086401040031"><ele>240.8</ele><time>2026-05-01T06:59:45Z</time></trkpt><trkpt lat="45.89625015214851" lon="11.96795412731039"><ele>240.4</ele><time>2026-05-01T06:59:46Z</time></trkpt><trkpt lat="45.89625699989715" lon="11.967816805906766"><ele>240.0</ele><time>2026-05-01T06:59:47Z</time></trkpt><trkpt lat="45.89626048708506" lon="11.967677186974372"><ele>240.0</ele><time>2026-05-01T06:59:48Z</time></trkpt><trkpt lat="45.89626656612289" lon="11.967535953619526"><ele>240.0</ele><time>2026-05-01T06:59:49Z</time></trkpt><trkpt lat="45.89627772993141" lon="11.967398790656633"><ele>240.0</ele><time>2026-05-01T06:59:49.999Z</time></trkpt><trkpt lat="45.89628982411197" lon="11.96726047107885"><ele>240.0</ele><time>2026-05-01T06:59:50.999Z</time></trkpt><trkpt lat="45.89629785339561" lon="11.967117409115392"><ele>240.0</ele><time>2026-05-01T06:59:51.999Z</time></trkpt><trkpt lat="45.89630503238359" lon="11.966967918884421"><ele>239.6</ele><time>2026-05-01T06:59:52.999Z</time></trkpt><trkpt lat="45.89631806000518" lon="11.966817228331495"><ele>239.2</ele><time>2026-05-01T06:59:53.999Z</time></trkpt><trkpt lat="45.89632942224475" lon="11.966678586688968"><ele>238.8</ele><time>2026-05-01T06:59:54.999Z</time></trkpt><trkpt lat="45.89633661734344" lon="11.966536471366386"><ele>238.4</ele><time>2026-05-01T06:59:55.999Z</time></trkpt><trkpt lat="45.89634027667794" lon="11.96639601531856"><ele>238.0</ele><time>2026-05-01T06:59:56.999Z</time></trkpt><trkpt lat="45.89634447385517" lon="11.966270762785358"><ele>237.66666666666666</ele><time>2026-05-01T06:59:57.999Z</time></trkpt><trkpt lat="45.89635414953276" lon="11.966150481293639"><ele>237.33333333333331</ele><time>2026-05-01T06:59:58.999Z</time></trkpt><trkpt lat="45.89635588286143" lon="11.966029513812488"><ele>237.0</ele><time>2026-05-01T06:59:59.999Z</time></trkpt><trkpt lat="45.89634760067291" lon="11.965914759140057"><ele>236.66666666666669</ele><time>2026-05-01T07:00:00.999Z</time></trkpt><trkpt lat="45.89631516083166" lon="11.965799933391379"><ele>236.33333333333334</ele><time>2026-05-01T07:00:01.999Z</time></trkpt><trkpt lat="45.89626352977986" lon="11.965692104114348"><ele>236.0</ele><time>2026-05-01T07:00:02.999Z</time></trkpt><trkpt lat="45.89619436111059" lon="11.965583078020877"><ele>235.20000000000002</ele><time>2026-05-01T07:00:03.999Z</time></trkpt><trkpt lat="45.89613048779443" lon="11.965482517571903"><ele>234.40000000000003</ele><time>2026-05-01T07:00:04.999Z</time></trkpt><trkpt lat="45.89608603822115" lon="11.9653747410972"><ele>233.6</ele><time>2026-05-01T07:00:05.999Z</time></trkpt><trkpt lat="45.89604025995306" lon="11.965253289957312"><ele>232.8</ele><time>2026-05-01T07:00:06.999Z</time></trkpt><trkpt lat="45.89598410496884" lon="11.965116245598146"><ele>232.0</ele><time>2026-05-01T07:00:07.999Z</time></trkpt><trkpt lat="45.89595072222602" lon="11.964970641549339"><ele>229.75</ele><time>2026-05-01T07:00:08.999Z</time></trkpt><trkpt lat="45.895909777178964" lon="11.964827047359819"><ele>227.5</ele><time>2026-05-01T07:00:09.999Z</time></trkpt><trkpt lat="45.89586496075552" lon="11.964675757609145"><ele>225.25</ele><time>2026-05-01T07:00:10.999Z</time></trkpt><trkpt lat="45.895816602257554" lon="11.964520130830858"><ele>223.0</ele><time>2026-05-01T07:00:11.999Z</time></trkpt><trkpt lat="45.8957745162244" lon="11.964364041079083"><ele>223.0</ele><time>2026-05-01T07:00:12.999Z</time></trkpt><trkpt lat="45.89572862114972" lon="11.964204878416215"><ele>223.0</ele><time>2026-05-01T07:00:13.999Z</time></trkpt><trkpt lat="45.89568238336766" lon="11.964043188672193"><ele>223.0</ele><time>2026-05-01T07:00:14.999Z</time></trkpt><trkpt lat="45.89563950941892" lon="11.963886421962675"><ele>223.0</ele><time>2026-05-01T07:00:15.999Z</time></trkpt><trkpt lat="45.895597459956385" lon="11.963728992052479"><ele>222.75</ele><time>2026-05-01T07:00:16.999Z</time></trkpt><trkpt lat="45.89555088086654" lon="11.963572229962503"><ele>222.5</ele><time>2026-05-01T07:00:17.999Z</time></trkpt><trkpt lat="45.895503507639454" lon="11.963416618014284"><ele>222.25</ele><time>2026-05-01T07:00:18.999Z</time></trkpt><trkpt lat="45.895460963942334" lon="11.963264451327491"><ele>222.0</ele><time>2026-05-01T07:00:19.999Z</time></trkpt><trkpt lat="45.89541950780627" lon="11.963126101505772"><ele>222.6</ele><time>2026-05-01T07:00:21Z</time></trkpt><trkpt lat="45.89538293998375" lon="11.962993098380396"><ele>223.2</ele><time>2026-05-01T07:00:22Z</time></trkpt><trkpt lat="45.895350672437296" lon="11.96286229583172"><ele>223.8</ele><time>2026-05-01T07:00:23Z</time></trkpt><trkpt lat="45.89531721541886" lon="11.962734999920206"><ele>224.4</ele><time>2026-05-01T07:00:24Z</time></trkpt><trkpt lat="45.89530608535225" lon="11.962606491609597"><ele>225.0</ele><time>2026-05-01T07:00:25Z</time></trkpt><trkpt lat="45.895317588515866" lon="11.962470038215498"><ele>225.4</ele><time>2026-05-01T07:00:26Z</time></trkpt><trkpt lat="45.895357378918234" lon="11.962322958550278"><ele>225.8</ele><time>2026-05-01T07:00:27Z</time></trkpt><trkpt lat="45.89540018852487" lon="11.962187566318287"><ele>226.2</ele><time>2026-05-01T07:00:28Z</time></trkpt><trkpt lat="45.89544269668383" lon="11.962056312979387"><ele>226.6</ele><time>2026-05-01T07:00:29Z</time></trkpt><trkpt lat="45.89549820257829" lon="11.961951714564389"><ele>227.0</ele><time>2026-05-01T07:00:30Z</time></trkpt><trkpt lat="45.895573233947914" lon="11.961863716914866"><ele>227.0</ele><time>2026-05-01T07:00:31Z</time></trkpt><trkpt lat="45.89567047911753" lon="11.96178473416548"><ele>227.0</ele><time>2026-05-01T07:00:32Z</time></trkpt><trkpt lat="45.89577453018748" lon="11.961715314902326"><ele>227.0</ele><time>2026-05-01T07:00:33Z</time></trkpt><trkpt lat="45.895879524354314" lon="11.961627896130237"><ele>227.0</ele><time>2026-05-01T07:00:34Z</time></trkpt><trkpt lat="45.895969247033804" lon="11.96151693350116"><ele>227.5</ele><time>2026-05-01T07:00:35Z</time></trkpt><trkpt lat="45.89604200566792" lon="11.961412049228501"><ele>228.0</ele><time>2026-05-01T07:00:36Z</time></trkpt><trkpt lat="45.8960770102756" lon="11.961294283401553"><ele>228.5</ele><time>2026-05-01T07:00:37Z</time></trkpt><trkpt lat="45.896164686950414" lon="11.961184509306063"><ele>229.0</ele><time>2026-05-01T07:00:38Z</time></trkpt><trkpt lat="45.89603308680761" lon="11.961024757708195"><ele>229.0</ele><time>2026-05-01T07:00:39Z</time></trkpt><trkpt lat="45.895956464043294" lon="11.960920355592906"><ele>229.0</ele><time>2026-05-01T07:00:40Z</time></trkpt><trkpt lat="45.89584591947635" lon="11.960862467030951"><ele>229.0</ele><time>2026-05-01T07:00:41Z</time></trkpt><trkpt lat="45.89572602127915" lon="11.960853056818705"><ele>229.0</ele><time>2026-05-01T07:00:42Z</time></trkpt><trkpt lat="45.895605339575404" lon="11.960858201722496"><ele>226.39999999999998</ele><time>2026-05-01T07:00:43Z</time></trkpt><trkpt lat="45.89550497162082" lon="11.960850455058035"><ele>223.79999999999998</ele><time>2026-05-01T07:00:44Z</time></trkpt><trkpt lat="45.895405586278216" lon="11.960826504897929"><ele>221.20000000000002</ele><time>2026-05-01T07:00:45Z</time></trkpt><trkpt lat="45.895311982909625" lon="11.960779900135185"><ele>218.60000000000002</ele><time>2026-05-01T07:00:46Z</time></trkpt><trkpt lat="45.895231750970744" lon="11.960706923889388"><ele>216.0</ele><time>2026-05-01T07:00:47Z</time></trkpt><trkpt lat="45.895207808580636" lon="11.960589086295782"><ele>216.0</ele><time>2026-05-01T07:00:48Z</time></trkpt><trkpt lat="45.895172200982444" lon="11.960473057433544"><ele>216.00000000000003</ele><time>2026-05-01T07:00:49Z</time></trkpt><trkpt lat="45.89516726435558" lon="11.96031563110591"><ele>216.00000000000003</ele><time>2026-05-01T07:00:50Z</time></trkpt><trkpt lat="45.89515583436955" lon="11.960162589896273"><ele>216.0</ele><time>2026-05-01T07:00:51Z</time></trkpt><trkpt lat="45.895167067556365" lon="11.960025796113918"><ele>216.0</ele><time>2026-05-01T07:00:52Z</time></trkpt><trkpt lat="45.89519621322639" lon="11.959894416107801"><ele>216.60000000000002</ele><time>2026-05-01T07:00:53Z</time></trkpt><trkpt lat="45.89524131346323" lon="11.959760932126361"><ele>217.20000000000002</ele><time>2026-05-01T07:00:54Z</time></trkpt><trkpt lat="45.89529152469877" lon="11.959626051034196"><ele>217.79999999999998</ele><time>2026-05-01T07:00:55Z</time></trkpt><trkpt lat="45.895353629856636" lon="11.959507352053956"><ele>218.39999999999998</ele><time>2026-05-01T07:00:56Z</time></trkpt><trkpt lat="45.895427747518944" lon="11.95938890333348"><ele>219.0</ele><time>2026-05-01T07:00:57Z</time></trkpt><trkpt lat="45.895503244533494" lon="11.959270279050976"><ele>216.25</ele><time>2026-05-01T07:00:58Z</time></trkpt><trkpt lat="45.89557674393886" lon="11.959143564227897"><ele>213.5</ele><time>2026-05-01T07:00:59Z</time></trkpt><trkpt lat="45.895656051972225" lon="11.958997349091007"><ele>210.75</ele><time>2026-05-01T07:01:00Z</time></trkpt><trkpt lat="45.89573198364858" lon="11.95885564892708"><ele>208.0</ele><time>2026-05-01T07:01:01Z</time></trkpt><trkpt lat="45.89580166506629" lon="11.958716863871759"><ele>208.0</ele><time>2026-05-01T07:01:02Z</time></trkpt><trkpt lat="45.89585908586679" lon="11.958579343750877"><ele>208.0</ele><time>2026-05-01T07:01:03Z</time></trkpt><trkpt lat="45.8958986780372" lon="11.958426128953047"><ele>208.0</ele><time>2026-05-01T07:01:04Z</time></trkpt><trkpt lat="45.895931484421254" lon="11.95828496551079"><ele>208.0</ele><time>2026-05-01T07:01:05Z</time></trkpt><trkpt lat="45.89594916995407" lon="11.958135384295668"><ele>208.0</ele><time>2026-05-01T07:01:06Z</time></trkpt><trkpt lat="45.89596941123107" lon="11.957984740199041"><ele>213.25</ele><time>2026-05-01T07:01:07Z</time></trkpt><trkpt lat="45.89599094618671" lon="11.957812883402848"><ele>218.5</ele><time>2026-05-01T07:01:08Z</time></trkpt><trkpt lat="45.89601283376022" lon="11.95763805628012"><ele>223.75</ele><time>2026-05-01T07:01:09Z</time></trkpt><trkpt lat="45.89603609014827" lon="11.957468017302608"><ele>229.0</ele><time>2026-05-01T07:01:10Z</time></trkpt><trkpt lat="45.89606030635932" lon="11.957301432614837"><ele>229.0</ele><time>2026-05-01T07:01:11Z</time></trkpt><trkpt lat="45.89608270397917" lon="11.957133030450475"><ele>229.0</ele><time>2026-05-01T07:01:12Z</time></trkpt><trkpt lat="45.89610455209868" lon="11.956962863079417"><ele>229.0</ele><time>2026-05-01T07:01:13Z</time></trkpt><trkpt lat="45.896125372257245" lon="11.956790429791383"><ele>229.0</ele><time>2026-05-01T07:01:14Z</time></trkpt><trkpt lat="45.896146824195974" lon="11.956618760886657"><ele>226.75</ele><time>2026-05-01T07:01:15Z</time></trkpt><trkpt lat="45.896170918413944" lon="11.956445626552538"><ele>224.5</ele><time>2026-05-01T07:01:16Z</time></trkpt><trkpt lat="45.89619571642459" lon="11.956276455288625"><ele>222.25</ele><time>2026-05-01T07:01:17Z</time></trkpt><trkpt lat="45.89621783454258" lon="11.95611727827482"><ele>220.0</ele><time>2026-05-01T07:01:18Z</time></trkpt><trkpt lat="45.89624406917626" lon="11.955972499746931"><ele>218.0</ele><time>2026-05-01T07:01:19Z</time></trkpt><trkpt lat="45.89626096700217" lon="11.955821635364492"><ele>216.0</ele><time>2026-05-01T07:01:20Z</time></trkpt><trkpt lat="45.89628086317064" lon="11.955672466962286"><ele>214.0</ele><time>2026-05-01T07:01:21Z</time></trkpt><trkpt lat="45.89630677437864" lon="11.955528129639717"><ele>212.0</ele><time>2026-05-01T07:01:22Z</time></trkpt><trkpt lat="45.896334618545524" lon="11.95538997392233"><ele>210.0</ele><time>2026-05-01T07:01:23Z</time></trkpt><trkpt lat="45.8963607186547" lon="11.95524860020976"><ele>210.0</ele><time>2026-05-01T07:01:24Z</time></trkpt><trkpt lat="45.896394570490536" lon="11.955113883915836"><ele>210.0</ele><time>2026-05-01T07:01:25Z</time></trkpt><trkpt lat="45.89643169363965" lon="11.95498263829123"><ele>210.0</ele><time>2026-05-01T07:01:26Z</time></trkpt><trkpt lat="45.89647153043785" lon="11.954850328013833"><ele>210.0</ele><time>2026-05-01T07:01:27Z</time></trkpt><trkpt lat="45.89651174870927" lon="11.954725492661119"><ele>210.0</ele><time>2026-05-01T07:01:28Z</time></trkpt><trkpt lat="45.896558278418276" lon="11.954599583069125"><ele>207.4</ele><time>2026-05-01T07:01:29Z</time></trkpt><trkpt lat="45.89661114696353" lon="11.95447816752861"><ele>204.8</ele><time>2026-05-01T07:01:30Z</time></trkpt><trkpt lat="45.896669362119994" lon="11.954353060435135"><ele>202.2</ele><time>2026-05-01T07:01:31Z</time></trkpt><trkpt lat="45.89673302350008" lon="11.954232784776782"><ele>199.6</ele><time>2026-05-01T07:01:32Z</time></trkpt><trkpt lat="45.89679452122919" lon="11.954121445381913"><ele>197.0</ele><time>2026-05-01T07:01:33Z</time></trkpt><trkpt lat="45.89685621375494" lon="11.954008512592436"><ele>195.8</ele><time>2026-05-01T07:01:34Z</time></trkpt><trkpt lat="45.896920359656164" lon="11.953887824689023"><ele>194.6</ele><time>2026-05-01T07:01:35Z</time></trkpt><trkpt lat="45.89698191244734" lon="11.9537767627867"><ele>193.4</ele><time>2026-05-01T07:01:36Z</time></trkpt><trkpt lat="45.89704262985464" lon="11.953673622816812"><ele>192.20000000000002</ele><time>2026-05-01T07:01:37Z</time></trkpt><trkpt lat="45.89709700656252" lon="11.953592595112486"><ele>191.0</ele><time>2026-05-01T07:01:38Z</time></trkpt><trkpt lat="45.89717651447519" lon="11.953493509546083"><ele>191.0</ele><time>2026-05-01T07:01:40Z</time></trkpt><trkpt lat="45.89725554981562" lon="11.953407067545601"><ele>191.0</ele><time>2026-05-01T07:01:42Z</time></trkpt><trkpt lat="45.897307227822644" lon="11.953335199014209"><ele>191.0</ele><time>2026-05-01T07:01:43Z</time></trkpt><trkpt lat="45.89737232406516" lon="11.95324431563412"><ele>191.0</ele><time>2026-05-01T07:01:44Z</time></trkpt><trkpt lat="45.89745406940789" lon="11.953146918765414"><ele>191.0</ele><time>2026-05-01T07:01:45Z</time></trkpt><trkpt lat="45.8975478336061" lon="11.953052199907038"><ele>192.5</ele><time>2026-05-01T07:01:46Z</time></trkpt><trkpt lat="45.89765129456637" lon="11.952962208351584"><ele>194.0</ele><time>2026-05-01T07:01:47Z</time></trkpt><trkpt lat="45.89776408473462" lon="11.952873276024754"><ele>195.5</ele><time>2026-05-01T07:01:48Z</time></trkpt><trkpt lat="45.89788600727514" lon="11.952792055705245"><ele>197.0</ele><time>2026-05-01T07:01:49Z</time></trkpt><trkpt lat="45.89802477846562" lon="11.95271103251323"><ele>197.0</ele><time>2026-05-01T07:01:50Z</time></trkpt><trkpt lat="45.89816926167866" lon="11.952632129871008"><ele>197.0</ele><time>2026-05-01T07:01:51Z</time></trkpt><trkpt lat="45.89832322968761" lon="11.95255612783393"><ele>197.0</ele><time>2026-05-01T07:01:52Z</time></trkpt><trkpt lat="45.89847040545607" lon="11.952482367948233"><ele>195.75</ele><time>2026-05-01T07:01:53Z</time></trkpt><trkpt lat="45.89859768931607" lon="11.95241641061152"><ele>194.5</ele><time>2026-05-01T07:01:54Z</time></trkpt><trkpt lat="45.898716248086444" lon="11.952355513426253"><ele>193.25</ele><time>2026-05-01T07:01:55Z</time></trkpt><trkpt lat="45.898828402830794" lon="11.95229840046461"><ele>192.0</ele><time>2026-05-01T07:01:56Z</time></trkpt><trkpt lat="45.89894182175548" lon="11.952245280942758"><ele>192.0</ele><time>2026-05-01T07:01:57Z</time></trkpt><trkpt lat="45.899057693261625" lon="11.952190531006883"><ele>192.0</ele><time>2026-05-01T07:01:58Z</time></trkpt><trkpt lat="45.89917202417997" lon="11.952137656460502"><ele>192.0</ele><time>2026-05-01T07:01:59Z</time></trkpt><trkpt lat="45.89928764393267" lon="11.9520890301625"><ele>192.0</ele><time>2026-05-01T07:02:00Z</time></trkpt><trkpt lat="45.899398267367005" lon="11.952041340485007"><ele>198.39999999999998</ele><time>2026-05-01T07:02:01Z</time></trkpt><trkpt lat="45.8995091884745" lon="11.951989630728415"><ele>204.79999999999998</ele><time>2026-05-01T07:02:01.999Z</time></trkpt><trkpt lat="45.89961648667312" lon="11.951936686413386"><ele>211.2</ele><time>2026-05-01T07:02:02.999Z</time></trkpt><trkpt lat="45.89972465112797" lon="11.951885064568017"><ele>217.6</ele><time>2026-05-01T07:02:03.999Z</time></trkpt><trkpt lat="45.89981831393477" lon="11.951839276807696"><ele>224.0</ele><time>2026-05-01T07:02:04.999Z</time></trkpt><trkpt lat="45.8999066046928" lon="11.951805179306453"><ele>224.00000000000003</ele><time>2026-05-01T07:02:05.999Z</time></trkpt><trkpt lat="45.899988692285824" lon="11.951774822098864"><ele>224.0</ele><time>2026-05-01T07:02:06.999Z</time></trkpt><trkpt lat="45.90006304489633" lon="11.951747178668386"><ele>224.0</ele><time>2026-05-01T07:02:07.999Z</time></trkpt><trkpt lat="45.90012563233517" lon="11.951723413538339"><ele>224.0</ele><time>2026-05-01T07:02:08.999Z</time></trkpt><trkpt lat="45.9002161376832" lon="11.951696305505727"><ele>224.00000000000003</ele><time>2026-05-01T07:02:10.999Z</time></trkpt><trkpt lat="45.900316640660876" lon="11.9516580069525"><ele>224.0</ele><time>2026-05-01T07:02:12.999Z</time></trkpt><trkpt lat="45.900307771979875" lon="11.951407920602385"><ele>216.75</ele><time>2026-05-01T07:02:14.999Z</time></trkpt><trkpt lat="45.90026493876673" lon="11.951291049437296"><ele>209.5</ele><time>2026-05-01T07:02:15.999Z</time></trkpt><trkpt lat="45.90023774753894" lon="11.95115273171886"><ele>202.25</ele><time>2026-05-01T07:02:16.999Z</time></trkpt><trkpt lat="45.90023058237813" lon="11.950992889434103"><ele>195.0</ele><time>2026-05-01T07:02:17.999Z</time></trkpt><trkpt lat="45.90021935504459" lon="11.950778985989084"><ele>188.33333333333334</ele><time>2026-05-01T07:02:18.999Z</time></trkpt><trkpt lat="45.900201277587456" lon="11.95050340696812"><ele>181.66666666666669</ele><time>2026-05-01T07:02:19.999Z</time></trkpt><trkpt lat="45.90018094747781" lon="11.950204501677083"><ele>175.0</ele><time>2026-05-01T07:02:20.999Z</time></trkpt><trkpt lat="45.90016147040996" lon="11.949929570920538"><ele>175.0</ele><time>2026-05-01T07:02:21.999Z</time></trkpt><trkpt lat="45.90014316564074" lon="11.949635652207428"><ele>175.0</ele><time>2026-05-01T07:02:22.999Z</time></trkpt><trkpt lat="45.90012670034096" lon="11.949379006884403"><ele>175.0</ele><time>2026-05-01T07:02:23.999Z</time></trkpt><trkpt lat="45.900112675042514" lon="11.949138752844068"><ele>174.33333333333334</ele><time>2026-05-01T07:02:24.999Z</time></trkpt><trkpt lat="45.90009697352394" lon="11.948914330615514"><ele>173.66666666666666</ele><time>2026-05-01T07:02:25.999Z</time></trkpt><trkpt lat="45.9000817618521" lon="11.948704867137645"><ele>173.0</ele><time>2026-05-01T07:02:27Z</time></trkpt><trkpt lat="45.90006258728582" lon="11.948468796621135"><ele>172.66666666666666</ele><time>2026-05-01T07:02:28Z</time></trkpt><trkpt lat="45.900044505493106" lon="11.948222967290699"><ele>172.33333333333334</ele><time>2026-05-01T07:02:29Z</time></trkpt><trkpt lat="45.9000283089387" lon="11.947989770920689"><ele>172.0</ele><time>2026-05-01T07:02:30Z</time></trkpt><trkpt lat="45.90001487185484" lon="11.947769786674785"><ele>172.0</ele><time>2026-05-01T07:02:31Z</time></trkpt><trkpt lat="45.900001889299425" lon="11.947566082670535"><ele>172.0</ele><time>2026-05-01T07:02:32Z</time></trkpt><trkpt lat="45.89998900742695" lon="11.947362085187402"><ele>172.0</ele><time>2026-05-01T07:02:33Z</time></trkpt><trkpt lat="45.89997680179083" lon="11.947151743437047"><ele>172.0</ele><time>2026-05-01T07:02:34Z</time></trkpt><trkpt lat="45.899966843367594" lon="11.946939710576654"><ele>171.75</ele><time>2026-05-01T07:02:35Z</time></trkpt><trkpt lat="45.89995569898037" lon="11.946736745148455"><ele>171.5</ele><time>2026-05-01T07:02:36Z</time></trkpt><trkpt lat="45.899940633822446" lon="11.946548451903984"><ele>171.25</ele><time>2026-05-01T07:02:37Z</time></trkpt><trkpt lat="45.89992856515094" lon="11.946379692658484"><ele>171.0</ele><time>2026-05-01T07:02:38Z</time></trkpt><trkpt lat="45.89991800772374" lon="11.946217478423838"><ele>172.0</ele><time>2026-05-01T07:02:39Z</time></trkpt><trkpt lat="45.89990592760385" lon="11.946055534279255"><ele>173.0</ele><time>2026-05-01T07:02:40Z</time></trkpt><trkpt lat="45.89989377895428" lon="11.945894740305302"><ele>174.0</ele><time>2026-05-01T07:02:41Z</time></trkpt><trkpt lat="45.89988397156247" lon="11.94573901526873"><ele>175.0</ele><time>2026-05-01T07:02:42Z</time></trkpt><trkpt lat="45.89987437147911" lon="11.945585488818798"><ele>176.0</ele><time>2026-05-01T07:02:43Z</time></trkpt><trkpt lat="45.899865597130336" lon="11.945434340608827"><ele>176.60000000000002</ele><time>2026-05-01T07:02:44Z</time></trkpt><trkpt lat="45.89985759706489" lon="11.945284398096701"><ele>177.2</ele><time>2026-05-01T07:02:45Z</time></trkpt><trkpt lat="45.89984829381655" lon="11.945133858036213"><ele>177.8</ele><time>2026-05-01T07:02:46Z</time></trkpt><trkpt lat="45.89983839525605" lon="11.944985971186384"><ele>178.39999999999998</ele><time>2026-05-01T07:02:47Z</time></trkpt><trkpt lat="45.899829462300175" lon="11.944840971208391"><ele>179.0</ele><time>2026-05-01T07:02:48Z</time></trkpt><trkpt lat="45.89981768451153" lon="11.944690984682937"><ele>179.0</ele><time>2026-05-01T07:02:49Z</time></trkpt><trkpt lat="45.89981131981355" lon="11.944552333262166"><ele>179.0</ele><time>2026-05-01T07:02:50Z</time></trkpt><trkpt lat="45.899800355058794" lon="11.94441423116457"><ele>179.0</ele><time>2026-05-01T07:02:51Z</time></trkpt><trkpt lat="45.899792377021534" lon="11.944282995294492"><ele>179.0</ele><time>2026-05-01T07:02:52Z</time></trkpt><trkpt lat="45.89978208815587" lon="11.944154931136417"><ele>179.0</ele><time>2026-05-01T07:02:53Z</time></trkpt><trkpt lat="45.89977295910531" lon="11.944037179530277"><ele>178.5</ele><time>2026-05-01T07:02:54Z</time></trkpt><trkpt lat="45.89976432092782" lon="11.943924362395215"><ele>178.0</ele><time>2026-05-01T07:02:55Z</time></trkpt><trkpt lat="45.89975873574194" lon="11.943818562709636"><ele>177.5</ele><time>2026-05-01T07:02:56Z</time></trkpt><trkpt lat="45.89975266334437" lon="11.943716757713123"><ele>177.0</ele><time>2026-05-01T07:02:57Z</time></trkpt><trkpt lat="45.89974713686755" lon="11.943621673187506"><ele>176.5</ele><time>2026-05-01T07:02:58Z</time></trkpt><trkpt lat="45.89974263956565" lon="11.943531054466591"><ele>176.0</ele><time>2026-05-01T07:02:59Z</time></trkpt><trkpt lat="45.899734316283755" lon="11.943348072795837"><ele>177.60000000000002</ele><time>2026-05-01T07:03:01Z</time></trkpt><trkpt lat="45.89975429874376" lon="11.943234682141261"><ele>179.2</ele><time>2026-05-01T07:03:05Z</time></trkpt><trkpt lat="45.899830437405605" lon="11.943084081184663"><ele>180.8</ele><time>2026-05-01T07:03:07Z</time></trkpt><trkpt lat="45.89988505486615" lon="11.943005706857656"><ele>182.39999999999998</ele><time>2026-05-01T07:03:08Z</time></trkpt><trkpt lat="45.899974336086956" lon="11.942988151544714"><ele>184.0</ele><time>2026-05-01T07:03:09Z</time></trkpt><trkpt lat="45.90006580888244" lon="11.94298031721891"><ele>184.39999999999998</ele><time>2026-05-01T07:03:10Z</time></trkpt><trkpt lat="45.90017306973871" lon="11.942992134602257"><ele>184.8</ele><time>2026-05-01T07:03:11Z</time></trkpt><trkpt lat="45.900289437095374" lon="11.942997192825528"><ele>185.2</ele><time>2026-05-01T07:03:12Z</time></trkpt><trkpt lat="45.900393325319726" lon="11.942982640701782"><ele>185.60000000000002</ele><time>2026-05-01T07:03:13Z</time></trkpt><trkpt lat="45.90050381108941" lon="11.942966202773697"><ele>186.0</ele><time>2026-05-01T07:03:14Z</time></trkpt><trkpt lat="45.900620010349066" lon="11.942943521338265"><ele>186.0</ele><time>2026-05-01T07:03:15Z</time></trkpt><trkpt lat="45.90073220187732" lon="11.94291905445579"><ele>186.0</ele><time>2026-05-01T07:03:16Z</time></trkpt><trkpt lat="45.900847051886906" lon="11.942898013363786"><ele>186.0</ele><time>2026-05-01T07:03:17Z</time></trkpt><trkpt lat="45.900958307338165" lon="11.942878170906974"><ele>186.0</ele><time>2026-05-01T07:03:18Z</time></trkpt><trkpt lat="45.9010724476535" lon="11.942858030457352"><ele>185.75</ele><time>2026-05-01T07:03:19Z</time></trkpt><trkpt lat="45.90118819965865" lon="11.942832766798306"><ele>185.5</ele><time>2026-05-01T07:03:20Z</time></trkpt><trkpt lat="45.90129895164342" lon="11.942809691649082"><ele>185.25</ele><time>2026-05-01T07:03:21Z</time></trkpt><trkpt lat="45.901418773482035" lon="11.9427779216756"><ele>185.0</ele><time>2026-05-01T07:03:22Z</time></trkpt><trkpt lat="45.90153462951563" lon="11.942754915423114"><ele>185.0</ele><time>2026-05-01T07:03:23Z</time></trkpt><trkpt lat="45.90163895145844" lon="11.942733071143255"><ele>185.0</ele><time>2026-05-01T07:03:24Z</time></trkpt><trkpt lat="45.90174912386006" lon="11.94271110006395"><ele>185.0</ele><time>2026-05-01T07:03:25Z</time></trkpt><trkpt lat="45.90185959572375" lon="11.94268348767399"><ele>185.0</ele><time>2026-05-01T07:03:26Z</time></trkpt><trkpt lat="45.90198222883679" lon="11.94264525566269"><ele>185.75</ele><time>2026-05-01T07:03:27Z</time></trkpt><trkpt lat="45.90208995740724" lon="11.94261722421856"><ele>186.5</ele><time>2026-05-01T07:03:28Z</time></trkpt><trkpt lat="45.90220003285968" lon="11.942587095188264"><ele>187.25</ele><time>2026-05-01T07:03:29Z</time></trkpt><trkpt lat="45.902313663466934" lon="11.94255662239132"><ele>188.0</ele><time>2026-05-01T07:03:30Z</time></trkpt><trkpt lat="45.90242613939691" lon="11.94252253557332"><ele>188.5</ele><time>2026-05-01T07:03:31Z</time></trkpt><trkpt lat="45.902542285430144" lon="11.94249205165381"><ele>189.0</ele><time>2026-05-01T07:03:32Z</time></trkpt><trkpt lat="45.90265572087133" lon="11.942460789684237"><ele>189.5</ele><time>2026-05-01T07:03:33Z</time></trkpt><trkpt lat="45.902769467493655" lon="11.942426573063557"><ele>190.0</ele><time>2026-05-01T07:03:34Z</time></trkpt><trkpt lat="45.90288297252573" lon="11.94238733403654"><ele>190.0</ele><time>2026-05-01T07:03:35Z</time></trkpt><trkpt lat="45.902992956870925" lon="11.942347040357689"><ele>190.0</ele><time>2026-05-01T07:03:36Z</time></trkpt><trkpt lat="45.903102047462866" lon="11.94230829181422"><ele>190.0</ele><time>2026-05-01T07:03:37Z</time></trkpt><trkpt lat="45.9032179741864" lon="11.94226442238019"><ele>190.0</ele><time>2026-05-01T07:03:38Z</time></trkpt><trkpt lat="45.903331664971184" lon="11.942217967366053"><ele>189.75</ele><time>2026-05-01T07:03:39Z</time></trkpt><trkpt lat="45.90344018466156" lon="11.942175983075618"><ele>189.5</ele><time>2026-05-01T07:03:40Z</time></trkpt><trkpt lat="45.903554489649764" lon="11.942127056634469"><ele>189.25</ele><time>2026-05-01T07:03:41Z</time></trkpt><trkpt lat="45.9036671482121" lon="11.942076736948952"><ele>189.0</ele><time>2026-05-01T07:03:42Z</time></trkpt><trkpt lat="45.903774212079384" lon="11.942031425149354"><ele>189.0</ele><time>2026-05-01T07:03:43Z</time></trkpt><trkpt lat="45.90388347125504" lon="11.941987123675487"><ele>189.0</ele><time>2026-05-01T07:03:44Z</time></trkpt><trkpt lat="45.903995331617494" lon="11.941942325419925"><ele>189.0</ele><time>2026-05-01T07:03:45Z</time></trkpt><trkpt lat="45.90410886845959" lon="11.941893424202343"><ele>189.0</ele><time>2026-05-01T07:03:46Z</time></trkpt><trkpt lat="45.904220599320794" lon="11.941847020050798"><ele>189.25</ele><time>2026-05-01T07:03:47Z</time></trkpt><trkpt lat="45.904330214404304" lon="11.94179173787623"><ele>189.5</ele><time>2026-05-01T07:03:48Z</time></trkpt><trkpt lat="45.904443340302834" lon="11.941743313665048"><ele>189.75</ele><time>2026-05-01T07:03:49Z</time></trkpt><trkpt lat="45.904555080837184" lon="11.941692045970944"><ele>190.0</ele><time>2026-05-01T07:03:50Z</time></trkpt><trkpt lat="45.90466748523065" lon="11.94164396832981"><ele>190.0</ele><time>2026-05-01T07:03:51Z</time></trkpt><trkpt lat="45.904778251508446" lon="11.941594812070939"><ele>190.0</ele><time>2026-05-01T07:03:52Z</time></trkpt><trkpt lat="45.90487676674747" lon="11.941545907765992"><ele>190.0</ele><time>2026-05-01T07:03:53Z</time></trkpt><trkpt lat="45.9049669389244" lon="11.941492412657594"><ele>190.0</ele><time>2026-05-01T07:03:54Z</time></trkpt><trkpt lat="45.90505205664356" lon="11.94144280775726"><ele>190.0</ele><time>2026-05-01T07:03:55Z</time></trkpt><trkpt lat="45.90513605439822" lon="11.941402319642199"><ele>188.6</ele><time>2026-05-01T07:03:56Z</time></trkpt><trkpt lat="45.90522043245766" lon="11.941379523823084"><ele>187.2</ele><time>2026-05-01T07:03:57Z</time></trkpt><trkpt lat="45.90531342755089" lon="11.941365885015905"><ele>185.8</ele><time>2026-05-01T07:03:58Z</time></trkpt><trkpt lat="45.90541127869017" lon="11.941374994108218"><ele>184.4</ele><time>2026-05-01T07:03:58.999Z</time></trkpt><trkpt lat="45.905515677991495" lon="11.941402335464714"><ele>183.0</ele><time>2026-05-01T07:03:59.999Z</time></trkpt><trkpt lat="45.90561874272582" lon="11.941434758732619"><ele>183.0</ele><time>2026-05-01T07:04:00.999Z</time></trkpt><trkpt lat="45.90572983840227" lon="11.941469058627309"><ele>183.0</ele><time>2026-05-01T07:04:01.999Z</time></trkpt><trkpt lat="45.905844644654366" lon="11.941508293386928"><ele>183.0</ele><time>2026-05-01T07:04:02.999Z</time></trkpt><trkpt lat="45.90596687108849" lon="11.941557624505721"><ele>183.0</ele><time>2026-05-01T07:04:03.999Z</time></trkpt><trkpt lat="45.90608644832495" lon="11.941612607170793"><ele>182.0</ele><time>2026-05-01T07:04:04.999Z</time></trkpt><trkpt lat="45.906200280802146" lon="11.94166582579013"><ele>181.0</ele><time>2026-05-01T07:04:05.999Z</time></trkpt><trkpt lat="45.90631425700113" lon="11.941717342116638"><ele>180.0</ele><time>2026-05-01T07:04:06.999Z</time></trkpt><trkpt lat="45.90642610578736" lon="11.941766104743865"><ele>179.0</ele><time>2026-05-01T07:04:07.999Z</time></trkpt><trkpt lat="45.90654645929935" lon="11.941816032279338"><ele>178.75</ele><time>2026-05-01T07:04:08.999Z</time></trkpt><trkpt lat="45.906654888144125" lon="11.94186823461275"><ele>178.5</ele><time>2026-05-01T07:04:09.999Z</time></trkpt><trkpt lat="45.906770178682066" lon="11.941922999421683"><ele>178.25</ele><time>2026-05-01T07:04:10.999Z</time></trkpt><trkpt lat="45.90688781789649" lon="11.941975393941636"><ele>178.0</ele><time>2026-05-01T07:04:11.999Z</time></trkpt><trkpt lat="45.90701396485716" lon="11.94202987140542"><ele>178.0</ele><time>2026-05-01T07:04:12.999Z</time></trkpt><trkpt lat="45.90714539659961" lon="11.942091426568238"><ele>178.0</ele><time>2026-05-01T07:04:13.999Z</time></trkpt><trkpt lat="45.907282460675276" lon="11.94215626093899"><ele>178.0</ele><time>2026-05-01T07:04:14.999Z</time></trkpt><trkpt lat="45.907423480039064" lon="11.942219779132268"><ele>178.0</ele><time>2026-05-01T07:04:15.999Z</time></trkpt><trkpt lat="45.90756946619582" lon="11.942282976895495"><ele>179.0</ele><time>2026-05-01T07:04:16.999Z</time></trkpt><trkpt lat="45.90771646195843" lon="11.942349719984971"><ele>180.0</ele><time>2026-05-01T07:04:17.999Z</time></trkpt><trkpt lat="45.9078660065185" lon="11.942409681832869"><ele>181.0</ele><time>2026-05-01T07:04:18.999Z</time></trkpt><trkpt lat="45.90801724092474" lon="11.942453121393513"><ele>181.0</ele><time>2026-05-01T07:04:19.999Z</time></trkpt><trkpt lat="45.908171960701154" lon="11.942465630749815"><ele>181.0</ele><time>2026-05-01T07:04:20.999Z</time></trkpt><trkpt lat="45.90832447561786" lon="11.942456349239349"><ele>181.0</ele><time>2026-05-01T07:04:21.999Z</time></trkpt><trkpt lat="45.90847735273557" lon="11.942428690658318"><ele>182.0</ele><time>2026-05-01T07:04:22.999Z</time></trkpt><trkpt lat="45.9086242229007" lon="11.942384165230703"><ele>183.0</ele><time>2026-05-01T07:04:23.999Z</time></trkpt><trkpt lat="45.90877392443" lon="11.942327016414236"><ele>184.0</ele><time>2026-05-01T07:04:24.999Z</time></trkpt><trkpt lat="45.90891320161013" lon="11.94227313268282"><ele>185.0</ele><time>2026-05-01T07:04:25.999Z</time></trkpt><trkpt lat="45.90904977587513" lon="11.942220870585583"><ele>185.0</ele><time>2026-05-01T07:04:26.999Z</time></trkpt><trkpt lat="45.90919084115863" lon="11.942174359378491"><ele>185.0</ele><time>2026-05-01T07:04:27.999Z</time></trkpt><trkpt lat="45.909338047541425" lon="11.942123743944643"><ele>185.0</ele><time>2026-05-01T07:04:28.999Z</time></trkpt><trkpt lat="45.90952107462286" lon="11.942054409849542"><ele>183.0</ele><time>2026-05-01T07:04:29.999Z</time></trkpt><trkpt lat="45.90973567749197" lon="11.9419791026292"><ele>181.0</ele><time>2026-05-01T07:04:30.999Z</time></trkpt><trkpt lat="45.90997431626682" lon="11.941894608853675"><ele>180.0</ele><time>2026-05-01T07:04:31.999Z</time></trkpt><trkpt lat="45.91018907803944" lon="11.941818262653678"><ele>179.0</ele><time>2026-05-01T07:04:33Z</time></trkpt><trkpt lat="45.91039906804615" lon="11.941747107703593"><ele>178.0</ele><time>2026-05-01T07:04:34Z</time></trkpt><trkpt lat="45.91058778530416" lon="11.941694366920727"><ele>182.66666666666669</ele><time>2026-05-01T07:04:35Z</time></trkpt><trkpt lat="45.910769707301085" lon="11.941649767735642"><ele>187.33333333333334</ele><time>2026-05-01T07:04:36Z</time></trkpt><trkpt lat="45.910943779189445" lon="11.941608983112186"><ele>192.0</ele><time>2026-05-01T07:04:37Z</time></trkpt><trkpt lat="45.911114682468636" lon="11.941570406992213"><ele>192.0</ele><time>2026-05-01T07:04:38Z</time></trkpt><trkpt lat="45.911281006962845" lon="11.94153573804842"><ele>192.0</ele><time>2026-05-01T07:04:39Z</time></trkpt><trkpt lat="45.911445314877305" lon="11.941502109928031"><ele>192.0</ele><time>2026-05-01T07:04:40Z</time></trkpt><trkpt lat="45.911612948359604" lon="11.94146740053483"><ele>191.33333333333334</ele><time>2026-05-01T07:04:41Z</time></trkpt><trkpt lat="45.91178113432972" lon="11.941429575448993"><ele>190.66666666666669</ele><time>2026-05-01T07:04:42Z</time></trkpt><trkpt lat="45.911948982986644" lon="11.941393030829612"><ele>190.0</ele><time>2026-05-01T07:04:43Z</time></trkpt><trkpt lat="45.91211547107886" lon="11.941358057374577"><ele>190.0</ele><time>2026-05-01T07:04:44Z</time></trkpt><trkpt lat="45.912284526066124" lon="11.94132439216869"><ele>190.0</ele><time>2026-05-01T07:04:45Z</time></trkpt><trkpt lat="45.91245414855275" lon="11.941297011995385"><ele>190.0</ele><time>2026-05-01T07:04:46Z</time></trkpt><trkpt lat="45.91262285937777" lon="11.941278337179769"><ele>191.66666666666669</ele><time>2026-05-01T07:04:47Z</time></trkpt><trkpt lat="45.91279134505809" lon="11.941271857291504"><ele>193.33333333333334</ele><time>2026-05-01T07:04:48Z</time></trkpt><trkpt lat="45.9129617385469" lon="11.941280437870901"><ele>195.0</ele><time>2026-05-01T07:04:49Z</time></trkpt><trkpt lat="45.91313033306732" lon="11.941299060816013"><ele>195.0</ele><time>2026-05-01T07:04:50Z</time></trkpt><trkpt lat="45.91329936910126" lon="11.941324408654244"><ele>195.0</ele><time>2026-05-01T07:04:51Z</time></trkpt><trkpt lat="45.91346631354337" lon="11.941354719035436"><ele>195.0</ele><time>2026-05-01T07:04:52Z</time></trkpt><trkpt lat="45.91363356843843" lon="11.941383178758203"><ele>196.0</ele><time>2026-05-01T07:04:53Z</time></trkpt><trkpt lat="45.913799709089744" lon="11.941406926596876"><ele>197.0</ele><time>2026-05-01T07:04:54Z</time></trkpt><trkpt lat="45.913968103981496" lon="11.941432049219319"><ele>198.0</ele><time>2026-05-01T07:04:55Z</time></trkpt><trkpt lat="45.91413705469147" lon="11.94145939241865"><ele>201.33333333333331</ele><time>2026-05-01T07:04:56Z</time></trkpt><trkpt lat="45.914303134676786" lon="11.941488564561515"><ele>204.66666666666666</ele><time>2026-05-01T07:04:57Z</time></trkpt><trkpt lat="45.914468798345396" lon="11.941515007847025"><ele>208.0</ele><time>2026-05-01T07:04:58Z</time></trkpt><trkpt lat="45.9146364377627" lon="11.941542186530063"><ele>208.0</ele><time>2026-05-01T07:04:59Z</time></trkpt><trkpt lat="45.91480424913442" lon="11.941569081445072"><ele>208.0</ele><time>2026-05-01T07:05:00Z</time></trkpt><trkpt lat="45.914974902955464" lon="11.94159553768998"><ele>208.0</ele><time>2026-05-01T07:05:01Z</time></trkpt><trkpt lat="45.91514189034637" lon="11.941621633005091"><ele>210.0</ele><time>2026-05-01T07:05:02Z</time></trkpt><trkpt lat="45.915307551128414" lon="11.941651454443177"><ele>212.0</ele><time>2026-05-01T07:05:03Z</time></trkpt><trkpt lat="45.91547374956172" lon="11.941679859004001"><ele>214.0</ele><time>2026-05-01T07:05:04Z</time></trkpt><trkpt lat="45.91563951654939" lon="11.941705128612204"><ele>212.66666666666666</ele><time>2026-05-01T07:05:05Z</time></trkpt><trkpt lat="45.91580323901388" lon="11.941729514753037"><ele>211.33333333333331</ele><time>2026-05-01T07:05:06Z</time></trkpt><trkpt lat="45.915963965570825" lon="11.941754365000767"><ele>210.0</ele><time>2026-05-01T07:05:07Z</time></trkpt><trkpt lat="45.91612522803803" lon="11.941781520162618"><ele>210.0</ele><time>2026-05-01T07:05:08Z</time></trkpt><trkpt lat="45.91627815221537" lon="11.94180566006362"><ele>210.0</ele><time>2026-05-01T07:05:09Z</time></trkpt><trkpt lat="45.91642085240615" lon="11.941827980875326"><ele>210.0</ele><time>2026-05-01T07:05:10Z</time></trkpt><trkpt lat="45.91655147368662" lon="11.941850328312093"><ele>210.0</ele><time>2026-05-01T07:05:11Z</time></trkpt><trkpt lat="45.916677448459644" lon="11.941867817751007"><ele>212.25</ele><time>2026-05-01T07:05:12Z</time></trkpt><trkpt lat="45.91680353892194" lon="11.94188547444507"><ele>214.5</ele><time>2026-05-01T07:05:13Z</time></trkpt><trkpt lat="45.916925061382635" lon="11.941905201092961"><ele>216.75</ele><time>2026-05-01T07:05:14Z</time></trkpt><trkpt lat="45.91705219799741" lon="11.94192618362743"><ele>219.0</ele><time>2026-05-01T07:05:15Z</time></trkpt><trkpt lat="45.917179966052146" lon="11.941945508562913"><ele>219.0</ele><time>2026-05-01T07:05:16Z</time></trkpt><trkpt lat="45.91730732991842" lon="11.941964087793142"><ele>219.0</ele><time>2026-05-01T07:05:17Z</time></trkpt><trkpt lat="45.917437137522086" lon="11.94198697910221"><ele>219.0</ele><time>2026-05-01T07:05:18Z</time></trkpt><trkpt lat="45.91756484227265" lon="11.942016717036964"><ele>219.0</ele><time>2026-05-01T07:05:19Z</time></trkpt><trkpt lat="45.91769293607495" lon="11.942052744148604"><ele>219.75</ele><time>2026-05-01T07:05:20Z</time></trkpt><trkpt lat="45.91781813539645" lon="11.942099261242843"><ele>220.5</ele><time>2026-05-01T07:05:21Z</time></trkpt><trkpt lat="45.91793975955045" lon="11.942160153672342"><ele>221.25</ele><time>2026-05-01T07:05:22Z</time></trkpt><trkpt lat="45.918060819278075" lon="11.942234561851597"><ele>222.0</ele><time>2026-05-01T07:05:23Z</time></trkpt><trkpt lat="45.91818377790902" lon="11.942316604604015"><ele>222.0</ele><time>2026-05-01T07:05:24Z</time></trkpt><trkpt lat="45.918300973348316" lon="11.942404720836592"><ele>222.0</ele><time>2026-05-01T07:05:25Z</time></trkpt><trkpt lat="45.918416589023174" lon="11.942502249449518"><ele>222.0</ele><time>2026-05-01T07:05:26Z</time></trkpt><trkpt lat="45.91852446005615" lon="11.942599997298682"><ele>222.0</ele><time>2026-05-01T07:05:27Z</time></trkpt><trkpt lat="45.918631228137635" lon="11.942696490707428"><ele>221.5</ele><time>2026-05-01T07:05:28Z</time></trkpt><trkpt lat="45.91873381768977" lon="11.942795248252427"><ele>221.0</ele><time>2026-05-01T07:05:29Z</time></trkpt><trkpt lat="45.91883782347202" lon="11.942898907061014"><ele>220.5</ele><time>2026-05-01T07:05:30Z</time></trkpt><trkpt lat="45.918935400077025" lon="11.943004247433622"><ele>220.0</ele><time>2026-05-01T07:05:31Z</time></trkpt><trkpt lat="45.91903635061481" lon="11.943109544751099"><ele>220.0</ele><time>2026-05-01T07:05:32Z</time></trkpt><trkpt lat="45.9191404625665" lon="11.943215220792199"><ele>220.0</ele><time>2026-05-01T07:05:33Z</time></trkpt><trkpt lat="45.919241657005" lon="11.943321406150066"><ele>220.0</ele><time>2026-05-01T07:05:34Z</time></trkpt><trkpt lat="45.919346494176104" lon="11.943424580684535"><ele>220.0</ele><time>2026-05-01T07:05:35Z</time></trkpt><trkpt lat="45.9194506295855" lon="11.94352881371932"><ele>221.25</ele><time>2026-05-01T07:05:36Z</time></trkpt><trkpt lat="45.919557965102456" lon="11.943631512702652"><ele>222.5</ele><time>2026-05-01T07:05:37Z</time></trkpt><trkpt lat="45.91966534894576" lon="11.943732470271671"><ele>223.75</ele><time>2026-05-01T07:05:38Z</time></trkpt><trkpt lat="45.9197697800216" lon="11.943833357975043"><ele>225.0</ele><time>2026-05-01T07:05:39Z</time></trkpt><trkpt lat="45.91987778769496" lon="11.943932805312636"><ele>225.0</ele><time>2026-05-01T07:05:40Z</time></trkpt><trkpt lat="45.91998394010751" lon="11.944034671362761"><ele>225.0</ele><time>2026-05-01T07:05:41Z</time></trkpt><trkpt lat="45.92009079688608" lon="11.944138688979601"><ele>225.0</ele><time>2026-05-01T07:05:42Z</time></trkpt><trkpt lat="45.92019685073796" lon="11.944248272675997"><ele>225.0</ele><time>2026-05-01T07:05:43Z</time></trkpt><trkpt lat="45.9203007413786" lon="11.944355771077497"><ele>225.25</ele><time>2026-05-01T07:05:44Z</time></trkpt><trkpt lat="45.92040491940882" lon="11.944465818837472"><ele>225.5</ele><time>2026-05-01T07:05:45Z</time></trkpt><trkpt lat="45.92050808980876" lon="11.944576829969584"><ele>225.75</ele><time>2026-05-01T07:05:46Z</time></trkpt><trkpt lat="45.9206123521875" lon="11.944686747198602"><ele>226.0</ele><time>2026-05-01T07:05:47Z</time></trkpt><trkpt lat="45.92072057325619" lon="11.944796109990955"><ele>226.0</ele><time>2026-05-01T07:05:48Z</time></trkpt><trkpt lat="45.92082558932935" lon="11.944907224228288"><ele>226.0</ele><time>2026-05-01T07:05:49Z</time></trkpt><trkpt lat="45.920934631080165" lon="11.9450111233273"><ele>226.0</ele><time>2026-05-01T07:05:50Z</time></trkpt><trkpt lat="45.92103895265112" lon="11.945111622944248"><ele>226.0</ele><time>2026-05-01T07:05:51Z</time></trkpt><trkpt lat="45.92115480929212" lon="11.945202159319576"><ele>226.0</ele><time>2026-05-01T07:05:52Z</time></trkpt><trkpt lat="45.9212792083837" lon="11.945282753201466"><ele>226.0</ele><time>2026-05-01T07:05:53Z</time></trkpt><trkpt lat="45.92140293593367" lon="11.945353563024112"><ele>226.0</ele><time>2026-05-01T07:05:54Z</time></trkpt><trkpt lat="45.92153269818131" lon="11.945409055137395"><ele>226.0</ele><time>2026-05-01T07:05:54.999Z</time></trkpt><trkpt lat="45.92166506674475" lon="11.945452908925184"><ele>226.25</ele><time>2026-05-01T07:05:55.999Z</time></trkpt><trkpt lat="45.921794824366565" lon="11.94548944040069"><ele>226.5</ele><time>2026-05-01T07:05:56.999Z</time></trkpt><trkpt lat="45.921924498916205" lon="11.945513620990587"><ele>226.75</ele><time>2026-05-01T07:05:57.999Z</time></trkpt><trkpt lat="45.922058706935836" lon="11.945527244442228"><ele>227.0</ele><time>2026-05-01T07:05:58.999Z</time></trkpt><trkpt lat="45.922192076401544" lon="11.94553249365402"><ele>227.0</ele><time>2026-05-01T07:05:59.999Z</time></trkpt><trkpt lat="45.922324884081384" lon="11.945523711561478"><ele>227.0</ele><time>2026-05-01T07:06:00.999Z</time></trkpt><trkpt lat="45.92245687658148" lon="11.945499444721872"><ele>227.0</ele><time>2026-05-01T07:06:01.999Z</time></trkpt><trkpt lat="45.92258880020881" lon="11.945461436371875"><ele>227.0</ele><time>2026-05-01T07:06:02.999Z</time></trkpt><trkpt lat="45.92272179857345" lon="11.945414119468607"><ele>225.75</ele><time>2026-05-01T07:06:03.999Z</time></trkpt><trkpt lat="45.922856124405506" lon="11.945353754922955"><ele>224.5</ele><time>2026-05-01T07:06:04.999Z</time></trkpt><trkpt lat="45.92298456843786" lon="11.945283524330204"><ele>223.25</ele><time>2026-05-01T07:06:05.999Z</time></trkpt><trkpt lat="45.92311146052194" lon="11.945203964316482"><ele>222.0</ele><time>2026-05-01T07:06:06.999Z</time></trkpt><trkpt lat="45.9232318685237" lon="11.94511239531653"><ele>222.75</ele><time>2026-05-01T07:06:07.999Z</time></trkpt><trkpt lat="45.92334573193016" lon="11.945014202027961"><ele>223.5</ele><time>2026-05-01T07:06:08.999Z</time></trkpt><trkpt lat="45.92345151341619" lon="11.944909884238658"><ele>224.25</ele><time>2026-05-01T07:06:09.999Z</time></trkpt><trkpt lat="45.92355519007734" lon="11.944800355659739"><ele>225.0</ele><time>2026-05-01T07:06:10.999Z</time></trkpt><trkpt lat="45.923661479725666" lon="11.944683182282928"><ele>225.0</ele><time>2026-05-01T07:06:11.999Z</time></trkpt><trkpt lat="45.923767798551246" lon="11.94456616525247"><ele>225.0</ele><time>2026-05-01T07:06:12.999Z</time></trkpt><trkpt lat="45.923878075464266" lon="11.94444824246774"><ele>225.0</ele><time>2026-05-01T07:06:13.999Z</time></trkpt><trkpt lat="45.92398415779128" lon="11.944330680609971"><ele>225.0</ele><time>2026-05-01T07:06:14.999Z</time></trkpt><trkpt lat="45.92409363111288" lon="11.944215506548353"><ele>225.25</ele><time>2026-05-01T07:06:15.999Z</time></trkpt><trkpt lat="45.92420351378393" lon="11.944100177657273"><ele>225.5</ele><time>2026-05-01T07:06:16.999Z</time></trkpt><trkpt lat="45.92430949957762" lon="11.943984547434228"><ele>225.75</ele><time>2026-05-01T07:06:17.999Z</time></trkpt><trkpt lat="45.92441205819053" lon="11.94387101469269"><ele>226.0</ele><time>2026-05-01T07:06:18.999Z</time></trkpt><trkpt lat="45.92451968100506" lon="11.9437526058184"><ele>226.0</ele><time>2026-05-01T07:06:19.999Z</time></trkpt><trkpt lat="45.924627413697124" lon="11.943633424151995"><ele>226.0</ele><time>2026-05-01T07:06:20.999Z</time></trkpt><trkpt lat="45.924735944744995" lon="11.943506524776833"><ele>226.0</ele><time>2026-05-01T07:06:21.999Z</time></trkpt><trkpt lat="45.92484781879361" lon="11.9433882225302"><ele>226.0</ele><time>2026-05-01T07:06:22.999Z</time></trkpt><trkpt lat="45.92496419802652" lon="11.943258830062762"><ele>225.0</ele><time>2026-05-01T07:06:23.999Z</time></trkpt><trkpt lat="45.92509255865559" lon="11.943122467086113"><ele>224.0</ele><time>2026-05-01T07:06:24.999Z</time></trkpt><trkpt lat="45.925231657511794" lon="11.942964731645958"><ele>223.0</ele><time>2026-05-01T07:06:25.999Z</time></trkpt><trkpt lat="45.92537355069457" lon="11.942806019387906"><ele>223.0</ele><time>2026-05-01T07:06:26.999Z</time></trkpt><trkpt lat="45.92552346244975" lon="11.942636700905057"><ele>223.0</ele><time>2026-05-01T07:06:27.999Z</time></trkpt><trkpt lat="45.92567226975241" lon="11.942463948383178"><ele>223.0</ele><time>2026-05-01T07:06:28.999Z</time></trkpt><trkpt lat="45.925819177550395" lon="11.942282260392137"><ele>221.33333333333331</ele><time>2026-05-01T07:06:29.999Z</time></trkpt><trkpt lat="45.925962855730084" lon="11.94208750136853"><ele>219.66666666666669</ele><time>2026-05-01T07:06:30.999Z</time></trkpt><trkpt lat="45.926100753173856" lon="11.941882083572821"><ele>218.0</ele><time>2026-05-01T07:06:31.999Z</time></trkpt><trkpt lat="45.92623146180017" lon="11.941665612262767"><ele>218.0</ele><time>2026-05-01T07:06:32.999Z</time></trkpt><trkpt lat="45.92635691254607" lon="11.941442745604943"><ele>218.0</ele><time>2026-05-01T07:06:33.999Z</time></trkpt><trkpt lat="45.926476119663285" lon="11.9412146574763"><ele>218.0</ele><time>2026-05-01T07:06:34.999Z</time></trkpt><trkpt lat="45.926588532749655" lon="11.940980193550402"><ele>219.33333333333334</ele><time>2026-05-01T07:06:35.999Z</time></trkpt><trkpt lat="45.926694750590805" lon="11.940734351461035"><ele>220.66666666666669</ele><time>2026-05-01T07:06:36.999Z</time></trkpt><trkpt lat="45.9267964864374" lon="11.940489961353471"><ele>222.0</ele><time>2026-05-01T07:06:37.999Z</time></trkpt><trkpt lat="45.92688792833713" lon="11.940238861926954"><ele>219.0</ele><time>2026-05-01T07:06:39Z</time></trkpt><trkpt lat="45.92698072718902" lon="11.939987918882991"><ele>216.0</ele><time>2026-05-01T07:06:40Z</time></trkpt><trkpt lat="45.927070683838934" lon="11.939737309109034"><ele>213.0</ele><time>2026-05-01T07:06:41Z</time></trkpt><trkpt lat="45.927162601505785" lon="11.939495769779061"><ele>213.0</ele><time>2026-05-01T07:06:42Z</time></trkpt><trkpt lat="45.927254532894565" lon="11.939260834472858"><ele>213.0</ele><time>2026-05-01T07:06:43Z</time></trkpt><trkpt lat="45.92734009511799" lon="11.939021872854118"><ele>213.0</ele><time>2026-05-01T07:06:44Z</time></trkpt><trkpt lat="45.92742569830844" lon="11.938787469158571"><ele>214.0</ele><time>2026-05-01T07:06:45Z</time></trkpt><trkpt lat="45.92751189856395" lon="11.938553831875128"><ele>215.0</ele><time>2026-05-01T07:06:46Z</time></trkpt><trkpt lat="45.92760189194374" lon="11.938320725479832"><ele>216.0</ele><time>2026-05-01T07:06:47Z</time></trkpt><trkpt lat="45.92769682758665" lon="11.938094013883294"><ele>215.66666666666669</ele><time>2026-05-01T07:06:48Z</time></trkpt><trkpt lat="45.9277949801818" lon="11.93786786505201"><ele>215.33333333333334</ele><time>2026-05-01T07:06:49Z</time></trkpt><trkpt lat="45.927905914232255" lon="11.93764927327073"><ele>215.0</ele><time>2026-05-01T07:06:50Z</time></trkpt><trkpt lat="45.92802859662249" lon="11.937442840708504"><ele>215.0</ele><time>2026-05-01T07:06:51Z</time></trkpt><trkpt lat="45.92816105784852" lon="11.93724265889051"><ele>215.0</ele><time>2026-05-01T07:06:52Z</time></trkpt><trkpt lat="45.92830428907581" lon="11.937059763269074"><ele>215.0</ele><time>2026-05-01T07:06:53Z</time></trkpt><trkpt lat="45.92845666967564" lon="11.936894360280663"><ele>215.33333333333334</ele><time>2026-05-01T07:06:54Z</time></trkpt><trkpt lat="45.92861629766833" lon="11.936740488800492"><ele>215.66666666666669</ele><time>2026-05-01T07:06:55Z</time></trkpt><trkpt lat="45.92878588698253" lon="11.936606085521582"><ele>216.0</ele><time>2026-05-01T07:06:56Z</time></trkpt><trkpt lat="45.9289570666673" lon="11.936475523778752"><ele>216.0</ele><time>2026-05-01T07:06:57Z</time></trkpt><trkpt lat="45.929130440998165" lon="11.936343397671848"><ele>216.0</ele><time>2026-05-01T07:06:58Z</time></trkpt><trkpt lat="45.92930245894239" lon="11.936208029595363"><ele>216.0</ele><time>2026-05-01T07:06:59Z</time></trkpt><trkpt lat="45.929474104140695" lon="11.936071524721587"><ele>216.33333333333331</ele><time>2026-05-01T07:07:00Z</time></trkpt><trkpt lat="45.929649864499055" lon="11.935935006732352"><ele>216.66666666666666</ele><time>2026-05-01T07:07:01Z</time></trkpt><trkpt lat="45.929824469989235" lon="11.935799747352192"><ele>217.0</ele><time>2026-05-01T07:07:02Z</time></trkpt><trkpt lat="45.92999643568925" lon="11.935654621059692"><ele>216.33333333333331</ele><time>2026-05-01T07:07:03Z</time></trkpt><trkpt lat="45.9301573910316" lon="11.93549421651154"><ele>215.66666666666669</ele><time>2026-05-01T07:07:04Z</time></trkpt><trkpt lat="45.930311786377096" lon="11.93530981254208"><ele>215.0</ele><time>2026-05-01T07:07:05Z</time></trkpt><trkpt lat="45.93045676094624" lon="11.935109227250255"><ele>215.66666666666669</ele><time>2026-05-01T07:07:06Z</time></trkpt><trkpt lat="45.93059470506989" lon="11.934900237588046"><ele>216.33333333333331</ele><time>2026-05-01T07:07:07Z</time></trkpt><trkpt lat="45.930718129079615" lon="11.934674128662206"><ele>217.0</ele><time>2026-05-01T07:07:08Z</time></trkpt><trkpt lat="45.930829821694424" lon="11.934443408232319"><ele>216.33333333333331</ele><time>2026-05-01T07:07:09Z</time></trkpt><trkpt lat="45.93092912891412" lon="11.934200556736469"><ele>215.66666666666669</ele><time>2026-05-01T07:07:10Z</time></trkpt><trkpt lat="45.931022679270875" lon="11.933954467312757"><ele>215.0</ele><time>2026-05-01T07:07:11Z</time></trkpt><trkpt lat="45.93111312307291" lon="11.933706738245212"><ele>215.0</ele><time>2026-05-01T07:07:12Z</time></trkpt><trkpt lat="45.93120270476653" lon="11.933459093712383"><ele>215.0</ele><time>2026-05-01T07:07:13Z</time></trkpt><trkpt lat="45.931294148961896" lon="11.933211796798432"><ele>215.0</ele><time>2026-05-01T07:07:14Z</time></trkpt><trkpt lat="45.93138488718195" lon="11.932969369238114"><ele>215.0</ele><time>2026-05-01T07:07:15Z</time></trkpt><trkpt lat="45.93147054324079" lon="11.932727696735952"><ele>215.0</ele><time>2026-05-01T07:07:16Z</time></trkpt><trkpt lat="45.93155078973406" lon="11.932483260794466"><ele>215.0</ele><time>2026-05-01T07:07:17Z</time></trkpt><trkpt lat="45.931623888079436" lon="11.932235319015998"><ele>215.66666666666669</ele><time>2026-05-01T07:07:18Z</time></trkpt><trkpt lat="45.931692120337715" lon="11.931982817951527"><ele>216.33333333333331</ele><time>2026-05-01T07:07:19Z</time></trkpt><trkpt lat="45.931756300622794" lon="11.931726810677956"><ele>217.0</ele><time>2026-05-01T07:07:20Z</time></trkpt><trkpt lat="45.93181572629369" lon="11.93146552398239"><ele>215.66666666666666</ele><time>2026-05-01T07:07:21Z</time></trkpt><trkpt lat="45.93187321339016" lon="11.931202782249377"><ele>214.33333333333331</ele><time>2026-05-01T07:07:22Z</time></trkpt><trkpt lat="45.93192448086815" lon="11.93092845350739"><ele>213.0</ele><time>2026-05-01T07:07:23Z</time></trkpt><trkpt lat="45.9319862104625" lon="11.930635602252039"><ele>212.0</ele><time>2026-05-01T07:07:24Z</time></trkpt><trkpt lat="45.93204157800599" lon="11.93034673854769"><ele>211.0</ele><time>2026-05-01T07:07:25Z</time></trkpt><trkpt lat="45.932095862985605" lon="11.930074421911378"><ele>210.0</ele><time>2026-05-01T07:07:26Z</time></trkpt><trkpt lat="45.93215077946108" lon="11.929803921719943"><ele>210.0</ele><time>2026-05-01T07:07:27Z</time></trkpt><trkpt lat="45.932203875930476" lon="11.929531813699336"><ele>210.0</ele><time>2026-05-01T07:07:28Z</time></trkpt><trkpt lat="45.93225754403129" lon="11.929260352185965"><ele>210.0</ele><time>2026-05-01T07:07:29Z</time></trkpt><trkpt lat="45.932315000543454" lon="11.928992014761572"><ele>210.0</ele><time>2026-05-01T07:07:30Z</time></trkpt><trkpt lat="45.93238050156157" lon="11.928728446873949"><ele>210.0</ele><time>2026-05-01T07:07:31Z</time></trkpt><trkpt lat="45.93245239191678" lon="11.928464488324805"><ele>210.0</ele><time>2026-05-01T07:07:32Z</time></trkpt><trkpt lat="45.93253300885004" lon="11.92820879072251"><ele>204.66666666666669</ele><time>2026-05-01T07:07:33Z</time></trkpt><trkpt lat="45.932618529186314" lon="11.92795610921406"><ele>199.33333333333334</ele><time>2026-05-01T07:07:34Z</time></trkpt><trkpt lat="45.93271149173147" lon="11.927711480701372"><ele>194.0</ele><time>2026-05-01T07:07:35Z</time></trkpt><trkpt lat="45.93281284074173" lon="11.92747467484305"><ele>194.0</ele><time>2026-05-01T07:07:36Z</time></trkpt><trkpt lat="45.932913426310215" lon="11.92725777861742"><ele>194.0</ele><time>2026-05-01T07:07:37Z</time></trkpt><trkpt lat="45.93301607978424" lon="11.92705984176968"><ele>194.0</ele><time>2026-05-01T07:07:38Z</time></trkpt><trkpt lat="45.93311528823322" lon="11.926875011463567"><ele>190.66666666666669</ele><time>2026-05-01T07:07:39Z</time></trkpt><trkpt lat="45.93321312368642" lon="11.926699327524068"><ele>187.33333333333334</ele><time>2026-05-01T07:07:40Z</time></trkpt><trkpt lat="45.933312389191265" lon="11.926519797991025"><ele>184.0</ele><time>2026-05-01T07:07:41Z</time></trkpt><trkpt lat="45.9334103821461" lon="11.92633418367686"><ele>184.0</ele><time>2026-05-01T07:07:42Z</time></trkpt><trkpt lat="45.93350780860265" lon="11.926144906495102"><ele>184.0</ele><time>2026-05-01T07:07:43Z</time></trkpt><trkpt lat="45.9336073810172" lon="11.925958894079981"><ele>184.0</ele><time>2026-05-01T07:07:44Z</time></trkpt><trkpt lat="45.933707669917084" lon="11.925772452354026"><ele>187.0</ele><time>2026-05-01T07:07:45Z</time></trkpt><trkpt lat="45.93380885390779" lon="11.925587553490091"><ele>190.0</ele><time>2026-05-01T07:07:46Z</time></trkpt><trkpt lat="45.933911683159344" lon="11.925401163326788"><ele>193.0</ele><time>2026-05-01T07:07:47Z</time></trkpt><trkpt lat="45.93401366649098" lon="11.925209653969992"><ele>190.33333333333331</ele><time>2026-05-01T07:07:48Z</time></trkpt><trkpt lat="45.93411683636269" lon="11.925019532443352"><ele>187.66666666666666</ele><time>2026-05-01T07:07:49Z</time></trkpt><trkpt lat="45.93422094689409" lon="11.924831939826083"><ele>185.0</ele><time>2026-05-01T07:07:50Z</time></trkpt><trkpt lat="45.93432092802653" lon="11.924649873048525"><ele>185.0</ele><time>2026-05-01T07:07:51Z</time></trkpt><trkpt lat="45.93442310472886" lon="11.924467741075851"><ele>185.0</ele><time>2026-05-01T07:07:52Z</time></trkpt><trkpt lat="45.93452032306395" lon="11.924277988348267"><ele>185.0</ele><time>2026-05-01T07:07:53Z</time></trkpt><trkpt lat="45.93461901047976" lon="11.924095064946941"><ele>187.33333333333331</ele><time>2026-05-01T07:07:54Z</time></trkpt><trkpt lat="45.934721961756615" lon="11.923911474070449"><ele>189.66666666666666</ele><time>2026-05-01T07:07:55Z</time></trkpt><trkpt lat="45.93482364962685" lon="11.923728461500206"><ele>192.0</ele><time>2026-05-01T07:07:56Z</time></trkpt><trkpt lat="45.93492564377159" lon="11.923541834443068"><ele>189.0</ele><time>2026-05-01T07:07:57Z</time></trkpt><trkpt lat="45.935028735720714" lon="11.923359225096402"><ele>186.0</ele><time>2026-05-01T07:07:58Z</time></trkpt><trkpt lat="45.93513053338607" lon="11.923177234407037"><ele>183.0</ele><time>2026-05-01T07:07:59Z</time></trkpt><trkpt lat="45.93523563840785" lon="11.922996882928413"><ele>183.0</ele><time>2026-05-01T07:08:00Z</time></trkpt><trkpt lat="45.935339262704055" lon="11.922813747602568"><ele>183.0</ele><time>2026-05-01T07:08:01Z</time></trkpt><trkpt lat="45.93544254315108" lon="11.922628078152073"><ele>183.0</ele><time>2026-05-01T07:08:01.999Z</time></trkpt><trkpt lat="45.93553958662094" lon="11.922438922488807"><ele>187.33333333333331</ele><time>2026-05-01T07:08:02.999Z</time></trkpt><trkpt lat="45.93564207133099" lon="11.922253642126062"><ele>191.66666666666666</ele><time>2026-05-01T07:08:03.999Z</time></trkpt><trkpt lat="45.93574547731389" lon="11.922070206266492"><ele>196.0</ele><time>2026-05-01T07:08:04.999Z</time></trkpt><trkpt lat="45.93584792695321" lon="11.921889401386613"><ele>193.66666666666666</ele><time>2026-05-01T07:08:05.999Z</time></trkpt><trkpt lat="45.93595188306365" lon="11.921711577338211"><ele>191.33333333333331</ele><time>2026-05-01T07:08:06.999Z</time></trkpt><trkpt lat="45.93605051242903" lon="11.921528711295148"><ele>189.0</ele><time>2026-05-01T07:08:07.999Z</time></trkpt><trkpt lat="45.93615322429543" lon="11.921348811282332"><ele>189.0</ele><time>2026-05-01T07:08:08.999Z</time></trkpt><trkpt lat="45.93626602339016" lon="11.921178450497816"><ele>189.0</ele><time>2026-05-01T07:08:09.999Z</time></trkpt><trkpt lat="45.93638622979907" lon="11.921022678816032"><ele>189.0</ele><time>2026-05-01T07:08:10.999Z</time></trkpt><trkpt lat="45.93652598503898" lon="11.920903147887278"><ele>190.0</ele><time>2026-05-01T07:08:11.999Z</time></trkpt><trkpt lat="45.93666965184935" lon="11.920795394248481"><ele>191.0</ele><time>2026-05-01T07:08:12.999Z</time></trkpt><trkpt lat="45.93681086169104" lon="11.920687482009704"><ele>192.0</ele><time>2026-05-01T07:08:13.999Z</time></trkpt><trkpt lat="45.93694811977246" lon="11.920577389346791"><ele>192.0</ele><time>2026-05-01T07:08:14.999Z</time></trkpt><trkpt lat="45.93708838151034" lon="11.920466407957843"><ele>192.0</ele><time>2026-05-01T07:08:15.999Z</time></trkpt><trkpt lat="45.937235374863214" lon="11.920379793038968"><ele>192.0</ele><time>2026-05-01T07:08:16.999Z</time></trkpt><trkpt lat="45.937387549442036" lon="11.920304663637747"><ele>192.0</ele><time>2026-05-01T07:08:17.999Z</time></trkpt><trkpt lat="45.93753934623556" lon="11.920231059572394"><ele>192.0</ele><time>2026-05-01T07:08:18.999Z</time></trkpt><trkpt lat="45.937694226607306" lon="11.920167704662012"><ele>192.0</ele><time>2026-05-01T07:08:19.999Z</time></trkpt><trkpt lat="45.937849392174556" lon="11.920102850439449"><ele>195.33333333333331</ele><time>2026-05-01T07:08:20.999Z</time></trkpt><trkpt lat="45.93799766992744" lon="11.920032389454922"><ele>198.66666666666666</ele><time>2026-05-01T07:08:21.999Z</time></trkpt><trkpt lat="45.938145852841885" lon="11.919969480712856"><ele>202.0</ele><time>2026-05-01T07:08:22.999Z</time></trkpt><trkpt lat="45.93829649640989" lon="11.919909574749711"><ele>201.0</ele><time>2026-05-01T07:08:23.999Z</time></trkpt><trkpt lat="45.93845171512309" lon="11.919864950281939"><ele>200.0</ele><time>2026-05-01T07:08:24.999Z</time></trkpt><trkpt lat="45.938605903723" lon="11.919838892561087"><ele>199.0</ele><time>2026-05-01T07:08:25.999Z</time></trkpt><trkpt lat="45.938760373734134" lon="11.919818145231782"><ele>199.0</ele><time>2026-05-01T07:08:26.999Z</time></trkpt><trkpt lat="45.93892011998222" lon="11.919807132932279"><ele>199.0</ele><time>2026-05-01T07:08:27.999Z</time></trkpt><trkpt lat="45.939079264097735" lon="11.919793406102476"><ele>199.0</ele><time>2026-05-01T07:08:28.999Z</time></trkpt><trkpt lat="45.93924150594444" lon="11.91978072406838"><ele>199.0</ele><time>2026-05-01T07:08:29.999Z</time></trkpt><trkpt lat="45.93940231767338" lon="11.919765189487647"><ele>199.0</ele><time>2026-05-01T07:08:30.999Z</time></trkpt><trkpt lat="45.93956462491392" lon="11.919752256514817"><ele>199.0</ele><time>2026-05-01T07:08:31.999Z</time></trkpt><trkpt lat="45.939727889673236" lon="11.919739761071915"><ele>199.0</ele><time>2026-05-01T07:08:32.999Z</time></trkpt><trkpt lat="45.939890138310474" lon="11.91973541321814"><ele>199.0</ele><time>2026-05-01T07:08:33.999Z</time></trkpt><trkpt lat="45.94005371262223" lon="11.919743532196948"><ele>199.0</ele><time>2026-05-01T07:08:34.999Z</time></trkpt><trkpt lat="45.94021762886911" lon="11.919764562010185"><ele>200.33333333333331</ele><time>2026-05-01T07:08:35.999Z</time></trkpt><trkpt lat="45.940381393717985" lon="11.919805687321825"><ele>201.66666666666669</ele><time>2026-05-01T07:08:36.999Z</time></trkpt><trkpt lat="45.94054306275089" lon="11.919860530233606"><ele>203.0</ele><time>2026-05-01T07:08:37.999Z</time></trkpt><trkpt lat="45.94069512884218" lon="11.919933443536733"><ele>203.0</ele><time>2026-05-01T07:08:38.999Z</time></trkpt><trkpt lat="45.940849280420196" lon="11.920015158476886"><ele>203.0</ele><time>2026-05-01T07:08:39.999Z</time></trkpt><trkpt lat="45.94099497684354" lon="11.920109559560997"><ele>203.0</ele><time>2026-05-01T07:08:40.999Z</time></trkpt><trkpt lat="45.941143217644594" lon="11.920211743910794"><ele>201.33333333333334</ele><time>2026-05-01T07:08:41.999Z</time></trkpt><trkpt lat="45.941294954486324" lon="11.920316771737234"><ele>199.66666666666669</ele><time>2026-05-01T07:08:42.999Z</time></trkpt><trkpt lat="45.94144598233791" lon="11.920420557575188"><ele>198.0</ele><time>2026-05-01T07:08:43.999Z</time></trkpt><trkpt lat="45.94159266201896" lon="11.920549270107264"><ele>205.33333333333331</ele><time>2026-05-01T07:08:45Z</time></trkpt><trkpt lat="45.94174300951261" lon="11.920655736510346"><ele>212.66666666666666</ele><time>2026-05-01T07:08:46Z</time></trkpt><trkpt lat="45.94189720561334" lon="11.92076478910384"><ele>220.0</ele><time>2026-05-01T07:08:47Z</time></trkpt><trkpt lat="45.942059583224875" lon="11.920853491931595"><ele>213.33333333333331</ele><time>2026-05-01T07:08:48Z</time></trkpt><trkpt lat="45.94221254512315" lon="11.920965366397796"><ele>206.66666666666669</ele><time>2026-05-01T07:08:49Z</time></trkpt><trkpt lat="45.942363674478415" lon="11.921077093446707"><ele>200.0</ele><time>2026-05-01T07:08:50Z</time></trkpt><trkpt lat="45.94251706792976" lon="11.921188649301904"><ele>205.0</ele><time>2026-05-01T07:08:51Z</time></trkpt><trkpt lat="45.94267678466993" lon="11.921293319364576"><ele>210.0</ele><time>2026-05-01T07:08:52Z</time></trkpt><trkpt lat="45.94282602125721" lon="11.921402550397932"><ele>215.0</ele><time>2026-05-01T07:08:53Z</time></trkpt><trkpt lat="45.9429779481118" lon="11.921503408099442"><ele>215.0</ele><time>2026-05-01T07:08:54Z</time></trkpt><trkpt lat="45.94312766089344" lon="11.921593826458068"><ele>215.0</ele><time>2026-05-01T07:08:55Z</time></trkpt><trkpt lat="45.94328299117109" lon="11.921676339097258"><ele>215.0</ele><time>2026-05-01T07:08:56Z</time></trkpt><trkpt lat="45.9434413186715" lon="11.921751667421052"><ele>208.66666666666669</ele><time>2026-05-01T07:08:57Z</time></trkpt><trkpt lat="45.94360049202251" lon="11.921818312113416"><ele>202.33333333333331</ele><time>2026-05-01T07:08:58Z</time></trkpt><trkpt lat="45.94376224266065" lon="11.921869656459608"><ele>196.0</ele><time>2026-05-01T07:08:59Z</time></trkpt><trkpt lat="45.94392923082261" lon="11.921907454421582"><ele>196.0</ele><time>2026-05-01T07:09:00Z</time></trkpt><trkpt lat="45.94409388646811" lon="11.921930409521263"><ele>196.0</ele><time>2026-05-01T07:09:01Z</time></trkpt><trkpt lat="45.944259904736036" lon="11.92195597008331"><ele>196.0</ele><time>2026-05-01T07:09:02Z</time></trkpt><trkpt lat="45.94442619478518" lon="11.9219905232996"><ele>200.0</ele><time>2026-05-01T07:09:03Z</time></trkpt><trkpt lat="45.94458790968735" lon="11.922036210689235"><ele>204.0</ele><time>2026-05-01T07:09:04Z</time></trkpt><trkpt lat="45.94474866236168" lon="11.92209906813372"><ele>208.0</ele><time>2026-05-01T07:09:05Z</time></trkpt><trkpt lat="45.94490924513078" lon="11.922172999671137"><ele>206.33333333333331</ele><time>2026-05-01T07:09:06Z</time></trkpt><trkpt lat="45.94506887828444" lon="11.922244202640435"><ele>204.66666666666669</ele><time>2026-05-01T07:09:07Z</time></trkpt><trkpt lat="45.94523055634664" lon="11.922308778487162"><ele>203.0</ele><time>2026-05-01T07:09:08Z</time></trkpt><trkpt lat="45.94539021479823" lon="11.922367578957237"><ele>203.0</ele><time>2026-05-01T07:09:09Z</time></trkpt><trkpt lat="45.94555167949719" lon="11.922401318653506"><ele>203.0</ele><time>2026-05-01T07:09:10Z</time></trkpt><trkpt lat="45.94571385580352" lon="11.922412486703577"><ele>203.0</ele><time>2026-05-01T07:09:11Z</time></trkpt><trkpt lat="45.945877243023425" lon="11.922409979479777"><ele>209.0</ele><time>2026-05-01T07:09:12Z</time></trkpt><trkpt lat="45.94604309645028" lon="11.922414145002843"><ele>215.0</ele><time>2026-05-01T07:09:13Z</time></trkpt><trkpt lat="45.94621413699975" lon="11.92243501202976"><ele>221.0</ele><time>2026-05-01T07:09:14Z</time></trkpt><trkpt lat="45.946386538124635" lon="11.922469343500058"><ele>221.0</ele><time>2026-05-01T07:09:15Z</time></trkpt><trkpt lat="45.9465547098176" lon="11.922512461281261"><ele>221.0</ele><time>2026-05-01T07:09:16Z</time></trkpt><trkpt lat="45.946724400956775" lon="11.922569306546341"><ele>221.0</ele><time>2026-05-01T07:09:17Z</time></trkpt><trkpt lat="45.94689156644901" lon="11.9226351245315"><ele>215.33333333333334</ele><time>2026-05-01T07:09:18Z</time></trkpt><trkpt lat="45.94705777056541" lon="11.922696405729823"><ele>209.66666666666669</ele><time>2026-05-01T07:09:19Z</time></trkpt><trkpt lat="45.94722148852532" lon="11.922755328616075"><ele>204.0</ele><time>2026-05-01T07:09:20Z</time></trkpt><trkpt lat="45.94738373015302" lon="11.92282038560655"><ele>204.0</ele><time>2026-05-01T07:09:21Z</time></trkpt><trkpt lat="45.9475405049524" lon="11.922887345015114"><ele>204.0</ele><time>2026-05-01T07:09:22Z</time></trkpt><trkpt lat="45.947704741812174" lon="11.922953535054612"><ele>204.0</ele><time>2026-05-01T07:09:23Z</time></trkpt><trkpt lat="45.9478672201486" lon="11.923028809787187"><ele>208.66666666666669</ele><time>2026-05-01T07:09:24Z</time></trkpt><trkpt lat="45.94802500809885" lon="11.923125685568092"><ele>213.33333333333334</ele><time>2026-05-01T07:09:25Z</time></trkpt><trkpt lat="45.94817977008281" lon="11.923231806409749"><ele>218.0</ele><time>2026-05-01T07:09:26Z</time></trkpt><trkpt lat="45.948327214243164" lon="11.923352366436339"><ele>215.0</ele><time>2026-05-01T07:09:27Z</time></trkpt><trkpt lat="45.94846900696276" lon="11.923486398759248"><ele>212.0</ele><time>2026-05-01T07:09:28Z</time></trkpt><trkpt lat="45.94859501433715" lon="11.923649305918198"><ele>209.0</ele><time>2026-05-01T07:09:29Z</time></trkpt><trkpt lat="45.94873477826227" lon="11.923785702185311"><ele>209.0</ele><time>2026-05-01T07:09:30Z</time></trkpt><trkpt lat="45.948860391327926" lon="11.923939906314194"><ele>209.0</ele><time>2026-05-01T07:09:31Z</time></trkpt><trkpt lat="45.948980232527205" lon="11.92410223981928"><ele>209.0</ele><time>2026-05-01T07:09:32Z</time></trkpt><trkpt lat="45.9491070987563" lon="11.924262179081717"><ele>211.66666666666669</ele><time>2026-05-01T07:09:33Z</time></trkpt><trkpt lat="45.94923381983586" lon="11.924423927907272"><ele>214.33333333333331</ele><time>2026-05-01T07:09:34Z</time></trkpt><trkpt lat="45.94936438677402" lon="11.924582594000855"><ele>217.0</ele><time>2026-05-01T07:09:35Z</time></trkpt><trkpt lat="45.9494933393573" lon="11.92474058979864"><ele>217.0</ele><time>2026-05-01T07:09:36Z</time></trkpt><trkpt lat="45.94962282274838" lon="11.924895205316554"><ele>217.0</ele><time>2026-05-01T07:09:37Z</time></trkpt><trkpt lat="45.94975046861936" lon="11.925049971740737"><ele>217.0</ele><time>2026-05-01T07:09:38Z</time></trkpt><trkpt lat="45.94987711163695" lon="11.92520495460902"><ele>217.0</ele><time>2026-05-01T07:09:39Z</time></trkpt><trkpt lat="45.95000215583445" lon="11.925359184701984"><ele>217.0</ele><time>2026-05-01T07:09:40Z</time></trkpt><trkpt lat="45.950129490716925" lon="11.92551117376651"><ele>217.0</ele><time>2026-05-01T07:09:41Z</time></trkpt><trkpt lat="45.95026300317723" lon="11.925651379167455"><ele>217.0</ele><time>2026-05-01T07:09:42Z</time></trkpt><trkpt lat="45.950404740943306" lon="11.925782335027996"><ele>217.0</ele><time>2026-05-01T07:09:43Z</time></trkpt><trkpt lat="45.95054610935472" lon="11.925906811540264"><ele>217.0</ele><time>2026-05-01T07:09:44Z</time></trkpt><trkpt lat="45.95069571850747" lon="11.926028300751952"><ele>214.0</ele><time>2026-05-01T07:09:45Z</time></trkpt><trkpt lat="45.95084629497501" lon="11.926145344681464"><ele>211.0</ele><time>2026-05-01T07:09:46Z</time></trkpt><trkpt lat="45.95099752121811" lon="11.926256345207092"><ele>208.0</ele><time>2026-05-01T07:09:47Z</time></trkpt><trkpt lat="45.95114618596729" lon="11.926371027499728"><ele>208.0</ele><time>2026-05-01T07:09:48Z</time></trkpt><trkpt lat="45.95129355445218" lon="11.926485214268755"><ele>208.0</ele><time>2026-05-01T07:09:49Z</time></trkpt><trkpt lat="45.951441342202976" lon="11.92659853637117"><ele>208.0</ele><time>2026-05-01T07:09:50Z</time></trkpt><trkpt lat="45.95158487666625" lon="11.92671116698914"><ele>207.33333333333331</ele><time>2026-05-01T07:09:51Z</time></trkpt><trkpt lat="45.95173395413585" lon="11.926828443442938"><ele>206.66666666666669</ele><time>2026-05-01T07:09:52Z</time></trkpt><trkpt lat="45.951883280832945" lon="11.92694248290802"><ele>206.0</ele><time>2026-05-01T07:09:53Z</time></trkpt><trkpt lat="45.95202909051861" lon="11.927056290016132"><ele>206.0</ele><time>2026-05-01T07:09:54Z</time></trkpt><trkpt lat="45.95217802110104" lon="11.927177617583109"><ele>206.0</ele><time>2026-05-01T07:09:55Z</time></trkpt><trkpt lat="45.95232549217148" lon="11.927311631830117"><ele>206.0</ele><time>2026-05-01T07:09:56Z</time></trkpt><trkpt lat="45.952465619123494" lon="11.927451834284044"><ele>207.66666666666669</ele><time>2026-05-01T07:09:57Z</time></trkpt><trkpt lat="45.9526014219771" lon="11.92758962909047"><ele>209.33333333333331</ele><time>2026-05-01T07:09:58Z</time></trkpt><trkpt lat="45.95273434349452" lon="11.927734855435993"><ele>211.0</ele><time>2026-05-01T07:09:59Z</time></trkpt><trkpt lat="45.95286905429575" lon="11.927881593880565"><ele>211.0</ele><time>2026-05-01T07:10:00Z</time></trkpt><trkpt lat="45.95300557757862" lon="11.92801836202066"><ele>211.0</ele><time>2026-05-01T07:10:01Z</time></trkpt><trkpt lat="45.95314665519741" lon="11.928151278638902"><ele>211.0</ele><time>2026-05-01T07:10:02Z</time></trkpt><trkpt lat="45.953291403162204" lon="11.928282286950191"><ele>209.66666666666666</ele><time>2026-05-01T07:10:03Z</time></trkpt><trkpt lat="45.95343732803568" lon="11.928406735497079"><ele>208.33333333333331</ele><time>2026-05-01T07:10:04Z</time></trkpt><trkpt lat="45.95358854684657" lon="11.928522327703128"><ele>207.0</ele><time>2026-05-01T07:10:05Z</time></trkpt><trkpt lat="45.953741779642584" lon="11.928628139303239"><ele>207.0</ele><time>2026-05-01T07:10:06Z</time></trkpt><trkpt lat="45.953900914572515" lon="11.92873358699507"><ele>207.0</ele><time>2026-05-01T07:10:07Z</time></trkpt><trkpt lat="45.95405289234388" lon="11.928842483735906"><ele>207.0</ele><time>2026-05-01T07:10:08Z</time></trkpt><trkpt lat="45.95420703917633" lon="11.928950423002608"><ele>206.66666666666669</ele><time>2026-05-01T07:10:09Z</time></trkpt><trkpt lat="45.95436248634505" lon="11.929058490116898"><ele>206.33333333333334</ele><time>2026-05-01T07:10:10Z</time></trkpt><trkpt lat="45.95451673303351" lon="11.929167724768158"><ele>206.0</ele><time>2026-05-01T07:10:11Z</time></trkpt><trkpt lat="45.954670530929015" lon="11.929277920399498"><ele>206.0</ele><time>2026-05-01T07:10:12Z</time></trkpt><trkpt lat="45.95482357694025" lon="11.92939131465367"><ele>206.0</ele><time>2026-05-01T07:10:13Z</time></trkpt><trkpt lat="45.954974872303225" lon="11.929514624742637"><ele>206.0</ele><time>2026-05-01T07:10:14Z</time></trkpt><trkpt lat="45.955114879158046" lon="11.929665710627415"><ele>211.0</ele><time>2026-05-01T07:10:15Z</time></trkpt><trkpt lat="45.95523749982421" lon="11.929841553925012"><ele>216.0</ele><time>2026-05-01T07:10:16Z</time></trkpt><trkpt lat="45.95534996859449" lon="11.930031526313746"><ele>221.0</ele><time>2026-05-01T07:10:17Z</time></trkpt><trkpt lat="45.95544366336644" lon="11.930233104794773"><ele>221.0</ele><time>2026-05-01T07:10:18Z</time></trkpt><trkpt lat="45.95553033866959" lon="11.930443232153497"><ele>221.0</ele><time>2026-05-01T07:10:18.999Z</time></trkpt><trkpt lat="45.95561158259295" lon="11.930654228738812"><ele>221.0</ele><time>2026-05-01T07:10:19.999Z</time></trkpt><trkpt lat="45.955693730760444" lon="11.930860345843266"><ele>216.66666666666669</ele><time>2026-05-01T07:10:20.999Z</time></trkpt><trkpt lat="45.9557781416598" lon="11.931070309437906"><ele>212.33333333333331</ele><time>2026-05-01T07:10:21.999Z</time></trkpt><trkpt lat="45.955868202118815" lon="11.93127742096245"><ele>208.0</ele><time>2026-05-01T07:10:22.999Z</time></trkpt><trkpt lat="45.95596378355202" lon="11.931480406548642"><ele>210.66666666666666</ele><time>2026-05-01T07:10:23.999Z</time></trkpt><trkpt lat="45.95606622502013" lon="11.93168088272686"><ele>213.33333333333331</ele><time>2026-05-01T07:10:24.999Z</time></trkpt><trkpt lat="45.95617759509558" lon="11.931872226739749"><ele>216.0</ele><time>2026-05-01T07:10:25.999Z</time></trkpt><trkpt lat="45.95629286405845" lon="11.932057632826604"><ele>216.0</ele><time>2026-05-01T07:10:26.999Z</time></trkpt><trkpt lat="45.956411148229705" lon="11.932237929680632"><ele>216.0</ele><time>2026-05-01T07:10:27.999Z</time></trkpt><trkpt lat="45.956532981627454" lon="11.9324107272225"><ele>216.0</ele><time>2026-05-01T07:10:28.999Z</time></trkpt><trkpt lat="45.95665476552075" lon="11.932575144385595"><ele>215.66666666666669</ele><time>2026-05-01T07:10:29.999Z</time></trkpt><trkpt lat="45.95678005902402" lon="11.93273740036089"><ele>215.33333333333334</ele><time>2026-05-01T07:10:30.999Z</time></trkpt><trkpt lat="45.956907366133485" lon="11.932890810938291"><ele>215.0</ele><time>2026-05-01T07:10:31.999Z</time></trkpt><trkpt lat="45.95704065843983" lon="11.933040695023747"><ele>215.0</ele><time>2026-05-01T07:10:32.999Z</time></trkpt><trkpt lat="45.957174967309" lon="11.933182318178755"><ele>215.0</ele><time>2026-05-01T07:10:33.999Z</time></trkpt><trkpt lat="45.957323351659745" lon="11.933307718856502"><ele>215.0</ele><time>2026-05-01T07:10:34.999Z</time></trkpt><trkpt lat="45.957474696827184" lon="11.933415895874164"><ele>210.66666666666669</ele><time>2026-05-01T07:10:35.999Z</time></trkpt><trkpt lat="45.95762986628455" lon="11.933513134005157"><ele>206.33333333333331</ele><time>2026-05-01T07:10:36.999Z</time></trkpt><trkpt lat="45.95779255462968" lon="11.933598378298004"><ele>202.0</ele><time>2026-05-01T07:10:37.999Z</time></trkpt><trkpt lat="45.957948587904816" lon="11.933679164575496"><ele>202.0</ele><time>2026-05-01T07:10:38.999Z</time></trkpt><trkpt lat="45.95810885867371" lon="11.933764989040585"><ele>202.0</ele><time>2026-05-01T07:10:39.999Z</time></trkpt><trkpt lat="45.95826542314802" lon="11.933831957557118"><ele>202.0</ele><time>2026-05-01T07:10:40.999Z</time></trkpt><trkpt lat="45.95842436285239" lon="11.933888436137588"><ele>203.0</ele><time>2026-05-01T07:10:41.999Z</time></trkpt><trkpt lat="45.95858412868438" lon="11.933932965340107"><ele>204.0</ele><time>2026-05-01T07:10:42.999Z</time></trkpt><trkpt lat="45.95874196680622" lon="11.933968696146021"><ele>205.0</ele><time>2026-05-01T07:10:43.999Z</time></trkpt><trkpt lat="45.958905517063954" lon="11.933981521937666"><ele>205.0</ele><time>2026-05-01T07:10:44.999Z</time></trkpt><trkpt lat="45.95906730266765" lon="11.933991315968385"><ele>205.0</ele><time>2026-05-01T07:10:45.999Z</time></trkpt><trkpt lat="45.9592263664233" lon="11.933987741597232"><ele>205.0</ele><time>2026-05-01T07:10:46.999Z</time></trkpt><trkpt lat="45.95937293650205" lon="11.933977199984172"><ele>205.25</ele><time>2026-05-01T07:10:47.999Z</time></trkpt><trkpt lat="45.95951175566271" lon="11.933958984528342"><ele>205.5</ele><time>2026-05-01T07:10:48.999Z</time></trkpt><trkpt lat="45.959645999672496" lon="11.933931446802038"><ele>205.75</ele><time>2026-05-01T07:10:49.999Z</time></trkpt><trkpt lat="45.95976635563989" lon="11.933892548732715"><ele>206.0</ele><time>2026-05-01T07:10:51Z</time></trkpt><trkpt lat="45.959864302050455" lon="11.933882999041156"><ele>206.0</ele><time>2026-05-01T07:10:52Z</time></trkpt><trkpt lat="45.959953792785754" lon="11.933886382309888"><ele>206.0</ele><time>2026-05-01T07:10:54Z</time></trkpt><trkpt lat="45.960058511467864" lon="11.933834839554017"><ele>206.0</ele><time>2026-05-01T07:12:04Z</time></trkpt><trkpt lat="45.96018603011984" lon="11.93377511896383"><ele>206.0</ele><time>2026-05-01T07:12:06Z</time></trkpt><trkpt lat="45.96026084226684" lon="11.93375996257754"><ele>206.0</ele><time>2026-05-01T07:12:07Z</time></trkpt><trkpt lat="45.960354532085894" lon="11.933734554104587"><ele>204.5</ele><time>2026-05-01T07:12:08Z</time></trkpt><trkpt lat="45.96046479917937" lon="11.933700419928051"><ele>203.0</ele><time>2026-05-01T07:12:09Z</time></trkpt><trkpt lat="45.96057338394179" lon="11.933673470115384"><ele>201.5</ele><time>2026-05-01T07:12:10Z</time></trkpt><trkpt lat="45.960701648689565" lon="11.93363125255346"><ele>200.0</ele><time>2026-05-01T07:12:11Z</time></trkpt><trkpt lat="45.96085656977548" lon="11.933586397590856"><ele>198.0</ele><time>2026-05-01T07:12:12Z</time></trkpt><trkpt lat="45.96107556307641" lon="11.933515284512906"><ele>196.0</ele><time>2026-05-01T07:12:13Z</time></trkpt><trkpt lat="45.96129715064638" lon="11.933445496168739"><ele>196.0</ele><time>2026-05-01T07:12:14Z</time></trkpt><trkpt lat="45.961478273480154" lon="11.933401711595623"><ele>196.0</ele><time>2026-05-01T07:12:15Z</time></trkpt><trkpt lat="45.9616727081698" lon="11.933342454629486"><ele>196.0</ele><time>2026-05-01T07:12:16Z</time></trkpt><trkpt lat="45.96186729956992" lon="11.933282313461621"><ele>198.33333333333331</ele><time>2026-05-01T07:12:17Z</time></trkpt><trkpt lat="45.96207769592224" lon="11.9332190332939"><ele>200.66666666666669</ele><time>2026-05-01T07:12:18Z</time></trkpt><trkpt lat="45.96229474215374" lon="11.933151755088264"><ele>203.0</ele><time>2026-05-01T07:12:19Z</time></trkpt><trkpt lat="45.96248063042863" lon="11.933093424007023"><ele>200.66666666666669</ele><time>2026-05-01T07:12:20Z</time></trkpt><trkpt lat="45.96264707541989" lon="11.933036708371828"><ele>198.33333333333331</ele><time>2026-05-01T07:12:21Z</time></trkpt><trkpt lat="45.96278263135526" lon="11.932980204965247"><ele>196.0</ele><time>2026-05-01T07:12:22Z</time></trkpt><trkpt lat="45.96291827778966" lon="11.932922712700046"><ele>196.0</ele><time>2026-05-01T07:12:23Z</time></trkpt><trkpt lat="45.963048991306096" lon="11.932866527216195"><ele>196.0</ele><time>2026-05-01T07:12:24Z</time></trkpt><trkpt lat="45.96318092404747" lon="11.932806702138585"><ele>196.0</ele><time>2026-05-01T07:12:25Z</time></trkpt><trkpt lat="45.96331330160232" lon="11.932740440094081"><ele>196.0</ele><time>2026-05-01T07:12:26Z</time></trkpt><trkpt lat="45.96345001110933" lon="11.93267490364407"><ele>195.75</ele><time>2026-05-01T07:12:27Z</time></trkpt><trkpt lat="45.963584664764156" lon="11.932596126935302"><ele>195.5</ele><time>2026-05-01T07:12:28Z</time></trkpt><trkpt lat="45.963717249191376" lon="11.932515557914579"><ele>195.25</ele><time>2026-05-01T07:12:29Z</time></trkpt><trkpt lat="45.963848522808654" lon="11.932443107150082"><ele>195.0</ele><time>2026-05-01T07:12:29.999Z</time></trkpt><trkpt lat="45.96398710212493" lon="11.932372629319248"><ele>196.0</ele><time>2026-05-01T07:12:30.999Z</time></trkpt><trkpt lat="45.96412854869123" lon="11.932292409551335"><ele>197.0</ele><time>2026-05-01T07:12:31.999Z</time></trkpt><trkpt lat="45.96426813524066" lon="11.932209412236991"><ele>198.0</ele><time>2026-05-01T07:12:32.999Z</time></trkpt><trkpt lat="45.964411339890184" lon="11.932127388168121"><ele>198.0</ele><time>2026-05-01T07:12:33.999Z</time></trkpt><trkpt lat="45.964550105122434" lon="11.932048986348475"><ele>198.0</ele><time>2026-05-01T07:12:34.999Z</time></trkpt><trkpt lat="45.96468686228686" lon="11.931981899438124"><ele>198.0</ele><time>2026-05-01T07:12:35.999Z</time></trkpt><trkpt lat="45.964829757429435" lon="11.931941649196652"><ele>198.0</ele><time>2026-05-01T07:12:36.999Z</time></trkpt><trkpt lat="45.96497483246891" lon="11.931924744815223"><ele>199.0</ele><time>2026-05-01T07:12:37.999Z</time></trkpt><trkpt lat="45.965128507993086" lon="11.931925295040259"><ele>200.0</ele><time>2026-05-01T07:12:38.999Z</time></trkpt><trkpt lat="45.96528399969219" lon="11.931950153733302"><ele>201.0</ele><time>2026-05-01T07:12:39.999Z</time></trkpt><trkpt lat="45.9654357538361" lon="11.932000468448665"><ele>201.0</ele><time>2026-05-01T07:12:40.999Z</time></trkpt><trkpt lat="45.96558345852021" lon="11.932102429883004"><ele>201.0</ele><time>2026-05-01T07:12:41.999Z</time></trkpt><trkpt lat="45.965737336837904" lon="11.932168934236765"><ele>201.0</ele><time>2026-05-01T07:12:42.999Z</time></trkpt><trkpt lat="45.96588034684295" lon="11.932269937031434"><ele>203.0</ele><time>2026-05-01T07:12:43.999Z</time></trkpt><trkpt lat="45.966024342426834" lon="11.932360607039131"><ele>205.0</ele><time>2026-05-01T07:12:44.999Z</time></trkpt><trkpt lat="45.96616593840687" lon="11.932452393596417"><ele>207.0</ele><time>2026-05-01T07:12:45.999Z</time></trkpt><trkpt lat="45.966316063074686" lon="11.93254437400179"><ele>205.66666666666669</ele><time>2026-05-01T07:12:46.999Z</time></trkpt><trkpt lat="45.96646146389521" lon="11.932634253839282"><ele>204.33333333333334</ele><time>2026-05-01T07:12:47.999Z</time></trkpt><trkpt lat="45.96660776989782" lon="11.932720243906747"><ele>203.0</ele><time>2026-05-01T07:12:48.999Z</time></trkpt><trkpt lat="45.96674622439068" lon="11.93282163139778"><ele>203.0</ele><time>2026-05-01T07:12:49.999Z</time></trkpt><trkpt lat="45.96688843325326" lon="11.932895736489073"><ele>203.0</ele><time>2026-05-01T07:12:50.999Z</time></trkpt><trkpt lat="45.96703371907855" lon="11.932968148054883"><ele>203.0</ele><time>2026-05-01T07:12:51.999Z</time></trkpt><trkpt lat="45.967179156643695" lon="11.933016091872416"><ele>203.0</ele><time>2026-05-01T07:12:52.999Z</time></trkpt><trkpt lat="45.96732325882006" lon="11.933088018035134"><ele>203.0</ele><time>2026-05-01T07:12:53.999Z</time></trkpt><trkpt lat="45.967461099835205" lon="11.933160045014985"><ele>203.0</ele><time>2026-05-01T07:12:54.999Z</time></trkpt><trkpt lat="45.96760391872492" lon="11.933226717429886"><ele>203.0</ele><time>2026-05-01T07:12:55.999Z</time></trkpt><trkpt lat="45.96775192253157" lon="11.93328205577609"><ele>206.0</ele><time>2026-05-01T07:12:57Z</time></trkpt><trkpt lat="45.96789903149811" lon="11.933326111782181"><ele>209.0</ele><time>2026-05-01T07:12:58Z</time></trkpt><trkpt lat="45.96804783643173" lon="11.933359694784587"><ele>212.0</ele><time>2026-05-01T07:12:59Z</time></trkpt><trkpt lat="45.96819992085525" lon="11.933382997887348"><ele>210.33333333333334</ele><time>2026-05-01T07:13:00Z</time></trkpt><trkpt lat="45.96835181312052" lon="11.9333931892436"><ele>208.66666666666669</ele><time>2026-05-01T07:13:01Z</time></trkpt><trkpt lat="45.96850686968828" lon="11.933389415838175"><ele>207.0</ele><time>2026-05-01T07:13:02Z</time></trkpt><trkpt lat="45.968664006334315" lon="11.933378990390043"><ele>207.0</ele><time>2026-05-01T07:13:03Z</time></trkpt><trkpt lat="45.96881723384206" lon="11.933366389956618"><ele>207.0</ele><time>2026-05-01T07:13:04Z</time></trkpt><trkpt lat="45.96897011924581" lon="11.933354132553362"><ele>207.0</ele><time>2026-05-01T07:13:05Z</time></trkpt><trkpt lat="45.96912020712974" lon="11.933341911569448"><ele>206.25</ele><time>2026-05-01T07:13:06Z</time></trkpt><trkpt lat="45.96926844545747" lon="11.93332963396256"><ele>205.5</ele><time>2026-05-01T07:13:07Z</time></trkpt><trkpt lat="45.96940139604823" lon="11.933325480194627"><ele>204.75</ele><time>2026-05-01T07:13:08Z</time></trkpt><trkpt lat="45.96954199315306" lon="11.933315242363367"><ele>204.0</ele><time>2026-05-01T07:13:09Z</time></trkpt><trkpt lat="45.969679318237915" lon="11.933313405887816"><ele>204.0</ele><time>2026-05-01T07:13:10Z</time></trkpt><trkpt lat="45.96982278604799" lon="11.933315950624317"><ele>204.0</ele><time>2026-05-01T07:13:11Z</time></trkpt><trkpt lat="45.96996178622357" lon="11.933327618709889"><ele>204.0</ele><time>2026-05-01T07:13:12Z</time></trkpt><trkpt lat="45.9700980683781" lon="11.933350721303235"><ele>204.0</ele><time>2026-05-01T07:13:13Z</time></trkpt><trkpt lat="45.9702366223974" lon="11.933385936866904"><ele>203.0</ele><time>2026-05-01T07:13:14Z</time></trkpt><trkpt lat="45.97037504077544" lon="11.933438798373144"><ele>202.0</ele><time>2026-05-01T07:13:15Z</time></trkpt><trkpt lat="45.97051348688991" lon="11.933503768688544"><ele>201.0</ele><time>2026-05-01T07:13:16Z</time></trkpt><trkpt lat="45.970634843668456" lon="11.93361090865463"><ele>200.0</ele><time>2026-05-01T07:13:17Z</time></trkpt><trkpt lat="45.970753590492386" lon="11.933704567473765"><ele>202.75</ele><time>2026-05-01T07:13:18Z</time></trkpt><trkpt lat="45.97087703868022" lon="11.933786643860063"><ele>205.5</ele><time>2026-05-01T07:13:19Z</time></trkpt><trkpt lat="45.97098562762919" lon="11.933902791060058"><ele>208.25</ele><time>2026-05-01T07:13:20Z</time></trkpt><trkpt lat="45.97110160720481" lon="11.934016134332047"><ele>211.0</ele><time>2026-05-01T07:13:21Z</time></trkpt><trkpt lat="45.9712162268835" lon="11.934134808279609"><ele>209.5</ele><time>2026-05-01T07:13:22Z</time></trkpt><trkpt lat="45.971333669315946" lon="11.934257708660336"><ele>208.0</ele><time>2026-05-01T07:13:23Z</time></trkpt><trkpt lat="45.97144503132229" lon="11.93438529723131"><ele>206.5</ele><time>2026-05-01T07:13:24Z</time></trkpt><trkpt lat="45.971550642505335" lon="11.934515230618072"><ele>205.0</ele><time>2026-05-01T07:13:25Z</time></trkpt><trkpt lat="45.971652346221155" lon="11.934650351213737"><ele>206.25</ele><time>2026-05-01T07:13:26Z</time></trkpt><trkpt lat="45.97175289314845" lon="11.934792794093545"><ele>207.5</ele><time>2026-05-01T07:13:27Z</time></trkpt><trkpt lat="45.971852336998694" lon="11.934937913004074"><ele>208.75</ele><time>2026-05-01T07:13:28Z</time></trkpt><trkpt lat="45.97195270849074" lon="11.935085791304093"><ele>210.0</ele><time>2026-05-01T07:13:29Z</time></trkpt><trkpt lat="45.97205327735344" lon="11.935232802871004"><ele>210.0</ele><time>2026-05-01T07:13:30Z</time></trkpt><trkpt lat="45.97213596737319" lon="11.935400256279665"><ele>210.0</ele><time>2026-05-01T07:13:31Z</time></trkpt><trkpt lat="45.97222969813398" lon="11.935557086512645"><ele>210.0</ele><time>2026-05-01T07:13:32Z</time></trkpt><trkpt lat="45.972318439239245" lon="11.93572244101261"><ele>210.0</ele><time>2026-05-01T07:13:33Z</time></trkpt><trkpt lat="45.97241220574977" lon="11.935881139167051"><ele>210.5</ele><time>2026-05-01T07:13:34Z</time></trkpt><trkpt lat="45.972517988234515" lon="11.936028185196538"><ele>211.0</ele><time>2026-05-01T07:13:35Z</time></trkpt><trkpt lat="45.97262670184201" lon="11.936173281324805"><ele>211.5</ele><time>2026-05-01T07:13:36Z</time></trkpt><trkpt lat="45.97273518295061" lon="11.9363192978598"><ele>212.0</ele><time>2026-05-01T07:13:37Z</time></trkpt><trkpt lat="45.972847232339234" lon="11.936468746476315"><ele>212.0</ele><time>2026-05-01T07:13:38Z</time></trkpt><trkpt lat="45.972957968403946" lon="11.93660902226483"><ele>212.0</ele><time>2026-05-01T07:13:39Z</time></trkpt><trkpt lat="45.973091705324315" lon="11.936712099286805"><ele>212.0</ele><time>2026-05-01T07:13:40Z</time></trkpt><trkpt lat="45.973231476713245" lon="11.936811136089078"><ele>210.33333333333334</ele><time>2026-05-01T07:13:41Z</time></trkpt><trkpt lat="45.97338873195403" lon="11.936895681474196"><ele>208.66666666666669</ele><time>2026-05-01T07:13:42Z</time></trkpt><trkpt lat="45.973556681354836" lon="11.936976380275024"><ele>207.0</ele><time>2026-05-01T07:13:43Z</time></trkpt><trkpt lat="45.97373373056341" lon="11.937062460392386"><ele>207.0</ele><time>2026-05-01T07:13:44Z</time></trkpt><trkpt lat="45.97392069797587" lon="11.937158372557919"><ele>207.0</ele><time>2026-05-01T07:13:45Z</time></trkpt><trkpt lat="45.97411120468438" lon="11.937254309735385"><ele>207.0</ele><time>2026-05-01T07:13:46Z</time></trkpt><trkpt lat="45.97429298811624" lon="11.937342869855689"><ele>207.0</ele><time>2026-05-01T07:13:47Z</time></trkpt><trkpt lat="45.97448340637746" lon="11.93743931211502"><ele>207.0</ele><time>2026-05-01T07:13:48Z</time></trkpt><trkpt lat="45.97466804845356" lon="11.937534357448213"><ele>207.0</ele><time>2026-05-01T07:13:49Z</time></trkpt><trkpt lat="45.97484787776959" lon="11.937622868174582"><ele>210.0</ele><time>2026-05-01T07:13:50Z</time></trkpt><trkpt lat="45.97502797803777" lon="11.93771539995003"><ele>213.0</ele><time>2026-05-01T07:13:51Z</time></trkpt><trkpt lat="45.975198597765036" lon="11.93783727955383"><ele>216.0</ele><time>2026-05-01T07:13:52Z</time></trkpt><trkpt lat="45.97536640732665" lon="11.937951481298295"><ele>216.0</ele><time>2026-05-01T07:13:53Z</time></trkpt><trkpt lat="45.975522659925424" lon="11.938106384898434"><ele>216.0</ele><time>2026-05-01T07:13:54Z</time></trkpt><trkpt lat="45.975666157675555" lon="11.938297276514982"><ele>216.0</ele><time>2026-05-01T07:13:55Z</time></trkpt><trkpt lat="45.97581001621018" lon="11.93850200527693"><ele>213.33333333333331</ele><time>2026-05-01T07:13:56Z</time></trkpt><trkpt lat="45.97595328678332" lon="11.93870918926061"><ele>210.66666666666666</ele><time>2026-05-01T07:13:57Z</time></trkpt><trkpt lat="45.97609731703327" lon="11.938918703369476"><ele>208.0</ele><time>2026-05-01T07:13:58Z</time></trkpt><trkpt lat="45.97624097350697" lon="11.939127420335653"><ele>207.0</ele><time>2026-05-01T07:13:59Z</time></trkpt><trkpt lat="45.976385006888954" lon="11.939336684798878"><ele>206.0</ele><time>2026-05-01T07:14:00Z</time></trkpt><trkpt lat="45.97653011520535" lon="11.939547511025808"><ele>205.0</ele><time>2026-05-01T07:14:01Z</time></trkpt><trkpt lat="45.97667617498829" lon="11.939759719621977"><ele>205.33333333333331</ele><time>2026-05-01T07:14:02Z</time></trkpt><trkpt lat="45.97682289746813" lon="11.93997240015709"><ele>205.66666666666669</ele><time>2026-05-01T07:14:03Z</time></trkpt><trkpt lat="45.976970245564324" lon="11.940184402882547"><ele>206.0</ele><time>2026-05-01T07:14:04Z</time></trkpt><trkpt lat="45.97711792671871" lon="11.940395516857999"><ele>206.0</ele><time>2026-05-01T07:14:05Z</time></trkpt><trkpt lat="45.97726431225277" lon="11.940603960016213"><ele>206.0</ele><time>2026-05-01T07:14:06Z</time></trkpt><trkpt lat="45.97740610149258" lon="11.940808737850833"><ele>206.0</ele><time>2026-05-01T07:14:07Z</time></trkpt><trkpt lat="45.97754481094064" lon="11.941010021634412"><ele>208.66666666666669</ele><time>2026-05-01T07:14:08Z</time></trkpt><trkpt lat="45.97767484707868" lon="11.941198767893615"><ele>211.33333333333331</ele><time>2026-05-01T07:14:09Z</time></trkpt><trkpt lat="45.977809606087575" lon="11.941360339360797"><ele>214.0</ele><time>2026-05-01T07:14:10Z</time></trkpt><trkpt lat="45.97792778898764" lon="11.941533081445925"><ele>214.0</ele><time>2026-05-01T07:14:11Z</time></trkpt><trkpt lat="45.97804681479453" lon="11.941705204867933"><ele>214.0</ele><time>2026-05-01T07:14:12Z</time></trkpt><trkpt lat="45.978167025055335" lon="11.941875601750873"><ele>214.0</ele><time>2026-05-01T07:14:13Z</time></trkpt><trkpt lat="45.97828559831434" lon="11.942045850301387"><ele>213.0</ele><time>2026-05-01T07:14:14Z</time></trkpt><trkpt lat="45.978403936113075" lon="11.942219226025962"><ele>212.0</ele><time>2026-05-01T07:14:15Z</time></trkpt><trkpt lat="45.978524462161936" lon="11.942393406695702"><ele>211.0</ele><time>2026-05-01T07:14:16Z</time></trkpt><trkpt lat="45.97864394109605" lon="11.942566471623552"><ele>211.0</ele><time>2026-05-01T07:14:17Z</time></trkpt><trkpt lat="45.97876622751823" lon="11.942739822091152"><ele>211.0</ele><time>2026-05-01T07:14:18Z</time></trkpt><trkpt lat="45.978885934123866" lon="11.942913239437457"><ele>211.0</ele><time>2026-05-01T07:14:19Z</time></trkpt><trkpt lat="45.97900519498143" lon="11.943086533503461"><ele>211.0</ele><time>2026-05-01T07:14:20Z</time></trkpt><trkpt lat="45.979124032699005" lon="11.943259375637323"><ele>211.0</ele><time>2026-05-01T07:14:21Z</time></trkpt><trkpt lat="45.97924232569078" lon="11.94343095298481"><ele>211.0</ele><time>2026-05-01T07:14:22Z</time></trkpt><trkpt lat="45.97935985672465" lon="11.94360240426406"><ele>211.66666666666666</ele><time>2026-05-01T07:14:23Z</time></trkpt><trkpt lat="45.9794807200357" lon="11.943776490470471"><ele>212.33333333333331</ele><time>2026-05-01T07:14:24Z</time></trkpt><trkpt lat="45.97960025186813" lon="11.94395023656377"><ele>213.0</ele><time>2026-05-01T07:14:24.999Z</time></trkpt><trkpt lat="45.979713222237564" lon="11.944114221098149"><ele>210.33333333333331</ele><time>2026-05-01T07:14:25.999Z</time></trkpt><trkpt lat="45.97982571902291" lon="11.944278179945636"><ele>207.66666666666666</ele><time>2026-05-01T07:14:26.999Z</time></trkpt><trkpt lat="45.97994147237566" lon="11.944445404487334"><ele>205.0</ele><time>2026-05-01T07:14:27.999Z</time></trkpt><trkpt lat="45.980057912040806" lon="11.944615683921628"><ele>207.0</ele><time>2026-05-01T07:14:28.999Z</time></trkpt><trkpt lat="45.980176134633986" lon="11.944788685465085"><ele>209.0</ele><time>2026-05-01T07:14:29.999Z</time></trkpt><trkpt lat="45.98029276940758" lon="11.94495765278323"><ele>211.0</ele><time>2026-05-01T07:14:30.999Z</time></trkpt><trkpt lat="45.980410174542506" lon="11.945126710130932"><ele>211.0</ele><time>2026-05-01T07:14:31.999Z</time></trkpt><trkpt lat="45.98052749134675" lon="11.945299001904969"><ele>211.0</ele><time>2026-05-01T07:14:32.999Z</time></trkpt><trkpt lat="45.9806419398226" lon="11.945473441886728"><ele>211.0</ele><time>2026-05-01T07:14:33.999Z</time></trkpt><trkpt lat="45.98075732969517" lon="11.9456543586216"><ele>216.33333333333331</ele><time>2026-05-01T07:14:34.999Z</time></trkpt><trkpt lat="45.98087211725787" lon="11.94583741916038"><ele>221.66666666666669</ele><time>2026-05-01T07:14:35.999Z</time></trkpt><trkpt lat="45.98098166501158" lon="11.946025830180892"><ele>227.0</ele><time>2026-05-01T07:14:36.999Z</time></trkpt><trkpt lat="45.98107367871863" lon="11.946236414493445"><ele>227.0</ele><time>2026-05-01T07:14:37.999Z</time></trkpt><trkpt lat="45.981177178421035" lon="11.946439655489213"><ele>227.0</ele><time>2026-05-01T07:14:38.999Z</time></trkpt><trkpt lat="45.98127677515181" lon="11.94664569571671"><ele>227.0</ele><time>2026-05-01T07:14:39.999Z</time></trkpt><trkpt lat="45.98136942626122" lon="11.946858269788823"><ele>223.0</ele><time>2026-05-01T07:14:40.999Z</time></trkpt><trkpt lat="45.98145531395015" lon="11.94707545474817"><ele>219.0</ele><time>2026-05-01T07:14:41.999Z</time></trkpt><trkpt lat="45.98153635670744" lon="11.947295514599059"><ele>215.0</ele><time>2026-05-01T07:14:42.999Z</time></trkpt><trkpt lat="45.981617136116746" lon="11.947517918044928"><ele>224.0</ele><time>2026-05-01T07:14:43.999Z</time></trkpt><trkpt lat="45.98169536965472" lon="11.947736810653328"><ele>233.0</ele><time>2026-05-01T07:14:44.999Z</time></trkpt><trkpt lat="45.98177274421332" lon="11.947955909849016"><ele>242.0</ele><time>2026-05-01T07:14:45.999Z</time></trkpt><trkpt lat="45.98185064389538" lon="11.948176496312517"><ele>237.0</ele><time>2026-05-01T07:14:46.999Z</time></trkpt><trkpt lat="45.98192896633987" lon="11.948397831744082"><ele>232.0</ele><time>2026-05-01T07:14:47.999Z</time></trkpt><trkpt lat="45.98200668996147" lon="11.948617473788822"><ele>227.0</ele><time>2026-05-01T07:14:48.999Z</time></trkpt><trkpt lat="45.98208387875406" lon="11.948835625820893"><ele>227.0</ele><time>2026-05-01T07:14:49.999Z</time></trkpt><trkpt lat="45.982160157022044" lon="11.949052928335908"><ele>227.0</ele><time>2026-05-01T07:14:50.999Z</time></trkpt><trkpt lat="45.98223534658271" lon="11.949267294262581"><ele>227.0</ele><time>2026-05-01T07:14:51.999Z</time></trkpt><trkpt lat="45.982308442784465" lon="11.949476424141203"><ele>229.0</ele><time>2026-05-01T07:14:52.999Z</time></trkpt><trkpt lat="45.982383488349406" lon="11.949690786288187"><ele>231.0</ele><time>2026-05-01T07:14:53.999Z</time></trkpt><trkpt lat="45.98246085183854" lon="11.94990774975032"><ele>233.0</ele><time>2026-05-01T07:14:54.999Z</time></trkpt><trkpt lat="45.98254386170801" lon="11.95012545032603"><ele>233.0</ele><time>2026-05-01T07:14:55.999Z</time></trkpt><trkpt lat="45.98263892905337" lon="11.950340121057584"><ele>233.0</ele><time>2026-05-01T07:14:56.999Z</time></trkpt><trkpt lat="45.982746280801884" lon="11.950550715469241"><ele>233.0</ele><time>2026-05-01T07:14:57.999Z</time></trkpt><trkpt lat="45.982861891893705" lon="11.950761197753858"><ele>226.0</ele><time>2026-05-01T07:14:58.999Z</time></trkpt><trkpt lat="45.98298081481915" lon="11.950968919226364"><ele>219.0</ele><time>2026-05-01T07:14:59.999Z</time></trkpt><trkpt lat="45.983109179472166" lon="11.951141037798338"><ele>212.0</ele><time>2026-05-01T07:15:00.999Z</time></trkpt><trkpt lat="45.983219309062676" lon="11.951340592656805"><ele>212.66666666666669</ele><time>2026-05-01T07:15:01.999Z</time></trkpt><trkpt lat="45.98335320570812" lon="11.951517422796659"><ele>213.33333333333331</ele><time>2026-05-01T07:15:03Z</time></trkpt><trkpt lat="45.98349927117795" lon="11.951699361778317"><ele>214.0</ele><time>2026-05-01T07:15:04Z</time></trkpt><trkpt lat="45.98365248351707" lon="11.951885912242263"><ele>214.0</ele><time>2026-05-01T07:15:05Z</time></trkpt><trkpt lat="45.983800586960406" lon="11.952066214090717"><ele>214.0</ele><time>2026-05-01T07:15:06Z</time></trkpt><trkpt lat="45.98393876310248" lon="11.952232838402107"><ele>214.0</ele><time>2026-05-01T07:15:07Z</time></trkpt><trkpt lat="45.984075556112266" lon="11.952396470273165"><ele>214.0</ele><time>2026-05-01T07:15:08Z</time></trkpt><trkpt lat="45.98421707492545" lon="11.952539710390836"><ele>214.0</ele><time>2026-05-01T07:15:09Z</time></trkpt><trkpt lat="45.98434732098845" lon="11.952696175520293"><ele>214.0</ele><time>2026-05-01T07:15:10Z</time></trkpt><trkpt lat="45.98446792364707" lon="11.952841298761959"><ele>214.0</ele><time>2026-05-01T07:15:11Z</time></trkpt><trkpt lat="45.98458762822773" lon="11.95298461510682"><ele>214.0</ele><time>2026-05-01T07:15:12Z</time></trkpt><trkpt lat="45.98470822575601" lon="11.953123231576255"><ele>214.0</ele><time>2026-05-01T07:15:13Z</time></trkpt><trkpt lat="45.98483432424433" lon="11.953242587233072"><ele>214.0</ele><time>2026-05-01T07:15:14Z</time></trkpt><trkpt lat="45.98498168411392" lon="11.95332589579709"><ele>214.0</ele><time>2026-05-01T07:15:15Z</time></trkpt><trkpt lat="45.985139973261916" lon="11.953382609054138"><ele>214.0</ele><time>2026-05-01T07:15:16Z</time></trkpt><trkpt lat="45.98530544932104" lon="11.9534199178071"><ele>212.66666666666666</ele><time>2026-05-01T07:15:17Z</time></trkpt><trkpt lat="45.98548163795487" lon="11.95344461429923"><ele>211.33333333333331</ele><time>2026-05-01T07:15:18Z</time></trkpt><trkpt lat="45.98566048922332" lon="11.95346057634507"><ele>210.0</ele><time>2026-05-01T07:15:19Z</time></trkpt><trkpt lat="45.98584938693158" lon="11.953480728851208"><ele>210.0</ele><time>2026-05-01T07:15:20Z</time></trkpt><trkpt lat="45.9860507025701" lon="11.953486552211531"><ele>210.0</ele><time>2026-05-01T07:15:21Z</time></trkpt><trkpt lat="45.98625295146612" lon="11.953481615183897"><ele>210.0</ele><time>2026-05-01T07:15:22Z</time></trkpt><trkpt lat="45.986443764200004" lon="11.953472801504452"><ele>210.0</ele><time>2026-05-01T07:15:23Z</time></trkpt><trkpt lat="45.98661870993812" lon="11.953472461446005"><ele>210.0</ele><time>2026-05-01T07:15:24Z</time></trkpt><trkpt lat="45.98678131735274" lon="11.953505216532943"><ele>210.0</ele><time>2026-05-01T07:15:25Z</time></trkpt><trkpt lat="45.986932156831124" lon="11.953572760883132"><ele>210.33333333333331</ele><time>2026-05-01T07:15:26Z</time></trkpt><trkpt lat="45.987082490694" lon="11.953661515868362"><ele>210.66666666666666</ele><time>2026-05-01T07:15:27Z</time></trkpt><trkpt lat="45.9872300115838" lon="11.953760255320303"><ele>211.0</ele><time>2026-05-01T07:15:28Z</time></trkpt><trkpt lat="45.987373599534095" lon="11.953851231171525"><ele>212.33333333333331</ele><time>2026-05-01T07:15:29Z</time></trkpt><trkpt lat="45.987522870008306" lon="11.953926935133303"><ele>213.66666666666669</ele><time>2026-05-01T07:15:30Z</time></trkpt><trkpt lat="45.9876864010133" lon="11.953971108439363"><ele>215.0</ele><time>2026-05-01T07:15:31Z</time></trkpt><trkpt lat="45.98784983602232" lon="11.953996253466288"><ele>215.0</ele><time>2026-05-01T07:15:32Z</time></trkpt><trkpt lat="45.988022984304074" lon="11.95399234124759"><ele>215.0</ele><time>2026-05-01T07:15:33Z</time></trkpt><trkpt lat="45.9881960639918" lon="11.953986767400533"><ele>215.0</ele><time>2026-05-01T07:15:34Z</time></trkpt><trkpt lat="45.98837045675157" lon="11.953975205176347"><ele>214.0</ele><time>2026-05-01T07:15:35Z</time></trkpt><trkpt lat="45.988531069488076" lon="11.953962339285821"><ele>213.0</ele><time>2026-05-01T07:15:36Z</time></trkpt><trkpt lat="45.988684118534565" lon="11.95393660647682"><ele>212.0</ele><time>2026-05-01T07:15:37Z</time></trkpt><trkpt lat="45.98883730139704" lon="11.953884110607286"><ele>212.0</ele><time>2026-05-01T07:15:38Z</time></trkpt><trkpt lat="45.988990457984585" lon="11.953808118757724"><ele>212.0</ele><time>2026-05-01T07:15:39Z</time></trkpt><trkpt lat="45.989142103596166" lon="11.953717850389713"><ele>212.0</ele><time>2026-05-01T07:15:40Z</time></trkpt><trkpt lat="45.98928813651518" lon="11.953613923958887"><ele>211.66666666666669</ele><time>2026-05-01T07:15:41Z</time></trkpt><trkpt lat="45.98944069439295" lon="11.953515766966463"><ele>211.33333333333331</ele><time>2026-05-01T07:15:42Z</time></trkpt><trkpt lat="45.98960089132329" lon="11.953415116413604"><ele>211.0</ele><time>2026-05-01T07:15:43Z</time></trkpt><trkpt lat="45.989757017985404" lon="11.953336256999858"><ele>213.0</ele><time>2026-05-01T07:15:44Z</time></trkpt><trkpt lat="45.98990255194152" lon="11.953276446586875"><ele>215.0</ele><time>2026-05-01T07:15:45Z</time></trkpt><trkpt lat="45.990056642912194" lon="11.953233142985624"><ele>217.0</ele><time>2026-05-01T07:15:46Z</time></trkpt><trkpt lat="45.990221144352624" lon="11.95320295003559"><ele>217.0</ele><time>2026-05-01T07:15:47Z</time></trkpt><trkpt lat="45.99038926905467" lon="11.953178121951765"><ele>217.0</ele><time>2026-05-01T07:15:48Z</time></trkpt><trkpt lat="45.990552579331926" lon="11.953154293044003"><ele>217.0</ele><time>2026-05-01T07:15:49Z</time></trkpt><trkpt lat="45.99071759416366" lon="11.953126710186693"><ele>216.0</ele><time>2026-05-01T07:15:50Z</time></trkpt><trkpt lat="45.990880230231205" lon="11.953079681286303"><ele>215.0</ele><time>2026-05-01T07:15:51Z</time></trkpt><trkpt lat="45.99104094799296" lon="11.952998051874305"><ele>214.0</ele><time>2026-05-01T07:15:52Z</time></trkpt><trkpt lat="45.99121721305381" lon="11.952890563927651"><ele>214.0</ele><time>2026-05-01T07:15:53Z</time></trkpt><trkpt lat="45.99140818660669" lon="11.952770660844232"><ele>214.0</ele><time>2026-05-01T07:15:54Z</time></trkpt><trkpt lat="45.99160031842559" lon="11.952645582657043"><ele>214.0</ele><time>2026-05-01T07:15:55Z</time></trkpt><trkpt lat="45.99177985986374" lon="11.952523826613847"><ele>215.0</ele><time>2026-05-01T07:15:56Z</time></trkpt><trkpt lat="45.99196682287646" lon="11.952395731317935"><ele>216.0</ele><time>2026-05-01T07:15:57Z</time></trkpt><trkpt lat="45.99213444213553" lon="11.952271041293526"><ele>217.0</ele><time>2026-05-01T07:15:58Z</time></trkpt><trkpt lat="45.99229119670494" lon="11.952134813568014"><ele>217.0</ele><time>2026-05-01T07:15:59Z</time></trkpt><trkpt lat="45.99244705003654" lon="11.951987004381214"><ele>217.0</ele><time>2026-05-01T07:16:00Z</time></trkpt><trkpt lat="45.992597467892175" lon="11.951835489171446"><ele>217.0</ele><time>2026-05-01T07:16:01Z</time></trkpt><trkpt lat="45.99274455976333" lon="11.951681734386458"><ele>216.66666666666666</ele><time>2026-05-01T07:16:02Z</time></trkpt><trkpt lat="45.99289206853783" lon="11.951533053991124"><ele>216.33333333333331</ele><time>2026-05-01T07:16:03Z</time></trkpt><trkpt lat="45.99303948410289" lon="11.9513841283864"><ele>216.0</ele><time>2026-05-01T07:16:04Z</time></trkpt><trkpt lat="45.993185399332205" lon="11.951236990665254"><ele>216.0</ele><time>2026-05-01T07:16:05Z</time></trkpt><trkpt lat="45.99332880457819" lon="11.951091869057972"><ele>216.0</ele><time>2026-05-01T07:16:06Z</time></trkpt><trkpt lat="45.993469502159556" lon="11.95093954421463"><ele>216.0</ele><time>2026-05-01T07:16:07Z</time></trkpt><trkpt lat="45.99360707346468" lon="11.950782181353022"><ele>216.66666666666669</ele><time>2026-05-01T07:16:08Z</time></trkpt><trkpt lat="45.99374116094378" lon="11.950620793231883"><ele>217.33333333333334</ele><time>2026-05-01T07:16:09Z</time></trkpt><trkpt lat="45.99387264645001" lon="11.95045712513679"><ele>218.0</ele><time>2026-05-01T07:16:10Z</time></trkpt><trkpt lat="45.994003610401" lon="11.950291931538702"><ele>218.0</ele><time>2026-05-01T07:16:11Z</time></trkpt><trkpt lat="45.99413324707952" lon="11.9501293075255"><ele>218.0</ele><time>2026-05-01T07:16:12Z</time></trkpt><trkpt lat="45.99426422466239" lon="11.949969271012105"><ele>218.0</ele><time>2026-05-01T07:16:13Z</time></trkpt><trkpt lat="45.99439691173804" lon="11.949817574345538"><ele>218.66666666666669</ele><time>2026-05-01T07:16:14Z</time></trkpt><trkpt lat="45.99453291492009" lon="11.949687778158227"><ele>219.33333333333331</ele><time>2026-05-01T07:16:15Z</time></trkpt><trkpt lat="45.994667775471456" lon="11.949571727457005"><ele>220.0</ele><time>2026-05-01T07:16:16Z</time></trkpt><trkpt lat="45.99480900571901" lon="11.949463337509636"><ele>220.0</ele><time>2026-05-01T07:16:17Z</time></trkpt><trkpt lat="45.99495202833834" lon="11.949366012415336"><ele>220.0</ele><time>2026-05-01T07:16:18Z</time></trkpt><trkpt lat="45.995086737381065" lon="11.949277015022824"><ele>220.0</ele><time>2026-05-01T07:16:19Z</time></trkpt><trkpt lat="45.99521701028998" lon="11.949187160363564"><ele>221.33333333333331</ele><time>2026-05-01T07:16:20Z</time></trkpt><trkpt lat="45.9953627374474" lon="11.94910050257103"><ele>222.66666666666669</ele><time>2026-05-01T07:16:21Z</time></trkpt><trkpt lat="45.99550466767153" lon="11.949013706307342"><ele>224.0</ele><time>2026-05-01T07:16:22Z</time></trkpt><trkpt lat="45.99564695026717" lon="11.948923884697981"><ele>224.0</ele><time>2026-05-01T07:16:23Z</time></trkpt><trkpt lat="45.99579019040456" lon="11.9488394842781"><ele>224.0</ele><time>2026-05-01T07:16:24Z</time></trkpt><trkpt lat="45.99593458166792" lon="11.9487654276671"><ele>224.0</ele><time>2026-05-01T07:16:25Z</time></trkpt><trkpt lat="45.99608255139309" lon="11.948710183798104"><ele>223.0</ele><time>2026-05-01T07:16:26Z</time></trkpt><trkpt lat="45.9962317429497" lon="11.94865650640046"><ele>222.0</ele><time>2026-05-01T07:16:27Z</time></trkpt><trkpt lat="45.99638234794399" lon="11.948612024057788"><ele>221.0</ele><time>2026-05-01T07:16:28Z</time></trkpt><trkpt lat="45.996533910465025" lon="11.948577575450816"><ele>221.33333333333334</ele><time>2026-05-01T07:16:29Z</time></trkpt><trkpt lat="45.996688870381945" lon="11.948544981138795"><ele>221.66666666666669</ele><time>2026-05-01T07:16:30Z</time></trkpt><trkpt lat="45.99684217041456" lon="11.948519308527874"><ele>222.0</ele><time>2026-05-01T07:16:31Z</time></trkpt><trkpt lat="45.996998497061746" lon="11.948498064818601"><ele>222.0</ele><time>2026-05-01T07:16:32Z</time></trkpt><trkpt lat="45.99715362112619" lon="11.948484910669697"><ele>222.0</ele><time>2026-05-01T07:16:33Z</time></trkpt><trkpt lat="45.997310358914085" lon="11.948475534419691"><ele>222.0</ele><time>2026-05-01T07:16:34Z</time></trkpt><trkpt lat="45.99747209150793" lon="11.948458792230324"><ele>221.66666666666669</ele><time>2026-05-01T07:16:35Z</time></trkpt><trkpt lat="45.99764174668388" lon="11.948438947386325"><ele>221.33333333333334</ele><time>2026-05-01T07:16:36Z</time></trkpt><trkpt lat="45.99781042464367" lon="11.948421046606317"><ele>221.0</ele><time>2026-05-01T07:16:37Z</time></trkpt><trkpt lat="45.99798460854528" lon="11.948404452303764"><ele>221.0</ele><time>2026-05-01T07:16:38Z</time></trkpt><trkpt lat="45.998163793142496" lon="11.948389923365015"><ele>221.0</ele><time>2026-05-01T07:16:39Z</time></trkpt><trkpt lat="45.99832331852129" lon="11.948381707025273"><ele>221.0</ele><time>2026-05-01T07:16:40Z</time></trkpt><trkpt lat="45.99846928205172" lon="11.948377055792298"><ele>221.25</ele><time>2026-05-01T07:16:41Z</time></trkpt><trkpt lat="45.99860270951606" lon="11.94837708401611"><ele>221.5</ele><time>2026-05-01T07:16:41.999Z</time></trkpt><trkpt lat="45.99872966344784" lon="11.948381701761893"><ele>221.75</ele><time>2026-05-01T07:16:42.999Z</time></trkpt><trkpt lat="45.99884979892636" lon="11.948391051990267"><ele>222.0</ele><time>2026-05-01T07:16:43.999Z</time></trkpt><trkpt lat="45.99896374176144" lon="11.948399551535882"><ele>222.0</ele><time>2026-05-01T07:16:44.999Z</time></trkpt><trkpt lat="45.99907980082017" lon="11.948402940736424"><ele>222.0</ele><time>2026-05-01T07:16:45.999Z</time></trkpt><trkpt lat="45.9991984530685" lon="11.948402908895524"><ele>222.0</ele><time>2026-05-01T07:16:46.999Z</time></trkpt><trkpt lat="45.999318708349875" lon="11.948390012762447"><ele>222.0</ele><time>2026-05-01T07:16:47.999Z</time></trkpt><trkpt lat="45.999439037867006" lon="11.948365274017446"><ele>222.75</ele><time>2026-05-01T07:16:48.999Z</time></trkpt><trkpt lat="45.999564707326954" lon="11.948327787984244"><ele>223.5</ele><time>2026-05-01T07:16:49.999Z</time></trkpt><trkpt lat="45.9996911160848" lon="11.948272824475051"><ele>224.25</ele><time>2026-05-01T07:16:50.999Z</time></trkpt><trkpt lat="45.999816217798525" lon="11.948209761926414"><ele>225.0</ele><time>2026-05-01T07:16:51.999Z</time></trkpt><trkpt lat="45.99993734657133" lon="11.948132697351879"><ele>225.0</ele><time>2026-05-01T07:16:52.999Z</time></trkpt><trkpt lat="46.00005589198818" lon="11.948041243582518"><ele>225.0</ele><time>2026-05-01T07:16:53.999Z</time></trkpt><trkpt lat="46.000164549947584" lon="11.947927008268"><ele>225.0</ele><time>2026-05-01T07:16:54.999Z</time></trkpt><trkpt lat="46.000263083658055" lon="11.947795975630344"><ele>225.0</ele><time>2026-05-01T07:16:55.999Z</time></trkpt><trkpt lat="46.000346591032944" lon="11.947648833652858"><ele>225.5</ele><time>2026-05-01T07:16:56.999Z</time></trkpt><trkpt lat="46.00041823870713" lon="11.947488194442235"><ele>226.0</ele><time>2026-05-01T07:16:57.999Z</time></trkpt><trkpt lat="46.00048303920656" lon="11.947330418485427"><ele>226.5</ele><time>2026-05-01T07:16:58.999Z</time></trkpt><trkpt lat="46.00055192117106" lon="11.94716576986686"><ele>227.0</ele><time>2026-05-01T07:16:59.999Z</time></trkpt><trkpt lat="46.00062149836438" lon="11.946999776525914"><ele>227.0</ele><time>2026-05-01T07:17:00.999Z</time></trkpt><trkpt lat="46.00069073444633" lon="11.946837191046198"><ele>227.0</ele><time>2026-05-01T07:17:01.999Z</time></trkpt><trkpt lat="46.00075853552829" lon="11.946674404678104"><ele>227.0</ele><time>2026-05-01T07:17:02.999Z</time></trkpt><trkpt lat="46.000822695885844" lon="11.946521206810642"><ele>227.0</ele><time>2026-05-01T07:17:03.999Z</time></trkpt><trkpt lat="46.0008829312227" lon="11.946364613550335"><ele>226.5</ele><time>2026-05-01T07:17:04.999Z</time></trkpt><trkpt lat="46.00093413675624" lon="11.94620254505269"><ele>226.0</ele><time>2026-05-01T07:17:05.999Z</time></trkpt><trkpt lat="46.00097222152633" lon="11.946030694508789"><ele>225.5</ele><time>2026-05-01T07:17:06.999Z</time></trkpt><trkpt lat="46.00100339177861" lon="11.945856128815779"><ele>225.0</ele><time>2026-05-01T07:17:07.999Z</time></trkpt><trkpt lat="46.00102875547679" lon="11.945679683841721"><ele>225.0</ele><time>2026-05-01T07:17:09Z</time></trkpt><trkpt lat="46.001049144971745" lon="11.945501545545627"><ele>225.0</ele><time>2026-05-01T07:17:10Z</time></trkpt><trkpt lat="46.00106583187598" lon="11.945325054947991"><ele>225.0</ele><time>2026-05-01T07:17:11Z</time></trkpt><trkpt lat="46.00108175884885" lon="11.945150455835655"><ele>225.0</ele><time>2026-05-01T07:17:12Z</time></trkpt><trkpt lat="46.00109615570215" lon="11.944977407349445"><ele>225.0</ele><time>2026-05-01T07:17:13Z</time></trkpt><trkpt lat="46.00110462705124" lon="11.944799687290182"><ele>225.0</ele><time>2026-05-01T07:17:14Z</time></trkpt><trkpt lat="46.00110345683458" lon="11.94462185568289"><ele>225.0</ele><time>2026-05-01T07:17:15Z</time></trkpt><trkpt lat="46.001087940534795" lon="11.944452779157967"><ele>225.0</ele><time>2026-05-01T07:17:16Z</time></trkpt><trkpt lat="46.00105998474132" lon="11.944277879352175"><ele>226.25</ele><time>2026-05-01T07:17:17Z</time></trkpt><trkpt lat="46.001019595857954" lon="11.944106131501446"><ele>227.5</ele><time>2026-05-01T07:17:18Z</time></trkpt><trkpt lat="46.00096969935798" lon="11.94393537044922"><ele>228.75</ele><time>2026-05-01T07:17:19Z</time></trkpt><trkpt lat="46.00090799061919" lon="11.94377119431935"><ele>230.0</ele><time>2026-05-01T07:17:20Z</time></trkpt><trkpt lat="46.000835838428074" lon="11.9436140720414"><ele>229.75</ele><time>2026-05-01T07:17:21Z</time></trkpt><trkpt lat="46.0007548514803" lon="11.943463300073372"><ele>229.5</ele><time>2026-05-01T07:17:22Z</time></trkpt><trkpt lat="46.00066648969446" lon="11.943316311063901"><ele>229.25</ele><time>2026-05-01T07:17:23Z</time></trkpt><trkpt lat="46.000572955699724" lon="11.943173136761164"><ele>229.0</ele><time>2026-05-01T07:17:24Z</time></trkpt><trkpt lat="46.00047205243047" lon="11.943026177720244"><ele>228.66666666666666</ele><time>2026-05-01T07:17:25Z</time></trkpt><trkpt lat="46.000357808074334" lon="11.942862942593612"><ele>228.33333333333331</ele><time>2026-05-01T07:17:26Z</time></trkpt><trkpt lat="46.00023852708058" lon="11.942687330162384"><ele>228.0</ele><time>2026-05-01T07:17:27Z</time></trkpt><trkpt lat="46.00011533204921" lon="11.942503518614151"><ele>228.66666666666669</ele><time>2026-05-01T07:17:28Z</time></trkpt><trkpt lat="45.99999768757161" lon="11.942311735211067"><ele>229.33333333333334</ele><time>2026-05-01T07:17:29Z</time></trkpt><trkpt lat="45.99988982338939" lon="11.942101146834581"><ele>230.0</ele><time>2026-05-01T07:17:30Z</time></trkpt><trkpt lat="45.99980334259782" lon="11.94188218286331"><ele>231.33333333333334</ele><time>2026-05-01T07:17:31Z</time></trkpt><trkpt lat="45.99974017163197" lon="11.94164508850266"><ele>232.66666666666669</ele><time>2026-05-01T07:17:32Z</time></trkpt><trkpt lat="45.99970256222083" lon="11.941403248571262"><ele>234.0</ele><time>2026-05-01T07:17:33Z</time></trkpt><trkpt lat="45.9996903058566" lon="11.941171921703678"><ele>234.0</ele><time>2026-05-01T07:17:34Z</time></trkpt><trkpt lat="45.99969513012165" lon="11.940939709289434"><ele>234.0</ele><time>2026-05-01T07:17:35Z</time></trkpt><trkpt lat="45.999724970700115" lon="11.940712933565317"><ele>234.0</ele><time>2026-05-01T07:17:36Z</time></trkpt><trkpt lat="45.99977186286679" lon="11.940487938084173"><ele>234.33333333333331</ele><time>2026-05-01T07:17:37Z</time></trkpt><trkpt lat="45.99984110858413" lon="11.940271698901595"><ele>234.66666666666666</ele><time>2026-05-01T07:17:38Z</time></trkpt><trkpt lat="45.99993191291075" lon="11.940072770508635"><ele>235.0</ele><time>2026-05-01T07:17:39Z</time></trkpt><trkpt lat="46.00003786862205" lon="11.939888720302894"><ele>233.33333333333331</ele><time>2026-05-01T07:17:40Z</time></trkpt><trkpt lat="46.00015925578632" lon="11.939723868775818"><ele>231.66666666666669</ele><time>2026-05-01T07:17:41Z</time></trkpt><trkpt lat="46.0003013769566" lon="11.939589446538061"><ele>230.0</ele><time>2026-05-01T07:17:42Z</time></trkpt><trkpt lat="46.00045679093342" lon="11.939466456606151"><ele>230.0</ele><time>2026-05-01T07:17:43Z</time></trkpt><trkpt lat="46.0006197318114" lon="11.939356091568209"><ele>230.0</ele><time>2026-05-01T07:17:44Z</time></trkpt><trkpt lat="46.00078880265256" lon="11.939248963539244"><ele>230.0</ele><time>2026-05-01T07:17:45Z</time></trkpt><trkpt lat="46.000960993019824" lon="11.939147582139356"><ele>229.66666666666669</ele><time>2026-05-01T07:17:46Z</time></trkpt><trkpt lat="46.00112910457268" lon="11.939049349045025"><ele>229.33333333333331</ele><time>2026-05-01T07:17:47Z</time></trkpt><trkpt lat="46.00130294500028" lon="11.93895003911994"><ele>229.0</ele><time>2026-05-01T07:17:48Z</time></trkpt><trkpt lat="46.0014713738337" lon="11.938855518406028"><ele>229.0</ele><time>2026-05-01T07:17:49Z</time></trkpt><trkpt lat="46.00162571856985" lon="11.93877253616547"><ele>229.0</ele><time>2026-05-01T07:17:50Z</time></trkpt><trkpt lat="46.0017870390921" lon="11.938685788651327"><ele>229.0</ele><time>2026-05-01T07:17:51Z</time></trkpt><trkpt lat="46.001948479171084" lon="11.938596375256516"><ele>229.33333333333331</ele><time>2026-05-01T07:17:52Z</time></trkpt><trkpt lat="46.0021118537564" lon="11.938509208450188"><ele>229.66666666666669</ele><time>2026-05-01T07:17:53Z</time></trkpt><trkpt lat="46.00227557721621" lon="11.938422960701963"><ele>230.0</ele><time>2026-05-01T07:17:54Z</time></trkpt><trkpt lat="46.00244033865184" lon="11.93833467491119"><ele>232.66666666666669</ele><time>2026-05-01T07:17:55Z</time></trkpt><trkpt lat="46.00260512152963" lon="11.938243134327907"><ele>235.33333333333331</ele><time>2026-05-01T07:17:56Z</time></trkpt><trkpt lat="46.00277205782815" lon="11.93815234833138"><ele>238.0</ele><time>2026-05-01T07:17:57Z</time></trkpt><trkpt lat="46.00293971195773" lon="11.93806080896498"><ele>238.0</ele><time>2026-05-01T07:17:58Z</time></trkpt><trkpt lat="46.003107976324635" lon="11.937965370107605"><ele>238.0</ele><time>2026-05-01T07:17:59Z</time></trkpt><trkpt lat="46.00327724048007" lon="11.937865054849683"><ele>238.0</ele><time>2026-05-01T07:18:00Z</time></trkpt><trkpt lat="46.00344563715665" lon="11.937761512782545"><ele>236.33333333333331</ele><time>2026-05-01T07:18:01Z</time></trkpt><trkpt lat="46.00360749968771" lon="11.93765802274003"><ele>234.66666666666669</ele><time>2026-05-01T07:18:02Z</time></trkpt><trkpt lat="46.003764310053775" lon="11.937562092147386"><ele>233.0</ele><time>2026-05-01T07:18:03Z</time></trkpt><trkpt lat="46.003926079350094" lon="11.937465477563755"><ele>232.33333333333334</ele><time>2026-05-01T07:18:04Z</time></trkpt><trkpt lat="46.004085621564094" lon="11.937371252861091"><ele>231.66666666666669</ele><time>2026-05-01T07:18:05Z</time></trkpt><trkpt lat="46.0042395536495" lon="11.937281474467648"><ele>231.0</ele><time>2026-05-01T07:18:06Z</time></trkpt><trkpt lat="46.00439197112961" lon="11.937185341910851"><ele>231.0</ele><time>2026-05-01T07:18:07Z</time></trkpt><trkpt lat="46.00453197732689" lon="11.93706392863711"><ele>231.0</ele><time>2026-05-01T07:18:08Z</time></trkpt><trkpt lat="46.00466208600564" lon="11.936916121387418"><ele>231.0</ele><time>2026-05-01T07:18:09Z</time></trkpt><trkpt lat="46.0047741170286" lon="11.936732912969326"><ele>231.0</ele><time>2026-05-01T07:18:10Z</time></trkpt><trkpt lat="46.004866331607076" lon="11.936529643150507"><ele>231.0</ele><time>2026-05-01T07:18:11Z</time></trkpt><trkpt lat="46.004949038364316" lon="11.936319580307917"><ele>231.0</ele><time>2026-05-01T07:18:12Z</time></trkpt><trkpt lat="46.005034236747484" lon="11.93610675600864"><ele>231.0</ele><time>2026-05-01T07:18:13Z</time></trkpt><trkpt lat="46.00513238814582" lon="11.935898817576307"><ele>231.0</ele><time>2026-05-01T07:18:14Z</time></trkpt><trkpt lat="46.00523703503903" lon="11.935691509400067"><ele>231.0</ele><time>2026-05-01T07:18:15Z</time></trkpt><trkpt lat="46.00534862177915" lon="11.93547779114894"><ele>231.0</ele><time>2026-05-01T07:18:16Z</time></trkpt><trkpt lat="46.00546273495686" lon="11.935266194530243"><ele>231.0</ele><time>2026-05-01T07:18:17Z</time></trkpt><trkpt lat="46.00556869425373" lon="11.935071466036357"><ele>231.0</ele><time>2026-05-01T07:18:18Z</time></trkpt><trkpt lat="46.005671573180436" lon="11.93487567618872"><ele>231.66666666666669</ele><time>2026-05-01T07:18:19Z</time></trkpt><trkpt lat="46.005776193603296" lon="11.93467852102013"><ele>232.33333333333334</ele><time>2026-05-01T07:18:20Z</time></trkpt><trkpt lat="46.00588350805636" lon="11.934480544019133"><ele>233.0</ele><time>2026-05-01T07:18:21Z</time></trkpt><trkpt lat="46.00599226065143" lon="11.934281602088314"><ele>233.0</ele><time>2026-05-01T07:18:22Z</time></trkpt><trkpt lat="46.006102385030054" lon="11.934079626994254"><ele>233.0</ele><time>2026-05-01T07:18:23Z</time></trkpt><trkpt lat="46.00621168551338" lon="11.933877032784581"><ele>233.0</ele><time>2026-05-01T07:18:24Z</time></trkpt><trkpt lat="46.00632165533655" lon="11.933677442399576"><ele>233.0</ele><time>2026-05-01T07:18:25Z</time></trkpt><trkpt lat="46.00643199789764" lon="11.933472659149613"><ele>233.0</ele><time>2026-05-01T07:18:26Z</time></trkpt><trkpt lat="46.00654219936218" lon="11.933271356645175"><ele>233.0</ele><time>2026-05-01T07:18:27Z</time></trkpt><trkpt lat="46.006652649247926" lon="11.933069381937724"><ele>233.0</ele><time>2026-05-01T07:18:28Z</time></trkpt><trkpt lat="46.00676136335182" lon="11.93286849980699"><ele>233.0</ele><time>2026-05-01T07:18:29Z</time></trkpt><trkpt lat="46.00686982624421" lon="11.932666687781753"><ele>233.0</ele><time>2026-05-01T07:18:30Z</time></trkpt><trkpt lat="46.00697879514821" lon="11.932465296406592"><ele>233.33333333333334</ele><time>2026-05-01T07:18:31Z</time></trkpt><trkpt lat="46.007088041959804" lon="11.932262430305562"><ele>233.66666666666669</ele><time>2026-05-01T07:18:32Z</time></trkpt><trkpt lat="46.0071964004199" lon="11.932056326800973"><ele>234.0</ele><time>2026-05-01T07:18:33Z</time></trkpt><trkpt lat="46.00730610274126" lon="11.93185150691127"><ele>234.0</ele><time>2026-05-01T07:18:34Z</time></trkpt><trkpt lat="46.00741656070262" lon="11.931648160226553"><ele>234.0</ele><time>2026-05-01T07:18:35Z</time></trkpt><trkpt lat="46.00752636977023" lon="11.931444079247191"><ele>234.0</ele><time>2026-05-01T07:18:36Z</time></trkpt><trkpt lat="46.00763554142577" lon="11.9312395608691"><ele>233.66666666666669</ele><time>2026-05-01T07:18:37Z</time></trkpt><trkpt lat="46.007745989119385" lon="11.931034974191743"><ele>233.33333333333334</ele><time>2026-05-01T07:18:38Z</time></trkpt><trkpt lat="46.00785511313018" lon="11.930829973976255"><ele>233.0</ele><time>2026-05-01T07:18:39Z</time></trkpt><trkpt lat="46.00795676224674" lon="11.930637916672826"><ele>233.0</ele><time>2026-05-01T07:18:40Z</time></trkpt><trkpt lat="46.00805324397041" lon="11.930454850627623"><ele>233.0</ele><time>2026-05-01T07:18:41Z</time></trkpt><trkpt lat="46.00814508021239" lon="11.930284149519483"><ele>233.0</ele><time>2026-05-01T07:18:42Z</time></trkpt><trkpt lat="46.00822445887861" lon="11.930136770108815"><ele>233.0</ele><time>2026-05-01T07:18:43Z</time></trkpt><trkpt lat="46.00829671556221" lon="11.930001931190764"><ele>233.60000000000002</ele><time>2026-05-01T07:18:44Z</time></trkpt><trkpt lat="46.008360327216195" lon="11.929885781036903"><ele>234.20000000000002</ele><time>2026-05-01T07:18:45Z</time></trkpt><trkpt lat="46.00842042005187" lon="11.929784413589786"><ele>234.8</ele><time>2026-05-01T07:18:46Z</time></trkpt><trkpt lat="46.008481612947705" lon="11.929710958924582"><ele>235.4</ele><time>2026-05-01T07:18:47Z</time></trkpt><trkpt lat="46.008540635090924" lon="11.929667437212368"><ele>236.0</ele><time>2026-05-01T07:18:48Z</time></trkpt><trkpt lat="46.00865166739201" lon="11.929646348071177"><ele>236.00000000000003</ele><time>2026-05-01T07:18:50Z</time></trkpt><trkpt lat="46.008751525298045" lon="11.929679692239695"><ele>236.0</ele><time>2026-05-01T07:18:52Z</time></trkpt><trkpt lat="46.008851859552514" lon="11.929773825189134"><ele>236.0</ele><time>2026-05-01T07:18:53.999Z</time></trkpt><trkpt lat="46.00890773158255" lon="11.929824610030314"><ele>236.0</ele><time>2026-05-01T07:18:54.999Z</time></trkpt><trkpt lat="46.00897963232555" lon="11.92985049426278"><ele>236.00000000000003</ele><time>2026-05-01T07:18:55.999Z</time></trkpt><trkpt lat="46.00905040949453" lon="11.929843639051796"><ele>236.0</ele><time>2026-05-01T07:18:56.999Z</time></trkpt><trkpt lat="46.009126247245845" lon="11.929800036840474"><ele>236.60000000000002</ele><time>2026-05-01T07:18:57.999Z</time></trkpt><trkpt lat="46.0091994094838" lon="11.929731157574585"><ele>237.20000000000002</ele><time>2026-05-01T07:18:58.999Z</time></trkpt><trkpt lat="46.00923908484567" lon="11.92963174030835"><ele>237.79999999999998</ele><time>2026-05-01T07:18:59.999Z</time></trkpt><trkpt lat="46.00935108107839" lon="11.92958122507517"><ele>238.39999999999998</ele><time>2026-05-01T07:19:00.999Z</time></trkpt><trkpt lat="46.00944672779333" lon="11.92952386848054"><ele>239.0</ele><time>2026-05-01T07:19:01.999Z</time></trkpt><trkpt lat="46.00955331021139" lon="11.92945242662084"><ele>239.0</ele><time>2026-05-01T07:19:02.999Z</time></trkpt><trkpt lat="46.00965318641426" lon="11.929347376083483"><ele>239.0</ele><time>2026-05-01T07:19:03.999Z</time></trkpt><trkpt lat="46.0097462151738" lon="11.92921927851673"><ele>239.0</ele><time>2026-05-01T07:19:04.999Z</time></trkpt><trkpt lat="46.00983283251623" lon="11.929064652866707"><ele>239.0</ele><time>2026-05-01T07:19:05.999Z</time></trkpt><trkpt lat="46.00992181248311" lon="11.92891264656031"><ele>238.75</ele><time>2026-05-01T07:19:06.999Z</time></trkpt><trkpt lat="46.010008819030745" lon="11.928762594007921"><ele>238.5</ele><time>2026-05-01T07:19:07.999Z</time></trkpt><trkpt lat="46.01010016117857" lon="11.928609981358667"><ele>238.25</ele><time>2026-05-01T07:19:08.999Z</time></trkpt><trkpt lat="46.010195041749846" lon="11.92844339159159"><ele>238.0</ele><time>2026-05-01T07:19:09.999Z</time></trkpt><trkpt lat="46.010290997683384" lon="11.928276316199398"><ele>238.75</ele><time>2026-05-01T07:19:10.999Z</time></trkpt><trkpt lat="46.010384491913754" lon="11.928109907123043"><ele>239.5</ele><time>2026-05-01T07:19:11.999Z</time></trkpt><trkpt lat="46.01047499036488" lon="11.927946972460276"><ele>240.25</ele><time>2026-05-01T07:19:12.999Z</time></trkpt><trkpt lat="46.01057597095499" lon="11.927780693524774"><ele>241.0</ele><time>2026-05-01T07:19:13.999Z</time></trkpt><trkpt lat="46.01068295539551" lon="11.927615774054802"><ele>240.66666666666666</ele><time>2026-05-01T07:19:15Z</time></trkpt><trkpt lat="46.010783096731465" lon="11.927454692894695"><ele>240.33333333333331</ele><time>2026-05-01T07:19:16Z</time></trkpt><trkpt lat="46.01087808254539" lon="11.927283165449088"><ele>240.0</ele><time>2026-05-01T07:19:17Z</time></trkpt><trkpt lat="46.010969973978746" lon="11.92711156077393"><ele>240.0</ele><time>2026-05-01T07:19:18Z</time></trkpt><trkpt lat="46.011058540375544" lon="11.926934002236585"><ele>240.0</ele><time>2026-05-01T07:19:19Z</time></trkpt><trkpt lat="46.01114227091895" lon="11.92674955445241"><ele>240.0</ele><time>2026-05-01T07:19:20Z</time></trkpt><trkpt lat="46.01122013548214" lon="11.926564821169887"><ele>240.66666666666669</ele><time>2026-05-01T07:19:21Z</time></trkpt><trkpt lat="46.01129095812159" lon="11.926374176307789"><ele>241.33333333333334</ele><time>2026-05-01T07:19:22Z</time></trkpt><trkpt lat="46.011354576085054" lon="11.926184264923034"><ele>242.0</ele><time>2026-05-01T07:19:23Z</time></trkpt><trkpt lat="46.01141337588008" lon="11.925978337000565"><ele>242.0</ele><time>2026-05-01T07:19:24Z</time></trkpt><trkpt lat="46.011466408216336" lon="11.925774484010013"><ele>242.0</ele><time>2026-05-01T07:19:25Z</time></trkpt><trkpt lat="46.011512589770796" lon="11.925567240403527"><ele>242.0</ele><time>2026-05-01T07:19:26Z</time></trkpt><trkpt lat="46.01155293208427" lon="11.925365329596145"><ele>242.0</ele><time>2026-05-01T07:19:27Z</time></trkpt><trkpt lat="46.011587111095935" lon="11.925157762048249"><ele>242.25</ele><time>2026-05-01T07:19:28Z</time></trkpt><trkpt lat="46.0116192207497" lon="11.924961559522865"><ele>242.5</ele><time>2026-05-01T07:19:29Z</time></trkpt><trkpt lat="46.011657549065305" lon="11.924780894797662"><ele>242.75</ele><time>2026-05-01T07:19:30Z</time></trkpt><trkpt lat="46.011704344945926" lon="11.92459216457858"><ele>243.0</ele><time>2026-05-01T07:19:31Z</time></trkpt><trkpt lat="46.01175997038907" lon="11.92440470274511"><ele>244.0</ele><time>2026-05-01T07:19:32Z</time></trkpt><trkpt lat="46.011822609595846" lon="11.92422715071783"><ele>245.0</ele><time>2026-05-01T07:19:33Z</time></trkpt><trkpt lat="46.01191092496304" lon="11.924066222281551"><ele>246.0</ele><time>2026-05-01T07:19:34Z</time></trkpt><trkpt lat="46.01201763977942" lon="11.923922948988581"><ele>247.0</ele><time>2026-05-01T07:19:35Z</time></trkpt><trkpt lat="46.01213957197475" lon="11.923803724963692"><ele>247.0</ele><time>2026-05-01T07:19:36Z</time></trkpt><trkpt lat="46.012267377081606" lon="11.923697996181216"><ele>247.0</ele><time>2026-05-01T07:19:37Z</time></trkpt><trkpt lat="46.01239355107379" lon="11.923586352316658"><ele>247.0</ele><time>2026-05-01T07:19:38Z</time></trkpt><trkpt lat="46.01251344801496" lon="11.923457681948879"><ele>247.0</ele><time>2026-05-01T07:19:39Z</time></trkpt><trkpt lat="46.01263107111527" lon="11.92332392990162"><ele>249.66666666666666</ele><time>2026-05-01T07:19:40Z</time></trkpt><trkpt lat="46.01274358754748" lon="11.923175792119952"><ele>252.33333333333331</ele><time>2026-05-01T07:19:41Z</time></trkpt><trkpt lat="46.01285323828494" lon="11.923023181840145"><ele>255.0</ele><time>2026-05-01T07:19:42Z</time></trkpt><trkpt lat="46.012956317220684" lon="11.922868271994421"><ele>255.0</ele><time>2026-05-01T07:19:43Z</time></trkpt><trkpt lat="46.013048244516675" lon="11.922701146697825"><ele>255.0</ele><time>2026-05-01T07:19:44Z</time></trkpt><trkpt lat="46.01313514387284" lon="11.922517279325083"><ele>255.0</ele><time>2026-05-01T07:19:45Z</time></trkpt><trkpt lat="46.013218740584534" lon="11.922331512100847"><ele>256.3333333333333</ele><time>2026-05-01T07:19:46Z</time></trkpt><trkpt lat="46.01329647148448" lon="11.922146360092018"><ele>257.66666666666663</ele><time>2026-05-01T07:19:47Z</time></trkpt><trkpt lat="46.013362633994674" lon="11.921950857798317"><ele>259.0</ele><time>2026-05-01T07:19:48Z</time></trkpt><trkpt lat="46.01342055280649" lon="11.92175400993137"><ele>257.25</ele><time>2026-05-01T07:19:49Z</time></trkpt><trkpt lat="46.01347209189893" lon="11.92155145748263"><ele>255.5</ele><time>2026-05-01T07:19:50Z</time></trkpt><trkpt lat="46.01351519757201" lon="11.92134468518553"><ele>253.75</ele><time>2026-05-01T07:19:51Z</time></trkpt><trkpt lat="46.01355011768303" lon="11.921135989220161"><ele>252.0</ele><time>2026-05-01T07:19:52Z</time></trkpt><trkpt lat="46.01357737853096" lon="11.920922421939098"><ele>253.33333333333331</ele><time>2026-05-01T07:19:53Z</time></trkpt><trkpt lat="46.01359730200517" lon="11.92071012170093"><ele>254.66666666666666</ele><time>2026-05-01T07:19:54Z</time></trkpt><trkpt lat="46.01360861175807" lon="11.920492762240903"><ele>256.0</ele><time>2026-05-01T07:19:55Z</time></trkpt><trkpt lat="46.01361906588115" lon="11.92027265180044"><ele>257.66666666666663</ele><time>2026-05-01T07:19:56Z</time></trkpt><trkpt lat="46.013628463847326" lon="11.920051506313959"><ele>259.3333333333333</ele><time>2026-05-01T07:19:57Z</time></trkpt><trkpt lat="46.01363656551676" lon="11.919830028431386"><ele>261.0</ele><time>2026-05-01T07:19:58Z</time></trkpt><trkpt lat="46.01364285508643" lon="11.919614880994802"><ele>261.0</ele><time>2026-05-01T07:19:59Z</time></trkpt><trkpt lat="46.0136430963549" lon="11.919400301538978"><ele>261.0</ele><time>2026-05-01T07:20:00Z</time></trkpt><trkpt lat="46.01363487399676" lon="11.919184869759956"><ele>261.0</ele><time>2026-05-01T07:20:01Z</time></trkpt><trkpt lat="46.01362101646939" lon="11.918971306999435"><ele>261.0</ele><time>2026-05-01T07:20:02Z</time></trkpt><trkpt lat="46.013601988818394" lon="11.918758097678644"><ele>260.3333333333333</ele><time>2026-05-01T07:20:03Z</time></trkpt><trkpt lat="46.0135817076058" lon="11.918544979249827"><ele>259.66666666666663</ele><time>2026-05-01T07:20:04Z</time></trkpt><trkpt lat="46.01355965527605" lon="11.918330286279149"><ele>259.0</ele><time>2026-05-01T07:20:05Z</time></trkpt><trkpt lat="46.01353796694445" lon="11.918116695183214"><ele>259.0</ele><time>2026-05-01T07:20:06Z</time></trkpt><trkpt lat="46.01351775812134" lon="11.917901614839755"><ele>259.0</ele><time>2026-05-01T07:20:07Z</time></trkpt><trkpt lat="46.013509327918754" lon="11.917685349925652"><ele>259.0</ele><time>2026-05-01T07:20:08Z</time></trkpt><trkpt lat="46.01351219518051" lon="11.917468253812645"><ele>259.0</ele><time>2026-05-01T07:20:09Z</time></trkpt><trkpt lat="46.01352627067861" lon="11.917252779171465"><ele>259.0</ele><time>2026-05-01T07:20:10Z</time></trkpt><trkpt lat="46.01354585212857" lon="11.917036307694408"><ele>259.0</ele><time>2026-05-01T07:20:11Z</time></trkpt><trkpt lat="46.01357005376417" lon="11.916820702041589"><ele>258.66666666666663</ele><time>2026-05-01T07:20:12Z</time></trkpt><trkpt lat="46.01360018417074" lon="11.916606105561234"><ele>258.3333333333333</ele><time>2026-05-01T07:20:13Z</time></trkpt><trkpt lat="46.013633013828034" lon="11.916390437803411"><ele>258.0</ele><time>2026-05-01T07:20:14Z</time></trkpt><trkpt lat="46.013664252173704" lon="11.91617477764504"><ele>258.0</ele><time>2026-05-01T07:20:15Z</time></trkpt><trkpt lat="46.01369593646332" lon="11.915957302608009"><ele>258.0</ele><time>2026-05-01T07:20:16Z</time></trkpt><trkpt lat="46.013728076887865" lon="11.915738730157225"><ele>258.0</ele><time>2026-05-01T07:20:17Z</time></trkpt><trkpt lat="46.01375753827411" lon="11.915535510435891"><ele>256.5</ele><time>2026-05-01T07:20:18Z</time></trkpt><trkpt lat="46.01378525175961" lon="11.915340164435461"><ele>255.0</ele><time>2026-05-01T07:20:19Z</time></trkpt><trkpt lat="46.01381358116863" lon="11.915156479809585"><ele>253.5</ele><time>2026-05-01T07:20:20Z</time></trkpt><trkpt lat="46.01383910260158" lon="11.91498368695142"><ele>252.0</ele><time>2026-05-01T07:20:21Z</time></trkpt><trkpt lat="46.013858607656296" lon="11.914817343198168"><ele>251.8</ele><time>2026-05-01T07:20:22Z</time></trkpt><trkpt lat="46.01387306387902" lon="11.914660257183947"><ele>251.6</ele><time>2026-05-01T07:20:23Z</time></trkpt><trkpt lat="46.013882597849516" lon="11.914508094935352"><ele>251.40000000000003</ele><time>2026-05-01T07:20:24Z</time></trkpt><trkpt lat="46.01388827333087" lon="11.914360582386347"><ele>251.20000000000002</ele><time>2026-05-01T07:20:25Z</time></trkpt><trkpt lat="46.01388915540265" lon="11.9142103227161"><ele>251.0</ele><time>2026-05-01T07:20:26Z</time></trkpt><trkpt lat="46.01388778955714" lon="11.91405751442053"><ele>251.0</ele><time>2026-05-01T07:20:27Z</time></trkpt><trkpt lat="46.01388310161985" lon="11.91391026349241"><ele>251.00000000000003</ele><time>2026-05-01T07:20:28Z</time></trkpt><trkpt lat="46.01387246868834" lon="11.913752012368976"><ele>251.00000000000003</ele><time>2026-05-01T07:20:29Z</time></trkpt><trkpt lat="46.01385607189553" lon="11.913598990423237"><ele>251.0</ele><time>2026-05-01T07:20:30Z</time></trkpt><trkpt lat="46.01383557835017" lon="11.913456957656551"><ele>251.0</ele><time>2026-05-01T07:20:31Z</time></trkpt><trkpt lat="46.013814685935714" lon="11.913323847177"><ele>251.00000000000003</ele><time>2026-05-01T07:20:32Z</time></trkpt><trkpt lat="46.01379394634151" lon="11.91319766473948"><ele>251.0</ele><time>2026-05-01T07:20:33Z</time></trkpt><trkpt lat="46.01377604265713" lon="11.913082898079525"><ele>251.0</ele><time>2026-05-01T07:20:34Z</time></trkpt><trkpt lat="46.013764157801795" lon="11.912973856262557"><ele>251.0</ele><time>2026-05-01T07:20:35Z</time></trkpt><trkpt lat="46.013765808963" lon="11.912876257388012"><ele>251.00000000000003</ele><time>2026-05-01T07:20:36Z</time></trkpt><trkpt lat="46.013802286982695" lon="11.912749340972018"><ele>251.0</ele><time>2026-05-01T07:20:40Z</time></trkpt><trkpt lat="46.01383167532836" lon="11.912660870165123"><ele>251.33333333333334</ele><time>2026-05-01T07:20:41Z</time></trkpt><trkpt lat="46.01383786264249" lon="11.912564641117342"><ele>251.66666666666669</ele><time>2026-05-01T07:20:42Z</time></trkpt><trkpt lat="46.01381404456667" lon="11.912473818831419"><ele>252.0</ele><time>2026-05-01T07:20:43Z</time></trkpt><trkpt lat="46.01375088067986" lon="11.912397819220269"><ele>252.33333333333331</ele><time>2026-05-01T07:20:44Z</time></trkpt><trkpt lat="46.01367367540463" lon="11.91234756018546"><ele>252.66666666666666</ele><time>2026-05-01T07:20:45Z</time></trkpt><trkpt lat="46.013601477412806" lon="11.912277616984527"><ele>253.0</ele><time>2026-05-01T07:20:46Z</time></trkpt><trkpt lat="46.0135295422856" lon="11.91221775945573"><ele>253.0</ele><time>2026-05-01T07:20:47Z</time></trkpt><trkpt lat="46.013518905041416" lon="11.91202459067567"><ele>253.0</ele><time>2026-05-01T07:20:48Z</time></trkpt><trkpt lat="46.01348529709656" lon="11.911890225292655"><ele>253.0</ele><time>2026-05-01T07:20:49Z</time></trkpt><trkpt lat="46.01345056623038" lon="11.911751348644419"><ele>253.0</ele><time>2026-05-01T07:20:49.999Z</time></trkpt><trkpt lat="46.013415274629345" lon="11.911611355399673"><ele>253.0</ele><time>2026-05-01T07:20:50.999Z</time></trkpt><trkpt lat="46.01338081628982" lon="11.911471464038721"><ele>253.4</ele><time>2026-05-01T07:20:51.999Z</time></trkpt><trkpt lat="46.01335078899498" lon="11.911338137052551"><ele>253.8</ele><time>2026-05-01T07:20:52.999Z</time></trkpt><trkpt lat="46.01332150886529" lon="11.911203967144264"><ele>254.2</ele><time>2026-05-01T07:20:53.999Z</time></trkpt><trkpt lat="46.01328816582102" lon="11.911062439354003"><ele>254.6</ele><time>2026-05-01T07:20:54.999Z</time></trkpt><trkpt lat="46.01325318382509" lon="11.910923290347444"><ele>255.0</ele><time>2026-05-01T07:20:55.999Z</time></trkpt><trkpt lat="46.01322011573054" lon="11.9107846654835"><ele>255.0</ele><time>2026-05-01T07:20:56.999Z</time></trkpt><trkpt lat="46.01318898723727" lon="11.910646560341398"><ele>255.0</ele><time>2026-05-01T07:20:57.999Z</time></trkpt><trkpt lat="46.013158287852214" lon="11.910509214278887"><ele>255.0</ele><time>2026-05-01T07:20:58.999Z</time></trkpt><trkpt lat="46.013129253278905" lon="11.910384108986728"><ele>255.0</ele><time>2026-05-01T07:20:59.999Z</time></trkpt><trkpt lat="46.013103576396546" lon="11.910265965226635"><ele>255.0</ele><time>2026-05-01T07:21:00.999Z</time></trkpt><trkpt lat="46.01308007766622" lon="11.910152726136518"><ele>254.83333333333334</ele><time>2026-05-01T07:21:01.999Z</time></trkpt><trkpt lat="46.01305262185123" lon="11.910038936901833"><ele>254.66666666666669</ele><time>2026-05-01T07:21:02.999Z</time></trkpt><trkpt lat="46.01301869089517" lon="11.909921740599511"><ele>254.5</ele><time>2026-05-01T07:21:03.999Z</time></trkpt><trkpt lat="46.012985202714646" lon="11.909802377783832"><ele>254.33333333333334</ele><time>2026-05-01T07:21:04.999Z</time></trkpt><trkpt lat="46.01296230111971" lon="11.909678822918687"><ele>254.16666666666669</ele><time>2026-05-01T07:21:05.999Z</time></trkpt><trkpt lat="46.0129553356933" lon="11.909552436633083"><ele>254.0</ele><time>2026-05-01T07:21:06.999Z</time></trkpt><trkpt lat="46.0129589240086" lon="11.909421364797371"><ele>254.00000000000003</ele><time>2026-05-01T07:21:07.999Z</time></trkpt><trkpt lat="46.01297900555082" lon="11.909289355386262"><ele>254.0</ele><time>2026-05-01T07:21:08.999Z</time></trkpt><trkpt lat="46.01301416162081" lon="11.909168844849225"><ele>254.0</ele><time>2026-05-01T07:21:09.999Z</time></trkpt><trkpt lat="46.01305789291631" lon="11.909058647650665"><ele>254.0</ele><time>2026-05-01T07:21:10.999Z</time></trkpt><trkpt lat="46.0131047420716" lon="11.908967504155568"><ele>254.00000000000003</ele><time>2026-05-01T07:21:11.999Z</time></trkpt><trkpt lat="46.01315256070489" lon="11.908888833187628"><ele>254.0</ele><time>2026-05-01T07:21:12.999Z</time></trkpt><trkpt lat="46.0132010386035" lon="11.90881470381761"><ele>254.00000000000003</ele><time>2026-05-01T07:21:13.999Z</time></trkpt><trkpt lat="46.01325479605386" lon="11.90874182890193"><ele>254.0</ele><time>2026-05-01T07:21:14.999Z</time></trkpt><trkpt lat="46.013312145901715" lon="11.908665900514704"><ele>254.0</ele><time>2026-05-01T07:21:15.999Z</time></trkpt><trkpt lat="46.013369028137596" lon="11.908585452951895"><ele>254.0</ele><time>2026-05-01T07:21:16.999Z</time></trkpt><trkpt lat="46.01342359896203" lon="11.908505371376108"><ele>254.00000000000003</ele><time>2026-05-01T07:21:17.999Z</time></trkpt><trkpt lat="46.01347489901351" lon="11.908430627749382"><ele>254.0</ele><time>2026-05-01T07:21:18.999Z</time></trkpt><trkpt lat="46.01352340724958" lon="11.908354678576307"><ele>254.28571428571428</ele><time>2026-05-01T07:21:19.999Z</time></trkpt><trkpt lat="46.01358621058061" lon="11.908298453791263"><ele>254.57142857142856</ele><time>2026-05-01T07:21:21Z</time></trkpt><trkpt lat="46.013623977251655" lon="11.90821240865232"><ele>254.85714285714283</ele><time>2026-05-01T07:21:22Z</time></trkpt><trkpt lat="46.01368584323299" lon="11.908156829248181"><ele>255.14285714285714</ele><time>2026-05-01T07:21:23Z</time></trkpt><trkpt lat="46.013737920124484" lon="11.908082803630625"><ele>255.4285714285714</ele><time>2026-05-01T07:21:24Z</time></trkpt><trkpt lat="46.013793619185925" lon="11.908003629263042"><ele>255.7142857142857</ele><time>2026-05-01T07:21:25Z</time></trkpt><trkpt lat="46.01384351415652" lon="11.907915254348366"><ele>256.0</ele><time>2026-05-01T07:21:26Z</time></trkpt><trkpt lat="46.01389726216037" lon="11.907838631747973"><ele>256.0</ele><time>2026-05-01T07:21:27Z</time></trkpt><trkpt lat="46.013946195064655" lon="11.907771485407235"><ele>255.99999999999997</ele><time>2026-05-01T07:21:28Z</time></trkpt><trkpt lat="46.013994499440145" lon="11.907703116176425"><ele>256.0</ele><time>2026-05-01T07:21:29Z</time></trkpt><trkpt lat="46.01404590556896" lon="11.907631855753499"><ele>256.0</ele><time>2026-05-01T07:21:30Z</time></trkpt><trkpt lat="46.014101130339334" lon="11.907554599269847"><ele>255.99999999999997</ele><time>2026-05-01T07:21:31Z</time></trkpt><trkpt lat="46.01415413742046" lon="11.907480424360973"><ele>256.0</ele><time>2026-05-01T07:21:32Z</time></trkpt><trkpt lat="46.01420922073141" lon="11.907405337296389"><ele>256.0</ele><time>2026-05-01T07:21:33Z</time></trkpt><trkpt lat="46.01426413468434" lon="11.907329731620768"><ele>255.99999999999997</ele><time>2026-05-01T07:21:34Z</time></trkpt><trkpt lat="46.014320246885724" lon="11.907253529203537"><ele>256.0</ele><time>2026-05-01T07:21:35Z</time></trkpt><trkpt lat="46.014373280305506" lon="11.907178358678426"><ele>256.0</ele><time>2026-05-01T07:21:36Z</time></trkpt><trkpt lat="46.01442735255569" lon="11.907094159330747"><ele>256.0</ele><time>2026-05-01T07:21:37Z</time></trkpt><trkpt lat="46.014484459288305" lon="11.907013575649058"><ele>255.99999999999997</ele><time>2026-05-01T07:21:38Z</time></trkpt><trkpt lat="46.014542767815065" lon="11.906932279607057"><ele>256.0</ele><time>2026-05-01T07:21:39Z</time></trkpt><trkpt lat="46.014602134150685" lon="11.906845809261306"><ele>256.0</ele><time>2026-05-01T07:21:40Z</time></trkpt><trkpt lat="46.014663327592324" lon="11.906757785598282"><ele>256.0</ele><time>2026-05-01T07:21:41Z</time></trkpt><trkpt lat="46.01473024321743" lon="11.906666885433673"><ele>256.0</ele><time>2026-05-01T07:21:42Z</time></trkpt><trkpt lat="46.01480311705526" lon="11.906570830266954"><ele>256.0</ele><time>2026-05-01T07:21:43Z</time></trkpt><trkpt lat="46.01486588926624" lon="11.906472639866356"><ele>256.0</ele><time>2026-05-01T07:21:44Z</time></trkpt><trkpt lat="46.014925810084634" lon="11.906384259209688"><ele>257.0</ele><time>2026-05-01T07:21:45Z</time></trkpt><trkpt lat="46.014991803452055" lon="11.90627922954158"><ele>258.0</ele><time>2026-05-01T07:21:46Z</time></trkpt><trkpt lat="46.01505274289784" lon="11.906167327754448"><ele>259.0</ele><time>2026-05-01T07:21:47Z</time></trkpt><trkpt lat="46.015097965479086" lon="11.906040091229414"><ele>260.0</ele><time>2026-05-01T07:21:48Z</time></trkpt><trkpt lat="46.01513169628124" lon="11.90591117278089"><ele>261.0</ele><time>2026-05-01T07:21:49Z</time></trkpt><trkpt lat="46.015157012836724" lon="11.905789447901874"><ele>261.2</ele><time>2026-05-01T07:21:50Z</time></trkpt><trkpt lat="46.01518013842333" lon="11.90565810958604"><ele>261.40000000000003</ele><time>2026-05-01T07:21:51Z</time></trkpt><trkpt lat="46.015203108899385" lon="11.905524500807624"><ele>261.6</ele><time>2026-05-01T07:21:52Z</time></trkpt><trkpt lat="46.015225587922316" lon="11.905384965508068"><ele>261.8</ele><time>2026-05-01T07:21:53Z</time></trkpt><trkpt lat="46.01525082067237" lon="11.90524089214502"><ele>262.0</ele><time>2026-05-01T07:21:54Z</time></trkpt><trkpt lat="46.01527724462401" lon="11.905088483497854"><ele>262.2</ele><time>2026-05-01T07:21:55Z</time></trkpt><trkpt lat="46.015306675620195" lon="11.9049328325302"><ele>262.4</ele><time>2026-05-01T07:21:56Z</time></trkpt><trkpt lat="46.015337214226946" lon="11.904778208279627"><ele>262.6</ele><time>2026-05-01T07:21:57Z</time></trkpt><trkpt lat="46.01536572684231" lon="11.904625383078725"><ele>262.8</ele><time>2026-05-01T07:21:58Z</time></trkpt><trkpt lat="46.01539274928261" lon="11.904468954495064"><ele>263.0</ele><time>2026-05-01T07:21:59Z</time></trkpt><trkpt lat="46.015418978330686" lon="11.904310086272758"><ele>263.0</ele><time>2026-05-01T07:22:00Z</time></trkpt><trkpt lat="46.015445594908506" lon="11.904150217105338"><ele>263.0</ele><time>2026-05-01T07:22:01Z</time></trkpt><trkpt lat="46.01547281281086" lon="11.90398590594099"><ele>263.0</ele><time>2026-05-01T07:22:02Z</time></trkpt><trkpt lat="46.01550251650752" lon="11.9038312779466"><ele>263.0</ele><time>2026-05-01T07:22:03Z</time></trkpt><trkpt lat="46.01552764785943" lon="11.903686202859951"><ele>263.0</ele><time>2026-05-01T07:22:04Z</time></trkpt><trkpt lat="46.0155512708329" lon="11.903550615274119"><ele>263.0</ele><time>2026-05-01T07:22:05Z</time></trkpt><trkpt lat="46.01557430142013" lon="11.90341592930506"><ele>263.0</ele><time>2026-05-01T07:22:06Z</time></trkpt><trkpt lat="46.015594982614964" lon="11.903287934371951"><ele>263.0</ele><time>2026-05-01T07:22:07Z</time></trkpt><trkpt lat="46.01561529592546" lon="11.903162194923773"><ele>263.0</ele><time>2026-05-01T07:22:08Z</time></trkpt><trkpt lat="46.015636404175524" lon="11.903036422837385"><ele>263.0</ele><time>2026-05-01T07:22:09Z</time></trkpt><trkpt lat="46.01565583697569" lon="11.902915850951995"><ele>263.0</ele><time>2026-05-01T07:22:10Z</time></trkpt><trkpt lat="46.015670013320914" lon="11.902805959975938"><ele>263.0</ele><time>2026-05-01T07:22:11Z</time></trkpt><trkpt lat="46.01568581203832" lon="11.902700807199933"><ele>263.0</ele><time>2026-05-01T07:22:12Z</time></trkpt><trkpt lat="46.015700704662684" lon="11.902603523939293"><ele>263.0</ele><time>2026-05-01T07:22:13Z</time></trkpt><trkpt lat="46.01571621320323" lon="11.902508762423956"><ele>263.0</ele><time>2026-05-01T07:22:14Z</time></trkpt><trkpt lat="46.01573081407112" lon="11.902418404491426"><ele>263.0</ele><time>2026-05-01T07:22:15Z</time></trkpt><trkpt lat="46.01574606823068" lon="11.90231379283285"><ele>263.0</ele><time>2026-05-01T07:22:16Z</time></trkpt><trkpt lat="46.015761031496744" lon="11.90220449933015"><ele>263.0</ele><time>2026-05-01T07:22:17Z</time></trkpt><trkpt lat="46.0157707119656" lon="11.902090455408834"><ele>263.0</ele><time>2026-05-01T07:22:18Z</time></trkpt><trkpt lat="46.015776995720834" lon="11.901969988573045"><ele>263.0</ele><time>2026-05-01T07:22:19Z</time></trkpt><trkpt lat="46.01580129504614" lon="11.90185422330035"><ele>263.0</ele><time>2026-05-01T07:22:20Z</time></trkpt><trkpt lat="46.01583769482136" lon="11.901758101245974"><ele>263.0</ele><time>2026-05-01T07:22:21Z</time></trkpt><trkpt lat="46.0158754178473" lon="11.901670002103126"><ele>263.0</ele><time>2026-05-01T07:22:22Z</time></trkpt><trkpt lat="46.01592409178683" lon="11.901602042177332"><ele>263.6666666666667</ele><time>2026-05-01T07:22:23Z</time></trkpt><trkpt lat="46.01597764342283" lon="11.901536533822568"><ele>264.33333333333337</ele><time>2026-05-01T07:22:24Z</time></trkpt><trkpt lat="46.01604683686396" lon="11.901483898639082"><ele>265.0</ele><time>2026-05-01T07:22:25Z</time></trkpt><trkpt lat="46.01612208648885" lon="11.90144635028011"><ele>265.6666666666667</ele><time>2026-05-01T07:22:26Z</time></trkpt><trkpt lat="46.01619793515354" lon="11.901408771138225"><ele>266.3333333333333</ele><time>2026-05-01T07:22:27Z</time></trkpt><trkpt lat="46.0162637861527" lon="11.901378991496996"><ele>267.0</ele><time>2026-05-01T07:22:28Z</time></trkpt><trkpt lat="46.016332037148636" lon="11.901344956920768"><ele>267.0</ele><time>2026-05-01T07:22:29Z</time></trkpt><trkpt lat="46.01640249548218" lon="11.901308729168864"><ele>267.0</ele><time>2026-05-01T07:22:30Z</time></trkpt><trkpt lat="46.01647708599879" lon="11.901270429083118"><ele>267.0</ele><time>2026-05-01T07:22:31Z</time></trkpt><trkpt lat="46.01656050203492" lon="11.901223247141495"><ele>267.0</ele><time>2026-05-01T07:22:32Z</time></trkpt><trkpt lat="46.016651508358805" lon="11.90117426250984"><ele>267.0</ele><time>2026-05-01T07:22:33Z</time></trkpt><trkpt lat="46.016744805855055" lon="11.901126980334569"><ele>267.0</ele><time>2026-05-01T07:22:34Z</time></trkpt><trkpt lat="46.0168273356566" lon="11.901086629771173"><ele>266.8333333333333</ele><time>2026-05-01T07:22:35Z</time></trkpt><trkpt lat="46.016901586834855" lon="11.901045484597567"><ele>266.6666666666667</ele><time>2026-05-01T07:22:36Z</time></trkpt><trkpt lat="46.01696665297182" lon="11.901008671467492"><ele>266.5</ele><time>2026-05-01T07:22:37Z</time></trkpt><trkpt lat="46.017080244171204" lon="11.900944899034952"><ele>266.33333333333337</ele><time>2026-05-01T07:22:39Z</time></trkpt><trkpt lat="46.017141174553764" lon="11.900912271995715"><ele>266.1666666666667</ele><time>2026-05-01T07:22:40Z</time></trkpt><trkpt lat="46.01724062700815" lon="11.90084558904548"><ele>266.0</ele><time>2026-05-01T07:22:42Z</time></trkpt><trkpt lat="46.017322244376764" lon="11.900780032047328"><ele>266.0</ele><time>2026-05-01T07:22:44Z</time></trkpt><trkpt lat="46.01739210617534" lon="11.900676036128562"><ele>266.0</ele><time>2026-05-01T07:22:46Z</time></trkpt><trkpt lat="46.017477168185145" lon="11.90067577988795"><ele>266.0</ele><time>2026-05-01T07:22:47Z</time></trkpt><trkpt lat="46.017545944217495" lon="11.90069305809633"><ele>266.0</ele><time>2026-05-01T07:22:48Z</time></trkpt><trkpt lat="46.01762543490392" lon="11.900650110595096"><ele>266.0</ele><time>2026-05-01T07:22:49Z</time></trkpt><trkpt lat="46.017735562824726" lon="11.900730475001499"><ele>266.33333333333337</ele><time>2026-05-01T07:22:50.999Z</time></trkpt><trkpt lat="46.017779152450174" lon="11.90080578601485"><ele>266.6666666666667</ele><time>2026-05-01T07:22:51.999Z</time></trkpt><trkpt lat="46.017812830611604" lon="11.900899279449721"><ele>267.0</ele><time>2026-05-01T07:22:52.999Z</time></trkpt><trkpt lat="46.01783973161531" lon="11.901003440337796"><ele>267.3333333333333</ele><time>2026-05-01T07:22:53.999Z</time></trkpt><trkpt lat="46.01786220089935" lon="11.901115321267099"><ele>267.66666666666663</ele><time>2026-05-01T07:22:54.999Z</time></trkpt><trkpt lat="46.017871075870325" lon="11.901236342698722"><ele>268.0</ele><time>2026-05-01T07:22:55.999Z</time></trkpt><trkpt lat="46.017880965243144" lon="11.90135938723503"><ele>268.0</ele><time>2026-05-01T07:22:56.999Z</time></trkpt><trkpt lat="46.017889449442464" lon="11.901476507564071"><ele>268.0</ele><time>2026-05-01T07:22:57.999Z</time></trkpt><trkpt lat="46.0178967386945" lon="11.90158759130754"><ele>268.0</ele><time>2026-05-01T07:22:58.999Z</time></trkpt><trkpt lat="46.01790704733309" lon="11.901699285660753"><ele>268.0</ele><time>2026-05-01T07:22:59.999Z</time></trkpt><trkpt lat="46.0179167478351" lon="11.901808758409928"><ele>268.0</ele><time>2026-05-01T07:23:00.999Z</time></trkpt><trkpt lat="46.017925156204335" lon="11.901919942763614"><ele>268.0</ele><time>2026-05-01T07:23:01.999Z</time></trkpt><trkpt lat="46.01793672456624" lon="11.9020315641641"><ele>268.16666666666663</ele><time>2026-05-01T07:23:02.999Z</time></trkpt><trkpt lat="46.017927047207266" lon="11.90214341609795"><ele>268.3333333333333</ele><time>2026-05-01T07:23:03.999Z</time></trkpt><trkpt lat="46.017946322287855" lon="11.902263255376402"><ele>268.5</ele><time>2026-05-01T07:23:04.999Z</time></trkpt><trkpt lat="46.01793841150832" lon="11.902380286488384"><ele>268.6666666666667</ele><time>2026-05-01T07:23:05.999Z</time></trkpt><trkpt lat="46.01794308686148" lon="11.902488093442791"><ele>268.83333333333337</ele><time>2026-05-01T07:23:06.999Z</time></trkpt><trkpt lat="46.01794693576052" lon="11.902583506174297"><ele>269.0</ele><time>2026-05-01T07:23:07.999Z</time></trkpt><trkpt lat="46.01795658106274" lon="11.90273901558543"><ele>269.2</ele><time>2026-05-01T07:23:09.999Z</time></trkpt><trkpt lat="46.017874918269115" lon="11.90289024534296"><ele>269.4</ele><time>2026-05-01T07:23:11.999Z</time></trkpt><trkpt lat="46.01784482783685" lon="11.90298870909172"><ele>269.6</ele><time>2026-05-01T07:23:12.999Z</time></trkpt><trkpt lat="46.01779908149461" lon="11.90308556159211"><ele>269.8</ele><time>2026-05-01T07:23:13.999Z</time></trkpt><trkpt lat="46.01774976550881" lon="11.903180831113112"><ele>270.0</ele><time>2026-05-01T07:23:14.999Z</time></trkpt><trkpt lat="46.01769098275989" lon="11.903269767691352"><ele>270.0</ele><time>2026-05-01T07:23:15.999Z</time></trkpt><trkpt lat="46.017648938592835" lon="11.903364789721898"><ele>270.0</ele><time>2026-05-01T07:23:16.999Z</time></trkpt><trkpt lat="46.01761166363176" lon="11.903456505575317"><ele>270.0</ele><time>2026-05-01T07:23:17.999Z</time></trkpt><trkpt lat="46.017578372652316" lon="11.903541950382651"><ele>270.0</ele><time>2026-05-01T07:23:18.999Z</time></trkpt><trkpt lat="46.017530667242085" lon="11.903679868528934"><ele>270.0</ele><time>2026-05-01T07:23:20.999Z</time></trkpt><trkpt lat="46.0175018676727" lon="11.903770254801337"><ele>270.0</ele><time>2026-05-01T07:23:22.999Z</time></trkpt><trkpt lat="46.01745760775878" lon="11.903838100965137"><ele>270.4</ele><time>2026-05-01T07:23:25.999Z</time></trkpt><trkpt lat="46.01742230250189" lon="11.903927578877697"><ele>270.8</ele><time>2026-05-01T07:23:28Z</time></trkpt><trkpt lat="46.0173773121141" lon="11.904046877928602"><ele>271.2</ele><time>2026-05-01T07:23:30Z</time></trkpt><trkpt lat="46.01734576427949" lon="11.904156488833475"><ele>271.6</ele><time>2026-05-01T07:23:32Z</time></trkpt><trkpt lat="46.01733096119018" lon="11.90425125358534"><ele>272.0</ele><time>2026-05-01T07:23:34Z</time></trkpt><trkpt lat="46.017507837919474" lon="11.904292199678899"><ele>273.5</ele><time>2026-05-01T07:23:36Z</time></trkpt><trkpt lat="46.01757892801113" lon="11.904285070320732"><ele>275.0</ele><time>2026-05-01T07:23:37Z</time></trkpt><trkpt lat="46.01766358583282" lon="11.90432072613387"><ele>276.5</ele><time>2026-05-01T07:23:38Z</time></trkpt><trkpt lat="46.01774613318158" lon="11.904368722134752"><ele>278.0</ele><time>2026-05-01T07:23:39Z</time></trkpt><trkpt lat="46.01782777453888" lon="11.904431884294754"><ele>279.5</ele><time>2026-05-01T07:23:40Z</time></trkpt><trkpt lat="46.01790778087841" lon="11.904494710102577"><ele>281.0</ele><time>2026-05-01T07:23:41Z</time></trkpt><trkpt lat="46.01798920687479" lon="11.904561581655356"><ele>281.0</ele><time>2026-05-01T07:23:42Z</time></trkpt><trkpt lat="46.01806598563287" lon="11.90464187995558"><ele>281.0</ele><time>2026-05-01T07:23:43Z</time></trkpt><trkpt lat="46.018129912508655" lon="11.90473960983987"><ele>281.0</ele><time>2026-05-01T07:23:44Z</time></trkpt><trkpt lat="46.01818680033422" lon="11.904840419655889"><ele>281.0</ele><time>2026-05-01T07:23:45Z</time></trkpt><trkpt lat="46.018244833187815" lon="11.904939540225147"><ele>281.0</ele><time>2026-05-01T07:23:46Z</time></trkpt><trkpt lat="46.018302942311436" lon="11.90504292632149"><ele>281.6</ele><time>2026-05-01T07:23:47Z</time></trkpt><trkpt lat="46.01836114758338" lon="11.905149277972624"><ele>282.20000000000005</ele><time>2026-05-01T07:23:48Z</time></trkpt><trkpt lat="46.01841491958785" lon="11.905276139545178"><ele>282.79999999999995</ele><time>2026-05-01T07:23:49Z</time></trkpt><trkpt lat="46.01846216020874" lon="11.905407414755963"><ele>283.4</ele><time>2026-05-01T07:23:50Z</time></trkpt><trkpt lat="46.01850560308418" lon="11.905534503366527"><ele>284.0</ele><time>2026-05-01T07:23:51Z</time></trkpt><trkpt lat="46.018549532399504" lon="11.905671418066651"><ele>284.0</ele><time>2026-05-01T07:23:52Z</time></trkpt><trkpt lat="46.01859224076347" lon="11.905793957570491"><ele>284.0</ele><time>2026-05-01T07:23:53Z</time></trkpt><trkpt lat="46.018628267584496" lon="11.905906739299825"><ele>284.0</ele><time>2026-05-01T07:23:54Z</time></trkpt><trkpt lat="46.018668472093275" lon="11.906010077692214"><ele>284.0</ele><time>2026-05-01T07:23:55Z</time></trkpt><trkpt lat="46.018710193379015" lon="11.906098909238914"><ele>284.0</ele><time>2026-05-01T07:23:56Z</time></trkpt><trkpt lat="46.01878151002396" lon="11.90623354165441"><ele>285.59999999999997</ele><time>2026-05-01T07:23:58Z</time></trkpt><trkpt lat="46.01890715342266" lon="11.906273260133185"><ele>287.2</ele><time>2026-05-01T07:24:00Z</time></trkpt><trkpt lat="46.018990241003216" lon="11.906235314388406"><ele>288.79999999999995</ele><time>2026-05-01T07:24:01Z</time></trkpt><trkpt lat="46.019079856162314" lon="11.906183374616885"><ele>290.4</ele><time>2026-05-01T07:24:02Z</time></trkpt><trkpt lat="46.019178057902515" lon="11.906134801446843"><ele>292.0</ele><time>2026-05-01T07:24:03Z</time></trkpt><trkpt lat="46.019278948165386" lon="11.906089498066851"><ele>288.0</ele><time>2026-05-01T07:24:04Z</time></trkpt><trkpt lat="46.01939029003943" lon="11.906047097226491"><ele>284.0</ele><time>2026-05-01T07:24:05Z</time></trkpt><trkpt lat="46.019505358461025" lon="11.906001143887512"><ele>280.0</ele><time>2026-05-01T07:24:06Z</time></trkpt><trkpt lat="46.01962142169749" lon="11.905951947690047"><ele>276.0</ele><time>2026-05-01T07:24:07Z</time></trkpt><trkpt lat="46.01973789119729" lon="11.905902775659554"><ele>275.0</ele><time>2026-05-01T07:24:08Z</time></trkpt><trkpt lat="46.019853956562955" lon="11.9058537180026"><ele>274.0</ele><time>2026-05-01T07:24:09Z</time></trkpt><trkpt lat="46.0199706034413" lon="11.90580121140639"><ele>273.0</ele><time>2026-05-01T07:24:10Z</time></trkpt><trkpt lat="46.02008699285715" lon="11.90574956107123"><ele>272.0</ele><time>2026-05-01T07:24:11Z</time></trkpt><trkpt lat="46.020203430841974" lon="11.90570203561228"><ele>272.0</ele><time>2026-05-01T07:24:12Z</time></trkpt><trkpt lat="46.02031948084226" lon="11.905655720508845"><ele>272.0</ele><time>2026-05-01T07:24:13Z</time></trkpt><trkpt lat="46.020434246237734" lon="11.905603586912308"><ele>272.0</ele><time>2026-05-01T07:24:14Z</time></trkpt><trkpt lat="46.02055035279622" lon="11.90555532097191"><ele>272.0</ele><time>2026-05-01T07:24:15Z</time></trkpt><trkpt lat="46.02066549399882" lon="11.905510980016826"><ele>272.0</ele><time>2026-05-01T07:24:16Z</time></trkpt><trkpt lat="46.02078314841676" lon="11.905465796051402"><ele>272.0</ele><time>2026-05-01T07:24:17Z</time></trkpt><trkpt lat="46.02088933291749" lon="11.90542363829523"><ele>272.0</ele><time>2026-05-01T07:24:18Z</time></trkpt><trkpt lat="46.02098388769571" lon="11.905383300157423"><ele>272.0</ele><time>2026-05-01T07:24:19Z</time></trkpt><trkpt lat="46.021069300108586" lon="11.905348430417632"><ele>272.0</ele><time>2026-05-01T07:24:20Z</time></trkpt><trkpt lat="46.021146344493474" lon="11.905314193766706"><ele>272.4</ele><time>2026-05-01T07:24:21Z</time></trkpt><trkpt lat="46.02121726070716" lon="11.905285292699002"><ele>272.79999999999995</ele><time>2026-05-01T07:24:22Z</time></trkpt><trkpt lat="46.02128219905035" lon="11.905260290096203"><ele>273.2</ele><time>2026-05-01T07:24:23Z</time></trkpt><trkpt lat="46.021393849687406" lon="11.905209123573828"><ele>273.59999999999997</ele><time>2026-05-01T07:24:25Z</time></trkpt><trkpt lat="46.02149387918125" lon="11.905184640339762"><ele>274.0</ele><time>2026-05-01T07:24:27Z</time></trkpt><trkpt lat="46.02159325315163" lon="11.90520928171736"><ele>274.0</ele><time>2026-05-01T07:24:29Z</time></trkpt><trkpt lat="46.021658034503886" lon="11.9051852835727"><ele>274.0</ele><time>2026-05-01T07:24:30Z</time></trkpt><trkpt lat="46.02176104366049" lon="11.905119736036442"><ele>274.0</ele><time>2026-05-01T07:24:32Z</time></trkpt><trkpt lat="46.021890572215305" lon="11.905058558490854"><ele>274.0</ele><time>2026-05-01T07:24:34Z</time></trkpt><trkpt lat="46.02197789215296" lon="11.90503160240177"><ele>274.0</ele><time>2026-05-01T07:24:35Z</time></trkpt><trkpt lat="46.02208113389257" lon="11.905005208114918"><ele>274.0</ele><time>2026-05-01T07:24:36Z</time></trkpt><trkpt lat="46.02218189989176" lon="11.904983032961953"><ele>274.0</ele><time>2026-05-01T07:24:37Z</time></trkpt><trkpt lat="46.022278553377376" lon="11.90495688498727"><ele>274.0</ele><time>2026-05-01T07:24:38Z</time></trkpt><trkpt lat="46.022369851641386" lon="11.904931872310314"><ele>274.0</ele><time>2026-05-01T07:24:39Z</time></trkpt><trkpt lat="46.02245052358085" lon="11.904909726250812"><ele>274.0</ele><time>2026-05-01T07:24:40Z</time></trkpt><trkpt lat="46.02252375215436" lon="11.904912267807124"><ele>274.0</ele><time>2026-05-01T07:24:41Z</time></trkpt><trkpt lat="46.02258294297931" lon="11.90498910408407"><ele>274.5</ele><time>2026-05-01T07:24:42Z</time></trkpt><trkpt lat="46.02267065457924" lon="11.905019354779515"><ele>275.0</ele><time>2026-05-01T07:24:43Z</time></trkpt><trkpt lat="46.02274854028519" lon="11.905078186150575"><ele>275.5</ele><time>2026-05-01T07:24:44Z</time></trkpt><trkpt lat="46.022825944867805" lon="11.905108006687646"><ele>276.0</ele><time>2026-05-01T07:24:45Z</time></trkpt><trkpt lat="46.0229140617136" lon="11.905108317583753"><ele>276.5</ele><time>2026-05-01T07:24:46Z</time></trkpt><trkpt lat="46.023010183754785" lon="11.905072790964722"><ele>277.0</ele><time>2026-05-01T07:24:47Z</time></trkpt><trkpt lat="46.02310527525205" lon="11.905028311428106"><ele>277.4</ele><time>2026-05-01T07:24:48Z</time></trkpt><trkpt lat="46.0232058155982" lon="11.904999649239"><ele>277.79999999999995</ele><time>2026-05-01T07:24:49Z</time></trkpt><trkpt lat="46.023292557980106" lon="11.904970974188666"><ele>278.2</ele><time>2026-05-01T07:24:50Z</time></trkpt><trkpt lat="46.02338885569994" lon="11.904942882207425"><ele>278.59999999999997</ele><time>2026-05-01T07:24:51Z</time></trkpt><trkpt lat="46.02349177971041" lon="11.904910700854918"><ele>279.0</ele><time>2026-05-01T07:24:52Z</time></trkpt><trkpt lat="46.023593780040464" lon="11.904877910898415"><ele>279.0</ele><time>2026-05-01T07:24:53Z</time></trkpt><trkpt lat="46.02370137585936" lon="11.9048513270433"><ele>279.0</ele><time>2026-05-01T07:24:54Z</time></trkpt><trkpt lat="46.0238089682507" lon="11.90482069156186"><ele>279.0</ele><time>2026-05-01T07:24:55Z</time></trkpt><trkpt lat="46.0239203288665" lon="11.904791313717789"><ele>279.0</ele><time>2026-05-01T07:24:56Z</time></trkpt><trkpt lat="46.024028339007444" lon="11.904765253877724"><ele>279.0</ele><time>2026-05-01T07:24:57Z</time></trkpt><trkpt lat="46.024133141929" lon="11.904743575548816"><ele>279.8</ele><time>2026-05-01T07:24:58Z</time></trkpt><trkpt lat="46.02423971532316" lon="11.904717772847928"><ele>280.59999999999997</ele><time>2026-05-01T07:24:59Z</time></trkpt><trkpt lat="46.024346841124384" lon="11.904690931185153"><ele>281.4</ele><time>2026-05-01T07:25:00Z</time></trkpt><trkpt lat="46.02445539298321" lon="11.904662404451956"><ele>282.2</ele><time>2026-05-01T07:25:01Z</time></trkpt><trkpt lat="46.02456274443468" lon="11.904631134702619"><ele>283.0</ele><time>2026-05-01T07:25:02Z</time></trkpt><trkpt lat="46.02467232301452" lon="11.904599754754173"><ele>283.0</ele><time>2026-05-01T07:25:03Z</time></trkpt><trkpt lat="46.02477629086704" lon="11.904569463385469"><ele>283.0</ele><time>2026-05-01T07:25:03.999Z</time></trkpt><trkpt lat="46.02486885970592" lon="11.90454120079439"><ele>283.0</ele><time>2026-05-01T07:25:04.999Z</time></trkpt><trkpt lat="46.02495738941047" lon="11.904517339760018"><ele>283.0</ele><time>2026-05-01T07:25:05.999Z</time></trkpt><trkpt lat="46.02503474682991" lon="11.904492780275161"><ele>283.0</ele><time>2026-05-01T07:25:06.999Z</time></trkpt><trkpt lat="46.02510453376145" lon="11.904475220844862"><ele>283.0</ele><time>2026-05-01T07:25:07.999Z</time></trkpt><trkpt lat="46.025170482565805" lon="11.904471801302899"><ele>283.3333333333333</ele><time>2026-05-01T07:25:08.999Z</time></trkpt><trkpt lat="46.025240616634115" lon="11.904490476000541"><ele>283.66666666666663</ele><time>2026-05-01T07:25:09.999Z</time></trkpt><trkpt lat="46.025300592666575" lon="11.90452141311257"><ele>284.0</ele><time>2026-05-01T07:25:10.999Z</time></trkpt><trkpt lat="46.02540092138036" lon="11.904602940477657"><ele>284.3333333333333</ele><time>2026-05-01T07:25:12.999Z</time></trkpt><trkpt lat="46.02550618059421" lon="11.90454772909614"><ele>284.6666666666667</ele><time>2026-05-01T07:25:14.999Z</time></trkpt><trkpt lat="46.02552082472042" lon="11.904458631545527"><ele>285.0</ele><time>2026-05-01T07:25:15.999Z</time></trkpt><trkpt lat="46.02546825772846" lon="11.904365554464476"><ele>285.0</ele><time>2026-05-01T07:25:16.999Z</time></trkpt><trkpt lat="46.02542091886618" lon="11.904261094790966"><ele>285.0</ele><time>2026-05-01T07:25:17.999Z</time></trkpt><trkpt lat="46.02540192425066" lon="11.904119887474089"><ele>285.0</ele><time>2026-05-01T07:25:18.999Z</time></trkpt><trkpt lat="46.02533986996047" lon="11.903994976061078"><ele>285.0</ele><time>2026-05-01T07:25:19.999Z</time></trkpt><trkpt lat="46.02535448215693" lon="11.90386348065239"><ele>285.0</ele><time>2026-05-01T07:25:20.999Z</time></trkpt><trkpt lat="46.02534822166297" lon="11.903771550496295"><ele>284.5</ele><time>2026-05-01T07:25:22.999Z</time></trkpt><trkpt lat="46.02545304722861" lon="11.903765987143002"><ele>284.0</ele><time>2026-05-01T07:25:24.999Z</time></trkpt><trkpt lat="46.02553943219375" lon="11.903742190551844"><ele>283.5</ele><time>2026-05-01T07:25:26.999Z</time></trkpt><trkpt lat="46.02564817228278" lon="11.903782805914556"><ele>283.0</ele><time>2026-05-01T07:25:28.999Z</time></trkpt><trkpt lat="46.0256857325882" lon="11.903869433649536"><ele>282.5</ele><time>2026-05-01T07:25:29.999Z</time></trkpt><trkpt lat="46.02575214736647" lon="11.903908232857853"><ele>282.0</ele><time>2026-05-01T07:25:30.999Z</time></trkpt><trkpt lat="46.0258040490958" lon="11.903969195500139"><ele>281.8</ele><time>2026-05-01T07:25:31.999Z</time></trkpt><trkpt lat="46.025889015904205" lon="11.904091242691397"><ele>281.6</ele><time>2026-05-01T07:25:34Z</time></trkpt><trkpt lat="46.025955674620995" lon="11.904167139423635"><ele>281.40000000000003</ele><time>2026-05-01T07:25:36Z</time></trkpt><trkpt lat="46.026065915835154" lon="11.903979052276632"><ele>281.2</ele><time>2026-05-01T07:25:39Z</time></trkpt><trkpt lat="46.02609885057365" lon="11.903894815621642"><ele>281.0</ele><time>2026-05-01T07:25:40Z</time></trkpt><trkpt lat="46.02614008241914" lon="11.90378981603829"><ele>281.0</ele><time>2026-05-01T07:25:41Z</time></trkpt><trkpt lat="46.02618626447392" lon="11.90365930927512"><ele>281.0</ele><time>2026-05-01T07:25:42Z</time></trkpt><trkpt lat="46.02622140050761" lon="11.903548715004526"><ele>281.0</ele><time>2026-05-01T07:25:43Z</time></trkpt><trkpt lat="46.026259084604014" lon="11.903414196988683"><ele>281.0</ele><time>2026-05-01T07:25:45Z</time></trkpt><trkpt lat="46.02624221810196" lon="11.903526645866457"><ele>281.0</ele><time>2026-05-01T07:26:05Z</time></trkpt><trkpt lat="46.02623324272111" lon="11.903422363187163"><ele>281.0</ele><time>2026-05-01T07:28:14Z</time></trkpt><trkpt lat="46.02626428006205" lon="11.90333395910472"><ele>281.00000000000006</ele><time>2026-05-01T07:28:20Z</time></trkpt><trkpt lat="46.02635786347549" lon="11.903310969703929"><ele>281.0</ele><time>2026-05-01T07:28:35Z</time></trkpt><trkpt lat="46.02642549405787" lon="11.903337724358737"><ele>281.0</ele><time>2026-05-01T07:28:41Z</time></trkpt><trkpt lat="46.02644019881" lon="11.903432533563107"><ele>281.0</ele><time>2026-05-01T07:28:48Z</time></trkpt><trkpt lat="46.02643174300928" lon="11.90353189762382"><ele>281.0</ele><time>2026-05-01T07:28:54Z</time></trkpt><trkpt lat="46.02639620144894" lon="11.903610023906062"><ele>281.00000000000006</ele><time>2026-05-01T07:29:27Z</time></trkpt><trkpt lat="46.026329077638906" lon="11.903573022905755"><ele>281.0</ele><time>2026-05-01T07:29:33Z</time></trkpt><trkpt lat="46.026256336307526" lon="11.903548005253525"><ele>281.0</ele><time>2026-05-01T07:29:39.999Z</time></trkpt></trkseg></trk></gpx>